<?xml version='1.0' encoding='UTF-8'?><gpx version="1.1" creator="JPX - https://github.com/jenetics/jpx" xmlns="http://www.topografix.com/GPX/1/1"><trk><trkseg><trkpt lat="38.1470505" lon="14.8537051"><ele>86.0</ele><time>2026-05-03T06:11:17.68Z</time></trkpt><trkpt lat="38.1469745" lon="14.8536288"><ele>86.0</ele><time>2026-05-03T06:12:13.252Z</time></trkpt><trkpt lat="38.1468902" lon="14.8536491"><ele>86.0</ele><time>2026-05-03T06:12:17.252Z</time></trkpt><trkpt lat="38.1468243" lon="14.8535998"><ele>86.0</ele><time>2026-05-03T06:12:18.252Z</time></trkpt><trkpt lat="38.1467445" lon="14.853536"><ele>86.0</ele><time>2026-05-03T06:12:19.252Z</time></trkpt><trkpt lat="38.1466715" lon="14.8534749"><ele>86.0</ele><time>2026-05-03T06:12:20.252Z</time></trkpt><trkpt lat="38.1466065" lon="14.8534085"><ele>87.66666666666667</ele><time>2026-05-03T06:12:21.252Z</time></trkpt><trkpt lat="38.1465534" lon="14.8533473"><ele>89.33333333333334</ele><time>2026-05-03T06:12:22.252Z</time></trkpt><trkpt lat="38.1465113" lon="14.8532621"><ele>91.0</ele><time>2026-05-03T06:12:24.252Z</time></trkpt><trkpt lat="38.1465903" lon="14.8532236"><ele>92.66666666666667</ele><time>2026-05-03T06:12:26.252Z</time></trkpt><trkpt lat="38.1466733" lon="14.8532394"><ele>94.33333333333333</ele><time>2026-05-03T06:12:27.252Z</time></trkpt><trkpt lat="38.1467951" lon="14.8532676"><ele>96.0</ele><time>2026-05-03T06:12:28.252Z</time></trkpt><trkpt lat="38.1469465" lon="14.853306"><ele>96.0</ele><time>2026-05-03T06:12:29.252Z</time></trkpt><trkpt lat="38.1470929" lon="14.8533428"><ele>96.0</ele><time>2026-05-03T06:12:30.252Z</time></trkpt><trkpt lat="38.147215" lon="14.8533638"><ele>96.0</ele><time>2026-05-03T06:12:31.252Z</time></trkpt><trkpt lat="38.1473218" lon="14.8533629"><ele>96.0</ele><time>2026-05-03T06:12:32.252Z</time></trkpt><trkpt lat="38.1474167" lon="14.8533257"><ele>94.8</ele><time>2026-05-03T06:12:33.252Z</time></trkpt><trkpt lat="38.1475069" lon="14.8532556"><ele>93.6</ele><time>2026-05-03T06:12:34.252Z</time></trkpt><trkpt lat="38.147592" lon="14.8531714"><ele>92.4</ele><time>2026-05-03T06:12:35.251Z</time></trkpt><trkpt lat="38.14768" lon="14.8530783"><ele>91.2</ele><time>2026-05-03T06:12:36.252Z</time></trkpt><trkpt lat="38.1477767" lon="14.8530217"><ele>90.0</ele><time>2026-05-03T06:12:37.251Z</time></trkpt><trkpt lat="38.1478667" lon="14.8529767"><ele>90.0</ele><time>2026-05-03T06:12:38.251Z</time></trkpt><trkpt lat="38.147945" lon="14.85294"><ele>90.0</ele><time>2026-05-03T06:12:39.252Z</time></trkpt><trkpt lat="38.1480283" lon="14.8528733"><ele>90.0</ele><time>2026-05-03T06:12:41.252Z</time></trkpt><trkpt lat="38.1480167" lon="14.852785"><ele>90.0</ele><time>2026-05-03T06:12:43.252Z</time></trkpt><trkpt lat="38.1479533" lon="14.85275"><ele>90.0</ele><time>2026-05-03T06:12:44.252Z</time></trkpt><trkpt lat="38.1478733" lon="14.85275"><ele>90.0</ele><time>2026-05-03T06:12:45.252Z</time></trkpt><trkpt lat="38.147785" lon="14.8527867"><ele>90.0</ele><time>2026-05-03T06:12:46.252Z</time></trkpt><trkpt lat="38.1477167" lon="14.8528233"><ele>90.0</ele><time>2026-05-03T06:12:47.252Z</time></trkpt><trkpt lat="38.1477283" lon="14.852735"><ele>90.0</ele><time>2026-05-03T06:12:51.252Z</time></trkpt><trkpt lat="38.1478167" lon="14.8526633"><ele>90.0</ele><time>2026-05-03T06:12:52.252Z</time></trkpt><trkpt lat="38.1479183" lon="14.8526017"><ele>90.0</ele><time>2026-05-03T06:12:53.252Z</time></trkpt><trkpt lat="38.148025" lon="14.8525717"><ele>93.0</ele><time>2026-05-03T06:12:54.252Z</time></trkpt><trkpt lat="38.14812" lon="14.8525717"><ele>96.0</ele><time>2026-05-03T06:12:55.252Z</time></trkpt><trkpt lat="38.148195" lon="14.8525633"><ele>99.0</ele><time>2026-05-03T06:12:56.252Z</time></trkpt><trkpt lat="38.1482717" lon="14.8525367"><ele>102.0</ele><time>2026-05-03T06:12:57.252Z</time></trkpt><trkpt lat="38.1483483" lon="14.8524917"><ele>105.0</ele><time>2026-05-03T06:12:58.252Z</time></trkpt><trkpt lat="38.14842" lon="14.85242"><ele>108.0</ele><time>2026-05-03T06:12:59.252Z</time></trkpt><trkpt lat="38.1484867" lon="14.8523317"><ele>108.0</ele><time>2026-05-03T06:13:00.252Z</time></trkpt><trkpt lat="38.1485433" lon="14.852235"><ele>108.00000000000001</ele><time>2026-05-03T06:13:01.252Z</time></trkpt><trkpt lat="38.1485767" lon="14.8521233"><ele>108.00000000000001</ele><time>2026-05-03T06:13:02.252Z</time></trkpt><trkpt lat="38.14859" lon="14.852005"><ele>108.0</ele><time>2026-05-03T06:13:03.252Z</time></trkpt><trkpt lat="38.1486017" lon="14.8518917"><ele>108.0</ele><time>2026-05-03T06:13:04.252Z</time></trkpt><trkpt lat="38.1486067" lon="14.8517483"><ele>110.66666666666667</ele><time>2026-05-03T06:13:05.252Z</time></trkpt><trkpt lat="38.1485983" lon="14.8516267"><ele>113.33333333333334</ele><time>2026-05-03T06:13:06.252Z</time></trkpt><trkpt lat="38.1485933" lon="14.8515183"><ele>116.0</ele><time>2026-05-03T06:13:07.252Z</time></trkpt><trkpt lat="38.1485983" lon="14.851425"><ele>118.66666666666667</ele><time>2026-05-03T06:13:08.252Z</time></trkpt><trkpt lat="38.1485717" lon="14.8513183"><ele>121.33333333333334</ele><time>2026-05-03T06:13:10.252Z</time></trkpt><trkpt lat="38.1485067" lon="14.851325"><ele>124.0</ele><time>2026-05-03T06:13:12.252Z</time></trkpt><trkpt lat="38.1484633" lon="14.85139"><ele>124.0</ele><time>2026-05-03T06:13:13.252Z</time></trkpt><trkpt lat="38.148405" lon="14.8514983"><ele>124.0</ele><time>2026-05-03T06:13:14.252Z</time></trkpt><trkpt lat="38.1483283" lon="14.8516417"><ele>124.0</ele><time>2026-05-03T06:13:15.252Z</time></trkpt><trkpt lat="38.1482333" lon="14.851785"><ele>124.0</ele><time>2026-05-03T06:13:16.252Z</time></trkpt><trkpt lat="38.14815" lon="14.851905"><ele>124.80000000000001</ele><time>2026-05-03T06:13:17.252Z</time></trkpt><trkpt lat="38.1480767" lon="14.8519983"><ele>125.60000000000001</ele><time>2026-05-03T06:13:18.252Z</time></trkpt><trkpt lat="38.1480067" lon="14.8520767"><ele>126.4</ele><time>2026-05-03T06:13:19.252Z</time></trkpt><trkpt lat="38.1479383" lon="14.8521367"><ele>127.2</ele><time>2026-05-03T06:13:20.252Z</time></trkpt><trkpt lat="38.147855" lon="14.8521717"><ele>128.0</ele><time>2026-05-03T06:13:21.252Z</time></trkpt><trkpt lat="38.1477567" lon="14.8521933"><ele>128.0</ele><time>2026-05-03T06:13:22.252Z</time></trkpt><trkpt lat="38.1476483" lon="14.8521967"><ele>128.0</ele><time>2026-05-03T06:13:23.252Z</time></trkpt><trkpt lat="38.1475567" lon="14.8521967"><ele>128.0</ele><time>2026-05-03T06:13:24.252Z</time></trkpt><trkpt lat="38.1474733" lon="14.85222"><ele>128.0</ele><time>2026-05-03T06:13:25.252Z</time></trkpt><trkpt lat="38.147385" lon="14.8522767"><ele>128.0</ele><time>2026-05-03T06:13:26.252Z</time></trkpt><trkpt lat="38.1473117" lon="14.8523117"><ele>128.0</ele><time>2026-05-03T06:13:27.252Z</time></trkpt><trkpt lat="38.1472367" lon="14.8522933"><ele>128.0</ele><time>2026-05-03T06:13:29.252Z</time></trkpt><trkpt lat="38.1473667" lon="14.8521933"><ele>128.0</ele><time>2026-05-03T06:13:33.252Z</time></trkpt><trkpt lat="38.1474317" lon="14.852135"><ele>128.0</ele><time>2026-05-03T06:13:34.252Z</time></trkpt><trkpt lat="38.1475033" lon="14.8520533"><ele>128.0</ele><time>2026-05-03T06:13:35.252Z</time></trkpt><trkpt lat="38.1475733" lon="14.8519383"><ele>128.0</ele><time>2026-05-03T06:13:36.252Z</time></trkpt><trkpt lat="38.1476267" lon="14.8518317"><ele>128.0</ele><time>2026-05-03T06:13:37.252Z</time></trkpt><trkpt lat="38.147655" lon="14.8517183"><ele>128.0</ele><time>2026-05-03T06:13:38.252Z</time></trkpt><trkpt lat="38.1476833" lon="14.8515933"><ele>128.0</ele><time>2026-05-03T06:13:39.252Z</time></trkpt><trkpt lat="38.1476967" lon="14.8514933"><ele>128.0</ele><time>2026-05-03T06:13:40.252Z</time></trkpt><trkpt lat="38.147685" lon="14.85134"><ele>132.0</ele><time>2026-05-03T06:13:42.252Z</time></trkpt><trkpt lat="38.14763" lon="14.8512217"><ele>136.0</ele><time>2026-05-03T06:13:44.252Z</time></trkpt><trkpt lat="38.1475367" lon="14.8511817"><ele>140.0</ele><time>2026-05-03T06:13:46.252Z</time></trkpt><trkpt lat="38.1474383" lon="14.8511567"><ele>144.0</ele><time>2026-05-03T06:13:48.252Z</time></trkpt><trkpt lat="38.1473217" lon="14.8510867"><ele>148.0</ele><time>2026-05-03T06:13:50.252Z</time></trkpt><trkpt lat="38.1472567" lon="14.8510383"><ele>153.2</ele><time>2026-05-03T06:13:51.252Z</time></trkpt><trkpt lat="38.1471983" lon="14.85099"><ele>158.4</ele><time>2026-05-03T06:13:52.252Z</time></trkpt><trkpt lat="38.147105" lon="14.8508567"><ele>163.6</ele><time>2026-05-03T06:13:54.252Z</time></trkpt><trkpt lat="38.1470617" lon="14.85076"><ele>168.79999999999998</ele><time>2026-05-03T06:13:55.252Z</time></trkpt><trkpt lat="38.1470183" lon="14.8506667"><ele>174.0</ele><time>2026-05-03T06:13:56.252Z</time></trkpt><trkpt lat="38.1469817" lon="14.85056"><ele>174.0</ele><time>2026-05-03T06:13:57.252Z</time></trkpt><trkpt lat="38.1469417" lon="14.8504683"><ele>174.0</ele><time>2026-05-03T06:13:58.252Z</time></trkpt><trkpt lat="38.1469083" lon="14.8503833"><ele>174.0</ele><time>2026-05-03T06:13:59.252Z</time></trkpt><trkpt lat="38.1468783" lon="14.8503083"><ele>174.0</ele><time>2026-05-03T06:14:00.252Z</time></trkpt><trkpt lat="38.1468467" lon="14.8501983"><ele>174.0</ele><time>2026-05-03T06:14:02.251Z</time></trkpt><trkpt lat="38.1469383" lon="14.8501183"><ele>174.0</ele><time>2026-05-03T06:14:05.251Z</time></trkpt><trkpt lat="38.1469933" lon="14.8500567"><ele>174.33333333333334</ele><time>2026-05-03T06:14:06.251Z</time></trkpt><trkpt lat="38.1470333" lon="14.84997"><ele>174.66666666666666</ele><time>2026-05-03T06:14:07.252Z</time></trkpt><trkpt lat="38.1470483" lon="14.8498567"><ele>175.0</ele><time>2026-05-03T06:14:08.252Z</time></trkpt><trkpt lat="38.147045" lon="14.8497333"><ele>175.33333333333331</ele><time>2026-05-03T06:14:09.252Z</time></trkpt><trkpt lat="38.1470483" lon="14.8496183"><ele>175.66666666666666</ele><time>2026-05-03T06:14:10.252Z</time></trkpt><trkpt lat="38.1470667" lon="14.8495133"><ele>176.0</ele><time>2026-05-03T06:14:11.252Z</time></trkpt><trkpt lat="38.1471" lon="14.8494433"><ele>176.0</ele><time>2026-05-03T06:14:12.252Z</time></trkpt><trkpt lat="38.1472" lon="14.8493867"><ele>176.0</ele><time>2026-05-03T06:14:14.252Z</time></trkpt><trkpt lat="38.1472717" lon="14.8493967"><ele>176.0</ele><time>2026-05-03T06:14:15.252Z</time></trkpt><trkpt lat="38.1473533" lon="14.8494083"><ele>176.0</ele><time>2026-05-03T06:14:16.252Z</time></trkpt><trkpt lat="38.1474383" lon="14.84941"><ele>176.0</ele><time>2026-05-03T06:14:17.252Z</time></trkpt><trkpt lat="38.1475333" lon="14.8494083"><ele>176.0</ele><time>2026-05-03T06:14:18.252Z</time></trkpt><trkpt lat="38.1476233" lon="14.8493867"><ele>174.20000000000002</ele><time>2026-05-03T06:14:19.252Z</time></trkpt><trkpt lat="38.1476967" lon="14.8493533"><ele>172.4</ele><time>2026-05-03T06:14:20.252Z</time></trkpt><trkpt lat="38.1477667" lon="14.849285"><ele>170.6</ele><time>2026-05-03T06:14:21.252Z</time></trkpt><trkpt lat="38.1478417" lon="14.84917"><ele>168.8</ele><time>2026-05-03T06:14:22.252Z</time></trkpt><trkpt lat="38.1479067" lon="14.8490467"><ele>167.0</ele><time>2026-05-03T06:14:23.252Z</time></trkpt><trkpt lat="38.14795" lon="14.8489117"><ele>167.0</ele><time>2026-05-03T06:14:24.252Z</time></trkpt><trkpt lat="38.1479767" lon="14.8487767"><ele>167.0</ele><time>2026-05-03T06:14:25.252Z</time></trkpt><trkpt lat="38.1480083" lon="14.8486567"><ele>167.0</ele><time>2026-05-03T06:14:26.252Z</time></trkpt><trkpt lat="38.1480433" lon="14.8485617"><ele>167.0</ele><time>2026-05-03T06:14:27.252Z</time></trkpt><trkpt lat="38.1480767" lon="14.8484933"><ele>167.0</ele><time>2026-05-03T06:14:28.251Z</time></trkpt><trkpt lat="38.1481283" lon="14.8484083"><ele>167.0</ele><time>2026-05-03T06:14:30.251Z</time></trkpt><trkpt lat="38.1481867" lon="14.8483667"><ele>166.5</ele><time>2026-05-03T06:14:32.252Z</time></trkpt><trkpt lat="38.1482667" lon="14.848325"><ele>166.0</ele><time>2026-05-03T06:14:34.252Z</time></trkpt><trkpt lat="38.148335" lon="14.84827"><ele>165.5</ele><time>2026-05-03T06:14:36.252Z</time></trkpt><trkpt lat="38.148385" lon="14.84822"><ele>165.0</ele><time>2026-05-03T06:14:38.252Z</time></trkpt><trkpt lat="38.14845" lon="14.84814"><ele>164.5</ele><time>2026-05-03T06:14:41.252Z</time></trkpt><trkpt lat="38.1485133" lon="14.8480733"><ele>164.0</ele><time>2026-05-03T06:14:44.252Z</time></trkpt><trkpt lat="38.148555" lon="14.848"><ele>164.0</ele><time>2026-05-03T06:14:46.252Z</time></trkpt><trkpt lat="38.1486067" lon="14.8479067"><ele>164.0</ele><time>2026-05-03T06:14:48.252Z</time></trkpt><trkpt lat="38.1486383" lon="14.84781"><ele>164.0</ele><time>2026-05-03T06:14:49.252Z</time></trkpt><trkpt lat="38.14867" lon="14.847685"><ele>164.0</ele><time>2026-05-03T06:14:50.251Z</time></trkpt><trkpt lat="38.1487" lon="14.84756"><ele>164.0</ele><time>2026-05-03T06:14:51.251Z</time></trkpt><trkpt lat="38.1487333" lon="14.8474467"><ele>169.0</ele><time>2026-05-03T06:14:52.252Z</time></trkpt><trkpt lat="38.1487767" lon="14.84732"><ele>174.0</ele><time>2026-05-03T06:14:53.252Z</time></trkpt><trkpt lat="38.1488117" lon="14.847185"><ele>179.0</ele><time>2026-05-03T06:14:54.252Z</time></trkpt><trkpt lat="38.1488317" lon="14.8470717"><ele>184.0</ele><time>2026-05-03T06:14:55.252Z</time></trkpt><trkpt lat="38.14885" lon="14.8469633"><ele>189.0</ele><time>2026-05-03T06:14:56.252Z</time></trkpt><trkpt lat="38.1488667" lon="14.8468517"><ele>190.5</ele><time>2026-05-03T06:14:57.252Z</time></trkpt><trkpt lat="38.1488867" lon="14.84676"><ele>192.0</ele><time>2026-05-03T06:14:58.252Z</time></trkpt><trkpt lat="38.1488983" lon="14.84666"><ele>193.5</ele><time>2026-05-03T06:14:59.251Z</time></trkpt><trkpt lat="38.14889" lon="14.8465733"><ele>195.0</ele><time>2026-05-03T06:15:00.252Z</time></trkpt><trkpt lat="38.1488683" lon="14.846485"><ele>196.5</ele><time>2026-05-03T06:15:01.252Z</time></trkpt><trkpt lat="38.14883" lon="14.8464133"><ele>198.0</ele><time>2026-05-03T06:15:02.252Z</time></trkpt><trkpt lat="38.148735" lon="14.8463583"><ele>198.0</ele><time>2026-05-03T06:15:04.252Z</time></trkpt><trkpt lat="38.1486267" lon="14.8463917"><ele>198.0</ele><time>2026-05-03T06:15:06.252Z</time></trkpt><trkpt lat="38.14859" lon="14.8464883"><ele>198.0</ele><time>2026-05-03T06:15:08.252Z</time></trkpt><trkpt lat="38.148615" lon="14.8466633"><ele>198.0</ele><time>2026-05-03T06:15:10.252Z</time></trkpt><trkpt lat="38.1486167" lon="14.8467817"><ele>198.0</ele><time>2026-05-03T06:15:11.252Z</time></trkpt><trkpt lat="38.1485833" lon="14.8468983"><ele>196.2</ele><time>2026-05-03T06:15:12.252Z</time></trkpt><trkpt lat="38.1485233" lon="14.8470283"><ele>194.4</ele><time>2026-05-03T06:15:13.252Z</time></trkpt><trkpt lat="38.1484517" lon="14.84715"><ele>192.6</ele><time>2026-05-03T06:15:14.251Z</time></trkpt><trkpt lat="38.1483767" lon="14.8472333"><ele>190.79999999999998</ele><time>2026-05-03T06:15:15.252Z</time></trkpt><trkpt lat="38.1483117" lon="14.847245"><ele>189.0</ele><time>2026-05-03T06:15:16.252Z</time></trkpt><trkpt lat="38.1482867" lon="14.8471317"><ele>189.0</ele><time>2026-05-03T06:15:18.252Z</time></trkpt><trkpt lat="38.1483167" lon="14.8470083"><ele>189.0</ele><time>2026-05-03T06:15:19.252Z</time></trkpt><trkpt lat="38.1483433" lon="14.8468883"><ele>189.0</ele><time>2026-05-03T06:15:20.252Z</time></trkpt><trkpt lat="38.14835" lon="14.8467933"><ele>189.0</ele><time>2026-05-03T06:15:21.252Z</time></trkpt><trkpt lat="38.1483267" lon="14.84666"><ele>189.0</ele><time>2026-05-03T06:15:23.252Z</time></trkpt><trkpt lat="38.1482517" lon="14.846525"><ele>190.79999999999998</ele><time>2026-05-03T06:15:25.251Z</time></trkpt><trkpt lat="38.14821" lon="14.84645"><ele>192.6</ele><time>2026-05-03T06:15:26.252Z</time></trkpt><trkpt lat="38.1481567" lon="14.8463933"><ele>194.4</ele><time>2026-05-03T06:15:27.251Z</time></trkpt><trkpt lat="38.1480533" lon="14.8463067"><ele>196.2</ele><time>2026-05-03T06:15:29.252Z</time></trkpt><trkpt lat="38.14794" lon="14.84625"><ele>198.0</ele><time>2026-05-03T06:15:31.252Z</time></trkpt><trkpt lat="38.14787" lon="14.8461767"><ele>206.0</ele><time>2026-05-03T06:15:33.252Z</time></trkpt><trkpt lat="38.1478917" lon="14.8460933"><ele>214.0</ele><time>2026-05-03T06:15:35.252Z</time></trkpt><trkpt lat="38.1479667" lon="14.8459917"><ele>222.0</ele><time>2026-05-03T06:15:37.251Z</time></trkpt><trkpt lat="38.148015" lon="14.8459133"><ele>230.0</ele><time>2026-05-03T06:15:38.252Z</time></trkpt><trkpt lat="38.1480783" lon="14.84584"><ele>238.0</ele><time>2026-05-03T06:15:39.252Z</time></trkpt><trkpt lat="38.1481667" lon="14.8457583"><ele>231.16666666666666</ele><time>2026-05-03T06:15:40.252Z</time></trkpt><trkpt lat="38.148245" lon="14.84569"><ele>224.33333333333331</ele><time>2026-05-03T06:15:41.252Z</time></trkpt><trkpt lat="38.1483117" lon="14.8456267"><ele>217.5</ele><time>2026-05-03T06:15:42.252Z</time></trkpt><trkpt lat="38.1483617" lon="14.8455683"><ele>210.66666666666669</ele><time>2026-05-03T06:15:43.252Z</time></trkpt><trkpt lat="38.1484317" lon="14.8454483"><ele>203.83333333333334</ele><time>2026-05-03T06:15:45.252Z</time></trkpt><trkpt lat="38.1484683" lon="14.84538"><ele>197.0</ele><time>2026-05-03T06:15:46.252Z</time></trkpt><trkpt lat="38.1485117" lon="14.8453167"><ele>197.00000000000003</ele><time>2026-05-03T06:15:47.252Z</time></trkpt><trkpt lat="38.1485567" lon="14.845255"><ele>197.0</ele><time>2026-05-03T06:15:48.252Z</time></trkpt><trkpt lat="38.1486033" lon="14.8451983"><ele>197.0</ele><time>2026-05-03T06:15:49.252Z</time></trkpt><trkpt lat="38.1487017" lon="14.8451083"><ele>197.0</ele><time>2026-05-03T06:15:51.251Z</time></trkpt><trkpt lat="38.1488233" lon="14.845065"><ele>197.00000000000003</ele><time>2026-05-03T06:15:53.252Z</time></trkpt><trkpt lat="38.148885" lon="14.8450317"><ele>197.0</ele><time>2026-05-03T06:15:54.252Z</time></trkpt><trkpt lat="38.148955" lon="14.8449817"><ele>196.39999999999998</ele><time>2026-05-03T06:15:55.252Z</time></trkpt><trkpt lat="38.1490217" lon="14.8449483"><ele>195.79999999999998</ele><time>2026-05-03T06:15:56.252Z</time></trkpt><trkpt lat="38.149115" lon="14.8448717"><ele>195.2</ele><time>2026-05-03T06:15:58.252Z</time></trkpt><trkpt lat="38.1492167" lon="14.8448"><ele>194.6</ele><time>2026-05-03T06:16:00.252Z</time></trkpt><trkpt lat="38.1492917" lon="14.84475"><ele>194.0</ele><time>2026-05-03T06:16:01.252Z</time></trkpt><trkpt lat="38.1493767" lon="14.8446967"><ele>194.00000000000003</ele><time>2026-05-03T06:16:02.252Z</time></trkpt><trkpt lat="38.149465" lon="14.8446617"><ele>194.0</ele><time>2026-05-03T06:16:03.252Z</time></trkpt><trkpt lat="38.1495517" lon="14.844635"><ele>194.0</ele><time>2026-05-03T06:16:04.252Z</time></trkpt><trkpt lat="38.1496217" lon="14.8446217"><ele>194.0</ele><time>2026-05-03T06:16:05.252Z</time></trkpt><trkpt lat="38.1497117" lon="14.8445967"><ele>194.00000000000003</ele><time>2026-05-03T06:16:06.252Z</time></trkpt><trkpt lat="38.1497967" lon="14.8445817"><ele>194.0</ele><time>2026-05-03T06:16:07.252Z</time></trkpt><trkpt lat="38.1498883" lon="14.8445467"><ele>194.39999999999998</ele><time>2026-05-03T06:16:08.252Z</time></trkpt><trkpt lat="38.149975" lon="14.8445233"><ele>194.8</ele><time>2026-05-03T06:16:09.252Z</time></trkpt><trkpt lat="38.1500583" lon="14.8444917"><ele>195.2</ele><time>2026-05-03T06:16:10.252Z</time></trkpt><trkpt lat="38.1501267" lon="14.8444417"><ele>195.60000000000002</ele><time>2026-05-03T06:16:11.252Z</time></trkpt><trkpt lat="38.1501767" lon="14.8443733"><ele>196.0</ele><time>2026-05-03T06:16:12.252Z</time></trkpt><trkpt lat="38.150245" lon="14.844245"><ele>195.99999999999997</ele><time>2026-05-03T06:16:14.252Z</time></trkpt><trkpt lat="38.15028" lon="14.844115"><ele>196.0</ele><time>2026-05-03T06:16:16.252Z</time></trkpt><trkpt lat="38.15031" lon="14.84403"><ele>196.0</ele><time>2026-05-03T06:16:17.252Z</time></trkpt><trkpt lat="38.15034" lon="14.8439317"><ele>196.0</ele><time>2026-05-03T06:16:18.252Z</time></trkpt><trkpt lat="38.15037" lon="14.8438383"><ele>195.99999999999997</ele><time>2026-05-03T06:16:19.252Z</time></trkpt><trkpt lat="38.1503983" lon="14.8437567"><ele>196.0</ele><time>2026-05-03T06:16:20.251Z</time></trkpt><trkpt lat="38.1504217" lon="14.843675"><ele>195.99999999999997</ele><time>2026-05-03T06:16:21.252Z</time></trkpt><trkpt lat="38.150445" lon="14.8435867"><ele>196.0</ele><time>2026-05-03T06:16:22.252Z</time></trkpt><trkpt lat="38.1504633" lon="14.84351"><ele>196.0</ele><time>2026-05-03T06:16:23.252Z</time></trkpt><trkpt lat="38.1505133" lon="14.843365"><ele>196.0</ele><time>2026-05-03T06:16:25.252Z</time></trkpt><trkpt lat="38.1505533" lon="14.8432967"><ele>195.99999999999997</ele><time>2026-05-03T06:16:26.252Z</time></trkpt><trkpt lat="38.1506033" lon="14.8432167"><ele>196.0</ele><time>2026-05-03T06:16:27.252Z</time></trkpt><trkpt lat="38.1506367" lon="14.8431217"><ele>197.66666666666666</ele><time>2026-05-03T06:16:28.252Z</time></trkpt><trkpt lat="38.15066" lon="14.8430433"><ele>199.33333333333331</ele><time>2026-05-03T06:16:29.252Z</time></trkpt><trkpt lat="38.1507067" lon="14.8428967"><ele>201.0</ele><time>2026-05-03T06:16:31.252Z</time></trkpt><trkpt lat="38.1507233" lon="14.842805"><ele>202.66666666666669</ele><time>2026-05-03T06:16:32.251Z</time></trkpt><trkpt lat="38.150735" lon="14.8427017"><ele>204.33333333333334</ele><time>2026-05-03T06:16:33.252Z</time></trkpt><trkpt lat="38.1507467" lon="14.8426167"><ele>206.0</ele><time>2026-05-03T06:16:34.252Z</time></trkpt><trkpt lat="38.150765" lon="14.8425333"><ele>202.00000000000003</ele><time>2026-05-03T06:16:35.252Z</time></trkpt><trkpt lat="38.1508033" lon="14.8424417"><ele>198.0</ele><time>2026-05-03T06:16:36.252Z</time></trkpt><trkpt lat="38.1508433" lon="14.8423517"><ele>194.0</ele><time>2026-05-03T06:16:37.252Z</time></trkpt><trkpt lat="38.1508967" lon="14.84227"><ele>190.0</ele><time>2026-05-03T06:16:38.252Z</time></trkpt><trkpt lat="38.1509617" lon="14.8422133"><ele>186.0</ele><time>2026-05-03T06:16:39.252Z</time></trkpt><trkpt lat="38.15103" lon="14.84215"><ele>182.0</ele><time>2026-05-03T06:16:40.252Z</time></trkpt><trkpt lat="38.1511017" lon="14.8420917"><ele>182.0</ele><time>2026-05-03T06:16:41.252Z</time></trkpt><trkpt lat="38.151185" lon="14.8420333"><ele>182.0</ele><time>2026-05-03T06:16:42.252Z</time></trkpt><trkpt lat="38.15127" lon="14.8419717"><ele>182.0</ele><time>2026-05-03T06:16:43.252Z</time></trkpt><trkpt lat="38.15136" lon="14.8418933"><ele>182.0</ele><time>2026-05-03T06:16:44.252Z</time></trkpt><trkpt lat="38.1514683" lon="14.841805"><ele>182.0</ele><time>2026-05-03T06:16:45.252Z</time></trkpt><trkpt lat="38.1515733" lon="14.84173"><ele>181.66666666666666</ele><time>2026-05-03T06:16:46.252Z</time></trkpt><trkpt lat="38.1516633" lon="14.84167"><ele>181.33333333333331</ele><time>2026-05-03T06:16:47.252Z</time></trkpt><trkpt lat="38.151745" lon="14.8416217"><ele>181.0</ele><time>2026-05-03T06:16:48.252Z</time></trkpt><trkpt lat="38.1518167" lon="14.841575"><ele>180.66666666666666</ele><time>2026-05-03T06:16:49.252Z</time></trkpt><trkpt lat="38.1518933" lon="14.8415333"><ele>180.33333333333334</ele><time>2026-05-03T06:16:50.252Z</time></trkpt><trkpt lat="38.1519733" lon="14.8414967"><ele>180.0</ele><time>2026-05-03T06:16:51.252Z</time></trkpt><trkpt lat="38.152065" lon="14.8414617"><ele>180.0</ele><time>2026-05-03T06:16:52.252Z</time></trkpt><trkpt lat="38.1521633" lon="14.84143"><ele>180.0</ele><time>2026-05-03T06:16:53.252Z</time></trkpt><trkpt lat="38.1522517" lon="14.841405"><ele>180.0</ele><time>2026-05-03T06:16:54.252Z</time></trkpt><trkpt lat="38.1523367" lon="14.84138"><ele>180.0</ele><time>2026-05-03T06:16:55.252Z</time></trkpt><trkpt lat="38.152425" lon="14.841355"><ele>180.0</ele><time>2026-05-03T06:16:56.252Z</time></trkpt><trkpt lat="38.1525083" lon="14.8413267"><ele>178.0</ele><time>2026-05-03T06:16:57.252Z</time></trkpt><trkpt lat="38.1525817" lon="14.841305"><ele>176.0</ele><time>2026-05-03T06:16:58.252Z</time></trkpt><trkpt lat="38.1526517" lon="14.84129"><ele>174.0</ele><time>2026-05-03T06:16:59.252Z</time></trkpt><trkpt lat="38.1527333" lon="14.8412717"><ele>172.0</ele><time>2026-05-03T06:17:00.252Z</time></trkpt><trkpt lat="38.1528483" lon="14.841255"><ele>170.0</ele><time>2026-05-03T06:17:02.252Z</time></trkpt><trkpt lat="38.15294" lon="14.8412167"><ele>168.0</ele><time>2026-05-03T06:17:04.252Z</time></trkpt><trkpt lat="38.1530133" lon="14.841175"><ele>168.0</ele><time>2026-05-03T06:17:06.252Z</time></trkpt><trkpt lat="38.153095" lon="14.8411167"><ele>168.0</ele><time>2026-05-03T06:17:08.252Z</time></trkpt><trkpt lat="38.1531917" lon="14.84105"><ele>168.0</ele><time>2026-05-03T06:17:10.252Z</time></trkpt><trkpt lat="38.1532483" lon="14.8410017"><ele>168.0</ele><time>2026-05-03T06:17:11.252Z</time></trkpt><trkpt lat="38.1533133" lon="14.8409517"><ele>168.0</ele><time>2026-05-03T06:17:12.252Z</time></trkpt><trkpt lat="38.1534067" lon="14.8408733"><ele>168.33333333333334</ele><time>2026-05-03T06:17:14.252Z</time></trkpt><trkpt lat="38.153435" lon="14.8407917"><ele>168.66666666666666</ele><time>2026-05-03T06:17:16.252Z</time></trkpt><trkpt lat="38.1533483" lon="14.84074"><ele>169.0</ele><time>2026-05-03T06:17:18.252Z</time></trkpt><trkpt lat="38.1532733" lon="14.8407317"><ele>169.33333333333331</ele><time>2026-05-03T06:17:19.252Z</time></trkpt><trkpt lat="38.153195" lon="14.8407317"><ele>169.66666666666666</ele><time>2026-05-03T06:17:20.252Z</time></trkpt><trkpt lat="38.15312" lon="14.8407183"><ele>170.0</ele><time>2026-05-03T06:17:21.252Z</time></trkpt><trkpt lat="38.1530533" lon="14.8406933"><ele>171.83333333333331</ele><time>2026-05-03T06:17:22.252Z</time></trkpt><trkpt lat="38.152985" lon="14.8406517"><ele>173.66666666666666</ele><time>2026-05-03T06:17:23.252Z</time></trkpt><trkpt lat="38.15292" lon="14.8406083"><ele>175.5</ele><time>2026-05-03T06:17:24.252Z</time></trkpt><trkpt lat="38.1528517" lon="14.84056"><ele>177.33333333333334</ele><time>2026-05-03T06:17:25.252Z</time></trkpt><trkpt lat="38.152785" lon="14.8405083"><ele>179.16666666666669</ele><time>2026-05-03T06:17:26.252Z</time></trkpt><trkpt lat="38.1527233" lon="14.84045"><ele>181.0</ele><time>2026-05-03T06:17:27.252Z</time></trkpt><trkpt lat="38.1526683" lon="14.8403833"><ele>181.0</ele><time>2026-05-03T06:17:28.252Z</time></trkpt><trkpt lat="38.1526233" lon="14.8403117"><ele>181.0</ele><time>2026-05-03T06:17:29.252Z</time></trkpt><trkpt lat="38.1526217" lon="14.8401617"><ele>181.0</ele><time>2026-05-03T06:17:31.252Z</time></trkpt><trkpt lat="38.1527083" lon="14.84013"><ele>181.0</ele><time>2026-05-03T06:17:34.252Z</time></trkpt><trkpt lat="38.1528067" lon="14.840205"><ele>181.0</ele><time>2026-05-03T06:17:36.252Z</time></trkpt><trkpt lat="38.1529117" lon="14.8402467"><ele>181.0</ele><time>2026-05-03T06:17:38.252Z</time></trkpt><trkpt lat="38.153035" lon="14.84025"><ele>181.0</ele><time>2026-05-03T06:17:40.252Z</time></trkpt><trkpt lat="38.1531033" lon="14.8402567"><ele>181.0</ele><time>2026-05-03T06:17:41.252Z</time></trkpt><trkpt lat="38.153175" lon="14.8402533"><ele>181.0</ele><time>2026-05-03T06:17:42.252Z</time></trkpt><trkpt lat="38.153245" lon="14.84026"><ele>181.0</ele><time>2026-05-03T06:17:43.252Z</time></trkpt><trkpt lat="38.1533217" lon="14.8402683"><ele>181.0</ele><time>2026-05-03T06:17:44.252Z</time></trkpt><trkpt lat="38.1534017" lon="14.8402833"><ele>179.16666666666669</ele><time>2026-05-03T06:17:45.252Z</time></trkpt><trkpt lat="38.1534817" lon="14.8403017"><ele>177.33333333333334</ele><time>2026-05-03T06:17:46.251Z</time></trkpt><trkpt lat="38.1535633" lon="14.84033"><ele>175.5</ele><time>2026-05-03T06:17:47.252Z</time></trkpt><trkpt lat="38.1536533" lon="14.840345"><ele>173.66666666666666</ele><time>2026-05-03T06:17:48.252Z</time></trkpt><trkpt lat="38.1537417" lon="14.8403683"><ele>171.83333333333331</ele><time>2026-05-03T06:17:49.252Z</time></trkpt><trkpt lat="38.1538283" lon="14.840375"><ele>170.0</ele><time>2026-05-03T06:17:50.252Z</time></trkpt><trkpt lat="38.1539183" lon="14.84036"><ele>170.0</ele><time>2026-05-03T06:17:51.252Z</time></trkpt><trkpt lat="38.1540117" lon="14.8403083"><ele>170.0</ele><time>2026-05-03T06:17:52.252Z</time></trkpt><trkpt lat="38.1541067" lon="14.8402433"><ele>170.0</ele><time>2026-05-03T06:17:53.252Z</time></trkpt><trkpt lat="38.1542017" lon="14.84017"><ele>170.0</ele><time>2026-05-03T06:17:54.252Z</time></trkpt><trkpt lat="38.154285" lon="14.8400967"><ele>170.0</ele><time>2026-05-03T06:17:55.252Z</time></trkpt><trkpt lat="38.1543683" lon="14.840025"><ele>165.2</ele><time>2026-05-03T06:17:56.252Z</time></trkpt><trkpt lat="38.1544533" lon="14.8399533"><ele>160.4</ele><time>2026-05-03T06:17:57.252Z</time></trkpt><trkpt lat="38.1545367" lon="14.839875"><ele>155.6</ele><time>2026-05-03T06:17:58.252Z</time></trkpt><trkpt lat="38.15462" lon="14.8397983"><ele>150.8</ele><time>2026-05-03T06:17:59.252Z</time></trkpt><trkpt lat="38.1546983" lon="14.83973"><ele>146.0</ele><time>2026-05-03T06:18:00.252Z</time></trkpt><trkpt lat="38.1547667" lon="14.839675"><ele>146.0</ele><time>2026-05-03T06:18:01.252Z</time></trkpt><trkpt lat="38.1548233" lon="14.83961"><ele>146.0</ele><time>2026-05-03T06:18:02.251Z</time></trkpt><trkpt lat="38.1548683" lon="14.8395433"><ele>146.0</ele><time>2026-05-03T06:18:03.252Z</time></trkpt><trkpt lat="38.1548883" lon="14.839465"><ele>146.0</ele><time>2026-05-03T06:18:04.252Z</time></trkpt><trkpt lat="38.1548667" lon="14.8393867"><ele>146.0</ele><time>2026-05-03T06:18:05.252Z</time></trkpt><trkpt lat="38.1548233" lon="14.83932"><ele>146.0</ele><time>2026-05-03T06:18:06.252Z</time></trkpt><trkpt lat="38.1547517" lon="14.839275"><ele>146.0</ele><time>2026-05-03T06:18:07.252Z</time></trkpt><trkpt lat="38.1546683" lon="14.8392567"><ele>146.0</ele><time>2026-05-03T06:18:08.252Z</time></trkpt><trkpt lat="38.154595" lon="14.839265"><ele>146.0</ele><time>2026-05-03T06:18:09.252Z</time></trkpt><trkpt lat="38.15452" lon="14.8392933"><ele>146.0</ele><time>2026-05-03T06:18:10.253Z</time></trkpt><trkpt lat="38.1544467" lon="14.83934"><ele>146.0</ele><time>2026-05-03T06:18:11.253Z</time></trkpt><trkpt lat="38.15438" lon="14.839385"><ele>146.0</ele><time>2026-05-03T06:18:12.253Z</time></trkpt><trkpt lat="38.1543167" lon="14.8394267"><ele>146.0</ele><time>2026-05-03T06:18:13.253Z</time></trkpt><trkpt lat="38.1542533" lon="14.8394717"><ele>146.0</ele><time>2026-05-03T06:18:14.252Z</time></trkpt><trkpt lat="38.1541883" lon="14.8395167"><ele>146.0</ele><time>2026-05-03T06:18:15.253Z</time></trkpt><trkpt lat="38.1541233" lon="14.8395583"><ele>146.0</ele><time>2026-05-03T06:18:16.253Z</time></trkpt><trkpt lat="38.1540567" lon="14.8396"><ele>146.0</ele><time>2026-05-03T06:18:17.253Z</time></trkpt><trkpt lat="38.15399" lon="14.8396433"><ele>146.0</ele><time>2026-05-03T06:18:18.253Z</time></trkpt><trkpt lat="38.1539183" lon="14.8396883"><ele>146.0</ele><time>2026-05-03T06:18:19.253Z</time></trkpt><trkpt lat="38.1538533" lon="14.83974"><ele>146.66666666666666</ele><time>2026-05-03T06:18:20.253Z</time></trkpt><trkpt lat="38.1537867" lon="14.8397717"><ele>147.33333333333331</ele><time>2026-05-03T06:18:21.252Z</time></trkpt><trkpt lat="38.1537167" lon="14.8397867"><ele>148.0</ele><time>2026-05-03T06:18:22.253Z</time></trkpt><trkpt lat="38.1536367" lon="14.8397883"><ele>148.66666666666666</ele><time>2026-05-03T06:18:23.253Z</time></trkpt><trkpt lat="38.153555" lon="14.8397683"><ele>149.33333333333334</ele><time>2026-05-03T06:18:24.253Z</time></trkpt><trkpt lat="38.1534817" lon="14.83973"><ele>150.0</ele><time>2026-05-03T06:18:25.253Z</time></trkpt><trkpt lat="38.153405" lon="14.839685"><ele>150.0</ele><time>2026-05-03T06:18:26.253Z</time></trkpt><trkpt lat="38.1533483" lon="14.8396267"><ele>150.0</ele><time>2026-05-03T06:18:27.253Z</time></trkpt><trkpt lat="38.153315" lon="14.8395467"><ele>150.0</ele><time>2026-05-03T06:18:28.253Z</time></trkpt><trkpt lat="38.15331" lon="14.8394417"><ele>150.0</ele><time>2026-05-03T06:18:29.253Z</time></trkpt><trkpt lat="38.1533067" lon="14.8393233"><ele>150.0</ele><time>2026-05-03T06:18:30.253Z</time></trkpt><trkpt lat="38.1533083" lon="14.8391967"><ele>150.0</ele><time>2026-05-03T06:18:31.253Z</time></trkpt><trkpt lat="38.1533067" lon="14.8390767"><ele>145.6</ele><time>2026-05-03T06:18:32.253Z</time></trkpt><trkpt lat="38.153305" lon="14.8389567"><ele>141.2</ele><time>2026-05-03T06:18:33.253Z</time></trkpt><trkpt lat="38.153305" lon="14.8388267"><ele>136.8</ele><time>2026-05-03T06:18:34.253Z</time></trkpt><trkpt lat="38.1533" lon="14.8386967"><ele>132.4</ele><time>2026-05-03T06:18:35.253Z</time></trkpt><trkpt lat="38.1532867" lon="14.838575"><ele>128.0</ele><time>2026-05-03T06:18:36.253Z</time></trkpt><trkpt lat="38.1532767" lon="14.8384633"><ele>126.83333333333333</ele><time>2026-05-03T06:18:37.253Z</time></trkpt><trkpt lat="38.1532433" lon="14.83834"><ele>125.66666666666666</ele><time>2026-05-03T06:18:38.253Z</time></trkpt><trkpt lat="38.15322" lon="14.8382417"><ele>124.5</ele><time>2026-05-03T06:18:39.253Z</time></trkpt><trkpt lat="38.1531833" lon="14.8381433"><ele>123.33333333333334</ele><time>2026-05-03T06:18:40.253Z</time></trkpt><trkpt lat="38.1531283" lon="14.8380717"><ele>122.16666666666667</ele><time>2026-05-03T06:18:41.253Z</time></trkpt><trkpt lat="38.1530667" lon="14.838005"><ele>121.0</ele><time>2026-05-03T06:18:42.253Z</time></trkpt><trkpt lat="38.1529983" lon="14.83796"><ele>121.0</ele><time>2026-05-03T06:18:43.253Z</time></trkpt><trkpt lat="38.1528967" lon="14.8379483"><ele>121.0</ele><time>2026-05-03T06:18:44.253Z</time></trkpt><trkpt lat="38.152795" lon="14.83798"><ele>121.0</ele><time>2026-05-03T06:18:45.253Z</time></trkpt><trkpt lat="38.1526967" lon="14.83801"><ele>121.0</ele><time>2026-05-03T06:18:46.253Z</time></trkpt><trkpt lat="38.15261" lon="14.8380317"><ele>121.0</ele><time>2026-05-03T06:18:47.253Z</time></trkpt><trkpt lat="38.1525267" lon="14.8380533"><ele>121.00000000000001</ele><time>2026-05-03T06:18:48.252Z</time></trkpt><trkpt lat="38.1524467" lon="14.8380683"><ele>121.0</ele><time>2026-05-03T06:18:49.253Z</time></trkpt><trkpt lat="38.1523683" lon="14.83808"><ele>121.0</ele><time>2026-05-03T06:18:50.253Z</time></trkpt><trkpt lat="38.152285" lon="14.8380917"><ele>121.0</ele><time>2026-05-03T06:18:51.253Z</time></trkpt><trkpt lat="38.1522117" lon="14.838105"><ele>121.00000000000001</ele><time>2026-05-03T06:18:52.253Z</time></trkpt><trkpt lat="38.15213" lon="14.8381267"><ele>121.0</ele><time>2026-05-03T06:18:53.253Z</time></trkpt><trkpt lat="38.1520583" lon="14.8381367"><ele>122.83333333333334</ele><time>2026-05-03T06:18:54.253Z</time></trkpt><trkpt lat="38.1519883" lon="14.838145"><ele>124.66666666666667</ele><time>2026-05-03T06:18:55.253Z</time></trkpt><trkpt lat="38.1519167" lon="14.8381167"><ele>126.5</ele><time>2026-05-03T06:18:56.253Z</time></trkpt><trkpt lat="38.1518533" lon="14.8380733"><ele>128.33333333333334</ele><time>2026-05-03T06:18:57.253Z</time></trkpt><trkpt lat="38.1518" lon="14.8380033"><ele>130.16666666666666</ele><time>2026-05-03T06:18:58.253Z</time></trkpt><trkpt lat="38.1517717" lon="14.8379"><ele>132.0</ele><time>2026-05-03T06:18:59.253Z</time></trkpt><trkpt lat="38.1517567" lon="14.8377933"><ele>132.0</ele><time>2026-05-03T06:19:00.253Z</time></trkpt><trkpt lat="38.1517733" lon="14.8376933"><ele>132.0</ele><time>2026-05-03T06:19:01.253Z</time></trkpt><trkpt lat="38.1518067" lon="14.837585"><ele>132.0</ele><time>2026-05-03T06:19:02.253Z</time></trkpt><trkpt lat="38.15184" lon="14.8374733"><ele>132.0</ele><time>2026-05-03T06:19:03.253Z</time></trkpt><trkpt lat="38.1518733" lon="14.83737"><ele>132.0</ele><time>2026-05-03T06:19:04.253Z</time></trkpt><trkpt lat="38.1518933" lon="14.8372683"><ele>132.0</ele><time>2026-05-03T06:19:05.253Z</time></trkpt><trkpt lat="38.151905" lon="14.8371633"><ele>128.6</ele><time>2026-05-03T06:19:06.253Z</time></trkpt><trkpt lat="38.1519" lon="14.8370567"><ele>125.19999999999999</ele><time>2026-05-03T06:19:07.253Z</time></trkpt><trkpt lat="38.1518717" lon="14.836955"><ele>121.8</ele><time>2026-05-03T06:19:08.253Z</time></trkpt><trkpt lat="38.15181" lon="14.8368617"><ele>118.4</ele><time>2026-05-03T06:19:09.253Z</time></trkpt><trkpt lat="38.1517367" lon="14.8367933"><ele>115.0</ele><time>2026-05-03T06:19:10.253Z</time></trkpt><trkpt lat="38.1516483" lon="14.8367517"><ele>116.8</ele><time>2026-05-03T06:19:11.253Z</time></trkpt><trkpt lat="38.1515533" lon="14.8367267"><ele>118.6</ele><time>2026-05-03T06:19:12.253Z</time></trkpt><trkpt lat="38.1514683" lon="14.8366783"><ele>120.4</ele><time>2026-05-03T06:19:13.253Z</time></trkpt><trkpt lat="38.1513983" lon="14.8366"><ele>122.2</ele><time>2026-05-03T06:19:14.253Z</time></trkpt><trkpt lat="38.1513517" lon="14.836505"><ele>124.0</ele><time>2026-05-03T06:19:15.253Z</time></trkpt><trkpt lat="38.15134" lon="14.8363917"><ele>124.0</ele><time>2026-05-03T06:19:16.253Z</time></trkpt><trkpt lat="38.151355" lon="14.83627"><ele>124.0</ele><time>2026-05-03T06:19:17.253Z</time></trkpt><trkpt lat="38.1513767" lon="14.8361317"><ele>124.0</ele><time>2026-05-03T06:19:18.253Z</time></trkpt><trkpt lat="38.1513717" lon="14.8360017"><ele>124.0</ele><time>2026-05-03T06:19:19.253Z</time></trkpt><trkpt lat="38.151325" lon="14.83589"><ele>124.0</ele><time>2026-05-03T06:19:20.253Z</time></trkpt><trkpt lat="38.15125" lon="14.8358117"><ele>120.6</ele><time>2026-05-03T06:19:21.252Z</time></trkpt><trkpt lat="38.1511633" lon="14.8357417"><ele>117.2</ele><time>2026-05-03T06:19:22.253Z</time></trkpt><trkpt lat="38.151075" lon="14.8356733"><ele>113.79999999999998</ele><time>2026-05-03T06:19:23.252Z</time></trkpt><trkpt lat="38.15098" lon="14.835605"><ele>110.39999999999999</ele><time>2026-05-03T06:19:24.253Z</time></trkpt><trkpt lat="38.1508883" lon="14.83553"><ele>107.0</ele><time>2026-05-03T06:19:25.253Z</time></trkpt><trkpt lat="38.1507933" lon="14.8354567"><ele>109.6</ele><time>2026-05-03T06:19:26.253Z</time></trkpt><trkpt lat="38.150695" lon="14.835385"><ele>112.19999999999999</ele><time>2026-05-03T06:19:27.253Z</time></trkpt><trkpt lat="38.15061" lon="14.8353133"><ele>114.8</ele><time>2026-05-03T06:19:28.253Z</time></trkpt><trkpt lat="38.1505217" lon="14.83524"><ele>117.4</ele><time>2026-05-03T06:19:29.253Z</time></trkpt><trkpt lat="38.1504367" lon="14.835165"><ele>120.0</ele><time>2026-05-03T06:19:30.253Z</time></trkpt><trkpt lat="38.1503533" lon="14.8350833"><ele>114.0</ele><time>2026-05-03T06:19:31.253Z</time></trkpt><trkpt lat="38.1502717" lon="14.835005"><ele>108.0</ele><time>2026-05-03T06:19:32.253Z</time></trkpt><trkpt lat="38.1501983" lon="14.8349067"><ele>102.0</ele><time>2026-05-03T06:19:33.253Z</time></trkpt><trkpt lat="38.1501567" lon="14.834785"><ele>96.0</ele><time>2026-05-03T06:19:34.253Z</time></trkpt><trkpt lat="38.1501317" lon="14.834675"><ele>90.0</ele><time>2026-05-03T06:19:35.253Z</time></trkpt><trkpt lat="38.15012" lon="14.8345667"><ele>90.0</ele><time>2026-05-03T06:19:36.253Z</time></trkpt><trkpt lat="38.1501117" lon="14.83446"><ele>90.0</ele><time>2026-05-03T06:19:37.253Z</time></trkpt><trkpt lat="38.1500967" lon="14.83436"><ele>90.0</ele><time>2026-05-03T06:19:38.253Z</time></trkpt><trkpt lat="38.1500767" lon="14.83426"><ele>90.0</ele><time>2026-05-03T06:19:39.253Z</time></trkpt><trkpt lat="38.150065" lon="14.8341683"><ele>90.0</ele><time>2026-05-03T06:19:40.253Z</time></trkpt><trkpt lat="38.1500567" lon="14.8340883"><ele>90.0</ele><time>2026-05-03T06:19:41.253Z</time></trkpt><trkpt lat="38.1500267" lon="14.833945"><ele>89.0</ele><time>2026-05-03T06:19:43.253Z</time></trkpt><trkpt lat="38.150005" lon="14.8338017"><ele>88.0</ele><time>2026-05-03T06:19:45.253Z</time></trkpt><trkpt lat="38.1499883" lon="14.833715"><ele>87.0</ele><time>2026-05-03T06:19:46.253Z</time></trkpt><trkpt lat="38.1499717" lon="14.833625"><ele>86.0</ele><time>2026-05-03T06:19:47.253Z</time></trkpt><trkpt lat="38.149945" lon="14.833485"><ele>85.0</ele><time>2026-05-03T06:19:49.253Z</time></trkpt><trkpt lat="38.1499333" lon="14.8333717"><ele>85.0</ele><time>2026-05-03T06:19:51.253Z</time></trkpt><trkpt lat="38.1499317" lon="14.83327"><ele>85.0</ele><time>2026-05-03T06:19:53.253Z</time></trkpt><trkpt lat="38.14992" lon="14.8331733"><ele>85.0</ele><time>2026-05-03T06:19:55.253Z</time></trkpt><trkpt lat="38.149875" lon="14.8331117"><ele>85.0</ele><time>2026-05-03T06:19:59.253Z</time></trkpt><trkpt lat="38.1498233" lon="14.83303"><ele>85.0</ele><time>2026-05-03T06:20:03.253Z</time></trkpt><trkpt lat="38.14975" lon="14.832975"><ele>85.0</ele><time>2026-05-03T06:20:05.252Z</time></trkpt><trkpt lat="38.149675" lon="14.8329267"><ele>86.0</ele><time>2026-05-03T06:20:07.253Z</time></trkpt><trkpt lat="38.149595" lon="14.8329"><ele>87.0</ele><time>2026-05-03T06:20:09.253Z</time></trkpt><trkpt lat="38.1494717" lon="14.8328633"><ele>88.0</ele><time>2026-05-03T06:20:11.253Z</time></trkpt><trkpt lat="38.1493967" lon="14.8328417"><ele>89.0</ele><time>2026-05-03T06:20:12.253Z</time></trkpt><trkpt lat="38.1492817" lon="14.8328083"><ele>90.0</ele><time>2026-05-03T06:20:14.252Z</time></trkpt><trkpt lat="38.1491667" lon="14.832795"><ele>90.0</ele><time>2026-05-03T06:20:16.253Z</time></trkpt><trkpt lat="38.1491017" lon="14.8328133"><ele>90.0</ele><time>2026-05-03T06:20:17.253Z</time></trkpt><trkpt lat="38.1490433" lon="14.8328467"><ele>90.0</ele><time>2026-05-03T06:20:18.253Z</time></trkpt><trkpt lat="38.14896" lon="14.832915"><ele>90.0</ele><time>2026-05-03T06:20:20.253Z</time></trkpt><trkpt lat="38.1488817" lon="14.8329667"><ele>90.0</ele><time>2026-05-03T06:20:22.253Z</time></trkpt><trkpt lat="38.1487633" lon="14.8329867"><ele>90.0</ele><time>2026-05-03T06:20:24.252Z</time></trkpt><trkpt lat="38.1486883" lon="14.832965"><ele>91.0</ele><time>2026-05-03T06:20:25.253Z</time></trkpt><trkpt lat="38.14861" lon="14.832925"><ele>92.0</ele><time>2026-05-03T06:20:26.253Z</time></trkpt><trkpt lat="38.1485367" lon="14.8328867"><ele>93.0</ele><time>2026-05-03T06:20:27.253Z</time></trkpt><trkpt lat="38.1484717" lon="14.83285"><ele>94.0</ele><time>2026-05-03T06:20:28.253Z</time></trkpt><trkpt lat="38.1484067" lon="14.8328133"><ele>95.0</ele><time>2026-05-03T06:20:29.253Z</time></trkpt><trkpt lat="38.1483467" lon="14.832785"><ele>96.0</ele><time>2026-05-03T06:20:30.253Z</time></trkpt><trkpt lat="38.1482333" lon="14.83274"><ele>94.6</ele><time>2026-05-03T06:20:32.253Z</time></trkpt><trkpt lat="38.14817" lon="14.8326533"><ele>93.19999999999999</ele><time>2026-05-03T06:20:34.253Z</time></trkpt><trkpt lat="38.1481383" lon="14.83253"><ele>91.80000000000001</ele><time>2026-05-03T06:20:36.253Z</time></trkpt><trkpt lat="38.1481333" lon="14.8323883"><ele>90.4</ele><time>2026-05-03T06:20:38.253Z</time></trkpt><trkpt lat="38.1481717" lon="14.83226"><ele>89.0</ele><time>2026-05-03T06:20:40.253Z</time></trkpt><trkpt lat="38.1482017" lon="14.832175"><ele>88.16666666666667</ele><time>2026-05-03T06:20:42.253Z</time></trkpt><trkpt lat="38.1482283" lon="14.83206"><ele>87.33333333333334</ele><time>2026-05-03T06:20:44.253Z</time></trkpt><trkpt lat="38.1482733" lon="14.83199"><ele>86.5</ele><time>2026-05-03T06:20:46.253Z</time></trkpt><trkpt lat="38.1483" lon="14.8318817"><ele>85.66666666666667</ele><time>2026-05-03T06:20:49.253Z</time></trkpt><trkpt lat="38.1483333" lon="14.8317983"><ele>84.83333333333333</ele><time>2026-05-03T06:20:51.253Z</time></trkpt><trkpt lat="38.1483383" lon="14.8317133"><ele>84.0</ele><time>2026-05-03T06:20:53.253Z</time></trkpt><trkpt lat="38.1482917" lon="14.8316267"><ele>84.5</ele><time>2026-05-03T06:20:55.253Z</time></trkpt><trkpt lat="38.1482033" lon="14.831495"><ele>85.0</ele><time>2026-05-03T06:20:57.253Z</time></trkpt><trkpt lat="38.1481433" lon="14.8313917"><ele>85.5</ele><time>2026-05-03T06:20:58.253Z</time></trkpt><trkpt lat="38.1480867" lon="14.8312683"><ele>86.0</ele><time>2026-05-03T06:20:59.253Z</time></trkpt><trkpt lat="38.1480467" lon="14.8311167"><ele>87.5</ele><time>2026-05-03T06:21:00.253Z</time></trkpt><trkpt lat="38.148035" lon="14.83094"><ele>89.0</ele><time>2026-05-03T06:21:01.253Z</time></trkpt><trkpt lat="38.1480467" lon="14.830755"><ele>90.5</ele><time>2026-05-03T06:21:02.253Z</time></trkpt><trkpt lat="38.1480583" lon="14.830585"><ele>92.0</ele><time>2026-05-03T06:21:03.253Z</time></trkpt><trkpt lat="38.1480767" lon="14.8304267"><ele>92.0</ele><time>2026-05-03T06:21:04.253Z</time></trkpt><trkpt lat="38.1480967" lon="14.8302817"><ele>92.0</ele><time>2026-05-03T06:21:05.253Z</time></trkpt><trkpt lat="38.148115" lon="14.8301583"><ele>92.0</ele><time>2026-05-03T06:21:06.252Z</time></trkpt><trkpt lat="38.1481433" lon="14.8300333"><ele>92.0</ele><time>2026-05-03T06:21:07.253Z</time></trkpt><trkpt lat="38.1481633" lon="14.8299117"><ele>92.0</ele><time>2026-05-03T06:21:08.253Z</time></trkpt><trkpt lat="38.148175" lon="14.8297833"><ele>92.25</ele><time>2026-05-03T06:21:09.253Z</time></trkpt><trkpt lat="38.148165" lon="14.8296317"><ele>92.5</ele><time>2026-05-03T06:21:10.253Z</time></trkpt><trkpt lat="38.1481267" lon="14.8294733"><ele>92.75</ele><time>2026-05-03T06:21:11.253Z</time></trkpt><trkpt lat="38.1480783" lon="14.829325"><ele>93.0</ele><time>2026-05-03T06:21:12.253Z</time></trkpt><trkpt lat="38.14803" lon="14.8292033"><ele>92.4</ele><time>2026-05-03T06:21:13.253Z</time></trkpt><trkpt lat="38.14796" lon="14.8291133"><ele>91.80000000000001</ele><time>2026-05-03T06:21:14.253Z</time></trkpt><trkpt lat="38.1478717" lon="14.82904"><ele>91.2</ele><time>2026-05-03T06:21:15.253Z</time></trkpt><trkpt lat="38.147775" lon="14.8289767"><ele>90.6</ele><time>2026-05-03T06:21:16.253Z</time></trkpt><trkpt lat="38.1476933" lon="14.8289383"><ele>90.0</ele><time>2026-05-03T06:21:17.253Z</time></trkpt><trkpt lat="38.1476267" lon="14.82892"><ele>90.0</ele><time>2026-05-03T06:21:18.253Z</time></trkpt><trkpt lat="38.1475217" lon="14.82892"><ele>90.0</ele><time>2026-05-03T06:21:20.253Z</time></trkpt><trkpt lat="38.1474783" lon="14.8290033"><ele>90.0</ele><time>2026-05-03T06:21:22.252Z</time></trkpt><trkpt lat="38.1474767" lon="14.82911"><ele>90.0</ele><time>2026-05-03T06:21:24.253Z</time></trkpt><trkpt lat="38.1474817" lon="14.8292017"><ele>90.0</ele><time>2026-05-03T06:21:26.253Z</time></trkpt><trkpt lat="38.1474683" lon="14.8292917"><ele>90.0</ele><time>2026-05-03T06:21:28.253Z</time></trkpt><trkpt lat="38.1474517" lon="14.8294167"><ele>90.0</ele><time>2026-05-03T06:21:30.253Z</time></trkpt><trkpt lat="38.1474483" lon="14.82952"><ele>90.0</ele><time>2026-05-03T06:21:32.253Z</time></trkpt><trkpt lat="38.14747" lon="14.8296067"><ele>90.0</ele><time>2026-05-03T06:21:34.253Z</time></trkpt><trkpt lat="38.147495" lon="14.8295183"><ele>90.0</ele><time>2026-05-03T06:21:38.253Z</time></trkpt><trkpt lat="38.1475233" lon="14.8294383"><ele>90.0</ele><time>2026-05-03T06:21:40.253Z</time></trkpt><trkpt lat="38.1475483" lon="14.8293283"><ele>90.0</ele><time>2026-05-03T06:21:43.253Z</time></trkpt><trkpt lat="38.1475667" lon="14.8292517"><ele>90.0</ele><time>2026-05-03T06:21:46.253Z</time></trkpt><trkpt lat="38.14756" lon="14.82916"><ele>90.0</ele><time>2026-05-03T06:21:50.253Z</time></trkpt><trkpt lat="38.14752" lon="14.8289933"><ele>90.0</ele><time>2026-05-03T06:21:52.253Z</time></trkpt><trkpt lat="38.147475" lon="14.828895"><ele>90.0</ele><time>2026-05-03T06:21:53.253Z</time></trkpt><trkpt lat="38.1474283" lon="14.8288083"><ele>90.0</ele><time>2026-05-03T06:21:54.253Z</time></trkpt><trkpt lat="38.1473867" lon="14.8287417"><ele>90.0</ele><time>2026-05-03T06:21:55.253Z</time></trkpt><trkpt lat="38.1473186" lon="14.8286475"><ele>92.66666666666667</ele><time>2026-05-03T06:22:40.253Z</time></trkpt><trkpt lat="38.1472583" lon="14.828617"><ele>95.33333333333334</ele><time>2026-05-03T06:22:42.253Z</time></trkpt><trkpt lat="38.147193" lon="14.8285929"><ele>98.0</ele><time>2026-05-03T06:22:44.253Z</time></trkpt><trkpt lat="38.1471124" lon="14.828558"><ele>100.66666666666667</ele><time>2026-05-03T06:22:47.253Z</time></trkpt><trkpt lat="38.1470243" lon="14.8285199"><ele>103.33333333333334</ele><time>2026-05-03T06:22:50.253Z</time></trkpt><trkpt lat="38.1469372" lon="14.8284673"><ele>106.0</ele><time>2026-05-03T06:22:52.253Z</time></trkpt><trkpt lat="38.146845" lon="14.8283813"><ele>106.00000000000001</ele><time>2026-05-03T06:22:54.253Z</time></trkpt><trkpt lat="38.1468023" lon="14.8283079"><ele>106.0</ele><time>2026-05-03T06:22:55.253Z</time></trkpt><trkpt lat="38.1467672" lon="14.8282148"><ele>106.0</ele><time>2026-05-03T06:22:56.253Z</time></trkpt><trkpt lat="38.146741" lon="14.8281164"><ele>106.0</ele><time>2026-05-03T06:22:57.253Z</time></trkpt><trkpt lat="38.1467127" lon="14.8280244"><ele>106.00000000000001</ele><time>2026-05-03T06:22:58.253Z</time></trkpt><trkpt lat="38.146635" lon="14.8279567"><ele>106.0</ele><time>2026-05-03T06:23:00.253Z</time></trkpt><trkpt lat="38.146605" lon="14.8280433"><ele>106.0</ele><time>2026-05-03T06:23:02.253Z</time></trkpt><trkpt lat="38.146615" lon="14.8281967"><ele>106.0</ele><time>2026-05-03T06:23:04.253Z</time></trkpt><trkpt lat="38.1466167" lon="14.82831"><ele>106.0</ele><time>2026-05-03T06:23:05.253Z</time></trkpt><trkpt lat="38.1466267" lon="14.8284433"><ele>106.0</ele><time>2026-05-03T06:23:06.253Z</time></trkpt><trkpt lat="38.146635" lon="14.8285583"><ele>106.0</ele><time>2026-05-03T06:23:07.253Z</time></trkpt><trkpt lat="38.1466467" lon="14.828685"><ele>107.4</ele><time>2026-05-03T06:23:08.253Z</time></trkpt><trkpt lat="38.1466617" lon="14.828815"><ele>108.8</ele><time>2026-05-03T06:23:09.253Z</time></trkpt><trkpt lat="38.1466667" lon="14.82893"><ele>110.20000000000002</ele><time>2026-05-03T06:23:10.253Z</time></trkpt><trkpt lat="38.1466667" lon="14.8290517"><ele>111.60000000000001</ele><time>2026-05-03T06:23:11.253Z</time></trkpt><trkpt lat="38.146655" lon="14.82917"><ele>113.0</ele><time>2026-05-03T06:23:12.253Z</time></trkpt><trkpt lat="38.1466433" lon="14.8292983"><ele>113.4</ele><time>2026-05-03T06:23:13.253Z</time></trkpt><trkpt lat="38.146635" lon="14.82944"><ele>113.80000000000001</ele><time>2026-05-03T06:23:14.253Z</time></trkpt><trkpt lat="38.146625" lon="14.8295833"><ele>114.2</ele><time>2026-05-03T06:23:15.253Z</time></trkpt><trkpt lat="38.1466167" lon="14.8296883"><ele>114.6</ele><time>2026-05-03T06:23:16.253Z</time></trkpt><trkpt lat="38.1465633" lon="14.829805"><ele>115.0</ele><time>2026-05-03T06:23:18.253Z</time></trkpt><trkpt lat="38.1464683" lon="14.829725"><ele>118.6</ele><time>2026-05-03T06:23:20.253Z</time></trkpt><trkpt lat="38.1464183" lon="14.8296017"><ele>122.2</ele><time>2026-05-03T06:23:21.253Z</time></trkpt><trkpt lat="38.1463533" lon="14.8294633"><ele>125.80000000000001</ele><time>2026-05-03T06:23:22.253Z</time></trkpt><trkpt lat="38.146295" lon="14.82937"><ele>129.4</ele><time>2026-05-03T06:23:23.253Z</time></trkpt><trkpt lat="38.146235" lon="14.829305"><ele>133.0</ele><time>2026-05-03T06:23:24.253Z</time></trkpt><trkpt lat="38.1461733" lon="14.8292467"><ele>133.0</ele><time>2026-05-03T06:23:25.253Z</time></trkpt><trkpt lat="38.1461133" lon="14.829175"><ele>133.0</ele><time>2026-05-03T06:23:26.253Z</time></trkpt><trkpt lat="38.14606" lon="14.8290967"><ele>133.0</ele><time>2026-05-03T06:23:27.253Z</time></trkpt><trkpt lat="38.146005" lon="14.82902"><ele>133.0</ele><time>2026-05-03T06:23:28.253Z</time></trkpt><trkpt lat="38.1459617" lon="14.8289533"><ele>133.0</ele><time>2026-05-03T06:23:29.253Z</time></trkpt><trkpt lat="38.145885" lon="14.82888"><ele>133.0</ele><time>2026-05-03T06:23:31.253Z</time></trkpt><trkpt lat="38.1458117" lon="14.8289333"><ele>133.0</ele><time>2026-05-03T06:23:33.253Z</time></trkpt><trkpt lat="38.1457683" lon="14.8290167"><ele>133.0</ele><time>2026-05-03T06:23:34.253Z</time></trkpt><trkpt lat="38.14571" lon="14.8291067"><ele>133.0</ele><time>2026-05-03T06:23:35.253Z</time></trkpt><trkpt lat="38.1456383" lon="14.8291967"><ele>133.0</ele><time>2026-05-03T06:23:36.253Z</time></trkpt><trkpt lat="38.1455633" lon="14.8292933"><ele>133.0</ele><time>2026-05-03T06:23:37.253Z</time></trkpt><trkpt lat="38.1454867" lon="14.8293917"><ele>138.66666666666669</ele><time>2026-05-03T06:23:38.252Z</time></trkpt><trkpt lat="38.14542" lon="14.8294833"><ele>144.33333333333334</ele><time>2026-05-03T06:23:39.253Z</time></trkpt><trkpt lat="38.1453517" lon="14.8295767"><ele>150.0</ele><time>2026-05-03T06:23:40.253Z</time></trkpt><trkpt lat="38.1452933" lon="14.8296683"><ele>155.66666666666666</ele><time>2026-05-03T06:23:41.252Z</time></trkpt><trkpt lat="38.14524" lon="14.82975"><ele>161.33333333333331</ele><time>2026-05-03T06:23:42.253Z</time></trkpt><trkpt lat="38.1451933" lon="14.8298217"><ele>167.0</ele><time>2026-05-03T06:23:43.253Z</time></trkpt><trkpt lat="38.145115" lon="14.8298733"><ele>167.0</ele><time>2026-05-03T06:23:45.253Z</time></trkpt><trkpt lat="38.14505" lon="14.8298283"><ele>167.0</ele><time>2026-05-03T06:23:47.253Z</time></trkpt><trkpt lat="38.1449817" lon="14.82971"><ele>167.0</ele><time>2026-05-03T06:23:49.253Z</time></trkpt><trkpt lat="38.144935" lon="14.8296017"><ele>167.0</ele><time>2026-05-03T06:23:50.253Z</time></trkpt><trkpt lat="38.1448883" lon="14.8294667"><ele>167.0</ele><time>2026-05-03T06:23:51.253Z</time></trkpt><trkpt lat="38.1448433" lon="14.82936"><ele>167.33333333333331</ele><time>2026-05-03T06:23:52.253Z</time></trkpt><trkpt lat="38.144825" lon="14.829235"><ele>167.66666666666666</ele><time>2026-05-03T06:23:53.253Z</time></trkpt><trkpt lat="38.144815" lon="14.8291367"><ele>168.0</ele><time>2026-05-03T06:23:54.253Z</time></trkpt><trkpt lat="38.1447783" lon="14.8292433"><ele>168.33333333333334</ele><time>2026-05-03T06:23:58.253Z</time></trkpt><trkpt lat="38.14479" lon="14.8293433"><ele>168.66666666666669</ele><time>2026-05-03T06:23:59.253Z</time></trkpt><trkpt lat="38.144805" lon="14.82944"><ele>169.0</ele><time>2026-05-03T06:24:00.253Z</time></trkpt><trkpt lat="38.144815" lon="14.8295467"><ele>170.66666666666669</ele><time>2026-05-03T06:24:01.253Z</time></trkpt><trkpt lat="38.1448233" lon="14.8296317"><ele>172.33333333333334</ele><time>2026-05-03T06:24:02.253Z</time></trkpt><trkpt lat="38.1448517" lon="14.8297133"><ele>174.0</ele><time>2026-05-03T06:24:04.253Z</time></trkpt><trkpt lat="38.1448533" lon="14.8295983"><ele>175.66666666666666</ele><time>2026-05-03T06:24:11.254Z</time></trkpt><trkpt lat="38.1448483" lon="14.8294917"><ele>177.33333333333331</ele><time>2026-05-03T06:24:14.254Z</time></trkpt><trkpt lat="38.1448083" lon="14.8294083"><ele>179.0</ele><time>2026-05-03T06:24:17.254Z</time></trkpt><trkpt lat="38.1447433" lon="14.8293383"><ele>177.33333333333331</ele><time>2026-05-03T06:24:20.254Z</time></trkpt><trkpt lat="38.1446783" lon="14.8292483"><ele>175.66666666666666</ele><time>2026-05-03T06:24:32.253Z</time></trkpt><trkpt lat="38.1446383" lon="14.8291633"><ele>174.0</ele><time>2026-05-03T06:24:34.254Z</time></trkpt><trkpt lat="38.1445867" lon="14.829095"><ele>172.33333333333334</ele><time>2026-05-03T06:24:36.254Z</time></trkpt><trkpt lat="38.144525" lon="14.8290183"><ele>170.66666666666669</ele><time>2026-05-03T06:24:38.254Z</time></trkpt><trkpt lat="38.1444733" lon="14.8289667"><ele>169.0</ele><time>2026-05-03T06:24:40.254Z</time></trkpt><trkpt lat="38.14441" lon="14.8289317"><ele>169.0</ele><time>2026-05-03T06:25:52.254Z</time></trkpt><trkpt lat="38.1443967" lon="14.8288533"><ele>169.0</ele><time>2026-05-03T06:25:54.254Z</time></trkpt><trkpt lat="38.1443583" lon="14.8287883"><ele>169.0</ele><time>2026-05-03T06:25:56.254Z</time></trkpt><trkpt lat="38.1442533" lon="14.82878"><ele>169.0</ele><time>2026-05-03T06:25:59.254Z</time></trkpt><trkpt lat="38.1441617" lon="14.82883"><ele>169.0</ele><time>2026-05-03T06:26:01.254Z</time></trkpt><trkpt lat="38.1441" lon="14.828865"><ele>169.0</ele><time>2026-05-03T06:26:03.254Z</time></trkpt><trkpt lat="38.1440317" lon="14.8288067"><ele>167.83333333333334</ele><time>2026-05-03T06:26:06.253Z</time></trkpt><trkpt lat="38.1440133" lon="14.8287283"><ele>166.66666666666669</ele><time>2026-05-03T06:26:08.254Z</time></trkpt><trkpt lat="38.1439917" lon="14.82864"><ele>165.5</ele><time>2026-05-03T06:26:10.254Z</time></trkpt><trkpt lat="38.1439383" lon="14.8285717"><ele>164.33333333333334</ele><time>2026-05-03T06:26:13.254Z</time></trkpt><trkpt lat="38.1438633" lon="14.8286017"><ele>163.16666666666666</ele><time>2026-05-03T06:26:15.254Z</time></trkpt><trkpt lat="38.14379" lon="14.8286933"><ele>162.0</ele><time>2026-05-03T06:26:17.254Z</time></trkpt><trkpt lat="38.1437433" lon="14.8288217"><ele>162.0</ele><time>2026-05-03T06:26:19.254Z</time></trkpt><trkpt lat="38.1437517" lon="14.8289533"><ele>162.0</ele><time>2026-05-03T06:26:21.254Z</time></trkpt><trkpt lat="38.1437767" lon="14.8290733"><ele>162.0</ele><time>2026-05-03T06:26:23.254Z</time></trkpt><trkpt lat="38.1437533" lon="14.8291933"><ele>162.0</ele><time>2026-05-03T06:26:25.253Z</time></trkpt><trkpt lat="38.1436867" lon="14.8292533"><ele>162.0</ele><time>2026-05-03T06:26:27.254Z</time></trkpt><trkpt lat="38.1436217" lon="14.82925"><ele>162.0</ele><time>2026-05-03T06:26:29.254Z</time></trkpt><trkpt lat="38.14355" lon="14.8292162"><ele>162.0</ele><time>2026-05-03T06:26:32.253Z</time></trkpt><trkpt lat="38.1434409" lon="14.8291901"><ele>162.0</ele><time>2026-05-03T06:26:35.254Z</time></trkpt><trkpt lat="38.1433208" lon="14.8291861"><ele>162.0</ele><time>2026-05-03T06:26:37.254Z</time></trkpt><trkpt lat="38.1431981" lon="14.8292115"><ele>162.0</ele><time>2026-05-03T06:26:39.254Z</time></trkpt><trkpt lat="38.1431162" lon="14.8292407"><ele>162.0</ele><time>2026-05-03T06:26:40.253Z</time></trkpt><trkpt lat="38.1430236" lon="14.8292627"><ele>162.2</ele><time>2026-05-03T06:26:41.254Z</time></trkpt><trkpt lat="38.1429255" lon="14.8292666"><ele>162.39999999999998</ele><time>2026-05-03T06:26:42.253Z</time></trkpt><trkpt lat="38.1428304" lon="14.829255"><ele>162.60000000000002</ele><time>2026-05-03T06:26:43.254Z</time></trkpt><trkpt lat="38.1427521" lon="14.829224"><ele>162.8</ele><time>2026-05-03T06:26:44.254Z</time></trkpt><trkpt lat="38.1426985" lon="14.8291729"><ele>163.0</ele><time>2026-05-03T06:26:45.254Z</time></trkpt><trkpt lat="38.1426691" lon="14.8290082"><ele>163.0</ele><time>2026-05-03T06:26:47.254Z</time></trkpt><trkpt lat="38.1426657" lon="14.828917"><ele>163.0</ele><time>2026-05-03T06:26:48.254Z</time></trkpt><trkpt lat="38.1426244" lon="14.8288069"><ele>163.0</ele><time>2026-05-03T06:26:50.254Z</time></trkpt><trkpt lat="38.1425271" lon="14.8288012"><ele>163.0</ele><time>2026-05-03T06:26:52.254Z</time></trkpt><trkpt lat="38.1424228" lon="14.8288415"><ele>163.0</ele><time>2026-05-03T06:26:54.254Z</time></trkpt><trkpt lat="38.1423258" lon="14.8288866"><ele>164.33333333333334</ele><time>2026-05-03T06:26:56.254Z</time></trkpt><trkpt lat="38.1422627" lon="14.8289195"><ele>165.66666666666669</ele><time>2026-05-03T06:26:57.254Z</time></trkpt><trkpt lat="38.1421902" lon="14.8289559"><ele>167.0</ele><time>2026-05-03T06:26:58.254Z</time></trkpt><trkpt lat="38.1421211" lon="14.8289929"><ele>168.33333333333334</ele><time>2026-05-03T06:26:59.254Z</time></trkpt><trkpt lat="38.142059" lon="14.8290188"><ele>169.66666666666666</ele><time>2026-05-03T06:27:00.254Z</time></trkpt><trkpt lat="38.1419478" lon="14.8290359"><ele>171.0</ele><time>2026-05-03T06:27:02.254Z</time></trkpt><trkpt lat="38.1418458" lon="14.8290791"><ele>171.0</ele><time>2026-05-03T06:27:04.254Z</time></trkpt><trkpt lat="38.141753" lon="14.8291644"><ele>171.0</ele><time>2026-05-03T06:27:06.254Z</time></trkpt><trkpt lat="38.1416989" lon="14.8292183"><ele>171.0</ele><time>2026-05-03T06:27:07.254Z</time></trkpt><trkpt lat="38.1416367" lon="14.8292727"><ele>171.0</ele><time>2026-05-03T06:27:08.254Z</time></trkpt><trkpt lat="38.1415815" lon="14.8293183"><ele>171.0</ele><time>2026-05-03T06:27:09.254Z</time></trkpt><trkpt lat="38.1414848" lon="14.8293402"><ele>171.0</ele><time>2026-05-03T06:27:11.254Z</time></trkpt><trkpt lat="38.141412" lon="14.8293327"><ele>173.66666666666666</ele><time>2026-05-03T06:27:14.254Z</time></trkpt><trkpt lat="38.1414745" lon="14.8293859"><ele>176.33333333333334</ele><time>2026-05-03T06:27:16.254Z</time></trkpt><trkpt lat="38.1415533" lon="14.8294105"><ele>179.0</ele><time>2026-05-03T06:27:17.254Z</time></trkpt><trkpt lat="38.1416487" lon="14.8294191"><ele>181.66666666666669</ele><time>2026-05-03T06:27:18.254Z</time></trkpt><trkpt lat="38.1417405" lon="14.829406"><ele>184.33333333333334</ele><time>2026-05-03T06:27:19.253Z</time></trkpt><trkpt lat="38.1418211" lon="14.8293778"><ele>187.0</ele><time>2026-05-03T06:27:20.254Z</time></trkpt><trkpt lat="38.1418949" lon="14.8293291"><ele>187.0</ele><time>2026-05-03T06:27:21.254Z</time></trkpt><trkpt lat="38.1419543" lon="14.8292844"><ele>187.0</ele><time>2026-05-03T06:27:22.254Z</time></trkpt><trkpt lat="38.1420397" lon="14.8292606"><ele>187.0</ele><time>2026-05-03T06:27:24.254Z</time></trkpt><trkpt lat="38.1420625" lon="14.8293454"><ele>187.0</ele><time>2026-05-03T06:27:26.254Z</time></trkpt><trkpt lat="38.1420319" lon="14.8294328"><ele>187.0</ele><time>2026-05-03T06:27:27.254Z</time></trkpt><trkpt lat="38.1419918" lon="14.8295471"><ele>187.0</ele><time>2026-05-03T06:27:28.254Z</time></trkpt><trkpt lat="38.1419536" lon="14.8296818"><ele>187.0</ele><time>2026-05-03T06:27:29.254Z</time></trkpt><trkpt lat="38.1419272" lon="14.8298154"><ele>187.0</ele><time>2026-05-03T06:27:30.254Z</time></trkpt><trkpt lat="38.1419028" lon="14.8299495"><ele>187.0</ele><time>2026-05-03T06:27:31.254Z</time></trkpt><trkpt lat="38.1418642" lon="14.830061"><ele>187.0</ele><time>2026-05-03T06:27:32.254Z</time></trkpt><trkpt lat="38.1418113" lon="14.8301499"><ele>187.0</ele><time>2026-05-03T06:27:33.254Z</time></trkpt><trkpt lat="38.1417542" lon="14.8302193"><ele>189.5</ele><time>2026-05-03T06:27:34.254Z</time></trkpt><trkpt lat="38.1416675" lon="14.8302913"><ele>192.0</ele><time>2026-05-03T06:27:36.254Z</time></trkpt><trkpt lat="38.1415755" lon="14.8302916"><ele>194.5</ele><time>2026-05-03T06:27:38.253Z</time></trkpt><trkpt lat="38.141479" lon="14.8302572"><ele>197.0</ele><time>2026-05-03T06:27:40.254Z</time></trkpt><trkpt lat="38.1414521" lon="14.8301724"><ele>199.49999999999997</ele><time>2026-05-03T06:27:43.254Z</time></trkpt><trkpt lat="38.141446" lon="14.8300835"><ele>202.0</ele><time>2026-05-03T06:27:46.254Z</time></trkpt><trkpt lat="38.1415388" lon="14.8300304"><ele>199.0</ele><time>2026-05-03T06:27:50.253Z</time></trkpt><trkpt lat="38.1416487" lon="14.8299971"><ele>196.0</ele><time>2026-05-03T06:27:52.254Z</time></trkpt><trkpt lat="38.1417514" lon="14.8299666"><ele>193.0</ele><time>2026-05-03T06:27:54.253Z</time></trkpt><trkpt lat="38.1418601" lon="14.8299087"><ele>190.0</ele><time>2026-05-03T06:27:56.254Z</time></trkpt><trkpt lat="38.141938" lon="14.8298801"><ele>187.0</ele><time>2026-05-03T06:27:58.254Z</time></trkpt><trkpt lat="38.1419688" lon="14.8297845"><ele>187.0</ele><time>2026-05-03T06:28:01.253Z</time></trkpt><trkpt lat="38.1419728" lon="14.8296953"><ele>187.0</ele><time>2026-05-03T06:28:03.254Z</time></trkpt><trkpt lat="38.14198" lon="14.829602"><ele>187.0</ele><time>2026-05-03T06:28:05.254Z</time></trkpt><trkpt lat="38.1420186" lon="14.8294934"><ele>187.0</ele><time>2026-05-03T06:28:07.254Z</time></trkpt><trkpt lat="38.142039" lon="14.8293782"><ele>187.0</ele><time>2026-05-03T06:28:09.254Z</time></trkpt><trkpt lat="38.1420039" lon="14.8292821"><ele>187.0</ele><time>2026-05-03T06:28:11.254Z</time></trkpt><trkpt lat="38.1419028" lon="14.8292979"><ele>187.0</ele><time>2026-05-03T06:28:13.254Z</time></trkpt><trkpt lat="38.1418246" lon="14.8293496"><ele>187.0</ele><time>2026-05-03T06:28:14.254Z</time></trkpt><trkpt lat="38.1417458" lon="14.8293911"><ele>187.0</ele><time>2026-05-03T06:28:15.254Z</time></trkpt><trkpt lat="38.1416807" lon="14.8294207"><ele>187.0</ele><time>2026-05-03T06:28:16.254Z</time></trkpt><trkpt lat="38.1415663" lon="14.829433"><ele>187.0</ele><time>2026-05-03T06:28:18.254Z</time></trkpt><trkpt lat="38.1414697" lon="14.8293708"><ele>187.7142857142857</ele><time>2026-05-03T06:28:20.254Z</time></trkpt><trkpt lat="38.1414227" lon="14.829314"><ele>188.42857142857144</ele><time>2026-05-03T06:28:21.254Z</time></trkpt><trkpt lat="38.1413804" lon="14.829245"><ele>189.14285714285714</ele><time>2026-05-03T06:28:22.254Z</time></trkpt><trkpt lat="38.1413634" lon="14.8291653"><ele>189.85714285714283</ele><time>2026-05-03T06:28:23.254Z</time></trkpt><trkpt lat="38.1413681" lon="14.829081"><ele>190.57142857142856</ele><time>2026-05-03T06:28:24.253Z</time></trkpt><trkpt lat="38.1413781" lon="14.8289978"><ele>191.28571428571428</ele><time>2026-05-03T06:28:26.254Z</time></trkpt><trkpt lat="38.1414328" lon="14.8290572"><ele>192.0</ele><time>2026-05-03T06:28:31.254Z</time></trkpt><trkpt lat="38.1415147" lon="14.8289924"><ele>188.5</ele><time>2026-05-03T06:28:33.254Z</time></trkpt><trkpt lat="38.1415754" lon="14.8289348"><ele>185.0</ele><time>2026-05-03T06:28:34.254Z</time></trkpt><trkpt lat="38.1416477" lon="14.8288549"><ele>181.5</ele><time>2026-05-03T06:28:35.254Z</time></trkpt><trkpt lat="38.1417082" lon="14.8287678"><ele>178.0</ele><time>2026-05-03T06:28:36.254Z</time></trkpt><trkpt lat="38.1417596" lon="14.8286802"><ele>174.5</ele><time>2026-05-03T06:28:37.253Z</time></trkpt><trkpt lat="38.1418127" lon="14.8286089"><ele>171.0</ele><time>2026-05-03T06:28:38.254Z</time></trkpt><trkpt lat="38.1418677" lon="14.8285581"><ele>171.0</ele><time>2026-05-03T06:28:39.254Z</time></trkpt><trkpt lat="38.1419271" lon="14.828526"><ele>171.0</ele><time>2026-05-03T06:28:40.254Z</time></trkpt><trkpt lat="38.1419911" lon="14.8285021"><ele>171.0</ele><time>2026-05-03T06:28:41.254Z</time></trkpt><trkpt lat="38.1421045" lon="14.8284684"><ele>171.0</ele><time>2026-05-03T06:28:43.254Z</time></trkpt><trkpt lat="38.142198" lon="14.828424"><ele>171.0</ele><time>2026-05-03T06:28:45.254Z</time></trkpt><trkpt lat="38.1422779" lon="14.8283459"><ele>171.0</ele><time>2026-05-03T06:28:47.254Z</time></trkpt><trkpt lat="38.1423415" lon="14.8282647"><ele>170.20000000000002</ele><time>2026-05-03T06:28:49.254Z</time></trkpt><trkpt lat="38.1423866" lon="14.8281853"><ele>169.4</ele><time>2026-05-03T06:28:51.254Z</time></trkpt><trkpt lat="38.1424311" lon="14.8281162"><ele>168.6</ele><time>2026-05-03T06:28:53.254Z</time></trkpt><trkpt lat="38.1425103" lon="14.8280486"><ele>167.8</ele><time>2026-05-03T06:28:55.254Z</time></trkpt><trkpt lat="38.1426223" lon="14.8279633"><ele>167.0</ele><time>2026-05-03T06:28:57.254Z</time></trkpt><trkpt lat="38.1426975" lon="14.8279146"><ele>167.0</ele><time>2026-05-03T06:28:58.254Z</time></trkpt><trkpt lat="38.1427732" lon="14.8278618"><ele>167.0</ele><time>2026-05-03T06:28:59.254Z</time></trkpt><trkpt lat="38.1428478" lon="14.8277945"><ele>167.0</ele><time>2026-05-03T06:29:00.254Z</time></trkpt><trkpt lat="38.1429218" lon="14.8277006"><ele>167.0</ele><time>2026-05-03T06:29:01.254Z</time></trkpt><trkpt lat="38.1429942" lon="14.8275956"><ele>167.0</ele><time>2026-05-03T06:29:02.254Z</time></trkpt><trkpt lat="38.1430473" lon="14.827485"><ele>169.39999999999998</ele><time>2026-05-03T06:29:03.253Z</time></trkpt><trkpt lat="38.1430781" lon="14.8273747"><ele>171.79999999999998</ele><time>2026-05-03T06:29:04.254Z</time></trkpt><trkpt lat="38.1430906" lon="14.827256"><ele>174.2</ele><time>2026-05-03T06:29:05.254Z</time></trkpt><trkpt lat="38.1430865" lon="14.827129"><ele>176.6</ele><time>2026-05-03T06:29:06.254Z</time></trkpt><trkpt lat="38.1430656" lon="14.8269808"><ele>179.0</ele><time>2026-05-03T06:29:07.254Z</time></trkpt><trkpt lat="38.1430212" lon="14.8268124"><ele>179.66666666666666</ele><time>2026-05-03T06:29:08.254Z</time></trkpt><trkpt lat="38.1429581" lon="14.8266293"><ele>180.33333333333334</ele><time>2026-05-03T06:29:09.254Z</time></trkpt><trkpt lat="38.1428782" lon="14.8264394"><ele>181.0</ele><time>2026-05-03T06:29:10.254Z</time></trkpt><trkpt lat="38.1428087" lon="14.8262609"><ele>181.0</ele><time>2026-05-03T06:29:11.254Z</time></trkpt><trkpt lat="38.1427515" lon="14.8261115"><ele>181.0</ele><time>2026-05-03T06:29:12.254Z</time></trkpt><trkpt lat="38.1427017" lon="14.8259782"><ele>181.0</ele><time>2026-05-03T06:29:13.254Z</time></trkpt><trkpt lat="38.1426627" lon="14.8258388"><ele>181.0</ele><time>2026-05-03T06:29:14.254Z</time></trkpt><trkpt lat="38.1426305" lon="14.825674"><ele>179.25</ele><time>2026-05-03T06:29:15.254Z</time></trkpt><trkpt lat="38.1426134" lon="14.8254827"><ele>177.5</ele><time>2026-05-03T06:29:16.254Z</time></trkpt><trkpt lat="38.1425744" lon="14.825294"><ele>175.75</ele><time>2026-05-03T06:29:17.254Z</time></trkpt><trkpt lat="38.142532" lon="14.8251257"><ele>174.0</ele><time>2026-05-03T06:29:18.254Z</time></trkpt><trkpt lat="38.1425146" lon="14.8249733"><ele>172.6</ele><time>2026-05-03T06:29:19.254Z</time></trkpt><trkpt lat="38.1425099" lon="14.8248308"><ele>171.2</ele><time>2026-05-03T06:29:20.254Z</time></trkpt><trkpt lat="38.1425239" lon="14.8247076"><ele>169.79999999999998</ele><time>2026-05-03T06:29:21.254Z</time></trkpt><trkpt lat="38.1425532" lon="14.8246038"><ele>168.39999999999998</ele><time>2026-05-03T06:29:22.254Z</time></trkpt><trkpt lat="38.1425853" lon="14.8245221"><ele>167.0</ele><time>2026-05-03T06:29:23.254Z</time></trkpt><trkpt lat="38.14265" lon="14.8244057"><ele>167.0</ele><time>2026-05-03T06:29:25.254Z</time></trkpt><trkpt lat="38.1426264" lon="14.8243313"><ele>167.0</ele><time>2026-05-03T06:29:27.254Z</time></trkpt><trkpt lat="38.1425124" lon="14.8243411"><ele>167.0</ele><time>2026-05-03T06:29:29.254Z</time></trkpt><trkpt lat="38.1424327" lon="14.8243761"><ele>167.0</ele><time>2026-05-03T06:29:30.254Z</time></trkpt><trkpt lat="38.1423503" lon="14.8244167"><ele>167.0</ele><time>2026-05-03T06:29:31.254Z</time></trkpt><trkpt lat="38.1422792" lon="14.8244537"><ele>167.0</ele><time>2026-05-03T06:29:32.254Z</time></trkpt><trkpt lat="38.1422014" lon="14.8244854"><ele>170.2</ele><time>2026-05-03T06:29:33.254Z</time></trkpt><trkpt lat="38.1421142" lon="14.8245171"><ele>173.39999999999998</ele><time>2026-05-03T06:29:34.254Z</time></trkpt><trkpt lat="38.1420204" lon="14.8245588"><ele>176.60000000000002</ele><time>2026-05-03T06:29:35.254Z</time></trkpt><trkpt lat="38.1419237" lon="14.8246233"><ele>179.8</ele><time>2026-05-03T06:29:36.254Z</time></trkpt><trkpt lat="38.1418269" lon="14.8247086"><ele>183.0</ele><time>2026-05-03T06:29:37.254Z</time></trkpt><trkpt lat="38.1417513" lon="14.8247881"><ele>183.0</ele><time>2026-05-03T06:29:38.254Z</time></trkpt><trkpt lat="38.1417033" lon="14.82488"><ele>183.0</ele><time>2026-05-03T06:29:39.254Z</time></trkpt><trkpt lat="38.1416533" lon="14.8249667"><ele>183.0</ele><time>2026-05-03T06:29:40.253Z</time></trkpt><trkpt lat="38.1416017" lon="14.8250483"><ele>183.0</ele><time>2026-05-03T06:29:41.254Z</time></trkpt><trkpt lat="38.141545" lon="14.8251217"><ele>183.0</ele><time>2026-05-03T06:29:42.254Z</time></trkpt><trkpt lat="38.1414933" lon="14.8252033"><ele>183.0</ele><time>2026-05-03T06:29:43.254Z</time></trkpt><trkpt lat="38.1414533" lon="14.8252833"><ele>181.16666666666666</ele><time>2026-05-03T06:29:44.254Z</time></trkpt><trkpt lat="38.141425" lon="14.825365"><ele>179.33333333333334</ele><time>2026-05-03T06:29:45.254Z</time></trkpt><trkpt lat="38.1414117" lon="14.8254717"><ele>177.5</ele><time>2026-05-03T06:29:46.254Z</time></trkpt><trkpt lat="38.141415" lon="14.8255883"><ele>175.66666666666669</ele><time>2026-05-03T06:29:47.254Z</time></trkpt><trkpt lat="38.1414267" lon="14.8257"><ele>173.83333333333334</ele><time>2026-05-03T06:29:48.254Z</time></trkpt><trkpt lat="38.1414233" lon="14.8257917"><ele>172.0</ele><time>2026-05-03T06:29:49.253Z</time></trkpt><trkpt lat="38.1414083" lon="14.8258767"><ele>172.0</ele><time>2026-05-03T06:29:50.254Z</time></trkpt><trkpt lat="38.1413917" lon="14.8259667"><ele>172.0</ele><time>2026-05-03T06:29:51.254Z</time></trkpt><trkpt lat="38.14138" lon="14.82608"><ele>172.0</ele><time>2026-05-03T06:29:52.254Z</time></trkpt><trkpt lat="38.1413833" lon="14.8262017"><ele>172.0</ele><time>2026-05-03T06:29:53.254Z</time></trkpt><trkpt lat="38.141385" lon="14.8263233"><ele>172.0</ele><time>2026-05-03T06:29:54.254Z</time></trkpt><trkpt lat="38.141375" lon="14.8264383"><ele>172.0</ele><time>2026-05-03T06:29:55.254Z</time></trkpt><trkpt lat="38.1413767" lon="14.82655"><ele>174.33333333333334</ele><time>2026-05-03T06:29:56.254Z</time></trkpt><trkpt lat="38.14138" lon="14.8266533"><ele>176.66666666666669</ele><time>2026-05-03T06:29:57.254Z</time></trkpt><trkpt lat="38.1413783" lon="14.8267417"><ele>179.0</ele><time>2026-05-03T06:29:58.254Z</time></trkpt><trkpt lat="38.1413717" lon="14.8268983"><ele>181.33333333333334</ele><time>2026-05-03T06:30:00.254Z</time></trkpt><trkpt lat="38.14137" lon="14.8269833"><ele>183.66666666666666</ele><time>2026-05-03T06:30:01.254Z</time></trkpt><trkpt lat="38.1414" lon="14.8271067"><ele>186.0</ele><time>2026-05-03T06:30:03.254Z</time></trkpt><trkpt lat="38.1414067" lon="14.827215"><ele>187.83333333333334</ele><time>2026-05-03T06:30:05.253Z</time></trkpt><trkpt lat="38.141365" lon="14.827285"><ele>189.66666666666669</ele><time>2026-05-03T06:30:07.255Z</time></trkpt><trkpt lat="38.141295" lon="14.8272833"><ele>191.5</ele><time>2026-05-03T06:30:09.254Z</time></trkpt><trkpt lat="38.14123" lon="14.8272667"><ele>193.33333333333334</ele><time>2026-05-03T06:30:11.255Z</time></trkpt><trkpt lat="38.1411317" lon="14.8272467"><ele>195.16666666666669</ele><time>2026-05-03T06:30:14.254Z</time></trkpt><trkpt lat="38.1410683" lon="14.827245"><ele>197.0</ele><time>2026-05-03T06:30:16.255Z</time></trkpt><trkpt lat="38.1410133" lon="14.8273217"><ele>197.0</ele><time>2026-05-03T06:30:18.254Z</time></trkpt><trkpt lat="38.1409783" lon="14.8274433"><ele>197.0</ele><time>2026-05-03T06:30:20.255Z</time></trkpt><trkpt lat="38.1409333" lon="14.8275817"><ele>197.0</ele><time>2026-05-03T06:30:22.255Z</time></trkpt><trkpt lat="38.1408917" lon="14.8277233"><ele>197.0</ele><time>2026-05-03T06:30:24.255Z</time></trkpt><trkpt lat="38.14087" lon="14.827805"><ele>197.0</ele><time>2026-05-03T06:30:25.255Z</time></trkpt><trkpt lat="38.1408483" lon="14.8278983"><ele>196.50000000000003</ele><time>2026-05-03T06:30:26.255Z</time></trkpt><trkpt lat="38.1408167" lon="14.8279883"><ele>196.0</ele><time>2026-05-03T06:30:27.255Z</time></trkpt><trkpt lat="38.1407783" lon="14.8280617"><ele>195.5</ele><time>2026-05-03T06:30:28.255Z</time></trkpt><trkpt lat="38.140725" lon="14.8281417"><ele>195.0</ele><time>2026-05-03T06:30:29.255Z</time></trkpt><trkpt lat="38.1406367" lon="14.8281983"><ele>194.50000000000003</ele><time>2026-05-03T06:30:30.255Z</time></trkpt><trkpt lat="38.14056" lon="14.8282483"><ele>194.0</ele><time>2026-05-03T06:30:31.254Z</time></trkpt><trkpt lat="38.1404967" lon="14.828265"><ele>194.00000000000003</ele><time>2026-05-03T06:30:32.255Z</time></trkpt><trkpt lat="38.140405" lon="14.82826"><ele>194.0</ele><time>2026-05-03T06:30:34.254Z</time></trkpt><trkpt lat="38.140325" lon="14.82826"><ele>194.0</ele><time>2026-05-03T06:30:36.255Z</time></trkpt><trkpt lat="38.1402483" lon="14.8283017"><ele>194.0</ele><time>2026-05-03T06:30:38.255Z</time></trkpt><trkpt lat="38.1401583" lon="14.8283533"><ele>194.00000000000003</ele><time>2026-05-03T06:30:40.254Z</time></trkpt><trkpt lat="38.1400983" lon="14.8282933"><ele>194.0</ele><time>2026-05-03T06:30:43.255Z</time></trkpt><trkpt lat="38.1402083" lon="14.8281617"><ele>194.00000000000003</ele><time>2026-05-03T06:30:45.255Z</time></trkpt><trkpt lat="38.1402833" lon="14.82812"><ele>194.0</ele><time>2026-05-03T06:30:46.255Z</time></trkpt><trkpt lat="38.1403533" lon="14.82805"><ele>194.0</ele><time>2026-05-03T06:30:48.255Z</time></trkpt><trkpt lat="38.1402733" lon="14.8279883"><ele>194.0</ele><time>2026-05-03T06:30:51.255Z</time></trkpt><trkpt lat="38.1402017" lon="14.8280167"><ele>194.00000000000003</ele><time>2026-05-03T06:30:52.255Z</time></trkpt><trkpt lat="38.140115" lon="14.8280567"><ele>194.0</ele><time>2026-05-03T06:30:53.255Z</time></trkpt><trkpt lat="38.1400133" lon="14.8281"><ele>194.00000000000003</ele><time>2026-05-03T06:30:54.255Z</time></trkpt><trkpt lat="38.1399133" lon="14.8281383"><ele>194.0</ele><time>2026-05-03T06:30:55.255Z</time></trkpt><trkpt lat="38.1398383" lon="14.82816"><ele>194.0</ele><time>2026-05-03T06:30:56.255Z</time></trkpt><trkpt lat="38.139765" lon="14.828145"><ele>194.0</ele><time>2026-05-03T06:30:57.255Z</time></trkpt><trkpt lat="38.1396967" lon="14.828115"><ele>194.00000000000003</ele><time>2026-05-03T06:30:58.255Z</time></trkpt><trkpt lat="38.13962" lon="14.8280817"><ele>194.0</ele><time>2026-05-03T06:30:59.255Z</time></trkpt><trkpt lat="38.1395483" lon="14.8280617"><ele>195.16666666666669</ele><time>2026-05-03T06:31:00.255Z</time></trkpt><trkpt lat="38.13947" lon="14.8280767"><ele>196.33333333333334</ele><time>2026-05-03T06:31:01.255Z</time></trkpt><trkpt lat="38.1393967" lon="14.82809"><ele>197.5</ele><time>2026-05-03T06:31:02.255Z</time></trkpt><trkpt lat="38.1393017" lon="14.8280633"><ele>198.66666666666669</ele><time>2026-05-03T06:31:04.254Z</time></trkpt><trkpt lat="38.13927" lon="14.8279567"><ele>199.83333333333334</ele><time>2026-05-03T06:31:06.254Z</time></trkpt><trkpt lat="38.1392717" lon="14.8278617"><ele>201.0</ele><time>2026-05-03T06:31:07.255Z</time></trkpt><trkpt lat="38.139285" lon="14.8277117"><ele>198.75</ele><time>2026-05-03T06:31:08.255Z</time></trkpt><trkpt lat="38.13928" lon="14.8275467"><ele>196.5</ele><time>2026-05-03T06:31:09.255Z</time></trkpt><trkpt lat="38.139245" lon="14.827425"><ele>194.25</ele><time>2026-05-03T06:31:10.255Z</time></trkpt><trkpt lat="38.1392317" lon="14.8272867"><ele>192.0</ele><time>2026-05-03T06:31:11.255Z</time></trkpt><trkpt lat="38.1392383" lon="14.8271433"><ele>192.0</ele><time>2026-05-03T06:31:12.255Z</time></trkpt><trkpt lat="38.1392533" lon="14.8270083"><ele>192.0</ele><time>2026-05-03T06:31:13.255Z</time></trkpt><trkpt lat="38.1392667" lon="14.826895"><ele>192.0</ele><time>2026-05-03T06:31:14.255Z</time></trkpt><trkpt lat="38.1392633" lon="14.8268017"><ele>192.0</ele><time>2026-05-03T06:31:15.255Z</time></trkpt><trkpt lat="38.13923" lon="14.8267183"><ele>192.0</ele><time>2026-05-03T06:31:16.255Z</time></trkpt><trkpt lat="38.13917" lon="14.826645"><ele>192.0</ele><time>2026-05-03T06:31:17.255Z</time></trkpt><trkpt lat="38.1390767" lon="14.826585"><ele>193.75</ele><time>2026-05-03T06:31:18.255Z</time></trkpt><trkpt lat="38.1389667" lon="14.8265333"><ele>195.5</ele><time>2026-05-03T06:31:19.255Z</time></trkpt><trkpt lat="38.1388633" lon="14.8264567"><ele>197.25</ele><time>2026-05-03T06:31:20.255Z</time></trkpt><trkpt lat="38.1387667" lon="14.8263817"><ele>199.0</ele><time>2026-05-03T06:31:21.254Z</time></trkpt><trkpt lat="38.1386817" lon="14.8263133"><ele>198.99999999999997</ele><time>2026-05-03T06:31:22.254Z</time></trkpt><trkpt lat="38.1386017" lon="14.8262517"><ele>199.0</ele><time>2026-05-03T06:31:23.255Z</time></trkpt><trkpt lat="38.1385183" lon="14.8261933"><ele>199.0</ele><time>2026-05-03T06:31:24.255Z</time></trkpt><trkpt lat="38.138435" lon="14.82615"><ele>199.0</ele><time>2026-05-03T06:31:25.255Z</time></trkpt><trkpt lat="38.1383533" lon="14.8261267"><ele>198.99999999999997</ele><time>2026-05-03T06:31:26.254Z</time></trkpt><trkpt lat="38.138275" lon="14.8261183"><ele>199.0</ele><time>2026-05-03T06:31:27.255Z</time></trkpt><trkpt lat="38.1381633" lon="14.8260817"><ele>198.79999999999998</ele><time>2026-05-03T06:31:29.255Z</time></trkpt><trkpt lat="38.138135" lon="14.8259683"><ele>198.6</ele><time>2026-05-03T06:31:31.255Z</time></trkpt><trkpt lat="38.1381533" lon="14.8258783"><ele>198.4</ele><time>2026-05-03T06:31:32.255Z</time></trkpt><trkpt lat="38.1381833" lon="14.8257583"><ele>198.2</ele><time>2026-05-03T06:31:33.255Z</time></trkpt><trkpt lat="38.1382133" lon="14.825635"><ele>198.0</ele><time>2026-05-03T06:31:34.255Z</time></trkpt><trkpt lat="38.1382317" lon="14.8255233"><ele>197.33333333333334</ele><time>2026-05-03T06:31:35.255Z</time></trkpt><trkpt lat="38.1382417" lon="14.8254283"><ele>196.66666666666669</ele><time>2026-05-03T06:31:36.255Z</time></trkpt><trkpt lat="38.13824" lon="14.82534"><ele>196.0</ele><time>2026-05-03T06:31:37.255Z</time></trkpt><trkpt lat="38.1382283" lon="14.825225"><ele>195.33333333333334</ele><time>2026-05-03T06:31:38.255Z</time></trkpt><trkpt lat="38.138215" lon="14.825115"><ele>194.66666666666669</ele><time>2026-05-03T06:31:39.255Z</time></trkpt><trkpt lat="38.1382117" lon="14.8250067"><ele>194.0</ele><time>2026-05-03T06:31:40.255Z</time></trkpt><trkpt lat="38.138225" lon="14.824865"><ele>187.0</ele><time>2026-05-03T06:31:41.255Z</time></trkpt><trkpt lat="38.138255" lon="14.8246967"><ele>180.0</ele><time>2026-05-03T06:31:42.255Z</time></trkpt><trkpt lat="38.138295" lon="14.8245433"><ele>173.0</ele><time>2026-05-03T06:31:43.255Z</time></trkpt><trkpt lat="38.1383333" lon="14.8244033"><ele>166.0</ele><time>2026-05-03T06:31:44.255Z</time></trkpt><trkpt lat="38.1383667" lon="14.8242667"><ele>165.33333333333334</ele><time>2026-05-03T06:31:45.255Z</time></trkpt><trkpt lat="38.1384067" lon="14.8241483"><ele>164.66666666666669</ele><time>2026-05-03T06:31:46.255Z</time></trkpt><trkpt lat="38.1384317" lon="14.8240367"><ele>164.0</ele><time>2026-05-03T06:31:47.255Z</time></trkpt><trkpt lat="38.13845" lon="14.8239283"><ele>163.33333333333334</ele><time>2026-05-03T06:31:48.255Z</time></trkpt><trkpt lat="38.1384517" lon="14.8238217"><ele>162.66666666666666</ele><time>2026-05-03T06:31:49.255Z</time></trkpt><trkpt lat="38.1384417" lon="14.823725"><ele>162.0</ele><time>2026-05-03T06:31:50.255Z</time></trkpt><trkpt lat="38.1384117" lon="14.8236367"><ele>162.0</ele><time>2026-05-03T06:31:51.255Z</time></trkpt><trkpt lat="38.13837" lon="14.8235617"><ele>162.0</ele><time>2026-05-03T06:31:52.255Z</time></trkpt><trkpt lat="38.1383183" lon="14.8235033"><ele>162.0</ele><time>2026-05-03T06:31:53.255Z</time></trkpt><trkpt lat="38.13827" lon="14.8234417"><ele>162.0</ele><time>2026-05-03T06:31:54.254Z</time></trkpt><trkpt lat="38.1382283" lon="14.8233717"><ele>162.0</ele><time>2026-05-03T06:31:55.255Z</time></trkpt><trkpt lat="38.1381933" lon="14.82329"><ele>162.0</ele><time>2026-05-03T06:31:56.255Z</time></trkpt><trkpt lat="38.138155" lon="14.8231933"><ele>162.0</ele><time>2026-05-03T06:31:57.255Z</time></trkpt><trkpt lat="38.1381033" lon="14.8230967"><ele>163.5</ele><time>2026-05-03T06:31:58.254Z</time></trkpt><trkpt lat="38.1380467" lon="14.8230117"><ele>165.0</ele><time>2026-05-03T06:31:59.255Z</time></trkpt><trkpt lat="38.1379867" lon="14.82294"><ele>166.5</ele><time>2026-05-03T06:32:00.255Z</time></trkpt><trkpt lat="38.1379283" lon="14.8228733"><ele>168.0</ele><time>2026-05-03T06:32:01.255Z</time></trkpt><trkpt lat="38.137875" lon="14.822795"><ele>169.5</ele><time>2026-05-03T06:32:02.255Z</time></trkpt><trkpt lat="38.1378333" lon="14.82271"><ele>171.0</ele><time>2026-05-03T06:32:03.255Z</time></trkpt><trkpt lat="38.137785" lon="14.822635"><ele>167.5</ele><time>2026-05-03T06:32:04.254Z</time></trkpt><trkpt lat="38.1377317" lon="14.8225683"><ele>164.0</ele><time>2026-05-03T06:32:05.255Z</time></trkpt><trkpt lat="38.1376717" lon="14.8225067"><ele>160.5</ele><time>2026-05-03T06:32:06.254Z</time></trkpt><trkpt lat="38.1375867" lon="14.8224067"><ele>157.0</ele><time>2026-05-03T06:32:08.254Z</time></trkpt><trkpt lat="38.1375683" lon="14.8223183"><ele>153.5</ele><time>2026-05-03T06:32:10.255Z</time></trkpt><trkpt lat="38.1375433" lon="14.82221"><ele>150.0</ele><time>2026-05-03T06:32:12.255Z</time></trkpt><trkpt lat="38.13751" lon="14.822085"><ele>150.0</ele><time>2026-05-03T06:32:14.255Z</time></trkpt><trkpt lat="38.1375117" lon="14.8219833"><ele>150.0</ele><time>2026-05-03T06:32:15.255Z</time></trkpt><trkpt lat="38.1375117" lon="14.821875"><ele>150.0</ele><time>2026-05-03T06:32:16.255Z</time></trkpt><trkpt lat="38.13751" lon="14.8217717"><ele>150.0</ele><time>2026-05-03T06:32:17.255Z</time></trkpt><trkpt lat="38.137495" lon="14.82168"><ele>150.0</ele><time>2026-05-03T06:32:18.255Z</time></trkpt><trkpt lat="38.1374567" lon="14.8215617"><ele>150.0</ele><time>2026-05-03T06:32:20.255Z</time></trkpt><trkpt lat="38.13741" lon="14.8216433"><ele>150.0</ele><time>2026-05-03T06:32:25.255Z</time></trkpt><trkpt lat="38.137425" lon="14.821775"><ele>150.0</ele><time>2026-05-03T06:32:27.255Z</time></trkpt><trkpt lat="38.1374233" lon="14.82186"><ele>150.0</ele><time>2026-05-03T06:32:28.255Z</time></trkpt><trkpt lat="38.13741" lon="14.8219567"><ele>150.0</ele><time>2026-05-03T06:32:29.254Z</time></trkpt><trkpt lat="38.13738" lon="14.8220717"><ele>150.0</ele><time>2026-05-03T06:32:30.255Z</time></trkpt><trkpt lat="38.1373483" lon="14.8221833"><ele>150.0</ele><time>2026-05-03T06:32:31.255Z</time></trkpt><trkpt lat="38.1373217" lon="14.82229"><ele>151.33333333333334</ele><time>2026-05-03T06:32:32.255Z</time></trkpt><trkpt lat="38.1373033" lon="14.8224067"><ele>152.66666666666666</ele><time>2026-05-03T06:32:33.255Z</time></trkpt><trkpt lat="38.1373" lon="14.822525"><ele>154.0</ele><time>2026-05-03T06:32:34.255Z</time></trkpt><trkpt lat="38.1373" lon="14.8226433"><ele>155.33333333333331</ele><time>2026-05-03T06:32:35.255Z</time></trkpt><trkpt lat="38.1373033" lon="14.8227433"><ele>156.66666666666666</ele><time>2026-05-03T06:32:36.254Z</time></trkpt><trkpt lat="38.1373167" lon="14.8228367"><ele>158.0</ele><time>2026-05-03T06:32:37.255Z</time></trkpt><trkpt lat="38.1373367" lon="14.8229167"><ele>158.0</ele><time>2026-05-03T06:32:38.255Z</time></trkpt><trkpt lat="38.13737" lon="14.822995"><ele>158.0</ele><time>2026-05-03T06:32:39.255Z</time></trkpt><trkpt lat="38.1374133" lon="14.8231317"><ele>158.0</ele><time>2026-05-03T06:32:41.255Z</time></trkpt><trkpt lat="38.1374417" lon="14.8232967"><ele>158.0</ele><time>2026-05-03T06:32:43.255Z</time></trkpt><trkpt lat="38.137465" lon="14.82344"><ele>158.0</ele><time>2026-05-03T06:32:45.255Z</time></trkpt><trkpt lat="38.13748" lon="14.8236"><ele>165.75</ele><time>2026-05-03T06:32:47.255Z</time></trkpt><trkpt lat="38.137485" lon="14.82375"><ele>173.5</ele><time>2026-05-03T06:32:49.255Z</time></trkpt><trkpt lat="38.137495" lon="14.8238933"><ele>181.25</ele><time>2026-05-03T06:32:51.254Z</time></trkpt><trkpt lat="38.13746" lon="14.8240433"><ele>189.0</ele><time>2026-05-03T06:32:53.255Z</time></trkpt><trkpt lat="38.1374067" lon="14.8241767"><ele>188.33333333333334</ele><time>2026-05-03T06:32:55.255Z</time></trkpt><trkpt lat="38.1373698" lon="14.8242956"><ele>187.66666666666666</ele><time>2026-05-03T06:33:06.255Z</time></trkpt><trkpt lat="38.1373596" lon="14.8243831"><ele>187.0</ele><time>2026-05-03T06:33:07.255Z</time></trkpt><trkpt lat="38.1373602" lon="14.8244855"><ele>186.33333333333331</ele><time>2026-05-03T06:33:08.255Z</time></trkpt><trkpt lat="38.137376" lon="14.8245833"><ele>185.66666666666666</ele><time>2026-05-03T06:33:09.255Z</time></trkpt><trkpt lat="38.1374047" lon="14.8246739"><ele>185.0</ele><time>2026-05-03T06:33:10.255Z</time></trkpt><trkpt lat="38.1374365" lon="14.8247581"><ele>185.0</ele><time>2026-05-03T06:33:11.255Z</time></trkpt><trkpt lat="38.1374606" lon="14.8248348"><ele>185.0</ele><time>2026-05-03T06:33:12.255Z</time></trkpt><trkpt lat="38.1374404" lon="14.8249678"><ele>185.0</ele><time>2026-05-03T06:33:14.255Z</time></trkpt><trkpt lat="38.1373957" lon="14.8250461"><ele>185.0</ele><time>2026-05-03T06:33:15.255Z</time></trkpt><trkpt lat="38.1373418" lon="14.8251296"><ele>185.0</ele><time>2026-05-03T06:33:16.255Z</time></trkpt><trkpt lat="38.1372869" lon="14.8252124"><ele>185.0</ele><time>2026-05-03T06:33:17.255Z</time></trkpt><trkpt lat="38.137235" lon="14.8252933"><ele>187.66666666666666</ele><time>2026-05-03T06:33:18.255Z</time></trkpt><trkpt lat="38.1371933" lon="14.8253617"><ele>190.33333333333331</ele><time>2026-05-03T06:33:19.255Z</time></trkpt><trkpt lat="38.1371533" lon="14.8254317"><ele>193.0</ele><time>2026-05-03T06:33:20.255Z</time></trkpt><trkpt lat="38.1370933" lon="14.8255533"><ele>195.66666666666666</ele><time>2026-05-03T06:33:22.255Z</time></trkpt><trkpt lat="38.1370417" lon="14.8256483"><ele>198.33333333333334</ele><time>2026-05-03T06:33:24.255Z</time></trkpt><trkpt lat="38.137005" lon="14.8257533"><ele>201.0</ele><time>2026-05-03T06:33:26.255Z</time></trkpt><trkpt lat="38.1369517" lon="14.82587"><ele>204.8</ele><time>2026-05-03T06:33:28.254Z</time></trkpt><trkpt lat="38.1369" lon="14.8260083"><ele>208.60000000000002</ele><time>2026-05-03T06:33:30.255Z</time></trkpt><trkpt lat="38.13688" lon="14.8261683"><ele>212.4</ele><time>2026-05-03T06:33:32.255Z</time></trkpt><trkpt lat="38.1368683" lon="14.8262517"><ele>216.2</ele><time>2026-05-03T06:33:33.255Z</time></trkpt><trkpt lat="38.1368417" lon="14.8263933"><ele>220.0</ele><time>2026-05-03T06:33:35.255Z</time></trkpt><trkpt lat="38.136795" lon="14.8265333"><ele>220.0</ele><time>2026-05-03T06:33:37.255Z</time></trkpt><trkpt lat="38.136735" lon="14.8266633"><ele>220.0</ele><time>2026-05-03T06:33:39.255Z</time></trkpt><trkpt lat="38.1367433" lon="14.8267917"><ele>220.0</ele><time>2026-05-03T06:33:41.255Z</time></trkpt><trkpt lat="38.136795" lon="14.8269117"><ele>220.0</ele><time>2026-05-03T06:33:43.255Z</time></trkpt><trkpt lat="38.136805" lon="14.8269933"><ele>220.0</ele><time>2026-05-03T06:33:45.255Z</time></trkpt><trkpt lat="38.1367383" lon="14.8270017"><ele>223.4</ele><time>2026-05-03T06:33:47.255Z</time></trkpt><trkpt lat="38.1366733" lon="14.8269967"><ele>226.8</ele><time>2026-05-03T06:33:48.255Z</time></trkpt><trkpt lat="38.1365667" lon="14.8270467"><ele>230.2</ele><time>2026-05-03T06:33:50.255Z</time></trkpt><trkpt lat="38.1364867" lon="14.8271467"><ele>233.6</ele><time>2026-05-03T06:33:52.255Z</time></trkpt><trkpt lat="38.1364483" lon="14.827215"><ele>237.0</ele><time>2026-05-03T06:33:53.254Z</time></trkpt><trkpt lat="38.136415" lon="14.82737"><ele>237.0</ele><time>2026-05-03T06:33:55.255Z</time></trkpt><trkpt lat="38.13641" lon="14.8275167"><ele>237.0</ele><time>2026-05-03T06:33:57.255Z</time></trkpt><trkpt lat="38.1363867" lon="14.8276283"><ele>237.0</ele><time>2026-05-03T06:33:59.255Z</time></trkpt><trkpt lat="38.1364217" lon="14.8277417"><ele>237.0</ele><time>2026-05-03T06:34:02.254Z</time></trkpt><trkpt lat="38.1364833" lon="14.827855"><ele>237.0</ele><time>2026-05-03T06:34:04.255Z</time></trkpt><trkpt lat="38.1365217" lon="14.8279383"><ele>242.2</ele><time>2026-05-03T06:34:05.255Z</time></trkpt><trkpt lat="38.1365533" lon="14.8280667"><ele>247.39999999999998</ele><time>2026-05-03T06:34:06.255Z</time></trkpt><trkpt lat="38.1365767" lon="14.8281883"><ele>252.60000000000002</ele><time>2026-05-03T06:34:07.255Z</time></trkpt><trkpt lat="38.1365967" lon="14.8283067"><ele>257.8</ele><time>2026-05-03T06:34:08.255Z</time></trkpt><trkpt lat="38.13661" lon="14.828405"><ele>263.0</ele><time>2026-05-03T06:34:09.255Z</time></trkpt><trkpt lat="38.1366333" lon="14.8284983"><ele>266.33333333333337</ele><time>2026-05-03T06:34:10.255Z</time></trkpt><trkpt lat="38.1366717" lon="14.82858"><ele>269.6666666666667</ele><time>2026-05-03T06:34:11.255Z</time></trkpt><trkpt lat="38.136715" lon="14.8286517"><ele>273.0</ele><time>2026-05-03T06:34:12.255Z</time></trkpt><trkpt lat="38.136755" lon="14.8287217"><ele>276.3333333333333</ele><time>2026-05-03T06:34:13.255Z</time></trkpt><trkpt lat="38.136803" lon="14.8287918"><ele>279.66666666666663</ele><time>2026-05-03T06:34:14.255Z</time></trkpt><trkpt lat="38.1368522" lon="14.8288491"><ele>283.0</ele><time>2026-05-03T06:34:15.255Z</time></trkpt><trkpt lat="38.1369116" lon="14.8289447"><ele>283.0</ele><time>2026-05-03T06:34:17.255Z</time></trkpt><trkpt lat="38.1369781" lon="14.8290166"><ele>283.0</ele><time>2026-05-03T06:34:19.255Z</time></trkpt><trkpt lat="38.1370017" lon="14.8291008"><ele>283.0</ele><time>2026-05-03T06:34:23.255Z</time></trkpt><trkpt lat="38.1369369" lon="14.8291288"><ele>283.0</ele><time>2026-05-03T06:34:25.254Z</time></trkpt><trkpt lat="38.1368478" lon="14.8291105"><ele>283.0</ele><time>2026-05-03T06:34:27.255Z</time></trkpt><trkpt lat="38.1367786" lon="14.8291413"><ele>283.0</ele><time>2026-05-03T06:34:29.255Z</time></trkpt><trkpt lat="38.1368099" lon="14.8292329"><ele>283.0</ele><time>2026-05-03T06:34:31.255Z</time></trkpt><trkpt lat="38.1368671" lon="14.8292937"><ele>283.0</ele><time>2026-05-03T06:34:32.255Z</time></trkpt><trkpt lat="38.1369372" lon="14.8293372"><ele>283.0</ele><time>2026-05-03T06:34:33.255Z</time></trkpt><trkpt lat="38.1370126" lon="14.8293577"><ele>283.0</ele><time>2026-05-03T06:34:34.255Z</time></trkpt><trkpt lat="38.1370882" lon="14.8293594"><ele>283.0</ele><time>2026-05-03T06:34:35.255Z</time></trkpt><trkpt lat="38.1371522" lon="14.8293544"><ele>283.0</ele><time>2026-05-03T06:34:36.255Z</time></trkpt><trkpt lat="38.1372442" lon="14.8293593"><ele>287.8333333333333</ele><time>2026-05-03T06:34:38.255Z</time></trkpt><trkpt lat="38.1372944" lon="14.8294294"><ele>292.66666666666663</ele><time>2026-05-03T06:34:41.255Z</time></trkpt><trkpt lat="38.1372047" lon="14.8294799"><ele>297.5</ele><time>2026-05-03T06:34:44.254Z</time></trkpt><trkpt lat="38.1371412" lon="14.8294787"><ele>302.3333333333333</ele><time>2026-05-03T06:34:45.255Z</time></trkpt><trkpt lat="38.1370467" lon="14.8294789"><ele>307.1666666666667</ele><time>2026-05-03T06:34:46.255Z</time></trkpt><trkpt lat="38.1369488" lon="14.8294756"><ele>312.0</ele><time>2026-05-03T06:34:47.255Z</time></trkpt><trkpt lat="38.1368626" lon="14.8294623"><ele>312.0</ele><time>2026-05-03T06:34:48.255Z</time></trkpt><trkpt lat="38.1367845" lon="14.8294353"><ele>312.0</ele><time>2026-05-03T06:34:49.255Z</time></trkpt><trkpt lat="38.1367065" lon="14.829398"><ele>312.0</ele><time>2026-05-03T06:34:50.255Z</time></trkpt><trkpt lat="38.1366244" lon="14.8293501"><ele>312.0</ele><time>2026-05-03T06:34:51.255Z</time></trkpt><trkpt lat="38.1365357" lon="14.8292738"><ele>312.0</ele><time>2026-05-03T06:34:52.254Z</time></trkpt><trkpt lat="38.1364472" lon="14.8291849"><ele>310.0</ele><time>2026-05-03T06:34:53.255Z</time></trkpt><trkpt lat="38.1363795" lon="14.8290944"><ele>308.0</ele><time>2026-05-03T06:34:54.255Z</time></trkpt><trkpt lat="38.136331" lon="14.8290071"><ele>306.0</ele><time>2026-05-03T06:34:55.255Z</time></trkpt><trkpt lat="38.1362996" lon="14.8289346"><ele>304.0</ele><time>2026-05-03T06:34:56.255Z</time></trkpt><trkpt lat="38.1362477" lon="14.8288428"><ele>302.0</ele><time>2026-05-03T06:34:58.255Z</time></trkpt><trkpt lat="38.1361844" lon="14.8288371"><ele>300.0</ele><time>2026-05-03T06:35:01.255Z</time></trkpt><trkpt lat="38.1362567" lon="14.8289783"><ele>300.0</ele><time>2026-05-03T06:35:03.255Z</time></trkpt><trkpt lat="38.1363183" lon="14.8290817"><ele>300.0</ele><time>2026-05-03T06:35:04.254Z</time></trkpt><trkpt lat="38.136395" lon="14.8292067"><ele>300.0</ele><time>2026-05-03T06:35:05.255Z</time></trkpt><trkpt lat="38.1364767" lon="14.82935"><ele>300.0</ele><time>2026-05-03T06:35:06.255Z</time></trkpt><trkpt lat="38.1365683" lon="14.8294883"><ele>302.4</ele><time>2026-05-03T06:35:07.255Z</time></trkpt><trkpt lat="38.136655" lon="14.82961"><ele>304.8</ele><time>2026-05-03T06:35:08.255Z</time></trkpt><trkpt lat="38.1367317" lon="14.8296933"><ele>307.2</ele><time>2026-05-03T06:35:09.255Z</time></trkpt><trkpt lat="38.1368183" lon="14.8297267"><ele>309.6</ele><time>2026-05-03T06:35:10.254Z</time></trkpt><trkpt lat="38.1369033" lon="14.8297617"><ele>312.0</ele><time>2026-05-03T06:35:11.255Z</time></trkpt><trkpt lat="38.1369617" lon="14.8298"><ele>312.0</ele><time>2026-05-03T06:35:12.255Z</time></trkpt><trkpt lat="38.1370083" lon="14.8298567"><ele>312.0</ele><time>2026-05-03T06:35:13.254Z</time></trkpt><trkpt lat="38.1370517" lon="14.8299467"><ele>312.0</ele><time>2026-05-03T06:35:14.255Z</time></trkpt><trkpt lat="38.137105" lon="14.8300683"><ele>312.0</ele><time>2026-05-03T06:35:15.255Z</time></trkpt><trkpt lat="38.1371767" lon="14.8302133"><ele>312.0</ele><time>2026-05-03T06:35:16.255Z</time></trkpt><trkpt lat="38.137245" lon="14.8303583"><ele>307.25</ele><time>2026-05-03T06:35:17.255Z</time></trkpt><trkpt lat="38.1373033" lon="14.83049"><ele>302.5</ele><time>2026-05-03T06:35:18.255Z</time></trkpt><trkpt lat="38.1373467" lon="14.8306367"><ele>297.75</ele><time>2026-05-03T06:35:19.255Z</time></trkpt><trkpt lat="38.1373933" lon="14.830785"><ele>293.0</ele><time>2026-05-03T06:35:20.255Z</time></trkpt><trkpt lat="38.1374367" lon="14.8309217"><ele>296.4</ele><time>2026-05-03T06:35:21.255Z</time></trkpt><trkpt lat="38.1374683" lon="14.8310483"><ele>299.8</ele><time>2026-05-03T06:35:22.255Z</time></trkpt><trkpt lat="38.137485" lon="14.831165"><ele>303.2</ele><time>2026-05-03T06:35:23.255Z</time></trkpt><trkpt lat="38.1375133" lon="14.8312967"><ele>306.6</ele><time>2026-05-03T06:35:24.255Z</time></trkpt><trkpt lat="38.1375633" lon="14.831445"><ele>310.0</ele><time>2026-05-03T06:35:25.255Z</time></trkpt><trkpt lat="38.13763" lon="14.831595"><ele>310.0</ele><time>2026-05-03T06:35:26.255Z</time></trkpt><trkpt lat="38.1376917" lon="14.83173"><ele>310.0</ele><time>2026-05-03T06:35:27.255Z</time></trkpt><trkpt lat="38.1377417" lon="14.8318467"><ele>310.0</ele><time>2026-05-03T06:35:28.255Z</time></trkpt><trkpt lat="38.1377883" lon="14.8319467"><ele>310.0</ele><time>2026-05-03T06:35:29.255Z</time></trkpt><trkpt lat="38.1378067" lon="14.8320333"><ele>310.0</ele><time>2026-05-03T06:35:30.255Z</time></trkpt><trkpt lat="38.1378783" lon="14.8320867"><ele>312.16666666666663</ele><time>2026-05-03T06:35:31.255Z</time></trkpt><trkpt lat="38.137955" lon="14.832115"><ele>314.3333333333333</ele><time>2026-05-03T06:35:32.255Z</time></trkpt><trkpt lat="38.13802" lon="14.832135"><ele>316.5</ele><time>2026-05-03T06:35:33.255Z</time></trkpt><trkpt lat="38.1381233" lon="14.8321317"><ele>318.6666666666667</ele><time>2026-05-03T06:35:35.255Z</time></trkpt><trkpt lat="38.13813" lon="14.8320517"><ele>320.83333333333337</ele><time>2026-05-03T06:35:38.255Z</time></trkpt><trkpt lat="38.1380167" lon="14.8320467"><ele>323.0</ele><time>2026-05-03T06:35:41.254Z</time></trkpt><trkpt lat="38.1379467" lon="14.8320667"><ele>323.0</ele><time>2026-05-03T06:35:42.255Z</time></trkpt><trkpt lat="38.1378617" lon="14.8320917"><ele>323.0</ele><time>2026-05-03T06:35:43.255Z</time></trkpt><trkpt lat="38.1377767" lon="14.8321233"><ele>323.0</ele><time>2026-05-03T06:35:44.255Z</time></trkpt><trkpt lat="38.1377117" lon="14.832155"><ele>323.0</ele><time>2026-05-03T06:35:45.255Z</time></trkpt><trkpt lat="38.1376683" lon="14.8322233"><ele>323.0</ele><time>2026-05-03T06:35:47.254Z</time></trkpt><trkpt lat="38.1377667" lon="14.8322767"><ele>323.0</ele><time>2026-05-03T06:35:49.255Z</time></trkpt><trkpt lat="38.1377133" lon="14.8323883"><ele>323.0</ele><time>2026-05-03T06:35:54.255Z</time></trkpt><trkpt lat="38.1376633" lon="14.8324667"><ele>323.0</ele><time>2026-05-03T06:35:55.255Z</time></trkpt><trkpt lat="38.137625" lon="14.8325667"><ele>323.0</ele><time>2026-05-03T06:35:56.255Z</time></trkpt><trkpt lat="38.1376" lon="14.83265"><ele>323.0</ele><time>2026-05-03T06:35:57.255Z</time></trkpt><trkpt lat="38.137515" lon="14.832635"><ele>323.0</ele><time>2026-05-03T06:36:01.255Z</time></trkpt><trkpt lat="38.1374183" lon="14.8324983"><ele>332.0</ele><time>2026-05-03T06:36:03.255Z</time></trkpt><trkpt lat="38.1373767" lon="14.8324217"><ele>341.0</ele><time>2026-05-03T06:36:04.255Z</time></trkpt><trkpt lat="38.1373517" lon="14.8322967"><ele>350.0</ele><time>2026-05-03T06:36:06.256Z</time></trkpt><trkpt lat="38.1373133" lon="14.832395"><ele>359.0</ele><time>2026-05-03T06:36:12.256Z</time></trkpt><trkpt lat="38.13728" lon="14.832505"><ele>368.0</ele><time>2026-05-03T06:36:33.255Z</time></trkpt><trkpt lat="38.13725" lon="14.8325917"><ele>377.0</ele><time>2026-05-03T06:36:35.256Z</time></trkpt><trkpt lat="38.1372067" lon="14.83249"><ele>377.0</ele><time>2026-05-03T06:36:39.256Z</time></trkpt><trkpt lat="38.1372167" lon="14.8323667"><ele>377.0</ele><time>2026-05-03T06:36:41.256Z</time></trkpt><trkpt lat="38.1372233" lon="14.8322583"><ele>377.0</ele><time>2026-05-03T06:36:43.256Z</time></trkpt><trkpt lat="38.13724" lon="14.8321167"><ele>377.0</ele><time>2026-05-03T06:36:45.256Z</time></trkpt><trkpt lat="38.13724" lon="14.8319567"><ele>377.0</ele><time>2026-05-03T06:36:47.256Z</time></trkpt><trkpt lat="38.1372383" lon="14.831875"><ele>374.6</ele><time>2026-05-03T06:36:48.256Z</time></trkpt><trkpt lat="38.1372017" lon="14.83173"><ele>372.20000000000005</ele><time>2026-05-03T06:36:50.256Z</time></trkpt><trkpt lat="38.1371217" lon="14.831615"><ele>369.8</ele><time>2026-05-03T06:36:52.256Z</time></trkpt><trkpt lat="38.1370617" lon="14.831565"><ele>367.4</ele><time>2026-05-03T06:36:53.256Z</time></trkpt><trkpt lat="38.1369967" lon="14.8315"><ele>365.0</ele><time>2026-05-03T06:36:54.255Z</time></trkpt><trkpt lat="38.13691" lon="14.831425"><ele>365.0</ele><time>2026-05-03T06:36:55.256Z</time></trkpt><trkpt lat="38.1368167" lon="14.831325"><ele>365.0</ele><time>2026-05-03T06:36:56.256Z</time></trkpt><trkpt lat="38.1367167" lon="14.8312083"><ele>365.0</ele><time>2026-05-03T06:36:57.256Z</time></trkpt><trkpt lat="38.136625" lon="14.8310817"><ele>365.0</ele><time>2026-05-03T06:36:58.256Z</time></trkpt><trkpt lat="38.136545" lon="14.83096"><ele>368.2</ele><time>2026-05-03T06:36:59.255Z</time></trkpt><trkpt lat="38.1364883" lon="14.8308367"><ele>371.4</ele><time>2026-05-03T06:37:00.255Z</time></trkpt><trkpt lat="38.1364333" lon="14.83073"><ele>374.6</ele><time>2026-05-03T06:37:01.256Z</time></trkpt><trkpt lat="38.13636" lon="14.8306367"><ele>377.8</ele><time>2026-05-03T06:37:02.256Z</time></trkpt><trkpt lat="38.1362783" lon="14.830585"><ele>381.0</ele><time>2026-05-03T06:37:03.256Z</time></trkpt><trkpt lat="38.1361683" lon="14.83056"><ele>381.0</ele><time>2026-05-03T06:37:04.256Z</time></trkpt><trkpt lat="38.1360483" lon="14.8305417"><ele>381.0</ele><time>2026-05-03T06:37:05.256Z</time></trkpt><trkpt lat="38.1359267" lon="14.83051"><ele>381.0</ele><time>2026-05-03T06:37:06.256Z</time></trkpt><trkpt lat="38.13582" lon="14.8304733"><ele>381.0</ele><time>2026-05-03T06:37:07.256Z</time></trkpt><trkpt lat="38.1357283" lon="14.8304383"><ele>381.0</ele><time>2026-05-03T06:37:08.256Z</time></trkpt><trkpt lat="38.1356617" lon="14.8304033"><ele>381.0</ele><time>2026-05-03T06:37:09.256Z</time></trkpt><trkpt lat="38.1355783" lon="14.8304233"><ele>381.0</ele><time>2026-05-03T06:37:11.256Z</time></trkpt><trkpt lat="38.1356017" lon="14.830525"><ele>381.0</ele><time>2026-05-03T06:37:13.256Z</time></trkpt><trkpt lat="38.1356583" lon="14.830575"><ele>381.0</ele><time>2026-05-03T06:37:14.256Z</time></trkpt><trkpt lat="38.13576" lon="14.830635"><ele>381.0</ele><time>2026-05-03T06:37:15.256Z</time></trkpt><trkpt lat="38.1358733" lon="14.8307067"><ele>381.0</ele><time>2026-05-03T06:37:16.256Z</time></trkpt><trkpt lat="38.1359883" lon="14.83077"><ele>381.0</ele><time>2026-05-03T06:37:17.256Z</time></trkpt><trkpt lat="38.1360933" lon="14.8308533"><ele>381.0</ele><time>2026-05-03T06:37:18.256Z</time></trkpt><trkpt lat="38.1361817" lon="14.8309383"><ele>381.0</ele><time>2026-05-03T06:37:19.255Z</time></trkpt><trkpt lat="38.136245" lon="14.831055"><ele>389.75</ele><time>2026-05-03T06:37:20.255Z</time></trkpt><trkpt lat="38.1362967" lon="14.831205"><ele>398.5</ele><time>2026-05-03T06:37:21.256Z</time></trkpt><trkpt lat="38.1363517" lon="14.8313617"><ele>407.25</ele><time>2026-05-03T06:37:22.256Z</time></trkpt><trkpt lat="38.1364117" lon="14.8315083"><ele>416.0</ele><time>2026-05-03T06:37:23.256Z</time></trkpt><trkpt lat="38.1364667" lon="14.8316383"><ele>416.0</ele><time>2026-05-03T06:37:24.256Z</time></trkpt><trkpt lat="38.1365283" lon="14.8317517"><ele>416.0</ele><time>2026-05-03T06:37:25.256Z</time></trkpt><trkpt lat="38.136575" lon="14.831835"><ele>416.0</ele><time>2026-05-03T06:37:26.256Z</time></trkpt><trkpt lat="38.136605" lon="14.8319083"><ele>416.0</ele><time>2026-05-03T06:37:27.256Z</time></trkpt><trkpt lat="38.136605" lon="14.832005"><ele>416.0</ele><time>2026-05-03T06:37:29.255Z</time></trkpt><trkpt lat="38.136485" lon="14.8317917"><ele>416.0</ele><time>2026-05-03T06:37:33.256Z</time></trkpt><trkpt lat="38.1363933" lon="14.8316583"><ele>416.0</ele><time>2026-05-03T06:37:34.256Z</time></trkpt><trkpt lat="38.136275" lon="14.8315317"><ele>416.0</ele><time>2026-05-03T06:37:35.256Z</time></trkpt><trkpt lat="38.1361233" lon="14.831405"><ele>416.0</ele><time>2026-05-03T06:37:36.256Z</time></trkpt><trkpt lat="38.1359767" lon="14.8312933"><ele>416.0</ele><time>2026-05-03T06:37:37.256Z</time></trkpt><trkpt lat="38.13585" lon="14.8312167"><ele>416.0</ele><time>2026-05-03T06:37:38.255Z</time></trkpt><trkpt lat="38.1357333" lon="14.8311667"><ele>416.0</ele><time>2026-05-03T06:37:39.255Z</time></trkpt><trkpt lat="38.1356417" lon="14.831145"><ele>416.0</ele><time>2026-05-03T06:37:40.256Z</time></trkpt><trkpt lat="38.1355783" lon="14.83115"><ele>416.0</ele><time>2026-05-03T06:37:41.255Z</time></trkpt><trkpt lat="38.1356333" lon="14.83126"><ele>416.0</ele><time>2026-05-03T06:37:45.256Z</time></trkpt><trkpt lat="38.1357167" lon="14.8313"><ele>416.0</ele><time>2026-05-03T06:37:46.256Z</time></trkpt><trkpt lat="38.1358183" lon="14.83135"><ele>416.0</ele><time>2026-05-03T06:37:47.256Z</time></trkpt><trkpt lat="38.135925" lon="14.831435"><ele>416.0</ele><time>2026-05-03T06:37:48.256Z</time></trkpt><trkpt lat="38.1360167" lon="14.8315517"><ele>416.0</ele><time>2026-05-03T06:37:49.256Z</time></trkpt><trkpt lat="38.1360617" lon="14.831715"><ele>416.0</ele><time>2026-05-03T06:37:50.256Z</time></trkpt><trkpt lat="38.136105" lon="14.8318533"><ele>416.0</ele><time>2026-05-03T06:37:51.256Z</time></trkpt><trkpt lat="38.1361217" lon="14.8319733"><ele>418.0</ele><time>2026-05-03T06:37:52.256Z</time></trkpt><trkpt lat="38.1361" lon="14.8321083"><ele>420.0</ele><time>2026-05-03T06:37:53.256Z</time></trkpt><trkpt lat="38.136055" lon="14.8322483"><ele>422.0</ele><time>2026-05-03T06:37:54.256Z</time></trkpt><trkpt lat="38.1360017" lon="14.8323783"><ele>424.0</ele><time>2026-05-03T06:37:55.256Z</time></trkpt><trkpt lat="38.13593" lon="14.8324983"><ele>424.0</ele><time>2026-05-03T06:37:56.256Z</time></trkpt><trkpt lat="38.1358583" lon="14.8326117"><ele>424.0</ele><time>2026-05-03T06:37:57.256Z</time></trkpt><trkpt lat="38.135795" lon="14.8327117"><ele>424.0</ele><time>2026-05-03T06:37:58.256Z</time></trkpt><trkpt lat="38.1357417" lon="14.8328117"><ele>424.0</ele><time>2026-05-03T06:37:59.255Z</time></trkpt><trkpt lat="38.1356983" lon="14.8329183"><ele>424.0</ele><time>2026-05-03T06:38:00.256Z</time></trkpt><trkpt lat="38.1356483" lon="14.8330517"><ele>430.25</ele><time>2026-05-03T06:38:01.256Z</time></trkpt><trkpt lat="38.1355983" lon="14.83318"><ele>436.5</ele><time>2026-05-03T06:38:02.256Z</time></trkpt><trkpt lat="38.13553" lon="14.83331"><ele>442.75</ele><time>2026-05-03T06:38:03.256Z</time></trkpt><trkpt lat="38.13545" lon="14.83344"><ele>449.0</ele><time>2026-05-03T06:38:04.256Z</time></trkpt><trkpt lat="38.1353767" lon="14.8335567"><ele>449.2</ele><time>2026-05-03T06:38:05.256Z</time></trkpt><trkpt lat="38.1353017" lon="14.8336767"><ele>449.4</ele><time>2026-05-03T06:38:06.256Z</time></trkpt><trkpt lat="38.135225" lon="14.8338033"><ele>449.6</ele><time>2026-05-03T06:38:07.256Z</time></trkpt><trkpt lat="38.1351633" lon="14.8339117"><ele>449.8</ele><time>2026-05-03T06:38:08.256Z</time></trkpt><trkpt lat="38.13513" lon="14.8340183"><ele>450.0</ele><time>2026-05-03T06:38:09.256Z</time></trkpt><trkpt lat="38.1351167" lon="14.834125"><ele>450.0</ele><time>2026-05-03T06:38:10.256Z</time></trkpt><trkpt lat="38.135115" lon="14.83424"><ele>450.0</ele><time>2026-05-03T06:38:11.256Z</time></trkpt><trkpt lat="38.1351317" lon="14.834365"><ele>450.0</ele><time>2026-05-03T06:38:12.255Z</time></trkpt><trkpt lat="38.1351317" lon="14.834495"><ele>450.0</ele><time>2026-05-03T06:38:13.256Z</time></trkpt><trkpt lat="38.1351367" lon="14.8346067"><ele>450.0</ele><time>2026-05-03T06:38:14.256Z</time></trkpt><trkpt lat="38.135155" lon="14.8347017"><ele>452.6</ele><time>2026-05-03T06:38:15.256Z</time></trkpt><trkpt lat="38.135195" lon="14.83478"><ele>455.2</ele><time>2026-05-03T06:38:16.256Z</time></trkpt><trkpt lat="38.13526" lon="14.8348417"><ele>457.79999999999995</ele><time>2026-05-03T06:38:17.256Z</time></trkpt><trkpt lat="38.1353533" lon="14.834875"><ele>460.4</ele><time>2026-05-03T06:38:18.256Z</time></trkpt><trkpt lat="38.1354617" lon="14.8348817"><ele>463.0</ele><time>2026-05-03T06:38:19.256Z</time></trkpt><trkpt lat="38.1355617" lon="14.834865"><ele>463.00000000000006</ele><time>2026-05-03T06:38:20.256Z</time></trkpt><trkpt lat="38.1356483" lon="14.8348533"><ele>463.0</ele><time>2026-05-03T06:38:21.256Z</time></trkpt><trkpt lat="38.1357117" lon="14.8349083"><ele>463.0</ele><time>2026-05-03T06:38:23.256Z</time></trkpt><trkpt lat="38.135655" lon="14.8349733"><ele>463.0</ele><time>2026-05-03T06:38:25.256Z</time></trkpt><trkpt lat="38.1355783" lon="14.835005"><ele>463.00000000000006</ele><time>2026-05-03T06:38:26.256Z</time></trkpt><trkpt lat="38.1354617" lon="14.8350517"><ele>463.0</ele><time>2026-05-03T06:38:27.256Z</time></trkpt><trkpt lat="38.1353267" lon="14.8350817"><ele>463.0</ele><time>2026-05-03T06:38:28.256Z</time></trkpt><trkpt lat="38.135185" lon="14.8350633"><ele>463.0</ele><time>2026-05-03T06:38:29.255Z</time></trkpt><trkpt lat="38.13507" lon="14.8350133"><ele>463.0</ele><time>2026-05-03T06:38:30.256Z</time></trkpt><trkpt lat="38.1349917" lon="14.8349467"><ele>463.0</ele><time>2026-05-03T06:38:31.256Z</time></trkpt><trkpt lat="38.1349317" lon="14.8348467"><ele>463.0</ele><time>2026-05-03T06:38:32.256Z</time></trkpt><trkpt lat="38.134895" lon="14.8347333"><ele>462.99999999999994</ele><time>2026-05-03T06:38:33.256Z</time></trkpt><trkpt lat="38.1348767" lon="14.8346233"><ele>462.99999999999994</ele><time>2026-05-03T06:38:34.256Z</time></trkpt><trkpt lat="38.13486" lon="14.8345417"><ele>463.0</ele><time>2026-05-03T06:38:35.256Z</time></trkpt><trkpt lat="38.1348033" lon="14.8344717"><ele>463.0</ele><time>2026-05-03T06:38:37.256Z</time></trkpt><trkpt lat="38.1347867" lon="14.8346533"><ele>463.2</ele><time>2026-05-03T06:38:40.256Z</time></trkpt><trkpt lat="38.134775" lon="14.8347717"><ele>463.4</ele><time>2026-05-03T06:38:41.256Z</time></trkpt><trkpt lat="38.1347833" lon="14.834895"><ele>463.59999999999997</ele><time>2026-05-03T06:38:42.256Z</time></trkpt><trkpt lat="38.1348067" lon="14.83502"><ele>463.79999999999995</ele><time>2026-05-03T06:38:43.256Z</time></trkpt><trkpt lat="38.13485" lon="14.8351433"><ele>464.0</ele><time>2026-05-03T06:38:44.256Z</time></trkpt><trkpt lat="38.1349367" lon="14.8352633"><ele>468.75</ele><time>2026-05-03T06:38:45.256Z</time></trkpt><trkpt lat="38.1350417" lon="14.83536"><ele>473.5</ele><time>2026-05-03T06:38:46.256Z</time></trkpt><trkpt lat="38.1351767" lon="14.8354183"><ele>478.25</ele><time>2026-05-03T06:38:47.256Z</time></trkpt><trkpt lat="38.13531" lon="14.8354433"><ele>483.0</ele><time>2026-05-03T06:38:48.256Z</time></trkpt><trkpt lat="38.135425" lon="14.8354517"><ele>483.0</ele><time>2026-05-03T06:38:49.256Z</time></trkpt><trkpt lat="38.1355167" lon="14.8354633"><ele>482.99999999999994</ele><time>2026-05-03T06:38:50.256Z</time></trkpt><trkpt lat="38.1355767" lon="14.8355033"><ele>482.99999999999994</ele><time>2026-05-03T06:38:51.256Z</time></trkpt><trkpt lat="38.135625" lon="14.8356583"><ele>483.0</ele><time>2026-05-03T06:38:53.256Z</time></trkpt><trkpt lat="38.1356217" lon="14.83578"><ele>483.0</ele><time>2026-05-03T06:38:54.256Z</time></trkpt><trkpt lat="38.1356033" lon="14.835935"><ele>488.75</ele><time>2026-05-03T06:38:55.256Z</time></trkpt><trkpt lat="38.1355733" lon="14.8361183"><ele>494.5</ele><time>2026-05-03T06:38:56.256Z</time></trkpt><trkpt lat="38.135565" lon="14.8363067"><ele>500.25</ele><time>2026-05-03T06:38:57.256Z</time></trkpt><trkpt lat="38.1355583" lon="14.8364917"><ele>506.0</ele><time>2026-05-03T06:38:58.256Z</time></trkpt><trkpt lat="38.135565" lon="14.836685"><ele>506.20000000000005</ele><time>2026-05-03T06:38:59.256Z</time></trkpt><trkpt lat="38.1355667" lon="14.8368617"><ele>506.40000000000003</ele><time>2026-05-03T06:39:00.256Z</time></trkpt><trkpt lat="38.13558" lon="14.83699"><ele>506.6</ele><time>2026-05-03T06:39:01.256Z</time></trkpt><trkpt lat="38.1355983" lon="14.8370783"><ele>506.8</ele><time>2026-05-03T06:39:02.256Z</time></trkpt><trkpt lat="38.135695" lon="14.8371617"><ele>507.0</ele><time>2026-05-03T06:39:04.256Z</time></trkpt><trkpt lat="38.1357633" lon="14.8371733"><ele>507.0</ele><time>2026-05-03T06:39:05.256Z</time></trkpt><trkpt lat="38.135855" lon="14.8371883"><ele>507.0</ele><time>2026-05-03T06:39:06.256Z</time></trkpt><trkpt lat="38.1359667" lon="14.8372183"><ele>507.0</ele><time>2026-05-03T06:39:07.256Z</time></trkpt><trkpt lat="38.1361017" lon="14.8372783"><ele>507.0</ele><time>2026-05-03T06:39:08.255Z</time></trkpt><trkpt lat="38.136235" lon="14.83734"><ele>507.0</ele><time>2026-05-03T06:39:09.256Z</time></trkpt><trkpt lat="38.1363533" lon="14.8373817"><ele>507.00000000000006</ele><time>2026-05-03T06:39:10.256Z</time></trkpt><trkpt lat="38.13646" lon="14.8373983"><ele>507.00000000000006</ele><time>2026-05-03T06:39:11.256Z</time></trkpt><trkpt lat="38.1365333" lon="14.8373867"><ele>507.0</ele><time>2026-05-03T06:39:12.256Z</time></trkpt><trkpt lat="38.136605" lon="14.8373467"><ele>507.0</ele><time>2026-05-03T06:39:13.256Z</time></trkpt><trkpt lat="38.1366617" lon="14.83727"><ele>507.8333333333333</ele><time>2026-05-03T06:39:14.255Z</time></trkpt><trkpt lat="38.1367267" lon="14.83718"><ele>508.66666666666663</ele><time>2026-05-03T06:39:15.256Z</time></trkpt><trkpt lat="38.1368017" lon="14.8371083"><ele>509.5</ele><time>2026-05-03T06:39:16.256Z</time></trkpt><trkpt lat="38.1368783" lon="14.83707"><ele>510.3333333333333</ele><time>2026-05-03T06:39:17.256Z</time></trkpt><trkpt lat="38.13696" lon="14.83706"><ele>511.16666666666663</ele><time>2026-05-03T06:39:18.256Z</time></trkpt><trkpt lat="38.1370417" lon="14.8370783"><ele>512.0</ele><time>2026-05-03T06:39:19.256Z</time></trkpt><trkpt lat="38.137115" lon="14.837125"><ele>512.0</ele><time>2026-05-03T06:39:20.256Z</time></trkpt><trkpt lat="38.137185" lon="14.8371767"><ele>512.0</ele><time>2026-05-03T06:39:21.256Z</time></trkpt><trkpt lat="38.13723" lon="14.8372617"><ele>512.0</ele><time>2026-05-03T06:39:23.256Z</time></trkpt><trkpt lat="38.13707" lon="14.8372133"><ele>512.0</ele><time>2026-05-03T06:39:31.256Z</time></trkpt><trkpt lat="38.1369483" lon="14.8372067"><ele>512.0</ele><time>2026-05-03T06:39:33.256Z</time></trkpt><trkpt lat="38.13684" lon="14.8372783"><ele>512.0</ele><time>2026-05-03T06:39:35.256Z</time></trkpt><trkpt lat="38.136785" lon="14.8373517"><ele>512.0</ele><time>2026-05-03T06:39:36.256Z</time></trkpt><trkpt lat="38.1367317" lon="14.8374517"><ele>512.0</ele><time>2026-05-03T06:39:37.256Z</time></trkpt><trkpt lat="38.136685" lon="14.83758"><ele>512.0</ele><time>2026-05-03T06:39:38.256Z</time></trkpt><trkpt lat="38.1366367" lon="14.837715"><ele>512.0</ele><time>2026-05-03T06:39:39.256Z</time></trkpt><trkpt lat="38.1365983" lon="14.83784"><ele>515.4</ele><time>2026-05-03T06:39:40.256Z</time></trkpt><trkpt lat="38.1365617" lon="14.83794"><ele>518.8000000000001</ele><time>2026-05-03T06:39:41.256Z</time></trkpt><trkpt lat="38.136515" lon="14.8380167"><ele>522.2</ele><time>2026-05-03T06:39:42.256Z</time></trkpt><trkpt lat="38.1363917" lon="14.8380283"><ele>525.6</ele><time>2026-05-03T06:39:44.256Z</time></trkpt><trkpt lat="38.13631" lon="14.8379833"><ele>529.0</ele><time>2026-05-03T06:39:45.255Z</time></trkpt><trkpt lat="38.1362167" lon="14.8379567"><ele>529.0</ele><time>2026-05-03T06:39:46.255Z</time></trkpt><trkpt lat="38.136125" lon="14.83794"><ele>529.0</ele><time>2026-05-03T06:39:47.256Z</time></trkpt><trkpt lat="38.1360417" lon="14.8379383"><ele>529.0</ele><time>2026-05-03T06:39:48.256Z</time></trkpt><trkpt lat="38.1359533" lon="14.8379667"><ele>529.0</ele><time>2026-05-03T06:39:49.256Z</time></trkpt><trkpt lat="38.135865" lon="14.837995"><ele>529.0</ele><time>2026-05-03T06:39:50.255Z</time></trkpt><trkpt lat="38.1357783" lon="14.8380817"><ele>529.0</ele><time>2026-05-03T06:39:52.256Z</time></trkpt><trkpt lat="38.135775" lon="14.8381833"><ele>529.0</ele><time>2026-05-03T06:39:54.256Z</time></trkpt><trkpt lat="38.135785" lon="14.8383"><ele>529.0</ele><time>2026-05-03T06:39:58.256Z</time></trkpt><trkpt lat="38.1357833" lon="14.838405"><ele>529.0</ele><time>2026-05-03T06:42:14.256Z</time></trkpt><trkpt lat="38.1357633" lon="14.8384883"><ele>529.0</ele><time>2026-05-03T06:42:18.256Z</time></trkpt><trkpt lat="38.1357383" lon="14.8385767"><ele>529.0</ele><time>2026-05-03T06:42:20.255Z</time></trkpt><trkpt lat="38.1356833" lon="14.8386417"><ele>528.4</ele><time>2026-05-03T06:42:21.256Z</time></trkpt><trkpt lat="38.1355933" lon="14.8387317"><ele>527.8</ele><time>2026-05-03T06:42:23.256Z</time></trkpt><trkpt lat="38.135465" lon="14.8387683"><ele>527.2</ele><time>2026-05-03T06:42:25.256Z</time></trkpt><trkpt lat="38.1354017" lon="14.8387883"><ele>526.6</ele><time>2026-05-03T06:42:26.256Z</time></trkpt><trkpt lat="38.1353333" lon="14.83882"><ele>526.0</ele><time>2026-05-03T06:42:27.256Z</time></trkpt><trkpt lat="38.135265" lon="14.8388667"><ele>526.0</ele><time>2026-05-03T06:42:28.256Z</time></trkpt><trkpt lat="38.135195" lon="14.8389083"><ele>526.0</ele><time>2026-05-03T06:42:29.256Z</time></trkpt><trkpt lat="38.1351483" lon="14.83897"><ele>526.0</ele><time>2026-05-03T06:42:30.256Z</time></trkpt><trkpt lat="38.1350933" lon="14.8390483"><ele>526.0</ele><time>2026-05-03T06:42:31.256Z</time></trkpt><trkpt lat="38.1350433" lon="14.8391083"><ele>526.0</ele><time>2026-05-03T06:42:32.256Z</time></trkpt><trkpt lat="38.1349783" lon="14.839155"><ele>526.0</ele><time>2026-05-03T06:42:33.256Z</time></trkpt><trkpt lat="38.1349133" lon="14.839225"><ele>523.5</ele><time>2026-05-03T06:42:34.257Z</time></trkpt><trkpt lat="38.13486" lon="14.839295"><ele>521.0</ele><time>2026-05-03T06:42:35.257Z</time></trkpt><trkpt lat="38.1348283" lon="14.8393667"><ele>518.5</ele><time>2026-05-03T06:42:36.257Z</time></trkpt><trkpt lat="38.1347783" lon="14.8395217"><ele>516.0</ele><time>2026-05-03T06:42:38.257Z</time></trkpt><trkpt lat="38.1347583" lon="14.8396133"><ele>513.5</ele><time>2026-05-03T06:42:39.256Z</time></trkpt><trkpt lat="38.1347283" lon="14.8397083"><ele>511.0</ele><time>2026-05-03T06:42:40.257Z</time></trkpt><trkpt lat="38.134695" lon="14.83981"><ele>511.00000000000006</ele><time>2026-05-03T06:42:41.257Z</time></trkpt><trkpt lat="38.1346533" lon="14.8399067"><ele>511.0</ele><time>2026-05-03T06:42:42.257Z</time></trkpt><trkpt lat="38.13462" lon="14.8400033"><ele>511.0</ele><time>2026-05-03T06:42:43.256Z</time></trkpt><trkpt lat="38.134585" lon="14.84009"><ele>511.0</ele><time>2026-05-03T06:42:44.256Z</time></trkpt><trkpt lat="38.1345467" lon="14.8401567"><ele>511.00000000000006</ele><time>2026-05-03T06:42:45.257Z</time></trkpt><trkpt lat="38.1344933" lon="14.840255"><ele>511.0</ele><time>2026-05-03T06:42:47.257Z</time></trkpt><trkpt lat="38.1344433" lon="14.840355"><ele>512.3333333333334</ele><time>2026-05-03T06:42:49.257Z</time></trkpt><trkpt lat="38.1343767" lon="14.8404167"><ele>513.6666666666667</ele><time>2026-05-03T06:42:51.257Z</time></trkpt><trkpt lat="38.134275" lon="14.8404867"><ele>515.0</ele><time>2026-05-03T06:42:53.257Z</time></trkpt><trkpt lat="38.134205" lon="14.8405583"><ele>516.3333333333334</ele><time>2026-05-03T06:42:55.257Z</time></trkpt><trkpt lat="38.1341533" lon="14.84064"><ele>517.6666666666666</ele><time>2026-05-03T06:42:58.257Z</time></trkpt><trkpt lat="38.1341317" lon="14.8407233"><ele>519.0</ele><time>2026-05-03T06:43:00.257Z</time></trkpt><trkpt lat="38.134125" lon="14.84083"><ele>519.0</ele><time>2026-05-03T06:43:02.257Z</time></trkpt><trkpt lat="38.13408" lon="14.8409467"><ele>519.0</ele><time>2026-05-03T06:43:04.257Z</time></trkpt><trkpt lat="38.13404" lon="14.841025"><ele>519.0</ele><time>2026-05-03T06:43:05.257Z</time></trkpt><trkpt lat="38.1339817" lon="14.8411217"><ele>519.0</ele><time>2026-05-03T06:43:06.256Z</time></trkpt><trkpt lat="38.1339233" lon="14.8412283"><ele>519.0</ele><time>2026-05-03T06:43:07.256Z</time></trkpt><trkpt lat="38.13388" lon="14.841325"><ele>519.5</ele><time>2026-05-03T06:43:08.257Z</time></trkpt><trkpt lat="38.13384" lon="14.8414183"><ele>520.0</ele><time>2026-05-03T06:43:09.257Z</time></trkpt><trkpt lat="38.1338083" lon="14.8415167"><ele>520.5</ele><time>2026-05-03T06:43:10.257Z</time></trkpt><trkpt lat="38.1337667" lon="14.84162"><ele>521.0</ele><time>2026-05-03T06:43:11.257Z</time></trkpt><trkpt lat="38.1337133" lon="14.8417217"><ele>521.5</ele><time>2026-05-03T06:43:12.257Z</time></trkpt><trkpt lat="38.1336683" lon="14.84182"><ele>522.0</ele><time>2026-05-03T06:43:13.257Z</time></trkpt><trkpt lat="38.133645" lon="14.8418967"><ele>525.3333333333334</ele><time>2026-05-03T06:43:14.256Z</time></trkpt><trkpt lat="38.13362" lon="14.8420217"><ele>528.6666666666666</ele><time>2026-05-03T06:43:16.257Z</time></trkpt><trkpt lat="38.1335833" lon="14.8421067"><ele>532.0</ele><time>2026-05-03T06:43:18.257Z</time></trkpt><trkpt lat="38.1335067" lon="14.8421117"><ele>535.3333333333333</ele><time>2026-05-03T06:43:20.257Z</time></trkpt><trkpt lat="38.1334317" lon="14.8421117"><ele>538.6666666666666</ele><time>2026-05-03T06:43:22.257Z</time></trkpt><trkpt lat="38.1333533" lon="14.8421833"><ele>542.0</ele><time>2026-05-03T06:43:24.257Z</time></trkpt><trkpt lat="38.133255" lon="14.842245"><ele>543.6</ele><time>2026-05-03T06:43:26.257Z</time></trkpt><trkpt lat="38.1331617" lon="14.8423383"><ele>545.2</ele><time>2026-05-03T06:43:28.257Z</time></trkpt><trkpt lat="38.13312" lon="14.8424183"><ele>546.8</ele><time>2026-05-03T06:43:29.257Z</time></trkpt><trkpt lat="38.133085" lon="14.842515"><ele>548.4</ele><time>2026-05-03T06:43:30.257Z</time></trkpt><trkpt lat="38.1330433" lon="14.842605"><ele>550.0</ele><time>2026-05-03T06:43:31.257Z</time></trkpt><trkpt lat="38.1330017" lon="14.8427067"><ele>553.5</ele><time>2026-05-03T06:43:32.257Z</time></trkpt><trkpt lat="38.1329667" lon="14.8428033"><ele>557.0</ele><time>2026-05-03T06:43:33.257Z</time></trkpt><trkpt lat="38.1329167" lon="14.84289"><ele>560.5</ele><time>2026-05-03T06:43:34.257Z</time></trkpt><trkpt lat="38.132855" lon="14.8429517"><ele>564.0</ele><time>2026-05-03T06:43:35.257Z</time></trkpt><trkpt lat="38.1327917" lon="14.8430117"><ele>567.5</ele><time>2026-05-03T06:43:36.257Z</time></trkpt><trkpt lat="38.13272" lon="14.8430717"><ele>571.0</ele><time>2026-05-03T06:43:37.257Z</time></trkpt><trkpt lat="38.132645" lon="14.8431333"><ele>571.0</ele><time>2026-05-03T06:43:38.257Z</time></trkpt><trkpt lat="38.1325683" lon="14.84319"><ele>571.0</ele><time>2026-05-03T06:43:39.257Z</time></trkpt><trkpt lat="38.1324817" lon="14.8432467"><ele>571.0</ele><time>2026-05-03T06:43:40.257Z</time></trkpt><trkpt lat="38.1324083" lon="14.84331"><ele>571.0</ele><time>2026-05-03T06:43:41.257Z</time></trkpt><trkpt lat="38.1323417" lon="14.8433633"><ele>571.0</ele><time>2026-05-03T06:43:42.257Z</time></trkpt><trkpt lat="38.132285" lon="14.8434167"><ele>571.0</ele><time>2026-05-03T06:43:43.257Z</time></trkpt><trkpt lat="38.1322317" lon="14.8434817"><ele>573.8333333333334</ele><time>2026-05-03T06:43:44.257Z</time></trkpt><trkpt lat="38.1321783" lon="14.8435567"><ele>576.6666666666667</ele><time>2026-05-03T06:43:45.257Z</time></trkpt><trkpt lat="38.1321167" lon="14.84364"><ele>579.5</ele><time>2026-05-03T06:43:46.257Z</time></trkpt><trkpt lat="38.13205" lon="14.8437133"><ele>582.3333333333334</ele><time>2026-05-03T06:43:47.256Z</time></trkpt><trkpt lat="38.13199" lon="14.8437767"><ele>585.1666666666666</ele><time>2026-05-03T06:43:48.257Z</time></trkpt><trkpt lat="38.131925" lon="14.84384"><ele>588.0</ele><time>2026-05-03T06:43:49.257Z</time></trkpt><trkpt lat="38.1318533" lon="14.8439117"><ele>588.0</ele><time>2026-05-03T06:43:50.256Z</time></trkpt><trkpt lat="38.1317733" lon="14.8439883"><ele>588.0</ele><time>2026-05-03T06:43:51.257Z</time></trkpt><trkpt lat="38.1316917" lon="14.8440533"><ele>588.0</ele><time>2026-05-03T06:43:52.257Z</time></trkpt><trkpt lat="38.1316" lon="14.84412"><ele>588.0</ele><time>2026-05-03T06:43:53.256Z</time></trkpt><trkpt lat="38.1315167" lon="14.844175"><ele>588.0</ele><time>2026-05-03T06:43:54.257Z</time></trkpt><trkpt lat="38.1314583" lon="14.8442383"><ele>589.1999999999999</ele><time>2026-05-03T06:43:55.257Z</time></trkpt><trkpt lat="38.13141" lon="14.8443"><ele>590.4</ele><time>2026-05-03T06:43:56.257Z</time></trkpt><trkpt lat="38.131355" lon="14.844385"><ele>591.5999999999999</ele><time>2026-05-03T06:43:57.257Z</time></trkpt><trkpt lat="38.1312983" lon="14.8444733"><ele>592.8</ele><time>2026-05-03T06:43:58.257Z</time></trkpt><trkpt lat="38.1312317" lon="14.8445733"><ele>594.0</ele><time>2026-05-03T06:43:59.257Z</time></trkpt><trkpt lat="38.13117" lon="14.84468"><ele>594.0</ele><time>2026-05-03T06:44:00.257Z</time></trkpt><trkpt lat="38.1311067" lon="14.8447717"><ele>594.0</ele><time>2026-05-03T06:44:01.257Z</time></trkpt><trkpt lat="38.13105" lon="14.8448533"><ele>594.0</ele><time>2026-05-03T06:44:02.257Z</time></trkpt><trkpt lat="38.1309933" lon="14.844925"><ele>594.0</ele><time>2026-05-03T06:44:03.257Z</time></trkpt><trkpt lat="38.1309367" lon="14.845005"><ele>594.0</ele><time>2026-05-03T06:44:04.257Z</time></trkpt><trkpt lat="38.1308833" lon="14.8450817"><ele>594.0</ele><time>2026-05-03T06:44:05.257Z</time></trkpt><trkpt lat="38.130835" lon="14.8451633"><ele>593.8571428571429</ele><time>2026-05-03T06:44:06.257Z</time></trkpt><trkpt lat="38.13079" lon="14.8452433"><ele>593.7142857142858</ele><time>2026-05-03T06:44:07.257Z</time></trkpt><trkpt lat="38.1307467" lon="14.8453267"><ele>593.5714285714286</ele><time>2026-05-03T06:44:08.257Z</time></trkpt><trkpt lat="38.1307083" lon="14.8454067"><ele>593.4285714285714</ele><time>2026-05-03T06:44:09.256Z</time></trkpt><trkpt lat="38.1306683" lon="14.84548"><ele>593.2857142857142</ele><time>2026-05-03T06:44:10.257Z</time></trkpt><trkpt lat="38.13063" lon="14.8455583"><ele>593.1428571428571</ele><time>2026-05-03T06:44:11.257Z</time></trkpt><trkpt lat="38.1306" lon="14.845645"><ele>593.0</ele><time>2026-05-03T06:44:12.257Z</time></trkpt><trkpt lat="38.1305767" lon="14.8457367"><ele>593.0</ele><time>2026-05-03T06:44:13.257Z</time></trkpt><trkpt lat="38.1305483" lon="14.84583"><ele>593.0</ele><time>2026-05-03T06:44:14.257Z</time></trkpt><trkpt lat="38.1305083" lon="14.84591"><ele>593.0</ele><time>2026-05-03T06:44:15.256Z</time></trkpt><trkpt lat="38.1304583" lon="14.84599"><ele>593.0</ele><time>2026-05-03T06:44:16.257Z</time></trkpt><trkpt lat="38.130395" lon="14.8460533"><ele>593.0</ele><time>2026-05-03T06:44:17.257Z</time></trkpt><trkpt lat="38.1302633" lon="14.8460767"><ele>593.0</ele><time>2026-05-03T06:44:19.257Z</time></trkpt><trkpt lat="38.1301667" lon="14.84607"><ele>593.1666666666666</ele><time>2026-05-03T06:44:20.257Z</time></trkpt><trkpt lat="38.13008" lon="14.8460517"><ele>593.3333333333333</ele><time>2026-05-03T06:44:21.257Z</time></trkpt><trkpt lat="38.129965" lon="14.846075"><ele>593.5</ele><time>2026-05-03T06:44:23.257Z</time></trkpt><trkpt lat="38.129915" lon="14.8461283"><ele>593.6666666666666</ele><time>2026-05-03T06:44:24.257Z</time></trkpt><trkpt lat="38.1298767" lon="14.8462033"><ele>593.8333333333334</ele><time>2026-05-03T06:44:25.257Z</time></trkpt><trkpt lat="38.129855" lon="14.8463083"><ele>594.0</ele><time>2026-05-03T06:44:26.257Z</time></trkpt><trkpt lat="38.1298283" lon="14.8464167"><ele>594.0</ele><time>2026-05-03T06:44:27.257Z</time></trkpt><trkpt lat="38.1298033" lon="14.8465317"><ele>594.0</ele><time>2026-05-03T06:44:28.257Z</time></trkpt><trkpt lat="38.1297783" lon="14.8466367"><ele>594.0</ele><time>2026-05-03T06:44:29.257Z</time></trkpt><trkpt lat="38.12976" lon="14.8467367"><ele>594.0</ele><time>2026-05-03T06:44:30.257Z</time></trkpt><trkpt lat="38.1297317" lon="14.8468367"><ele>594.0</ele><time>2026-05-03T06:44:31.257Z</time></trkpt><trkpt lat="38.1296867" lon="14.8469367"><ele>594.0</ele><time>2026-05-03T06:44:32.256Z</time></trkpt><trkpt lat="38.129625" lon="14.8470333"><ele>596.3333333333334</ele><time>2026-05-03T06:44:33.257Z</time></trkpt><trkpt lat="38.1295683" lon="14.8471167"><ele>598.6666666666666</ele><time>2026-05-03T06:44:34.257Z</time></trkpt><trkpt lat="38.129505" lon="14.8471767"><ele>601.0</ele><time>2026-05-03T06:44:35.257Z</time></trkpt><trkpt lat="38.1294517" lon="14.8472317"><ele>603.3333333333333</ele><time>2026-05-03T06:44:36.257Z</time></trkpt><trkpt lat="38.1293633" lon="14.8473183"><ele>605.6666666666666</ele><time>2026-05-03T06:44:38.257Z</time></trkpt><trkpt lat="38.1292917" lon="14.8474117"><ele>608.0</ele><time>2026-05-03T06:44:40.257Z</time></trkpt><trkpt lat="38.129265" lon="14.8475133"><ele>608.0</ele><time>2026-05-03T06:44:42.257Z</time></trkpt><trkpt lat="38.129185" lon="14.847575"><ele>608.0</ele><time>2026-05-03T06:44:44.257Z</time></trkpt><trkpt lat="38.1290617" lon="14.847585"><ele>608.0</ele><time>2026-05-03T06:44:46.257Z</time></trkpt><trkpt lat="38.1289833" lon="14.8476083"><ele>608.0</ele><time>2026-05-03T06:44:47.257Z</time></trkpt><trkpt lat="38.1289067" lon="14.84766"><ele>608.0</ele><time>2026-05-03T06:44:48.257Z</time></trkpt><trkpt lat="38.128825" lon="14.847735"><ele>608.3333333333333</ele><time>2026-05-03T06:44:49.257Z</time></trkpt><trkpt lat="38.1287633" lon="14.8478083"><ele>608.6666666666666</ele><time>2026-05-03T06:44:50.257Z</time></trkpt><trkpt lat="38.1287133" lon="14.8478917"><ele>609.0</ele><time>2026-05-03T06:44:51.257Z</time></trkpt><trkpt lat="38.12862" lon="14.8480083"><ele>609.3333333333334</ele><time>2026-05-03T06:44:53.257Z</time></trkpt><trkpt lat="38.1285583" lon="14.84806"><ele>609.6666666666667</ele><time>2026-05-03T06:44:54.257Z</time></trkpt><trkpt lat="38.12849" lon="14.8480933"><ele>610.0</ele><time>2026-05-03T06:44:55.256Z</time></trkpt><trkpt lat="38.1284217" lon="14.84812"><ele>610.0</ele><time>2026-05-03T06:44:56.257Z</time></trkpt><trkpt lat="38.1283517" lon="14.8481383"><ele>610.0</ele><time>2026-05-03T06:44:57.257Z</time></trkpt><trkpt lat="38.12828" lon="14.8481683"><ele>610.0</ele><time>2026-05-03T06:44:58.256Z</time></trkpt><trkpt lat="38.1282067" lon="14.8481933"><ele>610.0</ele><time>2026-05-03T06:44:59.257Z</time></trkpt><trkpt lat="38.1281367" lon="14.8482117"><ele>610.0</ele><time>2026-05-03T06:45:00.257Z</time></trkpt><trkpt lat="38.1280333" lon="14.848195"><ele>610.0</ele><time>2026-05-03T06:45:02.257Z</time></trkpt><trkpt lat="38.1280133" lon="14.8480933"><ele>610.0</ele><time>2026-05-03T06:45:04.257Z</time></trkpt><trkpt lat="38.128065" lon="14.8480133"><ele>610.0</ele><time>2026-05-03T06:45:05.257Z</time></trkpt><trkpt lat="38.1281267" lon="14.8479367"><ele>610.0</ele><time>2026-05-03T06:45:06.257Z</time></trkpt><trkpt lat="38.1281867" lon="14.8478733"><ele>610.0</ele><time>2026-05-03T06:45:07.257Z</time></trkpt><trkpt lat="38.1282483" lon="14.8478067"><ele>610.0</ele><time>2026-05-03T06:45:08.257Z</time></trkpt><trkpt lat="38.1283067" lon="14.8477383"><ele>610.0</ele><time>2026-05-03T06:45:09.257Z</time></trkpt><trkpt lat="38.1283633" lon="14.84768"><ele>607.8571428571429</ele><time>2026-05-03T06:45:10.257Z</time></trkpt><trkpt lat="38.1284167" lon="14.84762"><ele>605.7142857142857</ele><time>2026-05-03T06:45:11.257Z</time></trkpt><trkpt lat="38.128465" lon="14.8475567"><ele>603.5714285714286</ele><time>2026-05-03T06:45:12.256Z</time></trkpt><trkpt lat="38.1285183" lon="14.8474933"><ele>601.4285714285714</ele><time>2026-05-03T06:45:13.257Z</time></trkpt><trkpt lat="38.1285683" lon="14.8474283"><ele>599.2857142857142</ele><time>2026-05-03T06:45:14.257Z</time></trkpt><trkpt lat="38.1286183" lon="14.84736"><ele>597.1428571428571</ele><time>2026-05-03T06:45:15.257Z</time></trkpt><trkpt lat="38.1286733" lon="14.8472933"><ele>595.0</ele><time>2026-05-03T06:45:16.257Z</time></trkpt><trkpt lat="38.1287133" lon="14.8472233"><ele>595.0</ele><time>2026-05-03T06:45:17.257Z</time></trkpt><trkpt lat="38.1287633" lon="14.8471433"><ele>595.0</ele><time>2026-05-03T06:45:18.257Z</time></trkpt><trkpt lat="38.128805" lon="14.8470667"><ele>595.0</ele><time>2026-05-03T06:45:19.256Z</time></trkpt><trkpt lat="38.1288517" lon="14.8469917"><ele>595.0</ele><time>2026-05-03T06:45:20.256Z</time></trkpt><trkpt lat="38.128895" lon="14.84691"><ele>595.0</ele><time>2026-05-03T06:45:21.257Z</time></trkpt><trkpt lat="38.128945" lon="14.84683"><ele>595.0</ele><time>2026-05-03T06:45:22.257Z</time></trkpt><trkpt lat="38.1289917" lon="14.84675"><ele>594.8333333333334</ele><time>2026-05-03T06:45:23.257Z</time></trkpt><trkpt lat="38.12904" lon="14.8466667"><ele>594.6666666666667</ele><time>2026-05-03T06:45:24.257Z</time></trkpt><trkpt lat="38.1290783" lon="14.8465767"><ele>594.5</ele><time>2026-05-03T06:45:25.257Z</time></trkpt><trkpt lat="38.1291233" lon="14.84648"><ele>594.3333333333334</ele><time>2026-05-03T06:45:26.257Z</time></trkpt><trkpt lat="38.1291633" lon="14.8463833"><ele>594.1666666666666</ele><time>2026-05-03T06:45:27.256Z</time></trkpt><trkpt lat="38.1292117" lon="14.8462917"><ele>594.0</ele><time>2026-05-03T06:45:28.257Z</time></trkpt><trkpt lat="38.129265" lon="14.8462017"><ele>594.0</ele><time>2026-05-03T06:45:29.257Z</time></trkpt><trkpt lat="38.1293117" lon="14.846105"><ele>594.0</ele><time>2026-05-03T06:45:30.257Z</time></trkpt><trkpt lat="38.1293617" lon="14.8460133"><ele>594.0</ele><time>2026-05-03T06:45:31.257Z</time></trkpt><trkpt lat="38.1294117" lon="14.8459267"><ele>594.0</ele><time>2026-05-03T06:45:32.257Z</time></trkpt><trkpt lat="38.12947" lon="14.8458433"><ele>594.0</ele><time>2026-05-03T06:45:33.257Z</time></trkpt><trkpt lat="38.1295267" lon="14.8457617"><ele>594.0</ele><time>2026-05-03T06:45:34.257Z</time></trkpt><trkpt lat="38.12959" lon="14.84568"><ele>590.8333333333334</ele><time>2026-05-03T06:45:35.257Z</time></trkpt><trkpt lat="38.1296517" lon="14.8456033"><ele>587.6666666666666</ele><time>2026-05-03T06:45:36.257Z</time></trkpt><trkpt lat="38.129705" lon="14.8455267"><ele>584.5</ele><time>2026-05-03T06:45:37.257Z</time></trkpt><trkpt lat="38.1297517" lon="14.845435"><ele>581.3333333333333</ele><time>2026-05-03T06:45:38.257Z</time></trkpt><trkpt lat="38.129775" lon="14.84533"><ele>578.1666666666666</ele><time>2026-05-03T06:45:39.257Z</time></trkpt><trkpt lat="38.1297867" lon="14.8452133"><ele>575.0</ele><time>2026-05-03T06:45:40.257Z</time></trkpt><trkpt lat="38.1297883" lon="14.8450933"><ele>573.5</ele><time>2026-05-03T06:45:41.257Z</time></trkpt><trkpt lat="38.12978" lon="14.8449883"><ele>572.0</ele><time>2026-05-03T06:45:42.257Z</time></trkpt><trkpt lat="38.12978" lon="14.8449033"><ele>570.5</ele><time>2026-05-03T06:45:43.257Z</time></trkpt><trkpt lat="38.1297733" lon="14.84482"><ele>569.0</ele><time>2026-05-03T06:45:44.257Z</time></trkpt><trkpt lat="38.129765" lon="14.8447367"><ele>567.5</ele><time>2026-05-03T06:45:45.257Z</time></trkpt><trkpt lat="38.1297283" lon="14.8446217"><ele>566.0</ele><time>2026-05-03T06:45:47.257Z</time></trkpt><trkpt lat="38.12967" lon="14.844565"><ele>566.0</ele><time>2026-05-03T06:45:53.257Z</time></trkpt><trkpt lat="38.129605" lon="14.844515"><ele>566.0</ele><time>2026-05-03T06:45:55.257Z</time></trkpt><trkpt lat="38.129515" lon="14.8444433"><ele>566.0</ele><time>2026-05-03T06:45:57.257Z</time></trkpt><trkpt lat="38.129455" lon="14.844365"><ele>566.0</ele><time>2026-05-03T06:45:59.257Z</time></trkpt><trkpt lat="38.1294517" lon="14.84425"><ele>566.0</ele><time>2026-05-03T06:46:01.257Z</time></trkpt><trkpt lat="38.1294717" lon="14.8441733"><ele>566.0</ele><time>2026-05-03T06:46:02.257Z</time></trkpt><trkpt lat="38.1295133" lon="14.844035"><ele>564.8333333333333</ele><time>2026-05-03T06:46:04.257Z</time></trkpt><trkpt lat="38.1295083" lon="14.8439317"><ele>563.6666666666666</ele><time>2026-05-03T06:46:06.257Z</time></trkpt><trkpt lat="38.1294333" lon="14.8438917"><ele>562.5</ele><time>2026-05-03T06:46:08.257Z</time></trkpt><trkpt lat="38.1293267" lon="14.843835"><ele>561.3333333333334</ele><time>2026-05-03T06:46:10.257Z</time></trkpt><trkpt lat="38.129285" lon="14.8437617"><ele>560.1666666666667</ele><time>2026-05-03T06:46:11.257Z</time></trkpt><trkpt lat="38.1292433" lon="14.8436867"><ele>559.0</ele><time>2026-05-03T06:46:12.256Z</time></trkpt><trkpt lat="38.12916" lon="14.84356"><ele>559.0</ele><time>2026-05-03T06:46:14.257Z</time></trkpt><trkpt lat="38.1291083" lon="14.8434917"><ele>559.0</ele><time>2026-05-03T06:46:15.257Z</time></trkpt><trkpt lat="38.1290567" lon="14.8434233"><ele>559.0</ele><time>2026-05-03T06:46:16.257Z</time></trkpt><trkpt lat="38.1289883" lon="14.84337"><ele>559.0</ele><time>2026-05-03T06:46:17.257Z</time></trkpt><trkpt lat="38.1289133" lon="14.8433617"><ele>559.0</ele><time>2026-05-03T06:46:18.257Z</time></trkpt><trkpt lat="38.1288467" lon="14.8433883"><ele>559.0</ele><time>2026-05-03T06:46:19.257Z</time></trkpt><trkpt lat="38.1288" lon="14.8434433"><ele>559.0</ele><time>2026-05-03T06:46:20.256Z</time></trkpt><trkpt lat="38.1287117" lon="14.8435167"><ele>556.6666666666667</ele><time>2026-05-03T06:46:22.257Z</time></trkpt><trkpt lat="38.1286567" lon="14.8435717"><ele>554.3333333333334</ele><time>2026-05-03T06:46:24.257Z</time></trkpt><trkpt lat="38.1285933" lon="14.843635"><ele>552.0</ele><time>2026-05-03T06:46:27.257Z</time></trkpt><trkpt lat="38.1285333" lon="14.8437033"><ele>549.6666666666666</ele><time>2026-05-03T06:46:30.257Z</time></trkpt><trkpt lat="38.1284567" lon="14.8437267"><ele>547.3333333333333</ele><time>2026-05-03T06:46:33.257Z</time></trkpt><trkpt lat="38.1284583" lon="14.8436433"><ele>545.0</ele><time>2026-05-03T06:46:35.257Z</time></trkpt><trkpt lat="38.128485" lon="14.843525"><ele>543.8333333333333</ele><time>2026-05-03T06:46:37.257Z</time></trkpt><trkpt lat="38.1285" lon="14.8433983"><ele>542.6666666666666</ele><time>2026-05-03T06:46:39.256Z</time></trkpt><trkpt lat="38.1285183" lon="14.843285"><ele>541.5</ele><time>2026-05-03T06:46:41.257Z</time></trkpt><trkpt lat="38.1285383" lon="14.8431783"><ele>540.3333333333334</ele><time>2026-05-03T06:46:43.257Z</time></trkpt><trkpt lat="38.12855" lon="14.84307"><ele>539.1666666666667</ele><time>2026-05-03T06:46:45.257Z</time></trkpt><trkpt lat="38.128565" lon="14.8429733"><ele>538.0</ele><time>2026-05-03T06:46:47.257Z</time></trkpt><trkpt lat="38.1285817" lon="14.8428683"><ele>538.0</ele><time>2026-05-03T06:46:49.257Z</time></trkpt><trkpt lat="38.128595" lon="14.8427483"><ele>538.0</ele><time>2026-05-03T06:46:51.257Z</time></trkpt><trkpt lat="38.1286083" lon="14.8426117"><ele>538.0</ele><time>2026-05-03T06:46:53.257Z</time></trkpt><trkpt lat="38.128615" lon="14.8424733"><ele>538.0</ele><time>2026-05-03T06:46:55.256Z</time></trkpt><trkpt lat="38.128625" lon="14.8423467"><ele>538.0</ele><time>2026-05-03T06:46:57.256Z</time></trkpt><trkpt lat="38.1286317" lon="14.8422"><ele>536.0</ele><time>2026-05-03T06:46:59.257Z</time></trkpt><trkpt lat="38.1286417" lon="14.8420633"><ele>534.0</ele><time>2026-05-03T06:47:01.257Z</time></trkpt><trkpt lat="38.1286283" lon="14.84192"><ele>532.0</ele><time>2026-05-03T06:47:03.257Z</time></trkpt><trkpt lat="38.128605" lon="14.841835"><ele>530.0</ele><time>2026-05-03T06:47:04.256Z</time></trkpt><trkpt lat="38.1285767" lon="14.8417517"><ele>528.0</ele><time>2026-05-03T06:47:05.257Z</time></trkpt><trkpt lat="38.12855" lon="14.8416683"><ele>526.0</ele><time>2026-05-03T06:47:06.257Z</time></trkpt><trkpt lat="38.1285233" lon="14.841595"><ele>524.75</ele><time>2026-05-03T06:47:07.257Z</time></trkpt><trkpt lat="38.128495" lon="14.8414383"><ele>523.5</ele><time>2026-05-03T06:47:09.257Z</time></trkpt><trkpt lat="38.1284617" lon="14.8413033"><ele>522.25</ele><time>2026-05-03T06:47:11.256Z</time></trkpt><trkpt lat="38.1284567" lon="14.8411617"><ele>521.0</ele><time>2026-05-03T06:47:13.257Z</time></trkpt><trkpt lat="38.1284467" lon="14.8410167"><ele>520.4</ele><time>2026-05-03T06:47:15.257Z</time></trkpt><trkpt lat="38.1284633" lon="14.8408467"><ele>519.8</ele><time>2026-05-03T06:47:17.257Z</time></trkpt><trkpt lat="38.1284683" lon="14.8407617"><ele>519.1999999999999</ele><time>2026-05-03T06:47:18.257Z</time></trkpt><trkpt lat="38.1284283" lon="14.8406633"><ele>518.6</ele><time>2026-05-03T06:47:20.257Z</time></trkpt><trkpt lat="38.1283183" lon="14.84062"><ele>518.0</ele><time>2026-05-03T06:47:22.257Z</time></trkpt><trkpt lat="38.1282317" lon="14.8405633"><ele>515.1666666666666</ele><time>2026-05-03T06:47:24.257Z</time></trkpt><trkpt lat="38.1281667" lon="14.8405167"><ele>512.3333333333333</ele><time>2026-05-03T06:47:27.257Z</time></trkpt><trkpt lat="38.1280867" lon="14.8404767"><ele>509.5</ele><time>2026-05-03T06:47:31.257Z</time></trkpt><trkpt lat="38.1279883" lon="14.8405"><ele>506.66666666666663</ele><time>2026-05-03T06:47:33.257Z</time></trkpt><trkpt lat="38.1279217" lon="14.84053"><ele>503.8333333333333</ele><time>2026-05-03T06:47:34.257Z</time></trkpt><trkpt lat="38.1278467" lon="14.8405483"><ele>501.0</ele><time>2026-05-03T06:47:35.257Z</time></trkpt><trkpt lat="38.1277567" lon="14.8405467"><ele>501.0</ele><time>2026-05-03T06:47:36.257Z</time></trkpt><trkpt lat="38.1276733" lon="14.840545"><ele>501.0</ele><time>2026-05-03T06:47:37.257Z</time></trkpt><trkpt lat="38.12761" lon="14.840565"><ele>501.0</ele><time>2026-05-03T06:47:38.257Z</time></trkpt><trkpt lat="38.12756" lon="14.8406183"><ele>501.0</ele><time>2026-05-03T06:47:39.257Z</time></trkpt><trkpt lat="38.1275283" lon="14.84069"><ele>501.0</ele><time>2026-05-03T06:47:40.257Z</time></trkpt><trkpt lat="38.1275133" lon="14.8408567"><ele>501.0</ele><time>2026-05-03T06:47:42.256Z</time></trkpt><trkpt lat="38.1274933" lon="14.8409583"><ele>501.0</ele><time>2026-05-03T06:47:43.257Z</time></trkpt><trkpt lat="38.127455" lon="14.8410783"><ele>501.0</ele><time>2026-05-03T06:47:44.257Z</time></trkpt><trkpt lat="38.1274183" lon="14.841205"><ele>501.0</ele><time>2026-05-03T06:47:45.257Z</time></trkpt><trkpt lat="38.127405" lon="14.8413133"><ele>501.0</ele><time>2026-05-03T06:47:46.257Z</time></trkpt><trkpt lat="38.1273917" lon="14.8414183"><ele>501.0</ele><time>2026-05-03T06:47:47.257Z</time></trkpt><trkpt lat="38.1273683" lon="14.84151"><ele>500.1666666666667</ele><time>2026-05-03T06:47:48.257Z</time></trkpt><trkpt lat="38.1273317" lon="14.8415833"><ele>499.33333333333337</ele><time>2026-05-03T06:47:49.257Z</time></trkpt><trkpt lat="38.1272833" lon="14.841635"><ele>498.5</ele><time>2026-05-03T06:47:50.257Z</time></trkpt><trkpt lat="38.1271783" lon="14.8416817"><ele>497.6666666666667</ele><time>2026-05-03T06:47:52.256Z</time></trkpt><trkpt lat="38.12709" lon="14.8417217"><ele>496.83333333333337</ele><time>2026-05-03T06:47:54.257Z</time></trkpt><trkpt lat="38.127005" lon="14.841785"><ele>496.0</ele><time>2026-05-03T06:47:56.257Z</time></trkpt><trkpt lat="38.12693" lon="14.84183"><ele>496.00000000000006</ele><time>2026-05-03T06:47:58.257Z</time></trkpt><trkpt lat="38.12686" lon="14.841855"><ele>496.0</ele><time>2026-05-03T06:48:00.257Z</time></trkpt><trkpt lat="38.12677" lon="14.84183"><ele>496.0</ele><time>2026-05-03T06:48:03.257Z</time></trkpt><trkpt lat="38.1267017" lon="14.8417417"><ele>496.0</ele><time>2026-05-03T06:48:05.257Z</time></trkpt><trkpt lat="38.12663" lon="14.84168"><ele>496.00000000000006</ele><time>2026-05-03T06:48:07.256Z</time></trkpt><trkpt lat="38.1265417" lon="14.8417083"><ele>496.0</ele><time>2026-05-03T06:48:09.257Z</time></trkpt><trkpt lat="38.1264733" lon="14.8417467"><ele>493.1666666666667</ele><time>2026-05-03T06:48:10.257Z</time></trkpt><trkpt lat="38.12639" lon="14.841805"><ele>490.33333333333337</ele><time>2026-05-03T06:48:11.257Z</time></trkpt><trkpt lat="38.1263183" lon="14.8418567"><ele>487.5</ele><time>2026-05-03T06:48:12.257Z</time></trkpt><trkpt lat="38.12624" lon="14.8419183"><ele>484.66666666666663</ele><time>2026-05-03T06:48:13.257Z</time></trkpt><trkpt lat="38.12617" lon="14.8419717"><ele>481.8333333333333</ele><time>2026-05-03T06:48:14.257Z</time></trkpt><trkpt lat="38.1261183" lon="14.8420283"><ele>479.0</ele><time>2026-05-03T06:48:15.257Z</time></trkpt><trkpt lat="38.12604" lon="14.8421433"><ele>478.99999999999994</ele><time>2026-05-03T06:48:17.257Z</time></trkpt><trkpt lat="38.12601" lon="14.8422533"><ele>479.0</ele><time>2026-05-03T06:48:19.257Z</time></trkpt><trkpt lat="38.1259883" lon="14.8423333"><ele>479.0</ele><time>2026-05-03T06:48:21.256Z</time></trkpt><trkpt lat="38.1259783" lon="14.8424383"><ele>479.0</ele><time>2026-05-03T06:48:23.257Z</time></trkpt><trkpt lat="38.1260083" lon="14.8425517"><ele>478.99999999999994</ele><time>2026-05-03T06:48:25.257Z</time></trkpt><trkpt lat="38.126" lon="14.8426817"><ele>479.0</ele><time>2026-05-03T06:48:27.257Z</time></trkpt><trkpt lat="38.1259517" lon="14.8427417"><ele>478.71428571428567</ele><time>2026-05-03T06:48:28.258Z</time></trkpt><trkpt lat="38.1258967" lon="14.8428033"><ele>478.42857142857144</ele><time>2026-05-03T06:48:29.258Z</time></trkpt><trkpt lat="38.125845" lon="14.842875"><ele>478.1428571428571</ele><time>2026-05-03T06:48:30.258Z</time></trkpt><trkpt lat="38.1258017" lon="14.8429483"><ele>477.85714285714283</ele><time>2026-05-03T06:48:31.258Z</time></trkpt><trkpt lat="38.1257583" lon="14.8430267"><ele>477.57142857142856</ele><time>2026-05-03T06:48:32.258Z</time></trkpt><trkpt lat="38.1257267" lon="14.84311"><ele>477.2857142857143</ele><time>2026-05-03T06:48:33.258Z</time></trkpt><trkpt lat="38.1257083" lon="14.843195"><ele>477.0</ele><time>2026-05-03T06:48:34.258Z</time></trkpt><trkpt lat="38.1256983" lon="14.8432767"><ele>477.0</ele><time>2026-05-03T06:48:35.258Z</time></trkpt><trkpt lat="38.125625" lon="14.8434"><ele>477.00000000000006</ele><time>2026-05-03T06:48:37.258Z</time></trkpt><trkpt lat="38.125555" lon="14.8434433"><ele>477.00000000000006</ele><time>2026-05-03T06:48:38.257Z</time></trkpt><trkpt lat="38.125455" lon="14.8435117"><ele>477.0</ele><time>2026-05-03T06:48:40.258Z</time></trkpt><trkpt lat="38.1253533" lon="14.8435567"><ele>477.0</ele><time>2026-05-03T06:49:49.258Z</time></trkpt><trkpt lat="38.1252767" lon="14.84356"><ele>477.0</ele><time>2026-05-03T06:49:51.258Z</time></trkpt><trkpt lat="38.1251683" lon="14.8435467"><ele>477.00000000000006</ele><time>2026-05-03T06:49:53.258Z</time></trkpt><trkpt lat="38.12507" lon="14.8435033"><ele>477.00000000000006</ele><time>2026-05-03T06:49:55.258Z</time></trkpt><trkpt lat="38.124975" lon="14.843475"><ele>477.0</ele><time>2026-05-03T06:49:57.258Z</time></trkpt><trkpt lat="38.1248883" lon="14.8435017"><ele>477.0</ele><time>2026-05-03T06:49:59.258Z</time></trkpt><trkpt lat="38.124805" lon="14.8435467"><ele>477.0</ele><time>2026-05-03T06:50:01.258Z</time></trkpt><trkpt lat="38.124705" lon="14.843585"><ele>477.00000000000006</ele><time>2026-05-03T06:50:03.258Z</time></trkpt><trkpt lat="38.1246017" lon="14.843605"><ele>477.00000000000006</ele><time>2026-05-03T06:50:05.258Z</time></trkpt><trkpt lat="38.124485" lon="14.84361"><ele>477.0</ele><time>2026-05-03T06:50:07.258Z</time></trkpt><trkpt lat="38.1244067" lon="14.8436083"><ele>477.0</ele><time>2026-05-03T06:50:08.258Z</time></trkpt><trkpt lat="38.1243433" lon="14.8436067"><ele>477.0</ele><time>2026-05-03T06:50:09.257Z</time></trkpt><trkpt lat="38.1242367" lon="14.843625"><ele>477.0</ele><time>2026-05-03T06:50:11.258Z</time></trkpt><trkpt lat="38.1241183" lon="14.8436517"><ele>477.0</ele><time>2026-05-03T06:50:13.258Z</time></trkpt><trkpt lat="38.1240467" lon="14.8436683"><ele>477.0</ele><time>2026-05-03T06:50:14.258Z</time></trkpt><trkpt lat="38.12398" lon="14.8436733"><ele>477.0</ele><time>2026-05-03T06:50:15.258Z</time></trkpt><trkpt lat="38.1239133" lon="14.8436883"><ele>477.0</ele><time>2026-05-03T06:50:16.258Z</time></trkpt><trkpt lat="38.1238083" lon="14.8437583"><ele>470.75</ele><time>2026-05-03T06:50:18.258Z</time></trkpt><trkpt lat="38.12373" lon="14.8438717"><ele>464.5</ele><time>2026-05-03T06:50:20.258Z</time></trkpt><trkpt lat="38.1236433" lon="14.8439617"><ele>458.25</ele><time>2026-05-03T06:50:22.258Z</time></trkpt><trkpt lat="38.1235517" lon="14.8440567"><ele>452.0</ele><time>2026-05-03T06:50:24.258Z</time></trkpt><trkpt lat="38.12346" lon="14.84414"><ele>452.0</ele><time>2026-05-03T06:50:26.258Z</time></trkpt><trkpt lat="38.1234183" lon="14.8442217"><ele>452.00000000000006</ele><time>2026-05-03T06:50:28.258Z</time></trkpt><trkpt lat="38.1234083" lon="14.844365"><ele>452.00000000000006</ele><time>2026-05-03T06:50:30.258Z</time></trkpt><trkpt lat="38.1233817" lon="14.8445233"><ele>452.0</ele><time>2026-05-03T06:50:32.258Z</time></trkpt><trkpt lat="38.12337" lon="14.8446067"><ele>452.0</ele><time>2026-05-03T06:50:33.258Z</time></trkpt><trkpt lat="38.123355" lon="14.84477"><ele>453.3333333333333</ele><time>2026-05-03T06:50:35.258Z</time></trkpt><trkpt lat="38.1233233" lon="14.844935"><ele>454.66666666666663</ele><time>2026-05-03T06:50:37.258Z</time></trkpt><trkpt lat="38.1233033" lon="14.8450267"><ele>456.0</ele><time>2026-05-03T06:50:38.258Z</time></trkpt><trkpt lat="38.12327" lon="14.8451167"><ele>457.33333333333337</ele><time>2026-05-03T06:50:39.258Z</time></trkpt><trkpt lat="38.1232433" lon="14.8452083"><ele>458.6666666666667</ele><time>2026-05-03T06:50:40.258Z</time></trkpt><trkpt lat="38.1232183" lon="14.8453"><ele>460.0</ele><time>2026-05-03T06:50:41.257Z</time></trkpt><trkpt lat="38.1232067" lon="14.8453967"><ele>456.33333333333337</ele><time>2026-05-03T06:50:42.258Z</time></trkpt><trkpt lat="38.1231967" lon="14.845485"><ele>452.6666666666667</ele><time>2026-05-03T06:50:43.258Z</time></trkpt><trkpt lat="38.12317" lon="14.8455717"><ele>449.0</ele><time>2026-05-03T06:50:44.258Z</time></trkpt><trkpt lat="38.1230867" lon="14.8456533"><ele>445.33333333333337</ele><time>2026-05-03T06:50:46.257Z</time></trkpt><trkpt lat="38.1229917" lon="14.845635"><ele>441.6666666666667</ele><time>2026-05-03T06:50:48.258Z</time></trkpt><trkpt lat="38.1228883" lon="14.8456183"><ele>438.0</ele><time>2026-05-03T06:50:50.258Z</time></trkpt><trkpt lat="38.1228" lon="14.8456017"><ele>438.0</ele><time>2026-05-03T06:50:52.258Z</time></trkpt><trkpt lat="38.1227167" lon="14.8456"><ele>437.99999999999994</ele><time>2026-05-03T06:50:54.258Z</time></trkpt><trkpt lat="38.1226317" lon="14.845595"><ele>437.99999999999994</ele><time>2026-05-03T06:50:56.258Z</time></trkpt><trkpt lat="38.1225367" lon="14.84558"><ele>438.0</ele><time>2026-05-03T06:51:41.258Z</time></trkpt><trkpt lat="38.12244" lon="14.8455467"><ele>438.0</ele><time>2026-05-03T06:51:43.258Z</time></trkpt><trkpt lat="38.12232" lon="14.845515"><ele>434.3333333333333</ele><time>2026-05-03T06:51:45.258Z</time></trkpt><trkpt lat="38.1221967" lon="14.8454883"><ele>430.66666666666663</ele><time>2026-05-03T06:51:47.258Z</time></trkpt><trkpt lat="38.1221333" lon="14.8454783"><ele>427.0</ele><time>2026-05-03T06:51:48.257Z</time></trkpt><trkpt lat="38.1220233" lon="14.8454517"><ele>423.3333333333333</ele><time>2026-05-03T06:51:50.258Z</time></trkpt><trkpt lat="38.1219517" lon="14.8454417"><ele>419.66666666666663</ele><time>2026-05-03T06:51:52.258Z</time></trkpt><trkpt lat="38.121975" lon="14.8453667"><ele>416.0</ele><time>2026-05-03T06:51:56.258Z</time></trkpt><trkpt lat="38.1220783" lon="14.8453117"><ele>415.99999999999994</ele><time>2026-05-03T06:51:58.258Z</time></trkpt><trkpt lat="38.1221517" lon="14.8452317"><ele>416.0</ele><time>2026-05-03T06:52:00.258Z</time></trkpt><trkpt lat="38.12219" lon="14.845135"><ele>416.0</ele><time>2026-05-03T06:52:02.257Z</time></trkpt><trkpt lat="38.1221817" lon="14.845045"><ele>416.0</ele><time>2026-05-03T06:52:04.258Z</time></trkpt><trkpt lat="38.1221133" lon="14.8450333"><ele>415.99999999999994</ele><time>2026-05-03T06:52:06.257Z</time></trkpt><trkpt lat="38.1220033" lon="14.845075"><ele>416.0</ele><time>2026-05-03T06:52:08.258Z</time></trkpt><trkpt lat="38.1219067" lon="14.8450633"><ele>416.0</ele><time>2026-05-03T06:52:10.258Z</time></trkpt><trkpt lat="38.1218133" lon="14.8450233"><ele>416.0</ele><time>2026-05-03T06:52:12.258Z</time></trkpt><trkpt lat="38.121715" lon="14.8450583"><ele>416.0</ele><time>2026-05-03T06:52:14.258Z</time></trkpt><trkpt lat="38.12165" lon="14.8451717"><ele>416.0</ele><time>2026-05-03T06:52:16.258Z</time></trkpt><trkpt lat="38.1215833" lon="14.84528"><ele>416.0</ele><time>2026-05-03T06:52:18.258Z</time></trkpt><trkpt lat="38.121505" lon="14.8453467"><ele>411.99999999999994</ele><time>2026-05-03T06:52:20.258Z</time></trkpt><trkpt lat="38.1214217" lon="14.845365"><ele>408.0</ele><time>2026-05-03T06:52:22.258Z</time></trkpt><trkpt lat="38.1213267" lon="14.845355"><ele>404.0</ele><time>2026-05-03T06:52:24.258Z</time></trkpt><trkpt lat="38.121265" lon="14.8453233"><ele>400.0</ele><time>2026-05-03T06:52:25.257Z</time></trkpt><trkpt lat="38.1212067" lon="14.84529"><ele>395.99999999999994</ele><time>2026-05-03T06:52:26.258Z</time></trkpt><trkpt lat="38.1210867" lon="14.8452517"><ele>392.0</ele><time>2026-05-03T06:52:28.258Z</time></trkpt><trkpt lat="38.1209867" lon="14.8452917"><ele>392.0</ele><time>2026-05-03T06:52:30.258Z</time></trkpt><trkpt lat="38.12091" lon="14.8454083"><ele>392.0</ele><time>2026-05-03T06:52:32.258Z</time></trkpt><trkpt lat="38.1208767" lon="14.8454883"><ele>392.0</ele><time>2026-05-03T06:52:33.258Z</time></trkpt><trkpt lat="38.12083" lon="14.84564"><ele>392.0</ele><time>2026-05-03T06:52:35.258Z</time></trkpt><trkpt lat="38.12079" lon="14.84577"><ele>392.0</ele><time>2026-05-03T06:52:37.258Z</time></trkpt><trkpt lat="38.12075" lon="14.8458867"><ele>395.6</ele><time>2026-05-03T06:52:39.258Z</time></trkpt><trkpt lat="38.1207383" lon="14.8460333"><ele>399.20000000000005</ele><time>2026-05-03T06:52:41.258Z</time></trkpt><trkpt lat="38.1207333" lon="14.8461583"><ele>402.8</ele><time>2026-05-03T06:52:43.257Z</time></trkpt><trkpt lat="38.1206733" lon="14.8462383"><ele>406.4</ele><time>2026-05-03T06:52:45.258Z</time></trkpt><trkpt lat="38.1205883" lon="14.846305"><ele>410.0</ele><time>2026-05-03T06:52:47.258Z</time></trkpt><trkpt lat="38.1205183" lon="14.8462567"><ele>409.8</ele><time>2026-05-03T06:52:50.258Z</time></trkpt><trkpt lat="38.1205" lon="14.8461267"><ele>409.6</ele><time>2026-05-03T06:52:52.258Z</time></trkpt><trkpt lat="38.120455" lon="14.8460067"><ele>409.4</ele><time>2026-05-03T06:52:54.258Z</time></trkpt><trkpt lat="38.1203483" lon="14.845955"><ele>409.2</ele><time>2026-05-03T06:52:56.258Z</time></trkpt><trkpt lat="38.12028" lon="14.8459433"><ele>409.0</ele><time>2026-05-03T06:52:57.258Z</time></trkpt><trkpt lat="38.1202167" lon="14.8459167"><ele>409.00000000000006</ele><time>2026-05-03T06:52:58.258Z</time></trkpt><trkpt lat="38.1201433" lon="14.8458717"><ele>409.0</ele><time>2026-05-03T06:52:59.258Z</time></trkpt><trkpt lat="38.1200767" lon="14.845835"><ele>409.0</ele><time>2026-05-03T06:53:00.258Z</time></trkpt><trkpt lat="38.11998" lon="14.845775"><ele>409.0</ele><time>2026-05-03T06:53:02.258Z</time></trkpt><trkpt lat="38.1198917" lon="14.8457467"><ele>409.00000000000006</ele><time>2026-05-03T06:53:04.258Z</time></trkpt><trkpt lat="38.1198033" lon="14.8457417"><ele>409.0</ele><time>2026-05-03T06:53:06.257Z</time></trkpt><trkpt lat="38.11975" lon="14.84565"><ele>409.00000000000006</ele><time>2026-05-03T06:53:09.258Z</time></trkpt><trkpt lat="38.1197367" lon="14.8455717"><ele>409.0</ele><time>2026-05-03T06:53:11.258Z</time></trkpt><trkpt lat="38.1197733" lon="14.8454983"><ele>409.0</ele><time>2026-05-03T06:53:13.258Z</time></trkpt><trkpt lat="38.119875" lon="14.8454383"><ele>409.0</ele><time>2026-05-03T06:53:15.258Z</time></trkpt><trkpt lat="38.1199367" lon="14.8454183"><ele>409.00000000000006</ele><time>2026-05-03T06:53:16.258Z</time></trkpt><trkpt lat="38.1200017" lon="14.8454033"><ele>409.0</ele><time>2026-05-03T06:53:17.257Z</time></trkpt><trkpt lat="38.120115" lon="14.8453633"><ele>409.00000000000006</ele><time>2026-05-03T06:53:19.258Z</time></trkpt><trkpt lat="38.1201783" lon="14.8452733"><ele>409.0</ele><time>2026-05-03T06:53:21.258Z</time></trkpt><trkpt lat="38.120205" lon="14.8451983"><ele>409.0</ele><time>2026-05-03T06:53:22.258Z</time></trkpt><trkpt lat="38.1202333" lon="14.84509"><ele>409.0</ele><time>2026-05-03T06:53:23.258Z</time></trkpt><trkpt lat="38.1202567" lon="14.844995"><ele>409.00000000000006</ele><time>2026-05-03T06:53:24.258Z</time></trkpt><trkpt lat="38.120275" lon="14.8449083"><ele>409.0</ele><time>2026-05-03T06:53:25.258Z</time></trkpt><trkpt lat="38.1202867" lon="14.8448167"><ele>410.33333333333337</ele><time>2026-05-03T06:53:26.258Z</time></trkpt><trkpt lat="38.120295" lon="14.8447267"><ele>411.6666666666667</ele><time>2026-05-03T06:53:27.258Z</time></trkpt><trkpt lat="38.120305" lon="14.8446167"><ele>413.0</ele><time>2026-05-03T06:53:28.258Z</time></trkpt><trkpt lat="38.1203183" lon="14.8445083"><ele>414.33333333333337</ele><time>2026-05-03T06:53:29.258Z</time></trkpt><trkpt lat="38.1203383" lon="14.8444033"><ele>415.6666666666667</ele><time>2026-05-03T06:53:30.258Z</time></trkpt><trkpt lat="38.1203717" lon="14.844285"><ele>417.0</ele><time>2026-05-03T06:53:31.258Z</time></trkpt><trkpt lat="38.120405" lon="14.84416"><ele>419.40000000000003</ele><time>2026-05-03T06:53:32.258Z</time></trkpt><trkpt lat="38.120435" lon="14.84404"><ele>421.8</ele><time>2026-05-03T06:53:33.258Z</time></trkpt><trkpt lat="38.1204583" lon="14.8439183"><ele>424.2</ele><time>2026-05-03T06:53:34.258Z</time></trkpt><trkpt lat="38.1204717" lon="14.8438"><ele>426.6</ele><time>2026-05-03T06:53:35.258Z</time></trkpt><trkpt lat="38.12048" lon="14.843695"><ele>429.0</ele><time>2026-05-03T06:53:36.257Z</time></trkpt><trkpt lat="38.1204783" lon="14.843595"><ele>429.0</ele><time>2026-05-03T06:53:37.257Z</time></trkpt><trkpt lat="38.1204533" lon="14.8435167"><ele>429.0</ele><time>2026-05-03T06:53:38.258Z</time></trkpt><trkpt lat="38.1204117" lon="14.8433783"><ele>429.0</ele><time>2026-05-03T06:53:40.258Z</time></trkpt><trkpt lat="38.1203683" lon="14.8432817"><ele>429.0</ele><time>2026-05-03T06:53:42.258Z</time></trkpt><trkpt lat="38.1203233" lon="14.8431733"><ele>429.0</ele><time>2026-05-03T06:53:54.258Z</time></trkpt><trkpt lat="38.1203133" lon="14.843025"><ele>430.0</ele><time>2026-05-03T06:53:56.258Z</time></trkpt><trkpt lat="38.1203167" lon="14.8428917"><ele>431.0</ele><time>2026-05-03T06:53:58.258Z</time></trkpt><trkpt lat="38.1203283" lon="14.8428"><ele>432.0</ele><time>2026-05-03T06:54:00.258Z</time></trkpt><trkpt lat="38.1203333" lon="14.84268"><ele>433.0</ele><time>2026-05-03T06:54:02.258Z</time></trkpt><trkpt lat="38.120305" lon="14.8425667"><ele>434.0</ele><time>2026-05-03T06:54:04.258Z</time></trkpt><trkpt lat="38.12029" lon="14.842435"><ele>434.8333333333333</ele><time>2026-05-03T06:54:06.258Z</time></trkpt><trkpt lat="38.1203133" lon="14.8423333"><ele>435.66666666666663</ele><time>2026-05-03T06:54:08.258Z</time></trkpt><trkpt lat="38.1203783" lon="14.8422083"><ele>436.5</ele><time>2026-05-03T06:54:10.258Z</time></trkpt><trkpt lat="38.1204217" lon="14.8421483"><ele>437.33333333333337</ele><time>2026-05-03T06:54:11.257Z</time></trkpt><trkpt lat="38.1204733" lon="14.84208"><ele>438.1666666666667</ele><time>2026-05-03T06:54:13.258Z</time></trkpt><trkpt lat="38.120535" lon="14.8420183"><ele>439.0</ele><time>2026-05-03T06:54:15.258Z</time></trkpt><trkpt lat="38.1205583" lon="14.8418867"><ele>439.79999999999995</ele><time>2026-05-03T06:54:17.257Z</time></trkpt><trkpt lat="38.120545" lon="14.84171"><ele>440.59999999999997</ele><time>2026-05-03T06:54:19.258Z</time></trkpt><trkpt lat="38.120515" lon="14.84159"><ele>441.4</ele><time>2026-05-03T06:54:20.257Z</time></trkpt><trkpt lat="38.12049" lon="14.8414717"><ele>442.2</ele><time>2026-05-03T06:54:21.258Z</time></trkpt><trkpt lat="38.1204733" lon="14.84136"><ele>443.0</ele><time>2026-05-03T06:54:22.258Z</time></trkpt><trkpt lat="38.1204483" lon="14.84126"><ele>443.0</ele><time>2026-05-03T06:54:23.258Z</time></trkpt><trkpt lat="38.1204167" lon="14.8411733"><ele>442.99999999999994</ele><time>2026-05-03T06:54:24.258Z</time></trkpt><trkpt lat="38.12032" lon="14.8410833"><ele>442.99999999999994</ele><time>2026-05-03T06:54:26.258Z</time></trkpt><trkpt lat="38.1202617" lon="14.841035"><ele>443.0</ele><time>2026-05-03T06:54:27.258Z</time></trkpt><trkpt lat="38.120195" lon="14.8408917"><ele>443.0</ele><time>2026-05-03T06:54:29.258Z</time></trkpt><trkpt lat="38.12016" lon="14.8408"><ele>441.0</ele><time>2026-05-03T06:54:30.258Z</time></trkpt><trkpt lat="38.1200917" lon="14.840675"><ele>438.99999999999994</ele><time>2026-05-03T06:54:32.258Z</time></trkpt><trkpt lat="38.12004" lon="14.8405383"><ele>436.99999999999994</ele><time>2026-05-03T06:54:34.258Z</time></trkpt><trkpt lat="38.1200183" lon="14.8404333"><ele>435.0</ele><time>2026-05-03T06:54:35.258Z</time></trkpt><trkpt lat="38.11998" lon="14.84033"><ele>433.0</ele><time>2026-05-03T06:54:36.258Z</time></trkpt><trkpt lat="38.1199233" lon="14.8402317"><ele>435.59999999999997</ele><time>2026-05-03T06:54:37.257Z</time></trkpt><trkpt lat="38.1198467" lon="14.84012"><ele>438.19999999999993</ele><time>2026-05-03T06:54:38.259Z</time></trkpt><trkpt lat="38.11977" lon="14.8400033"><ele>440.8</ele><time>2026-05-03T06:54:39.258Z</time></trkpt><trkpt lat="38.1197017" lon="14.8398983"><ele>443.4</ele><time>2026-05-03T06:54:40.259Z</time></trkpt><trkpt lat="38.1196483" lon="14.839785"><ele>446.0</ele><time>2026-05-03T06:54:41.259Z</time></trkpt><trkpt lat="38.1195983" lon="14.8396667"><ele>446.0</ele><time>2026-05-03T06:54:42.258Z</time></trkpt><trkpt lat="38.1195317" lon="14.8395283"><ele>446.0</ele><time>2026-05-03T06:54:43.259Z</time></trkpt><trkpt lat="38.1194617" lon="14.8393883"><ele>446.0</ele><time>2026-05-03T06:54:44.259Z</time></trkpt><trkpt lat="38.1193933" lon="14.83926"><ele>446.0</ele><time>2026-05-03T06:54:45.259Z</time></trkpt><trkpt lat="38.119335" lon="14.839145"><ele>444.6</ele><time>2026-05-03T06:54:46.259Z</time></trkpt><trkpt lat="38.11928" lon="14.83904"><ele>443.20000000000005</ele><time>2026-05-03T06:54:47.259Z</time></trkpt><trkpt lat="38.1192283" lon="14.83893"><ele>441.79999999999995</ele><time>2026-05-03T06:54:48.259Z</time></trkpt><trkpt lat="38.1191733" lon="14.8388117"><ele>440.4</ele><time>2026-05-03T06:54:49.259Z</time></trkpt><trkpt lat="38.1191233" lon="14.8386883"><ele>439.0</ele><time>2026-05-03T06:54:50.259Z</time></trkpt><trkpt lat="38.119065" lon="14.8385833"><ele>443.0</ele><time>2026-05-03T06:54:51.259Z</time></trkpt><trkpt lat="38.1190083" lon="14.8384733"><ele>447.0</ele><time>2026-05-03T06:54:52.259Z</time></trkpt><trkpt lat="38.1189567" lon="14.8383717"><ele>451.0</ele><time>2026-05-03T06:54:53.259Z</time></trkpt><trkpt lat="38.11892" lon="14.8382483"><ele>455.0</ele><time>2026-05-03T06:54:54.259Z</time></trkpt><trkpt lat="38.1189067" lon="14.8381217"><ele>459.0</ele><time>2026-05-03T06:54:55.259Z</time></trkpt><trkpt lat="38.11889" lon="14.838005"><ele>459.0</ele><time>2026-05-03T06:54:56.259Z</time></trkpt><trkpt lat="38.1188583" lon="14.83791"><ele>459.0</ele><time>2026-05-03T06:54:57.259Z</time></trkpt><trkpt lat="38.1187967" lon="14.8378233"><ele>459.0</ele><time>2026-05-03T06:54:58.259Z</time></trkpt><trkpt lat="38.11873" lon="14.8377333"><ele>459.0</ele><time>2026-05-03T06:54:59.259Z</time></trkpt><trkpt lat="38.1186533" lon="14.83764"><ele>459.0</ele><time>2026-05-03T06:55:00.259Z</time></trkpt><trkpt lat="38.11857" lon="14.8375083"><ele>457.75</ele><time>2026-05-03T06:55:01.259Z</time></trkpt><trkpt lat="38.118475" lon="14.8373733"><ele>456.5</ele><time>2026-05-03T06:55:02.258Z</time></trkpt><trkpt lat="38.1184033" lon="14.8372367"><ele>455.25</ele><time>2026-05-03T06:55:03.259Z</time></trkpt><trkpt lat="38.1183433" lon="14.8371317"><ele>454.0</ele><time>2026-05-03T06:55:04.259Z</time></trkpt><trkpt lat="38.118305" lon="14.8370467"><ele>454.00000000000006</ele><time>2026-05-03T06:55:05.259Z</time></trkpt><trkpt lat="38.1182917" lon="14.83696"><ele>454.0</ele><time>2026-05-03T06:55:06.259Z</time></trkpt><trkpt lat="38.1182967" lon="14.8368233"><ele>454.0</ele><time>2026-05-03T06:55:08.258Z</time></trkpt><trkpt lat="38.1183483" lon="14.8367367"><ele>454.0</ele><time>2026-05-03T06:55:10.258Z</time></trkpt><trkpt lat="38.11828" lon="14.8366867"><ele>454.00000000000006</ele><time>2026-05-03T06:55:14.259Z</time></trkpt><trkpt lat="38.1182767" lon="14.8367867"><ele>454.0</ele><time>2026-05-03T06:55:17.258Z</time></trkpt><trkpt lat="38.1183233" lon="14.836875"><ele>454.00000000000006</ele><time>2026-05-03T06:55:19.259Z</time></trkpt><trkpt lat="38.1182967" lon="14.836965"><ele>454.0</ele><time>2026-05-03T06:55:21.259Z</time></trkpt><trkpt lat="38.1182367" lon="14.83706"><ele>454.0</ele><time>2026-05-03T06:55:23.258Z</time></trkpt><trkpt lat="38.1182133" lon="14.8371417"><ele>454.0</ele><time>2026-05-03T06:55:25.259Z</time></trkpt><trkpt lat="38.1182117" lon="14.8372483"><ele>454.00000000000006</ele><time>2026-05-03T06:55:28.259Z</time></trkpt><trkpt lat="38.11821" lon="14.8374067"><ele>454.0</ele><time>2026-05-03T06:55:30.259Z</time></trkpt><trkpt lat="38.118205" lon="14.8374983"><ele>454.83333333333337</ele><time>2026-05-03T06:55:31.259Z</time></trkpt><trkpt lat="38.1182067" lon="14.8376"><ele>455.6666666666667</ele><time>2026-05-03T06:55:32.259Z</time></trkpt><trkpt lat="38.1182183" lon="14.8376983"><ele>456.5</ele><time>2026-05-03T06:55:33.259Z</time></trkpt><trkpt lat="38.1182317" lon="14.8377817"><ele>457.33333333333337</ele><time>2026-05-03T06:55:34.259Z</time></trkpt><trkpt lat="38.118245" lon="14.8378783"><ele>458.1666666666667</ele><time>2026-05-03T06:55:35.259Z</time></trkpt><trkpt lat="38.1182567" lon="14.8379817"><ele>459.0</ele><time>2026-05-03T06:55:36.259Z</time></trkpt><trkpt lat="38.1182783" lon="14.8380867"><ele>459.0</ele><time>2026-05-03T06:55:37.259Z</time></trkpt><trkpt lat="38.118305" lon="14.8381783"><ele>459.0</ele><time>2026-05-03T06:55:38.259Z</time></trkpt><trkpt lat="38.1183383" lon="14.8382667"><ele>459.0</ele><time>2026-05-03T06:55:39.259Z</time></trkpt><trkpt lat="38.1183683" lon="14.838345"><ele>459.0</ele><time>2026-05-03T06:55:40.259Z</time></trkpt><trkpt lat="38.118405" lon="14.838475"><ele>459.0</ele><time>2026-05-03T06:55:42.259Z</time></trkpt><trkpt lat="38.1183967" lon="14.8386017"><ele>459.0</ele><time>2026-05-03T06:55:44.258Z</time></trkpt><trkpt lat="38.1183583" lon="14.8387583"><ele>460.4</ele><time>2026-05-03T06:55:46.258Z</time></trkpt><trkpt lat="38.11832" lon="14.8388667"><ele>461.79999999999995</ele><time>2026-05-03T06:55:48.258Z</time></trkpt><trkpt lat="38.1182933" lon="14.8389883"><ele>463.20000000000005</ele><time>2026-05-03T06:55:56.259Z</time></trkpt><trkpt lat="38.118275" lon="14.8390833"><ele>464.6</ele><time>2026-05-03T06:55:58.259Z</time></trkpt><trkpt lat="38.1182883" lon="14.8391867"><ele>466.0</ele><time>2026-05-03T06:56:00.259Z</time></trkpt><trkpt lat="38.1183433" lon="14.8393117"><ele>467.50000000000006</ele><time>2026-05-03T06:56:02.259Z</time></trkpt><trkpt lat="38.118395" lon="14.8394367"><ele>469.0</ele><time>2026-05-03T06:56:04.259Z</time></trkpt><trkpt lat="38.1184417" lon="14.8395483"><ele>470.5</ele><time>2026-05-03T06:56:06.259Z</time></trkpt><trkpt lat="38.1185083" lon="14.8396033"><ele>472.0</ele><time>2026-05-03T06:56:08.259Z</time></trkpt><trkpt lat="38.1185483" lon="14.8396767"><ele>473.50000000000006</ele><time>2026-05-03T06:56:10.259Z</time></trkpt><trkpt lat="38.118565" lon="14.839775"><ele>475.0</ele><time>2026-05-03T06:56:12.259Z</time></trkpt><trkpt lat="38.1185767" lon="14.8398983"><ele>475.00000000000006</ele><time>2026-05-03T06:56:14.259Z</time></trkpt><trkpt lat="38.1185867" lon="14.84001"><ele>475.0</ele><time>2026-05-03T06:56:16.259Z</time></trkpt><trkpt lat="38.1185967" lon="14.840095"><ele>475.0</ele><time>2026-05-03T06:56:27.259Z</time></trkpt><trkpt lat="38.1186483" lon="14.8401867"><ele>475.0</ele><time>2026-05-03T06:56:29.259Z</time></trkpt><trkpt lat="38.118705" lon="14.8402767"><ele>475.00000000000006</ele><time>2026-05-03T06:56:31.259Z</time></trkpt><trkpt lat="38.118765" lon="14.8403467"><ele>475.0</ele><time>2026-05-03T06:56:33.259Z</time></trkpt><trkpt lat="38.118805" lon="14.8404217"><ele>476.33333333333337</ele><time>2026-05-03T06:56:35.259Z</time></trkpt><trkpt lat="38.118835" lon="14.84052"><ele>477.6666666666667</ele><time>2026-05-03T06:56:38.258Z</time></trkpt><trkpt lat="38.11885" lon="14.840625"><ele>479.0</ele><time>2026-05-03T06:56:41.259Z</time></trkpt><trkpt lat="38.1188733" lon="14.8407067"><ele>480.33333333333337</ele><time>2026-05-03T06:56:43.259Z</time></trkpt><trkpt lat="38.1188967" lon="14.8408283"><ele>481.6666666666667</ele><time>2026-05-03T06:56:46.259Z</time></trkpt><trkpt lat="38.11893" lon="14.8408967"><ele>483.0</ele><time>2026-05-03T06:56:48.259Z</time></trkpt><trkpt lat="38.1189134" lon="14.8410124"><ele>484.5</ele><time>2026-05-03T06:57:23.259Z</time></trkpt><trkpt lat="38.1189653" lon="14.8410876"><ele>486.0</ele><time>2026-05-03T06:57:28.259Z</time></trkpt><trkpt lat="38.1189753" lon="14.8411816"><ele>487.5</ele><time>2026-05-03T06:57:41.259Z</time></trkpt><trkpt lat="38.1190191" lon="14.841251"><ele>489.0</ele><time>2026-05-03T06:57:43.259Z</time></trkpt><trkpt lat="38.1190663" lon="14.8413438"><ele>490.5</ele><time>2026-05-03T06:57:46.259Z</time></trkpt><trkpt lat="38.1191017" lon="14.8414315"><ele>492.0</ele><time>2026-05-03T06:57:49.259Z</time></trkpt><trkpt lat="38.1190553" lon="14.841371"><ele>492.0</ele><time>2026-05-03T06:59:15.259Z</time></trkpt><trkpt lat="38.1190172" lon="14.8412994"><ele>492.0</ele><time>2026-05-03T06:59:18.259Z</time></trkpt><trkpt lat="38.1189718" lon="14.8412298"><ele>492.0</ele><time>2026-05-03T06:59:21.259Z</time></trkpt><trkpt lat="38.1189317" lon="14.8411675"><ele>492.0</ele><time>2026-05-03T06:59:31.259Z</time></trkpt><trkpt lat="38.11884" lon="14.8411462"><ele>492.0</ele><time>2026-05-03T07:00:05.26Z</time></trkpt><trkpt lat="38.1187756" lon="14.8411591"><ele>492.0</ele><time>2026-05-03T07:00:07.26Z</time></trkpt><trkpt lat="38.1186822" lon="14.8411527"><ele>492.0</ele><time>2026-05-03T07:00:26.26Z</time></trkpt><trkpt lat="38.1186033" lon="14.8411994"><ele>492.0</ele><time>2026-05-03T07:00:28.26Z</time></trkpt><trkpt lat="38.118525" lon="14.8412363"><ele>492.0</ele><time>2026-05-03T07:00:30.26Z</time></trkpt><trkpt lat="38.1184639" lon="14.8412654"><ele>492.0</ele><time>2026-05-03T07:00:32.259Z</time></trkpt><trkpt lat="38.1183913" lon="14.8413148"><ele>492.0</ele><time>2026-05-03T07:00:35.26Z</time></trkpt><trkpt lat="38.1183191" lon="14.8413501"><ele>492.0</ele><time>2026-05-03T07:00:43.26Z</time></trkpt><trkpt lat="38.1182657" lon="14.8413061"><ele>496.1666666666667</ele><time>2026-05-03T07:00:48.26Z</time></trkpt><trkpt lat="38.1181943" lon="14.8412694"><ele>500.33333333333337</ele><time>2026-05-03T07:00:55.26Z</time></trkpt><trkpt lat="38.1181287" lon="14.8412031"><ele>504.5</ele><time>2026-05-03T07:00:57.26Z</time></trkpt><trkpt lat="38.1180746" lon="14.8411096"><ele>508.6666666666667</ele><time>2026-05-03T07:00:59.26Z</time></trkpt><trkpt lat="38.1180425" lon="14.8410207"><ele>512.8333333333334</ele><time>2026-05-03T07:01:01.26Z</time></trkpt><trkpt lat="38.1179781" lon="14.8409798"><ele>517.0</ele><time>2026-05-03T07:01:05.26Z</time></trkpt><trkpt lat="38.1179275" lon="14.8410383"><ele>517.0</ele><time>2026-05-03T07:01:07.26Z</time></trkpt><trkpt lat="38.11787" lon="14.8411016"><ele>517.0</ele><time>2026-05-03T07:01:09.26Z</time></trkpt><trkpt lat="38.1178158" lon="14.8411759"><ele>517.0</ele><time>2026-05-03T07:01:11.26Z</time></trkpt><trkpt lat="38.1177712" lon="14.8412685"><ele>517.0</ele><time>2026-05-03T07:01:13.26Z</time></trkpt><trkpt lat="38.1177518" lon="14.8413733"><ele>517.0</ele><time>2026-05-03T07:01:15.26Z</time></trkpt><trkpt lat="38.117744" lon="14.8414555"><ele>517.0</ele><time>2026-05-03T07:01:17.26Z</time></trkpt><trkpt lat="38.1177065" lon="14.8415314"><ele>517.0</ele><time>2026-05-03T07:01:20.259Z</time></trkpt><trkpt lat="38.1176417" lon="14.8414493"><ele>517.0</ele><time>2026-05-03T07:01:23.26Z</time></trkpt><trkpt lat="38.1175623" lon="14.8413238"><ele>517.0</ele><time>2026-05-03T07:01:25.26Z</time></trkpt><trkpt lat="38.117516" lon="14.8412529"><ele>517.0</ele><time>2026-05-03T07:01:26.26Z</time></trkpt><trkpt lat="38.1174702" lon="14.8411892"><ele>517.0</ele><time>2026-05-03T07:01:27.26Z</time></trkpt><trkpt lat="38.1173893" lon="14.8410851"><ele>524.75</ele><time>2026-05-03T07:01:29.26Z</time></trkpt><trkpt lat="38.1173116" lon="14.8409871"><ele>532.5</ele><time>2026-05-03T07:01:31.26Z</time></trkpt><trkpt lat="38.1172616" lon="14.8408808"><ele>540.25</ele><time>2026-05-03T07:01:33.26Z</time></trkpt><trkpt lat="38.1171768" lon="14.8407496"><ele>548.0</ele><time>2026-05-03T07:01:35.26Z</time></trkpt><trkpt lat="38.1171018" lon="14.8406388"><ele>548.0</ele><time>2026-05-03T07:01:37.26Z</time></trkpt><trkpt lat="38.1170259" lon="14.8405794"><ele>548.0</ele><time>2026-05-03T07:01:39.26Z</time></trkpt><trkpt lat="38.1169785" lon="14.8406467"><ele>548.0</ele><time>2026-05-03T07:01:41.26Z</time></trkpt><trkpt lat="38.1170116" lon="14.8407558"><ele>548.0</ele><time>2026-05-03T07:01:43.26Z</time></trkpt><trkpt lat="38.117029" lon="14.8408683"><ele>548.0</ele><time>2026-05-03T07:01:45.26Z</time></trkpt><trkpt lat="38.1169406" lon="14.8408443"><ele>548.0</ele><time>2026-05-03T07:01:49.26Z</time></trkpt><trkpt lat="38.1168852" lon="14.8407558"><ele>548.0</ele><time>2026-05-03T07:01:51.26Z</time></trkpt><trkpt lat="38.1168629" lon="14.8406607"><ele>548.0</ele><time>2026-05-03T07:01:53.26Z</time></trkpt><trkpt lat="38.1168752" lon="14.8405621"><ele>548.0</ele><time>2026-05-03T07:01:55.26Z</time></trkpt><trkpt lat="38.1169052" lon="14.8404662"><ele>548.0</ele><time>2026-05-03T07:01:57.26Z</time></trkpt><trkpt lat="38.1169516" lon="14.8403725"><ele>548.0</ele><time>2026-05-03T07:01:59.26Z</time></trkpt><trkpt lat="38.1169664" lon="14.8402293"><ele>548.0</ele><time>2026-05-03T07:02:01.26Z</time></trkpt><trkpt lat="38.1169235" lon="14.8400907"><ele>548.0</ele><time>2026-05-03T07:02:03.26Z</time></trkpt><trkpt lat="38.116844" lon="14.8399993"><ele>548.0</ele><time>2026-05-03T07:02:05.26Z</time></trkpt><trkpt lat="38.1167491" lon="14.8399147"><ele>548.0</ele><time>2026-05-03T07:02:07.26Z</time></trkpt><trkpt lat="38.1166897" lon="14.8398761"><ele>548.0</ele><time>2026-05-03T07:02:08.26Z</time></trkpt><trkpt lat="38.1166258" lon="14.8398418"><ele>548.0</ele><time>2026-05-03T07:02:09.26Z</time></trkpt><trkpt lat="38.1165607" lon="14.8398029"><ele>548.0</ele><time>2026-05-03T07:02:10.26Z</time></trkpt><trkpt lat="38.1165017" lon="14.8397584"><ele>548.0</ele><time>2026-05-03T07:02:11.26Z</time></trkpt><trkpt lat="38.116431" lon="14.8396958"><ele>548.0</ele><time>2026-05-03T07:02:13.26Z</time></trkpt><trkpt lat="38.1163787" lon="14.8396279"><ele>548.0</ele><time>2026-05-03T07:02:56.26Z</time></trkpt><trkpt lat="38.1163161" lon="14.8396815"><ele>548.0</ele><time>2026-05-03T07:04:17.26Z</time></trkpt><trkpt lat="38.1163135" lon="14.8398298"><ele>548.0</ele><time>2026-05-03T07:04:19.26Z</time></trkpt><trkpt lat="38.1163176" lon="14.8399839"><ele>548.0</ele><time>2026-05-03T07:04:21.26Z</time></trkpt><trkpt lat="38.1163229" lon="14.8400728"><ele>548.0</ele><time>2026-05-03T07:04:22.26Z</time></trkpt><trkpt lat="38.1163275" lon="14.8401868"><ele>548.0</ele><time>2026-05-03T07:04:23.26Z</time></trkpt><trkpt lat="38.1163235" lon="14.8403202"><ele>548.0</ele><time>2026-05-03T07:04:24.26Z</time></trkpt><trkpt lat="38.116308" lon="14.840471"><ele>548.0</ele><time>2026-05-03T07:04:25.26Z</time></trkpt><trkpt lat="38.1162814" lon="14.8406377"><ele>551.6</ele><time>2026-05-03T07:04:26.26Z</time></trkpt><trkpt lat="38.116251" lon="14.8407962"><ele>555.1999999999999</ele><time>2026-05-03T07:04:27.26Z</time></trkpt><trkpt lat="38.1162307" lon="14.8409097"><ele>558.8</ele><time>2026-05-03T07:04:28.26Z</time></trkpt><trkpt lat="38.116214" lon="14.8409875"><ele>562.4</ele><time>2026-05-03T07:04:29.26Z</time></trkpt><trkpt lat="38.116164" lon="14.8410717"><ele>566.0</ele><time>2026-05-03T07:04:31.26Z</time></trkpt><trkpt lat="38.1160932" lon="14.8411644"><ele>568.8</ele><time>2026-05-03T07:04:33.26Z</time></trkpt><trkpt lat="38.1160593" lon="14.8412459"><ele>571.6</ele><time>2026-05-03T07:04:34.26Z</time></trkpt><trkpt lat="38.116031" lon="14.8413516"><ele>574.4</ele><time>2026-05-03T07:04:35.26Z</time></trkpt><trkpt lat="38.116009" lon="14.8414803"><ele>577.2</ele><time>2026-05-03T07:04:36.259Z</time></trkpt><trkpt lat="38.1160077" lon="14.8416124"><ele>580.0</ele><time>2026-05-03T07:04:37.259Z</time></trkpt><trkpt lat="38.1160322" lon="14.841742"><ele>582.3333333333334</ele><time>2026-05-03T07:04:38.26Z</time></trkpt><trkpt lat="38.1160716" lon="14.8418486"><ele>584.6666666666667</ele><time>2026-05-03T07:04:39.259Z</time></trkpt><trkpt lat="38.1161119" lon="14.8419538"><ele>587.0</ele><time>2026-05-03T07:04:40.26Z</time></trkpt><trkpt lat="38.1161502" lon="14.8420502"><ele>589.3333333333334</ele><time>2026-05-03T07:04:41.26Z</time></trkpt><trkpt lat="38.116171" lon="14.8421384"><ele>591.6666666666666</ele><time>2026-05-03T07:04:42.26Z</time></trkpt><trkpt lat="38.1161728" lon="14.8422187"><ele>594.0</ele><time>2026-05-03T07:04:43.259Z</time></trkpt><trkpt lat="38.1161563" lon="14.8423037"><ele>594.0</ele><time>2026-05-03T07:04:44.26Z</time></trkpt><trkpt lat="38.1161315" lon="14.8423906"><ele>594.0</ele><time>2026-05-03T07:04:45.259Z</time></trkpt><trkpt lat="38.1161024" lon="14.8424801"><ele>594.0</ele><time>2026-05-03T07:04:46.26Z</time></trkpt><trkpt lat="38.1160662" lon="14.8425633"><ele>594.0</ele><time>2026-05-03T07:04:47.259Z</time></trkpt><trkpt lat="38.1160161" lon="14.8426372"><ele>594.0</ele><time>2026-05-03T07:04:48.26Z</time></trkpt><trkpt lat="38.115955" lon="14.8427059"><ele>594.0</ele><time>2026-05-03T07:04:49.26Z</time></trkpt><trkpt lat="38.1158866" lon="14.8427705"><ele>594.8333333333334</ele><time>2026-05-03T07:04:50.26Z</time></trkpt><trkpt lat="38.115813" lon="14.8428193"><ele>595.6666666666666</ele><time>2026-05-03T07:04:51.26Z</time></trkpt><trkpt lat="38.11574" lon="14.8428548"><ele>596.5</ele><time>2026-05-03T07:04:52.26Z</time></trkpt><trkpt lat="38.1156786" lon="14.8428859"><ele>597.3333333333333</ele><time>2026-05-03T07:04:53.26Z</time></trkpt><trkpt lat="38.1155872" lon="14.8429318"><ele>598.1666666666666</ele><time>2026-05-03T07:04:55.26Z</time></trkpt><trkpt lat="38.1155254" lon="14.8429725"><ele>599.0</ele><time>2026-05-03T07:04:57.259Z</time></trkpt><trkpt lat="38.1154571" lon="14.8430532"><ele>600.75</ele><time>2026-05-03T07:05:00.26Z</time></trkpt><trkpt lat="38.1153954" lon="14.8432153"><ele>602.5</ele><time>2026-05-03T07:05:02.26Z</time></trkpt><trkpt lat="38.1153507" lon="14.8433306"><ele>604.25</ele><time>2026-05-03T07:05:03.26Z</time></trkpt><trkpt lat="38.1152801" lon="14.8434575"><ele>606.0</ele><time>2026-05-03T07:05:04.26Z</time></trkpt><trkpt lat="38.1152162" lon="14.8435873"><ele>607.0</ele><time>2026-05-03T07:05:05.26Z</time></trkpt><trkpt lat="38.1151577" lon="14.8437111"><ele>608.0</ele><time>2026-05-03T07:05:06.26Z</time></trkpt><trkpt lat="38.1151059" lon="14.8438267"><ele>609.0</ele><time>2026-05-03T07:05:07.26Z</time></trkpt><trkpt lat="38.1150567" lon="14.8439409"><ele>610.0</ele><time>2026-05-03T07:05:08.26Z</time></trkpt><trkpt lat="38.1150078" lon="14.8440561"><ele>611.0</ele><time>2026-05-03T07:05:09.26Z</time></trkpt><trkpt lat="38.1149605" lon="14.8441725"><ele>612.8</ele><time>2026-05-03T07:05:10.26Z</time></trkpt><trkpt lat="38.1149187" lon="14.8442986"><ele>614.6</ele><time>2026-05-03T07:05:11.26Z</time></trkpt><trkpt lat="38.1148809" lon="14.8444263"><ele>616.4</ele><time>2026-05-03T07:05:12.26Z</time></trkpt><trkpt lat="38.1148377" lon="14.8445508"><ele>618.2</ele><time>2026-05-03T07:05:13.26Z</time></trkpt><trkpt lat="38.114782" lon="14.8446469"><ele>620.0</ele><time>2026-05-03T07:05:14.26Z</time></trkpt><trkpt lat="38.1147122" lon="14.8447142"><ele>623.4</ele><time>2026-05-03T07:05:15.26Z</time></trkpt><trkpt lat="38.1146515" lon="14.84477"><ele>626.8</ele><time>2026-05-03T07:05:16.26Z</time></trkpt><trkpt lat="38.1146099" lon="14.8448796"><ele>630.2</ele><time>2026-05-03T07:05:18.259Z</time></trkpt><trkpt lat="38.1146214" lon="14.8450036"><ele>633.6</ele><time>2026-05-03T07:05:20.26Z</time></trkpt><trkpt lat="38.1145462" lon="14.8451305"><ele>637.0</ele><time>2026-05-03T07:05:22.261Z</time></trkpt><trkpt lat="38.1144842" lon="14.8451984"><ele>639.0</ele><time>2026-05-03T07:05:23.261Z</time></trkpt><trkpt lat="38.1144291" lon="14.845282"><ele>641.0</ele><time>2026-05-03T07:05:24.261Z</time></trkpt><trkpt lat="38.1143793" lon="14.8453799"><ele>643.0</ele><time>2026-05-03T07:05:25.261Z</time></trkpt><trkpt lat="38.1143321" lon="14.845503"><ele>645.0</ele><time>2026-05-03T07:05:26.261Z</time></trkpt><trkpt lat="38.1142921" lon="14.8456374"><ele>647.0</ele><time>2026-05-03T07:05:27.26Z</time></trkpt><trkpt lat="38.1142501" lon="14.8457634"><ele>647.0</ele><time>2026-05-03T07:05:28.261Z</time></trkpt><trkpt lat="38.114193" lon="14.8458465"><ele>647.0</ele><time>2026-05-03T07:05:29.261Z</time></trkpt><trkpt lat="38.114125" lon="14.8459019"><ele>647.0</ele><time>2026-05-03T07:05:30.261Z</time></trkpt><trkpt lat="38.1140267" lon="14.8459083"><ele>647.0</ele><time>2026-05-03T07:05:31.261Z</time></trkpt><trkpt lat="38.1139133" lon="14.8459167"><ele>647.0</ele><time>2026-05-03T07:05:32.261Z</time></trkpt><trkpt lat="38.1138117" lon="14.8459533"><ele>650.8</ele><time>2026-05-03T07:05:33.261Z</time></trkpt><trkpt lat="38.1137283" lon="14.8460083"><ele>654.6</ele><time>2026-05-03T07:05:34.261Z</time></trkpt><trkpt lat="38.1136633" lon="14.8460933"><ele>658.4</ele><time>2026-05-03T07:05:35.261Z</time></trkpt><trkpt lat="38.1136133" lon="14.846205"><ele>662.1999999999999</ele><time>2026-05-03T07:05:36.261Z</time></trkpt><trkpt lat="38.1135583" lon="14.8463417"><ele>666.0</ele><time>2026-05-03T07:05:37.261Z</time></trkpt><trkpt lat="38.11351" lon="14.8464783"><ele>666.0</ele><time>2026-05-03T07:05:38.26Z</time></trkpt><trkpt lat="38.1134817" lon="14.8466133"><ele>666.0</ele><time>2026-05-03T07:05:39.261Z</time></trkpt><trkpt lat="38.113475" lon="14.8467467"><ele>666.0</ele><time>2026-05-03T07:05:40.261Z</time></trkpt><trkpt lat="38.113485" lon="14.8468783"><ele>666.0</ele><time>2026-05-03T07:05:41.261Z</time></trkpt><trkpt lat="38.1134867" lon="14.8469967"><ele>666.0</ele><time>2026-05-03T07:05:42.261Z</time></trkpt><trkpt lat="38.1134667" lon="14.847115"><ele>667.8333333333334</ele><time>2026-05-03T07:05:43.261Z</time></trkpt><trkpt lat="38.1134417" lon="14.8472133"><ele>669.6666666666666</ele><time>2026-05-03T07:05:44.261Z</time></trkpt><trkpt lat="38.113415" lon="14.847295"><ele>671.5</ele><time>2026-05-03T07:05:45.261Z</time></trkpt><trkpt lat="38.1133733" lon="14.8474083"><ele>673.3333333333333</ele><time>2026-05-03T07:05:47.261Z</time></trkpt><trkpt lat="38.1133433" lon="14.847505"><ele>675.1666666666666</ele><time>2026-05-03T07:05:49.261Z</time></trkpt><trkpt lat="38.1133083" lon="14.8476033"><ele>677.0</ele><time>2026-05-03T07:05:52.261Z</time></trkpt><trkpt lat="38.1132783" lon="14.8476767"><ele>677.0</ele><time>2026-05-03T07:05:54.26Z</time></trkpt><trkpt lat="38.113235" lon="14.8477767"><ele>677.0</ele><time>2026-05-03T07:05:57.26Z</time></trkpt><trkpt lat="38.1132" lon="14.8478433"><ele>677.0</ele><time>2026-05-03T07:05:59.26Z</time></trkpt><trkpt lat="38.1131517" lon="14.847935"><ele>677.0</ele><time>2026-05-03T07:06:02.261Z</time></trkpt><trkpt lat="38.113215" lon="14.8478975"><ele>677.0</ele><time>2026-05-03T07:06:59.261Z</time></trkpt><trkpt lat="38.1132839" lon="14.8477894"><ele>677.0</ele><time>2026-05-03T07:07:01.261Z</time></trkpt><trkpt lat="38.1132169" lon="14.8478579"><ele>679.4285714285713</ele><time>2026-05-03T07:07:07.261Z</time></trkpt><trkpt lat="38.1131872" lon="14.8479604"><ele>681.8571428571429</ele><time>2026-05-03T07:07:09.261Z</time></trkpt><trkpt lat="38.1131516" lon="14.8480565"><ele>684.2857142857142</ele><time>2026-05-03T07:07:11.26Z</time></trkpt><trkpt lat="38.1131171" lon="14.8481373"><ele>686.7142857142857</ele><time>2026-05-03T07:07:13.261Z</time></trkpt><trkpt lat="38.1130958" lon="14.8482183"><ele>689.1428571428571</ele><time>2026-05-03T07:07:15.261Z</time></trkpt><trkpt lat="38.1130766" lon="14.8482985"><ele>691.5714285714286</ele><time>2026-05-03T07:07:17.261Z</time></trkpt><trkpt lat="38.1130525" lon="14.8483776"><ele>694.0</ele><time>2026-05-03T07:07:19.261Z</time></trkpt><trkpt lat="38.1130286" lon="14.8484719"><ele>696.6666666666667</ele><time>2026-05-03T07:07:22.261Z</time></trkpt><trkpt lat="38.1130184" lon="14.8485738"><ele>699.3333333333334</ele><time>2026-05-03T07:07:25.261Z</time></trkpt><trkpt lat="38.1129792" lon="14.8486737"><ele>702.0</ele><time>2026-05-03T07:07:28.261Z</time></trkpt><trkpt lat="38.1129233" lon="14.848775"><ele>704.6666666666666</ele><time>2026-05-03T07:07:31.261Z</time></trkpt><trkpt lat="38.1128767" lon="14.8488383"><ele>707.3333333333333</ele><time>2026-05-03T07:07:33.261Z</time></trkpt><trkpt lat="38.1128267" lon="14.8488917"><ele>710.0</ele><time>2026-05-03T07:07:35.26Z</time></trkpt><trkpt lat="38.1127533" lon="14.8489233"><ele>710.0</ele><time>2026-05-03T07:07:37.261Z</time></trkpt><trkpt lat="38.1126633" lon="14.8489567"><ele>710.0</ele><time>2026-05-03T07:07:39.261Z</time></trkpt><trkpt lat="38.1125467" lon="14.8490217"><ele>710.0</ele><time>2026-05-03T07:07:41.261Z</time></trkpt><trkpt lat="38.1124883" lon="14.8490683"><ele>710.0</ele><time>2026-05-03T07:07:42.261Z</time></trkpt><trkpt lat="38.1123833" lon="14.8491383"><ele>710.0</ele><time>2026-05-03T07:07:44.261Z</time></trkpt><trkpt lat="38.1122817" lon="14.849205"><ele>710.2</ele><time>2026-05-03T07:07:46.261Z</time></trkpt><trkpt lat="38.1121567" lon="14.849245"><ele>710.4</ele><time>2026-05-03T07:07:48.261Z</time></trkpt><trkpt lat="38.1120317" lon="14.84929"><ele>710.5999999999999</ele><time>2026-05-03T07:07:50.261Z</time></trkpt><trkpt lat="38.1119767" lon="14.849335"><ele>710.8</ele><time>2026-05-03T07:07:51.261Z</time></trkpt><trkpt lat="38.111925" lon="14.8493967"><ele>711.0</ele><time>2026-05-03T07:07:52.261Z</time></trkpt><trkpt lat="38.111835" lon="14.8494967"><ele>712.3333333333334</ele><time>2026-05-03T07:07:54.261Z</time></trkpt><trkpt lat="38.11175" lon="14.8496183"><ele>713.6666666666666</ele><time>2026-05-03T07:07:56.261Z</time></trkpt><trkpt lat="38.1117067" lon="14.8496983"><ele>715.0</ele><time>2026-05-03T07:07:57.261Z</time></trkpt><trkpt lat="38.1116667" lon="14.8497717"><ele>716.3333333333333</ele><time>2026-05-03T07:07:58.261Z</time></trkpt><trkpt lat="38.1116283" lon="14.8498467"><ele>717.6666666666666</ele><time>2026-05-03T07:07:59.261Z</time></trkpt><trkpt lat="38.1115883" lon="14.8499283"><ele>719.0</ele><time>2026-05-03T07:08:00.26Z</time></trkpt><trkpt lat="38.1115467" lon="14.8500183"><ele>719.0</ele><time>2026-05-03T07:08:01.261Z</time></trkpt><trkpt lat="38.1115017" lon="14.8501183"><ele>719.0</ele><time>2026-05-03T07:08:02.261Z</time></trkpt><trkpt lat="38.1114583" lon="14.8502183"><ele>719.0</ele><time>2026-05-03T07:08:03.261Z</time></trkpt><trkpt lat="38.1114" lon="14.8503067"><ele>719.0</ele><time>2026-05-03T07:08:04.261Z</time></trkpt><trkpt lat="38.1113467" lon="14.8504017"><ele>719.0</ele><time>2026-05-03T07:08:05.261Z</time></trkpt><trkpt lat="38.1112967" lon="14.850485"><ele>719.0</ele><time>2026-05-03T07:08:06.261Z</time></trkpt><trkpt lat="38.1112467" lon="14.850565"><ele>721.6666666666666</ele><time>2026-05-03T07:08:07.261Z</time></trkpt><trkpt lat="38.1112067" lon="14.8506683"><ele>724.3333333333333</ele><time>2026-05-03T07:08:08.261Z</time></trkpt><trkpt lat="38.111155" lon="14.8507667"><ele>727.0</ele><time>2026-05-03T07:08:09.261Z</time></trkpt><trkpt lat="38.1111067" lon="14.850865"><ele>729.6666666666666</ele><time>2026-05-03T07:08:10.261Z</time></trkpt><trkpt lat="38.11107" lon="14.85096"><ele>732.3333333333334</ele><time>2026-05-03T07:08:11.261Z</time></trkpt><trkpt lat="38.1110433" lon="14.8510333"><ele>735.0</ele><time>2026-05-03T07:08:12.26Z</time></trkpt><trkpt lat="38.1110167" lon="14.8511367"><ele>737.8</ele><time>2026-05-03T07:08:14.261Z</time></trkpt><trkpt lat="38.1109933" lon="14.8512333"><ele>740.6</ele><time>2026-05-03T07:08:16.261Z</time></trkpt><trkpt lat="38.110965" lon="14.851355"><ele>743.4000000000001</ele><time>2026-05-03T07:08:18.261Z</time></trkpt><trkpt lat="38.1109383" lon="14.8514967"><ele>746.2</ele><time>2026-05-03T07:08:20.261Z</time></trkpt><trkpt lat="38.1109167" lon="14.8516433"><ele>749.0</ele><time>2026-05-03T07:08:22.261Z</time></trkpt><trkpt lat="38.1109067" lon="14.8517683"><ele>747.4000000000001</ele><time>2026-05-03T07:08:24.261Z</time></trkpt><trkpt lat="38.1108967" lon="14.851895"><ele>745.8</ele><time>2026-05-03T07:08:26.261Z</time></trkpt><trkpt lat="38.1108633" lon="14.8520183"><ele>744.2</ele><time>2026-05-03T07:08:28.261Z</time></trkpt><trkpt lat="38.1108017" lon="14.8521367"><ele>742.5999999999999</ele><time>2026-05-03T07:08:30.261Z</time></trkpt><trkpt lat="38.1107133" lon="14.85223"><ele>741.0</ele><time>2026-05-03T07:08:32.261Z</time></trkpt><trkpt lat="38.110675" lon="14.852295"><ele>741.0</ele><time>2026-05-03T07:08:33.261Z</time></trkpt><trkpt lat="38.1106433" lon="14.8523667"><ele>741.0</ele><time>2026-05-03T07:08:34.261Z</time></trkpt><trkpt lat="38.110585" lon="14.85249"><ele>741.0</ele><time>2026-05-03T07:08:36.261Z</time></trkpt><trkpt lat="38.1105519" lon="14.852603"><ele>741.0</ele><time>2026-05-03T07:08:38.261Z</time></trkpt><trkpt lat="38.1105886" lon="14.8526693"><ele>741.0</ele><time>2026-05-03T07:08:40.261Z</time></trkpt><trkpt lat="38.1106702" lon="14.8526377"><ele>741.0</ele><time>2026-05-03T07:08:42.261Z</time></trkpt><trkpt lat="38.1107718" lon="14.8525892"><ele>743.8333333333334</ele><time>2026-05-03T07:08:44.261Z</time></trkpt><trkpt lat="38.1108613" lon="14.852581"><ele>746.6666666666666</ele><time>2026-05-03T07:08:46.261Z</time></trkpt><trkpt lat="38.1108958" lon="14.8526836"><ele>749.5</ele><time>2026-05-03T07:08:49.261Z</time></trkpt><trkpt lat="38.1108408" lon="14.8528105"><ele>752.3333333333333</ele><time>2026-05-03T07:08:51.261Z</time></trkpt><trkpt lat="38.1108088" lon="14.8528915"><ele>755.1666666666666</ele><time>2026-05-03T07:08:52.26Z</time></trkpt><trkpt lat="38.1107801" lon="14.8529763"><ele>758.0</ele><time>2026-05-03T07:08:53.261Z</time></trkpt><trkpt lat="38.1107533" lon="14.8530583"><ele>757.8</ele><time>2026-05-03T07:08:54.261Z</time></trkpt><trkpt lat="38.1107332" lon="14.8532051"><ele>757.5999999999999</ele><time>2026-05-03T07:08:56.261Z</time></trkpt><trkpt lat="38.1107381" lon="14.8533453"><ele>757.4000000000001</ele><time>2026-05-03T07:08:58.261Z</time></trkpt><trkpt lat="38.1107568" lon="14.8534979"><ele>757.2</ele><time>2026-05-03T07:09:00.261Z</time></trkpt><trkpt lat="38.1107703" lon="14.8535884"><ele>757.0</ele><time>2026-05-03T07:09:01.261Z</time></trkpt><trkpt lat="38.1107846" lon="14.8536789"><ele>759.6</ele><time>2026-05-03T07:09:02.261Z</time></trkpt><trkpt lat="38.1107867" lon="14.8537607"><ele>762.2</ele><time>2026-05-03T07:09:03.261Z</time></trkpt><trkpt lat="38.1107417" lon="14.8538825"><ele>764.8</ele><time>2026-05-03T07:09:05.26Z</time></trkpt><trkpt lat="38.1106675" lon="14.8540072"><ele>767.4</ele><time>2026-05-03T07:09:07.261Z</time></trkpt><trkpt lat="38.1106035" lon="14.8541266"><ele>770.0</ele><time>2026-05-03T07:09:09.261Z</time></trkpt><trkpt lat="38.1105424" lon="14.8542306"><ele>771.1666666666667</ele><time>2026-05-03T07:09:11.261Z</time></trkpt><trkpt lat="38.1104773" lon="14.8543331"><ele>772.3333333333334</ele><time>2026-05-03T07:09:13.261Z</time></trkpt><trkpt lat="38.1104232" lon="14.854399"><ele>773.5</ele><time>2026-05-03T07:09:15.261Z</time></trkpt><trkpt lat="38.1103494" lon="14.8544604"><ele>774.6666666666667</ele><time>2026-05-03T07:09:19.261Z</time></trkpt><trkpt lat="38.1102941" lon="14.8545186"><ele>775.8333333333334</ele><time>2026-05-03T07:09:21.261Z</time></trkpt><trkpt lat="38.1102342" lon="14.8545913"><ele>777.0</ele><time>2026-05-03T07:09:23.261Z</time></trkpt><trkpt lat="38.110165" lon="14.8546689"><ele>777.0</ele><time>2026-05-03T07:09:25.261Z</time></trkpt><trkpt lat="38.1101303" lon="14.8547382"><ele>777.0</ele><time>2026-05-03T07:09:26.26Z</time></trkpt><trkpt lat="38.1101056" lon="14.8548249"><ele>777.0</ele><time>2026-05-03T07:09:27.261Z</time></trkpt><trkpt lat="38.1100833" lon="14.8549216"><ele>777.0</ele><time>2026-05-03T07:09:28.261Z</time></trkpt><trkpt lat="38.1100618" lon="14.8550148"><ele>777.0</ele><time>2026-05-03T07:09:29.261Z</time></trkpt><trkpt lat="38.1100252" lon="14.8551082"><ele>777.0</ele><time>2026-05-03T07:09:30.261Z</time></trkpt><trkpt lat="38.1099761" lon="14.8551953"><ele>777.8333333333334</ele><time>2026-05-03T07:09:31.261Z</time></trkpt><trkpt lat="38.1099141" lon="14.8552689"><ele>778.6666666666667</ele><time>2026-05-03T07:09:32.261Z</time></trkpt><trkpt lat="38.1098427" lon="14.855326"><ele>779.5</ele><time>2026-05-03T07:09:33.261Z</time></trkpt><trkpt lat="38.1097712" lon="14.8553777"><ele>780.3333333333334</ele><time>2026-05-03T07:09:34.261Z</time></trkpt><trkpt lat="38.1097143" lon="14.855439"><ele>781.1666666666667</ele><time>2026-05-03T07:09:35.261Z</time></trkpt><trkpt lat="38.1096798" lon="14.8555123"><ele>782.0</ele><time>2026-05-03T07:09:36.261Z</time></trkpt><trkpt lat="38.1096532" lon="14.8555922"><ele>782.8</ele><time>2026-05-03T07:09:37.261Z</time></trkpt><trkpt lat="38.1096141" lon="14.8556795"><ele>783.6</ele><time>2026-05-03T07:09:38.261Z</time></trkpt><trkpt lat="38.1095566" lon="14.8557869"><ele>784.4</ele><time>2026-05-03T07:09:39.261Z</time></trkpt><trkpt lat="38.1094918" lon="14.8559014"><ele>785.1999999999999</ele><time>2026-05-03T07:09:40.261Z</time></trkpt><trkpt lat="38.109427" lon="14.8559999"><ele>786.0</ele><time>2026-05-03T07:09:41.261Z</time></trkpt><trkpt lat="38.1093641" lon="14.8560901"><ele>787.0</ele><time>2026-05-03T07:09:42.261Z</time></trkpt><trkpt lat="38.109302" lon="14.8561804"><ele>788.0</ele><time>2026-05-03T07:09:43.261Z</time></trkpt><trkpt lat="38.1092481" lon="14.8562595"><ele>789.0</ele><time>2026-05-03T07:09:44.261Z</time></trkpt><trkpt lat="38.1092027" lon="14.8563501"><ele>790.0</ele><time>2026-05-03T07:09:45.261Z</time></trkpt><trkpt lat="38.1091706" lon="14.8564474"><ele>791.0</ele><time>2026-05-03T07:09:46.261Z</time></trkpt><trkpt lat="38.1091369" lon="14.8565378"><ele>792.0</ele><time>2026-05-03T07:09:47.26Z</time></trkpt><trkpt lat="38.1090804" lon="14.8566227"><ele>792.2</ele><time>2026-05-03T07:09:48.261Z</time></trkpt><trkpt lat="38.1090115" lon="14.8567031"><ele>792.4000000000001</ele><time>2026-05-03T07:09:49.261Z</time></trkpt><trkpt lat="38.1089381" lon="14.8567804"><ele>792.5999999999999</ele><time>2026-05-03T07:09:50.261Z</time></trkpt><trkpt lat="38.1088714" lon="14.8568672"><ele>792.8</ele><time>2026-05-03T07:09:51.261Z</time></trkpt><trkpt lat="38.1087987" lon="14.8569713"><ele>793.0</ele><time>2026-05-03T07:09:52.261Z</time></trkpt><trkpt lat="38.1087247" lon="14.8570724"><ele>794.6666666666666</ele><time>2026-05-03T07:09:53.261Z</time></trkpt><trkpt lat="38.1086542" lon="14.8571659"><ele>796.3333333333333</ele><time>2026-05-03T07:09:54.261Z</time></trkpt><trkpt lat="38.1086047" lon="14.8572434"><ele>798.0</ele><time>2026-05-03T07:09:55.261Z</time></trkpt><trkpt lat="38.1085731" lon="14.8573132"><ele>799.6666666666667</ele><time>2026-05-03T07:09:56.261Z</time></trkpt><trkpt lat="38.1085471" lon="14.857412"><ele>801.3333333333334</ele><time>2026-05-03T07:09:58.261Z</time></trkpt><trkpt lat="38.1084326" lon="14.8574237"><ele>803.0</ele><time>2026-05-03T07:10:01.261Z</time></trkpt><trkpt lat="38.1083562" lon="14.857411"><ele>803.0000000000001</ele><time>2026-05-03T07:10:02.261Z</time></trkpt><trkpt lat="38.1082631" lon="14.8574022"><ele>803.0</ele><time>2026-05-03T07:10:03.261Z</time></trkpt><trkpt lat="38.1081741" lon="14.8574025"><ele>803.0</ele><time>2026-05-03T07:10:04.261Z</time></trkpt><trkpt lat="38.1080926" lon="14.8574131"><ele>803.0</ele><time>2026-05-03T07:10:05.261Z</time></trkpt><trkpt lat="38.1080135" lon="14.857435"><ele>803.0000000000001</ele><time>2026-05-03T07:10:06.261Z</time></trkpt><trkpt lat="38.1079316" lon="14.8574607"><ele>803.0</ele><time>2026-05-03T07:10:07.261Z</time></trkpt><trkpt lat="38.1078507" lon="14.8574939"><ele>803.5999999999999</ele><time>2026-05-03T07:10:08.261Z</time></trkpt><trkpt lat="38.1077668" lon="14.8575281"><ele>804.1999999999999</ele><time>2026-05-03T07:10:09.261Z</time></trkpt><trkpt lat="38.1076777" lon="14.8575549"><ele>804.8</ele><time>2026-05-03T07:10:10.261Z</time></trkpt><trkpt lat="38.1075903" lon="14.8575708"><ele>805.4</ele><time>2026-05-03T07:10:11.261Z</time></trkpt><trkpt lat="38.1075138" lon="14.8575873"><ele>806.0</ele><time>2026-05-03T07:10:12.261Z</time></trkpt><trkpt lat="38.1074216" lon="14.8576768"><ele>806.5999999999999</ele><time>2026-05-03T07:10:14.261Z</time></trkpt><trkpt lat="38.1073873" lon="14.8577444"><ele>807.2</ele><time>2026-05-03T07:10:15.261Z</time></trkpt><trkpt lat="38.1072826" lon="14.8578435"><ele>807.8</ele><time>2026-05-03T07:10:17.261Z</time></trkpt><trkpt lat="38.1071992" lon="14.8578825"><ele>808.4000000000001</ele><time>2026-05-03T07:10:18.261Z</time></trkpt><trkpt lat="38.107107" lon="14.8579376"><ele>809.0</ele><time>2026-05-03T07:10:19.261Z</time></trkpt><trkpt lat="38.1070271" lon="14.8580031"><ele>809.0</ele><time>2026-05-03T07:10:20.261Z</time></trkpt><trkpt lat="38.1069595" lon="14.8580782"><ele>809.0</ele><time>2026-05-03T07:10:21.26Z</time></trkpt><trkpt lat="38.1068951" lon="14.8581572"><ele>809.0</ele><time>2026-05-03T07:10:22.261Z</time></trkpt><trkpt lat="38.1068276" lon="14.858238"><ele>809.0</ele><time>2026-05-03T07:10:23.261Z</time></trkpt><trkpt lat="38.1067509" lon="14.8583241"><ele>809.0</ele><time>2026-05-03T07:10:24.261Z</time></trkpt><trkpt lat="38.1066587" lon="14.8584236"><ele>810.6</ele><time>2026-05-03T07:10:25.261Z</time></trkpt><trkpt lat="38.1065632" lon="14.858527"><ele>812.2</ele><time>2026-05-03T07:10:26.261Z</time></trkpt><trkpt lat="38.1064734" lon="14.8586189"><ele>813.8000000000001</ele><time>2026-05-03T07:10:27.261Z</time></trkpt><trkpt lat="38.1063983" lon="14.8587004"><ele>815.4000000000001</ele><time>2026-05-03T07:10:28.261Z</time></trkpt><trkpt lat="38.1063364" lon="14.8587786"><ele>817.0</ele><time>2026-05-03T07:10:29.261Z</time></trkpt><trkpt lat="38.1062828" lon="14.8588581"><ele>816.9999999999999</ele><time>2026-05-03T07:10:30.261Z</time></trkpt><trkpt lat="38.1062321" lon="14.8589448"><ele>817.0</ele><time>2026-05-03T07:10:31.261Z</time></trkpt><trkpt lat="38.1061803" lon="14.8590461"><ele>817.0</ele><time>2026-05-03T07:10:32.261Z</time></trkpt><trkpt lat="38.1061255" lon="14.8591441"><ele>817.0</ele><time>2026-05-03T07:10:33.261Z</time></trkpt><trkpt lat="38.1060819" lon="14.8592281"><ele>816.9999999999999</ele><time>2026-05-03T07:10:34.261Z</time></trkpt><trkpt lat="38.1060459" lon="14.8593068"><ele>817.0</ele><time>2026-05-03T07:10:35.261Z</time></trkpt><trkpt lat="38.1060054" lon="14.8593812"><ele>817.0</ele><time>2026-05-03T07:10:36.261Z</time></trkpt><trkpt lat="38.1059671" lon="14.8594496"><ele>817.0</ele><time>2026-05-03T07:10:37.261Z</time></trkpt><trkpt lat="38.1059056" lon="14.85957"><ele>817.0</ele><time>2026-05-03T07:10:39.261Z</time></trkpt><trkpt lat="38.1058407" lon="14.8597058"><ele>817.0</ele><time>2026-05-03T07:10:41.262Z</time></trkpt><trkpt lat="38.1058053" lon="14.8597863"><ele>817.0</ele><time>2026-05-03T07:10:42.262Z</time></trkpt><trkpt lat="38.1057634" lon="14.8598919"><ele>817.4000000000001</ele><time>2026-05-03T07:10:43.262Z</time></trkpt><trkpt lat="38.1057194" lon="14.8600136"><ele>817.8000000000001</ele><time>2026-05-03T07:10:44.262Z</time></trkpt><trkpt lat="38.1056724" lon="14.8601412"><ele>818.2</ele><time>2026-05-03T07:10:45.262Z</time></trkpt><trkpt lat="38.1056258" lon="14.8602522"><ele>818.6</ele><time>2026-05-03T07:10:46.262Z</time></trkpt><trkpt lat="38.1055877" lon="14.8603372"><ele>819.0</ele><time>2026-05-03T07:10:47.262Z</time></trkpt><trkpt lat="38.1055604" lon="14.860415"><ele>820.0</ele><time>2026-05-03T07:10:48.262Z</time></trkpt><trkpt lat="38.1055278" lon="14.8605034"><ele>821.0</ele><time>2026-05-03T07:10:49.261Z</time></trkpt><trkpt lat="38.1054871" lon="14.8606093"><ele>822.0</ele><time>2026-05-03T07:10:50.262Z</time></trkpt><trkpt lat="38.1054456" lon="14.8607352"><ele>823.0</ele><time>2026-05-03T07:10:51.262Z</time></trkpt><trkpt lat="38.105405" lon="14.8608923"><ele>824.0</ele><time>2026-05-03T07:10:52.262Z</time></trkpt><trkpt lat="38.1053735" lon="14.8610627"><ele>825.0</ele><time>2026-05-03T07:10:53.262Z</time></trkpt><trkpt lat="38.1053401" lon="14.8612176"><ele>826.0</ele><time>2026-05-03T07:10:54.262Z</time></trkpt><trkpt lat="38.1053121" lon="14.8613589"><ele>827.0</ele><time>2026-05-03T07:10:55.262Z</time></trkpt><trkpt lat="38.1052827" lon="14.8614825"><ele>828.0</ele><time>2026-05-03T07:10:56.262Z</time></trkpt><trkpt lat="38.1052386" lon="14.8615915"><ele>829.0</ele><time>2026-05-03T07:10:57.262Z</time></trkpt><trkpt lat="38.1051734" lon="14.8616758"><ele>829.0</ele><time>2026-05-03T07:10:58.262Z</time></trkpt><trkpt lat="38.1050932" lon="14.8617544"><ele>829.0</ele><time>2026-05-03T07:10:59.261Z</time></trkpt><trkpt lat="38.1049932" lon="14.8618587"><ele>829.0</ele><time>2026-05-03T07:11:00.262Z</time></trkpt><trkpt lat="38.1048759" lon="14.8619878"><ele>829.0</ele><time>2026-05-03T07:11:01.262Z</time></trkpt><trkpt lat="38.1047446" lon="14.8621265"><ele>830.6666666666666</ele><time>2026-05-03T07:11:02.262Z</time></trkpt><trkpt lat="38.1046087" lon="14.862256"><ele>832.3333333333333</ele><time>2026-05-03T07:11:03.262Z</time></trkpt><trkpt lat="38.1044837" lon="14.8623749"><ele>834.0</ele><time>2026-05-03T07:11:04.262Z</time></trkpt><trkpt lat="38.1043823" lon="14.8624783"><ele>834.0</ele><time>2026-05-03T07:11:05.262Z</time></trkpt><trkpt lat="38.1043079" lon="14.8625706"><ele>834.0</ele><time>2026-05-03T07:11:06.262Z</time></trkpt><trkpt lat="38.1042428" lon="14.8626707"><ele>834.0</ele><time>2026-05-03T07:11:07.262Z</time></trkpt><trkpt lat="38.1041661" lon="14.8627892"><ele>834.0</ele><time>2026-05-03T07:11:08.262Z</time></trkpt><trkpt lat="38.1040979" lon="14.8629084"><ele>834.0</ele><time>2026-05-03T07:11:09.262Z</time></trkpt><trkpt lat="38.1040331" lon="14.8630212"><ele>834.5</ele><time>2026-05-03T07:11:10.262Z</time></trkpt><trkpt lat="38.1039848" lon="14.8631253"><ele>835.0</ele><time>2026-05-03T07:11:11.262Z</time></trkpt><trkpt lat="38.1039471" lon="14.8632054"><ele>835.5</ele><time>2026-05-03T07:11:12.262Z</time></trkpt><trkpt lat="38.1039032" lon="14.8632907"><ele>836.0</ele><time>2026-05-03T07:11:14.262Z</time></trkpt><trkpt lat="38.1038382" lon="14.8632124"><ele>836.5</ele><time>2026-05-03T07:11:19.262Z</time></trkpt><trkpt lat="38.1037741" lon="14.8631176"><ele>837.0</ele><time>2026-05-03T07:11:21.262Z</time></trkpt><trkpt lat="38.1036836" lon="14.8630179"><ele>837.0</ele><time>2026-05-03T07:11:23.262Z</time></trkpt><trkpt lat="38.1036409" lon="14.8629548"><ele>837.0</ele><time>2026-05-03T07:11:24.262Z</time></trkpt><trkpt lat="38.1035897" lon="14.8628915"><ele>837.0</ele><time>2026-05-03T07:11:25.262Z</time></trkpt><trkpt lat="38.1035451" lon="14.8628339"><ele>837.0</ele><time>2026-05-03T07:11:26.262Z</time></trkpt><trkpt lat="38.1034517" lon="14.8627272"><ele>837.0</ele><time>2026-05-03T07:11:28.262Z</time></trkpt><trkpt lat="38.1034001" lon="14.862672"><ele>837.0</ele><time>2026-05-03T07:11:29.262Z</time></trkpt><trkpt lat="38.1033327" lon="14.8626077"><ele>835.5</ele><time>2026-05-03T07:11:30.262Z</time></trkpt><trkpt lat="38.1032431" lon="14.8625269"><ele>834.0</ele><time>2026-05-03T07:11:31.262Z</time></trkpt><trkpt lat="38.1031282" lon="14.8624333"><ele>832.5</ele><time>2026-05-03T07:11:32.262Z</time></trkpt><trkpt lat="38.1030134" lon="14.8623531"><ele>831.0</ele><time>2026-05-03T07:11:33.262Z</time></trkpt><trkpt lat="38.102901" lon="14.8622907"><ele>831.0</ele><time>2026-05-03T07:11:34.262Z</time></trkpt><trkpt lat="38.1027973" lon="14.8622491"><ele>831.0</ele><time>2026-05-03T07:11:35.262Z</time></trkpt><trkpt lat="38.1027002" lon="14.8622205"><ele>831.0</ele><time>2026-05-03T07:11:36.262Z</time></trkpt><trkpt lat="38.1026116" lon="14.8621987"><ele>831.0</ele><time>2026-05-03T07:11:37.262Z</time></trkpt><trkpt lat="38.1025279" lon="14.8621929"><ele>831.0</ele><time>2026-05-03T07:11:38.262Z</time></trkpt><trkpt lat="38.1024464" lon="14.8621957"><ele>828.6666666666666</ele><time>2026-05-03T07:11:39.262Z</time></trkpt><trkpt lat="38.1023651" lon="14.862205"><ele>826.3333333333333</ele><time>2026-05-03T07:11:40.262Z</time></trkpt><trkpt lat="38.1022852" lon="14.8622215"><ele>824.0</ele><time>2026-05-03T07:11:41.262Z</time></trkpt><trkpt lat="38.1022043" lon="14.8622463"><ele>821.6666666666666</ele><time>2026-05-03T07:11:42.262Z</time></trkpt><trkpt lat="38.1021283" lon="14.8622904"><ele>819.3333333333333</ele><time>2026-05-03T07:11:43.262Z</time></trkpt><trkpt lat="38.1020589" lon="14.862362"><ele>817.0</ele><time>2026-05-03T07:11:44.262Z</time></trkpt><trkpt lat="38.1019965" lon="14.8624479"><ele>816.9999999999999</ele><time>2026-05-03T07:11:45.262Z</time></trkpt><trkpt lat="38.1019364" lon="14.8625388"><ele>817.0</ele><time>2026-05-03T07:11:46.262Z</time></trkpt><trkpt lat="38.1018716" lon="14.8626218"><ele>817.0</ele><time>2026-05-03T07:11:47.262Z</time></trkpt><trkpt lat="38.1017983" lon="14.8626949"><ele>817.0</ele><time>2026-05-03T07:11:48.262Z</time></trkpt><trkpt lat="38.1017328" lon="14.8627679"><ele>816.9999999999999</ele><time>2026-05-03T07:11:49.262Z</time></trkpt><trkpt lat="38.1016719" lon="14.8628382"><ele>817.0</ele><time>2026-05-03T07:11:50.262Z</time></trkpt><trkpt lat="38.1016175" lon="14.8629121"><ele>817.1666666666666</ele><time>2026-05-03T07:11:51.261Z</time></trkpt><trkpt lat="38.101576" lon="14.8629806"><ele>817.3333333333333</ele><time>2026-05-03T07:11:52.262Z</time></trkpt><trkpt lat="38.1015351" lon="14.8630555"><ele>817.5</ele><time>2026-05-03T07:11:53.262Z</time></trkpt><trkpt lat="38.1014906" lon="14.8631508"><ele>817.6666666666667</ele><time>2026-05-03T07:11:54.262Z</time></trkpt><trkpt lat="38.1014467" lon="14.86326"><ele>817.8333333333334</ele><time>2026-05-03T07:11:55.262Z</time></trkpt><trkpt lat="38.1013967" lon="14.8633733"><ele>818.0</ele><time>2026-05-03T07:11:56.262Z</time></trkpt><trkpt lat="38.1013467" lon="14.8634967"><ele>820.5000000000001</ele><time>2026-05-03T07:11:57.262Z</time></trkpt><trkpt lat="38.10129" lon="14.8636133"><ele>823.0</ele><time>2026-05-03T07:11:58.262Z</time></trkpt><trkpt lat="38.1012383" lon="14.8637067"><ele>825.5</ele><time>2026-05-03T07:11:59.262Z</time></trkpt><trkpt lat="38.1011883" lon="14.8637867"><ele>828.0</ele><time>2026-05-03T07:12:00.262Z</time></trkpt><trkpt lat="38.10115" lon="14.8638533"><ele>830.5000000000001</ele><time>2026-05-03T07:12:01.262Z</time></trkpt><trkpt lat="38.1010733" lon="14.863885"><ele>833.0</ele><time>2026-05-03T07:12:03.261Z</time></trkpt><trkpt lat="38.1009817" lon="14.863735"><ele>833.0</ele><time>2026-05-03T07:12:05.262Z</time></trkpt><trkpt lat="38.100905" lon="14.8636017"><ele>833.0</ele><time>2026-05-03T07:12:06.262Z</time></trkpt><trkpt lat="38.1008317" lon="14.86342"><ele>833.0</ele><time>2026-05-03T07:12:07.262Z</time></trkpt><trkpt lat="38.1007733" lon="14.863255"><ele>833.0</ele><time>2026-05-03T07:12:08.262Z</time></trkpt><trkpt lat="38.10072" lon="14.8631267"><ele>829.5999999999999</ele><time>2026-05-03T07:12:09.262Z</time></trkpt><trkpt lat="38.1006733" lon="14.863005"><ele>826.1999999999999</ele><time>2026-05-03T07:12:10.262Z</time></trkpt><trkpt lat="38.1006217" lon="14.86289"><ele>822.8</ele><time>2026-05-03T07:12:11.261Z</time></trkpt><trkpt lat="38.1005717" lon="14.8627833"><ele>819.4</ele><time>2026-05-03T07:12:12.262Z</time></trkpt><trkpt lat="38.1005233" lon="14.8626733"><ele>816.0</ele><time>2026-05-03T07:12:13.262Z</time></trkpt><trkpt lat="38.1004767" lon="14.8625717"><ele>814.1666666666666</ele><time>2026-05-03T07:12:14.262Z</time></trkpt><trkpt lat="38.1004367" lon="14.8624667"><ele>812.3333333333333</ele><time>2026-05-03T07:12:15.262Z</time></trkpt><trkpt lat="38.100395" lon="14.8623633"><ele>810.5</ele><time>2026-05-03T07:12:16.262Z</time></trkpt><trkpt lat="38.10035" lon="14.862265"><ele>808.6666666666666</ele><time>2026-05-03T07:12:17.262Z</time></trkpt><trkpt lat="38.1002933" lon="14.8621717"><ele>806.8333333333333</ele><time>2026-05-03T07:12:18.262Z</time></trkpt><trkpt lat="38.1002417" lon="14.8620883"><ele>805.0</ele><time>2026-05-03T07:12:19.262Z</time></trkpt><trkpt lat="38.1001933" lon="14.8620067"><ele>804.9999999999999</ele><time>2026-05-03T07:12:20.261Z</time></trkpt><trkpt lat="38.1001483" lon="14.861945"><ele>805.0</ele><time>2026-05-03T07:12:21.262Z</time></trkpt><trkpt lat="38.1000883" lon="14.8618967"><ele>805.0</ele><time>2026-05-03T07:12:22.262Z</time></trkpt><trkpt lat="38.1000233" lon="14.861865"><ele>805.0</ele><time>2026-05-03T07:12:23.262Z</time></trkpt><trkpt lat="38.0999483" lon="14.86188"><ele>804.9999999999999</ele><time>2026-05-03T07:12:24.261Z</time></trkpt><trkpt lat="38.0998617" lon="14.8619217"><ele>805.0</ele><time>2026-05-03T07:12:25.262Z</time></trkpt><trkpt lat="38.0997567" lon="14.86199"><ele>803.6</ele><time>2026-05-03T07:12:26.262Z</time></trkpt><trkpt lat="38.0996517" lon="14.8620417"><ele>802.2</ele><time>2026-05-03T07:12:27.262Z</time></trkpt><trkpt lat="38.0995533" lon="14.8620633"><ele>800.8</ele><time>2026-05-03T07:12:28.262Z</time></trkpt><trkpt lat="38.09946" lon="14.8620667"><ele>799.4</ele><time>2026-05-03T07:12:29.262Z</time></trkpt><trkpt lat="38.09937" lon="14.8620667"><ele>798.0</ele><time>2026-05-03T07:12:30.262Z</time></trkpt><trkpt lat="38.099295" lon="14.8620567"><ele>798.0</ele><time>2026-05-03T07:12:31.262Z</time></trkpt><trkpt lat="38.09923" lon="14.862045"><ele>798.0</ele><time>2026-05-03T07:12:32.262Z</time></trkpt><trkpt lat="38.0991767" lon="14.862"><ele>798.0</ele><time>2026-05-03T07:12:33.262Z</time></trkpt><trkpt lat="38.0991317" lon="14.86192"><ele>798.0</ele><time>2026-05-03T07:12:35.262Z</time></trkpt><trkpt lat="38.0991667" lon="14.86185"><ele>798.0</ele><time>2026-05-03T07:12:38.262Z</time></trkpt><trkpt lat="38.0991783" lon="14.8617583"><ele>798.0</ele><time>2026-05-03T07:12:40.262Z</time></trkpt><trkpt lat="38.099125" lon="14.8617117"><ele>798.0</ele><time>2026-05-03T07:12:42.262Z</time></trkpt><trkpt lat="38.0990033" lon="14.8617583"><ele>797.6666666666666</ele><time>2026-05-03T07:12:44.262Z</time></trkpt><trkpt lat="38.0989233" lon="14.8618167"><ele>797.3333333333333</ele><time>2026-05-03T07:12:45.262Z</time></trkpt><trkpt lat="38.0988517" lon="14.8618667"><ele>797.0</ele><time>2026-05-03T07:12:46.262Z</time></trkpt><trkpt lat="38.0987817" lon="14.8619167"><ele>796.6666666666666</ele><time>2026-05-03T07:12:47.262Z</time></trkpt><trkpt lat="38.0987117" lon="14.8619667"><ele>796.3333333333333</ele><time>2026-05-03T07:12:48.262Z</time></trkpt><trkpt lat="38.0986383" lon="14.86202"><ele>796.0</ele><time>2026-05-03T07:12:49.262Z</time></trkpt><trkpt lat="38.0985733" lon="14.8620817"><ele>796.0</ele><time>2026-05-03T07:12:50.261Z</time></trkpt><trkpt lat="38.09851" lon="14.86217"><ele>796.0</ele><time>2026-05-03T07:12:51.262Z</time></trkpt><trkpt lat="38.0984617" lon="14.862285"><ele>796.0</ele><time>2026-05-03T07:12:52.262Z</time></trkpt><trkpt lat="38.0984333" lon="14.8624183"><ele>796.0</ele><time>2026-05-03T07:12:53.261Z</time></trkpt><trkpt lat="38.098415" lon="14.86255"><ele>796.0</ele><time>2026-05-03T07:12:54.262Z</time></trkpt><trkpt lat="38.0984017" lon="14.86267"><ele>796.1428571428571</ele><time>2026-05-03T07:12:55.262Z</time></trkpt><trkpt lat="38.0983983" lon="14.8627683"><ele>796.2857142857142</ele><time>2026-05-03T07:12:56.262Z</time></trkpt><trkpt lat="38.0983833" lon="14.8628467"><ele>796.4285714285713</ele><time>2026-05-03T07:12:57.262Z</time></trkpt><trkpt lat="38.0983583" lon="14.862925"><ele>796.5714285714286</ele><time>2026-05-03T07:12:58.262Z</time></trkpt><trkpt lat="38.09833" lon="14.8630067"><ele>796.7142857142858</ele><time>2026-05-03T07:12:59.262Z</time></trkpt><trkpt lat="38.0982683" lon="14.863115"><ele>796.8571428571428</ele><time>2026-05-03T07:13:01.262Z</time></trkpt><trkpt lat="38.0982317" lon="14.8631817"><ele>797.0</ele><time>2026-05-03T07:13:02.262Z</time></trkpt><trkpt lat="38.0982033" lon="14.86326"><ele>797.0000000000001</ele><time>2026-05-03T07:13:03.262Z</time></trkpt><trkpt lat="38.0981733" lon="14.8633517"><ele>797.0</ele><time>2026-05-03T07:13:04.262Z</time></trkpt><trkpt lat="38.0981417" lon="14.8634633"><ele>797.0</ele><time>2026-05-03T07:13:05.262Z</time></trkpt><trkpt lat="38.0981167" lon="14.8635817"><ele>797.0</ele><time>2026-05-03T07:13:06.262Z</time></trkpt><trkpt lat="38.0980867" lon="14.8636933"><ele>797.0000000000001</ele><time>2026-05-03T07:13:07.262Z</time></trkpt><trkpt lat="38.09806" lon="14.8637917"><ele>797.0</ele><time>2026-05-03T07:13:08.262Z</time></trkpt><trkpt lat="38.098025" lon="14.8638917"><ele>798.3333333333334</ele><time>2026-05-03T07:13:09.262Z</time></trkpt><trkpt lat="38.097995" lon="14.86399"><ele>799.6666666666667</ele><time>2026-05-03T07:13:10.262Z</time></trkpt><trkpt lat="38.0979583" lon="14.86409"><ele>801.0</ele><time>2026-05-03T07:13:11.262Z</time></trkpt><trkpt lat="38.09793" lon="14.86418"><ele>802.3333333333333</ele><time>2026-05-03T07:13:12.262Z</time></trkpt><trkpt lat="38.0979033" lon="14.86428"><ele>803.6666666666666</ele><time>2026-05-03T07:13:13.262Z</time></trkpt><trkpt lat="38.0978683" lon="14.864385"><ele>805.0</ele><time>2026-05-03T07:13:14.261Z</time></trkpt><trkpt lat="38.0978383" lon="14.864485"><ele>805.8</ele><time>2026-05-03T07:13:15.262Z</time></trkpt><trkpt lat="38.0978067" lon="14.8645883"><ele>806.6</ele><time>2026-05-03T07:13:16.262Z</time></trkpt><trkpt lat="38.0977783" lon="14.8646883"><ele>807.4000000000001</ele><time>2026-05-03T07:13:17.262Z</time></trkpt><trkpt lat="38.09775" lon="14.864775"><ele>808.2</ele><time>2026-05-03T07:13:18.262Z</time></trkpt><trkpt lat="38.097715" lon="14.8648933"><ele>809.0</ele><time>2026-05-03T07:13:20.262Z</time></trkpt><trkpt lat="38.0976783" lon="14.8650267"><ele>809.6</ele><time>2026-05-03T07:13:22.262Z</time></trkpt><trkpt lat="38.0976367" lon="14.865155"><ele>810.2</ele><time>2026-05-03T07:13:24.262Z</time></trkpt><trkpt lat="38.0975917" lon="14.8652633"><ele>810.8000000000001</ele><time>2026-05-03T07:13:26.262Z</time></trkpt><trkpt lat="38.0975283" lon="14.865385"><ele>811.4000000000001</ele><time>2026-05-03T07:13:28.262Z</time></trkpt><trkpt lat="38.0974933" lon="14.865465"><ele>812.0</ele><time>2026-05-03T07:13:29.262Z</time></trkpt><trkpt lat="38.0974633" lon="14.8655367"><ele>812.0000000000001</ele><time>2026-05-03T07:13:30.262Z</time></trkpt><trkpt lat="38.0974367" lon="14.8656117"><ele>812.0</ele><time>2026-05-03T07:13:31.262Z</time></trkpt><trkpt lat="38.0974017" lon="14.8656817"><ele>812.0</ele><time>2026-05-03T07:13:32.262Z</time></trkpt><trkpt lat="38.09736" lon="14.8657583"><ele>812.0</ele><time>2026-05-03T07:13:33.262Z</time></trkpt><trkpt lat="38.0973183" lon="14.8658483"><ele>812.0000000000001</ele><time>2026-05-03T07:13:34.262Z</time></trkpt><trkpt lat="38.097275" lon="14.8659383"><ele>812.0</ele><time>2026-05-03T07:13:35.262Z</time></trkpt><trkpt lat="38.0972317" lon="14.8660383"><ele>813.6</ele><time>2026-05-03T07:13:36.262Z</time></trkpt><trkpt lat="38.0971817" lon="14.8661433"><ele>815.2</ele><time>2026-05-03T07:13:37.262Z</time></trkpt><trkpt lat="38.0971283" lon="14.86625"><ele>816.8</ele><time>2026-05-03T07:13:38.262Z</time></trkpt><trkpt lat="38.09708" lon="14.8663483"><ele>818.4</ele><time>2026-05-03T07:13:39.262Z</time></trkpt><trkpt lat="38.0970383" lon="14.8664467"><ele>820.0</ele><time>2026-05-03T07:13:40.261Z</time></trkpt><trkpt lat="38.0969983" lon="14.8665383"><ele>819.9999999999999</ele><time>2026-05-03T07:13:41.262Z</time></trkpt><trkpt lat="38.0969533" lon="14.86664"><ele>820.0</ele><time>2026-05-03T07:13:42.262Z</time></trkpt><trkpt lat="38.0969167" lon="14.8667217"><ele>820.0</ele><time>2026-05-03T07:13:43.261Z</time></trkpt><trkpt lat="38.0968883" lon="14.8668083"><ele>820.0</ele><time>2026-05-03T07:13:44.262Z</time></trkpt><trkpt lat="38.0968433" lon="14.86694"><ele>819.9999999999999</ele><time>2026-05-03T07:13:46.262Z</time></trkpt><trkpt lat="38.0967883" lon="14.86698"><ele>820.0</ele><time>2026-05-03T07:13:49.262Z</time></trkpt><trkpt lat="38.0967233" lon="14.867005"><ele>822.4</ele><time>2026-05-03T07:13:54.262Z</time></trkpt><trkpt lat="38.09666" lon="14.867035"><ele>824.8</ele><time>2026-05-03T07:13:58.262Z</time></trkpt><trkpt lat="38.09658" lon="14.8670633"><ele>827.2</ele><time>2026-05-03T07:14:02.262Z</time></trkpt><trkpt lat="38.0964883" lon="14.8670667"><ele>829.6</ele><time>2026-05-03T07:14:05.262Z</time></trkpt><trkpt lat="38.0963883" lon="14.8670767"><ele>832.0</ele><time>2026-05-03T07:14:07.262Z</time></trkpt><trkpt lat="38.0962817" lon="14.8671017"><ele>831.9999999999999</ele><time>2026-05-03T07:14:09.262Z</time></trkpt><trkpt lat="38.0961633" lon="14.8671133"><ele>832.0</ele><time>2026-05-03T07:14:11.262Z</time></trkpt><trkpt lat="38.0960833" lon="14.8671083"><ele>832.0</ele><time>2026-05-03T07:14:12.262Z</time></trkpt><trkpt lat="38.096005" lon="14.8671067"><ele>832.0</ele><time>2026-05-03T07:14:13.262Z</time></trkpt><trkpt lat="38.0959333" lon="14.8671133"><ele>831.9999999999999</ele><time>2026-05-03T07:14:14.262Z</time></trkpt><trkpt lat="38.09586" lon="14.8671217"><ele>832.0</ele><time>2026-05-03T07:14:15.262Z</time></trkpt><trkpt lat="38.0957933" lon="14.8671167"><ele>828.8</ele><time>2026-05-03T07:14:16.262Z</time></trkpt><trkpt lat="38.0956817" lon="14.8671383"><ele>825.6</ele><time>2026-05-03T07:14:18.262Z</time></trkpt><trkpt lat="38.095615" lon="14.8671683"><ele>822.4</ele><time>2026-05-03T07:14:20.262Z</time></trkpt><trkpt lat="38.095575" lon="14.8672517"><ele>819.1999999999999</ele><time>2026-05-03T07:14:22.262Z</time></trkpt><trkpt lat="38.0956083" lon="14.8673767"><ele>816.0</ele><time>2026-05-03T07:14:24.262Z</time></trkpt><trkpt lat="38.0956417" lon="14.867495"><ele>819.5999999999999</ele><time>2026-05-03T07:14:26.262Z</time></trkpt><trkpt lat="38.0956633" lon="14.8676233"><ele>823.2</ele><time>2026-05-03T07:14:28.262Z</time></trkpt><trkpt lat="38.0956983" lon="14.8677367"><ele>826.8</ele><time>2026-05-03T07:14:30.262Z</time></trkpt><trkpt lat="38.0957333" lon="14.867845"><ele>830.4000000000001</ele><time>2026-05-03T07:14:32.262Z</time></trkpt><trkpt lat="38.0957867" lon="14.8679667"><ele>834.0</ele><time>2026-05-03T07:14:34.262Z</time></trkpt><trkpt lat="38.0958517" lon="14.8680967"><ele>836.1428571428572</ele><time>2026-05-03T07:14:36.262Z</time></trkpt><trkpt lat="38.0958767" lon="14.868175"><ele>838.2857142857142</ele><time>2026-05-03T07:14:37.262Z</time></trkpt><trkpt lat="38.0959067" lon="14.868265"><ele>840.4285714285714</ele><time>2026-05-03T07:14:38.262Z</time></trkpt><trkpt lat="38.0959383" lon="14.86835"><ele>842.5714285714287</ele><time>2026-05-03T07:14:39.261Z</time></trkpt><trkpt lat="38.095975" lon="14.8684317"><ele>844.7142857142858</ele><time>2026-05-03T07:14:40.262Z</time></trkpt><trkpt lat="38.0960133" lon="14.8685117"><ele>846.8571428571429</ele><time>2026-05-03T07:14:41.262Z</time></trkpt><trkpt lat="38.0960483" lon="14.8685867"><ele>849.0</ele><time>2026-05-03T07:14:42.262Z</time></trkpt><trkpt lat="38.0960917" lon="14.86869"><ele>850.8333333333334</ele><time>2026-05-03T07:14:44.262Z</time></trkpt><trkpt lat="38.0961383" lon="14.8687867"><ele>852.6666666666667</ele><time>2026-05-03T07:14:46.262Z</time></trkpt><trkpt lat="38.096185" lon="14.8688667"><ele>854.5</ele><time>2026-05-03T07:14:48.262Z</time></trkpt><trkpt lat="38.0962783" lon="14.8688717"><ele>856.3333333333334</ele><time>2026-05-03T07:14:51.262Z</time></trkpt><trkpt lat="38.0963817" lon="14.86888"><ele>858.1666666666667</ele><time>2026-05-03T07:14:54.262Z</time></trkpt><trkpt lat="38.0964633" lon="14.8689"><ele>860.0</ele><time>2026-05-03T07:14:56.262Z</time></trkpt><trkpt lat="38.0965417" lon="14.8689267"><ele>859.8571428571428</ele><time>2026-05-03T07:14:58.262Z</time></trkpt><trkpt lat="38.0966233" lon="14.8689367"><ele>859.7142857142858</ele><time>2026-05-03T07:15:00.262Z</time></trkpt><trkpt lat="38.0967" lon="14.8689533"><ele>859.5714285714286</ele><time>2026-05-03T07:15:02.262Z</time></trkpt><trkpt lat="38.0967717" lon="14.86897"><ele>859.4285714285713</ele><time>2026-05-03T07:15:04.262Z</time></trkpt><trkpt lat="38.096845" lon="14.86898"><ele>859.2857142857142</ele><time>2026-05-03T07:15:06.262Z</time></trkpt><trkpt lat="38.0969033" lon="14.8690183"><ele>859.1428571428571</ele><time>2026-05-03T07:15:09.262Z</time></trkpt><trkpt lat="38.0969017" lon="14.8691083"><ele>859.0</ele><time>2026-05-03T07:15:11.262Z</time></trkpt><trkpt lat="38.0968633" lon="14.8691933"><ele>859.0</ele><time>2026-05-03T07:15:13.262Z</time></trkpt><trkpt lat="38.0968" lon="14.8692717"><ele>859.0000000000001</ele><time>2026-05-03T07:15:15.262Z</time></trkpt><trkpt lat="38.0967233" lon="14.86935"><ele>859.0000000000001</ele><time>2026-05-03T07:15:17.262Z</time></trkpt><trkpt lat="38.0966683" lon="14.869445"><ele>859.0</ele><time>2026-05-03T07:15:19.262Z</time></trkpt><trkpt lat="38.09663" lon="14.8695417"><ele>859.0</ele><time>2026-05-03T07:15:21.262Z</time></trkpt><trkpt lat="38.0965783" lon="14.86964"><ele>860.3333333333333</ele><time>2026-05-03T07:15:24.262Z</time></trkpt><trkpt lat="38.0965233" lon="14.86973"><ele>861.6666666666666</ele><time>2026-05-03T07:15:26.262Z</time></trkpt><trkpt lat="38.09648" lon="14.8698717"><ele>863.0</ele><time>2026-05-03T07:15:28.262Z</time></trkpt><trkpt lat="38.0964567" lon="14.8699583"><ele>864.3333333333333</ele><time>2026-05-03T07:15:29.262Z</time></trkpt><trkpt lat="38.0964267" lon="14.87005"><ele>865.6666666666666</ele><time>2026-05-03T07:15:30.262Z</time></trkpt><trkpt lat="38.096395" lon="14.8701333"><ele>867.0</ele><time>2026-05-03T07:15:31.262Z</time></trkpt><trkpt lat="38.0963633" lon="14.8702067"><ele>867.8333333333334</ele><time>2026-05-03T07:15:32.262Z</time></trkpt><trkpt lat="38.0963383" lon="14.87033"><ele>868.6666666666667</ele><time>2026-05-03T07:15:34.262Z</time></trkpt><trkpt lat="38.0963383" lon="14.8704233"><ele>869.5</ele><time>2026-05-03T07:15:36.262Z</time></trkpt><trkpt lat="38.0963183" lon="14.8705383"><ele>870.3333333333334</ele><time>2026-05-03T07:15:39.262Z</time></trkpt><trkpt lat="38.0962583" lon="14.87061"><ele>871.1666666666667</ele><time>2026-05-03T07:15:41.262Z</time></trkpt><trkpt lat="38.0961717" lon="14.8706583"><ele>872.0</ele><time>2026-05-03T07:15:43.262Z</time></trkpt><trkpt lat="38.0960567" lon="14.8707283"><ele>872.0000000000001</ele><time>2026-05-03T07:15:45.262Z</time></trkpt><trkpt lat="38.0959983" lon="14.8707817"><ele>872.0</ele><time>2026-05-03T07:15:46.261Z</time></trkpt><trkpt lat="38.095935" lon="14.8708433"><ele>872.0</ele><time>2026-05-03T07:15:47.262Z</time></trkpt><trkpt lat="38.0958733" lon="14.8709"><ele>872.0</ele><time>2026-05-03T07:15:48.263Z</time></trkpt><trkpt lat="38.095795" lon="14.8709733"><ele>872.0000000000001</ele><time>2026-05-03T07:15:49.263Z</time></trkpt><trkpt lat="38.0957117" lon="14.8710617"><ele>872.0</ele><time>2026-05-03T07:15:50.263Z</time></trkpt><trkpt lat="38.0956167" lon="14.8711683"><ele>872.6666666666667</ele><time>2026-05-03T07:15:51.263Z</time></trkpt><trkpt lat="38.095535" lon="14.8712667"><ele>873.3333333333334</ele><time>2026-05-03T07:15:52.263Z</time></trkpt><trkpt lat="38.0954717" lon="14.8713483"><ele>874.0</ele><time>2026-05-03T07:15:53.263Z</time></trkpt><trkpt lat="38.09542" lon="14.8714233"><ele>874.6666666666667</ele><time>2026-05-03T07:15:54.263Z</time></trkpt><trkpt lat="38.095375" lon="14.8715"><ele>875.3333333333334</ele><time>2026-05-03T07:15:55.263Z</time></trkpt><trkpt lat="38.0953317" lon="14.8715867"><ele>876.0</ele><time>2026-05-03T07:15:56.263Z</time></trkpt><trkpt lat="38.0953033" lon="14.8716783"><ele>876.0</ele><time>2026-05-03T07:15:57.263Z</time></trkpt><trkpt lat="38.0952733" lon="14.87177"><ele>876.0</ele><time>2026-05-03T07:15:58.262Z</time></trkpt><trkpt lat="38.0952433" lon="14.871865"><ele>876.0</ele><time>2026-05-03T07:15:59.263Z</time></trkpt><trkpt lat="38.09521" lon="14.871955"><ele>876.0</ele><time>2026-05-03T07:16:00.263Z</time></trkpt><trkpt lat="38.0951717" lon="14.872025"><ele>876.0</ele><time>2026-05-03T07:16:01.263Z</time></trkpt><trkpt lat="38.0951233" lon="14.8720933"><ele>876.0</ele><time>2026-05-03T07:16:02.263Z</time></trkpt><trkpt lat="38.0950733" lon="14.8721467"><ele>876.0</ele><time>2026-05-03T07:16:03.262Z</time></trkpt><trkpt lat="38.0950217" lon="14.8721933"><ele>876.6666666666666</ele><time>2026-05-03T07:16:04.263Z</time></trkpt><trkpt lat="38.0949667" lon="14.87224"><ele>877.3333333333333</ele><time>2026-05-03T07:16:05.263Z</time></trkpt><trkpt lat="38.0948717" lon="14.87232"><ele>878.0</ele><time>2026-05-03T07:16:07.263Z</time></trkpt><trkpt lat="38.0947983" lon="14.8723833"><ele>878.6666666666666</ele><time>2026-05-03T07:16:09.263Z</time></trkpt><trkpt lat="38.0947383" lon="14.8724417"><ele>879.3333333333333</ele><time>2026-05-03T07:16:11.263Z</time></trkpt><trkpt lat="38.0946733" lon="14.8724883"><ele>880.0</ele><time>2026-05-03T07:16:13.263Z</time></trkpt><trkpt lat="38.09461" lon="14.8725417"><ele>870.0</ele><time>2026-05-03T07:16:15.263Z</time></trkpt><trkpt lat="38.0945517" lon="14.8726067"><ele>873.0</ele><time>2026-05-03T07:16:17.263Z</time></trkpt><trkpt lat="38.0944817" lon="14.8726617"><ele>873.0</ele><time>2026-05-03T07:16:19.263Z</time></trkpt></trkseg><trkseg><trkpt lat="38.0905983" lon="14.87641"><ele>837.0</ele><time>2026-05-03T07:18:03.253Z</time></trkpt><trkpt lat="38.0905767" lon="14.8764883"><ele>837.0</ele><time>2026-05-03T07:18:14.253Z</time></trkpt><trkpt lat="38.090525" lon="14.8764"><ele>837.0</ele><time>2026-05-03T07:18:55.253Z</time></trkpt><trkpt lat="38.090475" lon="14.8764533"><ele>837.0</ele><time>2026-05-03T07:18:59.252Z</time></trkpt><trkpt lat="38.090385" lon="14.8765017"><ele>837.0</ele><time>2026-05-03T07:19:03.253Z</time></trkpt><trkpt lat="38.090305" lon="14.8765517"><ele>837.0</ele><time>2026-05-03T07:19:05.253Z</time></trkpt><trkpt lat="38.0902383" lon="14.87658"><ele>837.0</ele><time>2026-05-03T07:19:07.253Z</time></trkpt><trkpt lat="38.0901717" lon="14.8766367"><ele>837.0</ele><time>2026-05-03T07:19:09.253Z</time></trkpt><trkpt lat="38.090125" lon="14.876705"><ele>837.0</ele><time>2026-05-03T07:19:11.253Z</time></trkpt><trkpt lat="38.0900917" lon="14.8767833"><ele>837.0</ele><time>2026-05-03T07:19:13.253Z</time></trkpt><trkpt lat="38.0900683" lon="14.8768583"><ele>837.0</ele><time>2026-05-03T07:19:15.253Z</time></trkpt><trkpt lat="38.090045" lon="14.8769383"><ele>837.0</ele><time>2026-05-03T07:19:17.253Z</time></trkpt><trkpt lat="38.0900217" lon="14.8770633"><ele>836.75</ele><time>2026-05-03T07:19:19.252Z</time></trkpt><trkpt lat="38.09002" lon="14.8772083"><ele>836.5</ele><time>2026-05-03T07:19:21.253Z</time></trkpt><trkpt lat="38.0900183" lon="14.87738"><ele>836.25</ele><time>2026-05-03T07:19:23.253Z</time></trkpt><trkpt lat="38.0900133" lon="14.877505"><ele>836.0</ele><time>2026-05-03T07:19:24.253Z</time></trkpt><trkpt lat="38.0900083" lon="14.877635"><ele>836.0</ele><time>2026-05-03T07:19:25.253Z</time></trkpt><trkpt lat="38.0900033" lon="14.8777983"><ele>836.0</ele><time>2026-05-03T07:19:26.253Z</time></trkpt><trkpt lat="38.0899967" lon="14.8779183"><ele>836.0</ele><time>2026-05-03T07:19:27.253Z</time></trkpt><trkpt lat="38.08998" lon="14.8780333"><ele>836.0</ele><time>2026-05-03T07:19:28.253Z</time></trkpt><trkpt lat="38.0899517" lon="14.878135"><ele>836.0</ele><time>2026-05-03T07:19:29.253Z</time></trkpt><trkpt lat="38.0899217" lon="14.87823"><ele>831.6666666666667</ele><time>2026-05-03T07:19:30.253Z</time></trkpt><trkpt lat="38.089885" lon="14.8783317"><ele>827.3333333333334</ele><time>2026-05-03T07:19:31.253Z</time></trkpt><trkpt lat="38.089865" lon="14.8784267"><ele>823.0</ele><time>2026-05-03T07:19:32.253Z</time></trkpt><trkpt lat="38.089835" lon="14.8785167"><ele>818.6666666666667</ele><time>2026-05-03T07:19:33.253Z</time></trkpt><trkpt lat="38.0898033" lon="14.8786083"><ele>814.3333333333334</ele><time>2026-05-03T07:19:34.253Z</time></trkpt><trkpt lat="38.089775" lon="14.87869"><ele>810.0</ele><time>2026-05-03T07:19:35.253Z</time></trkpt><trkpt lat="38.0897617" lon="14.87877"><ele>810.0</ele><time>2026-05-03T07:19:36.252Z</time></trkpt><trkpt lat="38.0897667" lon="14.8788583"><ele>810.0</ele><time>2026-05-03T07:19:37.253Z</time></trkpt><trkpt lat="38.0897833" lon="14.87894"><ele>810.0</ele><time>2026-05-03T07:19:38.253Z</time></trkpt><trkpt lat="38.0898133" lon="14.8790783"><ele>810.0</ele><time>2026-05-03T07:19:40.253Z</time></trkpt><trkpt lat="38.0898233" lon="14.8792117"><ele>810.0</ele><time>2026-05-03T07:19:42.253Z</time></trkpt><trkpt lat="38.0898" lon="14.8793333"><ele>811.2</ele><time>2026-05-03T07:19:44.253Z</time></trkpt><trkpt lat="38.08972" lon="14.879475"><ele>812.4</ele><time>2026-05-03T07:19:46.253Z</time></trkpt><trkpt lat="38.0896583" lon="14.87957"><ele>813.5999999999999</ele><time>2026-05-03T07:19:47.253Z</time></trkpt><trkpt lat="38.089595" lon="14.8796717"><ele>814.8</ele><time>2026-05-03T07:19:48.253Z</time></trkpt><trkpt lat="38.0895367" lon="14.8797667"><ele>816.0</ele><time>2026-05-03T07:19:49.253Z</time></trkpt><trkpt lat="38.08948" lon="14.87985"><ele>816.0</ele><time>2026-05-03T07:19:50.253Z</time></trkpt><trkpt lat="38.0894233" lon="14.87994"><ele>816.0</ele><time>2026-05-03T07:19:51.253Z</time></trkpt><trkpt lat="38.0893467" lon="14.8800267"><ele>816.0</ele><time>2026-05-03T07:19:52.253Z</time></trkpt><trkpt lat="38.0892617" lon="14.880115"><ele>816.0</ele><time>2026-05-03T07:19:53.253Z</time></trkpt><trkpt lat="38.08918" lon="14.8802167"><ele>816.0</ele><time>2026-05-03T07:19:54.252Z</time></trkpt><trkpt lat="38.0891017" lon="14.8803383"><ele>814.3333333333333</ele><time>2026-05-03T07:19:55.253Z</time></trkpt><trkpt lat="38.0890033" lon="14.880495"><ele>812.6666666666666</ele><time>2026-05-03T07:19:56.253Z</time></trkpt><trkpt lat="38.0889033" lon="14.8806617"><ele>811.0</ele><time>2026-05-03T07:19:57.253Z</time></trkpt><trkpt lat="38.0887933" lon="14.8808267"><ele>818.0</ele><time>2026-05-03T07:19:58.253Z</time></trkpt><trkpt lat="38.08867" lon="14.88099"><ele>825.0</ele><time>2026-05-03T07:19:59.252Z</time></trkpt><trkpt lat="38.0885417" lon="14.8811517"><ele>832.0</ele><time>2026-05-03T07:20:00.253Z</time></trkpt><trkpt lat="38.0884017" lon="14.8813183"><ele>832.0</ele><time>2026-05-03T07:20:01.253Z</time></trkpt><trkpt lat="38.0882633" lon="14.8814767"><ele>832.0</ele><time>2026-05-03T07:20:02.253Z</time></trkpt><trkpt lat="38.0881317" lon="14.881645"><ele>832.0</ele><time>2026-05-03T07:20:03.253Z</time></trkpt><trkpt lat="38.0880083" lon="14.8817967"><ele>834.25</ele><time>2026-05-03T07:20:04.253Z</time></trkpt><trkpt lat="38.0878933" lon="14.8819217"><ele>836.5</ele><time>2026-05-03T07:20:05.252Z</time></trkpt><trkpt lat="38.08778" lon="14.8820233"><ele>838.75</ele><time>2026-05-03T07:20:06.252Z</time></trkpt><trkpt lat="38.087685" lon="14.8821117"><ele>841.0</ele><time>2026-05-03T07:20:07.253Z</time></trkpt><trkpt lat="38.0876133" lon="14.8822033"><ele>841.0</ele><time>2026-05-03T07:20:08.253Z</time></trkpt><trkpt lat="38.0875467" lon="14.8823167"><ele>841.0</ele><time>2026-05-03T07:20:09.252Z</time></trkpt><trkpt lat="38.08749" lon="14.88244"><ele>841.0</ele><time>2026-05-03T07:20:10.252Z</time></trkpt><trkpt lat="38.0874317" lon="14.8825633"><ele>841.0</ele><time>2026-05-03T07:20:11.253Z</time></trkpt><trkpt lat="38.087385" lon="14.8826817"><ele>841.0</ele><time>2026-05-03T07:20:12.253Z</time></trkpt><trkpt lat="38.0873367" lon="14.882805"><ele>842.0</ele><time>2026-05-03T07:20:13.253Z</time></trkpt><trkpt lat="38.08728" lon="14.8829333"><ele>843.0</ele><time>2026-05-03T07:20:14.253Z</time></trkpt><trkpt lat="38.087235" lon="14.883045"><ele>844.0</ele><time>2026-05-03T07:20:15.253Z</time></trkpt><trkpt lat="38.087185" lon="14.88314"><ele>845.0</ele><time>2026-05-03T07:20:16.252Z</time></trkpt><trkpt lat="38.0871283" lon="14.883225"><ele>846.0</ele><time>2026-05-03T07:20:17.253Z</time></trkpt><trkpt lat="38.087075" lon="14.8832967"><ele>846.0</ele><time>2026-05-03T07:20:18.253Z</time></trkpt><trkpt lat="38.0870117" lon="14.8833733"><ele>846.0</ele><time>2026-05-03T07:20:19.253Z</time></trkpt><trkpt lat="38.0869533" lon="14.8834433"><ele>846.0</ele><time>2026-05-03T07:20:20.253Z</time></trkpt><trkpt lat="38.0869" lon="14.8835217"><ele>846.0</ele><time>2026-05-03T07:20:21.253Z</time></trkpt><trkpt lat="38.08685" lon="14.8836133"><ele>846.0</ele><time>2026-05-03T07:20:22.253Z</time></trkpt><trkpt lat="38.086825" lon="14.883705"><ele>846.0</ele><time>2026-05-03T07:20:23.253Z</time></trkpt><trkpt lat="38.0868033" lon="14.8837983"><ele>845.0</ele><time>2026-05-03T07:20:24.253Z</time></trkpt><trkpt lat="38.08677" lon="14.883875"><ele>844.0</ele><time>2026-05-03T07:20:25.253Z</time></trkpt><trkpt lat="38.0867233" lon="14.883935"><ele>843.0</ele><time>2026-05-03T07:20:26.253Z</time></trkpt><trkpt lat="38.0866633" lon="14.8839867"><ele>842.0</ele><time>2026-05-03T07:20:27.253Z</time></trkpt><trkpt lat="38.08659" lon="14.8840183"><ele>841.0</ele><time>2026-05-03T07:20:28.253Z</time></trkpt><trkpt lat="38.086525" lon="14.8840383"><ele>840.0</ele><time>2026-05-03T07:20:29.253Z</time></trkpt><trkpt lat="38.0864467" lon="14.8840333"><ele>839.0</ele><time>2026-05-03T07:20:30.253Z</time></trkpt><trkpt lat="38.0863633" lon="14.88401"><ele>837.3333333333334</ele><time>2026-05-03T07:20:31.253Z</time></trkpt><trkpt lat="38.086285" lon="14.8839617"><ele>835.6666666666667</ele><time>2026-05-03T07:20:32.253Z</time></trkpt><trkpt lat="38.08621" lon="14.8839133"><ele>834.0</ele><time>2026-05-03T07:20:33.253Z</time></trkpt><trkpt lat="38.0861267" lon="14.883865"><ele>832.3333333333333</ele><time>2026-05-03T07:20:34.253Z</time></trkpt><trkpt lat="38.08604" lon="14.883835"><ele>830.6666666666666</ele><time>2026-05-03T07:20:35.253Z</time></trkpt><trkpt lat="38.0859517" lon="14.8838167"><ele>829.0</ele><time>2026-05-03T07:20:36.253Z</time></trkpt><trkpt lat="38.085865" lon="14.8838017"><ele>829.0</ele><time>2026-05-03T07:20:37.253Z</time></trkpt><trkpt lat="38.0857683" lon="14.883785"><ele>829.0</ele><time>2026-05-03T07:20:38.253Z</time></trkpt><trkpt lat="38.0856683" lon="14.8837817"><ele>829.0</ele><time>2026-05-03T07:20:39.253Z</time></trkpt><trkpt lat="38.0855683" lon="14.8837933"><ele>829.0</ele><time>2026-05-03T07:20:40.253Z</time></trkpt><trkpt lat="38.0854767" lon="14.883805"><ele>829.0</ele><time>2026-05-03T07:20:41.252Z</time></trkpt><trkpt lat="38.0853817" lon="14.8838217"><ele>828.8000000000001</ele><time>2026-05-03T07:20:42.253Z</time></trkpt><trkpt lat="38.0852933" lon="14.883835"><ele>828.6</ele><time>2026-05-03T07:20:43.253Z</time></trkpt><trkpt lat="38.0852017" lon="14.88386"><ele>828.4</ele><time>2026-05-03T07:20:44.253Z</time></trkpt><trkpt lat="38.0851067" lon="14.8838883"><ele>828.2</ele><time>2026-05-03T07:20:45.252Z</time></trkpt><trkpt lat="38.0850117" lon="14.883915"><ele>828.0</ele><time>2026-05-03T07:20:46.252Z</time></trkpt><trkpt lat="38.0849117" lon="14.88395"><ele>826.2</ele><time>2026-05-03T07:20:47.252Z</time></trkpt><trkpt lat="38.084815" lon="14.8840033"><ele>824.4</ele><time>2026-05-03T07:20:48.253Z</time></trkpt><trkpt lat="38.0847217" lon="14.8840833"><ele>822.6</ele><time>2026-05-03T07:20:49.253Z</time></trkpt><trkpt lat="38.0846433" lon="14.88418"><ele>820.8000000000001</ele><time>2026-05-03T07:20:50.252Z</time></trkpt><trkpt lat="38.0845667" lon="14.88428"><ele>819.0</ele><time>2026-05-03T07:20:51.253Z</time></trkpt><trkpt lat="38.0844967" lon="14.88439"><ele>819.0</ele><time>2026-05-03T07:20:52.253Z</time></trkpt><trkpt lat="38.0844183" lon="14.88451"><ele>819.0</ele><time>2026-05-03T07:20:53.253Z</time></trkpt><trkpt lat="38.084355" lon="14.8846283"><ele>819.0</ele><time>2026-05-03T07:20:54.253Z</time></trkpt><trkpt lat="38.0842867" lon="14.8847417"><ele>819.0</ele><time>2026-05-03T07:20:55.253Z</time></trkpt><trkpt lat="38.0842217" lon="14.8848333"><ele>819.0</ele><time>2026-05-03T07:20:56.253Z</time></trkpt><trkpt lat="38.084135" lon="14.8849017"><ele>817.4000000000001</ele><time>2026-05-03T07:20:57.253Z</time></trkpt><trkpt lat="38.08404" lon="14.8849583"><ele>815.8</ele><time>2026-05-03T07:20:58.253Z</time></trkpt><trkpt lat="38.083935" lon="14.8849883"><ele>814.2</ele><time>2026-05-03T07:20:59.252Z</time></trkpt><trkpt lat="38.0838167" lon="14.8849917"><ele>812.5999999999999</ele><time>2026-05-03T07:21:00.253Z</time></trkpt><trkpt lat="38.0837167" lon="14.88497"><ele>811.0</ele><time>2026-05-03T07:21:01.253Z</time></trkpt><trkpt lat="38.08363" lon="14.8849417"><ele>810.9999999999999</ele><time>2026-05-03T07:21:02.253Z</time></trkpt><trkpt lat="38.0835433" lon="14.884915"><ele>811.0</ele><time>2026-05-03T07:21:03.253Z</time></trkpt><trkpt lat="38.083465" lon="14.8848783"><ele>811.0</ele><time>2026-05-03T07:21:04.253Z</time></trkpt><trkpt lat="38.0833967" lon="14.8848333"><ele>811.0</ele><time>2026-05-03T07:21:05.253Z</time></trkpt><trkpt lat="38.0833217" lon="14.884795"><ele>810.9999999999999</ele><time>2026-05-03T07:21:07.253Z</time></trkpt><trkpt lat="38.0832533" lon="14.8849017"><ele>811.0</ele><time>2026-05-03T07:21:09.252Z</time></trkpt><trkpt lat="38.0832417" lon="14.884985"><ele>809.1666666666666</ele><time>2026-05-03T07:21:10.253Z</time></trkpt><trkpt lat="38.083245" lon="14.8850717"><ele>807.3333333333333</ele><time>2026-05-03T07:21:11.253Z</time></trkpt><trkpt lat="38.0832383" lon="14.885165"><ele>805.5</ele><time>2026-05-03T07:21:12.253Z</time></trkpt><trkpt lat="38.0832267" lon="14.8852633"><ele>803.6666666666667</ele><time>2026-05-03T07:21:13.253Z</time></trkpt><trkpt lat="38.0832067" lon="14.885365"><ele>801.8333333333334</ele><time>2026-05-03T07:21:14.253Z</time></trkpt><trkpt lat="38.0831783" lon="14.8854667"><ele>800.0</ele><time>2026-05-03T07:21:15.253Z</time></trkpt><trkpt lat="38.0831483" lon="14.885585"><ele>800.0</ele><time>2026-05-03T07:21:16.253Z</time></trkpt><trkpt lat="38.0831117" lon="14.8857133"><ele>800.0</ele><time>2026-05-03T07:21:17.253Z</time></trkpt><trkpt lat="38.0830783" lon="14.8858717"><ele>800.0</ele><time>2026-05-03T07:21:18.253Z</time></trkpt><trkpt lat="38.08305" lon="14.8860283"><ele>800.0</ele><time>2026-05-03T07:21:19.253Z</time></trkpt><trkpt lat="38.083015" lon="14.8861633"><ele>804.6</ele><time>2026-05-03T07:21:20.253Z</time></trkpt><trkpt lat="38.0829783" lon="14.886275"><ele>809.2</ele><time>2026-05-03T07:21:21.253Z</time></trkpt><trkpt lat="38.0829217" lon="14.8863817"><ele>813.8</ele><time>2026-05-03T07:21:22.253Z</time></trkpt><trkpt lat="38.0828417" lon="14.8864683"><ele>818.4</ele><time>2026-05-03T07:21:23.253Z</time></trkpt><trkpt lat="38.082755" lon="14.886535"><ele>823.0</ele><time>2026-05-03T07:21:24.253Z</time></trkpt><trkpt lat="38.0826333" lon="14.8865467"><ele>823.0</ele><time>2026-05-03T07:21:25.253Z</time></trkpt><trkpt lat="38.0824983" lon="14.886565"><ele>823.0</ele><time>2026-05-03T07:21:26.253Z</time></trkpt><trkpt lat="38.0823683" lon="14.8865967"><ele>823.0</ele><time>2026-05-03T07:21:27.253Z</time></trkpt><trkpt lat="38.0822433" lon="14.8866617"><ele>823.0</ele><time>2026-05-03T07:21:28.253Z</time></trkpt><trkpt lat="38.08213" lon="14.8867167"><ele>825.1666666666666</ele><time>2026-05-03T07:21:29.253Z</time></trkpt><trkpt lat="38.08202" lon="14.8867783"><ele>827.3333333333333</ele><time>2026-05-03T07:21:30.252Z</time></trkpt><trkpt lat="38.081945" lon="14.886825"><ele>829.5</ele><time>2026-05-03T07:21:31.253Z</time></trkpt><trkpt lat="38.0818817" lon="14.886875"><ele>831.6666666666667</ele><time>2026-05-03T07:21:33.253Z</time></trkpt><trkpt lat="38.0818283" lon="14.8869433"><ele>833.8333333333334</ele><time>2026-05-03T07:23:07.254Z</time></trkpt><trkpt lat="38.0817567" lon="14.8869767"><ele>836.0</ele><time>2026-05-03T07:23:09.254Z</time></trkpt><trkpt lat="38.08167" lon="14.8869767"><ele>838.1999999999999</ele><time>2026-05-03T07:23:12.254Z</time></trkpt><trkpt lat="38.0815683" lon="14.886945"><ele>840.4</ele><time>2026-05-03T07:23:14.254Z</time></trkpt><trkpt lat="38.0814617" lon="14.8869067"><ele>842.6</ele><time>2026-05-03T07:23:16.254Z</time></trkpt><trkpt lat="38.0813617" lon="14.88686"><ele>844.8</ele><time>2026-05-03T07:23:18.254Z</time></trkpt><trkpt lat="38.08126" lon="14.8868167"><ele>847.0</ele><time>2026-05-03T07:23:20.254Z</time></trkpt><trkpt lat="38.0811567" lon="14.8867983"><ele>847.0</ele><time>2026-05-03T07:23:22.254Z</time></trkpt><trkpt lat="38.08105" lon="14.886805"><ele>847.0</ele><time>2026-05-03T07:23:24.254Z</time></trkpt><trkpt lat="38.0809583" lon="14.8868317"><ele>847.0</ele><time>2026-05-03T07:23:26.254Z</time></trkpt><trkpt lat="38.0808367" lon="14.88687"><ele>847.0</ele><time>2026-05-03T07:23:28.254Z</time></trkpt><trkpt lat="38.0807017" lon="14.886925"><ele>846.0</ele><time>2026-05-03T07:23:30.254Z</time></trkpt><trkpt lat="38.080615" lon="14.8869683"><ele>845.0</ele><time>2026-05-03T07:23:31.254Z</time></trkpt><trkpt lat="38.0805233" lon="14.8870233"><ele>844.0</ele><time>2026-05-03T07:23:32.254Z</time></trkpt><trkpt lat="38.080435" lon="14.887075"><ele>843.0</ele><time>2026-05-03T07:23:33.254Z</time></trkpt><trkpt lat="38.0803567" lon="14.887135"><ele>842.0</ele><time>2026-05-03T07:23:34.254Z</time></trkpt><trkpt lat="38.0802717" lon="14.8871933"><ele>842.0000000000001</ele><time>2026-05-03T07:23:35.254Z</time></trkpt><trkpt lat="38.0801917" lon="14.8872483"><ele>842.0</ele><time>2026-05-03T07:23:36.254Z</time></trkpt><trkpt lat="38.080105" lon="14.887305"><ele>842.0</ele><time>2026-05-03T07:23:37.254Z</time></trkpt><trkpt lat="38.0800317" lon="14.887355"><ele>842.0</ele><time>2026-05-03T07:23:38.254Z</time></trkpt><trkpt lat="38.0799583" lon="14.8873967"><ele>842.0000000000001</ele><time>2026-05-03T07:23:39.253Z</time></trkpt><trkpt lat="38.0798767" lon="14.88744"><ele>842.0</ele><time>2026-05-03T07:23:40.254Z</time></trkpt><trkpt lat="38.0797967" lon="14.8874933"><ele>840.8</ele><time>2026-05-03T07:23:41.254Z</time></trkpt><trkpt lat="38.07972" lon="14.887555"><ele>839.6</ele><time>2026-05-03T07:23:42.254Z</time></trkpt><trkpt lat="38.0796483" lon="14.8876283"><ele>838.4</ele><time>2026-05-03T07:23:43.254Z</time></trkpt><trkpt lat="38.07958" lon="14.8877133"><ele>837.1999999999999</ele><time>2026-05-03T07:23:44.254Z</time></trkpt><trkpt lat="38.07952" lon="14.8878033"><ele>836.0</ele><time>2026-05-03T07:23:45.254Z</time></trkpt><trkpt lat="38.0794683" lon="14.8878933"><ele>836.0</ele><time>2026-05-03T07:23:46.254Z</time></trkpt><trkpt lat="38.0794067" lon="14.8879933"><ele>836.0</ele><time>2026-05-03T07:23:47.254Z</time></trkpt><trkpt lat="38.0793583" lon="14.8880967"><ele>836.0</ele><time>2026-05-03T07:23:48.254Z</time></trkpt><trkpt lat="38.07932" lon="14.88823"><ele>836.0</ele><time>2026-05-03T07:23:49.254Z</time></trkpt><trkpt lat="38.07929" lon="14.8883733"><ele>836.0</ele><time>2026-05-03T07:23:50.254Z</time></trkpt><trkpt lat="38.07927" lon="14.8885233"><ele>834.5999999999999</ele><time>2026-05-03T07:23:51.254Z</time></trkpt><trkpt lat="38.0792483" lon="14.8886667"><ele>833.2</ele><time>2026-05-03T07:23:52.254Z</time></trkpt><trkpt lat="38.0792267" lon="14.8888033"><ele>831.8</ele><time>2026-05-03T07:23:53.254Z</time></trkpt><trkpt lat="38.079185" lon="14.8889217"><ele>830.4000000000001</ele><time>2026-05-03T07:23:54.254Z</time></trkpt><trkpt lat="38.0791367" lon="14.8890383"><ele>829.0</ele><time>2026-05-03T07:23:55.253Z</time></trkpt><trkpt lat="38.0790783" lon="14.8891383"><ele>829.0</ele><time>2026-05-03T07:23:56.254Z</time></trkpt><trkpt lat="38.079" lon="14.889225"><ele>829.0</ele><time>2026-05-03T07:23:57.254Z</time></trkpt><trkpt lat="38.0789017" lon="14.8892917"><ele>829.0</ele><time>2026-05-03T07:23:58.254Z</time></trkpt><trkpt lat="38.0787883" lon="14.8893317"><ele>829.0</ele><time>2026-05-03T07:23:59.254Z</time></trkpt><trkpt lat="38.0786733" lon="14.8893767"><ele>831.6</ele><time>2026-05-03T07:24:00.254Z</time></trkpt><trkpt lat="38.0785667" lon="14.8894467"><ele>834.2</ele><time>2026-05-03T07:24:01.254Z</time></trkpt><trkpt lat="38.07849" lon="14.8895417"><ele>836.8000000000001</ele><time>2026-05-03T07:24:02.254Z</time></trkpt><trkpt lat="38.07843" lon="14.8896517"><ele>839.4000000000001</ele><time>2026-05-03T07:24:03.254Z</time></trkpt><trkpt lat="38.07839" lon="14.8897767"><ele>842.0</ele><time>2026-05-03T07:24:04.254Z</time></trkpt><trkpt lat="38.0783733" lon="14.889895"><ele>842.0000000000001</ele><time>2026-05-03T07:24:05.254Z</time></trkpt><trkpt lat="38.0783717" lon="14.8899967"><ele>842.0</ele><time>2026-05-03T07:24:06.254Z</time></trkpt><trkpt lat="38.0783567" lon="14.8900817"><ele>842.0</ele><time>2026-05-03T07:24:07.254Z</time></trkpt><trkpt lat="38.0783383" lon="14.89016"><ele>842.0</ele><time>2026-05-03T07:24:08.254Z</time></trkpt><trkpt lat="38.0783067" lon="14.890235"><ele>842.0</ele><time>2026-05-03T07:24:09.254Z</time></trkpt><trkpt lat="38.0782517" lon="14.8902933"><ele>842.0000000000001</ele><time>2026-05-03T07:24:10.254Z</time></trkpt><trkpt lat="38.0781833" lon="14.8903433"><ele>842.0</ele><time>2026-05-03T07:24:11.254Z</time></trkpt><trkpt lat="38.0781117" lon="14.89039"><ele>839.0</ele><time>2026-05-03T07:24:12.254Z</time></trkpt><trkpt lat="38.0780383" lon="14.8904283"><ele>836.0</ele><time>2026-05-03T07:24:13.254Z</time></trkpt><trkpt lat="38.0779617" lon="14.890485"><ele>833.0</ele><time>2026-05-03T07:24:14.254Z</time></trkpt><trkpt lat="38.07789" lon="14.8905633"><ele>830.0</ele><time>2026-05-03T07:24:15.254Z</time></trkpt><trkpt lat="38.0778317" lon="14.890655"><ele>827.0</ele><time>2026-05-03T07:24:16.254Z</time></trkpt><trkpt lat="38.0777667" lon="14.89075"><ele>827.0</ele><time>2026-05-03T07:24:17.254Z</time></trkpt><trkpt lat="38.0777017" lon="14.89084"><ele>827.0</ele><time>2026-05-03T07:24:18.254Z</time></trkpt><trkpt lat="38.0776317" lon="14.8909167"><ele>827.0</ele><time>2026-05-03T07:24:19.254Z</time></trkpt><trkpt lat="38.0775583" lon="14.8909933"><ele>827.0</ele><time>2026-05-03T07:24:20.254Z</time></trkpt><trkpt lat="38.077475" lon="14.8910633"><ele>827.0</ele><time>2026-05-03T07:24:21.254Z</time></trkpt><trkpt lat="38.07739" lon="14.8911433"><ele>827.4000000000001</ele><time>2026-05-03T07:24:22.254Z</time></trkpt><trkpt lat="38.077305" lon="14.8912217"><ele>827.8000000000001</ele><time>2026-05-03T07:24:23.254Z</time></trkpt><trkpt lat="38.0772267" lon="14.8913033"><ele>828.2</ele><time>2026-05-03T07:24:24.254Z</time></trkpt><trkpt lat="38.0771483" lon="14.8913917"><ele>828.6</ele><time>2026-05-03T07:24:25.254Z</time></trkpt><trkpt lat="38.07706" lon="14.8914817"><ele>829.0</ele><time>2026-05-03T07:24:26.254Z</time></trkpt><trkpt lat="38.0769667" lon="14.8915733"><ele>829.0</ele><time>2026-05-03T07:24:27.254Z</time></trkpt><trkpt lat="38.0768667" lon="14.8916517"><ele>829.0</ele><time>2026-05-03T07:24:28.253Z</time></trkpt><trkpt lat="38.0767583" lon="14.89173"><ele>829.0</ele><time>2026-05-03T07:24:29.254Z</time></trkpt><trkpt lat="38.0766367" lon="14.8918083"><ele>829.0</ele><time>2026-05-03T07:24:30.254Z</time></trkpt><trkpt lat="38.076495" lon="14.8918817"><ele>835.6666666666666</ele><time>2026-05-03T07:24:31.254Z</time></trkpt><trkpt lat="38.0763367" lon="14.8919283"><ele>842.3333333333333</ele><time>2026-05-03T07:24:32.254Z</time></trkpt><trkpt lat="38.0761733" lon="14.89195"><ele>849.0</ele><time>2026-05-03T07:24:33.253Z</time></trkpt><trkpt lat="38.0760183" lon="14.891955"><ele>849.0</ele><time>2026-05-03T07:24:34.254Z</time></trkpt><trkpt lat="38.0758783" lon="14.8919667"><ele>849.0</ele><time>2026-05-03T07:24:35.254Z</time></trkpt><trkpt lat="38.075745" lon="14.8919967"><ele>849.0</ele><time>2026-05-03T07:24:36.254Z</time></trkpt><trkpt lat="38.0756" lon="14.892045"><ele>849.0</ele><time>2026-05-03T07:24:37.254Z</time></trkpt><trkpt lat="38.0754533" lon="14.8921017"><ele>850.0</ele><time>2026-05-03T07:24:38.253Z</time></trkpt><trkpt lat="38.07532" lon="14.8921333"><ele>851.0</ele><time>2026-05-03T07:24:39.254Z</time></trkpt><trkpt lat="38.0752033" lon="14.89214"><ele>852.0</ele><time>2026-05-03T07:24:40.254Z</time></trkpt><trkpt lat="38.0750967" lon="14.89217"><ele>853.0</ele><time>2026-05-03T07:24:41.254Z</time></trkpt><trkpt lat="38.0750083" lon="14.8922367"><ele>852.8</ele><time>2026-05-03T07:24:42.254Z</time></trkpt><trkpt lat="38.074925" lon="14.8923117"><ele>852.5999999999999</ele><time>2026-05-03T07:24:43.254Z</time></trkpt><trkpt lat="38.0748567" lon="14.892395"><ele>852.4000000000001</ele><time>2026-05-03T07:24:44.254Z</time></trkpt><trkpt lat="38.0747817" lon="14.8924683"><ele>852.2</ele><time>2026-05-03T07:24:45.254Z</time></trkpt><trkpt lat="38.0747117" lon="14.8925217"><ele>852.0</ele><time>2026-05-03T07:24:46.254Z</time></trkpt><trkpt lat="38.074625" lon="14.8925633"><ele>851.2</ele><time>2026-05-03T07:24:47.254Z</time></trkpt><trkpt lat="38.0745383" lon="14.8925983"><ele>850.4000000000001</ele><time>2026-05-03T07:24:48.253Z</time></trkpt><trkpt lat="38.074455" lon="14.8926183"><ele>849.5999999999999</ele><time>2026-05-03T07:24:49.254Z</time></trkpt><trkpt lat="38.074365" lon="14.8926433"><ele>848.8</ele><time>2026-05-03T07:24:50.254Z</time></trkpt><trkpt lat="38.0742733" lon="14.8926867"><ele>848.0</ele><time>2026-05-03T07:24:51.254Z</time></trkpt><trkpt lat="38.0741683" lon="14.8927317"><ele>852.0</ele><time>2026-05-03T07:24:52.254Z</time></trkpt><trkpt lat="38.074065" lon="14.8927833"><ele>856.0</ele><time>2026-05-03T07:24:53.254Z</time></trkpt><trkpt lat="38.07396" lon="14.8928383"><ele>860.0</ele><time>2026-05-03T07:24:54.254Z</time></trkpt><trkpt lat="38.073855" lon="14.8928933"><ele>864.0</ele><time>2026-05-03T07:24:55.254Z</time></trkpt><trkpt lat="38.073755" lon="14.8929667"><ele>864.0</ele><time>2026-05-03T07:24:56.254Z</time></trkpt><trkpt lat="38.0736717" lon="14.8930417"><ele>864.0</ele><time>2026-05-03T07:24:57.254Z</time></trkpt><trkpt lat="38.0735967" lon="14.8930833"><ele>864.0</ele><time>2026-05-03T07:24:58.254Z</time></trkpt><trkpt lat="38.0735233" lon="14.893095"><ele>864.0</ele><time>2026-05-03T07:24:59.253Z</time></trkpt><trkpt lat="38.073445" lon="14.8930733"><ele>864.0</ele><time>2026-05-03T07:25:00.254Z</time></trkpt><trkpt lat="38.0733667" lon="14.8930283"><ele>864.0</ele><time>2026-05-03T07:25:01.254Z</time></trkpt><trkpt lat="38.07328" lon="14.8929683"><ele>865.8000000000001</ele><time>2026-05-03T07:25:02.254Z</time></trkpt><trkpt lat="38.0731917" lon="14.8929317"><ele>867.6000000000001</ele><time>2026-05-03T07:25:03.253Z</time></trkpt><trkpt lat="38.0731" lon="14.8929467"><ele>869.4</ele><time>2026-05-03T07:25:04.254Z</time></trkpt><trkpt lat="38.0730167" lon="14.8930033"><ele>871.2</ele><time>2026-05-03T07:25:05.253Z</time></trkpt><trkpt lat="38.0729367" lon="14.8930917"><ele>873.0</ele><time>2026-05-03T07:25:06.254Z</time></trkpt><trkpt lat="38.0728483" lon="14.89319"><ele>873.0</ele><time>2026-05-03T07:25:07.254Z</time></trkpt><trkpt lat="38.0727483" lon="14.8932683"><ele>873.0</ele><time>2026-05-03T07:25:08.254Z</time></trkpt><trkpt lat="38.0726367" lon="14.8933233"><ele>873.0</ele><time>2026-05-03T07:25:09.254Z</time></trkpt><trkpt lat="38.072515" lon="14.893345"><ele>873.0</ele><time>2026-05-03T07:25:10.254Z</time></trkpt><trkpt lat="38.0724233" lon="14.893345"><ele>875.5</ele><time>2026-05-03T07:25:11.254Z</time></trkpt><trkpt lat="38.072335" lon="14.8933217"><ele>878.0</ele><time>2026-05-03T07:25:12.254Z</time></trkpt><trkpt lat="38.0722667" lon="14.8933183"><ele>880.5</ele><time>2026-05-03T07:25:13.254Z</time></trkpt><trkpt lat="38.0721883" lon="14.893405"><ele>883.0</ele><time>2026-05-03T07:25:15.254Z</time></trkpt><trkpt lat="38.0721867" lon="14.8934933"><ele>885.5</ele><time>2026-05-03T07:25:16.254Z</time></trkpt><trkpt lat="38.0721967" lon="14.8936167"><ele>888.0</ele><time>2026-05-03T07:25:17.254Z</time></trkpt><trkpt lat="38.0722117" lon="14.893765"><ele>891.0</ele><time>2026-05-03T07:25:18.254Z</time></trkpt><trkpt lat="38.07223" lon="14.8939367"><ele>894.0</ele><time>2026-05-03T07:25:19.254Z</time></trkpt><trkpt lat="38.0722233" lon="14.8941017"><ele>897.0</ele><time>2026-05-03T07:25:20.254Z</time></trkpt><trkpt lat="38.072195" lon="14.8942733"><ele>900.0</ele><time>2026-05-03T07:25:21.254Z</time></trkpt><trkpt lat="38.072145" lon="14.89444"><ele>900.5</ele><time>2026-05-03T07:25:22.254Z</time></trkpt><trkpt lat="38.072085" lon="14.8946083"><ele>901.0</ele><time>2026-05-03T07:25:23.254Z</time></trkpt><trkpt lat="38.07203" lon="14.89477"><ele>901.5</ele><time>2026-05-03T07:25:24.254Z</time></trkpt><trkpt lat="38.0719817" lon="14.89493"><ele>902.0</ele><time>2026-05-03T07:25:25.254Z</time></trkpt><trkpt lat="38.07193" lon="14.89506"><ele>901.4000000000001</ele><time>2026-05-03T07:25:26.254Z</time></trkpt><trkpt lat="38.071865" lon="14.89517"><ele>900.8000000000001</ele><time>2026-05-03T07:25:27.254Z</time></trkpt><trkpt lat="38.0717833" lon="14.8952517"><ele>900.2</ele><time>2026-05-03T07:25:28.254Z</time></trkpt><trkpt lat="38.0716933" lon="14.89531"><ele>899.6</ele><time>2026-05-03T07:25:29.254Z</time></trkpt><trkpt lat="38.0715883" lon="14.8953633"><ele>899.0</ele><time>2026-05-03T07:25:30.254Z</time></trkpt><trkpt lat="38.0714983" lon="14.8954367"><ele>899.0</ele><time>2026-05-03T07:25:31.254Z</time></trkpt><trkpt lat="38.071415" lon="14.8955233"><ele>899.0000000000001</ele><time>2026-05-03T07:25:32.254Z</time></trkpt><trkpt lat="38.071345" lon="14.89561"><ele>899.0000000000001</ele><time>2026-05-03T07:25:33.253Z</time></trkpt><trkpt lat="38.0712917" lon="14.8957083"><ele>899.0</ele><time>2026-05-03T07:25:34.254Z</time></trkpt><trkpt lat="38.071255" lon="14.8958117"><ele>899.0</ele><time>2026-05-03T07:25:35.254Z</time></trkpt><trkpt lat="38.07123" lon="14.89592"><ele>898.1666666666667</ele><time>2026-05-03T07:25:36.254Z</time></trkpt><trkpt lat="38.0712067" lon="14.8960217"><ele>897.3333333333334</ele><time>2026-05-03T07:25:37.254Z</time></trkpt><trkpt lat="38.0711917" lon="14.896115"><ele>896.5</ele><time>2026-05-03T07:25:38.254Z</time></trkpt><trkpt lat="38.0711783" lon="14.896225"><ele>895.6666666666667</ele><time>2026-05-03T07:25:39.253Z</time></trkpt><trkpt lat="38.0711617" lon="14.89634"><ele>894.8333333333334</ele><time>2026-05-03T07:25:40.254Z</time></trkpt><trkpt lat="38.0711417" lon="14.8964517"><ele>894.0</ele><time>2026-05-03T07:25:41.254Z</time></trkpt><trkpt lat="38.0711233" lon="14.896555"><ele>894.0</ele><time>2026-05-03T07:25:42.254Z</time></trkpt><trkpt lat="38.0710983" lon="14.8966633"><ele>894.0</ele><time>2026-05-03T07:25:43.253Z</time></trkpt><trkpt lat="38.0710767" lon="14.8967617"><ele>894.0</ele><time>2026-05-03T07:25:44.254Z</time></trkpt><trkpt lat="38.0710567" lon="14.8968633"><ele>894.0</ele><time>2026-05-03T07:25:45.254Z</time></trkpt><trkpt lat="38.0710417" lon="14.8969533"><ele>894.0</ele><time>2026-05-03T07:25:46.254Z</time></trkpt><trkpt lat="38.071015" lon="14.8970383"><ele>894.0</ele><time>2026-05-03T07:25:47.254Z</time></trkpt><trkpt lat="38.0709883" lon="14.8971467"><ele>893.5</ele><time>2026-05-03T07:25:48.254Z</time></trkpt><trkpt lat="38.07097" lon="14.8972267"><ele>893.0</ele><time>2026-05-03T07:25:49.254Z</time></trkpt><trkpt lat="38.0709533" lon="14.8973267"><ele>892.5</ele><time>2026-05-03T07:25:50.254Z</time></trkpt><trkpt lat="38.0709317" lon="14.897415"><ele>892.0</ele><time>2026-05-03T07:25:51.254Z</time></trkpt><trkpt lat="38.0708933" lon="14.8975817"><ele>891.5</ele><time>2026-05-03T07:25:53.254Z</time></trkpt><trkpt lat="38.0708767" lon="14.8976883"><ele>891.0</ele><time>2026-05-03T07:25:54.254Z</time></trkpt><trkpt lat="38.0708533" lon="14.8978"><ele>889.0</ele><time>2026-05-03T07:25:55.254Z</time></trkpt><trkpt lat="38.0708317" lon="14.897915"><ele>886.9999999999999</ele><time>2026-05-03T07:25:56.254Z</time></trkpt><trkpt lat="38.070815" lon="14.8980233"><ele>884.9999999999999</ele><time>2026-05-03T07:25:57.254Z</time></trkpt><trkpt lat="38.070795" lon="14.898135"><ele>883.0</ele><time>2026-05-03T07:25:58.254Z</time></trkpt><trkpt lat="38.0707667" lon="14.8982417"><ele>881.0</ele><time>2026-05-03T07:25:59.254Z</time></trkpt><trkpt lat="38.0707417" lon="14.8983533"><ele>877.8</ele><time>2026-05-03T07:26:00.254Z</time></trkpt><trkpt lat="38.0707067" lon="14.8984583"><ele>874.5999999999999</ele><time>2026-05-03T07:26:01.254Z</time></trkpt><trkpt lat="38.0706683" lon="14.8985783"><ele>871.4</ele><time>2026-05-03T07:26:02.254Z</time></trkpt><trkpt lat="38.070635" lon="14.8987017"><ele>868.2</ele><time>2026-05-03T07:26:03.253Z</time></trkpt><trkpt lat="38.0706" lon="14.8988283"><ele>865.0</ele><time>2026-05-03T07:26:04.254Z</time></trkpt><trkpt lat="38.0705583" lon="14.8989517"><ele>865.0</ele><time>2026-05-03T07:26:05.254Z</time></trkpt><trkpt lat="38.0705217" lon="14.89907"><ele>865.0</ele><time>2026-05-03T07:26:06.254Z</time></trkpt><trkpt lat="38.0704883" lon="14.8991983"><ele>865.0</ele><time>2026-05-03T07:26:07.254Z</time></trkpt><trkpt lat="38.07045" lon="14.8993233"><ele>865.0</ele><time>2026-05-03T07:26:08.254Z</time></trkpt><trkpt lat="38.070415" lon="14.89945"><ele>865.0</ele><time>2026-05-03T07:26:09.254Z</time></trkpt><trkpt lat="38.0703683" lon="14.899575"><ele>867.4</ele><time>2026-05-03T07:26:10.254Z</time></trkpt><trkpt lat="38.0703217" lon="14.899695"><ele>869.8</ele><time>2026-05-03T07:26:11.254Z</time></trkpt><trkpt lat="38.0702783" lon="14.89981"><ele>872.2</ele><time>2026-05-03T07:26:12.254Z</time></trkpt><trkpt lat="38.0702467" lon="14.899935"><ele>874.6</ele><time>2026-05-03T07:26:13.253Z</time></trkpt><trkpt lat="38.0702167" lon="14.9000583"><ele>877.0</ele><time>2026-05-03T07:26:14.254Z</time></trkpt><trkpt lat="38.07019" lon="14.9001783"><ele>877.4000000000001</ele><time>2026-05-03T07:26:15.254Z</time></trkpt><trkpt lat="38.0701767" lon="14.900305"><ele>877.8000000000001</ele><time>2026-05-03T07:26:16.254Z</time></trkpt><trkpt lat="38.0701583" lon="14.9004183"><ele>878.2</ele><time>2026-05-03T07:26:17.254Z</time></trkpt><trkpt lat="38.0701317" lon="14.9005317"><ele>878.6</ele><time>2026-05-03T07:26:18.254Z</time></trkpt><trkpt lat="38.0701017" lon="14.9006467"><ele>879.0</ele><time>2026-05-03T07:26:19.254Z</time></trkpt><trkpt lat="38.0700717" lon="14.9007617"><ele>879.0</ele><time>2026-05-03T07:26:20.253Z</time></trkpt><trkpt lat="38.0700517" lon="14.9008667"><ele>879.0</ele><time>2026-05-03T07:26:21.254Z</time></trkpt><trkpt lat="38.0700233" lon="14.9009683"><ele>879.0</ele><time>2026-05-03T07:26:22.254Z</time></trkpt><trkpt lat="38.0700067" lon="14.901075"><ele>879.0</ele><time>2026-05-03T07:26:23.254Z</time></trkpt><trkpt lat="38.0700033" lon="14.901175"><ele>879.0</ele><time>2026-05-03T07:26:24.254Z</time></trkpt><trkpt lat="38.07" lon="14.9012817"><ele>879.0</ele><time>2026-05-03T07:26:25.254Z</time></trkpt><trkpt lat="38.0699967" lon="14.9013883"><ele>877.6666666666666</ele><time>2026-05-03T07:26:26.254Z</time></trkpt><trkpt lat="38.07" lon="14.9014883"><ele>876.3333333333333</ele><time>2026-05-03T07:26:27.254Z</time></trkpt><trkpt lat="38.0700117" lon="14.9015833"><ele>875.0</ele><time>2026-05-03T07:26:28.254Z</time></trkpt><trkpt lat="38.0700117" lon="14.9017033"><ele>873.6666666666666</ele><time>2026-05-03T07:26:29.254Z</time></trkpt><trkpt lat="38.0700183" lon="14.9018233"><ele>872.3333333333333</ele><time>2026-05-03T07:26:30.254Z</time></trkpt><trkpt lat="38.0700267" lon="14.90194"><ele>871.0</ele><time>2026-05-03T07:26:31.254Z</time></trkpt><trkpt lat="38.070025" lon="14.9020533"><ele>870.9999999999999</ele><time>2026-05-03T07:26:32.253Z</time></trkpt><trkpt lat="38.0700267" lon="14.9021583"><ele>871.0</ele><time>2026-05-03T07:26:33.253Z</time></trkpt><trkpt lat="38.0700267" lon="14.90226"><ele>871.0</ele><time>2026-05-03T07:26:34.254Z</time></trkpt><trkpt lat="38.0700317" lon="14.9023617"><ele>871.0</ele><time>2026-05-03T07:26:35.254Z</time></trkpt><trkpt lat="38.070035" lon="14.9024667"><ele>870.9999999999999</ele><time>2026-05-03T07:26:36.254Z</time></trkpt><trkpt lat="38.0700433" lon="14.9025667"><ele>871.0</ele><time>2026-05-03T07:26:37.254Z</time></trkpt><trkpt lat="38.0700483" lon="14.90267"><ele>871.4999999999999</ele><time>2026-05-03T07:26:38.254Z</time></trkpt><trkpt lat="38.070055" lon="14.902775"><ele>872.0</ele><time>2026-05-03T07:26:39.254Z</time></trkpt><trkpt lat="38.0700617" lon="14.9028767"><ele>872.5</ele><time>2026-05-03T07:26:40.254Z</time></trkpt><trkpt lat="38.070075" lon="14.9029683"><ele>873.0</ele><time>2026-05-03T07:26:41.253Z</time></trkpt><trkpt lat="38.0700767" lon="14.90306"><ele>873.4999999999999</ele><time>2026-05-03T07:26:42.254Z</time></trkpt><trkpt lat="38.0700767" lon="14.903155"><ele>874.0</ele><time>2026-05-03T07:26:43.253Z</time></trkpt><trkpt lat="38.0700717" lon="14.9032483"><ele>874.0</ele><time>2026-05-03T07:26:44.254Z</time></trkpt><trkpt lat="38.0700533" lon="14.9033433"><ele>874.0</ele><time>2026-05-03T07:26:45.254Z</time></trkpt><trkpt lat="38.0700283" lon="14.903445"><ele>874.0</ele><time>2026-05-03T07:26:46.254Z</time></trkpt><trkpt lat="38.0700083" lon="14.90353"><ele>874.0</ele><time>2026-05-03T07:26:47.254Z</time></trkpt><trkpt lat="38.069995" lon="14.90361"><ele>874.0</ele><time>2026-05-03T07:26:48.254Z</time></trkpt><trkpt lat="38.069985" lon="14.9037"><ele>874.0</ele><time>2026-05-03T07:26:49.254Z</time></trkpt><trkpt lat="38.0699783" lon="14.903785"><ele>874.0</ele><time>2026-05-03T07:26:50.254Z</time></trkpt><trkpt lat="38.0699633" lon="14.9038633"><ele>873.4999999999999</ele><time>2026-05-03T07:26:51.253Z</time></trkpt><trkpt lat="38.0699367" lon="14.9039917"><ele>873.0</ele><time>2026-05-03T07:26:53.254Z</time></trkpt><trkpt lat="38.0699233" lon="14.9040917"><ele>872.5</ele><time>2026-05-03T07:26:55.255Z</time></trkpt><trkpt lat="38.0700117" lon="14.9041"><ele>872.0</ele><time>2026-05-03T07:27:00.255Z</time></trkpt><trkpt lat="38.0700817" lon="14.904025"><ele>871.4999999999999</ele><time>2026-05-03T07:27:02.255Z</time></trkpt><trkpt lat="38.070135" lon="14.9039517"><ele>871.0</ele><time>2026-05-03T07:27:04.255Z</time></trkpt><trkpt lat="38.0701967" lon="14.90389"><ele>870.9999999999999</ele><time>2026-05-03T07:27:06.254Z</time></trkpt><trkpt lat="38.070245" lon="14.9038067"><ele>871.0</ele><time>2026-05-03T07:27:08.255Z</time></trkpt><trkpt lat="38.0703017" lon="14.9037283"><ele>871.0</ele><time>2026-05-03T07:27:10.255Z</time></trkpt><trkpt lat="38.0703817" lon="14.90374"><ele>871.0</ele><time>2026-05-03T07:27:13.255Z</time></trkpt><trkpt lat="38.0704617" lon="14.9037417"><ele>870.9999999999999</ele><time>2026-05-03T07:27:16.255Z</time></trkpt><trkpt lat="38.0705183" lon="14.9036733"><ele>871.0</ele><time>2026-05-03T07:27:19.255Z</time></trkpt><trkpt lat="38.0705467" lon="14.90358"><ele>870.9999999999999</ele><time>2026-05-03T07:27:22.255Z</time></trkpt><trkpt lat="38.0705883" lon="14.9034867"><ele>871.0</ele><time>2026-05-03T07:27:24.255Z</time></trkpt><trkpt lat="38.07063" lon="14.903425"><ele>871.0</ele><time>2026-05-03T07:27:26.255Z</time></trkpt><trkpt lat="38.07068" lon="14.9035083"><ele>871.0</ele><time>2026-05-03T07:27:30.255Z</time></trkpt><trkpt lat="38.070685" lon="14.903625"><ele>870.9999999999999</ele><time>2026-05-03T07:27:32.255Z</time></trkpt><trkpt lat="38.0706967" lon="14.9037417"><ele>871.0</ele><time>2026-05-03T07:27:34.255Z</time></trkpt><trkpt lat="38.07072" lon="14.9038167"><ele>868.7142857142857</ele><time>2026-05-03T07:27:36.255Z</time></trkpt><trkpt lat="38.0707983" lon="14.903795"><ele>866.4285714285713</ele><time>2026-05-03T07:27:39.255Z</time></trkpt><trkpt lat="38.07085" lon="14.9037283"><ele>864.1428571428571</ele><time>2026-05-03T07:27:41.255Z</time></trkpt><trkpt lat="38.0708917" lon="14.9036583"><ele>861.8571428571429</ele><time>2026-05-03T07:27:42.255Z</time></trkpt><trkpt lat="38.0709367" lon="14.9036"><ele>859.5714285714286</ele><time>2026-05-03T07:27:43.255Z</time></trkpt><trkpt lat="38.0709733" lon="14.9035333"><ele>857.2857142857143</ele><time>2026-05-03T07:27:44.255Z</time></trkpt><trkpt lat="38.0710033" lon="14.9034617"><ele>855.0</ele><time>2026-05-03T07:27:45.255Z</time></trkpt><trkpt lat="38.071035" lon="14.9033467"><ele>855.0</ele><time>2026-05-03T07:27:47.255Z</time></trkpt><trkpt lat="38.0710967" lon="14.9033667"><ele>855.0</ele><time>2026-05-03T07:27:51.255Z</time></trkpt><trkpt lat="38.07109" lon="14.903475"><ele>855.0</ele><time>2026-05-03T07:27:54.255Z</time></trkpt><trkpt lat="38.0710767" lon="14.9035733"><ele>855.0</ele><time>2026-05-03T07:27:56.255Z</time></trkpt><trkpt lat="38.0710583" lon="14.90367"><ele>855.0</ele><time>2026-05-03T07:27:58.255Z</time></trkpt><trkpt lat="38.071065" lon="14.9037667"><ele>855.0</ele><time>2026-05-03T07:28:00.255Z</time></trkpt><trkpt lat="38.0710783" lon="14.9038617"><ele>853.5714285714286</ele><time>2026-05-03T07:28:02.255Z</time></trkpt><trkpt lat="38.07112" lon="14.9039233"><ele>852.1428571428571</ele><time>2026-05-03T07:28:04.255Z</time></trkpt><trkpt lat="38.0712" lon="14.9038967"><ele>850.7142857142857</ele><time>2026-05-03T07:28:11.255Z</time></trkpt><trkpt lat="38.071265" lon="14.90394"><ele>849.2857142857142</ele><time>2026-05-03T07:28:14.255Z</time></trkpt><trkpt lat="38.07132" lon="14.9039967"><ele>847.8571428571429</ele><time>2026-05-03T07:28:16.255Z</time></trkpt><trkpt lat="38.0713583" lon="14.9040833"><ele>846.4285714285713</ele><time>2026-05-03T07:28:18.255Z</time></trkpt><trkpt lat="38.0713817" lon="14.9041583"><ele>845.0</ele><time>2026-05-03T07:28:20.255Z</time></trkpt><trkpt lat="38.0714433" lon="14.9041833"><ele>845.0</ele><time>2026-05-03T07:28:23.255Z</time></trkpt><trkpt lat="38.0714567" lon="14.9040717"><ele>845.0</ele><time>2026-05-03T07:28:26.254Z</time></trkpt><trkpt lat="38.0714583" lon="14.9039683"><ele>845.0</ele><time>2026-05-03T07:28:29.255Z</time></trkpt><trkpt lat="38.071525" lon="14.9040017"><ele>845.0</ele><time>2026-05-03T07:28:32.254Z</time></trkpt><trkpt lat="38.0715717" lon="14.9041133"><ele>845.0</ele><time>2026-05-03T07:28:34.255Z</time></trkpt><trkpt lat="38.07162" lon="14.9042483"><ele>838.5000000000001</ele><time>2026-05-03T07:28:36.255Z</time></trkpt><trkpt lat="38.071655" lon="14.904375"><ele>832.0</ele><time>2026-05-03T07:28:38.254Z</time></trkpt><trkpt lat="38.0717217" lon="14.904415"><ele>825.5</ele><time>2026-05-03T07:28:40.255Z</time></trkpt><trkpt lat="38.07176" lon="14.9043117"><ele>819.0</ele><time>2026-05-03T07:28:42.255Z</time></trkpt><trkpt lat="38.07176" lon="14.90418"><ele>812.5000000000001</ele><time>2026-05-03T07:28:44.255Z</time></trkpt><trkpt lat="38.07175" lon="14.9040983"><ele>806.0</ele><time>2026-05-03T07:28:46.255Z</time></trkpt><trkpt lat="38.0718067" lon="14.9041417"><ele>806.0</ele><time>2026-05-03T07:28:55.255Z</time></trkpt><trkpt lat="38.07185" lon="14.9042117"><ele>806.0</ele><time>2026-05-03T07:28:58.255Z</time></trkpt><trkpt lat="38.07189" lon="14.90428"><ele>806.0</ele><time>2026-05-03T07:29:01.255Z</time></trkpt><trkpt lat="38.0719433" lon="14.9043517"><ele>806.0</ele><time>2026-05-03T07:29:05.255Z</time></trkpt><trkpt lat="38.07196" lon="14.9044317"><ele>806.0</ele><time>2026-05-03T07:29:08.255Z</time></trkpt><trkpt lat="38.0719833" lon="14.904545"><ele>806.0</ele><time>2026-05-03T07:29:11.255Z</time></trkpt><trkpt lat="38.072015" lon="14.904625"><ele>806.0</ele><time>2026-05-03T07:29:51.255Z</time></trkpt><trkpt lat="38.0720967" lon="14.9046317"><ele>806.0000000000001</ele><time>2026-05-03T07:29:54.255Z</time></trkpt><trkpt lat="38.072145" lon="14.904565"><ele>806.0</ele><time>2026-05-03T07:29:56.255Z</time></trkpt><trkpt lat="38.07214" lon="14.904445"><ele>806.0</ele><time>2026-05-03T07:29:58.255Z</time></trkpt><trkpt lat="38.0721083" lon="14.9043467"><ele>806.0</ele><time>2026-05-03T07:30:00.255Z</time></trkpt><trkpt lat="38.0721" lon="14.9042567"><ele>806.0000000000001</ele><time>2026-05-03T07:30:03.255Z</time></trkpt><trkpt lat="38.0721633" lon="14.90424"><ele>806.0</ele><time>2026-05-03T07:30:06.255Z</time></trkpt><trkpt lat="38.07224" lon="14.9043067"><ele>802.5000000000001</ele><time>2026-05-03T07:30:08.255Z</time></trkpt><trkpt lat="38.0723083" lon="14.9043967"><ele>799.0</ele><time>2026-05-03T07:30:10.255Z</time></trkpt><trkpt lat="38.0723583" lon="14.9044767"><ele>795.5</ele><time>2026-05-03T07:30:12.255Z</time></trkpt><trkpt lat="38.0723983" lon="14.904575"><ele>792.0</ele><time>2026-05-03T07:30:14.255Z</time></trkpt><trkpt lat="38.0724333" lon="14.9046683"><ele>788.5000000000001</ele><time>2026-05-03T07:30:16.255Z</time></trkpt><trkpt lat="38.0724733" lon="14.9047567"><ele>785.0</ele><time>2026-05-03T07:30:18.255Z</time></trkpt><trkpt lat="38.0725117" lon="14.9048683"><ele>785.0000000000001</ele><time>2026-05-03T07:30:20.255Z</time></trkpt><trkpt lat="38.07253" lon="14.9049783"><ele>785.0</ele><time>2026-05-03T07:30:22.254Z</time></trkpt><trkpt lat="38.0725167" lon="14.9050733"><ele>785.0</ele><time>2026-05-03T07:30:25.255Z</time></trkpt><trkpt lat="38.0724567" lon="14.9051133"><ele>785.0</ele><time>2026-05-03T07:30:28.254Z</time></trkpt><trkpt lat="38.072375" lon="14.9050917"><ele>785.0000000000001</ele><time>2026-05-03T07:30:36.255Z</time></trkpt><trkpt lat="38.0722983" lon="14.90503"><ele>785.0</ele><time>2026-05-03T07:30:38.255Z</time></trkpt><trkpt lat="38.072395" lon="14.9050517"><ele>780.5000000000001</ele><time>2026-05-03T07:30:44.255Z</time></trkpt><trkpt lat="38.0724733" lon="14.9050933"><ele>776.0</ele><time>2026-05-03T07:30:46.255Z</time></trkpt><trkpt lat="38.0725283" lon="14.90505"><ele>771.5</ele><time>2026-05-03T07:30:48.255Z</time></trkpt><trkpt lat="38.0725783" lon="14.9051233"><ele>767.0</ele><time>2026-05-03T07:31:24.255Z</time></trkpt><trkpt lat="38.0725983" lon="14.9050417"><ele>762.5</ele><time>2026-05-03T07:31:41.255Z</time></trkpt><trkpt lat="38.0726067" lon="14.90495"><ele>758.0</ele><time>2026-05-03T07:31:43.255Z</time></trkpt><trkpt lat="38.0726167" lon="14.9048383"><ele>758.0</ele><time>2026-05-03T07:31:46.254Z</time></trkpt><trkpt lat="38.0726167" lon="14.9047533"><ele>758.0</ele><time>2026-05-03T07:31:49.255Z</time></trkpt><trkpt lat="38.072625" lon="14.904855"><ele>758.0</ele><time>2026-05-03T07:32:04.256Z</time></trkpt><trkpt lat="38.0726233" lon="14.90495"><ele>758.0</ele><time>2026-05-03T07:32:07.256Z</time></trkpt><trkpt lat="38.0726417" lon="14.9050367"><ele>758.0</ele><time>2026-05-03T07:32:10.256Z</time></trkpt><trkpt lat="38.0726167" lon="14.9051467"><ele>758.0</ele><time>2026-05-03T07:32:13.256Z</time></trkpt><trkpt lat="38.0725883" lon="14.9052333"><ele>757.0</ele><time>2026-05-03T07:32:16.256Z</time></trkpt><trkpt lat="38.0725267" lon="14.9053017"><ele>756.0</ele><time>2026-05-03T07:32:20.256Z</time></trkpt><trkpt lat="38.0724533" lon="14.9053317"><ele>755.0</ele><time>2026-05-03T07:32:23.255Z</time></trkpt><trkpt lat="38.0723783" lon="14.9053183"><ele>754.0</ele><time>2026-05-03T07:32:26.255Z</time></trkpt><trkpt lat="38.07231" lon="14.905295"><ele>753.0</ele><time>2026-05-03T07:32:30.256Z</time></trkpt><trkpt lat="38.0722483" lon="14.9053217"><ele>752.0</ele><time>2026-05-03T07:32:33.256Z</time></trkpt><trkpt lat="38.0721683" lon="14.90534"><ele>752.0</ele><time>2026-05-03T07:32:36.256Z</time></trkpt><trkpt lat="38.0720933" lon="14.9053617"><ele>752.0</ele><time>2026-05-03T07:32:39.256Z</time></trkpt><trkpt lat="38.0720283" lon="14.9053967"><ele>752.0</ele><time>2026-05-03T07:32:41.256Z</time></trkpt><trkpt lat="38.0719633" lon="14.9054633"><ele>752.0</ele><time>2026-05-03T07:32:43.256Z</time></trkpt><trkpt lat="38.0719183" lon="14.9055233"><ele>752.0</ele><time>2026-05-03T07:32:45.256Z</time></trkpt><trkpt lat="38.0718483" lon="14.905585"><ele>752.0</ele><time>2026-05-03T07:32:48.256Z</time></trkpt><trkpt lat="38.0719067" lon="14.90563"><ele>752.0</ele><time>2026-05-03T07:32:53.256Z</time></trkpt><trkpt lat="38.07197" lon="14.9056233"><ele>752.0</ele><time>2026-05-03T07:32:55.256Z</time></trkpt><trkpt lat="38.0720367" lon="14.9056067"><ele>752.0</ele><time>2026-05-03T07:32:58.256Z</time></trkpt><trkpt lat="38.0721267" lon="14.90562"><ele>752.0</ele><time>2026-05-03T07:33:01.256Z</time></trkpt><trkpt lat="38.0722017" lon="14.905655"><ele>752.0</ele><time>2026-05-03T07:33:04.256Z</time></trkpt><trkpt lat="38.0722667" lon="14.9056583"><ele>752.0</ele><time>2026-05-03T07:33:06.256Z</time></trkpt><trkpt lat="38.0723333" lon="14.905665"><ele>752.0</ele><time>2026-05-03T07:33:08.256Z</time></trkpt><trkpt lat="38.072404" lon="14.9056981"><ele>747.2</ele><time>2026-05-03T07:33:10.256Z</time></trkpt><trkpt lat="38.0724776" lon="14.9057267"><ele>742.4000000000001</ele><time>2026-05-03T07:33:12.256Z</time></trkpt><trkpt lat="38.0725516" lon="14.9057493"><ele>737.5999999999999</ele><time>2026-05-03T07:33:14.256Z</time></trkpt><trkpt lat="38.0726521" lon="14.9057769"><ele>732.8</ele><time>2026-05-03T07:33:16.256Z</time></trkpt><trkpt lat="38.0727572" lon="14.9057581"><ele>728.0</ele><time>2026-05-03T07:33:18.256Z</time></trkpt><trkpt lat="38.0728687" lon="14.9057216"><ele>728.0</ele><time>2026-05-03T07:33:20.255Z</time></trkpt><trkpt lat="38.0729768" lon="14.9056839"><ele>728.0</ele><time>2026-05-03T07:33:22.255Z</time></trkpt><trkpt lat="38.0730804" lon="14.9056374"><ele>728.0</ele><time>2026-05-03T07:33:24.256Z</time></trkpt><trkpt lat="38.0731824" lon="14.905571"><ele>728.0</ele><time>2026-05-03T07:33:26.256Z</time></trkpt><trkpt lat="38.0732407" lon="14.9055111"><ele>728.0</ele><time>2026-05-03T07:33:27.256Z</time></trkpt><trkpt lat="38.07333" lon="14.9054133"><ele>728.0</ele><time>2026-05-03T07:33:29.256Z</time></trkpt><trkpt lat="38.0733733" lon="14.905315"><ele>728.0</ele><time>2026-05-03T07:33:31.256Z</time></trkpt><trkpt lat="38.073255" lon="14.905415"><ele>728.0</ele><time>2026-05-03T07:33:36.256Z</time></trkpt><trkpt lat="38.0731583" lon="14.90551"><ele>728.0</ele><time>2026-05-03T07:33:37.255Z</time></trkpt><trkpt lat="38.0730467" lon="14.9056167"><ele>728.0</ele><time>2026-05-03T07:33:38.256Z</time></trkpt><trkpt lat="38.0729383" lon="14.9057083"><ele>728.0</ele><time>2026-05-03T07:33:39.255Z</time></trkpt><trkpt lat="38.0728417" lon="14.905785"><ele>728.0</ele><time>2026-05-03T07:33:40.256Z</time></trkpt><trkpt lat="38.0727383" lon="14.9058383"><ele>728.0</ele><time>2026-05-03T07:33:41.256Z</time></trkpt><trkpt lat="38.072645" lon="14.9058767"><ele>729.5999999999999</ele><time>2026-05-03T07:33:42.255Z</time></trkpt><trkpt lat="38.0725583" lon="14.905915"><ele>731.1999999999999</ele><time>2026-05-03T07:33:43.256Z</time></trkpt><trkpt lat="38.0724733" lon="14.905935"><ele>732.8</ele><time>2026-05-03T07:33:44.256Z</time></trkpt><trkpt lat="38.0723967" lon="14.9059517"><ele>734.4</ele><time>2026-05-03T07:33:45.256Z</time></trkpt><trkpt lat="38.0722933" lon="14.9060183"><ele>736.0</ele><time>2026-05-03T07:33:47.256Z</time></trkpt><trkpt lat="38.0721917" lon="14.9060667"><ele>736.0</ele><time>2026-05-03T07:33:49.256Z</time></trkpt><trkpt lat="38.07212" lon="14.9060883"><ele>736.0</ele><time>2026-05-03T07:33:50.256Z</time></trkpt><trkpt lat="38.0720467" lon="14.9061067"><ele>736.0</ele><time>2026-05-03T07:33:51.256Z</time></trkpt><trkpt lat="38.0719717" lon="14.906115"><ele>736.0</ele><time>2026-05-03T07:33:52.256Z</time></trkpt><trkpt lat="38.0719067" lon="14.9061317"><ele>736.0</ele><time>2026-05-03T07:33:53.256Z</time></trkpt><trkpt lat="38.0718317" lon="14.906205"><ele>736.0</ele><time>2026-05-03T07:33:55.256Z</time></trkpt><trkpt lat="38.071775" lon="14.9063267"><ele>736.0</ele><time>2026-05-03T07:33:57.256Z</time></trkpt><trkpt lat="38.071675" lon="14.906445"><ele>736.0</ele><time>2026-05-03T07:33:59.256Z</time></trkpt><trkpt lat="38.0715983" lon="14.9065167"><ele>736.0</ele><time>2026-05-03T07:34:00.256Z</time></trkpt><trkpt lat="38.0715183" lon="14.9065883"><ele>736.0</ele><time>2026-05-03T07:34:01.256Z</time></trkpt><trkpt lat="38.0714433" lon="14.9066633"><ele>736.0</ele><time>2026-05-03T07:34:02.256Z</time></trkpt><trkpt lat="38.0713783" lon="14.9067417"><ele>744.4</ele><time>2026-05-03T07:34:03.256Z</time></trkpt><trkpt lat="38.0713233" lon="14.9068117"><ele>752.8</ele><time>2026-05-03T07:34:04.256Z</time></trkpt><trkpt lat="38.0712467" lon="14.9069133"><ele>761.1999999999999</ele><time>2026-05-03T07:34:06.256Z</time></trkpt><trkpt lat="38.0712333" lon="14.907005"><ele>769.5999999999999</ele><time>2026-05-03T07:34:08.256Z</time></trkpt><trkpt lat="38.0713517" lon="14.9070483"><ele>778.0</ele><time>2026-05-03T07:34:11.256Z</time></trkpt><trkpt lat="38.0714167" lon="14.90708"><ele>778.0</ele><time>2026-05-03T07:34:12.256Z</time></trkpt><trkpt lat="38.0715083" lon="14.9071433"><ele>778.0</ele><time>2026-05-03T07:34:13.256Z</time></trkpt><trkpt lat="38.0715983" lon="14.907225"><ele>778.0</ele><time>2026-05-03T07:34:14.256Z</time></trkpt><trkpt lat="38.0716817" lon="14.9072833"><ele>778.0</ele><time>2026-05-03T07:34:15.256Z</time></trkpt><trkpt lat="38.071765" lon="14.907335"><ele>778.0</ele><time>2026-05-03T07:34:16.256Z</time></trkpt><trkpt lat="38.0718467" lon="14.90739"><ele>776.5999999999999</ele><time>2026-05-03T07:34:17.256Z</time></trkpt><trkpt lat="38.0719233" lon="14.9074433"><ele>775.1999999999999</ele><time>2026-05-03T07:34:18.256Z</time></trkpt><trkpt lat="38.07199" lon="14.9074983"><ele>773.8</ele><time>2026-05-03T07:34:19.256Z</time></trkpt><trkpt lat="38.0720617" lon="14.9075667"><ele>772.4</ele><time>2026-05-03T07:34:20.256Z</time></trkpt><trkpt lat="38.0721433" lon="14.9076367"><ele>771.0</ele><time>2026-05-03T07:34:21.256Z</time></trkpt><trkpt lat="38.0722367" lon="14.9077083"><ele>771.0</ele><time>2026-05-03T07:34:22.255Z</time></trkpt><trkpt lat="38.072325" lon="14.90777"><ele>771.0</ele><time>2026-05-03T07:34:23.256Z</time></trkpt><trkpt lat="38.0724" lon="14.90784"><ele>771.0</ele><time>2026-05-03T07:34:24.256Z</time></trkpt><trkpt lat="38.0724667" lon="14.9079217"><ele>771.0</ele><time>2026-05-03T07:34:25.256Z</time></trkpt><trkpt lat="38.0725333" lon="14.908005"><ele>771.0</ele><time>2026-05-03T07:34:26.256Z</time></trkpt><trkpt lat="38.07259" lon="14.9080867"><ele>771.0</ele><time>2026-05-03T07:34:27.256Z</time></trkpt><trkpt lat="38.0726333" lon="14.9081483"><ele>771.0</ele><time>2026-05-03T07:34:28.256Z</time></trkpt><trkpt lat="38.0726533" lon="14.908265"><ele>771.0</ele><time>2026-05-03T07:34:30.256Z</time></trkpt><trkpt lat="38.0725783" lon="14.9083783"><ele>771.0</ele><time>2026-05-03T07:34:32.256Z</time></trkpt><trkpt lat="38.0725233" lon="14.9084367"><ele>771.0</ele><time>2026-05-03T07:34:33.255Z</time></trkpt><trkpt lat="38.0724733" lon="14.9084933"><ele>771.0</ele><time>2026-05-03T07:34:34.256Z</time></trkpt><trkpt lat="38.0723817" lon="14.9085883"><ele>771.0</ele><time>2026-05-03T07:34:36.256Z</time></trkpt><trkpt lat="38.0723333" lon="14.9086483"><ele>771.0</ele><time>2026-05-03T07:34:37.256Z</time></trkpt><trkpt lat="38.072275" lon="14.9087283"><ele>771.0</ele><time>2026-05-03T07:34:38.256Z</time></trkpt><trkpt lat="38.0722133" lon="14.9088133"><ele>771.0</ele><time>2026-05-03T07:34:39.256Z</time></trkpt><trkpt lat="38.0721383" lon="14.9089167"><ele>771.0</ele><time>2026-05-03T07:34:40.256Z</time></trkpt><trkpt lat="38.0720783" lon="14.9090117"><ele>771.0</ele><time>2026-05-03T07:34:41.256Z</time></trkpt><trkpt lat="38.0720233" lon="14.9090817"><ele>771.0</ele><time>2026-05-03T07:34:42.256Z</time></trkpt><trkpt lat="38.0719633" lon="14.90913"><ele>771.0</ele><time>2026-05-03T07:34:43.256Z</time></trkpt><trkpt lat="38.0718917" lon="14.90917"><ele>771.0</ele><time>2026-05-03T07:34:44.256Z</time></trkpt><trkpt lat="38.0718083" lon="14.9091917"><ele>771.0</ele><time>2026-05-03T07:34:45.256Z</time></trkpt><trkpt lat="38.071735" lon="14.9091983"><ele>771.0</ele><time>2026-05-03T07:34:46.256Z</time></trkpt><trkpt lat="38.0716683" lon="14.909225"><ele>771.1999999999999</ele><time>2026-05-03T07:34:47.256Z</time></trkpt><trkpt lat="38.0716083" lon="14.90928"><ele>771.4</ele><time>2026-05-03T07:34:48.256Z</time></trkpt><trkpt lat="38.0715433" lon="14.9093483"><ele>771.6</ele><time>2026-05-03T07:34:49.256Z</time></trkpt><trkpt lat="38.0714717" lon="14.90943"><ele>771.8</ele><time>2026-05-03T07:34:50.256Z</time></trkpt><trkpt lat="38.0713833" lon="14.909525"><ele>772.0</ele><time>2026-05-03T07:34:51.256Z</time></trkpt><trkpt lat="38.0712967" lon="14.90963"><ele>772.0</ele><time>2026-05-03T07:34:52.256Z</time></trkpt><trkpt lat="38.0712317" lon="14.9097083"><ele>772.0</ele><time>2026-05-03T07:34:53.256Z</time></trkpt><trkpt lat="38.0711717" lon="14.9097483"><ele>772.0</ele><time>2026-05-03T07:34:54.256Z</time></trkpt><trkpt lat="38.071055" lon="14.9097133"><ele>772.0</ele><time>2026-05-03T07:34:56.256Z</time></trkpt><trkpt lat="38.0709833" lon="14.9096567"><ele>772.0</ele><time>2026-05-03T07:34:57.256Z</time></trkpt><trkpt lat="38.0708933" lon="14.9096017"><ele>772.0</ele><time>2026-05-03T07:34:58.255Z</time></trkpt><trkpt lat="38.070805" lon="14.9095533"><ele>772.0</ele><time>2026-05-03T07:34:59.256Z</time></trkpt><trkpt lat="38.0707033" lon="14.9094933"><ele>772.0</ele><time>2026-05-03T07:35:00.256Z</time></trkpt><trkpt lat="38.07061" lon="14.9094433"><ele>772.0</ele><time>2026-05-03T07:35:01.256Z</time></trkpt><trkpt lat="38.0705317" lon="14.909385"><ele>772.0</ele><time>2026-05-03T07:35:02.256Z</time></trkpt><trkpt lat="38.0704633" lon="14.9093233"><ele>775.6666666666666</ele><time>2026-05-03T07:35:03.256Z</time></trkpt><trkpt lat="38.0704" lon="14.9092767"><ele>779.3333333333333</ele><time>2026-05-03T07:35:04.256Z</time></trkpt><trkpt lat="38.07034" lon="14.9092417"><ele>783.0</ele><time>2026-05-03T07:35:05.256Z</time></trkpt><trkpt lat="38.0702333" lon="14.9092183"><ele>786.6666666666667</ele><time>2026-05-03T07:35:07.256Z</time></trkpt><trkpt lat="38.070145" lon="14.9093167"><ele>790.3333333333334</ele><time>2026-05-03T07:35:09.256Z</time></trkpt><trkpt lat="38.0700933" lon="14.90938"><ele>794.0</ele><time>2026-05-03T07:35:10.256Z</time></trkpt><trkpt lat="38.0700433" lon="14.9094517"><ele>794.0</ele><time>2026-05-03T07:35:11.256Z</time></trkpt><trkpt lat="38.0699867" lon="14.909525"><ele>794.0</ele><time>2026-05-03T07:35:12.256Z</time></trkpt><trkpt lat="38.06992" lon="14.9096183"><ele>794.0</ele><time>2026-05-03T07:35:13.256Z</time></trkpt><trkpt lat="38.0698583" lon="14.9097383"><ele>794.0</ele><time>2026-05-03T07:35:14.256Z</time></trkpt><trkpt lat="38.069795" lon="14.9098567"><ele>794.0</ele><time>2026-05-03T07:35:15.256Z</time></trkpt><trkpt lat="38.0697433" lon="14.9099483"><ele>795.6666666666667</ele><time>2026-05-03T07:35:16.256Z</time></trkpt><trkpt lat="38.0696883" lon="14.91001"><ele>797.3333333333334</ele><time>2026-05-03T07:35:17.256Z</time></trkpt><trkpt lat="38.0696267" lon="14.9100833"><ele>799.0</ele><time>2026-05-03T07:35:19.256Z</time></trkpt><trkpt lat="38.0695683" lon="14.9101383"><ele>800.6666666666667</ele><time>2026-05-03T07:35:52.256Z</time></trkpt><trkpt lat="38.069515" lon="14.9101817"><ele>802.3333333333334</ele><time>2026-05-03T07:35:53.256Z</time></trkpt><trkpt lat="38.06945" lon="14.91023"><ele>804.0</ele><time>2026-05-03T07:35:54.256Z</time></trkpt><trkpt lat="38.0693767" lon="14.9102967"><ele>804.0</ele><time>2026-05-03T07:35:55.256Z</time></trkpt><trkpt lat="38.0692883" lon="14.91036"><ele>804.0</ele><time>2026-05-03T07:35:56.256Z</time></trkpt><trkpt lat="38.06919" lon="14.9104217"><ele>804.0</ele><time>2026-05-03T07:35:57.256Z</time></trkpt><trkpt lat="38.0690783" lon="14.910475"><ele>804.0</ele><time>2026-05-03T07:35:58.256Z</time></trkpt><trkpt lat="38.0689783" lon="14.910535"><ele>804.0</ele><time>2026-05-03T07:35:59.256Z</time></trkpt><trkpt lat="38.0688783" lon="14.9105783"><ele>811.2</ele><time>2026-05-03T07:36:00.256Z</time></trkpt><trkpt lat="38.0687683" lon="14.9106033"><ele>818.4000000000001</ele><time>2026-05-03T07:36:01.256Z</time></trkpt><trkpt lat="38.0686667" lon="14.91063"><ele>825.6</ele><time>2026-05-03T07:36:02.256Z</time></trkpt><trkpt lat="38.0685733" lon="14.9106617"><ele>832.8</ele><time>2026-05-03T07:36:03.256Z</time></trkpt><trkpt lat="38.0684833" lon="14.910715"><ele>840.0</ele><time>2026-05-03T07:36:04.256Z</time></trkpt><trkpt lat="38.0683817" lon="14.910765"><ele>840.0</ele><time>2026-05-03T07:36:05.256Z</time></trkpt><trkpt lat="38.0682967" lon="14.91081"><ele>840.0</ele><time>2026-05-03T07:36:06.256Z</time></trkpt><trkpt lat="38.0682133" lon="14.9108483"><ele>840.0</ele><time>2026-05-03T07:36:07.256Z</time></trkpt><trkpt lat="38.06813" lon="14.9108933"><ele>840.0</ele><time>2026-05-03T07:36:08.256Z</time></trkpt><trkpt lat="38.068065" lon="14.910935"><ele>840.0</ele><time>2026-05-03T07:36:09.256Z</time></trkpt><trkpt lat="38.0680133" lon="14.9109817"><ele>840.0</ele><time>2026-05-03T07:36:10.256Z</time></trkpt><trkpt lat="38.067945" lon="14.9110983"><ele>842.6666666666666</ele><time>2026-05-03T07:36:12.255Z</time></trkpt><trkpt lat="38.06789" lon="14.91119"><ele>845.3333333333333</ele><time>2026-05-03T07:36:14.256Z</time></trkpt><trkpt lat="38.06782" lon="14.9113033"><ele>848.0</ele><time>2026-05-03T07:36:16.255Z</time></trkpt><trkpt lat="38.0677767" lon="14.9113617"><ele>850.6666666666666</ele><time>2026-05-03T07:36:17.256Z</time></trkpt><trkpt lat="38.0677333" lon="14.9114267"><ele>853.3333333333333</ele><time>2026-05-03T07:36:18.256Z</time></trkpt><trkpt lat="38.0676867" lon="14.911485"><ele>856.0</ele><time>2026-05-03T07:36:19.256Z</time></trkpt><trkpt lat="38.06764" lon="14.91155"><ele>855.9999999999999</ele><time>2026-05-03T07:36:20.256Z</time></trkpt><trkpt lat="38.0675867" lon="14.911615"><ele>856.0</ele><time>2026-05-03T07:36:21.256Z</time></trkpt><trkpt lat="38.06752" lon="14.9116867"><ele>856.0</ele><time>2026-05-03T07:36:22.256Z</time></trkpt><trkpt lat="38.0674417" lon="14.9117567"><ele>856.0</ele><time>2026-05-03T07:36:23.256Z</time></trkpt><trkpt lat="38.0673667" lon="14.9118133"><ele>855.9999999999999</ele><time>2026-05-03T07:36:24.256Z</time></trkpt><trkpt lat="38.0672783" lon="14.91187"><ele>856.0</ele><time>2026-05-03T07:36:25.256Z</time></trkpt><trkpt lat="38.0671967" lon="14.9119267"><ele>857.3333333333333</ele><time>2026-05-03T07:36:26.256Z</time></trkpt><trkpt lat="38.0671233" lon="14.9119683"><ele>858.6666666666666</ele><time>2026-05-03T07:36:27.256Z</time></trkpt><trkpt lat="38.0670567" lon="14.9120017"><ele>860.0</ele><time>2026-05-03T07:36:28.256Z</time></trkpt><trkpt lat="38.0669817" lon="14.9120583"><ele>861.3333333333333</ele><time>2026-05-03T07:36:30.256Z</time></trkpt><trkpt lat="38.0670067" lon="14.9121383"><ele>862.6666666666666</ele><time>2026-05-03T07:36:33.256Z</time></trkpt><trkpt lat="38.0669717" lon="14.9122217"><ele>864.0</ele><time>2026-05-03T07:36:35.256Z</time></trkpt><trkpt lat="38.0668967" lon="14.9123267"><ele>864.0</ele><time>2026-05-03T07:36:37.256Z</time></trkpt><trkpt lat="38.0668183" lon="14.9124283"><ele>864.0000000000001</ele><time>2026-05-03T07:36:39.256Z</time></trkpt><trkpt lat="38.066785" lon="14.9125183"><ele>864.0000000000001</ele><time>2026-05-03T07:36:41.256Z</time></trkpt><trkpt lat="38.06686" lon="14.9125383"><ele>864.0</ele><time>2026-05-03T07:36:44.256Z</time></trkpt><trkpt lat="38.066935" lon="14.91247"><ele>864.0</ele><time>2026-05-03T07:36:46.256Z</time></trkpt><trkpt lat="38.0670167" lon="14.9124083"><ele>864.0</ele><time>2026-05-03T07:36:48.256Z</time></trkpt><trkpt lat="38.0671" lon="14.9123583"><ele>864.0000000000001</ele><time>2026-05-03T07:36:51.256Z</time></trkpt><trkpt lat="38.0671733" lon="14.9123683"><ele>864.0000000000001</ele><time>2026-05-03T07:36:54.256Z</time></trkpt><trkpt lat="38.0671233" lon="14.91247"><ele>864.0</ele><time>2026-05-03T07:36:57.256Z</time></trkpt><trkpt lat="38.06706" lon="14.91257"><ele>864.0</ele><time>2026-05-03T07:36:59.256Z</time></trkpt><trkpt lat="38.0669917" lon="14.912685"><ele>859.8000000000001</ele><time>2026-05-03T07:37:01.256Z</time></trkpt><trkpt lat="38.0669183" lon="14.91281"><ele>855.6000000000001</ele><time>2026-05-03T07:37:03.256Z</time></trkpt><trkpt lat="38.0668483" lon="14.91293"><ele>851.4</ele><time>2026-05-03T07:37:05.256Z</time></trkpt><trkpt lat="38.066805" lon="14.913025"><ele>847.2</ele><time>2026-05-03T07:37:07.256Z</time></trkpt><trkpt lat="38.066775" lon="14.913125"><ele>843.0</ele><time>2026-05-03T07:37:09.256Z</time></trkpt><trkpt lat="38.0667717" lon="14.9132117"><ele>843.0</ele><time>2026-05-03T07:37:12.256Z</time></trkpt><trkpt lat="38.0668383" lon="14.913195"><ele>843.0</ele><time>2026-05-03T07:37:15.256Z</time></trkpt><trkpt lat="38.0669233" lon="14.9131517"><ele>843.0</ele><time>2026-05-03T07:37:17.256Z</time></trkpt><trkpt lat="38.0670283" lon="14.9131317"><ele>843.0</ele><time>2026-05-03T07:37:19.256Z</time></trkpt><trkpt lat="38.0670933" lon="14.91312"><ele>843.0</ele><time>2026-05-03T07:37:20.256Z</time></trkpt><trkpt lat="38.067165" lon="14.9130867"><ele>843.0</ele><time>2026-05-03T07:37:21.255Z</time></trkpt><trkpt lat="38.0672317" lon="14.9130483"><ele>843.0</ele><time>2026-05-03T07:37:22.256Z</time></trkpt><trkpt lat="38.067295" lon="14.9130133"><ele>843.0</ele><time>2026-05-03T07:37:23.256Z</time></trkpt><trkpt lat="38.0673983" lon="14.9129733"><ele>843.0</ele><time>2026-05-03T07:37:25.255Z</time></trkpt><trkpt lat="38.06747" lon="14.9129367"><ele>843.0</ele><time>2026-05-03T07:37:27.256Z</time></trkpt><trkpt lat="38.0674517" lon="14.9130433"><ele>843.0</ele><time>2026-05-03T07:37:33.256Z</time></trkpt><trkpt lat="38.0674067" lon="14.9131"><ele>843.0</ele><time>2026-05-03T07:37:34.256Z</time></trkpt><trkpt lat="38.0673433" lon="14.9132083"><ele>843.0</ele><time>2026-05-03T07:37:36.256Z</time></trkpt><trkpt lat="38.0673033" lon="14.91329"><ele>843.0</ele><time>2026-05-03T07:37:38.256Z</time></trkpt><trkpt lat="38.0672667" lon="14.9134017"><ele>843.0</ele><time>2026-05-03T07:37:41.256Z</time></trkpt><trkpt lat="38.0672433" lon="14.91351"><ele>843.0</ele><time>2026-05-03T07:37:44.256Z</time></trkpt><trkpt lat="38.0672617" lon="14.9136183"><ele>843.0</ele><time>2026-05-03T07:37:46.256Z</time></trkpt><trkpt lat="38.0672833" lon="14.9137317"><ele>843.0</ele><time>2026-05-03T07:37:48.256Z</time></trkpt><trkpt lat="38.0672617" lon="14.91383"><ele>839.8333333333334</ele><time>2026-05-03T07:37:50.256Z</time></trkpt><trkpt lat="38.0671983" lon="14.913885"><ele>836.6666666666667</ele><time>2026-05-03T07:37:52.256Z</time></trkpt><trkpt lat="38.0671233" lon="14.91394"><ele>833.5</ele><time>2026-05-03T07:37:54.256Z</time></trkpt><trkpt lat="38.0670717" lon="14.9140167"><ele>830.3333333333334</ele><time>2026-05-03T07:37:56.256Z</time></trkpt><trkpt lat="38.0670167" lon="14.9140867"><ele>827.1666666666667</ele><time>2026-05-03T07:37:58.256Z</time></trkpt><trkpt lat="38.0669617" lon="14.9141883"><ele>824.0</ele><time>2026-05-03T07:38:00.256Z</time></trkpt><trkpt lat="38.06692" lon="14.9143317"><ele>821.8333333333334</ele><time>2026-05-03T07:38:02.256Z</time></trkpt><trkpt lat="38.0669" lon="14.914485"><ele>819.6666666666667</ele><time>2026-05-03T07:38:04.256Z</time></trkpt><trkpt lat="38.0669" lon="14.9145783"><ele>817.5</ele><time>2026-05-03T07:38:05.256Z</time></trkpt><trkpt lat="38.066905" lon="14.91467"><ele>815.3333333333333</ele><time>2026-05-03T07:38:06.256Z</time></trkpt><trkpt lat="38.0669017" lon="14.9147667"><ele>813.1666666666666</ele><time>2026-05-03T07:38:07.256Z</time></trkpt><trkpt lat="38.0669033" lon="14.9148633"><ele>811.0</ele><time>2026-05-03T07:38:08.256Z</time></trkpt><trkpt lat="38.0669083" lon="14.9149533"><ele>810.9999999999999</ele><time>2026-05-03T07:38:09.255Z</time></trkpt><trkpt lat="38.0669117" lon="14.9150517"><ele>811.0</ele><time>2026-05-03T07:38:10.256Z</time></trkpt><trkpt lat="38.0669183" lon="14.9151417"><ele>811.0</ele><time>2026-05-03T07:38:11.256Z</time></trkpt><trkpt lat="38.066925" lon="14.9152283"><ele>811.0</ele><time>2026-05-03T07:38:12.256Z</time></trkpt><trkpt lat="38.0668783" lon="14.91537"><ele>810.9999999999999</ele><time>2026-05-03T07:38:14.256Z</time></trkpt><trkpt lat="38.0668317" lon="14.915425"><ele>811.0</ele><time>2026-05-03T07:38:15.256Z</time></trkpt><trkpt lat="38.0667383" lon="14.9154883"><ele>809.1666666666666</ele><time>2026-05-03T07:38:17.256Z</time></trkpt><trkpt lat="38.0666783" lon="14.915535"><ele>807.3333333333333</ele><time>2026-05-03T07:38:19.255Z</time></trkpt><trkpt lat="38.0666733" lon="14.9156167"><ele>805.5</ele><time>2026-05-03T07:38:22.256Z</time></trkpt><trkpt lat="38.06671" lon="14.9156867"><ele>803.6666666666667</ele><time>2026-05-03T07:38:50.257Z</time></trkpt><trkpt lat="38.0667667" lon="14.9157717"><ele>801.8333333333334</ele><time>2026-05-03T07:38:52.257Z</time></trkpt><trkpt lat="38.066855" lon="14.9158967"><ele>800.0</ele><time>2026-05-03T07:38:54.257Z</time></trkpt><trkpt lat="38.0669117" lon="14.915985"><ele>799.2</ele><time>2026-05-03T07:38:55.257Z</time></trkpt><trkpt lat="38.0669783" lon="14.9160767"><ele>798.4</ele><time>2026-05-03T07:38:56.257Z</time></trkpt><trkpt lat="38.0670467" lon="14.91615"><ele>797.5999999999999</ele><time>2026-05-03T07:38:57.257Z</time></trkpt><trkpt lat="38.067095" lon="14.9162167"><ele>796.8</ele><time>2026-05-03T07:38:58.257Z</time></trkpt><trkpt lat="38.0671433" lon="14.916355"><ele>796.0</ele><time>2026-05-03T07:39:00.257Z</time></trkpt><trkpt lat="38.0671233" lon="14.91647"><ele>795.9999999999999</ele><time>2026-05-03T07:39:02.257Z</time></trkpt><trkpt lat="38.0670633" lon="14.9165917"><ele>796.0</ele><time>2026-05-03T07:39:04.257Z</time></trkpt><trkpt lat="38.067015" lon="14.916665"><ele>796.0</ele><time>2026-05-03T07:39:05.257Z</time></trkpt><trkpt lat="38.0669517" lon="14.9167317"><ele>796.0</ele><time>2026-05-03T07:39:06.257Z</time></trkpt><trkpt lat="38.06689" lon="14.9168"><ele>795.9999999999999</ele><time>2026-05-03T07:39:07.257Z</time></trkpt><trkpt lat="38.06684" lon="14.9168633"><ele>796.0</ele><time>2026-05-03T07:39:08.256Z</time></trkpt><trkpt lat="38.0667917" lon="14.9169167"><ele>793.5999999999999</ele><time>2026-05-03T07:39:09.256Z</time></trkpt><trkpt lat="38.0666933" lon="14.9169867"><ele>791.2</ele><time>2026-05-03T07:39:11.257Z</time></trkpt><trkpt lat="38.0666317" lon="14.9170533"><ele>788.8</ele><time>2026-05-03T07:39:13.257Z</time></trkpt><trkpt lat="38.0666233" lon="14.91714"><ele>786.4000000000001</ele><time>2026-05-03T07:39:15.257Z</time></trkpt><trkpt lat="38.0666683" lon="14.9172817"><ele>784.0</ele><time>2026-05-03T07:39:17.256Z</time></trkpt><trkpt lat="38.0666983" lon="14.917365"><ele>783.9999999999999</ele><time>2026-05-03T07:39:18.257Z</time></trkpt><trkpt lat="38.0667183" lon="14.9174683"><ele>784.0</ele><time>2026-05-03T07:39:19.257Z</time></trkpt><trkpt lat="38.0667333" lon="14.9175567"><ele>784.0</ele><time>2026-05-03T07:39:20.257Z</time></trkpt><trkpt lat="38.0667433" lon="14.9176867"><ele>784.0</ele><time>2026-05-03T07:39:22.257Z</time></trkpt><trkpt lat="38.066725" lon="14.9177867"><ele>783.9999999999999</ele><time>2026-05-03T07:39:24.257Z</time></trkpt><trkpt lat="38.066765" lon="14.9178817"><ele>784.0</ele><time>2026-05-03T07:39:27.257Z</time></trkpt><trkpt lat="38.0668317" lon="14.917785"><ele>781.8333333333333</ele><time>2026-05-03T07:39:30.257Z</time></trkpt><trkpt lat="38.066845" lon="14.91767"><ele>779.6666666666666</ele><time>2026-05-03T07:39:32.257Z</time></trkpt><trkpt lat="38.0668517" lon="14.917575"><ele>777.5</ele><time>2026-05-03T07:39:34.257Z</time></trkpt><trkpt lat="38.066925" lon="14.917575"><ele>775.3333333333333</ele><time>2026-05-03T07:39:38.256Z</time></trkpt><trkpt lat="38.06698" lon="14.91763"><ele>773.1666666666666</ele><time>2026-05-03T07:39:40.257Z</time></trkpt><trkpt lat="38.0670633" lon="14.9176683"><ele>771.0</ele><time>2026-05-03T07:39:42.257Z</time></trkpt><trkpt lat="38.0671683" lon="14.917685"><ele>771.0</ele><time>2026-05-03T07:39:44.257Z</time></trkpt><trkpt lat="38.06727" lon="14.91766"><ele>771.0</ele><time>2026-05-03T07:39:46.257Z</time></trkpt><trkpt lat="38.06734" lon="14.9175783"><ele>771.0</ele><time>2026-05-03T07:39:48.257Z</time></trkpt><trkpt lat="38.0673483" lon="14.9174383"><ele>771.0</ele><time>2026-05-03T07:39:50.257Z</time></trkpt><trkpt lat="38.067365" lon="14.9172883"><ele>771.0</ele><time>2026-05-03T07:39:52.257Z</time></trkpt><trkpt lat="38.0673917" lon="14.917165"><ele>771.0</ele><time>2026-05-03T07:39:54.257Z</time></trkpt><trkpt lat="38.0673667" lon="14.9172583"><ele>771.0</ele><time>2026-05-03T07:40:36.257Z</time></trkpt><trkpt lat="38.067355" lon="14.91741"><ele>771.0</ele><time>2026-05-03T07:40:38.257Z</time></trkpt><trkpt lat="38.0673667" lon="14.9175433"><ele>771.0</ele><time>2026-05-03T07:40:40.257Z</time></trkpt><trkpt lat="38.0673383" lon="14.917625"><ele>771.0</ele><time>2026-05-03T07:40:42.257Z</time></trkpt><trkpt lat="38.0672433" lon="14.9176917"><ele>771.0</ele><time>2026-05-03T07:40:44.257Z</time></trkpt><trkpt lat="38.067175" lon="14.91772"><ele>771.0</ele><time>2026-05-03T07:40:45.257Z</time></trkpt><trkpt lat="38.0671067" lon="14.9177383"><ele>771.0</ele><time>2026-05-03T07:40:46.257Z</time></trkpt><trkpt lat="38.0669967" lon="14.9177"><ele>771.0</ele><time>2026-05-03T07:40:48.256Z</time></trkpt><trkpt lat="38.0669517" lon="14.9176433"><ele>771.0</ele><time>2026-05-03T07:40:49.257Z</time></trkpt><trkpt lat="38.0668733" lon="14.917575"><ele>771.0</ele><time>2026-05-03T07:40:51.257Z</time></trkpt><trkpt lat="38.0668717" lon="14.9177133"><ele>771.0</ele><time>2026-05-03T07:40:54.257Z</time></trkpt><trkpt lat="38.0668683" lon="14.9178117"><ele>771.0</ele><time>2026-05-03T07:40:56.256Z</time></trkpt><trkpt lat="38.0668183" lon="14.9178767"><ele>771.0</ele><time>2026-05-03T07:40:58.257Z</time></trkpt><trkpt lat="38.0667467" lon="14.9179183"><ele>771.0</ele><time>2026-05-03T07:41:00.257Z</time></trkpt><trkpt lat="38.06669" lon="14.9178683"><ele>771.0</ele><time>2026-05-03T07:41:02.257Z</time></trkpt><trkpt lat="38.0666783" lon="14.9177667"><ele>771.0</ele><time>2026-05-03T07:41:04.256Z</time></trkpt><trkpt lat="38.0666883" lon="14.9176283"><ele>773.5999999999999</ele><time>2026-05-03T07:41:06.257Z</time></trkpt><trkpt lat="38.0666617" lon="14.9175067"><ele>776.2</ele><time>2026-05-03T07:41:08.257Z</time></trkpt><trkpt lat="38.066615" lon="14.9173483"><ele>778.8</ele><time>2026-05-03T07:41:10.257Z</time></trkpt><trkpt lat="38.0665967" lon="14.917255"><ele>781.4000000000001</ele><time>2026-05-03T07:41:11.257Z</time></trkpt><trkpt lat="38.0665917" lon="14.9171233"><ele>784.0</ele><time>2026-05-03T07:41:13.257Z</time></trkpt><trkpt lat="38.0666317" lon="14.9170567"><ele>783.9999999999999</ele><time>2026-05-03T07:41:15.257Z</time></trkpt><trkpt lat="38.0666883" lon="14.9170033"><ele>784.0</ele><time>2026-05-03T07:41:17.257Z</time></trkpt><trkpt lat="38.06675" lon="14.9169167"><ele>784.0</ele><time>2026-05-03T07:41:19.257Z</time></trkpt><trkpt lat="38.06682" lon="14.9168133"><ele>784.0</ele><time>2026-05-03T07:41:21.257Z</time></trkpt><trkpt lat="38.0668717" lon="14.9167517"><ele>783.9999999999999</ele><time>2026-05-03T07:41:23.257Z</time></trkpt><trkpt lat="38.0669367" lon="14.91669"><ele>784.0</ele><time>2026-05-03T07:41:25.257Z</time></trkpt><trkpt lat="38.0670133" lon="14.9165967"><ele>785.9999999999999</ele><time>2026-05-03T07:41:27.256Z</time></trkpt><trkpt lat="38.067085" lon="14.9164667"><ele>788.0</ele><time>2026-05-03T07:41:29.257Z</time></trkpt><trkpt lat="38.0671167" lon="14.91639"><ele>790.0</ele><time>2026-05-03T07:41:30.257Z</time></trkpt><trkpt lat="38.0671283" lon="14.91628"><ele>792.0</ele><time>2026-05-03T07:41:32.257Z</time></trkpt><trkpt lat="38.0670933" lon="14.9161967"><ele>793.9999999999999</ele><time>2026-05-03T07:41:34.257Z</time></trkpt><trkpt lat="38.0670317" lon="14.9161483"><ele>796.0</ele><time>2026-05-03T07:41:36.257Z</time></trkpt><trkpt lat="38.066965" lon="14.9160783"><ele>795.9999999999999</ele><time>2026-05-03T07:41:38.257Z</time></trkpt><trkpt lat="38.0669083" lon="14.9159967"><ele>796.0</ele><time>2026-05-03T07:41:40.257Z</time></trkpt><trkpt lat="38.0668317" lon="14.9158967"><ele>796.0</ele><time>2026-05-03T07:41:42.257Z</time></trkpt><trkpt lat="38.0667733" lon="14.9158217"><ele>796.0</ele><time>2026-05-03T07:41:44.257Z</time></trkpt><trkpt lat="38.0667117" lon="14.9157533"><ele>795.9999999999999</ele><time>2026-05-03T07:41:47.257Z</time></trkpt><trkpt lat="38.06672" lon="14.9156683"><ele>796.0</ele><time>2026-05-03T07:42:05.257Z</time></trkpt><trkpt lat="38.0667683" lon="14.915585"><ele>796.5714285714286</ele><time>2026-05-03T07:42:20.257Z</time></trkpt><trkpt lat="38.06683" lon="14.9155617"><ele>797.1428571428571</ele><time>2026-05-03T07:43:16.257Z</time></trkpt><trkpt lat="38.0669" lon="14.9155367"><ele>797.7142857142858</ele><time>2026-05-03T07:43:55.257Z</time></trkpt><trkpt lat="38.0669828" lon="14.9155071"><ele>798.2857142857142</ele><time>2026-05-03T07:43:58.257Z</time></trkpt><trkpt lat="38.0670465" lon="14.9154865"><ele>798.8571428571429</ele><time>2026-05-03T07:44:00.257Z</time></trkpt><trkpt lat="38.0671152" lon="14.9154555"><ele>799.4285714285714</ele><time>2026-05-03T07:44:02.257Z</time></trkpt><trkpt lat="38.0671771" lon="14.9154162"><ele>800.0</ele><time>2026-05-03T07:44:04.257Z</time></trkpt><trkpt lat="38.0672404" lon="14.9153821"><ele>800.0000000000001</ele><time>2026-05-03T07:44:06.257Z</time></trkpt><trkpt lat="38.0673093" lon="14.9153381"><ele>800.0</ele><time>2026-05-03T07:44:08.257Z</time></trkpt><trkpt lat="38.0673573" lon="14.9152792"><ele>800.0</ele><time>2026-05-03T07:44:10.257Z</time></trkpt><trkpt lat="38.0674082" lon="14.9151994"><ele>800.0</ele><time>2026-05-03T07:44:12.256Z</time></trkpt><trkpt lat="38.0674443" lon="14.9150807"><ele>800.0000000000001</ele><time>2026-05-03T07:44:14.257Z</time></trkpt><trkpt lat="38.0674519" lon="14.9149709"><ele>800.0</ele><time>2026-05-03T07:44:16.257Z</time></trkpt><trkpt lat="38.0675043" lon="14.9149103"><ele>795.5000000000001</ele><time>2026-05-03T07:44:19.257Z</time></trkpt><trkpt lat="38.0675347" lon="14.9150152"><ele>791.0</ele><time>2026-05-03T07:44:25.257Z</time></trkpt><trkpt lat="38.0675569" lon="14.9151237"><ele>786.5</ele><time>2026-05-03T07:44:27.256Z</time></trkpt><trkpt lat="38.0675564" lon="14.9152134"><ele>782.0</ele><time>2026-05-03T07:44:29.257Z</time></trkpt><trkpt lat="38.0675179" lon="14.9153109"><ele>777.5000000000001</ele><time>2026-05-03T07:44:31.257Z</time></trkpt><trkpt lat="38.0674844" lon="14.9154196"><ele>773.0</ele><time>2026-05-03T07:44:33.257Z</time></trkpt><trkpt lat="38.0674462" lon="14.9155097"><ele>771.1666666666667</ele><time>2026-05-03T07:44:35.257Z</time></trkpt><trkpt lat="38.0674073" lon="14.9155738"><ele>769.3333333333334</ele><time>2026-05-03T07:44:37.257Z</time></trkpt><trkpt lat="38.0673886" lon="14.9156514"><ele>767.5</ele><time>2026-05-03T07:44:40.258Z</time></trkpt><trkpt lat="38.067445" lon="14.9157217"><ele>765.6666666666667</ele><time>2026-05-03T07:44:43.258Z</time></trkpt><trkpt lat="38.0675267" lon="14.9157933"><ele>763.8333333333334</ele><time>2026-05-03T07:44:46.258Z</time></trkpt><trkpt lat="38.0676" lon="14.915825"><ele>762.0</ele><time>2026-05-03T07:44:48.258Z</time></trkpt><trkpt lat="38.0676767" lon="14.9158433"><ele>762.0</ele><time>2026-05-03T07:44:50.258Z</time></trkpt><trkpt lat="38.067775" lon="14.9158633"><ele>762.0</ele><time>2026-05-03T07:46:27.258Z</time></trkpt><trkpt lat="38.0678133" lon="14.9159417"><ele>762.0</ele><time>2026-05-03T07:46:29.258Z</time></trkpt><trkpt lat="38.06787" lon="14.9160283"><ele>762.0</ele><time>2026-05-03T07:46:31.258Z</time></trkpt><trkpt lat="38.0679483" lon="14.9161183"><ele>762.0</ele><time>2026-05-03T07:46:33.257Z</time></trkpt><trkpt lat="38.0679917" lon="14.9162033"><ele>762.0</ele><time>2026-05-03T07:46:35.258Z</time></trkpt><trkpt lat="38.067985" lon="14.9162833"><ele>762.5</ele><time>2026-05-03T07:46:37.258Z</time></trkpt><trkpt lat="38.067945" lon="14.91638"><ele>763.0</ele><time>2026-05-03T07:46:40.258Z</time></trkpt><trkpt lat="38.067905" lon="14.9164533"><ele>763.5</ele><time>2026-05-03T07:46:42.257Z</time></trkpt><trkpt lat="38.06789" lon="14.916545"><ele>764.0</ele><time>2026-05-03T07:46:45.258Z</time></trkpt><trkpt lat="38.0679167" lon="14.9166367"><ele>764.5</ele><time>2026-05-03T07:46:48.258Z</time></trkpt><trkpt lat="38.0679633" lon="14.9167067"><ele>765.0</ele><time>2026-05-03T07:46:50.258Z</time></trkpt><trkpt lat="38.0679967" lon="14.9167967"><ele>762.3333333333334</ele><time>2026-05-03T07:46:52.258Z</time></trkpt><trkpt lat="38.0679767" lon="14.9168933"><ele>759.6666666666666</ele><time>2026-05-03T07:46:54.258Z</time></trkpt><trkpt lat="38.06796" lon="14.9169867"><ele>757.0</ele><time>2026-05-03T07:46:56.258Z</time></trkpt><trkpt lat="38.0680083" lon="14.9170783"><ele>754.3333333333333</ele><time>2026-05-03T07:47:19.258Z</time></trkpt><trkpt lat="38.068075" lon="14.917"><ele>751.6666666666666</ele><time>2026-05-03T07:47:22.258Z</time></trkpt><trkpt lat="38.0681317" lon="14.9169183"><ele>749.0</ele><time>2026-05-03T07:47:24.258Z</time></trkpt><trkpt lat="38.06819" lon="14.9168383"><ele>749.0</ele><time>2026-05-03T07:47:26.258Z</time></trkpt><trkpt lat="38.068255" lon="14.9167817"><ele>749.0</ele><time>2026-05-03T07:47:28.258Z</time></trkpt><trkpt lat="38.0683083" lon="14.91671"><ele>749.0</ele><time>2026-05-03T07:47:30.258Z</time></trkpt><trkpt lat="38.0683633" lon="14.91662"><ele>749.0</ele><time>2026-05-03T07:47:32.258Z</time></trkpt><trkpt lat="38.0684433" lon="14.9165417"><ele>749.0</ele><time>2026-05-03T07:47:34.258Z</time></trkpt><trkpt lat="38.0685133" lon="14.916485"><ele>749.0</ele><time>2026-05-03T07:47:36.258Z</time></trkpt><trkpt lat="38.0685783" lon="14.9164033"><ele>745.1666666666666</ele><time>2026-05-03T07:47:38.258Z</time></trkpt><trkpt lat="38.068595" lon="14.916305"><ele>741.3333333333333</ele><time>2026-05-03T07:47:40.258Z</time></trkpt><trkpt lat="38.0685933" lon="14.91621"><ele>737.5</ele><time>2026-05-03T07:47:42.258Z</time></trkpt><trkpt lat="38.0686767" lon="14.9162817"><ele>733.6666666666666</ele><time>2026-05-03T07:47:46.258Z</time></trkpt><trkpt lat="38.06873" lon="14.9164167"><ele>729.8333333333334</ele><time>2026-05-03T07:47:48.258Z</time></trkpt><trkpt lat="38.06876" lon="14.9164967"><ele>726.0</ele><time>2026-05-03T07:47:49.258Z</time></trkpt><trkpt lat="38.0688317" lon="14.9166233"><ele>726.0</ele><time>2026-05-03T07:47:51.258Z</time></trkpt><trkpt lat="38.0688867" lon="14.9167167"><ele>726.0</ele><time>2026-05-03T07:47:53.258Z</time></trkpt><trkpt lat="38.0689633" lon="14.9167383"><ele>726.0</ele><time>2026-05-03T07:47:56.258Z</time></trkpt><trkpt lat="38.0690017" lon="14.9166667"><ele>726.0</ele><time>2026-05-03T07:47:58.258Z</time></trkpt><trkpt lat="38.06903" lon="14.9165667"><ele>726.0</ele><time>2026-05-03T07:48:00.258Z</time></trkpt><trkpt lat="38.0690567" lon="14.916485"><ele>726.0</ele><time>2026-05-03T07:48:01.258Z</time></trkpt><trkpt lat="38.069075" lon="14.916385"><ele>726.0</ele><time>2026-05-03T07:48:03.258Z</time></trkpt><trkpt lat="38.0690817" lon="14.9162583"><ele>726.0</ele><time>2026-05-03T07:48:05.258Z</time></trkpt><trkpt lat="38.0691317" lon="14.9161683"><ele>726.0</ele><time>2026-05-03T07:48:08.258Z</time></trkpt><trkpt lat="38.069195" lon="14.9161617"><ele>726.0</ele><time>2026-05-03T07:48:10.257Z</time></trkpt><trkpt lat="38.06924" lon="14.9162783"><ele>726.0</ele><time>2026-05-03T07:48:13.258Z</time></trkpt><trkpt lat="38.06927" lon="14.916405"><ele>721.5</ele><time>2026-05-03T07:48:15.257Z</time></trkpt><trkpt lat="38.0693033" lon="14.9165067"><ele>717.0</ele><time>2026-05-03T07:48:17.258Z</time></trkpt><trkpt lat="38.0693117" lon="14.91659"><ele>712.5</ele><time>2026-05-03T07:48:19.258Z</time></trkpt><trkpt lat="38.0693283" lon="14.9166817"><ele>708.0</ele><time>2026-05-03T07:48:22.258Z</time></trkpt><trkpt lat="38.0693167" lon="14.9167783"><ele>703.5</ele><time>2026-05-03T07:48:30.258Z</time></trkpt><trkpt lat="38.06927" lon="14.9168767"><ele>699.0</ele><time>2026-05-03T07:48:32.258Z</time></trkpt><trkpt lat="38.0692283" lon="14.9169667"><ele>699.0</ele><time>2026-05-03T07:48:34.258Z</time></trkpt><trkpt lat="38.069205" lon="14.917065"><ele>699.0</ele><time>2026-05-03T07:48:37.258Z</time></trkpt><trkpt lat="38.0692917" lon="14.9170317"><ele>699.0</ele><time>2026-05-03T07:49:08.258Z</time></trkpt><trkpt lat="38.0693267" lon="14.916965"><ele>699.0</ele><time>2026-05-03T07:49:09.258Z</time></trkpt><trkpt lat="38.0693617" lon="14.916885"><ele>699.0</ele><time>2026-05-03T07:49:10.258Z</time></trkpt><trkpt lat="38.0694" lon="14.916805"><ele>699.0</ele><time>2026-05-03T07:49:11.258Z</time></trkpt><trkpt lat="38.06944" lon="14.916705"><ele>698.6666666666666</ele><time>2026-05-03T07:49:13.258Z</time></trkpt><trkpt lat="38.06947" lon="14.9166167"><ele>698.3333333333334</ele><time>2026-05-03T07:49:15.257Z</time></trkpt><trkpt lat="38.06949" lon="14.916515"><ele>698.0</ele><time>2026-05-03T07:49:18.258Z</time></trkpt><trkpt lat="38.06952" lon="14.91642"><ele>697.6666666666667</ele><time>2026-05-03T07:49:21.258Z</time></trkpt><trkpt lat="38.0695667" lon="14.916315"><ele>697.3333333333334</ele><time>2026-05-03T07:49:23.258Z</time></trkpt><trkpt lat="38.0696167" lon="14.9162067"><ele>697.0</ele><time>2026-05-03T07:49:25.258Z</time></trkpt><trkpt lat="38.0696483" lon="14.9161083"><ele>697.0</ele><time>2026-05-03T07:49:27.258Z</time></trkpt><trkpt lat="38.0696667" lon="14.9160283"><ele>697.0</ele><time>2026-05-03T07:49:29.258Z</time></trkpt><trkpt lat="38.0697017" lon="14.9159433"><ele>697.0</ele><time>2026-05-03T07:49:32.258Z</time></trkpt><trkpt lat="38.0697667" lon="14.9159067"><ele>697.0</ele><time>2026-05-03T07:49:37.258Z</time></trkpt><trkpt lat="38.069835" lon="14.9159383"><ele>697.0</ele><time>2026-05-03T07:49:40.257Z</time></trkpt><trkpt lat="38.0699183" lon="14.9159283"><ele>697.0</ele><time>2026-05-03T07:49:43.258Z</time></trkpt><trkpt lat="38.06997" lon="14.91588"><ele>697.0</ele><time>2026-05-03T07:49:45.258Z</time></trkpt><trkpt lat="38.0699983" lon="14.9157967"><ele>696.6666666666667</ele><time>2026-05-03T07:49:48.258Z</time></trkpt><trkpt lat="38.0699266" lon="14.9157807"><ele>696.3333333333334</ele><time>2026-05-03T07:50:13.258Z</time></trkpt><trkpt lat="38.0698764" lon="14.9158475"><ele>696.0</ele><time>2026-05-03T07:59:50.26Z</time></trkpt><trkpt lat="38.0698034" lon="14.9157868"><ele>695.6666666666666</ele><time>2026-05-03T07:59:58.26Z</time></trkpt><trkpt lat="38.0697251" lon="14.9157814"><ele>695.3333333333333</ele><time>2026-05-03T08:00:02.26Z</time></trkpt><trkpt lat="38.069658" lon="14.9157226"><ele>695.0</ele><time>2026-05-03T08:00:05.26Z</time></trkpt><trkpt lat="38.0696405" lon="14.9156448"><ele>695.0</ele><time>2026-05-03T08:01:30.259Z</time></trkpt><trkpt lat="38.0697085" lon="14.9156468"><ele>695.0</ele><time>2026-05-03T08:03:05.26Z</time></trkpt><trkpt lat="38.0698076" lon="14.9156716"><ele>695.0</ele><time>2026-05-03T08:03:07.26Z</time></trkpt><trkpt lat="38.0698868" lon="14.9156998"><ele>695.0</ele><time>2026-05-03T08:03:09.26Z</time></trkpt><trkpt lat="38.069959" lon="14.9156961"><ele>695.0</ele><time>2026-05-03T08:03:11.26Z</time></trkpt><trkpt lat="38.0700468" lon="14.9156857"><ele>695.0</ele><time>2026-05-03T08:03:14.26Z</time></trkpt><trkpt lat="38.0701003" lon="14.9156147"><ele>690.7142857142858</ele><time>2026-05-03T08:03:17.26Z</time></trkpt><trkpt lat="38.070124" lon="14.9155305"><ele>686.4285714285714</ele><time>2026-05-03T08:03:19.26Z</time></trkpt><trkpt lat="38.0701775" lon="14.9154689"><ele>682.1428571428571</ele><time>2026-05-03T08:03:21.26Z</time></trkpt><trkpt lat="38.0702453" lon="14.9154236"><ele>677.8571428571429</ele><time>2026-05-03T08:03:24.259Z</time></trkpt><trkpt lat="38.0703119" lon="14.9154113"><ele>673.5714285714286</ele><time>2026-05-03T08:03:27.26Z</time></trkpt><trkpt lat="38.0703769" lon="14.9154106"><ele>669.2857142857143</ele><time>2026-05-03T08:03:30.26Z</time></trkpt><trkpt lat="38.0704713" lon="14.9154002"><ele>665.0</ele><time>2026-05-03T08:03:33.26Z</time></trkpt><trkpt lat="38.0705566" lon="14.9153959"><ele>665.0</ele><time>2026-05-03T08:03:36.261Z</time></trkpt><trkpt lat="38.0706367" lon="14.915405"><ele>665.0</ele><time>2026-05-03T08:04:53.261Z</time></trkpt><trkpt lat="38.0706783" lon="14.91534"><ele>665.0</ele><time>2026-05-03T08:04:55.261Z</time></trkpt><trkpt lat="38.0707133" lon="14.915225"><ele>665.0</ele><time>2026-05-03T08:04:57.261Z</time></trkpt><trkpt lat="38.0707567" lon="14.9151217"><ele>665.0</ele><time>2026-05-03T08:04:59.261Z</time></trkpt><trkpt lat="38.0708017" lon="14.9150417"><ele>665.0</ele><time>2026-05-03T08:05:01.261Z</time></trkpt><trkpt lat="38.0708683" lon="14.9149883"><ele>664.4285714285714</ele><time>2026-05-03T08:05:06.261Z</time></trkpt><trkpt lat="38.07092" lon="14.9149167"><ele>663.8571428571429</ele><time>2026-05-03T08:05:08.261Z</time></trkpt><trkpt lat="38.0709817" lon="14.9148433"><ele>663.2857142857142</ele><time>2026-05-03T08:05:10.261Z</time></trkpt><trkpt lat="38.0710417" lon="14.9147817"><ele>662.7142857142858</ele><time>2026-05-03T08:05:12.261Z</time></trkpt><trkpt lat="38.0711017" lon="14.9147367"><ele>662.1428571428571</ele><time>2026-05-03T08:05:14.261Z</time></trkpt><trkpt lat="38.0711417" lon="14.9146617"><ele>661.5714285714286</ele><time>2026-05-03T08:05:16.261Z</time></trkpt><trkpt lat="38.0711833" lon="14.9145917"><ele>661.0</ele><time>2026-05-03T08:05:18.261Z</time></trkpt><trkpt lat="38.0712267" lon="14.9145133"><ele>661.0</ele><time>2026-05-03T08:05:20.261Z</time></trkpt><trkpt lat="38.0712767" lon="14.9144233"><ele>661.0</ele><time>2026-05-03T08:05:22.261Z</time></trkpt><trkpt lat="38.0713133" lon="14.9143283"><ele>661.0</ele><time>2026-05-03T08:05:25.261Z</time></trkpt><trkpt lat="38.0713667" lon="14.9142767"><ele>661.0</ele><time>2026-05-03T08:05:28.261Z</time></trkpt><trkpt lat="38.0714317" lon="14.9142267"><ele>661.0</ele><time>2026-05-03T08:05:31.261Z</time></trkpt><trkpt lat="38.0715033" lon="14.9141783"><ele>661.0</ele><time>2026-05-03T08:05:34.261Z</time></trkpt><trkpt lat="38.0715783" lon="14.914115"><ele>659.0</ele><time>2026-05-03T08:05:37.261Z</time></trkpt><trkpt lat="38.071645" lon="14.9140433"><ele>657.0</ele><time>2026-05-03T08:05:40.261Z</time></trkpt><trkpt lat="38.0716983" lon="14.914"><ele>655.0</ele><time>2026-05-03T08:05:43.261Z</time></trkpt><trkpt lat="38.07175" lon="14.914055"><ele>653.0</ele><time>2026-05-03T08:05:48.261Z</time></trkpt><trkpt lat="38.0716883" lon="14.9141283"><ele>651.0</ele><time>2026-05-03T08:05:52.261Z</time></trkpt><trkpt lat="38.0716417" lon="14.914185"><ele>649.0</ele><time>2026-05-03T08:05:54.261Z</time></trkpt><trkpt lat="38.0716883" lon="14.9141017"><ele>647.0</ele><time>2026-05-03T08:06:36.261Z</time></trkpt><trkpt lat="38.0717217" lon="14.9140317"><ele>647.0</ele><time>2026-05-03T08:06:39.261Z</time></trkpt><trkpt lat="38.0716733" lon="14.9139717"><ele>647.0</ele><time>2026-05-03T08:06:42.26Z</time></trkpt><trkpt lat="38.0716133" lon="14.91401"><ele>647.0</ele><time>2026-05-03T08:06:44.261Z</time></trkpt><trkpt lat="38.071555" lon="14.9140967"><ele>647.0</ele><time>2026-05-03T08:06:46.261Z</time></trkpt><trkpt lat="38.0714917" lon="14.9141717"><ele>647.0</ele><time>2026-05-03T08:06:48.261Z</time></trkpt><trkpt lat="38.0714117" lon="14.9142183"><ele>647.0</ele><time>2026-05-03T08:06:50.261Z</time></trkpt><trkpt lat="38.07135" lon="14.914265"><ele>649.3333333333333</ele><time>2026-05-03T08:06:52.26Z</time></trkpt><trkpt lat="38.07129" lon="14.914325"><ele>651.6666666666666</ele><time>2026-05-03T08:06:54.261Z</time></trkpt><trkpt lat="38.0712483" lon="14.9143983"><ele>654.0</ele><time>2026-05-03T08:06:56.261Z</time></trkpt><trkpt lat="38.0712017" lon="14.9144933"><ele>656.3333333333334</ele><time>2026-05-03T08:06:58.261Z</time></trkpt><trkpt lat="38.0711567" lon="14.9145867"><ele>658.6666666666667</ele><time>2026-05-03T08:07:00.261Z</time></trkpt><trkpt lat="38.071125" lon="14.91467"><ele>661.0</ele><time>2026-05-03T08:07:02.26Z</time></trkpt><trkpt lat="38.071065" lon="14.9147417"><ele>661.0</ele><time>2026-05-03T08:07:05.261Z</time></trkpt><trkpt lat="38.0709817" lon="14.9148233"><ele>661.0</ele><time>2026-05-03T08:07:08.261Z</time></trkpt><trkpt lat="38.0709167" lon="14.9149067"><ele>661.0</ele><time>2026-05-03T08:07:10.261Z</time></trkpt><trkpt lat="38.070845" lon="14.9149867"><ele>661.0</ele><time>2026-05-03T08:07:12.261Z</time></trkpt><trkpt lat="38.07077" lon="14.91507"><ele>661.0</ele><time>2026-05-03T08:07:14.261Z</time></trkpt><trkpt lat="38.0707317" lon="14.915135"><ele>661.8</ele><time>2026-05-03T08:07:15.261Z</time></trkpt><trkpt lat="38.070695" lon="14.9152217"><ele>662.5999999999999</ele><time>2026-05-03T08:07:16.261Z</time></trkpt><trkpt lat="38.070665" lon="14.9152933"><ele>663.4</ele><time>2026-05-03T08:07:17.26Z</time></trkpt><trkpt lat="38.070605" lon="14.9153767"><ele>664.2</ele><time>2026-05-03T08:07:19.261Z</time></trkpt><trkpt lat="38.070505" lon="14.91541"><ele>665.0</ele><time>2026-05-03T08:07:21.261Z</time></trkpt><trkpt lat="38.0703833" lon="14.915415"><ele>665.0</ele><time>2026-05-03T08:07:23.261Z</time></trkpt><trkpt lat="38.070285" lon="14.9154117"><ele>665.0</ele><time>2026-05-03T08:07:25.261Z</time></trkpt><trkpt lat="38.0701883" lon="14.9154417"><ele>665.0</ele><time>2026-05-03T08:07:27.261Z</time></trkpt><trkpt lat="38.070105" lon="14.9155217"><ele>665.0</ele><time>2026-05-03T08:07:29.26Z</time></trkpt><trkpt lat="38.0700667" lon="14.9156183"><ele>665.0</ele><time>2026-05-03T08:07:31.261Z</time></trkpt><trkpt lat="38.06998" lon="14.9156733"><ele>670.0</ele><time>2026-05-03T08:07:33.261Z</time></trkpt><trkpt lat="38.0699117" lon="14.91568"><ele>675.0</ele><time>2026-05-03T08:07:34.261Z</time></trkpt><trkpt lat="38.069845" lon="14.9156733"><ele>680.0</ele><time>2026-05-03T08:07:35.261Z</time></trkpt><trkpt lat="38.0697833" lon="14.915655"><ele>685.0</ele><time>2026-05-03T08:07:36.261Z</time></trkpt><trkpt lat="38.0696767" lon="14.9156367"><ele>690.0</ele><time>2026-05-03T08:07:38.261Z</time></trkpt><trkpt lat="38.0696033" lon="14.9155783"><ele>695.0</ele><time>2026-05-03T08:07:40.261Z</time></trkpt><trkpt lat="38.0695767" lon="14.91546"><ele>695.0000000000001</ele><time>2026-05-03T08:07:42.261Z</time></trkpt><trkpt lat="38.0696333" lon="14.915385"><ele>695.0</ele><time>2026-05-03T08:07:44.261Z</time></trkpt><trkpt lat="38.0696917" lon="14.9153533"><ele>695.0</ele><time>2026-05-03T08:07:45.261Z</time></trkpt><trkpt lat="38.069755" lon="14.9153183"><ele>695.0</ele><time>2026-05-03T08:07:46.261Z</time></trkpt><trkpt lat="38.06982" lon="14.9152867"><ele>695.0</ele><time>2026-05-03T08:07:47.261Z</time></trkpt><trkpt lat="38.0698817" lon="14.9152633"><ele>695.0000000000001</ele><time>2026-05-03T08:07:48.261Z</time></trkpt><trkpt lat="38.06998" lon="14.9152433"><ele>695.0</ele><time>2026-05-03T08:07:50.261Z</time></trkpt><trkpt lat="38.07004" lon="14.915185"><ele>692.0</ele><time>2026-05-03T08:07:52.261Z</time></trkpt><trkpt lat="38.0700967" lon="14.9150817"><ele>689.0</ele><time>2026-05-03T08:07:54.261Z</time></trkpt><trkpt lat="38.070125" lon="14.915"><ele>686.0</ele><time>2026-05-03T08:07:55.261Z</time></trkpt><trkpt lat="38.0701667" lon="14.91489"><ele>683.0</ele><time>2026-05-03T08:07:56.261Z</time></trkpt><trkpt lat="38.07022" lon="14.91479"><ele>680.0</ele><time>2026-05-03T08:07:57.261Z</time></trkpt><trkpt lat="38.07029" lon="14.91471"><ele>680.0</ele><time>2026-05-03T08:07:58.261Z</time></trkpt><trkpt lat="38.07036" lon="14.9146383"><ele>680.0</ele><time>2026-05-03T08:07:59.261Z</time></trkpt><trkpt lat="38.0704167" lon="14.9145717"><ele>680.0</ele><time>2026-05-03T08:08:00.261Z</time></trkpt><trkpt lat="38.07047" lon="14.9144967"><ele>680.0</ele><time>2026-05-03T08:08:01.261Z</time></trkpt><trkpt lat="38.0705233" lon="14.9144233"><ele>680.0</ele><time>2026-05-03T08:08:02.261Z</time></trkpt><trkpt lat="38.07056" lon="14.9143483"><ele>680.0</ele><time>2026-05-03T08:08:03.261Z</time></trkpt><trkpt lat="38.0705933" lon="14.9142767"><ele>679.6666666666666</ele><time>2026-05-03T08:08:04.261Z</time></trkpt><trkpt lat="38.0706417" lon="14.91417"><ele>679.3333333333333</ele><time>2026-05-03T08:08:06.261Z</time></trkpt><trkpt lat="38.07068" lon="14.914105"><ele>679.0</ele><time>2026-05-03T08:08:07.261Z</time></trkpt><trkpt lat="38.0707133" lon="14.9140367"><ele>678.6666666666666</ele><time>2026-05-03T08:08:08.261Z</time></trkpt><trkpt lat="38.0707833" lon="14.9139333"><ele>678.3333333333334</ele><time>2026-05-03T08:08:10.261Z</time></trkpt><trkpt lat="38.0708517" lon="14.91383"><ele>678.0</ele><time>2026-05-03T08:08:12.261Z</time></trkpt><trkpt lat="38.070945" lon="14.9137317"><ele>678.0</ele><time>2026-05-03T08:08:14.261Z</time></trkpt><trkpt lat="38.0710083" lon="14.9136283"><ele>678.0</ele><time>2026-05-03T08:08:16.261Z</time></trkpt><trkpt lat="38.0710183" lon="14.91351"><ele>678.0</ele><time>2026-05-03T08:08:18.261Z</time></trkpt><trkpt lat="38.07095" lon="14.9135233"><ele>678.0</ele><time>2026-05-03T08:08:21.261Z</time></trkpt><trkpt lat="38.070895" lon="14.9135717"><ele>678.0</ele><time>2026-05-03T08:08:22.261Z</time></trkpt><trkpt lat="38.0708183" lon="14.913635"><ele>678.0</ele><time>2026-05-03T08:08:23.261Z</time></trkpt><trkpt lat="38.0707083" lon="14.9137"><ele>683.1666666666666</ele><time>2026-05-03T08:08:24.261Z</time></trkpt><trkpt lat="38.0705983" lon="14.91375"><ele>688.3333333333334</ele><time>2026-05-03T08:08:25.26Z</time></trkpt><trkpt lat="38.0705133" lon="14.9137867"><ele>693.5</ele><time>2026-05-03T08:08:26.261Z</time></trkpt><trkpt lat="38.0704483" lon="14.913815"><ele>698.6666666666667</ele><time>2026-05-03T08:08:27.261Z</time></trkpt><trkpt lat="38.0703817" lon="14.9138517"><ele>703.8333333333334</ele><time>2026-05-03T08:08:30.261Z</time></trkpt><trkpt lat="38.07031" lon="14.9138833"><ele>709.0</ele><time>2026-05-03T08:08:32.261Z</time></trkpt><trkpt lat="38.0702483" lon="14.9139417"><ele>709.0</ele><time>2026-05-03T08:08:34.261Z</time></trkpt><trkpt lat="38.0701967" lon="14.914005"><ele>709.0</ele><time>2026-05-03T08:08:36.261Z</time></trkpt><trkpt lat="38.070135" lon="14.9141133"><ele>709.0</ele><time>2026-05-03T08:08:38.261Z</time></trkpt><trkpt lat="38.0700933" lon="14.914185"><ele>709.0</ele><time>2026-05-03T08:08:39.261Z</time></trkpt><trkpt lat="38.0700333" lon="14.9142567"><ele>709.0</ele><time>2026-05-03T08:08:40.261Z</time></trkpt><trkpt lat="38.069965" lon="14.914315"><ele>709.0</ele><time>2026-05-03T08:08:41.261Z</time></trkpt><trkpt lat="38.0699017" lon="14.9143783"><ele>708.7142857142858</ele><time>2026-05-03T08:08:42.261Z</time></trkpt><trkpt lat="38.0698333" lon="14.9144167"><ele>708.4285714285714</ele><time>2026-05-03T08:08:43.261Z</time></trkpt><trkpt lat="38.0697667" lon="14.91444"><ele>708.1428571428571</ele><time>2026-05-03T08:08:44.261Z</time></trkpt><trkpt lat="38.0696983" lon="14.9144433"><ele>707.8571428571429</ele><time>2026-05-03T08:08:45.261Z</time></trkpt><trkpt lat="38.069625" lon="14.9144283"><ele>707.5714285714286</ele><time>2026-05-03T08:08:46.261Z</time></trkpt><trkpt lat="38.0695617" lon="14.914415"><ele>707.2857142857143</ele><time>2026-05-03T08:08:47.261Z</time></trkpt><trkpt lat="38.0694717" lon="14.9144083"><ele>707.0</ele><time>2026-05-03T08:08:49.26Z</time></trkpt><trkpt lat="38.06939" lon="14.9144383"><ele>707.0</ele><time>2026-05-03T08:08:51.261Z</time></trkpt><trkpt lat="38.0693" lon="14.91447"><ele>707.0</ele><time>2026-05-03T08:08:53.261Z</time></trkpt><trkpt lat="38.0692067" lon="14.9144983"><ele>707.0</ele><time>2026-05-03T08:08:55.261Z</time></trkpt><trkpt lat="38.0691117" lon="14.914525"><ele>707.0</ele><time>2026-05-03T08:08:57.26Z</time></trkpt><trkpt lat="38.06901" lon="14.91456"><ele>707.0</ele><time>2026-05-03T08:08:59.261Z</time></trkpt><trkpt lat="38.0689117" lon="14.9146067"><ele>711.0</ele><time>2026-05-03T08:09:01.261Z</time></trkpt><trkpt lat="38.0688583" lon="14.9146767"><ele>715.0</ele><time>2026-05-03T08:09:04.261Z</time></trkpt><trkpt lat="38.068885" lon="14.914775"><ele>719.0</ele><time>2026-05-03T08:09:06.261Z</time></trkpt><trkpt lat="38.0689533" lon="14.9148833"><ele>723.0</ele><time>2026-05-03T08:09:08.261Z</time></trkpt><trkpt lat="38.0689617" lon="14.91502"><ele>727.0</ele><time>2026-05-03T08:09:10.261Z</time></trkpt><trkpt lat="38.068905" lon="14.9151783"><ele>727.0</ele><time>2026-05-03T08:09:12.261Z</time></trkpt><trkpt lat="38.0688683" lon="14.915265"><ele>727.0</ele><time>2026-05-03T08:09:13.261Z</time></trkpt><trkpt lat="38.0688217" lon="14.91534"><ele>727.0</ele><time>2026-05-03T08:09:14.261Z</time></trkpt><trkpt lat="38.06877" lon="14.9154117"><ele>727.0</ele><time>2026-05-03T08:09:15.261Z</time></trkpt><trkpt lat="38.0687033" lon="14.91544"><ele>727.0</ele><time>2026-05-03T08:09:16.26Z</time></trkpt><trkpt lat="38.06863" lon="14.9154433"><ele>727.0</ele><time>2026-05-03T08:09:17.261Z</time></trkpt><trkpt lat="38.0685267" lon="14.9154"><ele>727.0</ele><time>2026-05-03T08:09:19.261Z</time></trkpt><trkpt lat="38.0685267" lon="14.9153033"><ele>727.0</ele><time>2026-05-03T08:09:21.261Z</time></trkpt><trkpt lat="38.0685733" lon="14.9152433"><ele>727.0</ele><time>2026-05-03T08:09:22.261Z</time></trkpt><trkpt lat="38.0686233" lon="14.9151617"><ele>727.0</ele><time>2026-05-03T08:09:23.261Z</time></trkpt><trkpt lat="38.0686483" lon="14.91508"><ele>727.0</ele><time>2026-05-03T08:09:24.261Z</time></trkpt><trkpt lat="38.068655" lon="14.9149867"><ele>727.0</ele><time>2026-05-03T08:09:25.261Z</time></trkpt><trkpt lat="38.068645" lon="14.9149067"><ele>727.0</ele><time>2026-05-03T08:09:26.261Z</time></trkpt><trkpt lat="38.0686033" lon="14.9148417"><ele>729.1666666666667</ele><time>2026-05-03T08:09:27.261Z</time></trkpt><trkpt lat="38.0685433" lon="14.914785"><ele>731.3333333333334</ele><time>2026-05-03T08:09:28.261Z</time></trkpt><trkpt lat="38.0684633" lon="14.9147267"><ele>733.5</ele><time>2026-05-03T08:09:29.261Z</time></trkpt><trkpt lat="38.06839" lon="14.91466"><ele>735.6666666666666</ele><time>2026-05-03T08:09:30.261Z</time></trkpt><trkpt lat="38.0683367" lon="14.914595"><ele>737.8333333333333</ele><time>2026-05-03T08:09:31.261Z</time></trkpt><trkpt lat="38.0682817" lon="14.9144867"><ele>740.0</ele><time>2026-05-03T08:09:33.261Z</time></trkpt><trkpt lat="38.068345" lon="14.914395"><ele>740.0</ele><time>2026-05-03T08:09:35.261Z</time></trkpt><trkpt lat="38.06843" lon="14.9143433"><ele>740.0</ele><time>2026-05-03T08:09:36.261Z</time></trkpt><trkpt lat="38.0685167" lon="14.9142983"><ele>740.0</ele><time>2026-05-03T08:09:37.261Z</time></trkpt><trkpt lat="38.06859" lon="14.9142483"><ele>740.0</ele><time>2026-05-03T08:09:38.261Z</time></trkpt><trkpt lat="38.0686367" lon="14.9141783"><ele>740.0</ele><time>2026-05-03T08:09:39.261Z</time></trkpt><trkpt lat="38.0686733" lon="14.9141033"><ele>740.0</ele><time>2026-05-03T08:09:40.261Z</time></trkpt><trkpt lat="38.0687117" lon="14.913975"><ele>745.0</ele><time>2026-05-03T08:09:42.261Z</time></trkpt><trkpt lat="38.0687183" lon="14.9138467"><ele>750.0</ele><time>2026-05-03T08:09:44.261Z</time></trkpt><trkpt lat="38.0687583" lon="14.9137383"><ele>755.0</ele><time>2026-05-03T08:09:46.261Z</time></trkpt><trkpt lat="38.0688667" lon="14.9137033"><ele>760.0</ele><time>2026-05-03T08:09:48.26Z</time></trkpt><trkpt lat="38.0689367" lon="14.913715"><ele>765.0</ele><time>2026-05-03T08:09:49.261Z</time></trkpt><trkpt lat="38.0690083" lon="14.9137383"><ele>765.0</ele><time>2026-05-03T08:09:50.261Z</time></trkpt><trkpt lat="38.0690733" lon="14.9137533"><ele>765.0</ele><time>2026-05-03T08:09:51.261Z</time></trkpt><trkpt lat="38.0691817" lon="14.9137133"><ele>765.0</ele><time>2026-05-03T08:09:53.261Z</time></trkpt><trkpt lat="38.0692383" lon="14.9136433"><ele>765.0</ele><time>2026-05-03T08:09:54.26Z</time></trkpt><trkpt lat="38.0693" lon="14.913545"><ele>765.0</ele><time>2026-05-03T08:09:55.261Z</time></trkpt><trkpt lat="38.06938" lon="14.91344"><ele>765.0</ele><time>2026-05-03T08:09:56.261Z</time></trkpt><trkpt lat="38.0694667" lon="14.9133517"><ele>765.0</ele><time>2026-05-03T08:09:57.261Z</time></trkpt><trkpt lat="38.0695317" lon="14.9132917"><ele>765.0</ele><time>2026-05-03T08:09:58.261Z</time></trkpt><trkpt lat="38.0694767" lon="14.9132517"><ele>765.0</ele><time>2026-05-03T08:10:03.261Z</time></trkpt><trkpt lat="38.06939" lon="14.9132817"><ele>765.0</ele><time>2026-05-03T08:10:05.261Z</time></trkpt><trkpt lat="38.0692867" lon="14.9133183"><ele>765.0</ele><time>2026-05-03T08:10:07.261Z</time></trkpt><trkpt lat="38.0691833" lon="14.9133667"><ele>765.0</ele><time>2026-05-03T08:10:09.261Z</time></trkpt><trkpt lat="38.0690948" lon="14.9133971"><ele>765.0</ele><time>2026-05-03T08:11:17.262Z</time></trkpt><trkpt lat="38.0689866" lon="14.9134388"><ele>765.0</ele><time>2026-05-03T08:11:19.262Z</time></trkpt><trkpt lat="38.0688692" lon="14.9134391"><ele>765.0</ele><time>2026-05-03T08:11:21.262Z</time></trkpt><trkpt lat="38.0687608" lon="14.9134113"><ele>765.0</ele><time>2026-05-03T08:11:23.262Z</time></trkpt><trkpt lat="38.0686611" lon="14.9134351"><ele>765.0</ele><time>2026-05-03T08:11:25.262Z</time></trkpt><trkpt lat="38.0685664" lon="14.9135149"><ele>765.0</ele><time>2026-05-03T08:11:27.261Z</time></trkpt><trkpt lat="38.0685023" lon="14.9135946"><ele>765.0</ele><time>2026-05-03T08:11:29.262Z</time></trkpt><trkpt lat="38.0684628" lon="14.9136913"><ele>765.0</ele><time>2026-05-03T08:11:31.262Z</time></trkpt><trkpt lat="38.0684533" lon="14.9138195"><ele>765.0</ele><time>2026-05-03T08:11:33.261Z</time></trkpt><trkpt lat="38.0684291" lon="14.913901"><ele>765.0</ele><time>2026-05-03T08:11:35.262Z</time></trkpt><trkpt lat="38.0683691" lon="14.9139992"><ele>765.0</ele><time>2026-05-03T08:12:06.262Z</time></trkpt><trkpt lat="38.0682986" lon="14.9140728"><ele>765.0</ele><time>2026-05-03T08:12:09.262Z</time></trkpt><trkpt lat="38.0682289" lon="14.9141406"><ele>765.0</ele><time>2026-05-03T08:12:12.262Z</time></trkpt><trkpt lat="38.0681668" lon="14.9141872"><ele>765.0</ele><time>2026-05-03T08:12:14.262Z</time></trkpt><trkpt lat="38.0681104" lon="14.9142303"><ele>766.3333333333334</ele><time>2026-05-03T08:12:16.262Z</time></trkpt><trkpt lat="38.0680339" lon="14.9142834"><ele>767.6666666666667</ele><time>2026-05-03T08:12:19.262Z</time></trkpt><trkpt lat="38.0679822" lon="14.9143541"><ele>769.0</ele><time>2026-05-03T08:12:23.262Z</time></trkpt><trkpt lat="38.0679921" lon="14.9144501"><ele>770.3333333333334</ele><time>2026-05-03T08:12:27.262Z</time></trkpt><trkpt lat="38.0680009" lon="14.9145411"><ele>771.6666666666667</ele><time>2026-05-03T08:13:43.262Z</time></trkpt><trkpt lat="38.0679316" lon="14.9146053"><ele>773.0</ele><time>2026-05-03T08:13:54.262Z</time></trkpt><trkpt lat="38.0678732" lon="14.914647"><ele>773.0000000000001</ele><time>2026-05-03T08:13:56.262Z</time></trkpt><trkpt lat="38.067775" lon="14.9146733"><ele>773.0</ele><time>2026-05-03T08:14:09.262Z</time></trkpt><trkpt lat="38.0676617" lon="14.9146967"><ele>773.0</ele><time>2026-05-03T08:14:11.262Z</time></trkpt><trkpt lat="38.0675767" lon="14.9147333"><ele>773.0</ele><time>2026-05-03T08:14:13.262Z</time></trkpt><trkpt lat="38.0675233" lon="14.9147833"><ele>773.0000000000001</ele><time>2026-05-03T08:14:15.262Z</time></trkpt><trkpt lat="38.06751" lon="14.914875"><ele>773.0</ele><time>2026-05-03T08:14:48.262Z</time></trkpt><trkpt lat="38.0675517" lon="14.9150117"><ele>771.1666666666667</ele><time>2026-05-03T08:14:50.262Z</time></trkpt><trkpt lat="38.0675683" lon="14.9150983"><ele>769.3333333333334</ele><time>2026-05-03T08:14:51.262Z</time></trkpt><trkpt lat="38.0675833" lon="14.91518"><ele>767.5</ele><time>2026-05-03T08:14:52.262Z</time></trkpt><trkpt lat="38.06758" lon="14.9153"><ele>765.6666666666667</ele><time>2026-05-03T08:14:54.262Z</time></trkpt><trkpt lat="38.067555" lon="14.9154"><ele>763.8333333333334</ele><time>2026-05-03T08:14:56.262Z</time></trkpt><trkpt lat="38.067495" lon="14.9155067"><ele>762.0</ele><time>2026-05-03T08:14:58.262Z</time></trkpt><trkpt lat="38.0674233" lon="14.9156033"><ele>762.0</ele><time>2026-05-03T08:15:00.262Z</time></trkpt><trkpt lat="38.0673867" lon="14.9156767"><ele>762.0</ele><time>2026-05-03T08:15:02.262Z</time></trkpt><trkpt lat="38.06742" lon="14.915775"><ele>762.0</ele><time>2026-05-03T08:15:05.262Z</time></trkpt><trkpt lat="38.0674733" lon="14.9158283"><ele>762.0</ele><time>2026-05-03T08:15:07.262Z</time></trkpt><trkpt lat="38.0675417" lon="14.9158567"><ele>762.0</ele><time>2026-05-03T08:15:09.262Z</time></trkpt><trkpt lat="38.0676267" lon="14.9158683"><ele>762.0</ele><time>2026-05-03T08:15:11.262Z</time></trkpt><trkpt lat="38.0677067" lon="14.915875"><ele>762.6</ele><time>2026-05-03T08:15:13.262Z</time></trkpt><trkpt lat="38.0677783" lon="14.9159367"><ele>763.2</ele><time>2026-05-03T08:15:15.262Z</time></trkpt><trkpt lat="38.06784" lon="14.91602"><ele>763.8</ele><time>2026-05-03T08:15:17.262Z</time></trkpt><trkpt lat="38.067925" lon="14.916125"><ele>764.4</ele><time>2026-05-03T08:15:19.262Z</time></trkpt><trkpt lat="38.0679867" lon="14.916215"><ele>765.0</ele><time>2026-05-03T08:15:21.262Z</time></trkpt><trkpt lat="38.0679867" lon="14.9162967"><ele>765.0</ele><time>2026-05-03T08:15:23.262Z</time></trkpt><trkpt lat="38.0679467" lon="14.916365"><ele>765.0</ele><time>2026-05-03T08:15:25.262Z</time></trkpt><trkpt lat="38.0679017" lon="14.916445"><ele>765.0</ele><time>2026-05-03T08:15:27.261Z</time></trkpt><trkpt lat="38.0678733" lon="14.916525"><ele>765.0</ele><time>2026-05-03T08:15:29.262Z</time></trkpt><trkpt lat="38.0678917" lon="14.9166233"><ele>765.0</ele><time>2026-05-03T08:15:33.262Z</time></trkpt><trkpt lat="38.06795" lon="14.91671"><ele>765.0</ele><time>2026-05-03T08:15:35.261Z</time></trkpt><trkpt lat="38.0680117" lon="14.9168033"><ele>762.3333333333334</ele><time>2026-05-03T08:15:37.262Z</time></trkpt><trkpt lat="38.0680217" lon="14.91691"><ele>759.6666666666666</ele><time>2026-05-03T08:15:39.262Z</time></trkpt><trkpt lat="38.0679717" lon="14.9170117"><ele>757.0</ele><time>2026-05-03T08:15:41.262Z</time></trkpt><trkpt lat="38.067915" lon="14.917085"><ele>754.3333333333333</ele><time>2026-05-03T08:15:43.262Z</time></trkpt><trkpt lat="38.06787" lon="14.9171583"><ele>751.6666666666666</ele><time>2026-05-03T08:15:45.262Z</time></trkpt><trkpt lat="38.06782" lon="14.91723"><ele>749.0</ele><time>2026-05-03T08:15:48.262Z</time></trkpt><trkpt lat="38.0678867" lon="14.9171783"><ele>749.0</ele><time>2026-05-03T08:16:27.262Z</time></trkpt><trkpt lat="38.0679383" lon="14.9171217"><ele>749.0</ele><time>2026-05-03T08:16:29.262Z</time></trkpt><trkpt lat="38.068015" lon="14.9170583"><ele>749.0</ele><time>2026-05-03T08:16:32.262Z</time></trkpt><trkpt lat="38.068075" lon="14.9169983"><ele>749.0</ele><time>2026-05-03T08:16:34.262Z</time></trkpt><trkpt lat="38.0681417" lon="14.916935"><ele>749.0</ele><time>2026-05-03T08:16:36.262Z</time></trkpt><trkpt lat="38.068225" lon="14.9168783"><ele>749.0</ele><time>2026-05-03T08:16:38.262Z</time></trkpt><trkpt lat="38.06829" lon="14.9168233"><ele>744.4000000000001</ele><time>2026-05-03T08:16:40.262Z</time></trkpt><trkpt lat="38.06834" lon="14.9167517"><ele>739.8</ele><time>2026-05-03T08:16:42.262Z</time></trkpt><trkpt lat="38.0684167" lon="14.91667"><ele>735.2</ele><time>2026-05-03T08:16:44.261Z</time></trkpt><trkpt lat="38.0685133" lon="14.9165783"><ele>730.5999999999999</ele><time>2026-05-03T08:16:46.262Z</time></trkpt><trkpt lat="38.0685817" lon="14.9164933"><ele>726.0</ele><time>2026-05-03T08:16:48.262Z</time></trkpt><trkpt lat="38.06861" lon="14.9164117"><ele>726.0</ele><time>2026-05-03T08:16:50.261Z</time></trkpt><trkpt lat="38.06862" lon="14.9163033"><ele>726.0</ele><time>2026-05-03T08:16:52.262Z</time></trkpt><trkpt lat="38.0686733" lon="14.9162433"><ele>726.0</ele><time>2026-05-03T08:16:55.262Z</time></trkpt><trkpt lat="38.0687083" lon="14.916325"><ele>726.0</ele><time>2026-05-03T08:16:57.262Z</time></trkpt><trkpt lat="38.068725" lon="14.9164083"><ele>726.0</ele><time>2026-05-03T08:16:59.263Z</time></trkpt><trkpt lat="38.0687567" lon="14.9165217"><ele>726.0</ele><time>2026-05-03T08:17:02.263Z</time></trkpt><trkpt lat="38.0687917" lon="14.9165983"><ele>726.0</ele><time>2026-05-03T08:17:04.263Z</time></trkpt><trkpt lat="38.068845" lon="14.9166767"><ele>726.0</ele><time>2026-05-03T08:17:06.263Z</time></trkpt><trkpt lat="38.06889" lon="14.916745"><ele>726.0</ele><time>2026-05-03T08:17:08.263Z</time></trkpt><trkpt lat="38.0689383" lon="14.9168183"><ele>726.0</ele><time>2026-05-03T08:17:45.263Z</time></trkpt><trkpt lat="38.068895" lon="14.9167133"><ele>726.0</ele><time>2026-05-03T08:17:48.263Z</time></trkpt><trkpt lat="38.06882" lon="14.916595"><ele>726.0</ele><time>2026-05-03T08:17:50.263Z</time></trkpt><trkpt lat="38.068775" lon="14.9165117"><ele>726.0</ele><time>2026-05-03T08:17:51.263Z</time></trkpt><trkpt lat="38.0687383" lon="14.9164183"><ele>726.0</ele><time>2026-05-03T08:17:52.263Z</time></trkpt><trkpt lat="38.0687167" lon="14.9163367"><ele>726.0</ele><time>2026-05-03T08:17:53.263Z</time></trkpt><trkpt lat="38.0686717" lon="14.91621"><ele>726.0</ele><time>2026-05-03T08:17:55.263Z</time></trkpt><trkpt lat="38.0685967" lon="14.9162517"><ele>726.0</ele><time>2026-05-03T08:17:58.262Z</time></trkpt><trkpt lat="38.0685967" lon="14.91639"><ele>725.9999999999999</ele><time>2026-05-03T08:18:00.262Z</time></trkpt><trkpt lat="38.0686083" lon="14.9164817"><ele>726.0</ele><time>2026-05-03T08:18:03.263Z</time></trkpt><trkpt lat="38.068625" lon="14.9165833"><ele>726.0</ele><time>2026-05-03T08:18:06.263Z</time></trkpt><trkpt lat="38.068615" lon="14.9166733"><ele>726.0</ele><time>2026-05-03T08:18:09.262Z</time></trkpt><trkpt lat="38.068625" lon="14.9167783"><ele>726.0</ele><time>2026-05-03T08:18:12.263Z</time></trkpt><trkpt lat="38.06864" lon="14.9168717"><ele>725.9999999999999</ele><time>2026-05-03T08:18:15.262Z</time></trkpt><trkpt lat="38.0686367" lon="14.9169533"><ele>726.0</ele><time>2026-05-03T08:18:18.263Z</time></trkpt><trkpt lat="38.06861" lon="14.91703"><ele>725.0</ele><time>2026-05-03T08:18:22.263Z</time></trkpt><trkpt lat="38.0685667" lon="14.9171033"><ele>724.0</ele><time>2026-05-03T08:18:38.263Z</time></trkpt><trkpt lat="38.0685017" lon="14.9171483"><ele>723.0</ele><time>2026-05-03T08:18:42.263Z</time></trkpt><trkpt lat="38.0684383" lon="14.91718"><ele>722.0</ele><time>2026-05-03T08:18:44.263Z</time></trkpt><trkpt lat="38.0683733" lon="14.91722"><ele>721.0</ele><time>2026-05-03T08:18:46.263Z</time></trkpt><trkpt lat="38.0683" lon="14.9172883"><ele>720.0</ele><time>2026-05-03T08:18:48.263Z</time></trkpt><trkpt lat="38.0682367" lon="14.91739"><ele>723.8333333333334</ele><time>2026-05-03T08:18:50.263Z</time></trkpt><trkpt lat="38.06819" lon="14.91747"><ele>727.6666666666666</ele><time>2026-05-03T08:18:52.263Z</time></trkpt><trkpt lat="38.0681283" lon="14.9175467"><ele>731.5</ele><time>2026-05-03T08:18:55.263Z</time></trkpt><trkpt lat="38.06807" lon="14.9175983"><ele>735.3333333333333</ele><time>2026-05-03T08:21:11.263Z</time></trkpt><trkpt lat="38.06814" lon="14.9175917"><ele>739.1666666666666</ele><time>2026-05-03T08:21:39.263Z</time></trkpt><trkpt lat="38.068205" lon="14.9174983"><ele>743.0</ele><time>2026-05-03T08:21:42.263Z</time></trkpt><trkpt lat="38.0682667" lon="14.9174167"><ele>739.1666666666666</ele><time>2026-05-03T08:21:44.263Z</time></trkpt><trkpt lat="38.0683067" lon="14.9173533"><ele>735.3333333333333</ele><time>2026-05-03T08:21:46.263Z</time></trkpt><trkpt lat="38.0683633" lon="14.9172838"><ele>731.5</ele><time>2026-05-03T08:21:48.262Z</time></trkpt><trkpt lat="38.068433" lon="14.91724"><ele>727.6666666666666</ele><time>2026-05-03T08:21:50.263Z</time></trkpt><trkpt lat="38.0685085" lon="14.9171783"><ele>723.8333333333334</ele><time>2026-05-03T08:21:52.262Z</time></trkpt><trkpt lat="38.0685776" lon="14.9171266"><ele>720.0</ele><time>2026-05-03T08:21:54.263Z</time></trkpt><trkpt lat="38.0686193" lon="14.9170471"><ele>720.0</ele><time>2026-05-03T08:21:56.263Z</time></trkpt><trkpt lat="38.068639" lon="14.9169161"><ele>720.0</ele><time>2026-05-03T08:21:58.263Z</time></trkpt><trkpt lat="38.068578" lon="14.9168895"><ele>720.0</ele><time>2026-05-03T08:22:04.263Z</time></trkpt><trkpt lat="38.0685067" lon="14.9169417"><ele>720.0</ele><time>2026-05-03T08:22:06.263Z</time></trkpt><trkpt lat="38.068415" lon="14.9169717"><ele>720.0</ele><time>2026-05-03T08:22:08.263Z</time></trkpt><trkpt lat="38.0683267" lon="14.9169967"><ele>720.0</ele><time>2026-05-03T08:22:10.263Z</time></trkpt><trkpt lat="38.0684067" lon="14.91699"><ele>720.0</ele><time>2026-05-03T08:23:04.263Z</time></trkpt><trkpt lat="38.0684833" lon="14.9169717"><ele>720.0</ele><time>2026-05-03T08:23:08.262Z</time></trkpt><trkpt lat="38.0685483" lon="14.916935"><ele>720.0</ele><time>2026-05-03T08:23:12.263Z</time></trkpt><trkpt lat="38.06861" lon="14.9168783"><ele>720.0</ele><time>2026-05-03T08:23:15.263Z</time></trkpt><trkpt lat="38.068635" lon="14.9167583"><ele>720.0</ele><time>2026-05-03T08:23:31.263Z</time></trkpt><trkpt lat="38.0686367" lon="14.9166267"><ele>720.0</ele><time>2026-05-03T08:23:33.263Z</time></trkpt><trkpt lat="38.06862" lon="14.9165133"><ele>721.0</ele><time>2026-05-03T08:23:35.263Z</time></trkpt><trkpt lat="38.0685817" lon="14.9164417"><ele>722.0</ele><time>2026-05-03T08:23:37.263Z</time></trkpt><trkpt lat="38.068515" lon="14.9164783"><ele>723.0</ele><time>2026-05-03T08:23:39.263Z</time></trkpt><trkpt lat="38.0684483" lon="14.91655"><ele>724.0</ele><time>2026-05-03T08:23:41.263Z</time></trkpt><trkpt lat="38.0683717" lon="14.9166217"><ele>725.0</ele><time>2026-05-03T08:23:43.263Z</time></trkpt><trkpt lat="38.0683033" lon="14.9167233"><ele>726.0</ele><time>2026-05-03T08:23:45.263Z</time></trkpt><trkpt lat="38.0682517" lon="14.9168033"><ele>730.5999999999999</ele><time>2026-05-03T08:23:47.263Z</time></trkpt><trkpt lat="38.068175" lon="14.9168583"><ele>735.2</ele><time>2026-05-03T08:23:49.263Z</time></trkpt><trkpt lat="38.0680833" lon="14.9169783"><ele>739.8</ele><time>2026-05-03T08:23:51.263Z</time></trkpt><trkpt lat="38.06803" lon="14.9170533"><ele>744.4000000000001</ele><time>2026-05-03T08:23:52.263Z</time></trkpt><trkpt lat="38.0679517" lon="14.9171167"><ele>749.0</ele><time>2026-05-03T08:23:54.263Z</time></trkpt><trkpt lat="38.0679467" lon="14.9170017"><ele>749.0</ele><time>2026-05-03T08:24:06.263Z</time></trkpt><trkpt lat="38.067995" lon="14.916855"><ele>749.0</ele><time>2026-05-03T08:24:08.263Z</time></trkpt><trkpt lat="38.0679617" lon="14.9166933"><ele>749.0</ele><time>2026-05-03T08:24:10.262Z</time></trkpt><trkpt lat="38.0679233" lon="14.9166217"><ele>749.0</ele><time>2026-05-03T08:24:11.263Z</time></trkpt><trkpt lat="38.0678417" lon="14.91655"><ele>749.0</ele><time>2026-05-03T08:24:13.263Z</time></trkpt><trkpt lat="38.06774" lon="14.9166067"><ele>749.0</ele><time>2026-05-03T08:24:15.263Z</time></trkpt><trkpt lat="38.067675" lon="14.9166667"><ele>749.0</ele><time>2026-05-03T08:24:16.263Z</time></trkpt><trkpt lat="38.0675967" lon="14.9167433"><ele>749.0</ele><time>2026-05-03T08:24:17.263Z</time></trkpt><trkpt lat="38.067525" lon="14.91682"><ele>749.0</ele><time>2026-05-03T08:24:18.263Z</time></trkpt><trkpt lat="38.0674733" lon="14.9168767"><ele>749.0</ele><time>2026-05-03T08:24:19.263Z</time></trkpt><trkpt lat="38.067425" lon="14.916955"><ele>749.0</ele><time>2026-05-03T08:24:21.262Z</time></trkpt><trkpt lat="38.0674717" lon="14.9168917"><ele>749.0</ele><time>2026-05-03T08:24:36.264Z</time></trkpt><trkpt lat="38.0675217" lon="14.9168117"><ele>749.0</ele><time>2026-05-03T08:24:38.264Z</time></trkpt><trkpt lat="38.0675833" lon="14.91675"><ele>749.0</ele><time>2026-05-03T08:24:40.264Z</time></trkpt><trkpt lat="38.067665" lon="14.9166967"><ele>749.0</ele><time>2026-05-03T08:24:43.264Z</time></trkpt><trkpt lat="38.0677217" lon="14.916645"><ele>749.0</ele><time>2026-05-03T08:24:45.264Z</time></trkpt><trkpt lat="38.0677833" lon="14.9166"><ele>749.0</ele><time>2026-05-03T08:24:47.264Z</time></trkpt><trkpt lat="38.0678567" lon="14.91652"><ele>751.6666666666666</ele><time>2026-05-03T08:24:49.264Z</time></trkpt><trkpt lat="38.0678933" lon="14.91645"><ele>754.3333333333333</ele><time>2026-05-03T08:24:50.264Z</time></trkpt><trkpt lat="38.0679317" lon="14.9163733"><ele>757.0</ele><time>2026-05-03T08:24:51.264Z</time></trkpt><trkpt lat="38.0679767" lon="14.91625"><ele>759.6666666666666</ele><time>2026-05-03T08:24:53.264Z</time></trkpt><trkpt lat="38.0679767" lon="14.9161633"><ele>762.3333333333334</ele><time>2026-05-03T08:24:56.264Z</time></trkpt><trkpt lat="38.0679133" lon="14.9161017"><ele>765.0</ele><time>2026-05-03T08:24:59.264Z</time></trkpt><trkpt lat="38.0678667" lon="14.916045"><ele>765.0000000000001</ele><time>2026-05-03T08:25:01.264Z</time></trkpt><trkpt lat="38.06783" lon="14.9159767"><ele>765.0</ele><time>2026-05-03T08:25:03.264Z</time></trkpt><trkpt lat="38.0677917" lon="14.9159083"><ele>765.0</ele><time>2026-05-03T08:25:05.264Z</time></trkpt><trkpt lat="38.0677217" lon="14.9158717"><ele>765.0</ele><time>2026-05-03T08:25:07.264Z</time></trkpt><trkpt lat="38.0676183" lon="14.91587"><ele>765.0</ele><time>2026-05-03T08:25:09.264Z</time></trkpt><trkpt lat="38.067555" lon="14.9158583"><ele>765.0000000000001</ele><time>2026-05-03T08:25:10.264Z</time></trkpt><trkpt lat="38.0674883" lon="14.9158283"><ele>765.0</ele><time>2026-05-03T08:25:11.264Z</time></trkpt><trkpt lat="38.06743" lon="14.9157867"><ele>764.4</ele><time>2026-05-03T08:25:12.264Z</time></trkpt><trkpt lat="38.0673733" lon="14.9156967"><ele>763.8</ele><time>2026-05-03T08:25:14.264Z</time></trkpt><trkpt lat="38.0673967" lon="14.9155983"><ele>763.2</ele><time>2026-05-03T08:25:16.264Z</time></trkpt><trkpt lat="38.067475" lon="14.9154317"><ele>762.6</ele><time>2026-05-03T08:25:18.264Z</time></trkpt><trkpt lat="38.0675233" lon="14.9153333"><ele>762.0</ele><time>2026-05-03T08:25:19.264Z</time></trkpt><trkpt lat="38.0675633" lon="14.9152633"><ele>762.0</ele><time>2026-05-03T08:25:20.264Z</time></trkpt><trkpt lat="38.067575" lon="14.91513"><ele>762.0</ele><time>2026-05-03T08:25:22.264Z</time></trkpt><trkpt lat="38.067565" lon="14.9150183"><ele>762.0</ele><time>2026-05-03T08:25:24.263Z</time></trkpt><trkpt lat="38.06754" lon="14.9148917"><ele>762.0</ele><time>2026-05-03T08:25:26.264Z</time></trkpt><trkpt lat="38.0675033" lon="14.9148267"><ele>762.0</ele><time>2026-05-03T08:25:28.264Z</time></trkpt><trkpt lat="38.0674683" lon="14.9149"><ele>762.0</ele><time>2026-05-03T08:25:30.264Z</time></trkpt><trkpt lat="38.0674433" lon="14.9149933"><ele>768.3333333333334</ele><time>2026-05-03T08:25:31.264Z</time></trkpt><trkpt lat="38.0674117" lon="14.9151083"><ele>774.6666666666667</ele><time>2026-05-03T08:25:32.263Z</time></trkpt><trkpt lat="38.0673633" lon="14.9152083"><ele>781.0</ele><time>2026-05-03T08:25:33.264Z</time></trkpt><trkpt lat="38.0673017" lon="14.915285"><ele>787.3333333333334</ele><time>2026-05-03T08:25:34.264Z</time></trkpt><trkpt lat="38.067235" lon="14.91534"><ele>793.6666666666667</ele><time>2026-05-03T08:25:35.264Z</time></trkpt><trkpt lat="38.0671633" lon="14.9153867"><ele>800.0</ele><time>2026-05-03T08:25:36.264Z</time></trkpt><trkpt lat="38.06709" lon="14.9154367"><ele>800.0000000000001</ele><time>2026-05-03T08:25:37.264Z</time></trkpt><trkpt lat="38.0670133" lon="14.9154833"><ele>800.0</ele><time>2026-05-03T08:25:38.264Z</time></trkpt><trkpt lat="38.0669367" lon="14.9155183"><ele>800.0</ele><time>2026-05-03T08:25:39.264Z</time></trkpt><trkpt lat="38.0668767" lon="14.915545"><ele>800.0</ele><time>2026-05-03T08:25:40.264Z</time></trkpt><trkpt lat="38.066805" lon="14.9155683"><ele>800.0000000000001</ele><time>2026-05-03T08:25:42.264Z</time></trkpt><trkpt lat="38.0667245" lon="14.9155678"><ele>800.0</ele><time>2026-05-03T08:26:45.264Z</time></trkpt><trkpt lat="38.0666521" lon="14.9155502"><ele>800.0000000000001</ele><time>2026-05-03T08:26:48.264Z</time></trkpt><trkpt lat="38.0666639" lon="14.915445"><ele>800.0</ele><time>2026-05-03T08:26:50.264Z</time></trkpt><trkpt lat="38.0667169" lon="14.9153877"><ele>800.0</ele><time>2026-05-03T08:26:51.264Z</time></trkpt><trkpt lat="38.0667732" lon="14.9153299"><ele>800.0</ele><time>2026-05-03T08:26:52.264Z</time></trkpt><trkpt lat="38.0668294" lon="14.9152579"><ele>800.0000000000001</ele><time>2026-05-03T08:26:53.264Z</time></trkpt><trkpt lat="38.0668707" lon="14.9151745"><ele>800.0</ele><time>2026-05-03T08:26:54.264Z</time></trkpt><trkpt lat="38.0669047" lon="14.9150737"><ele>802.2</ele><time>2026-05-03T08:26:55.263Z</time></trkpt><trkpt lat="38.0669191" lon="14.9149449"><ele>804.4</ele><time>2026-05-03T08:26:56.264Z</time></trkpt><trkpt lat="38.0669197" lon="14.9148046"><ele>806.5999999999999</ele><time>2026-05-03T08:26:57.264Z</time></trkpt><trkpt lat="38.0669217" lon="14.9146704"><ele>808.8</ele><time>2026-05-03T08:26:58.264Z</time></trkpt><trkpt lat="38.066922" lon="14.9145548"><ele>811.0</ele><time>2026-05-03T08:26:59.264Z</time></trkpt><trkpt lat="38.0669228" lon="14.9144487"><ele>810.9999999999999</ele><time>2026-05-03T08:27:00.264Z</time></trkpt><trkpt lat="38.0669346" lon="14.9143429"><ele>811.0</ele><time>2026-05-03T08:27:01.263Z</time></trkpt><trkpt lat="38.0669509" lon="14.9142392"><ele>811.0</ele><time>2026-05-03T08:27:02.263Z</time></trkpt><trkpt lat="38.0669835" lon="14.9141464"><ele>811.0</ele><time>2026-05-03T08:27:03.264Z</time></trkpt><trkpt lat="38.0670298" lon="14.9140622"><ele>810.9999999999999</ele><time>2026-05-03T08:27:04.264Z</time></trkpt><trkpt lat="38.0670793" lon="14.9139852"><ele>811.0</ele><time>2026-05-03T08:27:05.264Z</time></trkpt><trkpt lat="38.067145" lon="14.9139075"><ele>813.1666666666666</ele><time>2026-05-03T08:27:07.264Z</time></trkpt><trkpt lat="38.0672251" lon="14.9138705"><ele>815.3333333333333</ele><time>2026-05-03T08:27:09.264Z</time></trkpt><trkpt lat="38.0672823" lon="14.9138132"><ele>817.5</ele><time>2026-05-03T08:27:11.264Z</time></trkpt><trkpt lat="38.0672751" lon="14.9136943"><ele>819.6666666666667</ele><time>2026-05-03T08:27:13.264Z</time></trkpt><trkpt lat="38.0672685" lon="14.913546"><ele>821.8333333333334</ele><time>2026-05-03T08:27:15.264Z</time></trkpt><trkpt lat="38.0672708" lon="14.9134579"><ele>824.0</ele><time>2026-05-03T08:27:17.264Z</time></trkpt><trkpt lat="38.0672961" lon="14.9133715"><ele>822.6666666666667</ele><time>2026-05-03T08:27:19.264Z</time></trkpt><trkpt lat="38.0673338" lon="14.9132495"><ele>821.3333333333334</ele><time>2026-05-03T08:27:28.263Z</time></trkpt><trkpt lat="38.0673635" lon="14.9131711"><ele>820.0</ele><time>2026-05-03T08:27:29.263Z</time></trkpt><trkpt lat="38.0674078" lon="14.9130904"><ele>818.6666666666667</ele><time>2026-05-03T08:27:30.264Z</time></trkpt><trkpt lat="38.0674524" lon="14.9130214"><ele>817.3333333333334</ele><time>2026-05-03T08:27:31.264Z</time></trkpt><trkpt lat="38.0674849" lon="14.9129522"><ele>816.0</ele><time>2026-05-03T08:27:32.264Z</time></trkpt><trkpt lat="38.0674093" lon="14.9128987"><ele>821.4</ele><time>2026-05-03T08:27:35.263Z</time></trkpt><trkpt lat="38.0673307" lon="14.9129369"><ele>826.8</ele><time>2026-05-03T08:27:36.264Z</time></trkpt><trkpt lat="38.0672363" lon="14.9129861"><ele>832.1999999999999</ele><time>2026-05-03T08:27:37.264Z</time></trkpt><trkpt lat="38.0671312" lon="14.913039"><ele>837.5999999999999</ele><time>2026-05-03T08:27:38.264Z</time></trkpt><trkpt lat="38.0670322" lon="14.9130761"><ele>843.0</ele><time>2026-05-03T08:27:39.264Z</time></trkpt><trkpt lat="38.0669468" lon="14.913102"><ele>843.0</ele><time>2026-05-03T08:27:40.264Z</time></trkpt><trkpt lat="38.0668812" lon="14.9131373"><ele>843.0</ele><time>2026-05-03T08:27:41.263Z</time></trkpt><trkpt lat="38.0667974" lon="14.913238"><ele>843.0</ele><time>2026-05-03T08:27:43.264Z</time></trkpt><trkpt lat="38.0667405" lon="14.9132799"><ele>843.0</ele><time>2026-05-03T08:27:45.264Z</time></trkpt><trkpt lat="38.0667341" lon="14.9131965"><ele>843.0</ele><time>2026-05-03T08:27:47.264Z</time></trkpt><trkpt lat="38.0667575" lon="14.9131068"><ele>843.0</ele><time>2026-05-03T08:27:48.264Z</time></trkpt><trkpt lat="38.0667872" lon="14.9130053"><ele>843.0</ele><time>2026-05-03T08:27:49.264Z</time></trkpt><trkpt lat="38.066828" lon="14.9128973"><ele>843.0</ele><time>2026-05-03T08:27:50.264Z</time></trkpt><trkpt lat="38.066876" lon="14.9127814"><ele>843.0</ele><time>2026-05-03T08:27:51.264Z</time></trkpt><trkpt lat="38.0669447" lon="14.9126664"><ele>843.0</ele><time>2026-05-03T08:27:52.264Z</time></trkpt><trkpt lat="38.0669915" lon="14.9125784"><ele>843.0</ele><time>2026-05-03T08:27:53.264Z</time></trkpt><trkpt lat="38.0670475" lon="14.9124994"><ele>846.5</ele><time>2026-05-03T08:27:54.264Z</time></trkpt><trkpt lat="38.0670931" lon="14.9124329"><ele>850.0</ele><time>2026-05-03T08:27:55.264Z</time></trkpt><trkpt lat="38.0671208" lon="14.9123101"><ele>853.5</ele><time>2026-05-03T08:27:57.264Z</time></trkpt><trkpt lat="38.067058" lon="14.9122996"><ele>857.0</ele><time>2026-05-03T08:27:59.264Z</time></trkpt><trkpt lat="38.0669963" lon="14.9123491"><ele>860.5</ele><time>2026-05-03T08:28:00.264Z</time></trkpt><trkpt lat="38.0669165" lon="14.9124219"><ele>864.0</ele><time>2026-05-03T08:28:01.264Z</time></trkpt><trkpt lat="38.0668478" lon="14.9124778"><ele>864.0</ele><time>2026-05-03T08:28:02.264Z</time></trkpt><trkpt lat="38.0668731" lon="14.9123559"><ele>864.0000000000001</ele><time>2026-05-03T08:28:06.264Z</time></trkpt><trkpt lat="38.0669443" lon="14.9122467"><ele>864.0000000000001</ele><time>2026-05-03T08:28:07.264Z</time></trkpt><trkpt lat="38.0669978" lon="14.9121473"><ele>864.0</ele><time>2026-05-03T08:28:08.264Z</time></trkpt><trkpt lat="38.0670221" lon="14.9120673"><ele>864.0</ele><time>2026-05-03T08:28:09.264Z</time></trkpt><trkpt lat="38.0669433" lon="14.9120606"><ele>864.0</ele><time>2026-05-03T08:28:12.264Z</time></trkpt><trkpt lat="38.0668915" lon="14.912116"><ele>864.0</ele><time>2026-05-03T08:28:13.264Z</time></trkpt><trkpt lat="38.0667906" lon="14.9122335"><ele>864.0</ele><time>2026-05-03T08:28:15.264Z</time></trkpt><trkpt lat="38.0667376" lon="14.9122959"><ele>864.0</ele><time>2026-05-03T08:28:16.264Z</time></trkpt><trkpt lat="38.0666795" lon="14.9123319"><ele>864.0</ele><time>2026-05-03T08:28:18.264Z</time></trkpt><trkpt lat="38.0666658" lon="14.912228"><ele>864.0</ele><time>2026-05-03T08:29:05.264Z</time></trkpt><trkpt lat="38.0666949" lon="14.9121515"><ele>864.0</ele><time>2026-05-03T08:29:06.264Z</time></trkpt><trkpt lat="38.066752" lon="14.9120653"><ele>864.0</ele><time>2026-05-03T08:29:07.264Z</time></trkpt><trkpt lat="38.0668237" lon="14.9119587"><ele>864.0</ele><time>2026-05-03T08:29:08.264Z</time></trkpt><trkpt lat="38.0668877" lon="14.911828"><ele>864.0</ele><time>2026-05-03T08:29:09.264Z</time></trkpt><trkpt lat="38.0669345" lon="14.9116747"><ele>866.8000000000001</ele><time>2026-05-03T08:29:10.264Z</time></trkpt><trkpt lat="38.0669644" lon="14.9115208"><ele>869.6000000000001</ele><time>2026-05-03T08:29:11.264Z</time></trkpt><trkpt lat="38.0669887" lon="14.9113859"><ele>872.4</ele><time>2026-05-03T08:29:12.263Z</time></trkpt><trkpt lat="38.0670055" lon="14.9112902"><ele>875.2</ele><time>2026-05-03T08:29:13.264Z</time></trkpt><trkpt lat="38.0670331" lon="14.9111341"><ele>878.0</ele><time>2026-05-03T08:29:15.264Z</time></trkpt><trkpt lat="38.0670621" lon="14.911056"><ele>878.0</ele><time>2026-05-03T08:29:16.264Z</time></trkpt><trkpt lat="38.0671157" lon="14.9109312"><ele>878.0</ele><time>2026-05-03T08:29:18.264Z</time></trkpt><trkpt lat="38.0670035" lon="14.9110381"><ele>878.0</ele><time>2026-05-03T08:29:23.264Z</time></trkpt><trkpt lat="38.0669271" lon="14.9111369"><ele>878.0</ele><time>2026-05-03T08:29:24.264Z</time></trkpt><trkpt lat="38.0668304" lon="14.9112507"><ele>878.0</ele><time>2026-05-03T08:29:25.264Z</time></trkpt><trkpt lat="38.0667249" lon="14.911375"><ele>878.0</ele><time>2026-05-03T08:29:26.264Z</time></trkpt><trkpt lat="38.0666158" lon="14.9114915"><ele>878.0</ele><time>2026-05-03T08:29:27.264Z</time></trkpt><trkpt lat="38.0665193" lon="14.9116003"><ele>878.0</ele><time>2026-05-03T08:29:28.264Z</time></trkpt><trkpt lat="38.0664189" lon="14.9116981"><ele>879.25</ele><time>2026-05-03T08:29:29.264Z</time></trkpt><trkpt lat="38.0663283" lon="14.9117955"><ele>880.5</ele><time>2026-05-03T08:29:30.264Z</time></trkpt><trkpt lat="38.0662377" lon="14.9118998"><ele>881.75</ele><time>2026-05-03T08:29:31.264Z</time></trkpt><trkpt lat="38.0661546" lon="14.9119904"><ele>883.0</ele><time>2026-05-03T08:29:32.264Z</time></trkpt><trkpt lat="38.0660756" lon="14.9120848"><ele>883.0</ele><time>2026-05-03T08:29:33.264Z</time></trkpt><trkpt lat="38.0660055" lon="14.912174"><ele>883.0</ele><time>2026-05-03T08:29:34.264Z</time></trkpt><trkpt lat="38.0659358" lon="14.9122565"><ele>883.0</ele><time>2026-05-03T08:29:35.264Z</time></trkpt><trkpt lat="38.065866" lon="14.9123394"><ele>883.0</ele><time>2026-05-03T08:29:36.264Z</time></trkpt><trkpt lat="38.0657938" lon="14.9124239"><ele>883.0</ele><time>2026-05-03T08:29:37.264Z</time></trkpt><trkpt lat="38.0657225" lon="14.9124969"><ele>884.8</ele><time>2026-05-03T08:29:38.263Z</time></trkpt><trkpt lat="38.0656574" lon="14.9125789"><ele>886.5999999999999</ele><time>2026-05-03T08:29:39.264Z</time></trkpt><trkpt lat="38.0655965" lon="14.9126576"><ele>888.4000000000001</ele><time>2026-05-03T08:29:40.264Z</time></trkpt><trkpt lat="38.0655302" lon="14.9127502"><ele>890.2</ele><time>2026-05-03T08:29:41.264Z</time></trkpt><trkpt lat="38.0654687" lon="14.9128414"><ele>892.0</ele><time>2026-05-03T08:29:42.264Z</time></trkpt><trkpt lat="38.0654143" lon="14.9129368"><ele>892.0</ele><time>2026-05-03T08:29:43.264Z</time></trkpt><trkpt lat="38.0653514" lon="14.913043"><ele>892.0</ele><time>2026-05-03T08:29:44.264Z</time></trkpt><trkpt lat="38.0652796" lon="14.9131524"><ele>892.0</ele><time>2026-05-03T08:29:45.264Z</time></trkpt><trkpt lat="38.0651988" lon="14.9132753"><ele>892.0</ele><time>2026-05-03T08:29:46.264Z</time></trkpt><trkpt lat="38.0651162" lon="14.9134067"><ele>893.5</ele><time>2026-05-03T08:29:47.264Z</time></trkpt><trkpt lat="38.0650289" lon="14.9135309"><ele>895.0</ele><time>2026-05-03T08:29:48.263Z</time></trkpt><trkpt lat="38.0649377" lon="14.9136441"><ele>896.5</ele><time>2026-05-03T08:29:49.264Z</time></trkpt><trkpt lat="38.0648404" lon="14.9137297"><ele>898.0</ele><time>2026-05-03T08:29:50.264Z</time></trkpt><trkpt lat="38.0647442" lon="14.9137774"><ele>901.8</ele><time>2026-05-03T08:29:51.264Z</time></trkpt><trkpt lat="38.0646494" lon="14.9137994"><ele>905.5999999999999</ele><time>2026-05-03T08:29:52.264Z</time></trkpt><trkpt lat="38.0645548" lon="14.913796"><ele>909.4000000000001</ele><time>2026-05-03T08:29:53.264Z</time></trkpt><trkpt lat="38.0644583" lon="14.9137724"><ele>913.2</ele><time>2026-05-03T08:29:54.264Z</time></trkpt><trkpt lat="38.0643727" lon="14.9137421"><ele>917.0</ele><time>2026-05-03T08:29:55.264Z</time></trkpt><trkpt lat="38.0642866" lon="14.9137259"><ele>917.0000000000001</ele><time>2026-05-03T08:29:56.264Z</time></trkpt><trkpt lat="38.0642005" lon="14.9137239"><ele>917.0</ele><time>2026-05-03T08:29:57.263Z</time></trkpt><trkpt lat="38.0641243" lon="14.9137462"><ele>917.0</ele><time>2026-05-03T08:29:58.264Z</time></trkpt><trkpt lat="38.0640553" lon="14.9137678"><ele>917.0</ele><time>2026-05-03T08:29:59.263Z</time></trkpt><trkpt lat="38.0639756" lon="14.9138437"><ele>917.0000000000001</ele><time>2026-05-03T08:30:01.264Z</time></trkpt><trkpt lat="38.063938" lon="14.9139312"><ele>917.0</ele><time>2026-05-03T08:30:03.264Z</time></trkpt><trkpt lat="38.06388" lon="14.91406"><ele>916.6666666666667</ele><time>2026-05-03T08:31:09.264Z</time></trkpt><trkpt lat="38.0638983" lon="14.91419"><ele>916.3333333333334</ele><time>2026-05-03T08:31:12.264Z</time></trkpt><trkpt lat="38.063935" lon="14.91427"><ele>916.0</ele><time>2026-05-03T08:31:13.264Z</time></trkpt><trkpt lat="38.0639833" lon="14.914355"><ele>915.6666666666667</ele><time>2026-05-03T08:31:14.264Z</time></trkpt><trkpt lat="38.0640367" lon="14.9144333"><ele>915.3333333333334</ele><time>2026-05-03T08:31:15.265Z</time></trkpt><trkpt lat="38.064085" lon="14.9145083"><ele>915.0</ele><time>2026-05-03T08:31:16.265Z</time></trkpt><trkpt lat="38.064125" lon="14.9145767"><ele>915.0</ele><time>2026-05-03T08:31:17.265Z</time></trkpt><trkpt lat="38.0641817" lon="14.9146483"><ele>915.0</ele><time>2026-05-03T08:31:18.265Z</time></trkpt><trkpt lat="38.064245" lon="14.914735"><ele>915.0</ele><time>2026-05-03T08:31:19.265Z</time></trkpt><trkpt lat="38.0643233" lon="14.9148617"><ele>915.0</ele><time>2026-05-03T08:31:20.265Z</time></trkpt><trkpt lat="38.06441" lon="14.9150133"><ele>915.0</ele><time>2026-05-03T08:31:21.265Z</time></trkpt><trkpt lat="38.064505" lon="14.9151617"><ele>915.75</ele><time>2026-05-03T08:31:22.265Z</time></trkpt><trkpt lat="38.064575" lon="14.9152967"><ele>916.5</ele><time>2026-05-03T08:31:23.265Z</time></trkpt><trkpt lat="38.0646217" lon="14.915435"><ele>917.25</ele><time>2026-05-03T08:31:24.265Z</time></trkpt><trkpt lat="38.0646567" lon="14.9155617"><ele>918.0</ele><time>2026-05-03T08:31:25.265Z</time></trkpt><trkpt lat="38.0646717" lon="14.91569"><ele>918.0</ele><time>2026-05-03T08:31:26.265Z</time></trkpt><trkpt lat="38.0646817" lon="14.9158117"><ele>918.0</ele><time>2026-05-03T08:31:27.265Z</time></trkpt><trkpt lat="38.0646917" lon="14.9159217"><ele>918.0</ele><time>2026-05-03T08:31:28.264Z</time></trkpt><trkpt lat="38.06472" lon="14.916"><ele>918.0</ele><time>2026-05-03T08:31:29.265Z</time></trkpt><trkpt lat="38.06476" lon="14.9160667"><ele>918.0</ele><time>2026-05-03T08:31:31.265Z</time></trkpt><trkpt lat="38.06481" lon="14.9161533"><ele>918.0</ele><time>2026-05-03T08:31:35.265Z</time></trkpt><trkpt lat="38.06485" lon="14.9162417"><ele>919.5</ele><time>2026-05-03T08:31:37.265Z</time></trkpt><trkpt lat="38.0648933" lon="14.916345"><ele>921.0</ele><time>2026-05-03T08:31:39.265Z</time></trkpt><trkpt lat="38.064905" lon="14.9164433"><ele>922.5</ele><time>2026-05-03T08:31:41.265Z</time></trkpt><trkpt lat="38.0649183" lon="14.91654"><ele>924.0</ele><time>2026-05-03T08:31:44.265Z</time></trkpt><trkpt lat="38.064995" lon="14.91656"><ele>925.5</ele><time>2026-05-03T08:31:47.265Z</time></trkpt><trkpt lat="38.0650567" lon="14.9164833"><ele>927.0</ele><time>2026-05-03T08:31:49.265Z</time></trkpt><trkpt lat="38.0650917" lon="14.91635"><ele>922.1666666666666</ele><time>2026-05-03T08:31:51.265Z</time></trkpt><trkpt lat="38.0651067" lon="14.9162367"><ele>917.3333333333333</ele><time>2026-05-03T08:31:53.265Z</time></trkpt><trkpt lat="38.0651567" lon="14.9161383"><ele>912.5</ele><time>2026-05-03T08:32:01.265Z</time></trkpt><trkpt lat="38.0652067" lon="14.9160817"><ele>907.6666666666666</ele><time>2026-05-03T08:32:03.265Z</time></trkpt><trkpt lat="38.0652317" lon="14.9159717"><ele>902.8333333333333</ele><time>2026-05-03T08:32:06.265Z</time></trkpt><trkpt lat="38.0651917" lon="14.9158867"><ele>898.0</ele><time>2026-05-03T08:32:08.264Z</time></trkpt><trkpt lat="38.0651567" lon="14.9158117"><ele>897.9999999999999</ele><time>2026-05-03T08:32:10.265Z</time></trkpt><trkpt lat="38.065145" lon="14.915715"><ele>898.0</ele><time>2026-05-03T08:32:13.265Z</time></trkpt><trkpt lat="38.0651417" lon="14.9158467"><ele>898.0</ele><time>2026-05-03T08:32:22.265Z</time></trkpt><trkpt lat="38.065185" lon="14.91597"><ele>898.0</ele><time>2026-05-03T08:32:24.265Z</time></trkpt><trkpt lat="38.0651933" lon="14.9160533"><ele>897.9999999999999</ele><time>2026-05-03T08:32:26.265Z</time></trkpt><trkpt lat="38.0651417" lon="14.9161017"><ele>898.0</ele><time>2026-05-03T08:32:28.264Z</time></trkpt><trkpt lat="38.06514" lon="14.9161883"><ele>897.9999999999999</ele><time>2026-05-03T08:32:35.265Z</time></trkpt><trkpt lat="38.065175" lon="14.9162667"><ele>898.0</ele><time>2026-05-03T08:32:37.265Z</time></trkpt><trkpt lat="38.0652" lon="14.916375"><ele>898.0</ele><time>2026-05-03T08:32:40.265Z</time></trkpt><trkpt lat="38.0652117" lon="14.916465"><ele>898.0</ele><time>2026-05-03T08:32:42.264Z</time></trkpt><trkpt lat="38.0652267" lon="14.9165433"><ele>897.9999999999999</ele><time>2026-05-03T08:32:44.265Z</time></trkpt><trkpt lat="38.06523" lon="14.91664"><ele>898.0</ele><time>2026-05-03T08:32:47.265Z</time></trkpt><trkpt lat="38.0653" lon="14.916575"><ele>897.9999999999999</ele><time>2026-05-03T08:33:00.264Z</time></trkpt><trkpt lat="38.06536" lon="14.9165017"><ele>898.0</ele><time>2026-05-03T08:33:03.265Z</time></trkpt><trkpt lat="38.0654017" lon="14.9163917"><ele>898.0</ele><time>2026-05-03T08:33:06.265Z</time></trkpt><trkpt lat="38.0654117" lon="14.9162783"><ele>898.0</ele><time>2026-05-03T08:33:09.265Z</time></trkpt><trkpt lat="38.0654217" lon="14.9161733"><ele>897.9999999999999</ele><time>2026-05-03T08:33:12.264Z</time></trkpt><trkpt lat="38.065435" lon="14.916085"><ele>898.0</ele><time>2026-05-03T08:33:15.265Z</time></trkpt><trkpt lat="38.0654183" lon="14.9159983"><ele>896.3333333333333</ele><time>2026-05-03T08:33:18.265Z</time></trkpt><trkpt lat="38.0653983" lon="14.9158883"><ele>894.6666666666666</ele><time>2026-05-03T08:33:21.265Z</time></trkpt><trkpt lat="38.065385" lon="14.9157783"><ele>893.0</ele><time>2026-05-03T08:33:24.265Z</time></trkpt><trkpt lat="38.065375" lon="14.9156667"><ele>891.3333333333333</ele><time>2026-05-03T08:33:27.265Z</time></trkpt><trkpt lat="38.0653867" lon="14.9155717"><ele>889.6666666666666</ele><time>2026-05-03T08:33:29.264Z</time></trkpt><trkpt lat="38.0653967" lon="14.9154683"><ele>888.0</ele><time>2026-05-03T08:33:31.265Z</time></trkpt><trkpt lat="38.06537" lon="14.915375"><ele>888.0</ele><time>2026-05-03T08:33:34.265Z</time></trkpt><trkpt lat="38.0653667" lon="14.9152033"><ele>888.0</ele><time>2026-05-03T08:35:43.265Z</time></trkpt><trkpt lat="38.0653867" lon="14.91529"><ele>888.0</ele><time>2026-05-03T08:35:45.265Z</time></trkpt><trkpt lat="38.0654017" lon="14.9154183"><ele>888.0</ele><time>2026-05-03T08:35:47.265Z</time></trkpt><trkpt lat="38.0653833" lon="14.9155433"><ele>888.0</ele><time>2026-05-03T08:35:49.265Z</time></trkpt><trkpt lat="38.0653833" lon="14.9157"><ele>888.0</ele><time>2026-05-03T08:35:51.265Z</time></trkpt><trkpt lat="38.0654067" lon="14.91585"><ele>888.0</ele><time>2026-05-03T08:35:53.265Z</time></trkpt><trkpt lat="38.065445" lon="14.9159767"><ele>888.0</ele><time>2026-05-03T08:35:55.265Z</time></trkpt><trkpt lat="38.0654567" lon="14.9160783"><ele>888.0</ele><time>2026-05-03T08:35:57.265Z</time></trkpt><trkpt lat="38.0654483" lon="14.9161983"><ele>888.0</ele><time>2026-05-03T08:35:59.265Z</time></trkpt><trkpt lat="38.0654317" lon="14.916325"><ele>889.6666666666666</ele><time>2026-05-03T08:36:01.265Z</time></trkpt><trkpt lat="38.0654017" lon="14.916455"><ele>891.3333333333333</ele><time>2026-05-03T08:36:03.265Z</time></trkpt><trkpt lat="38.0653617" lon="14.9165533"><ele>893.0</ele><time>2026-05-03T08:36:05.265Z</time></trkpt><trkpt lat="38.0653267" lon="14.9166233"><ele>894.6666666666666</ele><time>2026-05-03T08:36:07.265Z</time></trkpt><trkpt lat="38.06527" lon="14.9165783"><ele>896.3333333333333</ele><time>2026-05-03T08:36:12.265Z</time></trkpt><trkpt lat="38.0652383" lon="14.9164783"><ele>898.0</ele><time>2026-05-03T08:36:15.265Z</time></trkpt><trkpt lat="38.0652117" lon="14.9163967"><ele>897.9999999999999</ele><time>2026-05-03T08:36:18.265Z</time></trkpt><trkpt lat="38.0651767" lon="14.9163233"><ele>898.0</ele><time>2026-05-03T08:36:55.265Z</time></trkpt><trkpt lat="38.0651667" lon="14.9162267"><ele>898.0</ele><time>2026-05-03T08:36:58.265Z</time></trkpt><trkpt lat="38.06514" lon="14.9161517"><ele>898.0</ele><time>2026-05-03T08:37:01.265Z</time></trkpt><trkpt lat="38.065075" lon="14.91619"><ele>897.9999999999999</ele><time>2026-05-03T08:37:04.265Z</time></trkpt><trkpt lat="38.06506" lon="14.91629"><ele>898.0</ele><time>2026-05-03T08:37:06.265Z</time></trkpt><trkpt lat="38.065065" lon="14.9164183"><ele>897.9999999999999</ele><time>2026-05-03T08:37:08.265Z</time></trkpt><trkpt lat="38.0650533" lon="14.916525"><ele>898.0</ele><time>2026-05-03T08:37:10.265Z</time></trkpt><trkpt lat="38.0650183" lon="14.9166017"><ele>898.0</ele><time>2026-05-03T08:37:12.265Z</time></trkpt><trkpt lat="38.0649617" lon="14.9165533"><ele>898.0</ele><time>2026-05-03T08:37:27.266Z</time></trkpt><trkpt lat="38.0649383" lon="14.9164217"><ele>897.9999999999999</ele><time>2026-05-03T08:37:29.266Z</time></trkpt><trkpt lat="38.0649133" lon="14.916345"><ele>898.0</ele><time>2026-05-03T08:37:30.266Z</time></trkpt><trkpt lat="38.0648767" lon="14.91625"><ele>902.8333333333333</ele><time>2026-05-03T08:37:31.266Z</time></trkpt><trkpt lat="38.0648433" lon="14.9161617"><ele>907.6666666666666</ele><time>2026-05-03T08:37:32.266Z</time></trkpt><trkpt lat="38.0648067" lon="14.9160933"><ele>912.5</ele><time>2026-05-03T08:37:33.266Z</time></trkpt><trkpt lat="38.0647367" lon="14.916065"><ele>917.3333333333333</ele><time>2026-05-03T08:37:35.266Z</time></trkpt><trkpt lat="38.0647017" lon="14.916185"><ele>922.1666666666666</ele><time>2026-05-03T08:37:37.265Z</time></trkpt><trkpt lat="38.0646917" lon="14.91628"><ele>927.0</ele><time>2026-05-03T08:37:38.266Z</time></trkpt><trkpt lat="38.06468" lon="14.9163783"><ele>927.0</ele><time>2026-05-03T08:37:39.266Z</time></trkpt><trkpt lat="38.064665" lon="14.9164783"><ele>927.0</ele><time>2026-05-03T08:37:40.266Z</time></trkpt><trkpt lat="38.0646333" lon="14.9165933"><ele>927.0</ele><time>2026-05-03T08:37:41.266Z</time></trkpt><trkpt lat="38.06458" lon="14.9167133"><ele>927.0</ele><time>2026-05-03T08:37:42.266Z</time></trkpt><trkpt lat="38.064525" lon="14.9168433"><ele>927.0</ele><time>2026-05-03T08:37:43.266Z</time></trkpt><trkpt lat="38.0644683" lon="14.91698"><ele>925.5</ele><time>2026-05-03T08:37:44.266Z</time></trkpt><trkpt lat="38.0644133" lon="14.917115"><ele>924.0</ele><time>2026-05-03T08:37:45.266Z</time></trkpt><trkpt lat="38.0643533" lon="14.91725"><ele>922.5</ele><time>2026-05-03T08:37:46.266Z</time></trkpt><trkpt lat="38.0642883" lon="14.9173833"><ele>921.0</ele><time>2026-05-03T08:37:47.266Z</time></trkpt><trkpt lat="38.0642133" lon="14.9174983"><ele>917.0</ele><time>2026-05-03T08:37:48.266Z</time></trkpt><trkpt lat="38.0641433" lon="14.9176283"><ele>913.0</ele><time>2026-05-03T08:37:49.266Z</time></trkpt><trkpt lat="38.0640767" lon="14.9177517"><ele>909.0</ele><time>2026-05-03T08:37:50.266Z</time></trkpt><trkpt lat="38.0640183" lon="14.9178667"><ele>905.0</ele><time>2026-05-03T08:37:51.265Z</time></trkpt><trkpt lat="38.063955" lon="14.9179783"><ele>910.2</ele><time>2026-05-03T08:37:52.265Z</time></trkpt><trkpt lat="38.06391" lon="14.9180967"><ele>915.4</ele><time>2026-05-03T08:37:53.266Z</time></trkpt><trkpt lat="38.0638883" lon="14.9182067"><ele>920.5999999999999</ele><time>2026-05-03T08:37:54.266Z</time></trkpt><trkpt lat="38.0638767" lon="14.9183133"><ele>925.8</ele><time>2026-05-03T08:37:55.266Z</time></trkpt><trkpt lat="38.0638667" lon="14.91843"><ele>931.0</ele><time>2026-05-03T08:37:56.266Z</time></trkpt><trkpt lat="38.0638517" lon="14.918545"><ele>931.0</ele><time>2026-05-03T08:37:57.266Z</time></trkpt><trkpt lat="38.063825" lon="14.91865"><ele>930.9999999999999</ele><time>2026-05-03T08:37:58.266Z</time></trkpt><trkpt lat="38.0637817" lon="14.91876"><ele>930.9999999999999</ele><time>2026-05-03T08:37:59.266Z</time></trkpt><trkpt lat="38.06372" lon="14.9188567"><ele>931.0</ele><time>2026-05-03T08:38:00.266Z</time></trkpt><trkpt lat="38.0636483" lon="14.9189483"><ele>931.0</ele><time>2026-05-03T08:38:01.266Z</time></trkpt><trkpt lat="38.0635767" lon="14.919045"><ele>931.0</ele><time>2026-05-03T08:38:02.266Z</time></trkpt><trkpt lat="38.0635233" lon="14.9191617"><ele>930.9999999999999</ele><time>2026-05-03T08:38:03.266Z</time></trkpt><trkpt lat="38.0634967" lon="14.919295"><ele>930.9999999999999</ele><time>2026-05-03T08:38:04.266Z</time></trkpt><trkpt lat="38.0634983" lon="14.9194333"><ele>931.0</ele><time>2026-05-03T08:38:05.266Z</time></trkpt><trkpt lat="38.0635" lon="14.9195567"><ele>931.0</ele><time>2026-05-03T08:38:06.266Z</time></trkpt><trkpt lat="38.0634867" lon="14.91968"><ele>927.5999999999999</ele><time>2026-05-03T08:38:07.266Z</time></trkpt><trkpt lat="38.06347" lon="14.9198033"><ele>924.1999999999999</ele><time>2026-05-03T08:38:08.266Z</time></trkpt><trkpt lat="38.0634617" lon="14.9199133"><ele>920.8000000000001</ele><time>2026-05-03T08:38:09.266Z</time></trkpt><trkpt lat="38.063455" lon="14.9200217"><ele>917.4000000000001</ele><time>2026-05-03T08:38:10.266Z</time></trkpt><trkpt lat="38.0634383" lon="14.9201333"><ele>914.0</ele><time>2026-05-03T08:38:11.266Z</time></trkpt><trkpt lat="38.0634167" lon="14.92025"><ele>911.8333333333334</ele><time>2026-05-03T08:38:12.266Z</time></trkpt><trkpt lat="38.0633883" lon="14.9203617"><ele>909.6666666666667</ele><time>2026-05-03T08:38:13.265Z</time></trkpt><trkpt lat="38.06335" lon="14.9204667"><ele>907.5</ele><time>2026-05-03T08:38:14.266Z</time></trkpt><trkpt lat="38.06331" lon="14.9205667"><ele>905.3333333333333</ele><time>2026-05-03T08:38:15.266Z</time></trkpt><trkpt lat="38.0632733" lon="14.9206617"><ele>903.1666666666666</ele><time>2026-05-03T08:38:16.266Z</time></trkpt><trkpt lat="38.06324" lon="14.920765"><ele>901.0</ele><time>2026-05-03T08:38:17.266Z</time></trkpt><trkpt lat="38.063225" lon="14.9208767"><ele>902.1666666666666</ele><time>2026-05-03T08:38:18.265Z</time></trkpt><trkpt lat="38.06323" lon="14.9209917"><ele>903.3333333333333</ele><time>2026-05-03T08:38:19.266Z</time></trkpt><trkpt lat="38.0632467" lon="14.9211"><ele>904.5</ele><time>2026-05-03T08:38:20.266Z</time></trkpt><trkpt lat="38.06328" lon="14.9211967"><ele>905.6666666666667</ele><time>2026-05-03T08:38:21.266Z</time></trkpt><trkpt lat="38.0633283" lon="14.9212883"><ele>906.8333333333334</ele><time>2026-05-03T08:38:22.266Z</time></trkpt><trkpt lat="38.0633883" lon="14.921385"><ele>908.0</ele><time>2026-05-03T08:38:23.266Z</time></trkpt><trkpt lat="38.0634517" lon="14.921485"><ele>908.0</ele><time>2026-05-03T08:38:24.266Z</time></trkpt><trkpt lat="38.0635217" lon="14.9216017"><ele>908.0</ele><time>2026-05-03T08:38:25.266Z</time></trkpt><trkpt lat="38.0635867" lon="14.92173"><ele>908.0</ele><time>2026-05-03T08:38:26.266Z</time></trkpt><trkpt lat="38.0636517" lon="14.9218633"><ele>908.0</ele><time>2026-05-03T08:38:27.266Z</time></trkpt><trkpt lat="38.0637117" lon="14.922"><ele>908.5999999999999</ele><time>2026-05-03T08:38:28.266Z</time></trkpt><trkpt lat="38.0637567" lon="14.9221317"><ele>909.1999999999999</ele><time>2026-05-03T08:38:29.266Z</time></trkpt><trkpt lat="38.0637817" lon="14.922265"><ele>909.8</ele><time>2026-05-03T08:38:30.266Z</time></trkpt><trkpt lat="38.0637883" lon="14.9224033"><ele>910.4</ele><time>2026-05-03T08:38:31.266Z</time></trkpt><trkpt lat="38.063775" lon="14.9225383"><ele>911.0</ele><time>2026-05-03T08:38:32.266Z</time></trkpt><trkpt lat="38.0637483" lon="14.9226733"><ele>909.4</ele><time>2026-05-03T08:38:33.266Z</time></trkpt><trkpt lat="38.0637133" lon="14.922805"><ele>907.8</ele><time>2026-05-03T08:38:34.265Z</time></trkpt><trkpt lat="38.0636767" lon="14.922935"><ele>906.1999999999999</ele><time>2026-05-03T08:38:35.266Z</time></trkpt><trkpt lat="38.0636333" lon="14.923065"><ele>904.5999999999999</ele><time>2026-05-03T08:38:36.266Z</time></trkpt><trkpt lat="38.0635867" lon="14.9231983"><ele>903.0</ele><time>2026-05-03T08:38:37.266Z</time></trkpt><trkpt lat="38.0635417" lon="14.9233317"><ele>901.0</ele><time>2026-05-03T08:38:38.266Z</time></trkpt><trkpt lat="38.0635" lon="14.9234617"><ele>899.0</ele><time>2026-05-03T08:38:39.266Z</time></trkpt><trkpt lat="38.0634583" lon="14.923585"><ele>897.0</ele><time>2026-05-03T08:38:40.266Z</time></trkpt><trkpt lat="38.0634133" lon="14.9236833"><ele>895.0</ele><time>2026-05-03T08:38:41.265Z</time></trkpt><trkpt lat="38.063375" lon="14.9237783"><ele>893.0</ele><time>2026-05-03T08:38:42.266Z</time></trkpt><trkpt lat="38.06335" lon="14.9238683"><ele>893.0000000000001</ele><time>2026-05-03T08:38:43.266Z</time></trkpt><trkpt lat="38.0633367" lon="14.9239617"><ele>893.0</ele><time>2026-05-03T08:38:44.266Z</time></trkpt><trkpt lat="38.0633383" lon="14.9240583"><ele>893.0</ele><time>2026-05-03T08:38:45.266Z</time></trkpt><trkpt lat="38.0633583" lon="14.9241617"><ele>893.0</ele><time>2026-05-03T08:38:46.266Z</time></trkpt><trkpt lat="38.0634" lon="14.924255"><ele>893.0000000000001</ele><time>2026-05-03T08:38:47.266Z</time></trkpt><trkpt lat="38.0634617" lon="14.9243383"><ele>893.0</ele><time>2026-05-03T08:38:48.266Z</time></trkpt><trkpt lat="38.0635433" lon="14.9244133"><ele>892.3333333333334</ele><time>2026-05-03T08:38:49.266Z</time></trkpt><trkpt lat="38.0636583" lon="14.9244833"><ele>891.6666666666667</ele><time>2026-05-03T08:38:50.266Z</time></trkpt><trkpt lat="38.0638033" lon="14.9245633"><ele>891.0</ele><time>2026-05-03T08:38:51.266Z</time></trkpt><trkpt lat="38.0639633" lon="14.9246283"><ele>894.3333333333333</ele><time>2026-05-03T08:38:52.266Z</time></trkpt><trkpt lat="38.064125" lon="14.924685"><ele>897.6666666666666</ele><time>2026-05-03T08:38:53.266Z</time></trkpt><trkpt lat="38.064295" lon="14.92475"><ele>901.0</ele><time>2026-05-03T08:38:54.266Z</time></trkpt><trkpt lat="38.0644533" lon="14.9248117"><ele>901.0</ele><time>2026-05-03T08:38:55.266Z</time></trkpt><trkpt lat="38.064585" lon="14.9248717"><ele>901.0</ele><time>2026-05-03T08:38:56.266Z</time></trkpt><trkpt lat="38.0647017" lon="14.9249167"><ele>901.0</ele><time>2026-05-03T08:38:57.266Z</time></trkpt><trkpt lat="38.0648083" lon="14.9249633"><ele>901.0</ele><time>2026-05-03T08:38:58.266Z</time></trkpt><trkpt lat="38.0649283" lon="14.9250167"><ele>902.75</ele><time>2026-05-03T08:38:59.266Z</time></trkpt><trkpt lat="38.0650533" lon="14.9250867"><ele>904.5</ele><time>2026-05-03T08:39:00.266Z</time></trkpt><trkpt lat="38.0651717" lon="14.9251517"><ele>906.25</ele><time>2026-05-03T08:39:01.266Z</time></trkpt><trkpt lat="38.065275" lon="14.9252083"><ele>908.0</ele><time>2026-05-03T08:39:02.266Z</time></trkpt><trkpt lat="38.0653633" lon="14.925255"><ele>908.0</ele><time>2026-05-03T08:39:03.266Z</time></trkpt><trkpt lat="38.0654433" lon="14.9253067"><ele>908.0</ele><time>2026-05-03T08:39:04.266Z</time></trkpt><trkpt lat="38.06551" lon="14.925365"><ele>908.0</ele><time>2026-05-03T08:39:05.266Z</time></trkpt><trkpt lat="38.0655717" lon="14.92544"><ele>908.0</ele><time>2026-05-03T08:39:06.266Z</time></trkpt><trkpt lat="38.06563" lon="14.9255333"><ele>908.0</ele><time>2026-05-03T08:39:07.266Z</time></trkpt><trkpt lat="38.0657" lon="14.9256367"><ele>908.0</ele><time>2026-05-03T08:39:08.266Z</time></trkpt><trkpt lat="38.065775" lon="14.925735"><ele>908.0</ele><time>2026-05-03T08:39:09.266Z</time></trkpt><trkpt lat="38.0658583" lon="14.9258333"><ele>908.0</ele><time>2026-05-03T08:39:10.266Z</time></trkpt><trkpt lat="38.065935" lon="14.9259417"><ele>908.0</ele><time>2026-05-03T08:39:11.265Z</time></trkpt><trkpt lat="38.066005" lon="14.9260433"><ele>908.0</ele><time>2026-05-03T08:39:12.266Z</time></trkpt><trkpt lat="38.0660817" lon="14.9261567"><ele>906.0</ele><time>2026-05-03T08:39:13.265Z</time></trkpt><trkpt lat="38.0661483" lon="14.926275"><ele>904.0</ele><time>2026-05-03T08:39:14.266Z</time></trkpt><trkpt lat="38.0662183" lon="14.9263833"><ele>902.0</ele><time>2026-05-03T08:39:15.265Z</time></trkpt><trkpt lat="38.0662983" lon="14.9264833"><ele>900.0</ele><time>2026-05-03T08:39:16.266Z</time></trkpt><trkpt lat="38.0663817" lon="14.9265667"><ele>898.0</ele><time>2026-05-03T08:39:17.266Z</time></trkpt><trkpt lat="38.0664533" lon="14.9266533"><ele>896.0</ele><time>2026-05-03T08:39:18.266Z</time></trkpt><trkpt lat="38.0665217" lon="14.92675"><ele>894.0</ele><time>2026-05-03T08:39:19.266Z</time></trkpt><trkpt lat="38.066585" lon="14.92687"><ele>892.0</ele><time>2026-05-03T08:39:20.266Z</time></trkpt><trkpt lat="38.0666583" lon="14.9269967"><ele>890.0</ele><time>2026-05-03T08:39:21.266Z</time></trkpt><trkpt lat="38.0667317" lon="14.9271217"><ele>887.4</ele><time>2026-05-03T08:39:22.266Z</time></trkpt><trkpt lat="38.0668083" lon="14.927235"><ele>884.8</ele><time>2026-05-03T08:39:23.266Z</time></trkpt><trkpt lat="38.066885" lon="14.92733"><ele>882.2</ele><time>2026-05-03T08:39:24.266Z</time></trkpt><trkpt lat="38.06696" lon="14.9274117"><ele>879.6</ele><time>2026-05-03T08:39:25.266Z</time></trkpt><trkpt lat="38.0670283" lon="14.9274783"><ele>877.0</ele><time>2026-05-03T08:39:26.266Z</time></trkpt><trkpt lat="38.067105" lon="14.9275683"><ele>876.1666666666666</ele><time>2026-05-03T08:39:28.266Z</time></trkpt><trkpt lat="38.067135" lon="14.927645"><ele>875.3333333333333</ele><time>2026-05-03T08:39:30.266Z</time></trkpt><trkpt lat="38.0671917" lon="14.9277333"><ele>874.5</ele><time>2026-05-03T08:39:32.266Z</time></trkpt><trkpt lat="38.06724" lon="14.927805"><ele>873.6666666666667</ele><time>2026-05-03T08:39:34.266Z</time></trkpt><trkpt lat="38.0673083" lon="14.927835"><ele>872.8333333333334</ele><time>2026-05-03T08:39:38.265Z</time></trkpt><trkpt lat="38.06736" lon="14.9279217"><ele>872.0</ele><time>2026-05-03T08:39:40.266Z</time></trkpt><trkpt lat="38.06741" lon="14.92798"><ele>871.0</ele><time>2026-05-03T08:39:42.266Z</time></trkpt><trkpt lat="38.06749" lon="14.927985"><ele>870.0</ele><time>2026-05-03T08:39:45.266Z</time></trkpt><trkpt lat="38.0675617" lon="14.92792"><ele>869.0</ele><time>2026-05-03T08:39:47.266Z</time></trkpt><trkpt lat="38.0676683" lon="14.9278717"><ele>868.0</ele><time>2026-05-03T08:39:49.266Z</time></trkpt><trkpt lat="38.0677767" lon="14.9278383"><ele>867.0</ele><time>2026-05-03T08:39:51.266Z</time></trkpt><trkpt lat="38.067885" lon="14.9277783"><ele>867.0</ele><time>2026-05-03T08:39:53.266Z</time></trkpt><trkpt lat="38.0679933" lon="14.9277117"><ele>867.0</ele><time>2026-05-03T08:39:55.265Z</time></trkpt><trkpt lat="38.06805" lon="14.92767"><ele>867.0</ele><time>2026-05-03T08:39:56.266Z</time></trkpt><trkpt lat="38.0681167" lon="14.9276233"><ele>867.0</ele><time>2026-05-03T08:39:57.266Z</time></trkpt><trkpt lat="38.0681783" lon="14.92758"><ele>867.0</ele><time>2026-05-03T08:39:58.266Z</time></trkpt><trkpt lat="38.068245" lon="14.9275383"><ele>867.0</ele><time>2026-05-03T08:39:59.266Z</time></trkpt><trkpt lat="38.0683133" lon="14.9275017"><ele>864.5</ele><time>2026-05-03T08:40:00.266Z</time></trkpt><trkpt lat="38.0683833" lon="14.9274533"><ele>862.0</ele><time>2026-05-03T08:40:01.266Z</time></trkpt><trkpt lat="38.0684533" lon="14.9274033"><ele>859.5</ele><time>2026-05-03T08:40:02.266Z</time></trkpt><trkpt lat="38.068525" lon="14.9273633"><ele>857.0</ele><time>2026-05-03T08:40:03.266Z</time></trkpt><trkpt lat="38.0685933" lon="14.9273467"><ele>854.5</ele><time>2026-05-03T08:40:04.266Z</time></trkpt><trkpt lat="38.0686683" lon="14.92736"><ele>852.0</ele><time>2026-05-03T08:40:05.266Z</time></trkpt><trkpt lat="38.0687367" lon="14.9274117"><ele>852.0</ele><time>2026-05-03T08:40:06.265Z</time></trkpt><trkpt lat="38.0688017" lon="14.9274883"><ele>852.0</ele><time>2026-05-03T08:40:07.266Z</time></trkpt><trkpt lat="38.0688633" lon="14.9275683"><ele>852.0</ele><time>2026-05-03T08:40:08.266Z</time></trkpt><trkpt lat="38.0689283" lon="14.9276467"><ele>852.0</ele><time>2026-05-03T08:40:09.266Z</time></trkpt><trkpt lat="38.0690017" lon="14.927725"><ele>852.0</ele><time>2026-05-03T08:40:10.266Z</time></trkpt><trkpt lat="38.0690833" lon="14.9277833"><ele>848.6</ele><time>2026-05-03T08:40:11.266Z</time></trkpt><trkpt lat="38.069175" lon="14.9278267"><ele>845.2</ele><time>2026-05-03T08:40:12.266Z</time></trkpt><trkpt lat="38.0692733" lon="14.92787"><ele>841.8</ele><time>2026-05-03T08:40:13.266Z</time></trkpt><trkpt lat="38.0693767" lon="14.9279033"><ele>838.4</ele><time>2026-05-03T08:40:14.266Z</time></trkpt><trkpt lat="38.0694867" lon="14.9279267"><ele>835.0</ele><time>2026-05-03T08:40:15.266Z</time></trkpt><trkpt lat="38.0695967" lon="14.92794"><ele>835.0</ele><time>2026-05-03T08:40:16.266Z</time></trkpt><trkpt lat="38.0697033" lon="14.9279483"><ele>835.0</ele><time>2026-05-03T08:40:17.266Z</time></trkpt><trkpt lat="38.0698083" lon="14.9279533"><ele>835.0</ele><time>2026-05-03T08:40:18.265Z</time></trkpt><trkpt lat="38.069905" lon="14.9279617"><ele>835.0</ele><time>2026-05-03T08:40:19.266Z</time></trkpt><trkpt lat="38.07" lon="14.9279717"><ele>835.0</ele><time>2026-05-03T08:40:20.266Z</time></trkpt><trkpt lat="38.0701033" lon="14.9279867"><ele>834.4999999999999</ele><time>2026-05-03T08:40:21.266Z</time></trkpt><trkpt lat="38.0701883" lon="14.9279983"><ele>834.0</ele><time>2026-05-03T08:40:22.266Z</time></trkpt><trkpt lat="38.0702717" lon="14.928015"><ele>833.5</ele><time>2026-05-03T08:40:23.266Z</time></trkpt><trkpt lat="38.0703417" lon="14.928035"><ele>833.0</ele><time>2026-05-03T08:40:24.265Z</time></trkpt><trkpt lat="38.0704083" lon="14.92806"><ele>832.4999999999999</ele><time>2026-05-03T08:40:25.266Z</time></trkpt><trkpt lat="38.0705267" lon="14.9280983"><ele>832.0</ele><time>2026-05-03T08:40:27.266Z</time></trkpt><trkpt lat="38.07064" lon="14.9281417"><ele>832.0</ele><time>2026-05-03T08:40:29.266Z</time></trkpt><trkpt lat="38.070705" lon="14.9281683"><ele>832.0</ele><time>2026-05-03T08:40:30.266Z</time></trkpt><trkpt lat="38.0707917" lon="14.9282033"><ele>832.0</ele><time>2026-05-03T08:40:31.266Z</time></trkpt><trkpt lat="38.0708917" lon="14.9282417"><ele>832.0</ele><time>2026-05-03T08:40:32.265Z</time></trkpt><trkpt lat="38.070995" lon="14.928275"><ele>832.0</ele><time>2026-05-03T08:40:33.266Z</time></trkpt><trkpt lat="38.0710817" lon="14.9283083"><ele>832.4999999999999</ele><time>2026-05-03T08:40:34.266Z</time></trkpt><trkpt lat="38.0711583" lon="14.92834"><ele>833.0</ele><time>2026-05-03T08:40:35.266Z</time></trkpt><trkpt lat="38.07123" lon="14.928375"><ele>833.5</ele><time>2026-05-03T08:40:36.266Z</time></trkpt><trkpt lat="38.0712933" lon="14.9284"><ele>834.0</ele><time>2026-05-03T08:40:37.266Z</time></trkpt><trkpt lat="38.0713883" lon="14.9283783"><ele>834.4999999999999</ele><time>2026-05-03T08:40:39.266Z</time></trkpt><trkpt lat="38.07147" lon="14.92839"><ele>835.0</ele><time>2026-05-03T08:46:05.267Z</time></trkpt><trkpt lat="38.0715383" lon="14.9284483"><ele>838.75</ele><time>2026-05-03T08:46:06.267Z</time></trkpt><trkpt lat="38.071635" lon="14.9285117"><ele>842.5</ele><time>2026-05-03T08:46:07.267Z</time></trkpt><trkpt lat="38.0717583" lon="14.9285767"><ele>846.25</ele><time>2026-05-03T08:46:08.267Z</time></trkpt><trkpt lat="38.0719" lon="14.9286317"><ele>850.0</ele><time>2026-05-03T08:46:09.266Z</time></trkpt><trkpt lat="38.07205" lon="14.9286733"><ele>850.0</ele><time>2026-05-03T08:46:10.267Z</time></trkpt><trkpt lat="38.07219" lon="14.9286933"><ele>850.0</ele><time>2026-05-03T08:46:11.267Z</time></trkpt><trkpt lat="38.0723083" lon="14.9287"><ele>850.0</ele><time>2026-05-03T08:46:12.267Z</time></trkpt><trkpt lat="38.0724133" lon="14.92871"><ele>850.0</ele><time>2026-05-03T08:46:13.267Z</time></trkpt><trkpt lat="38.0725067" lon="14.928715"><ele>851.0</ele><time>2026-05-03T08:46:14.267Z</time></trkpt><trkpt lat="38.072595" lon="14.9287217"><ele>852.0</ele><time>2026-05-03T08:46:15.267Z</time></trkpt><trkpt lat="38.0726833" lon="14.9287533"><ele>853.0</ele><time>2026-05-03T08:46:16.267Z</time></trkpt><trkpt lat="38.0727733" lon="14.9288183"><ele>854.0</ele><time>2026-05-03T08:46:17.267Z</time></trkpt><trkpt lat="38.07286" lon="14.92892"><ele>855.0</ele><time>2026-05-03T08:46:18.267Z</time></trkpt><trkpt lat="38.0729467" lon="14.9290733"><ele>855.0</ele><time>2026-05-03T08:46:19.267Z</time></trkpt><trkpt lat="38.0730217" lon="14.9292233"><ele>855.0</ele><time>2026-05-03T08:46:20.267Z</time></trkpt><trkpt lat="38.0730967" lon="14.92934"><ele>855.0</ele><time>2026-05-03T08:46:21.267Z</time></trkpt><trkpt lat="38.073185" lon="14.9294167"><ele>855.0</ele><time>2026-05-03T08:46:22.267Z</time></trkpt><trkpt lat="38.0732917" lon="14.9294467"><ele>855.5</ele><time>2026-05-03T08:46:23.267Z</time></trkpt><trkpt lat="38.0734067" lon="14.9294317"><ele>856.0</ele><time>2026-05-03T08:46:24.267Z</time></trkpt><trkpt lat="38.0735317" lon="14.9293867"><ele>856.5</ele><time>2026-05-03T08:46:25.267Z</time></trkpt><trkpt lat="38.07366" lon="14.9293483"><ele>857.0</ele><time>2026-05-03T08:46:26.267Z</time></trkpt><trkpt lat="38.0738033" lon="14.929325"><ele>857.0</ele><time>2026-05-03T08:46:27.267Z</time></trkpt><trkpt lat="38.0739483" lon="14.9293133"><ele>857.0</ele><time>2026-05-03T08:46:28.267Z</time></trkpt><trkpt lat="38.0740817" lon="14.9293083"><ele>857.0</ele><time>2026-05-03T08:46:29.267Z</time></trkpt><trkpt lat="38.07421" lon="14.9293167"><ele>857.0</ele><time>2026-05-03T08:46:30.267Z</time></trkpt><trkpt lat="38.0743417" lon="14.9293367"><ele>857.5</ele><time>2026-05-03T08:46:31.267Z</time></trkpt><trkpt lat="38.074455" lon="14.929365"><ele>858.0</ele><time>2026-05-03T08:46:32.267Z</time></trkpt><trkpt lat="38.0745717" lon="14.9294017"><ele>858.5</ele><time>2026-05-03T08:46:33.267Z</time></trkpt><trkpt lat="38.0747017" lon="14.9294267"><ele>859.0</ele><time>2026-05-03T08:46:34.267Z</time></trkpt><trkpt lat="38.0748317" lon="14.9294467"><ele>855.0</ele><time>2026-05-03T08:46:35.266Z</time></trkpt><trkpt lat="38.0749567" lon="14.92946"><ele>851.0</ele><time>2026-05-03T08:46:36.267Z</time></trkpt><trkpt lat="38.0750867" lon="14.9294417"><ele>847.0</ele><time>2026-05-03T08:46:37.267Z</time></trkpt><trkpt lat="38.0752133" lon="14.9293917"><ele>843.0</ele><time>2026-05-03T08:46:38.267Z</time></trkpt><trkpt lat="38.0753117" lon="14.929305"><ele>845.75</ele><time>2026-05-03T08:46:39.267Z</time></trkpt><trkpt lat="38.0753983" lon="14.9291917"><ele>848.5</ele><time>2026-05-03T08:46:40.267Z</time></trkpt><trkpt lat="38.075495" lon="14.9290617"><ele>851.25</ele><time>2026-05-03T08:46:41.267Z</time></trkpt><trkpt lat="38.0756067" lon="14.9289133"><ele>854.0</ele><time>2026-05-03T08:46:42.267Z</time></trkpt><trkpt lat="38.075715" lon="14.9287483"><ele>851.5</ele><time>2026-05-03T08:46:43.267Z</time></trkpt><trkpt lat="38.07581" lon="14.9285833"><ele>849.0</ele><time>2026-05-03T08:46:44.267Z</time></trkpt><trkpt lat="38.0758717" lon="14.92844"><ele>846.5</ele><time>2026-05-03T08:46:45.267Z</time></trkpt><trkpt lat="38.075925" lon="14.9282983"><ele>844.0</ele><time>2026-05-03T08:46:46.267Z</time></trkpt><trkpt lat="38.07596" lon="14.9281667"><ele>849.5</ele><time>2026-05-03T08:46:47.267Z</time></trkpt><trkpt lat="38.076" lon="14.9280183"><ele>855.0</ele><time>2026-05-03T08:46:48.267Z</time></trkpt><trkpt lat="38.0760233" lon="14.9278667"><ele>860.5</ele><time>2026-05-03T08:46:49.267Z</time></trkpt><trkpt lat="38.076045" lon="14.9277017"><ele>866.0</ele><time>2026-05-03T08:46:50.266Z</time></trkpt><trkpt lat="38.0760617" lon="14.92754"><ele>867.25</ele><time>2026-05-03T08:46:51.266Z</time></trkpt><trkpt lat="38.0760817" lon="14.9273733"><ele>868.5</ele><time>2026-05-03T08:46:52.267Z</time></trkpt><trkpt lat="38.0761167" lon="14.9272367"><ele>869.75</ele><time>2026-05-03T08:46:53.267Z</time></trkpt><trkpt lat="38.0761783" lon="14.9271033"><ele>871.0</ele><time>2026-05-03T08:46:54.267Z</time></trkpt><trkpt lat="38.0762633" lon="14.9269783"><ele>871.0</ele><time>2026-05-03T08:46:55.267Z</time></trkpt><trkpt lat="38.0763583" lon="14.92687"><ele>870.9999999999999</ele><time>2026-05-03T08:46:56.267Z</time></trkpt><trkpt lat="38.076455" lon="14.926775"><ele>870.9999999999999</ele><time>2026-05-03T08:46:57.267Z</time></trkpt><trkpt lat="38.0765333" lon="14.9266917"><ele>871.0</ele><time>2026-05-03T08:46:58.266Z</time></trkpt><trkpt lat="38.0766033" lon="14.9266317"><ele>871.0</ele><time>2026-05-03T08:46:59.267Z</time></trkpt><trkpt lat="38.07669" lon="14.9266483"><ele>871.0</ele><time>2026-05-03T08:47:01.267Z</time></trkpt><trkpt lat="38.0766617" lon="14.9267717"><ele>870.9999999999999</ele><time>2026-05-03T08:47:03.267Z</time></trkpt><trkpt lat="38.0765933" lon="14.92688"><ele>870.9999999999999</ele><time>2026-05-03T08:47:04.267Z</time></trkpt><trkpt lat="38.07653" lon="14.927005"><ele>871.0</ele><time>2026-05-03T08:47:05.267Z</time></trkpt><trkpt lat="38.07648" lon="14.9271317"><ele>871.0</ele><time>2026-05-03T08:47:06.267Z</time></trkpt><trkpt lat="38.0764467" lon="14.9272617"><ele>870.9999999999999</ele><time>2026-05-03T08:47:07.267Z</time></trkpt><trkpt lat="38.0764417" lon="14.9273867"><ele>871.0</ele><time>2026-05-03T08:47:08.267Z</time></trkpt><trkpt lat="38.0764767" lon="14.92747"><ele>871.0</ele><time>2026-05-03T08:47:09.267Z</time></trkpt><trkpt lat="38.07653" lon="14.9275367"><ele>871.0</ele><time>2026-05-03T08:47:10.267Z</time></trkpt><trkpt lat="38.0766067" lon="14.9275783"><ele>870.9999999999999</ele><time>2026-05-03T08:47:11.267Z</time></trkpt><trkpt lat="38.0767133" lon="14.9275783"><ele>871.0</ele><time>2026-05-03T08:47:12.267Z</time></trkpt><trkpt lat="38.0768183" lon="14.9275317"><ele>876.5</ele><time>2026-05-03T08:47:13.267Z</time></trkpt><trkpt lat="38.0769283" lon="14.927445"><ele>882.0</ele><time>2026-05-03T08:47:14.267Z</time></trkpt><trkpt lat="38.077045" lon="14.9273433"><ele>887.5</ele><time>2026-05-03T08:47:15.267Z</time></trkpt><trkpt lat="38.0771633" lon="14.927265"><ele>893.0</ele><time>2026-05-03T08:47:16.267Z</time></trkpt><trkpt lat="38.0772783" lon="14.9271967"><ele>893.0</ele><time>2026-05-03T08:47:17.267Z</time></trkpt><trkpt lat="38.077375" lon="14.9271433"><ele>893.0</ele><time>2026-05-03T08:47:18.267Z</time></trkpt><trkpt lat="38.077475" lon="14.9271067"><ele>893.0</ele><time>2026-05-03T08:47:19.267Z</time></trkpt><trkpt lat="38.0775633" lon="14.9271133"><ele>893.0</ele><time>2026-05-03T08:47:20.267Z</time></trkpt><trkpt lat="38.0776467" lon="14.9271367"><ele>893.0</ele><time>2026-05-03T08:47:21.267Z</time></trkpt><trkpt lat="38.07773" lon="14.9271883"><ele>893.5999999999999</ele><time>2026-05-03T08:47:22.267Z</time></trkpt><trkpt lat="38.0778117" lon="14.9272383"><ele>894.1999999999999</ele><time>2026-05-03T08:47:23.267Z</time></trkpt><trkpt lat="38.0779" lon="14.92729"><ele>894.8</ele><time>2026-05-03T08:47:24.267Z</time></trkpt><trkpt lat="38.077995" lon="14.92733"><ele>895.4</ele><time>2026-05-03T08:47:25.266Z</time></trkpt><trkpt lat="38.0781" lon="14.9273533"><ele>896.0</ele><time>2026-05-03T08:47:26.267Z</time></trkpt><trkpt lat="38.078205" lon="14.9273617"><ele>899.25</ele><time>2026-05-03T08:47:27.267Z</time></trkpt><trkpt lat="38.07831" lon="14.927365"><ele>902.5</ele><time>2026-05-03T08:47:28.267Z</time></trkpt><trkpt lat="38.0784233" lon="14.92738"><ele>905.75</ele><time>2026-05-03T08:47:29.267Z</time></trkpt><trkpt lat="38.0785383" lon="14.9273933"><ele>909.0</ele><time>2026-05-03T08:47:30.267Z</time></trkpt><trkpt lat="38.0786617" lon="14.9274"><ele>909.0</ele><time>2026-05-03T08:47:31.267Z</time></trkpt><trkpt lat="38.0787817" lon="14.927405"><ele>909.0</ele><time>2026-05-03T08:47:32.267Z</time></trkpt><trkpt lat="38.078915" lon="14.9274033"><ele>909.0</ele><time>2026-05-03T08:47:33.267Z</time></trkpt><trkpt lat="38.0790483" lon="14.9273883"><ele>909.0</ele><time>2026-05-03T08:47:34.267Z</time></trkpt><trkpt lat="38.0791967" lon="14.927365"><ele>912.25</ele><time>2026-05-03T08:47:35.267Z</time></trkpt><trkpt lat="38.079345" lon="14.9273417"><ele>915.5</ele><time>2026-05-03T08:47:36.267Z</time></trkpt><trkpt lat="38.079485" lon="14.9273167"><ele>918.75</ele><time>2026-05-03T08:47:37.267Z</time></trkpt><trkpt lat="38.0796033" lon="14.927295"><ele>922.0</ele><time>2026-05-03T08:47:38.266Z</time></trkpt><trkpt lat="38.079725" lon="14.927275"><ele>922.0</ele><time>2026-05-03T08:47:39.267Z</time></trkpt><trkpt lat="38.0798417" lon="14.92725"><ele>922.0</ele><time>2026-05-03T08:47:40.267Z</time></trkpt><trkpt lat="38.0799617" lon="14.9272267"><ele>922.0</ele><time>2026-05-03T08:47:41.267Z</time></trkpt><trkpt lat="38.0800833" lon="14.9271933"><ele>922.0</ele><time>2026-05-03T08:47:42.267Z</time></trkpt><trkpt lat="38.0801983" lon="14.9271667"><ele>920.0</ele><time>2026-05-03T08:47:43.267Z</time></trkpt><trkpt lat="38.0803067" lon="14.9271367"><ele>918.0</ele><time>2026-05-03T08:47:44.267Z</time></trkpt><trkpt lat="38.08041" lon="14.9270867"><ele>916.0</ele><time>2026-05-03T08:47:45.267Z</time></trkpt><trkpt lat="38.0805" lon="14.9270117"><ele>914.0</ele><time>2026-05-03T08:47:46.267Z</time></trkpt><trkpt lat="38.0805833" lon="14.926925"><ele>912.0</ele><time>2026-05-03T08:47:47.267Z</time></trkpt><trkpt lat="38.080665" lon="14.9268417"><ele>912.0</ele><time>2026-05-03T08:47:48.267Z</time></trkpt><trkpt lat="38.08076" lon="14.9267617"><ele>912.0</ele><time>2026-05-03T08:47:49.267Z</time></trkpt><trkpt lat="38.0808483" lon="14.926685"><ele>912.0</ele><time>2026-05-03T08:47:50.267Z</time></trkpt><trkpt lat="38.08094" lon="14.92661"><ele>912.0</ele><time>2026-05-03T08:47:51.267Z</time></trkpt><trkpt lat="38.0810567" lon="14.9265383"><ele>916.6</ele><time>2026-05-03T08:47:52.267Z</time></trkpt><trkpt lat="38.0811717" lon="14.9264867"><ele>921.2</ele><time>2026-05-03T08:47:53.267Z</time></trkpt><trkpt lat="38.0812783" lon="14.9264433"><ele>925.8</ele><time>2026-05-03T08:47:54.267Z</time></trkpt><trkpt lat="38.0813817" lon="14.92641"><ele>930.4</ele><time>2026-05-03T08:47:55.267Z</time></trkpt><trkpt lat="38.08148" lon="14.926385"><ele>935.0</ele><time>2026-05-03T08:47:56.267Z</time></trkpt><trkpt lat="38.0815783" lon="14.9263717"><ele>933.8333333333334</ele><time>2026-05-03T08:47:57.267Z</time></trkpt><trkpt lat="38.0816667" lon="14.92637"><ele>932.6666666666667</ele><time>2026-05-03T08:47:58.266Z</time></trkpt><trkpt lat="38.08174" lon="14.9263783"><ele>931.5</ele><time>2026-05-03T08:47:59.267Z</time></trkpt><trkpt lat="38.0818067" lon="14.92639"><ele>930.3333333333333</ele><time>2026-05-03T08:48:00.266Z</time></trkpt><trkpt lat="38.0819" lon="14.92641"><ele>929.1666666666666</ele><time>2026-05-03T08:48:02.267Z</time></trkpt><trkpt lat="38.0819867" lon="14.9263883"><ele>928.0</ele><time>2026-05-03T08:48:04.267Z</time></trkpt><trkpt lat="38.08204" lon="14.9263433"><ele>928.0</ele><time>2026-05-03T08:48:05.267Z</time></trkpt><trkpt lat="38.082085" lon="14.9262817"><ele>928.0</ele><time>2026-05-03T08:48:06.267Z</time></trkpt><trkpt lat="38.0821233" lon="14.9262067"><ele>928.0</ele><time>2026-05-03T08:48:07.267Z</time></trkpt><trkpt lat="38.0821533" lon="14.9260617"><ele>928.0</ele><time>2026-05-03T08:48:09.267Z</time></trkpt><trkpt lat="38.0821767" lon="14.92591"><ele>928.0</ele><time>2026-05-03T08:48:11.267Z</time></trkpt><trkpt lat="38.08221" lon="14.925765"><ele>929.9999999999999</ele><time>2026-05-03T08:48:13.267Z</time></trkpt><trkpt lat="38.0822233" lon="14.9256817"><ele>932.0</ele><time>2026-05-03T08:48:14.267Z</time></trkpt><trkpt lat="38.082245" lon="14.9255783"><ele>934.0</ele><time>2026-05-03T08:48:15.266Z</time></trkpt><trkpt lat="38.0822717" lon="14.92547"><ele>936.0</ele><time>2026-05-03T08:48:16.267Z</time></trkpt><trkpt lat="38.082315" lon="14.9253467"><ele>937.9999999999999</ele><time>2026-05-03T08:48:17.267Z</time></trkpt><trkpt lat="38.08234" lon="14.92523"><ele>940.0</ele><time>2026-05-03T08:48:18.268Z</time></trkpt><trkpt lat="38.082385" lon="14.925115"><ele>939.1666666666666</ele><time>2026-05-03T08:48:19.268Z</time></trkpt><trkpt lat="38.082425" lon="14.9250033"><ele>938.3333333333333</ele><time>2026-05-03T08:48:20.268Z</time></trkpt><trkpt lat="38.082465" lon="14.9249033"><ele>937.5</ele><time>2026-05-03T08:48:21.268Z</time></trkpt><trkpt lat="38.0824967" lon="14.924815"><ele>936.6666666666667</ele><time>2026-05-03T08:48:22.268Z</time></trkpt><trkpt lat="38.082545" lon="14.92473"><ele>935.8333333333334</ele><time>2026-05-03T08:48:23.267Z</time></trkpt><trkpt lat="38.0825983" lon="14.92468"><ele>935.0</ele><time>2026-05-03T08:48:24.268Z</time></trkpt><trkpt lat="38.0826683" lon="14.9246683"><ele>933.25</ele><time>2026-05-03T08:48:25.268Z</time></trkpt><trkpt lat="38.0827567" lon="14.924695"><ele>931.5</ele><time>2026-05-03T08:48:26.268Z</time></trkpt><trkpt lat="38.0828667" lon="14.924755"><ele>929.75</ele><time>2026-05-03T08:48:27.268Z</time></trkpt><trkpt lat="38.0829867" lon="14.92485"><ele>928.0</ele><time>2026-05-03T08:48:28.268Z</time></trkpt><trkpt lat="38.0831017" lon="14.92492"><ele>928.0</ele><time>2026-05-03T08:48:29.268Z</time></trkpt><trkpt lat="38.0831917" lon="14.9249517"><ele>928.0</ele><time>2026-05-03T08:48:30.268Z</time></trkpt><trkpt lat="38.0832917" lon="14.9249483"><ele>928.0</ele><time>2026-05-03T08:48:31.268Z</time></trkpt><trkpt lat="38.0834" lon="14.9249167"><ele>928.0</ele><time>2026-05-03T08:48:32.268Z</time></trkpt><trkpt lat="38.0835067" lon="14.9248683"><ele>928.0</ele><time>2026-05-03T08:48:33.268Z</time></trkpt><trkpt lat="38.0836017" lon="14.9248133"><ele>926.4</ele><time>2026-05-03T08:48:34.268Z</time></trkpt><trkpt lat="38.08368" lon="14.9247583"><ele>924.8</ele><time>2026-05-03T08:48:35.268Z</time></trkpt><trkpt lat="38.0837333" lon="14.92468"><ele>923.2</ele><time>2026-05-03T08:48:36.268Z</time></trkpt><trkpt lat="38.083775" lon="14.924575"><ele>921.6</ele><time>2026-05-03T08:48:37.267Z</time></trkpt><trkpt lat="38.0837867" lon="14.9244583"><ele>920.0</ele><time>2026-05-03T08:48:38.268Z</time></trkpt><trkpt lat="38.08376" lon="14.9243183"><ele>916.0</ele><time>2026-05-03T08:48:39.268Z</time></trkpt><trkpt lat="38.08371" lon="14.9241783"><ele>912.0</ele><time>2026-05-03T08:48:40.268Z</time></trkpt><trkpt lat="38.0836583" lon="14.9240583"><ele>908.0</ele><time>2026-05-03T08:48:41.268Z</time></trkpt><trkpt lat="38.0836233" lon="14.9239483"><ele>904.0</ele><time>2026-05-03T08:48:42.268Z</time></trkpt><trkpt lat="38.0836217" lon="14.9238217"><ele>900.0</ele><time>2026-05-03T08:48:43.268Z</time></trkpt><trkpt lat="38.0836467" lon="14.9236817"><ele>900.0</ele><time>2026-05-03T08:48:44.268Z</time></trkpt><trkpt lat="38.08368" lon="14.9235467"><ele>900.0</ele><time>2026-05-03T08:48:45.268Z</time></trkpt><trkpt lat="38.0837267" lon="14.9234183"><ele>900.0</ele><time>2026-05-03T08:48:46.268Z</time></trkpt><trkpt lat="38.0837883" lon="14.9233067"><ele>900.0</ele><time>2026-05-03T08:48:47.268Z</time></trkpt><trkpt lat="38.0838583" lon="14.9232"><ele>900.0</ele><time>2026-05-03T08:48:48.268Z</time></trkpt><trkpt lat="38.0839433" lon="14.9230833"><ele>898.25</ele><time>2026-05-03T08:48:49.268Z</time></trkpt><trkpt lat="38.08404" lon="14.9229617"><ele>896.5</ele><time>2026-05-03T08:48:50.268Z</time></trkpt><trkpt lat="38.0841333" lon="14.9228283"><ele>894.75</ele><time>2026-05-03T08:48:51.268Z</time></trkpt><trkpt lat="38.0842217" lon="14.9227083"><ele>893.0</ele><time>2026-05-03T08:48:52.268Z</time></trkpt><trkpt lat="38.0843067" lon="14.9225933"><ele>894.5</ele><time>2026-05-03T08:48:53.268Z</time></trkpt><trkpt lat="38.0843883" lon="14.9224983"><ele>896.0</ele><time>2026-05-03T08:48:54.268Z</time></trkpt><trkpt lat="38.0844883" lon="14.92241"><ele>897.5</ele><time>2026-05-03T08:48:55.268Z</time></trkpt><trkpt lat="38.0845867" lon="14.922335"><ele>899.0</ele><time>2026-05-03T08:48:56.268Z</time></trkpt><trkpt lat="38.0846817" lon="14.9222633"><ele>899.0</ele><time>2026-05-03T08:48:57.268Z</time></trkpt><trkpt lat="38.0847733" lon="14.9221883"><ele>899.0000000000001</ele><time>2026-05-03T08:48:58.268Z</time></trkpt><trkpt lat="38.0848683" lon="14.9221133"><ele>899.0000000000001</ele><time>2026-05-03T08:48:59.268Z</time></trkpt><trkpt lat="38.0849667" lon="14.9220417"><ele>899.0</ele><time>2026-05-03T08:49:00.268Z</time></trkpt><trkpt lat="38.08506" lon="14.9219683"><ele>899.0</ele><time>2026-05-03T08:49:01.268Z</time></trkpt><trkpt lat="38.0851717" lon="14.921885"><ele>897.25</ele><time>2026-05-03T08:49:02.268Z</time></trkpt><trkpt lat="38.0852833" lon="14.9218117"><ele>895.5</ele><time>2026-05-03T08:49:03.267Z</time></trkpt><trkpt lat="38.0853833" lon="14.9217383"><ele>893.75</ele><time>2026-05-03T08:49:04.268Z</time></trkpt><trkpt lat="38.0854833" lon="14.9216767"><ele>892.0</ele><time>2026-05-03T08:49:05.268Z</time></trkpt><trkpt lat="38.0855917" lon="14.9216317"><ele>892.0</ele><time>2026-05-03T08:49:06.268Z</time></trkpt><trkpt lat="38.08569" lon="14.9216"><ele>892.0</ele><time>2026-05-03T08:49:07.268Z</time></trkpt><trkpt lat="38.0857883" lon="14.92157"><ele>892.0</ele><time>2026-05-03T08:49:08.268Z</time></trkpt><trkpt lat="38.08588" lon="14.92154"><ele>892.0</ele><time>2026-05-03T08:49:09.268Z</time></trkpt><trkpt lat="38.0859583" lon="14.921505"><ele>892.0</ele><time>2026-05-03T08:49:10.268Z</time></trkpt><trkpt lat="38.0860483" lon="14.9214683"><ele>893.2</ele><time>2026-05-03T08:49:11.268Z</time></trkpt><trkpt lat="38.0861467" lon="14.9214333"><ele>894.4000000000001</ele><time>2026-05-03T08:49:12.268Z</time></trkpt><trkpt lat="38.0862417" lon="14.9213967"><ele>895.5999999999999</ele><time>2026-05-03T08:49:13.268Z</time></trkpt><trkpt lat="38.0863317" lon="14.9213567"><ele>896.8</ele><time>2026-05-03T08:49:14.267Z</time></trkpt><trkpt lat="38.086415" lon="14.9213167"><ele>898.0</ele><time>2026-05-03T08:49:15.268Z</time></trkpt><trkpt lat="38.0864967" lon="14.92127"><ele>898.0</ele><time>2026-05-03T08:49:16.268Z</time></trkpt><trkpt lat="38.086575" lon="14.921235"><ele>898.0</ele><time>2026-05-03T08:49:17.268Z</time></trkpt><trkpt lat="38.0866667" lon="14.9212067"><ele>898.0</ele><time>2026-05-03T08:49:18.268Z</time></trkpt><trkpt lat="38.0867515" lon="14.921177"><ele>898.0</ele><time>2026-05-03T08:49:19.268Z</time></trkpt><trkpt lat="38.0868407" lon="14.9211402"><ele>898.0</ele><time>2026-05-03T08:49:20.268Z</time></trkpt><trkpt lat="38.0869299" lon="14.9210896"><ele>899.0</ele><time>2026-05-03T08:49:21.267Z</time></trkpt><trkpt lat="38.087019" lon="14.9210377"><ele>900.0</ele><time>2026-05-03T08:49:22.267Z</time></trkpt><trkpt lat="38.0871052" lon="14.9209881"><ele>901.0</ele><time>2026-05-03T08:49:23.268Z</time></trkpt><trkpt lat="38.087192" lon="14.9209397"><ele>902.0</ele><time>2026-05-03T08:49:24.268Z</time></trkpt><trkpt lat="38.0872812" lon="14.920887"><ele>903.0</ele><time>2026-05-03T08:49:25.268Z</time></trkpt><trkpt lat="38.0873728" lon="14.920838"><ele>899.8</ele><time>2026-05-03T08:49:26.268Z</time></trkpt><trkpt lat="38.0874596" lon="14.9207729"><ele>896.5999999999999</ele><time>2026-05-03T08:49:27.268Z</time></trkpt><trkpt lat="38.0875355" lon="14.9206876"><ele>893.4000000000001</ele><time>2026-05-03T08:49:28.268Z</time></trkpt><trkpt lat="38.0876048" lon="14.9206023"><ele>890.2</ele><time>2026-05-03T08:49:29.268Z</time></trkpt><trkpt lat="38.087675" lon="14.9205134"><ele>887.0</ele><time>2026-05-03T08:49:30.268Z</time></trkpt><trkpt lat="38.0877495" lon="14.9204299"><ele>887.0</ele><time>2026-05-03T08:49:31.268Z</time></trkpt><trkpt lat="38.0878316" lon="14.9203561"><ele>887.0</ele><time>2026-05-03T08:49:32.268Z</time></trkpt><trkpt lat="38.0879182" lon="14.9202974"><ele>887.0</ele><time>2026-05-03T08:49:33.268Z</time></trkpt><trkpt lat="38.0880035" lon="14.9202541"><ele>887.0</ele><time>2026-05-03T08:49:34.268Z</time></trkpt><trkpt lat="38.0880841" lon="14.920235"><ele>887.0</ele><time>2026-05-03T08:49:35.268Z</time></trkpt><trkpt lat="38.0881618" lon="14.9202399"><ele>887.0000000000001</ele><time>2026-05-03T08:49:36.268Z</time></trkpt><trkpt lat="38.0882398" lon="14.9202708"><ele>887.0</ele><time>2026-05-03T08:49:37.268Z</time></trkpt><trkpt lat="38.0883192" lon="14.9202919"><ele>887.0</ele><time>2026-05-03T08:49:38.268Z</time></trkpt><trkpt lat="38.0883933" lon="14.9202929"><ele>887.0</ele><time>2026-05-03T08:49:39.268Z</time></trkpt><trkpt lat="38.088464" lon="14.9202761"><ele>887.0000000000001</ele><time>2026-05-03T08:49:40.268Z</time></trkpt><trkpt lat="38.0885283" lon="14.9202157"><ele>887.0</ele><time>2026-05-03T08:49:41.268Z</time></trkpt><trkpt lat="38.0885693" lon="14.9201242"><ele>883.6666666666667</ele><time>2026-05-03T08:49:42.268Z</time></trkpt><trkpt lat="38.0886074" lon="14.9200405"><ele>880.3333333333334</ele><time>2026-05-03T08:49:43.268Z</time></trkpt><trkpt lat="38.0886501" lon="14.9199595"><ele>877.0</ele><time>2026-05-03T08:49:44.268Z</time></trkpt><trkpt lat="38.0887021" lon="14.9198784"><ele>873.6666666666667</ele><time>2026-05-03T08:49:45.268Z</time></trkpt><trkpt lat="38.0887624" lon="14.9197941"><ele>870.3333333333334</ele><time>2026-05-03T08:49:46.268Z</time></trkpt><trkpt lat="38.0888241" lon="14.9197034"><ele>867.0</ele><time>2026-05-03T08:49:47.268Z</time></trkpt><trkpt lat="38.0888906" lon="14.9196118"><ele>867.0</ele><time>2026-05-03T08:49:48.268Z</time></trkpt><trkpt lat="38.088954" lon="14.9195395"><ele>867.0</ele><time>2026-05-03T08:49:49.267Z</time></trkpt><trkpt lat="38.0890297" lon="14.9194707"><ele>867.0</ele><time>2026-05-03T08:49:50.268Z</time></trkpt><trkpt lat="38.0891137" lon="14.9193916"><ele>867.0</ele><time>2026-05-03T08:49:51.268Z</time></trkpt><trkpt lat="38.0891901" lon="14.9193053"><ele>867.0</ele><time>2026-05-03T08:49:52.268Z</time></trkpt><trkpt lat="38.089279" lon="14.9192156"><ele>864.6</ele><time>2026-05-03T08:49:53.268Z</time></trkpt><trkpt lat="38.0893637" lon="14.9191368"><ele>862.2</ele><time>2026-05-03T08:49:54.268Z</time></trkpt><trkpt lat="38.0894406" lon="14.9190586"><ele>859.8</ele><time>2026-05-03T08:49:55.268Z</time></trkpt><trkpt lat="38.089523" lon="14.9189763"><ele>857.4</ele><time>2026-05-03T08:49:56.267Z</time></trkpt><trkpt lat="38.0896064" lon="14.9189035"><ele>855.0</ele><time>2026-05-03T08:49:57.268Z</time></trkpt><trkpt lat="38.0897019" lon="14.9188341"><ele>855.0</ele><time>2026-05-03T08:49:58.268Z</time></trkpt><trkpt lat="38.0897967" lon="14.918786"><ele>855.0</ele><time>2026-05-03T08:49:59.268Z</time></trkpt><trkpt lat="38.0898803" lon="14.9187348"><ele>855.0</ele><time>2026-05-03T08:50:00.268Z</time></trkpt><trkpt lat="38.0899539" lon="14.9186741"><ele>855.0</ele><time>2026-05-03T08:50:01.268Z</time></trkpt><trkpt lat="38.0900182" lon="14.9186003"><ele>855.0</ele><time>2026-05-03T08:50:02.268Z</time></trkpt><trkpt lat="38.0900806" lon="14.9185287"><ele>853.6666666666666</ele><time>2026-05-03T08:50:03.268Z</time></trkpt><trkpt lat="38.090152" lon="14.9184781"><ele>852.3333333333333</ele><time>2026-05-03T08:50:04.268Z</time></trkpt><trkpt lat="38.0902324" lon="14.9184555"><ele>851.0</ele><time>2026-05-03T08:50:05.268Z</time></trkpt><trkpt lat="38.0903208" lon="14.9184376"><ele>849.6666666666666</ele><time>2026-05-03T08:50:06.268Z</time></trkpt><trkpt lat="38.090414" lon="14.918427"><ele>848.3333333333333</ele><time>2026-05-03T08:50:07.268Z</time></trkpt><trkpt lat="38.0904867" lon="14.9184183"><ele>847.0</ele><time>2026-05-03T08:50:08.268Z</time></trkpt><trkpt lat="38.09055" lon="14.9183967"><ele>846.9999999999999</ele><time>2026-05-03T08:50:09.268Z</time></trkpt><trkpt lat="38.0906383" lon="14.9183483"><ele>847.0</ele><time>2026-05-03T08:50:11.268Z</time></trkpt><trkpt lat="38.0906417" lon="14.91823"><ele>847.0</ele><time>2026-05-03T08:50:13.268Z</time></trkpt><trkpt lat="38.090585" lon="14.9181833"><ele>847.0</ele><time>2026-05-03T08:50:14.268Z</time></trkpt><trkpt lat="38.0905033" lon="14.9181517"><ele>846.9999999999999</ele><time>2026-05-03T08:50:15.268Z</time></trkpt><trkpt lat="38.0904217" lon="14.9181233"><ele>847.0</ele><time>2026-05-03T08:50:16.268Z</time></trkpt><trkpt lat="38.0903483" lon="14.918065"><ele>847.0</ele><time>2026-05-03T08:50:17.268Z</time></trkpt><trkpt lat="38.0903017" lon="14.9179983"><ele>847.0</ele><time>2026-05-03T08:50:18.268Z</time></trkpt><trkpt lat="38.0902617" lon="14.91792"><ele>847.0</ele><time>2026-05-03T08:50:19.268Z</time></trkpt><trkpt lat="38.09024" lon="14.9178333"><ele>847.0</ele><time>2026-05-03T08:50:20.268Z</time></trkpt><trkpt lat="38.0902283" lon="14.9177483"><ele>847.0</ele><time>2026-05-03T08:50:21.268Z</time></trkpt><trkpt lat="38.0902267" lon="14.9176617"><ele>847.0</ele><time>2026-05-03T08:50:22.267Z</time></trkpt><trkpt lat="38.0902233" lon="14.9175667"><ele>847.0</ele><time>2026-05-03T08:50:23.268Z</time></trkpt><trkpt lat="38.0902133" lon="14.9174667"><ele>844.6666666666666</ele><time>2026-05-03T08:50:24.268Z</time></trkpt><trkpt lat="38.090185" lon="14.9173783"><ele>842.3333333333333</ele><time>2026-05-03T08:50:25.268Z</time></trkpt><trkpt lat="38.09014" lon="14.9172933"><ele>840.0</ele><time>2026-05-03T08:50:26.268Z</time></trkpt><trkpt lat="38.0900867" lon="14.9172217"><ele>837.6666666666667</ele><time>2026-05-03T08:50:27.268Z</time></trkpt><trkpt lat="38.090035" lon="14.917165"><ele>835.3333333333334</ele><time>2026-05-03T08:50:28.268Z</time></trkpt><trkpt lat="38.0899833" lon="14.9170633"><ele>833.0</ele><time>2026-05-03T08:50:30.268Z</time></trkpt><trkpt lat="38.089995" lon="14.916925"><ele>833.0000000000001</ele><time>2026-05-03T08:50:32.268Z</time></trkpt><trkpt lat="38.0900283" lon="14.9168383"><ele>833.0</ele><time>2026-05-03T08:50:33.268Z</time></trkpt><trkpt lat="38.09007" lon="14.9167417"><ele>833.0</ele><time>2026-05-03T08:50:34.268Z</time></trkpt><trkpt lat="38.090115" lon="14.91665"><ele>833.0</ele><time>2026-05-03T08:50:35.268Z</time></trkpt><trkpt lat="38.0901617" lon="14.9165667"><ele>833.0000000000001</ele><time>2026-05-03T08:50:36.268Z</time></trkpt><trkpt lat="38.0902133" lon="14.9165067"><ele>833.0</ele><time>2026-05-03T08:50:37.268Z</time></trkpt><trkpt lat="38.09032" lon="14.9164917"><ele>833.0000000000001</ele><time>2026-05-03T08:50:39.268Z</time></trkpt><trkpt lat="38.0903917" lon="14.9165133"><ele>833.0</ele><time>2026-05-03T08:50:40.268Z</time></trkpt><trkpt lat="38.0904717" lon="14.916555"><ele>833.0</ele><time>2026-05-03T08:50:41.267Z</time></trkpt><trkpt lat="38.0905483" lon="14.9166083"><ele>833.0</ele><time>2026-05-03T08:50:42.268Z</time></trkpt><trkpt lat="38.0906167" lon="14.9166667"><ele>833.0000000000001</ele><time>2026-05-03T08:50:43.268Z</time></trkpt><trkpt lat="38.09066" lon="14.9167383"><ele>833.0</ele><time>2026-05-03T08:50:44.268Z</time></trkpt><trkpt lat="38.0906883" lon="14.916895"><ele>833.0</ele><time>2026-05-03T08:50:46.268Z</time></trkpt><trkpt lat="38.0906983" lon="14.916975"><ele>833.0</ele><time>2026-05-03T08:50:47.268Z</time></trkpt><trkpt lat="38.0907283" lon="14.91711"><ele>833.0</ele><time>2026-05-03T08:50:49.268Z</time></trkpt><trkpt lat="38.0907483" lon="14.91725"><ele>833.0</ele><time>2026-05-03T08:50:51.268Z</time></trkpt><trkpt lat="38.0908067" lon="14.9173767"><ele>833.0</ele><time>2026-05-03T08:50:53.268Z</time></trkpt><trkpt lat="38.0908833" lon="14.917475"><ele>835.0</ele><time>2026-05-03T08:50:55.268Z</time></trkpt><trkpt lat="38.0909317" lon="14.917535"><ele>837.0</ele><time>2026-05-03T08:50:56.268Z</time></trkpt><trkpt lat="38.0910083" lon="14.9175917"><ele>839.0</ele><time>2026-05-03T08:50:57.268Z</time></trkpt><trkpt lat="38.091065" lon="14.9176467"><ele>841.0</ele><time>2026-05-03T08:50:58.268Z</time></trkpt><trkpt lat="38.0911817" lon="14.917675"><ele>843.0</ele><time>2026-05-03T08:51:00.268Z</time></trkpt><trkpt lat="38.091285" lon="14.917565"><ele>839.0</ele><time>2026-05-03T08:51:02.268Z</time></trkpt><trkpt lat="38.0913317" lon="14.917495"><ele>835.0</ele><time>2026-05-03T08:51:03.268Z</time></trkpt><trkpt lat="38.0913833" lon="14.9174383"><ele>831.0</ele><time>2026-05-03T08:51:04.268Z</time></trkpt><trkpt lat="38.09144" lon="14.9174017"><ele>827.0</ele><time>2026-05-03T08:51:05.268Z</time></trkpt><trkpt lat="38.0915083" lon="14.9173933"><ele>823.0</ele><time>2026-05-03T08:51:06.268Z</time></trkpt><trkpt lat="38.0915867" lon="14.91741"><ele>819.0</ele><time>2026-05-03T08:51:07.268Z</time></trkpt><trkpt lat="38.09167" lon="14.91745"><ele>815.0</ele><time>2026-05-03T08:51:08.268Z</time></trkpt><trkpt lat="38.0917433" lon="14.9175033"><ele>813.8571428571429</ele><time>2026-05-03T08:51:09.268Z</time></trkpt><trkpt lat="38.0918117" lon="14.9175683"><ele>812.7142857142857</ele><time>2026-05-03T08:51:10.268Z</time></trkpt><trkpt lat="38.0918717" lon="14.9176367"><ele>811.5714285714287</ele><time>2026-05-03T08:51:11.268Z</time></trkpt><trkpt lat="38.091925" lon="14.9176917"><ele>810.4285714285714</ele><time>2026-05-03T08:51:12.268Z</time></trkpt><trkpt lat="38.0919833" lon="14.9177283"><ele>809.2857142857143</ele><time>2026-05-03T08:51:13.268Z</time></trkpt><trkpt lat="38.092055" lon="14.917735"><ele>808.1428571428572</ele><time>2026-05-03T08:51:14.268Z</time></trkpt><trkpt lat="38.09213" lon="14.9177383"><ele>807.0</ele><time>2026-05-03T08:51:15.268Z</time></trkpt><trkpt lat="38.0922033" lon="14.9177367"><ele>812.8333333333334</ele><time>2026-05-03T08:51:16.268Z</time></trkpt><trkpt lat="38.0922767" lon="14.91777"><ele>818.6666666666667</ele><time>2026-05-03T08:51:17.268Z</time></trkpt><trkpt lat="38.0923517" lon="14.9178217"><ele>824.5</ele><time>2026-05-03T08:51:18.268Z</time></trkpt><trkpt lat="38.09241" lon="14.9178867"><ele>830.3333333333334</ele><time>2026-05-03T08:51:19.268Z</time></trkpt><trkpt lat="38.0924633" lon="14.9179433"><ele>836.1666666666667</ele><time>2026-05-03T08:51:20.268Z</time></trkpt><trkpt lat="38.0925567" lon="14.918005"><ele>842.0</ele><time>2026-05-03T08:51:22.268Z</time></trkpt><trkpt lat="38.09262" lon="14.918015"><ele>842.0</ele><time>2026-05-03T08:51:23.268Z</time></trkpt><trkpt lat="38.0927417" lon="14.9179717"><ele>842.0</ele><time>2026-05-03T08:51:25.268Z</time></trkpt><trkpt lat="38.092805" lon="14.9179317"><ele>842.0</ele><time>2026-05-03T08:51:26.267Z</time></trkpt><trkpt lat="38.0928933" lon="14.9178483"><ele>842.0</ele><time>2026-05-03T08:51:28.268Z</time></trkpt><trkpt lat="38.0928933" lon="14.9177067"><ele>842.0</ele><time>2026-05-03T08:51:30.268Z</time></trkpt><trkpt lat="38.0928667" lon="14.917605"><ele>834.0</ele><time>2026-05-03T08:51:31.268Z</time></trkpt><trkpt lat="38.09284" lon="14.9174933"><ele>826.0</ele><time>2026-05-03T08:51:32.268Z</time></trkpt><trkpt lat="38.0928283" lon="14.91738"><ele>818.0</ele><time>2026-05-03T08:51:33.268Z</time></trkpt><trkpt lat="38.0928133" lon="14.9171967"><ele>810.0</ele><time>2026-05-03T08:51:35.268Z</time></trkpt><trkpt lat="38.092805" lon="14.9170917"><ele>802.0</ele><time>2026-05-03T08:51:36.268Z</time></trkpt><trkpt lat="38.0928117" lon="14.9170083"><ele>802.0</ele><time>2026-05-03T08:51:37.268Z</time></trkpt><trkpt lat="38.0928433" lon="14.9169267"><ele>802.0</ele><time>2026-05-03T08:51:38.268Z</time></trkpt><trkpt lat="38.0928967" lon="14.9168533"><ele>802.0</ele><time>2026-05-03T08:51:39.268Z</time></trkpt><trkpt lat="38.0929583" lon="14.91679"><ele>802.0</ele><time>2026-05-03T08:51:40.268Z</time></trkpt><trkpt lat="38.0930017" lon="14.9167183"><ele>802.0</ele><time>2026-05-03T08:51:41.268Z</time></trkpt><trkpt lat="38.09302" lon="14.9166367"><ele>802.0</ele><time>2026-05-03T08:51:42.268Z</time></trkpt><trkpt lat="38.09303" lon="14.9165567"><ele>802.0</ele><time>2026-05-03T08:51:43.268Z</time></trkpt><trkpt lat="38.0930533" lon="14.9164717"><ele>797.4999999999999</ele><time>2026-05-03T08:51:44.268Z</time></trkpt><trkpt lat="38.093085" lon="14.9163767"><ele>793.0</ele><time>2026-05-03T08:51:45.268Z</time></trkpt><trkpt lat="38.093105" lon="14.9162717"><ele>788.5</ele><time>2026-05-03T08:51:46.268Z</time></trkpt><trkpt lat="38.0931117" lon="14.9161833"><ele>784.0</ele><time>2026-05-03T08:51:47.268Z</time></trkpt><trkpt lat="38.09311" lon="14.916055"><ele>779.4999999999999</ele><time>2026-05-03T08:51:49.268Z</time></trkpt><trkpt lat="38.0931467" lon="14.9159717"><ele>775.0</ele><time>2026-05-03T08:51:51.268Z</time></trkpt><trkpt lat="38.093205" lon="14.9158183"><ele>777.2</ele><time>2026-05-03T08:51:53.268Z</time></trkpt><trkpt lat="38.0932167" lon="14.9157267"><ele>779.4</ele><time>2026-05-03T08:51:54.268Z</time></trkpt><trkpt lat="38.09323" lon="14.915575"><ele>781.5999999999999</ele><time>2026-05-03T08:51:56.268Z</time></trkpt><trkpt lat="38.0932967" lon="14.91546"><ele>783.8</ele><time>2026-05-03T08:51:58.268Z</time></trkpt><trkpt lat="38.0933483" lon="14.9154033"><ele>786.0</ele><time>2026-05-03T08:51:59.267Z</time></trkpt><trkpt lat="38.0934133" lon="14.9153483"><ele>786.0</ele><time>2026-05-03T08:52:00.268Z</time></trkpt><trkpt lat="38.0935017" lon="14.91527"><ele>786.0</ele><time>2026-05-03T08:52:02.268Z</time></trkpt><trkpt lat="38.09356" lon="14.91531"><ele>786.0</ele><time>2026-05-03T08:52:05.268Z</time></trkpt><trkpt lat="38.0935917" lon="14.91538"><ele>786.0</ele><time>2026-05-03T08:52:08.267Z</time></trkpt><trkpt lat="38.0936133" lon="14.915465"><ele>786.0</ele><time>2026-05-03T08:52:11.268Z</time></trkpt><trkpt lat="38.0936583" lon="14.915545"><ele>786.0</ele><time>2026-05-03T08:52:14.268Z</time></trkpt><trkpt lat="38.0937183" lon="14.9155767"><ele>786.0</ele><time>2026-05-03T08:52:16.268Z</time></trkpt><trkpt lat="38.0938133" lon="14.9156033"><ele>786.0</ele><time>2026-05-03T08:52:19.268Z</time></trkpt><trkpt lat="38.093885" lon="14.9156267"><ele>786.0</ele><time>2026-05-03T08:52:21.268Z</time></trkpt><trkpt lat="38.0939333" lon="14.915685"><ele>786.0</ele><time>2026-05-03T08:52:23.268Z</time></trkpt><trkpt lat="38.0939883" lon="14.91578"><ele>786.0</ele><time>2026-05-03T08:52:26.268Z</time></trkpt><trkpt lat="38.094025" lon="14.9158617"><ele>786.0</ele><time>2026-05-03T08:52:28.267Z</time></trkpt><trkpt lat="38.0940617" lon="14.915935"><ele>784.0</ele><time>2026-05-03T08:52:30.268Z</time></trkpt><trkpt lat="38.094115" lon="14.9159967"><ele>782.0</ele><time>2026-05-03T08:52:32.268Z</time></trkpt><trkpt lat="38.094185" lon="14.9160333"><ele>780.0</ele><time>2026-05-03T08:52:34.268Z</time></trkpt><trkpt lat="38.094245" lon="14.9159817"><ele>778.0</ele><time>2026-05-03T08:52:36.268Z</time></trkpt><trkpt lat="38.0943133" lon="14.91588"><ele>776.0</ele><time>2026-05-03T08:52:38.268Z</time></trkpt><trkpt lat="38.0943933" lon="14.9158267"><ele>774.0</ele><time>2026-05-03T08:52:40.268Z</time></trkpt><trkpt lat="38.09448" lon="14.9158233"><ele>774.0</ele><time>2026-05-03T08:52:42.268Z</time></trkpt><trkpt lat="38.0945617" lon="14.9158017"><ele>774.0</ele><time>2026-05-03T08:52:44.268Z</time></trkpt><trkpt lat="38.0946267" lon="14.9157583"><ele>774.0</ele><time>2026-05-03T08:52:46.268Z</time></trkpt><trkpt lat="38.0946883" lon="14.9157067"><ele>774.0</ele><time>2026-05-03T08:52:48.268Z</time></trkpt><trkpt lat="38.0946833" lon="14.9155867"><ele>774.0</ele><time>2026-05-03T08:52:51.267Z</time></trkpt><trkpt lat="38.0946517" lon="14.915505"><ele>774.0</ele><time>2026-05-03T08:52:52.268Z</time></trkpt><trkpt lat="38.094625" lon="14.9154117"><ele>774.0</ele><time>2026-05-03T08:52:53.267Z</time></trkpt><trkpt lat="38.094605" lon="14.9153067"><ele>774.0</ele><time>2026-05-03T08:52:54.268Z</time></trkpt><trkpt lat="38.0945967" lon="14.9152217"><ele>774.0</ele><time>2026-05-03T08:52:55.267Z</time></trkpt><trkpt lat="38.09458" lon="14.91514"><ele>774.0</ele><time>2026-05-03T08:52:56.268Z</time></trkpt><trkpt lat="38.0945517" lon="14.9150583"><ele>774.0</ele><time>2026-05-03T08:52:57.268Z</time></trkpt><trkpt lat="38.094515" lon="14.9149867"><ele>774.0</ele><time>2026-05-03T08:52:58.268Z</time></trkpt><trkpt lat="38.0944517" lon="14.9148667"><ele>770.8333333333334</ele><time>2026-05-03T08:53:00.268Z</time></trkpt><trkpt lat="38.09442" lon="14.9147867"><ele>767.6666666666666</ele><time>2026-05-03T08:53:01.268Z</time></trkpt><trkpt lat="38.09441" lon="14.9146917"><ele>764.5</ele><time>2026-05-03T08:53:02.268Z</time></trkpt><trkpt lat="38.0944117" lon="14.91459"><ele>761.3333333333333</ele><time>2026-05-03T08:53:03.268Z</time></trkpt><trkpt lat="38.0944217" lon="14.91448"><ele>758.1666666666666</ele><time>2026-05-03T08:53:04.268Z</time></trkpt><trkpt lat="38.0944233" lon="14.9143783"><ele>755.0</ele><time>2026-05-03T08:53:05.268Z</time></trkpt><trkpt lat="38.0944233" lon="14.91428"><ele>752.3333333333333</ele><time>2026-05-03T08:53:06.268Z</time></trkpt><trkpt lat="38.094425" lon="14.9141783"><ele>749.6666666666666</ele><time>2026-05-03T08:53:07.268Z</time></trkpt><trkpt lat="38.0944417" lon="14.914085"><ele>747.0</ele><time>2026-05-03T08:53:08.268Z</time></trkpt><trkpt lat="38.0944633" lon="14.913995"><ele>744.3333333333334</ele><time>2026-05-03T08:53:09.268Z</time></trkpt><trkpt lat="38.0944933" lon="14.91391"><ele>741.6666666666667</ele><time>2026-05-03T08:53:10.268Z</time></trkpt><trkpt lat="38.0945417" lon="14.913775"><ele>739.0</ele><time>2026-05-03T08:53:12.268Z</time></trkpt><trkpt lat="38.0945683" lon="14.9136017"><ele>739.0</ele><time>2026-05-03T08:53:14.267Z</time></trkpt><trkpt lat="38.09458" lon="14.9134983"><ele>739.0</ele><time>2026-05-03T08:53:15.268Z</time></trkpt><trkpt lat="38.0945917" lon="14.9133967"><ele>739.0</ele><time>2026-05-03T08:53:16.268Z</time></trkpt><trkpt lat="38.094615" lon="14.9132983"><ele>739.0</ele><time>2026-05-03T08:53:17.268Z</time></trkpt><trkpt lat="38.0946367" lon="14.9132117"><ele>739.0</ele><time>2026-05-03T08:53:18.268Z</time></trkpt><trkpt lat="38.094655" lon="14.9131333"><ele>739.0</ele><time>2026-05-03T08:53:19.268Z</time></trkpt><trkpt lat="38.0946717" lon="14.913055"><ele>739.0</ele><time>2026-05-03T08:53:20.268Z</time></trkpt><trkpt lat="38.09469" lon="14.9129733"><ele>738.3333333333334</ele><time>2026-05-03T08:53:21.268Z</time></trkpt><trkpt lat="38.0947083" lon="14.9128883"><ele>737.6666666666667</ele><time>2026-05-03T08:53:22.268Z</time></trkpt><trkpt lat="38.0947283" lon="14.912805"><ele>737.0</ele><time>2026-05-03T08:53:23.268Z</time></trkpt><trkpt lat="38.0947533" lon="14.9127067"><ele>736.3333333333334</ele><time>2026-05-03T08:53:24.268Z</time></trkpt><trkpt lat="38.09479" lon="14.91258"><ele>735.6666666666666</ele><time>2026-05-03T08:53:25.268Z</time></trkpt><trkpt lat="38.0948367" lon="14.9124417"><ele>735.0</ele><time>2026-05-03T08:53:26.268Z</time></trkpt><trkpt lat="38.09489" lon="14.9123067"><ele>739.8</ele><time>2026-05-03T08:53:27.268Z</time></trkpt><trkpt lat="38.0949383" lon="14.91218"><ele>744.6</ele><time>2026-05-03T08:53:28.268Z</time></trkpt><trkpt lat="38.0949867" lon="14.9120717"><ele>749.4000000000001</ele><time>2026-05-03T08:53:29.268Z</time></trkpt><trkpt lat="38.0950383" lon="14.911965"><ele>754.2</ele><time>2026-05-03T08:53:30.268Z</time></trkpt><trkpt lat="38.0951067" lon="14.9118783"><ele>759.0</ele><time>2026-05-03T08:53:31.268Z</time></trkpt><trkpt lat="38.0951933" lon="14.9118133"><ele>759.0</ele><time>2026-05-03T08:53:32.268Z</time></trkpt><trkpt lat="38.0952817" lon="14.9117633"><ele>759.0</ele><time>2026-05-03T08:53:33.268Z</time></trkpt><trkpt lat="38.0953567" lon="14.9117167"><ele>759.0</ele><time>2026-05-03T08:53:34.268Z</time></trkpt><trkpt lat="38.09542" lon="14.9116833"><ele>759.0</ele><time>2026-05-03T08:53:35.268Z</time></trkpt><trkpt lat="38.0955017" lon="14.9115717"><ele>759.0</ele><time>2026-05-03T08:53:37.269Z</time></trkpt><trkpt lat="38.0955083" lon="14.9114733"><ele>759.0</ele><time>2026-05-03T08:53:38.269Z</time></trkpt><trkpt lat="38.0954933" lon="14.9113283"><ele>754.0</ele><time>2026-05-03T08:53:39.269Z</time></trkpt><trkpt lat="38.0954833" lon="14.9111483"><ele>749.0</ele><time>2026-05-03T08:53:40.269Z</time></trkpt><trkpt lat="38.0954733" lon="14.91099"><ele>744.0</ele><time>2026-05-03T08:53:41.269Z</time></trkpt><trkpt lat="38.09545" lon="14.9108383"><ele>739.0</ele><time>2026-05-03T08:53:42.269Z</time></trkpt><trkpt lat="38.0954117" lon="14.91067"><ele>736.0</ele><time>2026-05-03T08:53:43.269Z</time></trkpt><trkpt lat="38.09535" lon="14.9105017"><ele>733.0</ele><time>2026-05-03T08:53:44.269Z</time></trkpt><trkpt lat="38.0952917" lon="14.91035"><ele>730.0</ele><time>2026-05-03T08:53:45.269Z</time></trkpt><trkpt lat="38.0952367" lon="14.910215"><ele>727.0</ele><time>2026-05-03T08:53:46.269Z</time></trkpt><trkpt lat="38.0951833" lon="14.9101"><ele>729.2</ele><time>2026-05-03T08:53:47.269Z</time></trkpt><trkpt lat="38.0951383" lon="14.9099833"><ele>731.4000000000001</ele><time>2026-05-03T08:53:48.269Z</time></trkpt><trkpt lat="38.0951017" lon="14.90984"><ele>733.5999999999999</ele><time>2026-05-03T08:53:49.269Z</time></trkpt><trkpt lat="38.09507" lon="14.9097067"><ele>735.8</ele><time>2026-05-03T08:53:50.269Z</time></trkpt><trkpt lat="38.095045" lon="14.90958"><ele>738.0</ele><time>2026-05-03T08:53:51.269Z</time></trkpt><trkpt lat="38.0950267" lon="14.9094683"><ele>738.0</ele><time>2026-05-03T08:53:52.269Z</time></trkpt><trkpt lat="38.0950133" lon="14.9093683"><ele>738.0</ele><time>2026-05-03T08:53:53.268Z</time></trkpt><trkpt lat="38.0950217" lon="14.90927"><ele>738.0</ele><time>2026-05-03T08:53:54.269Z</time></trkpt><trkpt lat="38.09504" lon="14.90916"><ele>738.0</ele><time>2026-05-03T08:53:55.269Z</time></trkpt><trkpt lat="38.0950733" lon="14.9090583"><ele>738.0</ele><time>2026-05-03T08:53:56.268Z</time></trkpt><trkpt lat="38.0951183" lon="14.90895"><ele>738.0</ele><time>2026-05-03T08:53:57.269Z</time></trkpt><trkpt lat="38.09516" lon="14.908855"><ele>738.5</ele><time>2026-05-03T08:53:58.269Z</time></trkpt><trkpt lat="38.0952233" lon="14.9087617"><ele>739.0</ele><time>2026-05-03T08:53:59.269Z</time></trkpt><trkpt lat="38.09531" lon="14.908665"><ele>739.5</ele><time>2026-05-03T08:54:00.269Z</time></trkpt><trkpt lat="38.0954117" lon="14.9085517"><ele>740.0</ele><time>2026-05-03T08:54:01.268Z</time></trkpt><trkpt lat="38.0955017" lon="14.9084367"><ele>741.5</ele><time>2026-05-03T08:54:02.269Z</time></trkpt><trkpt lat="38.0956033" lon="14.9083533"><ele>743.0</ele><time>2026-05-03T08:54:03.269Z</time></trkpt><trkpt lat="38.0956883" lon="14.908265"><ele>744.5</ele><time>2026-05-03T08:54:04.269Z</time></trkpt><trkpt lat="38.0957583" lon="14.9081483"><ele>746.0</ele><time>2026-05-03T08:54:05.269Z</time></trkpt><trkpt lat="38.09581" lon="14.9080217"><ele>746.0</ele><time>2026-05-03T08:54:06.269Z</time></trkpt><trkpt lat="38.095835" lon="14.9078833"><ele>746.0</ele><time>2026-05-03T08:54:07.269Z</time></trkpt><trkpt lat="38.0958367" lon="14.9077367"><ele>746.0</ele><time>2026-05-03T08:54:08.269Z</time></trkpt><trkpt lat="38.0958217" lon="14.9076083"><ele>746.0</ele><time>2026-05-03T08:54:09.269Z</time></trkpt><trkpt lat="38.095775" lon="14.907465"><ele>739.5</ele><time>2026-05-03T08:54:10.269Z</time></trkpt><trkpt lat="38.095725" lon="14.907315"><ele>733.0</ele><time>2026-05-03T08:54:11.269Z</time></trkpt><trkpt lat="38.0956767" lon="14.90717"><ele>726.5</ele><time>2026-05-03T08:54:12.269Z</time></trkpt><trkpt lat="38.0956417" lon="14.90703"><ele>720.0</ele><time>2026-05-03T08:54:13.269Z</time></trkpt><trkpt lat="38.0956133" lon="14.9068967"><ele>720.0</ele><time>2026-05-03T08:54:14.269Z</time></trkpt><trkpt lat="38.0956033" lon="14.906745"><ele>720.0</ele><time>2026-05-03T08:54:15.269Z</time></trkpt><trkpt lat="38.0956033" lon="14.90659"><ele>720.0</ele><time>2026-05-03T08:54:16.269Z</time></trkpt><trkpt lat="38.0956117" lon="14.9064533"><ele>720.0</ele><time>2026-05-03T08:54:17.269Z</time></trkpt><trkpt lat="38.0956517" lon="14.9063117"><ele>720.8</ele><time>2026-05-03T08:54:18.269Z</time></trkpt><trkpt lat="38.0957133" lon="14.9061567"><ele>721.6</ele><time>2026-05-03T08:54:19.269Z</time></trkpt><trkpt lat="38.0957667" lon="14.9060267"><ele>722.4000000000001</ele><time>2026-05-03T08:54:20.269Z</time></trkpt><trkpt lat="38.095805" lon="14.9059133"><ele>723.2</ele><time>2026-05-03T08:54:21.269Z</time></trkpt><trkpt lat="38.0958333" lon="14.9058033"><ele>724.0</ele><time>2026-05-03T08:54:22.269Z</time></trkpt><trkpt lat="38.0958483" lon="14.9057083"><ele>724.0</ele><time>2026-05-03T08:54:23.269Z</time></trkpt><trkpt lat="38.0958483" lon="14.905605"><ele>724.0</ele><time>2026-05-03T08:54:24.269Z</time></trkpt><trkpt lat="38.0958267" lon="14.9055033"><ele>724.0</ele><time>2026-05-03T08:54:25.269Z</time></trkpt><trkpt lat="38.0958017" lon="14.9054133"><ele>724.0</ele><time>2026-05-03T08:54:26.269Z</time></trkpt><trkpt lat="38.095775" lon="14.9053333"><ele>724.0</ele><time>2026-05-03T08:54:27.269Z</time></trkpt><trkpt lat="38.0957367" lon="14.9052467"><ele>724.0</ele><time>2026-05-03T08:54:28.269Z</time></trkpt><trkpt lat="38.0956983" lon="14.9051633"><ele>722.6666666666667</ele><time>2026-05-03T08:54:29.269Z</time></trkpt><trkpt lat="38.09566" lon="14.9050433"><ele>721.3333333333334</ele><time>2026-05-03T08:54:31.269Z</time></trkpt><trkpt lat="38.0956144" lon="14.9051086"><ele>720.0</ele><time>2026-05-03T08:56:31.269Z</time></trkpt><trkpt lat="38.0956535" lon="14.905043"><ele>718.6666666666666</ele><time>2026-05-03T09:05:22.27Z</time></trkpt><trkpt lat="38.0956633" lon="14.905145"><ele>717.3333333333333</ele><time>2026-05-03T09:07:33.27Z</time></trkpt><trkpt lat="38.09568" lon="14.905235"><ele>716.0</ele><time>2026-05-03T09:07:36.27Z</time></trkpt><trkpt lat="38.09569" lon="14.90532"><ele>715.4</ele><time>2026-05-03T09:07:38.27Z</time></trkpt><trkpt lat="38.095705" lon="14.9054183"><ele>714.8</ele><time>2026-05-03T09:07:40.27Z</time></trkpt><trkpt lat="38.0957483" lon="14.90553"><ele>714.1999999999999</ele><time>2026-05-03T09:07:43.27Z</time></trkpt><trkpt lat="38.0958267" lon="14.9056333"><ele>713.5999999999999</ele><time>2026-05-03T09:07:45.269Z</time></trkpt><trkpt lat="38.0958983" lon="14.9056717"><ele>713.0</ele><time>2026-05-03T09:07:46.27Z</time></trkpt><trkpt lat="38.0959983" lon="14.90568"><ele>715.75</ele><time>2026-05-03T09:07:47.27Z</time></trkpt><trkpt lat="38.09613" lon="14.9056833"><ele>718.5</ele><time>2026-05-03T09:07:48.27Z</time></trkpt><trkpt lat="38.0962567" lon="14.90573"><ele>721.25</ele><time>2026-05-03T09:07:49.27Z</time></trkpt><trkpt lat="38.096365" lon="14.9058067"><ele>724.0</ele><time>2026-05-03T09:07:50.27Z</time></trkpt><trkpt lat="38.0964633" lon="14.90589"><ele>724.5</ele><time>2026-05-03T09:07:51.27Z</time></trkpt><trkpt lat="38.0965633" lon="14.90594"><ele>725.0</ele><time>2026-05-03T09:07:52.27Z</time></trkpt><trkpt lat="38.0966717" lon="14.9059383"><ele>725.5</ele><time>2026-05-03T09:07:53.27Z</time></trkpt><trkpt lat="38.0967883" lon="14.9059117"><ele>726.0</ele><time>2026-05-03T09:07:54.27Z</time></trkpt><trkpt lat="38.0969117" lon="14.9058717"><ele>726.0</ele><time>2026-05-03T09:07:55.27Z</time></trkpt><trkpt lat="38.0970333" lon="14.90584"><ele>726.0</ele><time>2026-05-03T09:07:56.27Z</time></trkpt><trkpt lat="38.09717" lon="14.9058283"><ele>726.0</ele><time>2026-05-03T09:07:57.27Z</time></trkpt><trkpt lat="38.0972983" lon="14.9058267"><ele>726.0</ele><time>2026-05-03T09:07:58.27Z</time></trkpt><trkpt lat="38.097435" lon="14.9058067"><ele>727.1999999999999</ele><time>2026-05-03T09:07:59.27Z</time></trkpt><trkpt lat="38.0975633" lon="14.9057883"><ele>728.4</ele><time>2026-05-03T09:08:00.27Z</time></trkpt><trkpt lat="38.0976717" lon="14.9057933"><ele>729.6</ele><time>2026-05-03T09:08:01.27Z</time></trkpt><trkpt lat="38.0977633" lon="14.9058317"><ele>730.8</ele><time>2026-05-03T09:08:02.269Z</time></trkpt><trkpt lat="38.0978417" lon="14.9059067"><ele>732.0</ele><time>2026-05-03T09:08:03.27Z</time></trkpt><trkpt lat="38.0979017" lon="14.9060117"><ele>736.6</ele><time>2026-05-03T09:08:04.27Z</time></trkpt><trkpt lat="38.0979433" lon="14.9061233"><ele>741.2</ele><time>2026-05-03T09:08:05.27Z</time></trkpt><trkpt lat="38.0979817" lon="14.906225"><ele>745.8</ele><time>2026-05-03T09:08:06.27Z</time></trkpt><trkpt lat="38.0980667" lon="14.9063267"><ele>750.4</ele><time>2026-05-03T09:08:08.27Z</time></trkpt><trkpt lat="38.098175" lon="14.9063217"><ele>755.0</ele><time>2026-05-03T09:08:10.27Z</time></trkpt><trkpt lat="38.0982417" lon="14.9062517"><ele>756.25</ele><time>2026-05-03T09:08:11.27Z</time></trkpt><trkpt lat="38.0983183" lon="14.9061617"><ele>757.5</ele><time>2026-05-03T09:08:12.27Z</time></trkpt><trkpt lat="38.098405" lon="14.9060567"><ele>758.75</ele><time>2026-05-03T09:08:13.27Z</time></trkpt><trkpt lat="38.098495" lon="14.9059583"><ele>760.0</ele><time>2026-05-03T09:08:14.27Z</time></trkpt><trkpt lat="38.0985933" lon="14.9058933"><ele>760.0</ele><time>2026-05-03T09:08:15.27Z</time></trkpt><trkpt lat="38.0987" lon="14.9058633"><ele>760.0</ele><time>2026-05-03T09:08:16.27Z</time></trkpt><trkpt lat="38.098805" lon="14.9058683"><ele>760.0</ele><time>2026-05-03T09:08:17.27Z</time></trkpt><trkpt lat="38.0989067" lon="14.90592"><ele>760.0</ele><time>2026-05-03T09:08:18.27Z</time></trkpt><trkpt lat="38.09899" lon="14.9060017"><ele>760.0</ele><time>2026-05-03T09:08:19.27Z</time></trkpt><trkpt lat="38.0990667" lon="14.9061133"><ele>759.5</ele><time>2026-05-03T09:08:20.27Z</time></trkpt><trkpt lat="38.0991467" lon="14.9062583"><ele>759.0</ele><time>2026-05-03T09:08:21.27Z</time></trkpt><trkpt lat="38.0992333" lon="14.906385"><ele>758.5</ele><time>2026-05-03T09:08:22.27Z</time></trkpt><trkpt lat="38.0993117" lon="14.9064733"><ele>758.0</ele><time>2026-05-03T09:08:23.27Z</time></trkpt><trkpt lat="38.0993917" lon="14.906535"><ele>758.0</ele><time>2026-05-03T09:08:24.27Z</time></trkpt><trkpt lat="38.09945" lon="14.9065783"><ele>758.0</ele><time>2026-05-03T09:08:25.27Z</time></trkpt><trkpt lat="38.0995" lon="14.9066367"><ele>758.0</ele><time>2026-05-03T09:08:27.27Z</time></trkpt><trkpt lat="38.099415" lon="14.9065783"><ele>758.0</ele><time>2026-05-03T09:08:30.27Z</time></trkpt><trkpt lat="38.0992833" lon="14.9065167"><ele>758.0</ele><time>2026-05-03T09:08:31.27Z</time></trkpt><trkpt lat="38.099165" lon="14.9064767"><ele>758.4</ele><time>2026-05-03T09:08:32.271Z</time></trkpt><trkpt lat="38.0990533" lon="14.9064667"><ele>758.8</ele><time>2026-05-03T09:08:33.271Z</time></trkpt><trkpt lat="38.0989483" lon="14.9064867"><ele>759.2</ele><time>2026-05-03T09:08:34.271Z</time></trkpt><trkpt lat="38.0988567" lon="14.9065267"><ele>759.6</ele><time>2026-05-03T09:08:35.271Z</time></trkpt><trkpt lat="38.098765" lon="14.906575"><ele>760.0</ele><time>2026-05-03T09:08:36.271Z</time></trkpt><trkpt lat="38.098685" lon="14.9066317"><ele>760.0</ele><time>2026-05-03T09:08:37.271Z</time></trkpt><trkpt lat="38.0986117" lon="14.9067"><ele>760.0</ele><time>2026-05-03T09:08:38.271Z</time></trkpt><trkpt lat="38.0985567" lon="14.906765"><ele>760.0</ele><time>2026-05-03T09:08:39.271Z</time></trkpt><trkpt lat="38.0985067" lon="14.9068333"><ele>760.0</ele><time>2026-05-03T09:08:40.271Z</time></trkpt><trkpt lat="38.0984483" lon="14.9068967"><ele>760.0</ele><time>2026-05-03T09:08:41.271Z</time></trkpt><trkpt lat="38.09838" lon="14.9069633"><ele>760.0</ele><time>2026-05-03T09:08:42.271Z</time></trkpt><trkpt lat="38.0983183" lon="14.9070533"><ele>762.75</ele><time>2026-05-03T09:08:43.271Z</time></trkpt><trkpt lat="38.0982517" lon="14.90715"><ele>765.5</ele><time>2026-05-03T09:08:44.271Z</time></trkpt><trkpt lat="38.0981933" lon="14.9072733"><ele>768.25</ele><time>2026-05-03T09:08:45.271Z</time></trkpt><trkpt lat="38.0981367" lon="14.9074083"><ele>771.0</ele><time>2026-05-03T09:08:46.271Z</time></trkpt><trkpt lat="38.0980817" lon="14.9075733"><ele>774.5</ele><time>2026-05-03T09:08:47.27Z</time></trkpt><trkpt lat="38.0980233" lon="14.90775"><ele>778.0</ele><time>2026-05-03T09:08:48.271Z</time></trkpt><trkpt lat="38.09797" lon="14.90791"><ele>781.5</ele><time>2026-05-03T09:08:49.271Z</time></trkpt><trkpt lat="38.0979217" lon="14.9080283"><ele>785.0</ele><time>2026-05-03T09:08:50.271Z</time></trkpt><trkpt lat="38.0978633" lon="14.9081233"><ele>785.0</ele><time>2026-05-03T09:08:51.271Z</time></trkpt><trkpt lat="38.0978183" lon="14.908195"><ele>785.0</ele><time>2026-05-03T09:08:52.271Z</time></trkpt><trkpt lat="38.0978117" lon="14.908315"><ele>785.0</ele><time>2026-05-03T09:08:54.271Z</time></trkpt><trkpt lat="38.0979183" lon="14.9083883"><ele>785.0</ele><time>2026-05-03T09:08:56.271Z</time></trkpt><trkpt lat="38.0980083" lon="14.9084233"><ele>785.0</ele><time>2026-05-03T09:08:57.271Z</time></trkpt><trkpt lat="38.0980883" lon="14.9084917"><ele>787.8</ele><time>2026-05-03T09:08:58.271Z</time></trkpt><trkpt lat="38.09816" lon="14.9085817"><ele>790.6</ele><time>2026-05-03T09:08:59.271Z</time></trkpt><trkpt lat="38.0981883" lon="14.9086767"><ele>793.4000000000001</ele><time>2026-05-03T09:09:00.271Z</time></trkpt><trkpt lat="38.0981483" lon="14.9088267"><ele>796.2</ele><time>2026-05-03T09:09:02.271Z</time></trkpt><trkpt lat="38.0980983" lon="14.9089017"><ele>799.0</ele><time>2026-05-03T09:09:03.271Z</time></trkpt><trkpt lat="38.0980483" lon="14.908995"><ele>799.0</ele><time>2026-05-03T09:09:04.271Z</time></trkpt><trkpt lat="38.0980033" lon="14.9090833"><ele>799.0</ele><time>2026-05-03T09:09:05.27Z</time></trkpt><trkpt lat="38.0979533" lon="14.9091883"><ele>799.0</ele><time>2026-05-03T09:09:06.271Z</time></trkpt><trkpt lat="38.0978917" lon="14.9092967"><ele>799.0</ele><time>2026-05-03T09:09:07.271Z</time></trkpt><trkpt lat="38.0978367" lon="14.9094283"><ele>799.0</ele><time>2026-05-03T09:09:08.271Z</time></trkpt><trkpt lat="38.0977817" lon="14.9095617"><ele>801.6</ele><time>2026-05-03T09:09:09.271Z</time></trkpt><trkpt lat="38.0977367" lon="14.9097017"><ele>804.2</ele><time>2026-05-03T09:09:10.271Z</time></trkpt><trkpt lat="38.0976933" lon="14.909835"><ele>806.8000000000001</ele><time>2026-05-03T09:09:11.271Z</time></trkpt><trkpt lat="38.0976367" lon="14.90994"><ele>809.4000000000001</ele><time>2026-05-03T09:09:12.271Z</time></trkpt><trkpt lat="38.0975783" lon="14.9100483"><ele>812.0</ele><time>2026-05-03T09:09:13.271Z</time></trkpt><trkpt lat="38.0975317" lon="14.9101567"><ele>814.1666666666667</ele><time>2026-05-03T09:09:14.271Z</time></trkpt><trkpt lat="38.0974883" lon="14.9102517"><ele>816.3333333333334</ele><time>2026-05-03T09:09:15.271Z</time></trkpt><trkpt lat="38.0974467" lon="14.9103317"><ele>818.5</ele><time>2026-05-03T09:09:16.271Z</time></trkpt><trkpt lat="38.097415" lon="14.91041"><ele>820.6666666666667</ele><time>2026-05-03T09:09:17.271Z</time></trkpt><trkpt lat="38.0974" lon="14.9105"><ele>822.8333333333334</ele><time>2026-05-03T09:09:18.271Z</time></trkpt><trkpt lat="38.0974517" lon="14.9106067"><ele>825.0</ele><time>2026-05-03T09:09:20.271Z</time></trkpt><trkpt lat="38.0975383" lon="14.910565"><ele>825.0</ele><time>2026-05-03T09:09:22.271Z</time></trkpt><trkpt lat="38.097595" lon="14.9105233"><ele>825.0</ele><time>2026-05-03T09:09:23.271Z</time></trkpt><trkpt lat="38.0976967" lon="14.910545"><ele>825.0</ele><time>2026-05-03T09:09:25.271Z</time></trkpt><trkpt lat="38.0977717" lon="14.910605"><ele>825.0</ele><time>2026-05-03T09:09:27.271Z</time></trkpt><trkpt lat="38.09787" lon="14.9106017"><ele>825.0</ele><time>2026-05-03T09:09:29.271Z</time></trkpt><trkpt lat="38.0979817" lon="14.9105667"><ele>825.0</ele><time>2026-05-03T09:09:31.271Z</time></trkpt><trkpt lat="38.0980517" lon="14.9105467"><ele>825.0</ele><time>2026-05-03T09:09:32.27Z</time></trkpt><trkpt lat="38.0981333" lon="14.910515"><ele>825.0</ele><time>2026-05-03T09:09:33.271Z</time></trkpt><trkpt lat="38.0982267" lon="14.910475"><ele>825.0</ele><time>2026-05-03T09:09:34.271Z</time></trkpt><trkpt lat="38.098325" lon="14.9104317"><ele>825.0</ele><time>2026-05-03T09:09:35.271Z</time></trkpt><trkpt lat="38.09843" lon="14.91039"><ele>828.0</ele><time>2026-05-03T09:09:36.271Z</time></trkpt><trkpt lat="38.09853" lon="14.9103583"><ele>831.0</ele><time>2026-05-03T09:09:37.271Z</time></trkpt><trkpt lat="38.09861" lon="14.9103317"><ele>834.0</ele><time>2026-05-03T09:09:38.27Z</time></trkpt><trkpt lat="38.0986933" lon="14.9103083"><ele>837.0</ele><time>2026-05-03T09:09:39.271Z</time></trkpt><trkpt lat="38.0987733" lon="14.910245"><ele>840.0</ele><time>2026-05-03T09:09:40.271Z</time></trkpt><trkpt lat="38.09884" lon="14.91019"><ele>843.0</ele><time>2026-05-03T09:09:41.271Z</time></trkpt><trkpt lat="38.0988983" lon="14.9101467"><ele>843.0</ele><time>2026-05-03T09:09:42.271Z</time></trkpt><trkpt lat="38.098975" lon="14.9100767"><ele>843.0</ele><time>2026-05-03T09:09:44.271Z</time></trkpt><trkpt lat="38.0990283" lon="14.91003"><ele>843.0</ele><time>2026-05-03T09:09:46.271Z</time></trkpt><trkpt lat="38.0991067" lon="14.9099783"><ele>843.0</ele><time>2026-05-03T09:09:48.271Z</time></trkpt><trkpt lat="38.0992" lon="14.909935"><ele>843.0</ele><time>2026-05-03T09:09:50.271Z</time></trkpt><trkpt lat="38.0992883" lon="14.909935"><ele>843.0</ele><time>2026-05-03T09:09:52.271Z</time></trkpt><trkpt lat="38.0993667" lon="14.9099717"><ele>842.5999999999999</ele><time>2026-05-03T09:09:54.271Z</time></trkpt><trkpt lat="38.09945" lon="14.91006"><ele>842.1999999999999</ele><time>2026-05-03T09:09:56.271Z</time></trkpt><trkpt lat="38.0995333" lon="14.9101183"><ele>841.8</ele><time>2026-05-03T09:09:58.271Z</time></trkpt><trkpt lat="38.0995767" lon="14.9101833"><ele>841.4</ele><time>2026-05-03T09:10:00.271Z</time></trkpt><trkpt lat="38.09961" lon="14.9102933"><ele>841.0</ele><time>2026-05-03T09:10:02.271Z</time></trkpt><trkpt lat="38.09968" lon="14.910405"><ele>843.8333333333333</ele><time>2026-05-03T09:10:04.271Z</time></trkpt><trkpt lat="38.0997517" lon="14.9104567"><ele>846.6666666666666</ele><time>2026-05-03T09:10:06.271Z</time></trkpt><trkpt lat="38.099775" lon="14.9105317"><ele>849.5</ele><time>2026-05-03T09:10:08.271Z</time></trkpt><trkpt lat="38.099805" lon="14.910645"><ele>852.3333333333333</ele><time>2026-05-03T09:10:10.271Z</time></trkpt><trkpt lat="38.0998067" lon="14.910735"><ele>855.1666666666666</ele><time>2026-05-03T09:10:12.271Z</time></trkpt><trkpt lat="38.0997767" lon="14.91083"><ele>858.0</ele><time>2026-05-03T09:10:14.271Z</time></trkpt><trkpt lat="38.0997517" lon="14.9109217"><ele>860.8333333333334</ele><time>2026-05-03T09:10:17.271Z</time></trkpt><trkpt lat="38.0997083" lon="14.911015"><ele>863.6666666666667</ele><time>2026-05-03T09:10:20.271Z</time></trkpt><trkpt lat="38.0996767" lon="14.9110933"><ele>866.5</ele><time>2026-05-03T09:10:22.271Z</time></trkpt><trkpt lat="38.09964" lon="14.911165"><ele>869.3333333333334</ele><time>2026-05-03T09:10:24.271Z</time></trkpt><trkpt lat="38.0996067" lon="14.9112367"><ele>872.1666666666667</ele><time>2026-05-03T09:10:26.271Z</time></trkpt><trkpt lat="38.0995817" lon="14.9113267"><ele>875.0</ele><time>2026-05-03T09:10:28.271Z</time></trkpt><trkpt lat="38.09952" lon="14.9114083"><ele>875.0000000000001</ele><time>2026-05-03T09:10:31.271Z</time></trkpt><trkpt lat="38.0994367" lon="14.9115017"><ele>875.0</ele><time>2026-05-03T09:10:33.271Z</time></trkpt><trkpt lat="38.09939" lon="14.911575"><ele>875.0</ele><time>2026-05-03T09:10:34.271Z</time></trkpt><trkpt lat="38.0993367" lon="14.9116533"><ele>875.0</ele><time>2026-05-03T09:10:35.271Z</time></trkpt><trkpt lat="38.0992917" lon="14.911725"><ele>875.0000000000001</ele><time>2026-05-03T09:10:36.271Z</time></trkpt><trkpt lat="38.0992317" lon="14.911815"><ele>875.0</ele><time>2026-05-03T09:10:38.271Z</time></trkpt><trkpt lat="38.0992317" lon="14.9119167"><ele>878.1666666666667</ele><time>2026-05-03T09:10:40.271Z</time></trkpt><trkpt lat="38.0992967" lon="14.9119683"><ele>881.3333333333334</ele><time>2026-05-03T09:10:42.271Z</time></trkpt><trkpt lat="38.0994033" lon="14.9120083"><ele>884.5</ele><time>2026-05-03T09:10:44.271Z</time></trkpt><trkpt lat="38.0994383" lon="14.9120817"><ele>887.6666666666667</ele><time>2026-05-03T09:10:46.271Z</time></trkpt><trkpt lat="38.099385" lon="14.9122033"><ele>890.8333333333334</ele><time>2026-05-03T09:10:48.271Z</time></trkpt><trkpt lat="38.09934" lon="14.9122833"><ele>894.0</ele><time>2026-05-03T09:10:49.271Z</time></trkpt><trkpt lat="38.0993067" lon="14.9123533"><ele>894.0</ele><time>2026-05-03T09:10:50.271Z</time></trkpt><trkpt lat="38.0992767" lon="14.912475"><ele>894.0</ele><time>2026-05-03T09:10:52.271Z</time></trkpt><trkpt lat="38.099275" lon="14.91258"><ele>894.0</ele><time>2026-05-03T09:10:54.271Z</time></trkpt><trkpt lat="38.0993617" lon="14.91261"><ele>894.0</ele><time>2026-05-03T09:10:56.27Z</time></trkpt><trkpt lat="38.099425" lon="14.9126167"><ele>894.0</ele><time>2026-05-03T09:10:57.271Z</time></trkpt><trkpt lat="38.0995217" lon="14.9126517"><ele>894.0</ele><time>2026-05-03T09:10:59.271Z</time></trkpt><trkpt lat="38.0995833" lon="14.91273"><ele>896.2</ele><time>2026-05-03T09:11:01.271Z</time></trkpt><trkpt lat="38.09961" lon="14.9128217"><ele>898.4000000000001</ele><time>2026-05-03T09:11:03.271Z</time></trkpt><trkpt lat="38.099585" lon="14.9129167"><ele>900.6</ele><time>2026-05-03T09:11:05.271Z</time></trkpt><trkpt lat="38.0995967" lon="14.9130317"><ele>902.8</ele><time>2026-05-03T09:11:31.27Z</time></trkpt><trkpt lat="38.099665" lon="14.9131533"><ele>905.0</ele><time>2026-05-03T09:11:33.271Z</time></trkpt><trkpt lat="38.0997717" lon="14.9132417"><ele>905.0000000000001</ele><time>2026-05-03T09:11:35.271Z</time></trkpt><trkpt lat="38.099845" lon="14.9132933"><ele>905.0</ele><time>2026-05-03T09:11:37.271Z</time></trkpt><trkpt lat="38.099915" lon="14.9133017"><ele>905.0</ele><time>2026-05-03T09:11:39.271Z</time></trkpt><trkpt lat="38.099985" lon="14.9132983"><ele>905.0</ele><time>2026-05-03T09:11:41.271Z</time></trkpt><trkpt lat="38.1000383" lon="14.9133683"><ele>905.0000000000001</ele><time>2026-05-03T09:11:43.271Z</time></trkpt><trkpt lat="38.1000733" lon="14.913475"><ele>905.0</ele><time>2026-05-03T09:11:45.271Z</time></trkpt><trkpt lat="38.100055" lon="14.9135633"><ele>907.5000000000001</ele><time>2026-05-03T09:11:47.271Z</time></trkpt><trkpt lat="38.09998" lon="14.9136217"><ele>910.0</ele><time>2026-05-03T09:11:49.271Z</time></trkpt><trkpt lat="38.099915" lon="14.9136633"><ele>912.5</ele><time>2026-05-03T09:11:51.27Z</time></trkpt><trkpt lat="38.0999417" lon="14.9137367"><ele>915.0</ele><time>2026-05-03T09:11:53.27Z</time></trkpt><trkpt lat="38.1000317" lon="14.9137917"><ele>917.5000000000001</ele><time>2026-05-03T09:11:55.271Z</time></trkpt><trkpt lat="38.100115" lon="14.913865"><ele>920.0</ele><time>2026-05-03T09:11:57.271Z</time></trkpt><trkpt lat="38.1001417" lon="14.91396"><ele>922.8333333333334</ele><time>2026-05-03T09:11:59.271Z</time></trkpt><trkpt lat="38.1001283" lon="14.9140783"><ele>925.6666666666667</ele><time>2026-05-03T09:12:01.271Z</time></trkpt><trkpt lat="38.1000933" lon="14.9141683"><ele>928.5</ele><time>2026-05-03T09:12:03.271Z</time></trkpt><trkpt lat="38.1000783" lon="14.9142717"><ele>931.3333333333333</ele><time>2026-05-03T09:12:05.27Z</time></trkpt><trkpt lat="38.100135" lon="14.9143817"><ele>934.1666666666666</ele><time>2026-05-03T09:12:07.271Z</time></trkpt><trkpt lat="38.10019" lon="14.9144267"><ele>937.0</ele><time>2026-05-03T09:12:08.271Z</time></trkpt><trkpt lat="38.1002667" lon="14.9145283"><ele>939.4999999999999</ele><time>2026-05-03T09:12:10.271Z</time></trkpt><trkpt lat="38.1002483" lon="14.9146483"><ele>942.0</ele><time>2026-05-03T09:12:12.271Z</time></trkpt><trkpt lat="38.1002133" lon="14.91475"><ele>944.5</ele><time>2026-05-03T09:12:14.271Z</time></trkpt><trkpt lat="38.1002067" lon="14.9148317"><ele>947.0</ele><time>2026-05-03T09:13:23.271Z</time></trkpt><trkpt lat="38.10027" lon="14.914945"><ele>949.4999999999999</ele><time>2026-05-03T09:13:25.27Z</time></trkpt><trkpt lat="38.1003217" lon="14.91502"><ele>952.0</ele><time>2026-05-03T09:13:27.271Z</time></trkpt><trkpt lat="38.1003667" lon="14.914945"><ele>951.9999999999999</ele><time>2026-05-03T09:16:22.271Z</time></trkpt><trkpt lat="38.1003733" lon="14.9148483"><ele>952.0</ele><time>2026-05-03T09:16:26.271Z</time></trkpt><trkpt lat="38.1003183" lon="14.91479"><ele>952.0</ele><time>2026-05-03T09:16:29.271Z</time></trkpt><trkpt lat="38.1002833" lon="14.914865"><ele>952.0</ele><time>2026-05-03T09:16:42.271Z</time></trkpt><trkpt lat="38.1002267" lon="14.9148133"><ele>951.9999999999999</ele><time>2026-05-03T09:16:53.271Z</time></trkpt><trkpt lat="38.100235" lon="14.9147317"><ele>952.0</ele><time>2026-05-03T09:16:55.271Z</time></trkpt><trkpt lat="38.1002583" lon="14.91457"><ele>951.9999999999999</ele><time>2026-05-03T09:23:09.272Z</time></trkpt><trkpt lat="38.1002183" lon="14.9146983"><ele>952.0</ele><time>2026-05-03T09:23:28.272Z</time></trkpt><trkpt lat="38.1001933" lon="14.914815"><ele>952.0</ele><time>2026-05-03T09:23:30.272Z</time></trkpt><trkpt lat="38.1001683" lon="14.9148933"><ele>952.0</ele><time>2026-05-03T09:23:31.272Z</time></trkpt><trkpt lat="38.1001333" lon="14.9149833"><ele>951.9999999999999</ele><time>2026-05-03T09:23:32.272Z</time></trkpt><trkpt lat="38.1001033" lon="14.9150683"><ele>952.0</ele><time>2026-05-03T09:23:33.271Z</time></trkpt><trkpt lat="38.10007" lon="14.9151433"><ele>953.3333333333333</ele><time>2026-05-03T09:23:34.272Z</time></trkpt><trkpt lat="38.1000383" lon="14.9152233"><ele>954.6666666666666</ele><time>2026-05-03T09:23:35.272Z</time></trkpt><trkpt lat="38.10001" lon="14.9153017"><ele>956.0</ele><time>2026-05-03T09:23:36.271Z</time></trkpt><trkpt lat="38.0999833" lon="14.9153817"><ele>957.3333333333333</ele><time>2026-05-03T09:23:37.272Z</time></trkpt><trkpt lat="38.0999333" lon="14.9155183"><ele>958.6666666666666</ele><time>2026-05-03T09:23:39.272Z</time></trkpt><trkpt lat="38.09989" lon="14.915585"><ele>960.0</ele><time>2026-05-03T09:23:40.272Z</time></trkpt><trkpt lat="38.0998467" lon="14.9156517"><ele>960.0</ele><time>2026-05-03T09:23:41.272Z</time></trkpt><trkpt lat="38.0997983" lon="14.915715"><ele>960.0</ele><time>2026-05-03T09:23:42.272Z</time></trkpt><trkpt lat="38.099705" lon="14.91578"><ele>960.0</ele><time>2026-05-03T09:23:44.272Z</time></trkpt><trkpt lat="38.0996267" lon="14.9157667"><ele>960.0</ele><time>2026-05-03T09:23:46.271Z</time></trkpt><trkpt lat="38.0995083" lon="14.9157133"><ele>960.0</ele><time>2026-05-03T09:23:48.272Z</time></trkpt><trkpt lat="38.0994333" lon="14.9156717"><ele>960.0</ele><time>2026-05-03T09:23:49.272Z</time></trkpt><trkpt lat="38.0993717" lon="14.9156283"><ele>960.0</ele><time>2026-05-03T09:23:50.272Z</time></trkpt><trkpt lat="38.0992783" lon="14.9155783"><ele>960.0</ele><time>2026-05-03T09:23:52.272Z</time></trkpt><trkpt lat="38.0991817" lon="14.9155717"><ele>960.0</ele><time>2026-05-03T09:23:54.272Z</time></trkpt><trkpt lat="38.099135" lon="14.91563"><ele>960.0</ele><time>2026-05-03T09:23:56.272Z</time></trkpt><trkpt lat="38.0992033" lon="14.915665"><ele>960.0</ele><time>2026-05-03T09:23:58.272Z</time></trkpt><trkpt lat="38.0993033" lon="14.9156767"><ele>960.0</ele><time>2026-05-03T09:24:00.272Z</time></trkpt><trkpt lat="38.09938" lon="14.9157583"><ele>960.0</ele><time>2026-05-03T09:24:02.272Z</time></trkpt><trkpt lat="38.0994567" lon="14.9158517"><ele>960.0</ele><time>2026-05-03T09:24:04.272Z</time></trkpt><trkpt lat="38.0995533" lon="14.9159467"><ele>960.0</ele><time>2026-05-03T09:24:06.272Z</time></trkpt><trkpt lat="38.09961" lon="14.9159933"><ele>960.0</ele><time>2026-05-03T09:24:07.272Z</time></trkpt><trkpt lat="38.09967" lon="14.91603"><ele>964.1666666666666</ele><time>2026-05-03T09:24:08.271Z</time></trkpt><trkpt lat="38.099735" lon="14.9160667"><ele>968.3333333333333</ele><time>2026-05-03T09:24:09.272Z</time></trkpt><trkpt lat="38.099845" lon="14.916055"><ele>972.5</ele><time>2026-05-03T09:24:11.272Z</time></trkpt><trkpt lat="38.0999233" lon="14.916005"><ele>976.6666666666666</ele><time>2026-05-03T09:24:13.272Z</time></trkpt><trkpt lat="38.10001" lon="14.9159617"><ele>980.8333333333333</ele><time>2026-05-03T09:24:15.272Z</time></trkpt><trkpt lat="38.1000817" lon="14.9159517"><ele>985.0</ele><time>2026-05-03T09:24:16.272Z</time></trkpt><trkpt lat="38.1001383" lon="14.91599"><ele>982.6666666666666</ele><time>2026-05-03T09:24:17.272Z</time></trkpt><trkpt lat="38.1001933" lon="14.91603"><ele>980.3333333333333</ele><time>2026-05-03T09:24:18.271Z</time></trkpt><trkpt lat="38.1002833" lon="14.9160717"><ele>978.0</ele><time>2026-05-03T09:24:20.272Z</time></trkpt><trkpt lat="38.1003583" lon="14.9160317"><ele>975.6666666666667</ele><time>2026-05-03T09:24:22.272Z</time></trkpt><trkpt lat="38.1004433" lon="14.9159517"><ele>973.3333333333334</ele><time>2026-05-03T09:24:24.272Z</time></trkpt><trkpt lat="38.100505" lon="14.9159"><ele>971.0</ele><time>2026-05-03T09:24:25.272Z</time></trkpt><trkpt lat="38.1005617" lon="14.91585"><ele>971.0000000000001</ele><time>2026-05-03T09:24:26.272Z</time></trkpt><trkpt lat="38.1006167" lon="14.9157917"><ele>971.0</ele><time>2026-05-03T09:24:27.272Z</time></trkpt><trkpt lat="38.100675" lon="14.9157567"><ele>971.0</ele><time>2026-05-03T09:24:28.272Z</time></trkpt><trkpt lat="38.1007367" lon="14.9157317"><ele>971.0</ele><time>2026-05-03T09:24:29.272Z</time></trkpt><trkpt lat="38.1008283" lon="14.9157717"><ele>971.0000000000001</ele><time>2026-05-03T09:24:31.272Z</time></trkpt><trkpt lat="38.1008833" lon="14.91592"><ele>971.0</ele><time>2026-05-03T09:24:33.272Z</time></trkpt><trkpt lat="38.1008933" lon="14.916015"><ele>976.0000000000001</ele><time>2026-05-03T09:24:34.272Z</time></trkpt><trkpt lat="38.100905" lon="14.9161"><ele>981.0</ele><time>2026-05-03T09:24:35.272Z</time></trkpt><trkpt lat="38.1009183" lon="14.9161867"><ele>986.0</ele><time>2026-05-03T09:24:36.272Z</time></trkpt><trkpt lat="38.1009383" lon="14.916275"><ele>991.0</ele><time>2026-05-03T09:24:37.272Z</time></trkpt><trkpt lat="38.1009583" lon="14.91637"><ele>996.0000000000001</ele><time>2026-05-03T09:24:38.272Z</time></trkpt><trkpt lat="38.1009783" lon="14.9164667"><ele>1001.0</ele><time>2026-05-03T09:24:39.272Z</time></trkpt><trkpt lat="38.100995" lon="14.9165817"><ele>1001.0</ele><time>2026-05-03T09:24:40.272Z</time></trkpt><trkpt lat="38.1010133" lon="14.9167067"><ele>1000.9999999999999</ele><time>2026-05-03T09:24:41.272Z</time></trkpt><trkpt lat="38.10103" lon="14.91684"><ele>1000.9999999999999</ele><time>2026-05-03T09:24:42.272Z</time></trkpt><trkpt lat="38.101045" lon="14.9169633"><ele>1001.0</ele><time>2026-05-03T09:24:43.272Z</time></trkpt><trkpt lat="38.1010633" lon="14.9170633"><ele>1001.0</ele><time>2026-05-03T09:24:44.272Z</time></trkpt><trkpt lat="38.1010767" lon="14.9171517"><ele>1005.8333333333334</ele><time>2026-05-03T09:24:45.272Z</time></trkpt><trkpt lat="38.1010917" lon="14.917245"><ele>1010.6666666666667</ele><time>2026-05-03T09:25:09.272Z</time></trkpt><trkpt lat="38.1011417" lon="14.9173167"><ele>1015.5</ele><time>2026-05-03T09:25:12.272Z</time></trkpt><trkpt lat="38.1012133" lon="14.9173033"><ele>1020.3333333333333</ele><time>2026-05-03T09:25:14.271Z</time></trkpt><trkpt lat="38.101295" lon="14.9173133"><ele>1025.1666666666665</ele><time>2026-05-03T09:25:16.272Z</time></trkpt><trkpt lat="38.1013683" lon="14.917355"><ele>1030.0</ele><time>2026-05-03T09:25:18.272Z</time></trkpt><trkpt lat="38.1014333" lon="14.9174"><ele>1030.0</ele><time>2026-05-03T09:25:20.272Z</time></trkpt><trkpt lat="38.101505" lon="14.9174383"><ele>1030.0</ele><time>2026-05-03T09:25:22.272Z</time></trkpt><trkpt lat="38.1016167" lon="14.9174633"><ele>1030.0</ele><time>2026-05-03T09:25:24.272Z</time></trkpt><trkpt lat="38.101725" lon="14.9174917"><ele>1030.0</ele><time>2026-05-03T09:25:26.272Z</time></trkpt><trkpt lat="38.1018133" lon="14.9175383"><ele>1030.0</ele><time>2026-05-03T09:25:28.272Z</time></trkpt><trkpt lat="38.101895" lon="14.9176183"><ele>1034.8</ele><time>2026-05-03T09:25:30.272Z</time></trkpt><trkpt lat="38.1019533" lon="14.9177233"><ele>1039.6</ele><time>2026-05-03T09:25:32.272Z</time></trkpt><trkpt lat="38.10199" lon="14.91782"><ele>1044.4</ele><time>2026-05-03T09:25:34.272Z</time></trkpt><trkpt lat="38.10204" lon="14.9179083"><ele>1049.2</ele><time>2026-05-03T09:25:36.272Z</time></trkpt><trkpt lat="38.1021517" lon="14.9179533"><ele>1054.0</ele><time>2026-05-03T09:25:38.272Z</time></trkpt><trkpt lat="38.1022267" lon="14.9179433"><ele>1054.0</ele><time>2026-05-03T09:25:39.272Z</time></trkpt><trkpt lat="38.1022967" lon="14.9179267"><ele>1054.0</ele><time>2026-05-03T09:25:40.272Z</time></trkpt><trkpt lat="38.1023617" lon="14.9179233"><ele>1054.0</ele><time>2026-05-03T09:25:41.272Z</time></trkpt><trkpt lat="38.10246" lon="14.9179733"><ele>1054.0</ele><time>2026-05-03T09:25:43.271Z</time></trkpt><trkpt lat="38.102555" lon="14.9180817"><ele>1054.0</ele><time>2026-05-03T09:25:45.272Z</time></trkpt><trkpt lat="38.1026267" lon="14.9181567"><ele>1054.0</ele><time>2026-05-03T09:25:46.272Z</time></trkpt><trkpt lat="38.1027233" lon="14.9182417"><ele>1054.0</ele><time>2026-05-03T09:25:47.272Z</time></trkpt><trkpt lat="38.1028167" lon="14.9183217"><ele>1054.0</ele><time>2026-05-03T09:25:48.272Z</time></trkpt><trkpt lat="38.102885" lon="14.9183883"><ele>1054.0</ele><time>2026-05-03T09:25:49.272Z</time></trkpt><trkpt lat="38.102955" lon="14.9184383"><ele>1054.0</ele><time>2026-05-03T09:25:50.272Z</time></trkpt><trkpt lat="38.1030383" lon="14.9184883"><ele>1054.0</ele><time>2026-05-03T09:25:51.272Z</time></trkpt><trkpt lat="38.1031333" lon="14.9185517"><ele>1054.0</ele><time>2026-05-03T09:25:52.272Z</time></trkpt><trkpt lat="38.1032267" lon="14.918615"><ele>1054.0</ele><time>2026-05-03T09:25:53.271Z</time></trkpt><trkpt lat="38.1033083" lon="14.91867"><ele>1054.0</ele><time>2026-05-03T09:25:54.272Z</time></trkpt><trkpt lat="38.10338" lon="14.9187167"><ele>1054.0</ele><time>2026-05-03T09:25:55.272Z</time></trkpt><trkpt lat="38.1034583" lon="14.9187383"><ele>1051.6666666666665</ele><time>2026-05-03T09:25:56.272Z</time></trkpt><trkpt lat="38.1035417" lon="14.9187433"><ele>1049.3333333333333</ele><time>2026-05-03T09:25:57.272Z</time></trkpt><trkpt lat="38.1036317" lon="14.9187433"><ele>1047.0</ele><time>2026-05-03T09:25:58.272Z</time></trkpt><trkpt lat="38.10374" lon="14.91873"><ele>1044.6666666666667</ele><time>2026-05-03T09:25:59.272Z</time></trkpt><trkpt lat="38.1038217" lon="14.918715"><ele>1042.3333333333335</ele><time>2026-05-03T09:26:00.271Z</time></trkpt><trkpt lat="38.1038867" lon="14.9186933"><ele>1040.0</ele><time>2026-05-03T09:26:01.272Z</time></trkpt><trkpt lat="38.1039833" lon="14.9186883"><ele>1040.0</ele><time>2026-05-03T09:26:03.272Z</time></trkpt><trkpt lat="38.104075" lon="14.9187117"><ele>1040.0</ele><time>2026-05-03T09:26:05.272Z</time></trkpt><trkpt lat="38.10418" lon="14.9187817"><ele>1040.0</ele><time>2026-05-03T09:26:07.272Z</time></trkpt><trkpt lat="38.1042433" lon="14.9188283"><ele>1040.0</ele><time>2026-05-03T09:26:08.272Z</time></trkpt><trkpt lat="38.1043433" lon="14.9189067"><ele>1040.0</ele><time>2026-05-03T09:26:10.272Z</time></trkpt><trkpt lat="38.1044417" lon="14.9189417"><ele>1037.25</ele><time>2026-05-03T09:26:12.272Z</time></trkpt><trkpt lat="38.1045433" lon="14.9189117"><ele>1034.5</ele><time>2026-05-03T09:26:14.272Z</time></trkpt><trkpt lat="38.10464" lon="14.9188217"><ele>1031.75</ele><time>2026-05-03T09:26:16.272Z</time></trkpt><trkpt lat="38.1047333" lon="14.9187083"><ele>1029.0</ele><time>2026-05-03T09:26:18.272Z</time></trkpt><trkpt lat="38.10482" lon="14.918625"><ele>1029.0</ele><time>2026-05-03T09:26:20.272Z</time></trkpt><trkpt lat="38.104895" lon="14.9185283"><ele>1029.0</ele><time>2026-05-03T09:26:22.272Z</time></trkpt><trkpt lat="38.1049667" lon="14.9184217"><ele>1029.0</ele><time>2026-05-03T09:26:24.272Z</time></trkpt><trkpt lat="38.10505" lon="14.91836"><ele>1029.0</ele><time>2026-05-03T09:26:26.272Z</time></trkpt><trkpt lat="38.1050983" lon="14.918295"><ele>1029.0</ele><time>2026-05-03T09:26:27.271Z</time></trkpt><trkpt lat="38.1051617" lon="14.9182"><ele>1025.6000000000001</ele><time>2026-05-03T09:26:28.271Z</time></trkpt><trkpt lat="38.1052233" lon="14.9180883"><ele>1022.2</ele><time>2026-05-03T09:26:29.272Z</time></trkpt><trkpt lat="38.1052733" lon="14.9179717"><ele>1018.8000000000001</ele><time>2026-05-03T09:26:30.272Z</time></trkpt><trkpt lat="38.1053133" lon="14.91786"><ele>1015.4000000000001</ele><time>2026-05-03T09:26:31.272Z</time></trkpt><trkpt lat="38.1053517" lon="14.9177633"><ele>1012.0</ele><time>2026-05-03T09:26:32.272Z</time></trkpt><trkpt lat="38.10539" lon="14.9176833"><ele>1011.9999999999999</ele><time>2026-05-03T09:26:33.272Z</time></trkpt><trkpt lat="38.1054383" lon="14.91762"><ele>1012.0</ele><time>2026-05-03T09:26:34.272Z</time></trkpt><trkpt lat="38.10549" lon="14.9175517"><ele>1012.0</ele><time>2026-05-03T09:26:35.272Z</time></trkpt><trkpt lat="38.105555" lon="14.9174717"><ele>1012.0</ele><time>2026-05-03T09:26:36.271Z</time></trkpt><trkpt lat="38.1056267" lon="14.9173833"><ele>1011.9999999999999</ele><time>2026-05-03T09:26:37.272Z</time></trkpt><trkpt lat="38.1056967" lon="14.917315"><ele>1012.0</ele><time>2026-05-03T09:26:38.272Z</time></trkpt><trkpt lat="38.1057583" lon="14.9172467"><ele>1010.1666666666666</ele><time>2026-05-03T09:26:39.272Z</time></trkpt><trkpt lat="38.1058183" lon="14.9171833"><ele>1008.3333333333333</ele><time>2026-05-03T09:26:40.272Z</time></trkpt><trkpt lat="38.10588" lon="14.917125"><ele>1006.5</ele><time>2026-05-03T09:26:41.272Z</time></trkpt><trkpt lat="38.10594" lon="14.917075"><ele>1004.6666666666667</ele><time>2026-05-03T09:26:42.272Z</time></trkpt><trkpt lat="38.10601" lon="14.9170317"><ele>1002.8333333333334</ele><time>2026-05-03T09:26:43.271Z</time></trkpt><trkpt lat="38.1060983" lon="14.9169983"><ele>1001.0</ele><time>2026-05-03T09:26:44.272Z</time></trkpt><trkpt lat="38.1062083" lon="14.916975"><ele>1001.0</ele><time>2026-05-03T09:26:45.272Z</time></trkpt><trkpt lat="38.1063367" lon="14.91694"><ele>1001.0</ele><time>2026-05-03T09:26:46.272Z</time></trkpt><trkpt lat="38.1064567" lon="14.91689"><ele>1001.0</ele><time>2026-05-03T09:26:47.272Z</time></trkpt><trkpt lat="38.1065617" lon="14.916825"><ele>1001.0</ele><time>2026-05-03T09:26:48.272Z</time></trkpt><trkpt lat="38.1066583" lon="14.9167417"><ele>1002.0</ele><time>2026-05-03T09:26:49.272Z</time></trkpt><trkpt lat="38.1067417" lon="14.9166583"><ele>1002.9999999999999</ele><time>2026-05-03T09:26:50.271Z</time></trkpt><trkpt lat="38.106805" lon="14.9165883"><ele>1003.9999999999999</ele><time>2026-05-03T09:26:51.272Z</time></trkpt><trkpt lat="38.106885" lon="14.9164783"><ele>1005.0</ele><time>2026-05-03T09:26:53.272Z</time></trkpt><trkpt lat="38.1069717" lon="14.9163783"><ele>1006.0</ele><time>2026-05-03T09:26:55.273Z</time></trkpt><trkpt lat="38.1070283" lon="14.9163333"><ele>1006.0</ele><time>2026-05-03T09:26:56.273Z</time></trkpt><trkpt lat="38.1071017" lon="14.916295"><ele>1005.9999999999999</ele><time>2026-05-03T09:26:57.273Z</time></trkpt><trkpt lat="38.107185" lon="14.9162617"><ele>1005.9999999999999</ele><time>2026-05-03T09:26:58.273Z</time></trkpt><trkpt lat="38.1072733" lon="14.91623"><ele>1006.0</ele><time>2026-05-03T09:26:59.272Z</time></trkpt><trkpt lat="38.1073667" lon="14.91619"><ele>1006.0</ele><time>2026-05-03T09:27:00.273Z</time></trkpt><trkpt lat="38.1074667" lon="14.9161517"><ele>1004.8</ele><time>2026-05-03T09:27:01.273Z</time></trkpt><trkpt lat="38.1075533" lon="14.916105"><ele>1003.5999999999999</ele><time>2026-05-03T09:27:02.273Z</time></trkpt><trkpt lat="38.107615" lon="14.916055"><ele>1002.4</ele><time>2026-05-03T09:27:03.273Z</time></trkpt><trkpt lat="38.1077183" lon="14.91597"><ele>1001.2</ele><time>2026-05-03T09:27:05.273Z</time></trkpt><trkpt lat="38.10782" lon="14.9159533"><ele>1000.0</ele><time>2026-05-03T09:27:07.272Z</time></trkpt><trkpt lat="38.10792" lon="14.91598"><ele>1000.0</ele><time>2026-05-03T09:27:09.273Z</time></trkpt><trkpt lat="38.1080183" lon="14.9160067"><ele>1000.0</ele><time>2026-05-03T09:27:11.273Z</time></trkpt><trkpt lat="38.1081383" lon="14.9160533"><ele>1000.0</ele><time>2026-05-03T09:27:13.273Z</time></trkpt><trkpt lat="38.1082183" lon="14.916055"><ele>1000.0</ele><time>2026-05-03T09:27:14.273Z</time></trkpt><trkpt lat="38.10832" lon="14.9160483"><ele>1000.0</ele><time>2026-05-03T09:27:15.273Z</time></trkpt><trkpt lat="38.1084167" lon="14.9160483"><ele>996.0</ele><time>2026-05-03T09:27:16.273Z</time></trkpt><trkpt lat="38.1085067" lon="14.9160583"><ele>992.0</ele><time>2026-05-03T09:27:17.273Z</time></trkpt><trkpt lat="38.1086083" lon="14.9161017"><ele>988.0</ele><time>2026-05-03T09:27:18.273Z</time></trkpt><trkpt lat="38.1087083" lon="14.916155"><ele>984.0</ele><time>2026-05-03T09:27:19.273Z</time></trkpt><trkpt lat="38.1088033" lon="14.916195"><ele>980.0</ele><time>2026-05-03T09:27:20.273Z</time></trkpt><trkpt lat="38.1088833" lon="14.9162117"><ele>980.0000000000001</ele><time>2026-05-03T09:27:21.272Z</time></trkpt><trkpt lat="38.1089883" lon="14.916205"><ele>980.0</ele><time>2026-05-03T09:27:23.273Z</time></trkpt><trkpt lat="38.1090667" lon="14.9161867"><ele>980.0</ele><time>2026-05-03T09:27:25.273Z</time></trkpt><trkpt lat="38.10914" lon="14.9161833"><ele>980.0</ele><time>2026-05-03T09:27:27.273Z</time></trkpt><trkpt lat="38.1092" lon="14.916245"><ele>980.0000000000001</ele><time>2026-05-03T09:27:30.273Z</time></trkpt><trkpt lat="38.10912" lon="14.9163083"><ele>980.0</ele><time>2026-05-03T09:27:50.272Z</time></trkpt><trkpt lat="38.109015" lon="14.9163733"><ele>980.0</ele><time>2026-05-03T09:27:52.273Z</time></trkpt><trkpt lat="38.1089183" lon="14.916435"><ele>980.0</ele><time>2026-05-03T09:27:54.273Z</time></trkpt><trkpt lat="38.108815" lon="14.9164567"><ele>980.0</ele><time>2026-05-03T09:27:56.273Z</time></trkpt><trkpt lat="38.1086783" lon="14.9164117"><ele>980.0</ele><time>2026-05-03T09:27:58.272Z</time></trkpt><trkpt lat="38.108595" lon="14.9163767"><ele>980.0</ele><time>2026-05-03T09:27:59.273Z</time></trkpt><trkpt lat="38.1085" lon="14.9163517"><ele>980.0000000000001</ele><time>2026-05-03T09:28:00.273Z</time></trkpt><trkpt lat="38.1084083" lon="14.9163383"><ele>980.0</ele><time>2026-05-03T09:28:01.273Z</time></trkpt><trkpt lat="38.10833" lon="14.91633"><ele>980.0</ele><time>2026-05-03T09:28:02.273Z</time></trkpt><trkpt lat="38.1082617" lon="14.9163333"><ele>980.0</ele><time>2026-05-03T09:28:03.273Z</time></trkpt><trkpt lat="38.1081683" lon="14.9163833"><ele>980.0000000000001</ele><time>2026-05-03T09:28:05.273Z</time></trkpt><trkpt lat="38.108125" lon="14.9164767"><ele>980.0</ele><time>2026-05-03T09:28:08.273Z</time></trkpt><trkpt lat="38.10812" lon="14.9165583"><ele>980.0000000000001</ele><time>2026-05-03T09:28:11.273Z</time></trkpt><trkpt lat="38.1082117" lon="14.9165717"><ele>980.0</ele><time>2026-05-03T09:28:28.273Z</time></trkpt><trkpt lat="38.1082767" lon="14.91654"><ele>980.0</ele><time>2026-05-03T09:28:29.273Z</time></trkpt><trkpt lat="38.1083483" lon="14.9165317"><ele>980.0</ele><time>2026-05-03T09:28:30.273Z</time></trkpt><trkpt lat="38.1084117" lon="14.91654"><ele>980.0000000000001</ele><time>2026-05-03T09:28:31.273Z</time></trkpt><trkpt lat="38.1085017" lon="14.9165833"><ele>980.0</ele><time>2026-05-03T09:28:33.273Z</time></trkpt><trkpt lat="38.1085533" lon="14.9166333"><ele>980.0</ele><time>2026-05-03T09:28:35.273Z</time></trkpt><trkpt lat="38.108565" lon="14.91672"><ele>980.0</ele><time>2026-05-03T09:28:37.273Z</time></trkpt><trkpt lat="38.108535" lon="14.9168317"><ele>980.0</ele><time>2026-05-03T09:28:39.273Z</time></trkpt><trkpt lat="38.1085567" lon="14.9169733"><ele>980.0</ele><time>2026-05-03T09:28:41.273Z</time></trkpt><trkpt lat="38.1085967" lon="14.9170517"><ele>980.0</ele><time>2026-05-03T09:28:42.272Z</time></trkpt><trkpt lat="38.1087083" lon="14.9171067"><ele>974.4</ele><time>2026-05-03T09:28:44.273Z</time></trkpt><trkpt lat="38.1087917" lon="14.9170833"><ele>968.8</ele><time>2026-05-03T09:28:45.273Z</time></trkpt><trkpt lat="38.1088867" lon="14.9170233"><ele>963.2</ele><time>2026-05-03T09:28:46.273Z</time></trkpt><trkpt lat="38.108985" lon="14.9169383"><ele>957.6</ele><time>2026-05-03T09:28:47.273Z</time></trkpt><trkpt lat="38.109055" lon="14.9168733"><ele>952.0</ele><time>2026-05-03T09:28:48.273Z</time></trkpt><trkpt lat="38.1091183" lon="14.916825"><ele>949.4999999999999</ele><time>2026-05-03T09:28:49.273Z</time></trkpt><trkpt lat="38.1091933" lon="14.9167917"><ele>947.0</ele><time>2026-05-03T09:28:50.273Z</time></trkpt><trkpt lat="38.1092717" lon="14.9167683"><ele>944.5</ele><time>2026-05-03T09:28:51.273Z</time></trkpt><trkpt lat="38.1093483" lon="14.9167617"><ele>942.0</ele><time>2026-05-03T09:28:52.273Z</time></trkpt><trkpt lat="38.1094217" lon="14.9167717"><ele>939.4999999999999</ele><time>2026-05-03T09:28:53.273Z</time></trkpt><trkpt lat="38.1094933" lon="14.916795"><ele>937.0</ele><time>2026-05-03T09:28:54.273Z</time></trkpt><trkpt lat="38.1095683" lon="14.9168283"><ele>937.0</ele><time>2026-05-03T09:28:55.273Z</time></trkpt><trkpt lat="38.10964" lon="14.9168483"><ele>937.0</ele><time>2026-05-03T09:28:56.273Z</time></trkpt><trkpt lat="38.109715" lon="14.91687"><ele>937.0</ele><time>2026-05-03T09:28:57.273Z</time></trkpt><trkpt lat="38.1097833" lon="14.9168833"><ele>937.0</ele><time>2026-05-03T09:28:58.273Z</time></trkpt><trkpt lat="38.1098533" lon="14.9169033"><ele>937.0</ele><time>2026-05-03T09:28:59.273Z</time></trkpt><trkpt lat="38.1099217" lon="14.91694"><ele>937.0</ele><time>2026-05-03T09:29:00.273Z</time></trkpt><trkpt lat="38.1099883" lon="14.91698"><ele>937.0</ele><time>2026-05-03T09:29:01.273Z</time></trkpt><trkpt lat="38.1100567" lon="14.9170167"><ele>934.8333333333333</ele><time>2026-05-03T09:29:02.273Z</time></trkpt><trkpt lat="38.1101317" lon="14.9170433"><ele>932.6666666666666</ele><time>2026-05-03T09:29:03.273Z</time></trkpt><trkpt lat="38.1102083" lon="14.9170617"><ele>930.5</ele><time>2026-05-03T09:29:04.273Z</time></trkpt><trkpt lat="38.1102933" lon="14.917045"><ele>928.3333333333333</ele><time>2026-05-03T09:29:05.273Z</time></trkpt><trkpt lat="38.1103733" lon="14.9170183"><ele>926.1666666666666</ele><time>2026-05-03T09:29:06.273Z</time></trkpt><trkpt lat="38.1104517" lon="14.916995"><ele>924.0</ele><time>2026-05-03T09:29:07.273Z</time></trkpt><trkpt lat="38.1105367" lon="14.9169917"><ele>924.0</ele><time>2026-05-03T09:29:08.273Z</time></trkpt><trkpt lat="38.1106233" lon="14.9170167"><ele>924.0000000000001</ele><time>2026-05-03T09:29:09.273Z</time></trkpt><trkpt lat="38.1107167" lon="14.91704"><ele>924.0000000000001</ele><time>2026-05-03T09:29:10.273Z</time></trkpt><trkpt lat="38.1108233" lon="14.9170517"><ele>924.0</ele><time>2026-05-03T09:29:11.273Z</time></trkpt><trkpt lat="38.1109367" lon="14.9170517"><ele>924.0</ele><time>2026-05-03T09:29:12.273Z</time></trkpt><trkpt lat="38.11104" lon="14.9170533"><ele>923.8333333333334</ele><time>2026-05-03T09:29:13.273Z</time></trkpt><trkpt lat="38.1111217" lon="14.91706"><ele>923.6666666666667</ele><time>2026-05-03T09:29:14.273Z</time></trkpt><trkpt lat="38.11121" lon="14.91706"><ele>923.5</ele><time>2026-05-03T09:29:15.273Z</time></trkpt><trkpt lat="38.1112967" lon="14.9170517"><ele>923.3333333333334</ele><time>2026-05-03T09:29:16.273Z</time></trkpt><trkpt lat="38.1113733" lon="14.9170367"><ele>923.1666666666667</ele><time>2026-05-03T09:29:17.273Z</time></trkpt><trkpt lat="38.1114583" lon="14.917015"><ele>923.0</ele><time>2026-05-03T09:29:18.273Z</time></trkpt><trkpt lat="38.1115367" lon="14.916995"><ele>923.8333333333334</ele><time>2026-05-03T09:29:19.273Z</time></trkpt><trkpt lat="38.11161" lon="14.9169883"><ele>924.6666666666667</ele><time>2026-05-03T09:29:20.273Z</time></trkpt><trkpt lat="38.11168" lon="14.9169967"><ele>925.5</ele><time>2026-05-03T09:29:21.273Z</time></trkpt><trkpt lat="38.1117483" lon="14.917025"><ele>926.3333333333333</ele><time>2026-05-03T09:29:22.273Z</time></trkpt><trkpt lat="38.1118183" lon="14.9170633"><ele>927.1666666666666</ele><time>2026-05-03T09:29:23.273Z</time></trkpt><trkpt lat="38.1118733" lon="14.9171267"><ele>928.0</ele><time>2026-05-03T09:29:24.273Z</time></trkpt><trkpt lat="38.1119483" lon="14.9171967"><ele>927.9999999999999</ele><time>2026-05-03T09:29:25.273Z</time></trkpt><trkpt lat="38.1120217" lon="14.917295"><ele>928.0</ele><time>2026-05-03T09:29:26.273Z</time></trkpt><trkpt lat="38.112075" lon="14.9173933"><ele>928.0</ele><time>2026-05-03T09:29:27.273Z</time></trkpt><trkpt lat="38.1121433" lon="14.9174717"><ele>928.0</ele><time>2026-05-03T09:29:28.273Z</time></trkpt><trkpt lat="38.1122" lon="14.9175567"><ele>927.9999999999999</ele><time>2026-05-03T09:29:29.273Z</time></trkpt><trkpt lat="38.1122467" lon="14.91762"><ele>928.0</ele><time>2026-05-03T09:29:30.272Z</time></trkpt><trkpt lat="38.1123367" lon="14.9177183"><ele>922.0</ele><time>2026-05-03T09:29:32.273Z</time></trkpt><trkpt lat="38.1124133" lon="14.9178083"><ele>916.0</ele><time>2026-05-03T09:29:34.273Z</time></trkpt><trkpt lat="38.1125033" lon="14.917875"><ele>910.0</ele><time>2026-05-03T09:29:36.273Z</time></trkpt><trkpt lat="38.1126033" lon="14.917875"><ele>904.0</ele><time>2026-05-03T09:29:38.273Z</time></trkpt><trkpt lat="38.1127" lon="14.9178367"><ele>898.0</ele><time>2026-05-03T09:29:40.273Z</time></trkpt><trkpt lat="38.1127617" lon="14.9178083"><ele>898.0</ele><time>2026-05-03T09:29:41.273Z</time></trkpt><trkpt lat="38.112875" lon="14.9177317"><ele>898.0</ele><time>2026-05-03T09:29:43.273Z</time></trkpt><trkpt lat="38.1129333" lon="14.917685"><ele>898.0</ele><time>2026-05-03T09:29:44.273Z</time></trkpt><trkpt lat="38.1129933" lon="14.917635"><ele>898.0</ele><time>2026-05-03T09:29:45.273Z</time></trkpt><trkpt lat="38.1130467" lon="14.9175833"><ele>898.0</ele><time>2026-05-03T09:29:46.273Z</time></trkpt><trkpt lat="38.1131617" lon="14.9175283"><ele>900.9999999999999</ele><time>2026-05-03T09:29:48.273Z</time></trkpt><trkpt lat="38.113245" lon="14.9174717"><ele>904.0</ele><time>2026-05-03T09:29:50.273Z</time></trkpt><trkpt lat="38.11332" lon="14.917375"><ele>907.0</ele><time>2026-05-03T09:29:52.272Z</time></trkpt><trkpt lat="38.113375" lon="14.9173183"><ele>910.0</ele><time>2026-05-03T09:29:53.273Z</time></trkpt><trkpt lat="38.1134267" lon="14.917255"><ele>912.9999999999999</ele><time>2026-05-03T09:29:54.273Z</time></trkpt><trkpt lat="38.1134783" lon="14.9171867"><ele>916.0</ele><time>2026-05-03T09:29:55.273Z</time></trkpt><trkpt lat="38.1135433" lon="14.917055"><ele>916.0</ele><time>2026-05-03T09:29:57.272Z</time></trkpt><trkpt lat="38.1136083" lon="14.9169217"><ele>915.9999999999999</ele><time>2026-05-03T09:29:59.273Z</time></trkpt><trkpt lat="38.1136383" lon="14.9168383"><ele>915.9999999999999</ele><time>2026-05-03T09:30:00.273Z</time></trkpt><trkpt lat="38.1136683" lon="14.916755"><ele>916.0</ele><time>2026-05-03T09:30:01.273Z</time></trkpt><trkpt lat="38.1136867" lon="14.916665"><ele>916.0</ele><time>2026-05-03T09:30:02.272Z</time></trkpt><trkpt lat="38.1137017" lon="14.9165117"><ele>917.3333333333333</ele><time>2026-05-03T09:30:04.272Z</time></trkpt><trkpt lat="38.1137233" lon="14.91639"><ele>918.6666666666666</ele><time>2026-05-03T09:30:06.273Z</time></trkpt><trkpt lat="38.1137917" lon="14.9162917"><ele>920.0</ele><time>2026-05-03T09:30:08.273Z</time></trkpt><trkpt lat="38.1138933" lon="14.9162233"><ele>921.3333333333333</ele><time>2026-05-03T09:30:10.273Z</time></trkpt><trkpt lat="38.1139517" lon="14.9161883"><ele>922.6666666666666</ele><time>2026-05-03T09:30:11.273Z</time></trkpt><trkpt lat="38.1140083" lon="14.91614"><ele>924.0</ele><time>2026-05-03T09:30:12.273Z</time></trkpt><trkpt lat="38.1140767" lon="14.916095"><ele>919.0</ele><time>2026-05-03T09:30:13.273Z</time></trkpt><trkpt lat="38.114145" lon="14.9160467"><ele>914.0</ele><time>2026-05-03T09:30:14.273Z</time></trkpt><trkpt lat="38.1141967" lon="14.915995"><ele>909.0</ele><time>2026-05-03T09:30:15.272Z</time></trkpt><trkpt lat="38.1142367" lon="14.91591"><ele>904.0</ele><time>2026-05-03T09:30:16.273Z</time></trkpt><trkpt lat="38.114265" lon="14.9158283"><ele>899.0</ele><time>2026-05-03T09:30:17.273Z</time></trkpt><trkpt lat="38.1142567" lon="14.9157183"><ele>894.0</ele><time>2026-05-03T09:30:19.273Z</time></trkpt><trkpt lat="38.114185" lon="14.9156567"><ele>894.0</ele><time>2026-05-03T09:30:21.273Z</time></trkpt><trkpt lat="38.11408" lon="14.91568"><ele>894.0</ele><time>2026-05-03T09:30:23.273Z</time></trkpt><trkpt lat="38.11402" lon="14.91571"><ele>894.0</ele><time>2026-05-03T09:30:24.273Z</time></trkpt><trkpt lat="38.1139467" lon="14.91574"><ele>894.0</ele><time>2026-05-03T09:30:25.273Z</time></trkpt><trkpt lat="38.1138783" lon="14.9157683"><ele>894.0</ele><time>2026-05-03T09:30:26.272Z</time></trkpt><trkpt lat="38.1138117" lon="14.9158067"><ele>894.0</ele><time>2026-05-03T09:30:27.273Z</time></trkpt><trkpt lat="38.1137083" lon="14.91586"><ele>900.0</ele><time>2026-05-03T09:30:29.273Z</time></trkpt><trkpt lat="38.113605" lon="14.9159117"><ele>906.0000000000001</ele><time>2026-05-03T09:30:31.273Z</time></trkpt><trkpt lat="38.1135033" lon="14.9159533"><ele>912.0000000000001</ele><time>2026-05-03T09:30:33.273Z</time></trkpt><trkpt lat="38.1134117" lon="14.9160017"><ele>918.0</ele><time>2026-05-03T09:30:35.273Z</time></trkpt><trkpt lat="38.11332" lon="14.9160567"><ele>924.0</ele><time>2026-05-03T09:30:37.273Z</time></trkpt><trkpt lat="38.113205" lon="14.9161117"><ele>929.0</ele><time>2026-05-03T09:30:39.273Z</time></trkpt><trkpt lat="38.1131133" lon="14.9161483"><ele>934.0</ele><time>2026-05-03T09:30:41.273Z</time></trkpt><trkpt lat="38.1130267" lon="14.9161783"><ele>939.0</ele><time>2026-05-03T09:30:43.273Z</time></trkpt><trkpt lat="38.112955" lon="14.9162183"><ele>944.0</ele><time>2026-05-03T09:30:45.273Z</time></trkpt><trkpt lat="38.1128817" lon="14.9162683"><ele>949.0</ele><time>2026-05-03T09:30:47.272Z</time></trkpt><trkpt lat="38.1127983" lon="14.9162883"><ele>954.0</ele><time>2026-05-03T09:30:49.273Z</time></trkpt><trkpt lat="38.1126767" lon="14.91631"><ele>954.0</ele><time>2026-05-03T09:30:51.272Z</time></trkpt><trkpt lat="38.1126067" lon="14.9163267"><ele>954.0</ele><time>2026-05-03T09:30:52.273Z</time></trkpt><trkpt lat="38.1124933" lon="14.9163517"><ele>954.0</ele><time>2026-05-03T09:30:54.273Z</time></trkpt><trkpt lat="38.112395" lon="14.9163933"><ele>954.0</ele><time>2026-05-03T09:30:56.273Z</time></trkpt><trkpt lat="38.11233" lon="14.9164015"><ele>954.0</ele><time>2026-05-03T09:31:18.273Z</time></trkpt><trkpt lat="38.112269" lon="14.9164367"><ele>954.0</ele><time>2026-05-03T09:31:20.273Z</time></trkpt><trkpt lat="38.1121964" lon="14.9164416"><ele>954.0</ele><time>2026-05-03T09:31:22.273Z</time></trkpt><trkpt lat="38.1121647" lon="14.9163695"><ele>953.9999999999999</ele><time>2026-05-03T09:31:38.273Z</time></trkpt><trkpt lat="38.1122106" lon="14.916437"><ele>954.0</ele><time>2026-05-03T09:31:43.273Z</time></trkpt><trkpt lat="38.1122802" lon="14.9164137"><ele>954.0</ele><time>2026-05-03T09:31:49.273Z</time></trkpt><trkpt lat="38.1123502" lon="14.9163913"><ele>953.9999999999999</ele><time>2026-05-03T09:31:54.273Z</time></trkpt><trkpt lat="38.1124139" lon="14.9163849"><ele>954.0</ele><time>2026-05-03T09:31:58.272Z</time></trkpt><trkpt lat="38.1124889" lon="14.9163761"><ele>954.0</ele><time>2026-05-03T09:32:01.273Z</time></trkpt><trkpt lat="38.1125766" lon="14.9163608"><ele>954.0</ele><time>2026-05-03T09:32:04.273Z</time></trkpt><trkpt lat="38.1126444" lon="14.9163348"><ele>954.0</ele><time>2026-05-03T09:32:06.273Z</time></trkpt><trkpt lat="38.112727" lon="14.9163188"><ele>954.0</ele><time>2026-05-03T09:32:08.272Z</time></trkpt><trkpt lat="38.1128127" lon="14.9162935"><ele>954.0</ele><time>2026-05-03T09:32:10.273Z</time></trkpt><trkpt lat="38.1128887" lon="14.9162692"><ele>954.0</ele><time>2026-05-03T09:32:12.273Z</time></trkpt><trkpt lat="38.1129527" lon="14.9162471"><ele>954.0</ele><time>2026-05-03T09:32:14.273Z</time></trkpt><trkpt lat="38.1130232" lon="14.9162205"><ele>954.0</ele><time>2026-05-03T09:32:17.273Z</time></trkpt><trkpt lat="38.1131024" lon="14.9161908"><ele>954.0</ele><time>2026-05-03T09:32:21.273Z</time></trkpt><trkpt lat="38.1131875" lon="14.9161502"><ele>954.0</ele><time>2026-05-03T09:32:24.273Z</time></trkpt><trkpt lat="38.1132517" lon="14.91611"><ele>954.0</ele><time>2026-05-03T09:32:26.273Z</time></trkpt><trkpt lat="38.1133186" lon="14.9160758"><ele>954.0</ele><time>2026-05-03T09:32:28.273Z</time></trkpt><trkpt lat="38.1133841" lon="14.9160403"><ele>954.0</ele><time>2026-05-03T09:32:30.273Z</time></trkpt><trkpt lat="38.1134472" lon="14.9160088"><ele>949.0</ele><time>2026-05-03T09:32:32.272Z</time></trkpt><trkpt lat="38.1135108" lon="14.9159822"><ele>944.0</ele><time>2026-05-03T09:32:34.273Z</time></trkpt><trkpt lat="38.1135921" lon="14.9159447"><ele>939.0</ele><time>2026-05-03T09:32:37.273Z</time></trkpt><trkpt lat="38.1136509" lon="14.9158965"><ele>934.0</ele><time>2026-05-03T09:32:39.273Z</time></trkpt><trkpt lat="38.1137409" lon="14.9158598"><ele>929.0</ele><time>2026-05-03T09:32:41.273Z</time></trkpt><trkpt lat="38.1138445" lon="14.9158063"><ele>924.0</ele><time>2026-05-03T09:32:43.273Z</time></trkpt><trkpt lat="38.1139255" lon="14.9157766"><ele>923.1666666666666</ele><time>2026-05-03T09:32:45.273Z</time></trkpt><trkpt lat="38.1139998" lon="14.9157504"><ele>922.3333333333333</ele><time>2026-05-03T09:32:47.273Z</time></trkpt><trkpt lat="38.1140805" lon="14.9156978"><ele>921.5</ele><time>2026-05-03T09:32:49.273Z</time></trkpt><trkpt lat="38.1141493" lon="14.9156561"><ele>920.6666666666666</ele><time>2026-05-03T09:32:51.273Z</time></trkpt><trkpt lat="38.1142335" lon="14.9156661"><ele>919.8333333333333</ele><time>2026-05-03T09:32:54.273Z</time></trkpt><trkpt lat="38.1142696" lon="14.9157583"><ele>919.0</ele><time>2026-05-03T09:32:57.273Z</time></trkpt><trkpt lat="38.1142615" lon="14.9158862"><ele>919.8333333333333</ele><time>2026-05-03T09:33:00.273Z</time></trkpt><trkpt lat="38.1142051" lon="14.9159659"><ele>920.6666666666666</ele><time>2026-05-03T09:33:02.273Z</time></trkpt><trkpt lat="38.1140957" lon="14.9160281"><ele>921.5</ele><time>2026-05-03T09:33:04.273Z</time></trkpt><trkpt lat="38.114028" lon="14.9160631"><ele>922.3333333333333</ele><time>2026-05-03T09:33:05.273Z</time></trkpt><trkpt lat="38.1139535" lon="14.9161137"><ele>923.1666666666666</ele><time>2026-05-03T09:33:06.273Z</time></trkpt><trkpt lat="38.1138837" lon="14.9161561"><ele>924.0</ele><time>2026-05-03T09:33:07.273Z</time></trkpt><trkpt lat="38.1138193" lon="14.9161941"><ele>924.0</ele><time>2026-05-03T09:33:08.273Z</time></trkpt><trkpt lat="38.1137553" lon="14.9162426"><ele>924.0000000000001</ele><time>2026-05-03T09:33:09.273Z</time></trkpt><trkpt lat="38.1136969" lon="14.9163166"><ele>924.0000000000001</ele><time>2026-05-03T09:33:10.272Z</time></trkpt><trkpt lat="38.113655" lon="14.9164281"><ele>924.0</ele><time>2026-05-03T09:33:11.273Z</time></trkpt><trkpt lat="38.1136193" lon="14.9165666"><ele>924.0</ele><time>2026-05-03T09:33:12.273Z</time></trkpt><trkpt lat="38.1135971" lon="14.9167277"><ele>922.0</ele><time>2026-05-03T09:33:13.273Z</time></trkpt><trkpt lat="38.1135822" lon="14.916898"><ele>920.0</ele><time>2026-05-03T09:33:14.273Z</time></trkpt><trkpt lat="38.1135541" lon="14.9170527"><ele>918.0</ele><time>2026-05-03T09:33:15.273Z</time></trkpt><trkpt lat="38.1135069" lon="14.9171909"><ele>916.0</ele><time>2026-05-03T09:33:16.273Z</time></trkpt><trkpt lat="38.1134349" lon="14.917322"><ele>916.0</ele><time>2026-05-03T09:33:17.273Z</time></trkpt><trkpt lat="38.1133464" lon="14.9174409"><ele>916.0</ele><time>2026-05-03T09:33:18.273Z</time></trkpt><trkpt lat="38.1132519" lon="14.9175305"><ele>916.0</ele><time>2026-05-03T09:33:19.273Z</time></trkpt><trkpt lat="38.1131616" lon="14.9175894"><ele>916.0</ele><time>2026-05-03T09:33:20.273Z</time></trkpt><trkpt lat="38.1130626" lon="14.9176447"><ele>912.4</ele><time>2026-05-03T09:33:21.273Z</time></trkpt><trkpt lat="38.1129616" lon="14.9177081"><ele>908.8</ele><time>2026-05-03T09:33:22.273Z</time></trkpt><trkpt lat="38.1128505" lon="14.9177883"><ele>905.1999999999999</ele><time>2026-05-03T09:33:23.273Z</time></trkpt><trkpt lat="38.1127526" lon="14.9178594"><ele>901.5999999999999</ele><time>2026-05-03T09:33:24.273Z</time></trkpt><trkpt lat="38.1126695" lon="14.9179034"><ele>898.0</ele><time>2026-05-03T09:33:25.273Z</time></trkpt><trkpt lat="38.1125963" lon="14.9179314"><ele>898.0</ele><time>2026-05-03T09:33:26.273Z</time></trkpt><trkpt lat="38.1125235" lon="14.9179476"><ele>898.0</ele><time>2026-05-03T09:33:27.272Z</time></trkpt><trkpt lat="38.1124058" lon="14.9179175"><ele>898.0</ele><time>2026-05-03T09:33:29.273Z</time></trkpt><trkpt lat="38.1123435" lon="14.9178677"><ele>898.0</ele><time>2026-05-03T09:33:30.272Z</time></trkpt><trkpt lat="38.112278" lon="14.9177825"><ele>898.0</ele><time>2026-05-03T09:33:31.273Z</time></trkpt><trkpt lat="38.1121975" lon="14.9176695"><ele>905.5</ele><time>2026-05-03T09:33:32.273Z</time></trkpt><trkpt lat="38.1121105" lon="14.9175381"><ele>913.0</ele><time>2026-05-03T09:33:33.273Z</time></trkpt><trkpt lat="38.1120222" lon="14.9173877"><ele>920.5</ele><time>2026-05-03T09:33:34.273Z</time></trkpt><trkpt lat="38.1119323" lon="14.9172565"><ele>928.0</ele><time>2026-05-03T09:33:35.273Z</time></trkpt><trkpt lat="38.1118474" lon="14.9171501"><ele>927.9999999999999</ele><time>2026-05-03T09:33:36.273Z</time></trkpt><trkpt lat="38.1117515" lon="14.9170692"><ele>928.0</ele><time>2026-05-03T09:33:37.273Z</time></trkpt><trkpt lat="38.1116591" lon="14.9170252"><ele>928.0</ele><time>2026-05-03T09:33:38.273Z</time></trkpt><trkpt lat="38.1115877" lon="14.9169996"><ele>928.0</ele><time>2026-05-03T09:33:39.273Z</time></trkpt><trkpt lat="38.1115129" lon="14.9169842"><ele>927.9999999999999</ele><time>2026-05-03T09:33:40.273Z</time></trkpt><trkpt lat="38.1114369" lon="14.916988"><ele>928.0</ele><time>2026-05-03T09:33:41.273Z</time></trkpt><trkpt lat="38.1113489" lon="14.9170019"><ele>927.0</ele><time>2026-05-03T09:33:42.273Z</time></trkpt><trkpt lat="38.1112503" lon="14.9170211"><ele>926.0</ele><time>2026-05-03T09:33:43.273Z</time></trkpt><trkpt lat="38.1111417" lon="14.9170273"><ele>925.0</ele><time>2026-05-03T09:33:44.273Z</time></trkpt><trkpt lat="38.1110394" lon="14.9170355"><ele>924.0</ele><time>2026-05-03T09:33:45.273Z</time></trkpt><trkpt lat="38.1109329" lon="14.9170312"><ele>923.0</ele><time>2026-05-03T09:33:46.273Z</time></trkpt><trkpt lat="38.1108287" lon="14.9170301"><ele>923.2</ele><time>2026-05-03T09:33:47.273Z</time></trkpt><trkpt lat="38.1107289" lon="14.917018"><ele>923.4</ele><time>2026-05-03T09:33:48.273Z</time></trkpt><trkpt lat="38.1106319" lon="14.9169962"><ele>923.6000000000001</ele><time>2026-05-03T09:33:49.273Z</time></trkpt><trkpt lat="38.1105435" lon="14.9169539"><ele>923.8000000000001</ele><time>2026-05-03T09:33:50.273Z</time></trkpt><trkpt lat="38.1104659" lon="14.916927"><ele>924.0</ele><time>2026-05-03T09:33:51.273Z</time></trkpt><trkpt lat="38.1103736" lon="14.9169269"><ele>924.0</ele><time>2026-05-03T09:33:53.273Z</time></trkpt><trkpt lat="38.1102545" lon="14.9169442"><ele>924.0000000000001</ele><time>2026-05-03T09:34:20.273Z</time></trkpt><trkpt lat="38.1101777" lon="14.9169263"><ele>924.0000000000001</ele><time>2026-05-03T09:34:21.273Z</time></trkpt><trkpt lat="38.1100785" lon="14.9168841"><ele>924.0</ele><time>2026-05-03T09:34:22.273Z</time></trkpt><trkpt lat="38.1099656" lon="14.9168354"><ele>924.0</ele><time>2026-05-03T09:34:23.273Z</time></trkpt><trkpt lat="38.1098506" lon="14.9167944"><ele>926.6</ele><time>2026-05-03T09:34:24.273Z</time></trkpt><trkpt lat="38.1097438" lon="14.9167679"><ele>929.2</ele><time>2026-05-03T09:34:25.274Z</time></trkpt><trkpt lat="38.1096419" lon="14.916754"><ele>931.8000000000001</ele><time>2026-05-03T09:34:26.274Z</time></trkpt><trkpt lat="38.109551" lon="14.9167395"><ele>934.4000000000001</ele><time>2026-05-03T09:34:27.274Z</time></trkpt><trkpt lat="38.109462" lon="14.9167158"><ele>937.0</ele><time>2026-05-03T09:34:28.274Z</time></trkpt><trkpt lat="38.1093771" lon="14.9166896"><ele>939.4999999999999</ele><time>2026-05-03T09:34:29.274Z</time></trkpt><trkpt lat="38.1092976" lon="14.9166715"><ele>942.0</ele><time>2026-05-03T09:34:30.274Z</time></trkpt><trkpt lat="38.1092132" lon="14.9166702"><ele>944.5</ele><time>2026-05-03T09:34:31.274Z</time></trkpt><trkpt lat="38.1091283" lon="14.9166948"><ele>947.0</ele><time>2026-05-03T09:34:32.274Z</time></trkpt><trkpt lat="38.1090444" lon="14.9167288"><ele>949.4999999999999</ele><time>2026-05-03T09:34:33.273Z</time></trkpt><trkpt lat="38.1089612" lon="14.9167949"><ele>952.0</ele><time>2026-05-03T09:34:34.274Z</time></trkpt><trkpt lat="38.1088827" lon="14.9168947"><ele>952.0</ele><time>2026-05-03T09:34:35.274Z</time></trkpt><trkpt lat="38.1088135" lon="14.9169818"><ele>952.0</ele><time>2026-05-03T09:34:36.274Z</time></trkpt><trkpt lat="38.1087562" lon="14.9170482"><ele>952.0</ele><time>2026-05-03T09:34:37.274Z</time></trkpt><trkpt lat="38.1087053" lon="14.9170968"><ele>952.0</ele><time>2026-05-03T09:34:38.274Z</time></trkpt><trkpt lat="38.1086268" lon="14.9170714"><ele>952.0</ele><time>2026-05-03T09:34:40.274Z</time></trkpt><trkpt lat="38.1085537" lon="14.9169171"><ele>951.9999999999999</ele><time>2026-05-03T09:34:42.274Z</time></trkpt><trkpt lat="38.108533" lon="14.916785"><ele>952.0</ele><time>2026-05-03T09:34:43.274Z</time></trkpt><trkpt lat="38.1085085" lon="14.9166683"><ele>952.0</ele><time>2026-05-03T09:34:44.274Z</time></trkpt><trkpt lat="38.1084749" lon="14.9165744"><ele>952.0</ele><time>2026-05-03T09:34:45.274Z</time></trkpt><trkpt lat="38.108429" lon="14.9165014"><ele>951.9999999999999</ele><time>2026-05-03T09:34:46.274Z</time></trkpt><trkpt lat="38.1083747" lon="14.9164532"><ele>952.0</ele><time>2026-05-03T09:34:47.274Z</time></trkpt><trkpt lat="38.1082617" lon="14.9164257"><ele>959.9999999999999</ele><time>2026-05-03T09:34:49.274Z</time></trkpt><trkpt lat="38.1081946" lon="14.9164699"><ele>968.0</ele><time>2026-05-03T09:34:50.274Z</time></trkpt><trkpt lat="38.1081297" lon="14.9165407"><ele>976.0</ele><time>2026-05-03T09:34:51.274Z</time></trkpt><trkpt lat="38.1080689" lon="14.9166098"><ele>984.0</ele><time>2026-05-03T09:34:52.274Z</time></trkpt><trkpt lat="38.1079879" lon="14.9166886"><ele>991.9999999999999</ele><time>2026-05-03T09:34:54.274Z</time></trkpt><trkpt lat="38.1080529" lon="14.9166289"><ele>1000.0</ele><time>2026-05-03T09:35:21.274Z</time></trkpt><trkpt lat="38.108108" lon="14.9165414"><ele>1000.0</ele><time>2026-05-03T09:35:22.274Z</time></trkpt><trkpt lat="38.1081678" lon="14.9164532"><ele>1000.0</ele><time>2026-05-03T09:35:23.274Z</time></trkpt><trkpt lat="38.1082428" lon="14.9163843"><ele>1000.0</ele><time>2026-05-03T09:35:24.274Z</time></trkpt><trkpt lat="38.1083357" lon="14.9163392"><ele>1000.0</ele><time>2026-05-03T09:35:25.274Z</time></trkpt><trkpt lat="38.1084351" lon="14.9163193"><ele>1000.0</ele><time>2026-05-03T09:35:26.274Z</time></trkpt><trkpt lat="38.1085386" lon="14.9163287"><ele>996.0</ele><time>2026-05-03T09:35:27.273Z</time></trkpt><trkpt lat="38.1086489" lon="14.9163704"><ele>992.0</ele><time>2026-05-03T09:35:28.274Z</time></trkpt><trkpt lat="38.108753" lon="14.9164158"><ele>988.0</ele><time>2026-05-03T09:35:29.274Z</time></trkpt><trkpt lat="38.1088312" lon="14.9164548"><ele>984.0</ele><time>2026-05-03T09:35:30.274Z</time></trkpt><trkpt lat="38.1088958" lon="14.9164739"><ele>980.0</ele><time>2026-05-03T09:35:31.273Z</time></trkpt><trkpt lat="38.108986" lon="14.9164346"><ele>980.0000000000001</ele><time>2026-05-03T09:35:33.274Z</time></trkpt><trkpt lat="38.1090403" lon="14.9163841"><ele>980.0</ele><time>2026-05-03T09:35:34.274Z</time></trkpt><trkpt lat="38.1091035" lon="14.916322"><ele>980.0</ele><time>2026-05-03T09:35:35.274Z</time></trkpt><trkpt lat="38.1091733" lon="14.9162683"><ele>980.0</ele><time>2026-05-03T09:35:36.274Z</time></trkpt><trkpt lat="38.10927" lon="14.9162283"><ele>980.0000000000001</ele><time>2026-05-03T09:35:38.274Z</time></trkpt><trkpt lat="38.1093483" lon="14.9162267"><ele>980.0</ele><time>2026-05-03T09:35:40.274Z</time></trkpt><trkpt lat="38.1094617" lon="14.9162433"><ele>979.0</ele><time>2026-05-03T09:35:42.274Z</time></trkpt><trkpt lat="38.10956" lon="14.9162517"><ele>978.0</ele><time>2026-05-03T09:35:43.274Z</time></trkpt><trkpt lat="38.10967" lon="14.9162683"><ele>977.0</ele><time>2026-05-03T09:35:44.274Z</time></trkpt><trkpt lat="38.1097833" lon="14.916285"><ele>976.0</ele><time>2026-05-03T09:35:45.274Z</time></trkpt><trkpt lat="38.1098833" lon="14.916305"><ele>975.0</ele><time>2026-05-03T09:35:46.274Z</time></trkpt><trkpt lat="38.1099683" lon="14.916325"><ele>974.1428571428571</ele><time>2026-05-03T09:35:47.274Z</time></trkpt><trkpt lat="38.110045" lon="14.916345"><ele>973.2857142857142</ele><time>2026-05-03T09:35:48.274Z</time></trkpt><trkpt lat="38.1101133" lon="14.91637"><ele>972.4285714285713</ele><time>2026-05-03T09:35:49.274Z</time></trkpt><trkpt lat="38.1101783" lon="14.916385"><ele>971.5714285714284</ele><time>2026-05-03T09:35:50.274Z</time></trkpt><trkpt lat="38.11025" lon="14.9163917"><ele>970.7142857142857</ele><time>2026-05-03T09:35:51.273Z</time></trkpt><trkpt lat="38.1103217" lon="14.9163983"><ele>969.8571428571427</ele><time>2026-05-03T09:35:52.274Z</time></trkpt><trkpt lat="38.1103967" lon="14.9164017"><ele>968.9999999999999</ele><time>2026-05-03T09:35:53.274Z</time></trkpt><trkpt lat="38.1104933" lon="14.9164133"><ele>969.0</ele><time>2026-05-03T09:35:54.273Z</time></trkpt><trkpt lat="38.1106067" lon="14.91642"><ele>969.0000000000001</ele><time>2026-05-03T09:35:55.274Z</time></trkpt><trkpt lat="38.1107183" lon="14.9164317"><ele>969.0000000000001</ele><time>2026-05-03T09:35:56.274Z</time></trkpt><trkpt lat="38.1108133" lon="14.9164383"><ele>969.0</ele><time>2026-05-03T09:35:57.274Z</time></trkpt><trkpt lat="38.1108967" lon="14.9164467"><ele>969.0</ele><time>2026-05-03T09:35:58.273Z</time></trkpt><trkpt lat="38.110975" lon="14.916455"><ele>968.3333333333334</ele><time>2026-05-03T09:35:59.274Z</time></trkpt><trkpt lat="38.1110817" lon="14.916465"><ele>967.6666666666667</ele><time>2026-05-03T09:36:01.274Z</time></trkpt><trkpt lat="38.1111567" lon="14.91647"><ele>967.0</ele><time>2026-05-03T09:36:04.274Z</time></trkpt><trkpt lat="38.1112267" lon="14.9164617"><ele>966.3333333333334</ele><time>2026-05-03T09:36:07.274Z</time></trkpt><trkpt lat="38.1113183" lon="14.9164367"><ele>965.6666666666667</ele><time>2026-05-03T09:36:10.274Z</time></trkpt><trkpt lat="38.111385" lon="14.9164183"><ele>965.0</ele><time>2026-05-03T09:36:12.274Z</time></trkpt><trkpt lat="38.1114733" lon="14.9163983"><ele>964.2</ele><time>2026-05-03T09:36:14.273Z</time></trkpt><trkpt lat="38.1115767" lon="14.91638"><ele>963.4</ele><time>2026-05-03T09:36:16.274Z</time></trkpt><trkpt lat="38.1116733" lon="14.9163783"><ele>962.5999999999999</ele><time>2026-05-03T09:36:18.274Z</time></trkpt><trkpt lat="38.1117833" lon="14.916395"><ele>961.8</ele><time>2026-05-03T09:36:20.273Z</time></trkpt><trkpt lat="38.11186" lon="14.9163933"><ele>961.0</ele><time>2026-05-03T09:36:21.274Z</time></trkpt><trkpt lat="38.1119467" lon="14.9163983"><ele>960.9999999999999</ele><time>2026-05-03T09:36:22.274Z</time></trkpt><trkpt lat="38.1120267" lon="14.9163883"><ele>961.0</ele><time>2026-05-03T09:36:23.274Z</time></trkpt><trkpt lat="38.1121333" lon="14.9163683"><ele>961.0</ele><time>2026-05-03T09:36:25.274Z</time></trkpt><trkpt lat="38.1122033" lon="14.91641"><ele>961.0</ele><time>2026-05-03T09:37:23.274Z</time></trkpt><trkpt lat="38.1122733" lon="14.9164267"><ele>960.9999999999999</ele><time>2026-05-03T09:37:28.274Z</time></trkpt><trkpt lat="38.11238" lon="14.916395"><ele>961.0</ele><time>2026-05-03T09:37:36.274Z</time></trkpt><trkpt lat="38.1124433" lon="14.9163767"><ele>959.8333333333333</ele><time>2026-05-03T09:37:39.273Z</time></trkpt><trkpt lat="38.11251" lon="14.9163283"><ele>958.6666666666666</ele><time>2026-05-03T09:37:43.274Z</time></trkpt><trkpt lat="38.1125917" lon="14.916325"><ele>957.5</ele><time>2026-05-03T09:37:47.274Z</time></trkpt><trkpt lat="38.1126883" lon="14.916305"><ele>956.3333333333333</ele><time>2026-05-03T09:37:50.274Z</time></trkpt><trkpt lat="38.1127717" lon="14.916285"><ele>955.1666666666666</ele><time>2026-05-03T09:37:52.274Z</time></trkpt><trkpt lat="38.1128583" lon="14.9162667"><ele>954.0</ele><time>2026-05-03T09:37:54.274Z</time></trkpt><trkpt lat="38.1129467" lon="14.916235"><ele>954.0</ele><time>2026-05-03T09:37:56.274Z</time></trkpt><trkpt lat="38.1130217" lon="14.9162117"><ele>954.0</ele><time>2026-05-03T09:37:58.274Z</time></trkpt><trkpt lat="38.1130917" lon="14.916185"><ele>954.0</ele><time>2026-05-03T09:38:00.274Z</time></trkpt><trkpt lat="38.1131667" lon="14.9161617"><ele>954.0</ele><time>2026-05-03T09:38:02.274Z</time></trkpt><trkpt lat="38.1132483" lon="14.9161367"><ele>954.0</ele><time>2026-05-03T09:38:04.274Z</time></trkpt><trkpt lat="38.1133283" lon="14.9160967"><ele>954.0</ele><time>2026-05-03T09:38:06.273Z</time></trkpt><trkpt lat="38.1133967" lon="14.916065"><ele>949.0</ele><time>2026-05-03T09:38:08.274Z</time></trkpt><trkpt lat="38.1134717" lon="14.916035"><ele>944.0</ele><time>2026-05-03T09:38:10.274Z</time></trkpt><trkpt lat="38.1135583" lon="14.91599"><ele>939.0</ele><time>2026-05-03T09:38:13.274Z</time></trkpt><trkpt lat="38.1136183" lon="14.91594"><ele>934.0</ele><time>2026-05-03T09:38:15.274Z</time></trkpt><trkpt lat="38.1136767" lon="14.9159033"><ele>929.0</ele><time>2026-05-03T09:38:17.274Z</time></trkpt><trkpt lat="38.1137633" lon="14.9158683"><ele>924.0</ele><time>2026-05-03T09:38:19.274Z</time></trkpt><trkpt lat="38.1138533" lon="14.9158233"><ele>923.1666666666666</ele><time>2026-05-03T09:38:21.274Z</time></trkpt><trkpt lat="38.11395" lon="14.915775"><ele>922.3333333333333</ele><time>2026-05-03T09:38:23.274Z</time></trkpt><trkpt lat="38.114045" lon="14.9157367"><ele>921.5</ele><time>2026-05-03T09:38:25.274Z</time></trkpt><trkpt lat="38.1141133" lon="14.9157367"><ele>920.6666666666666</ele><time>2026-05-03T09:38:27.273Z</time></trkpt><trkpt lat="38.1141803" lon="14.9157568"><ele>919.8333333333333</ele><time>2026-05-03T09:38:30.274Z</time></trkpt><trkpt lat="38.1142113" lon="14.9158265"><ele>919.0</ele><time>2026-05-03T09:38:34.274Z</time></trkpt><trkpt lat="38.1141797" lon="14.9159405"><ele>919.8333333333333</ele><time>2026-05-03T09:38:36.274Z</time></trkpt><trkpt lat="38.1140967" lon="14.9160117"><ele>920.6666666666666</ele><time>2026-05-03T09:38:38.274Z</time></trkpt><trkpt lat="38.1140397" lon="14.9160492"><ele>921.5</ele><time>2026-05-03T09:38:39.274Z</time></trkpt><trkpt lat="38.1139775" lon="14.9160952"><ele>922.3333333333333</ele><time>2026-05-03T09:38:40.274Z</time></trkpt><trkpt lat="38.1139174" lon="14.9161714"><ele>923.1666666666666</ele><time>2026-05-03T09:38:42.274Z</time></trkpt><trkpt lat="38.113895" lon="14.9162905"><ele>924.0</ele><time>2026-05-03T09:38:45.274Z</time></trkpt><trkpt lat="38.1138863" lon="14.9164182"><ele>924.0</ele><time>2026-05-03T09:38:47.274Z</time></trkpt><trkpt lat="38.1139138" lon="14.9165698"><ele>924.0000000000001</ele><time>2026-05-03T09:38:49.273Z</time></trkpt><trkpt lat="38.1139567" lon="14.9166679"><ele>924.0000000000001</ele><time>2026-05-03T09:38:50.274Z</time></trkpt><trkpt lat="38.1140167" lon="14.9167737"><ele>924.0</ele><time>2026-05-03T09:38:51.274Z</time></trkpt><trkpt lat="38.1140807" lon="14.9168686"><ele>924.0</ele><time>2026-05-03T09:38:52.274Z</time></trkpt><trkpt lat="38.1141362" lon="14.9169494"><ele>917.3333333333334</ele><time>2026-05-03T09:38:53.274Z</time></trkpt><trkpt lat="38.114175" lon="14.9170334"><ele>910.6666666666667</ele><time>2026-05-03T09:38:54.274Z</time></trkpt><trkpt lat="38.1141958" lon="14.9171096"><ele>904.0</ele><time>2026-05-03T09:38:55.274Z</time></trkpt><trkpt lat="38.1141802" lon="14.9172512"><ele>897.3333333333334</ele><time>2026-05-03T09:38:57.274Z</time></trkpt><trkpt lat="38.1141418" lon="14.9173709"><ele>890.6666666666667</ele><time>2026-05-03T09:38:59.274Z</time></trkpt><trkpt lat="38.1141102" lon="14.9174631"><ele>884.0</ele><time>2026-05-03T09:39:01.274Z</time></trkpt><trkpt lat="38.1140769" lon="14.9175376"><ele>884.2857142857143</ele><time>2026-05-03T09:39:03.274Z</time></trkpt><trkpt lat="38.1140413" lon="14.9176152"><ele>884.5714285714286</ele><time>2026-05-03T09:39:05.274Z</time></trkpt><trkpt lat="38.1139971" lon="14.9177098"><ele>884.8571428571429</ele><time>2026-05-03T09:39:08.274Z</time></trkpt><trkpt lat="38.113951" lon="14.9177837"><ele>885.1428571428571</ele><time>2026-05-03T09:39:11.273Z</time></trkpt><trkpt lat="38.1139131" lon="14.9178642"><ele>885.4285714285714</ele><time>2026-05-03T09:39:16.274Z</time></trkpt><trkpt lat="38.1138617" lon="14.9179233"><ele>885.7142857142858</ele><time>2026-05-03T09:39:18.274Z</time></trkpt><trkpt lat="38.1138067" lon="14.9179733"><ele>886.0</ele><time>2026-05-03T09:39:19.274Z</time></trkpt><trkpt lat="38.1137367" lon="14.9180367"><ele>886.0</ele><time>2026-05-03T09:39:20.274Z</time></trkpt><trkpt lat="38.1136517" lon="14.9181083"><ele>886.0</ele><time>2026-05-03T09:39:21.274Z</time></trkpt><trkpt lat="38.1135633" lon="14.9181983"><ele>886.0</ele><time>2026-05-03T09:39:22.274Z</time></trkpt><trkpt lat="38.1134633" lon="14.91831"><ele>886.0</ele><time>2026-05-03T09:39:23.274Z</time></trkpt><trkpt lat="38.113375" lon="14.9184083"><ele>880.5999999999999</ele><time>2026-05-03T09:39:24.274Z</time></trkpt><trkpt lat="38.1132733" lon="14.9185017"><ele>875.1999999999999</ele><time>2026-05-03T09:39:25.274Z</time></trkpt><trkpt lat="38.1131767" lon="14.9185667"><ele>869.8000000000001</ele><time>2026-05-03T09:39:26.274Z</time></trkpt><trkpt lat="38.113095" lon="14.918615"><ele>864.4000000000001</ele><time>2026-05-03T09:39:27.274Z</time></trkpt><trkpt lat="38.113025" lon="14.9186567"><ele>859.0</ele><time>2026-05-03T09:39:28.274Z</time></trkpt><trkpt lat="38.1129517" lon="14.9187133"><ele>858.9999999999999</ele><time>2026-05-03T09:39:29.274Z</time></trkpt><trkpt lat="38.1128767" lon="14.9187733"><ele>859.0</ele><time>2026-05-03T09:39:30.274Z</time></trkpt><trkpt lat="38.1128067" lon="14.918835"><ele>859.0</ele><time>2026-05-03T09:39:31.274Z</time></trkpt><trkpt lat="38.1127417" lon="14.9189083"><ele>859.0</ele><time>2026-05-03T09:39:32.274Z</time></trkpt><trkpt lat="38.1126867" lon="14.91899"><ele>858.9999999999999</ele><time>2026-05-03T09:39:33.274Z</time></trkpt><trkpt lat="38.112645" lon="14.9190767"><ele>859.0</ele><time>2026-05-03T09:39:34.274Z</time></trkpt><trkpt lat="38.112615" lon="14.9191583"><ele>851.9999999999999</ele><time>2026-05-03T09:39:35.274Z</time></trkpt><trkpt lat="38.1125733" lon="14.9192433"><ele>845.0</ele><time>2026-05-03T09:39:37.274Z</time></trkpt><trkpt lat="38.1125083" lon="14.9192717"><ele>838.0</ele><time>2026-05-03T09:39:40.274Z</time></trkpt><trkpt lat="38.112565" lon="14.91933"><ele>831.0</ele><time>2026-05-03T09:39:44.274Z</time></trkpt><trkpt lat="38.1125117" lon="14.9193883"><ele>823.9999999999999</ele><time>2026-05-03T09:49:06.275Z</time></trkpt><trkpt lat="38.1126133" lon="14.91935"><ele>817.0</ele><time>2026-05-03T09:50:42.275Z</time></trkpt><trkpt lat="38.1126611" lon="14.9192837"><ele>823.9999999999999</ele><time>2026-05-03T09:55:24.275Z</time></trkpt><trkpt lat="38.1127028" lon="14.9192235"><ele>831.0</ele><time>2026-05-03T09:55:26.276Z</time></trkpt><trkpt lat="38.1127549" lon="14.9191328"><ele>838.0</ele><time>2026-05-03T09:55:28.276Z</time></trkpt><trkpt lat="38.1128472" lon="14.9190269"><ele>845.0</ele><time>2026-05-03T09:55:30.276Z</time></trkpt><trkpt lat="38.1128998" lon="14.9189691"><ele>851.9999999999999</ele><time>2026-05-03T09:55:31.276Z</time></trkpt><trkpt lat="38.1129668" lon="14.9188991"><ele>859.0</ele><time>2026-05-03T09:55:32.276Z</time></trkpt><trkpt lat="38.1130464" lon="14.9188271"><ele>859.0</ele><time>2026-05-03T09:55:33.276Z</time></trkpt><trkpt lat="38.1131358" lon="14.9187559"><ele>859.0</ele><time>2026-05-03T09:55:34.276Z</time></trkpt><trkpt lat="38.1132366" lon="14.9186778"><ele>859.0</ele><time>2026-05-03T09:55:35.276Z</time></trkpt><trkpt lat="38.113337" lon="14.9186006"><ele>859.0</ele><time>2026-05-03T09:55:36.276Z</time></trkpt><trkpt lat="38.1134316" lon="14.9185061"><ele>865.75</ele><time>2026-05-03T09:55:37.276Z</time></trkpt><trkpt lat="38.1135104" lon="14.9183953"><ele>872.5</ele><time>2026-05-03T09:55:38.276Z</time></trkpt><trkpt lat="38.1135886" lon="14.9182909"><ele>879.25</ele><time>2026-05-03T09:55:39.275Z</time></trkpt><trkpt lat="38.1136778" lon="14.9181865"><ele>886.0</ele><time>2026-05-03T09:55:40.276Z</time></trkpt><trkpt lat="38.1137668" lon="14.9180965"><ele>885.9999999999999</ele><time>2026-05-03T09:55:41.275Z</time></trkpt><trkpt lat="38.113861" lon="14.9180203"><ele>886.0</ele><time>2026-05-03T09:55:42.276Z</time></trkpt><trkpt lat="38.113943" lon="14.9179433"><ele>886.0</ele><time>2026-05-03T09:55:43.276Z</time></trkpt><trkpt lat="38.114003" lon="14.9178678"><ele>886.0</ele><time>2026-05-03T09:55:44.276Z</time></trkpt><trkpt lat="38.1140452" lon="14.9177851"><ele>885.9999999999999</ele><time>2026-05-03T09:55:45.276Z</time></trkpt><trkpt lat="38.1140762" lon="14.9177034"><ele>886.0</ele><time>2026-05-03T09:55:46.276Z</time></trkpt><trkpt lat="38.1141112" lon="14.9176155"><ele>885.6666666666666</ele><time>2026-05-03T09:55:47.276Z</time></trkpt><trkpt lat="38.1141414" lon="14.9175311"><ele>885.3333333333333</ele><time>2026-05-03T09:55:48.276Z</time></trkpt><trkpt lat="38.1141693" lon="14.9174362"><ele>885.0</ele><time>2026-05-03T09:55:49.276Z</time></trkpt><trkpt lat="38.1142031" lon="14.9173347"><ele>884.6666666666667</ele><time>2026-05-03T09:55:50.276Z</time></trkpt><trkpt lat="38.1142245" lon="14.9172345"><ele>884.3333333333334</ele><time>2026-05-03T09:55:51.276Z</time></trkpt><trkpt lat="38.1142345" lon="14.9171399"><ele>884.0</ele><time>2026-05-03T09:55:52.276Z</time></trkpt><trkpt lat="38.1142299" lon="14.9170496"><ele>884.0000000000001</ele><time>2026-05-03T09:55:53.276Z</time></trkpt><trkpt lat="38.1141923" lon="14.9169229"><ele>884.0</ele><time>2026-05-03T09:55:55.276Z</time></trkpt><trkpt lat="38.1141479" lon="14.9168521"><ele>884.0</ele><time>2026-05-03T09:55:57.276Z</time></trkpt><trkpt lat="38.1140996" lon="14.9167786"><ele>884.0</ele><time>2026-05-03T09:55:59.276Z</time></trkpt><trkpt lat="38.1140411" lon="14.9166622"><ele>884.0000000000001</ele><time>2026-05-03T09:56:01.276Z</time></trkpt><trkpt lat="38.1140095" lon="14.9165838"><ele>884.0</ele><time>2026-05-03T09:56:02.276Z</time></trkpt><trkpt lat="38.1139762" lon="14.916505"><ele>885.8000000000001</ele><time>2026-05-03T09:56:03.276Z</time></trkpt><trkpt lat="38.1139432" lon="14.9164295"><ele>887.6000000000001</ele><time>2026-05-03T09:56:04.276Z</time></trkpt><trkpt lat="38.1139152" lon="14.916353"><ele>889.4</ele><time>2026-05-03T09:56:05.276Z</time></trkpt><trkpt lat="38.1139178" lon="14.916226"><ele>891.2</ele><time>2026-05-03T09:56:07.276Z</time></trkpt><trkpt lat="38.1140007" lon="14.9161401"><ele>893.0</ele><time>2026-05-03T09:56:09.275Z</time></trkpt><trkpt lat="38.1141283" lon="14.9160863"><ele>893.0000000000001</ele><time>2026-05-03T09:56:11.276Z</time></trkpt><trkpt lat="38.1142199" lon="14.9160148"><ele>893.0</ele><time>2026-05-03T09:56:13.276Z</time></trkpt><trkpt lat="38.1142357" lon="14.9159032"><ele>893.0</ele><time>2026-05-03T09:56:15.276Z</time></trkpt><trkpt lat="38.1142366" lon="14.9158104"><ele>893.0</ele><time>2026-05-03T09:56:17.276Z</time></trkpt><trkpt lat="38.1142691" lon="14.9157329"><ele>893.0000000000001</ele><time>2026-05-03T09:56:19.276Z</time></trkpt><trkpt lat="38.1143451" lon="14.9156733"><ele>893.0</ele><time>2026-05-03T09:56:21.276Z</time></trkpt><trkpt lat="38.1144321" lon="14.9156257"><ele>893.2</ele><time>2026-05-03T09:56:23.276Z</time></trkpt><trkpt lat="38.1145389" lon="14.9155878"><ele>893.4</ele><time>2026-05-03T09:56:25.275Z</time></trkpt><trkpt lat="38.1146422" lon="14.9155312"><ele>893.6000000000001</ele><time>2026-05-03T09:56:27.276Z</time></trkpt><trkpt lat="38.1147073" lon="14.9154784"><ele>893.8000000000001</ele><time>2026-05-03T09:56:29.276Z</time></trkpt><trkpt lat="38.1146015" lon="14.9154849"><ele>894.0</ele><time>2026-05-03T09:58:00.276Z</time></trkpt><trkpt lat="38.1144844" lon="14.9155244"><ele>894.0</ele><time>2026-05-03T09:58:02.276Z</time></trkpt><trkpt lat="38.1144132" lon="14.9155508"><ele>894.0</ele><time>2026-05-03T09:58:03.276Z</time></trkpt><trkpt lat="38.1143414" lon="14.9155794"><ele>894.0</ele><time>2026-05-03T09:58:04.276Z</time></trkpt><trkpt lat="38.1142649" lon="14.9156162"><ele>894.0</ele><time>2026-05-03T09:58:05.275Z</time></trkpt><trkpt lat="38.1141896" lon="14.9156471"><ele>894.0</ele><time>2026-05-03T09:58:06.276Z</time></trkpt><trkpt lat="38.1141036" lon="14.9156852"><ele>894.0</ele><time>2026-05-03T09:58:07.276Z</time></trkpt><trkpt lat="38.114017" lon="14.9157391"><ele>899.0</ele><time>2026-05-03T09:58:08.275Z</time></trkpt><trkpt lat="38.1139294" lon="14.915787"><ele>904.0000000000001</ele><time>2026-05-03T09:58:09.276Z</time></trkpt><trkpt lat="38.1138289" lon="14.9158375"><ele>909.0000000000001</ele><time>2026-05-03T09:58:10.276Z</time></trkpt><trkpt lat="38.1137212" lon="14.9158882"><ele>914.0</ele><time>2026-05-03T09:58:11.276Z</time></trkpt><trkpt lat="38.1136068" lon="14.9159419"><ele>919.0</ele><time>2026-05-03T09:58:12.276Z</time></trkpt><trkpt lat="38.1134958" lon="14.9159865"><ele>919.8333333333333</ele><time>2026-05-03T09:58:13.276Z</time></trkpt><trkpt lat="38.1133931" lon="14.9160279"><ele>920.6666666666666</ele><time>2026-05-03T09:58:14.276Z</time></trkpt><trkpt lat="38.1132981" lon="14.9160615"><ele>921.5</ele><time>2026-05-03T09:58:15.276Z</time></trkpt><trkpt lat="38.11322" lon="14.9160936"><ele>922.3333333333333</ele><time>2026-05-03T09:58:16.276Z</time></trkpt><trkpt lat="38.1131478" lon="14.9161163"><ele>923.1666666666666</ele><time>2026-05-03T09:58:17.276Z</time></trkpt><trkpt lat="38.1130745" lon="14.9161415"><ele>924.0</ele><time>2026-05-03T09:58:18.276Z</time></trkpt><trkpt lat="38.1130032" lon="14.9161671"><ele>930.0</ele><time>2026-05-03T09:58:19.276Z</time></trkpt><trkpt lat="38.112941" lon="14.9161944"><ele>936.0000000000001</ele><time>2026-05-03T09:58:20.276Z</time></trkpt><trkpt lat="38.1128259" lon="14.9162622"><ele>942.0000000000001</ele><time>2026-05-03T09:58:22.275Z</time></trkpt><trkpt lat="38.1127027" lon="14.9162993"><ele>948.0</ele><time>2026-05-03T09:58:24.276Z</time></trkpt><trkpt lat="38.112634" lon="14.916312"><ele>954.0</ele><time>2026-05-03T09:58:25.275Z</time></trkpt><trkpt lat="38.1125701" lon="14.9163332"><ele>954.0</ele><time>2026-05-03T09:58:26.276Z</time></trkpt><trkpt lat="38.11248" lon="14.9163724"><ele>954.0</ele><time>2026-05-03T09:58:28.276Z</time></trkpt><trkpt lat="38.1124012" lon="14.9163968"><ele>954.0</ele><time>2026-05-03T09:58:31.276Z</time></trkpt><trkpt lat="38.1124672" lon="14.9163753"><ele>954.0</ele><time>2026-05-03T09:59:20.276Z</time></trkpt><trkpt lat="38.1125604" lon="14.9163496"><ele>954.0</ele><time>2026-05-03T09:59:23.276Z</time></trkpt><trkpt lat="38.1126268" lon="14.9163285"><ele>954.0</ele><time>2026-05-03T09:59:25.276Z</time></trkpt><trkpt lat="38.1126994" lon="14.9163192"><ele>954.0</ele><time>2026-05-03T09:59:28.276Z</time></trkpt><trkpt lat="38.1127587" lon="14.91636"><ele>954.0</ele><time>2026-05-03T09:59:33.276Z</time></trkpt><trkpt lat="38.1128367" lon="14.9163249"><ele>954.0</ele><time>2026-05-03T09:59:43.276Z</time></trkpt><trkpt lat="38.1129146" lon="14.9162851"><ele>954.0</ele><time>2026-05-03T09:59:46.276Z</time></trkpt><trkpt lat="38.1130004" lon="14.9162348"><ele>954.0</ele><time>2026-05-03T09:59:49.276Z</time></trkpt><trkpt lat="38.113073" lon="14.916206"><ele>954.0</ele><time>2026-05-03T09:59:51.276Z</time></trkpt><trkpt lat="38.1131407" lon="14.9161752"><ele>954.0</ele><time>2026-05-03T09:59:53.276Z</time></trkpt><trkpt lat="38.113211" lon="14.916138"><ele>954.0</ele><time>2026-05-03T09:59:55.276Z</time></trkpt><trkpt lat="38.1132871" lon="14.9161127"><ele>954.0</ele><time>2026-05-03T09:59:57.276Z</time></trkpt><trkpt lat="38.1133721" lon="14.9160897"><ele>954.0</ele><time>2026-05-03T10:00:00.275Z</time></trkpt><trkpt lat="38.1134373" lon="14.91606"><ele>954.0</ele><time>2026-05-03T10:00:02.276Z</time></trkpt><trkpt lat="38.1135155" lon="14.9160161"><ele>954.0</ele><time>2026-05-03T10:00:04.276Z</time></trkpt><trkpt lat="38.1136042" lon="14.9159581"><ele>949.0</ele><time>2026-05-03T10:00:07.276Z</time></trkpt><trkpt lat="38.1136801" lon="14.9159305"><ele>944.0</ele><time>2026-05-03T10:00:09.276Z</time></trkpt><trkpt lat="38.1137619" lon="14.9159014"><ele>939.0</ele><time>2026-05-03T10:00:11.276Z</time></trkpt><trkpt lat="38.1138301" lon="14.9158643"><ele>934.0</ele><time>2026-05-03T10:00:13.276Z</time></trkpt><trkpt lat="38.113902" lon="14.9158307"><ele>929.0</ele><time>2026-05-03T10:00:15.276Z</time></trkpt><trkpt lat="38.1139873" lon="14.9157939"><ele>924.0</ele><time>2026-05-03T10:00:17.276Z</time></trkpt><trkpt lat="38.1140671" lon="14.915741"><ele>919.0</ele><time>2026-05-03T10:00:19.276Z</time></trkpt><trkpt lat="38.1141438" lon="14.9156885"><ele>914.0</ele><time>2026-05-03T10:00:21.276Z</time></trkpt><trkpt lat="38.1142068" lon="14.9156676"><ele>909.0</ele><time>2026-05-03T10:00:23.276Z</time></trkpt><trkpt lat="38.1142874" lon="14.915638"><ele>904.0</ele><time>2026-05-03T10:00:26.276Z</time></trkpt><trkpt lat="38.1143634" lon="14.9156203"><ele>899.0</ele><time>2026-05-03T10:00:29.276Z</time></trkpt><trkpt lat="38.1144322" lon="14.9155631"><ele>894.0</ele><time>2026-05-03T10:00:33.276Z</time></trkpt><trkpt lat="38.1145056" lon="14.9155285"><ele>894.0</ele><time>2026-05-03T10:00:35.276Z</time></trkpt><trkpt lat="38.1145888" lon="14.915501"><ele>894.0</ele><time>2026-05-03T10:00:37.276Z</time></trkpt><trkpt lat="38.1146694" lon="14.9155263"><ele>894.0</ele><time>2026-05-03T10:00:40.275Z</time></trkpt><trkpt lat="38.1146734" lon="14.915621"><ele>894.0</ele><time>2026-05-03T10:00:42.276Z</time></trkpt><trkpt lat="38.1146427" lon="14.9157327"><ele>894.0</ele><time>2026-05-03T10:00:44.276Z</time></trkpt><trkpt lat="38.1146432" lon="14.9158437"><ele>894.0</ele><time>2026-05-03T10:00:46.276Z</time></trkpt><trkpt lat="38.1146636" lon="14.9159346"><ele>893.8333333333334</ele><time>2026-05-03T10:00:48.276Z</time></trkpt><trkpt lat="38.1147073" lon="14.9160096"><ele>893.6666666666667</ele><time>2026-05-03T10:00:50.276Z</time></trkpt><trkpt lat="38.1147482" lon="14.916082"><ele>893.5</ele><time>2026-05-03T10:00:53.276Z</time></trkpt><trkpt lat="38.1147448" lon="14.9161942"><ele>893.3333333333334</ele><time>2026-05-03T10:01:03.276Z</time></trkpt><trkpt lat="38.1147336" lon="14.9163362"><ele>893.1666666666667</ele><time>2026-05-03T10:01:05.276Z</time></trkpt><trkpt lat="38.1147119" lon="14.9164268"><ele>893.0</ele><time>2026-05-03T10:01:06.275Z</time></trkpt><trkpt lat="38.1146829" lon="14.9165418"><ele>893.0</ele><time>2026-05-03T10:01:07.276Z</time></trkpt><trkpt lat="38.1146422" lon="14.9166889"><ele>893.0</ele><time>2026-05-03T10:01:08.276Z</time></trkpt><trkpt lat="38.1145974" lon="14.916849"><ele>893.0</ele><time>2026-05-03T10:01:09.276Z</time></trkpt><trkpt lat="38.1145511" lon="14.9170059"><ele>893.0</ele><time>2026-05-03T10:01:10.276Z</time></trkpt><trkpt lat="38.1145061" lon="14.9171541"><ele>891.2</ele><time>2026-05-03T10:01:11.276Z</time></trkpt><trkpt lat="38.1144668" lon="14.9173073"><ele>889.4</ele><time>2026-05-03T10:01:12.276Z</time></trkpt><trkpt lat="38.1144461" lon="14.9174465"><ele>887.6000000000001</ele><time>2026-05-03T10:01:13.276Z</time></trkpt><trkpt lat="38.1144206" lon="14.9175722"><ele>885.8000000000001</ele><time>2026-05-03T10:01:14.275Z</time></trkpt><trkpt lat="38.1143898" lon="14.9176824"><ele>884.0</ele><time>2026-05-03T10:01:15.276Z</time></trkpt><trkpt lat="38.1143415" lon="14.9177946"><ele>884.3333333333334</ele><time>2026-05-03T10:01:16.276Z</time></trkpt><trkpt lat="38.114293" lon="14.9179077"><ele>884.6666666666667</ele><time>2026-05-03T10:01:17.276Z</time></trkpt><trkpt lat="38.114251" lon="14.918009"><ele>885.0</ele><time>2026-05-03T10:01:18.276Z</time></trkpt><trkpt lat="38.1142131" lon="14.9180879"><ele>885.3333333333333</ele><time>2026-05-03T10:01:19.276Z</time></trkpt><trkpt lat="38.1141668" lon="14.9181566"><ele>885.6666666666666</ele><time>2026-05-03T10:01:20.276Z</time></trkpt><trkpt lat="38.1141051" lon="14.9182226"><ele>886.0</ele><time>2026-05-03T10:01:21.276Z</time></trkpt><trkpt lat="38.1140294" lon="14.9182949"><ele>886.0</ele><time>2026-05-03T10:01:22.276Z</time></trkpt><trkpt lat="38.1139412" lon="14.9183771"><ele>886.0</ele><time>2026-05-03T10:01:23.276Z</time></trkpt><trkpt lat="38.1138414" lon="14.9184644"><ele>886.0</ele><time>2026-05-03T10:01:24.276Z</time></trkpt><trkpt lat="38.1137374" lon="14.9185477"><ele>886.0</ele><time>2026-05-03T10:01:25.275Z</time></trkpt><trkpt lat="38.1136431" lon="14.918612"><ele>881.1428571428571</ele><time>2026-05-03T10:01:26.276Z</time></trkpt><trkpt lat="38.1135726" lon="14.9186532"><ele>876.2857142857143</ele><time>2026-05-03T10:01:27.276Z</time></trkpt><trkpt lat="38.1135152" lon="14.9186861"><ele>871.4285714285713</ele><time>2026-05-03T10:01:28.275Z</time></trkpt><trkpt lat="38.1134475" lon="14.918728"><ele>866.5714285714286</ele><time>2026-05-03T10:01:30.276Z</time></trkpt><trkpt lat="38.1134537" lon="14.9188219"><ele>861.7142857142857</ele><time>2026-05-03T10:01:34.276Z</time></trkpt><trkpt lat="38.1134844" lon="14.9188942"><ele>856.8571428571428</ele><time>2026-05-03T10:01:37.276Z</time></trkpt><trkpt lat="38.1134293" lon="14.9189874"><ele>852.0</ele><time>2026-05-03T10:01:40.276Z</time></trkpt><trkpt lat="38.1132746" lon="14.9190469"><ele>853.4000000000001</ele><time>2026-05-03T10:01:42.276Z</time></trkpt><trkpt lat="38.1131484" lon="14.919077"><ele>854.8000000000001</ele><time>2026-05-03T10:01:43.276Z</time></trkpt><trkpt lat="38.113023" lon="14.9190922"><ele>856.2</ele><time>2026-05-03T10:01:44.276Z</time></trkpt><trkpt lat="38.1129175" lon="14.9191114"><ele>857.6</ele><time>2026-05-03T10:01:45.276Z</time></trkpt><trkpt lat="38.1128367" lon="14.9191354"><ele>859.0</ele><time>2026-05-03T10:01:46.276Z</time></trkpt><trkpt lat="38.1127576" lon="14.9191411"><ele>858.9999999999999</ele><time>2026-05-03T10:01:48.275Z</time></trkpt><trkpt lat="38.112836" lon="14.9191273"><ele>859.0</ele><time>2026-05-03T10:01:51.276Z</time></trkpt><trkpt lat="38.1129211" lon="14.9191121"><ele>859.0</ele><time>2026-05-03T10:01:52.275Z</time></trkpt><trkpt lat="38.1130189" lon="14.919089"><ele>859.0</ele><time>2026-05-03T10:01:53.276Z</time></trkpt><trkpt lat="38.11311" lon="14.9190618"><ele>858.9999999999999</ele><time>2026-05-03T10:01:54.276Z</time></trkpt><trkpt lat="38.1131728" lon="14.919042"><ele>859.0</ele><time>2026-05-03T10:01:55.276Z</time></trkpt><trkpt lat="38.1132405" lon="14.9190435"><ele>859.0</ele><time>2026-05-03T10:01:57.276Z</time></trkpt><trkpt lat="38.11318" lon="14.9191196"><ele>859.0000000000001</ele><time>2026-05-03T10:02:00.276Z</time></trkpt><trkpt lat="38.1131008" lon="14.9191796"><ele>859.0000000000001</ele><time>2026-05-03T10:02:01.276Z</time></trkpt><trkpt lat="38.1129941" lon="14.9192624"><ele>859.0</ele><time>2026-05-03T10:02:02.276Z</time></trkpt><trkpt lat="38.1128804" lon="14.9193586"><ele>859.0</ele><time>2026-05-03T10:02:03.276Z</time></trkpt><trkpt lat="38.1127739" lon="14.9194321"><ele>850.6</ele><time>2026-05-03T10:02:04.276Z</time></trkpt><trkpt lat="38.1126731" lon="14.9194811"><ele>842.2</ele><time>2026-05-03T10:02:05.276Z</time></trkpt><trkpt lat="38.1125851" lon="14.9195074"><ele>833.8000000000001</ele><time>2026-05-03T10:02:06.276Z</time></trkpt><trkpt lat="38.1125128" lon="14.9194996"><ele>825.4000000000001</ele><time>2026-05-03T10:02:07.276Z</time></trkpt><trkpt lat="38.1123765" lon="14.9194351"><ele>817.0</ele><time>2026-05-03T10:02:09.276Z</time></trkpt><trkpt lat="38.1122948" lon="14.919369"><ele>819.1666666666666</ele><time>2026-05-03T10:02:10.276Z</time></trkpt><trkpt lat="38.1122182" lon="14.9192993"><ele>821.3333333333333</ele><time>2026-05-03T10:02:11.276Z</time></trkpt><trkpt lat="38.1121572" lon="14.9192206"><ele>823.5</ele><time>2026-05-03T10:02:12.276Z</time></trkpt><trkpt lat="38.1121041" lon="14.9191388"><ele>825.6666666666667</ele><time>2026-05-03T10:02:13.276Z</time></trkpt><trkpt lat="38.1120498" lon="14.919059"><ele>827.8333333333334</ele><time>2026-05-03T10:02:14.276Z</time></trkpt><trkpt lat="38.1119802" lon="14.9189752"><ele>830.0</ele><time>2026-05-03T10:02:15.276Z</time></trkpt><trkpt lat="38.1118974" lon="14.9188913"><ele>830.0</ele><time>2026-05-03T10:02:16.276Z</time></trkpt><trkpt lat="38.1118059" lon="14.9188212"><ele>830.0</ele><time>2026-05-03T10:02:17.276Z</time></trkpt><trkpt lat="38.1117053" lon="14.918739"><ele>830.0</ele><time>2026-05-03T10:02:18.276Z</time></trkpt><trkpt lat="38.1116161" lon="14.9186612"><ele>830.0</ele><time>2026-05-03T10:02:19.276Z</time></trkpt><trkpt lat="38.1115354" lon="14.9186085"><ele>830.0</ele><time>2026-05-03T10:02:20.276Z</time></trkpt><trkpt lat="38.1114634" lon="14.9185823"><ele>827.3333333333334</ele><time>2026-05-03T10:02:21.276Z</time></trkpt><trkpt lat="38.1113885" lon="14.91859"><ele>824.6666666666667</ele><time>2026-05-03T10:02:22.277Z</time></trkpt><trkpt lat="38.1113126" lon="14.9186296"><ele>822.0</ele><time>2026-05-03T10:02:23.276Z</time></trkpt><trkpt lat="38.1112331" lon="14.9186656"><ele>819.3333333333333</ele><time>2026-05-03T10:02:24.277Z</time></trkpt><trkpt lat="38.1111492" lon="14.9186969"><ele>816.6666666666666</ele><time>2026-05-03T10:02:25.277Z</time></trkpt><trkpt lat="38.1110705" lon="14.9186929"><ele>814.0</ele><time>2026-05-03T10:02:26.277Z</time></trkpt><trkpt lat="38.1109872" lon="14.918661"><ele>814.0</ele><time>2026-05-03T10:02:27.277Z</time></trkpt><trkpt lat="38.1108935" lon="14.9185875"><ele>814.0</ele><time>2026-05-03T10:02:28.277Z</time></trkpt><trkpt lat="38.1107996" lon="14.918508"><ele>814.0</ele><time>2026-05-03T10:02:29.277Z</time></trkpt><trkpt lat="38.1106992" lon="14.918428"><ele>814.0</ele><time>2026-05-03T10:02:30.277Z</time></trkpt><trkpt lat="38.1105862" lon="14.9183754"><ele>823.6</ele><time>2026-05-03T10:02:31.277Z</time></trkpt><trkpt lat="38.1104722" lon="14.918345"><ele>833.2</ele><time>2026-05-03T10:02:32.277Z</time></trkpt><trkpt lat="38.1103676" lon="14.9183159"><ele>842.8000000000001</ele><time>2026-05-03T10:02:33.277Z</time></trkpt><trkpt lat="38.1102686" lon="14.9183075"><ele>852.4000000000001</ele><time>2026-05-03T10:02:34.277Z</time></trkpt><trkpt lat="38.110166" lon="14.918313"><ele>862.0</ele><time>2026-05-03T10:02:35.277Z</time></trkpt><trkpt lat="38.1100657" lon="14.9183227"><ele>861.9999999999999</ele><time>2026-05-03T10:02:36.277Z</time></trkpt><trkpt lat="38.1099674" lon="14.9183158"><ele>862.0</ele><time>2026-05-03T10:02:37.276Z</time></trkpt><trkpt lat="38.1098813" lon="14.9182943"><ele>862.0</ele><time>2026-05-03T10:02:38.277Z</time></trkpt><trkpt lat="38.1098042" lon="14.9182796"><ele>862.0</ele><time>2026-05-03T10:02:39.277Z</time></trkpt><trkpt lat="38.1097327" lon="14.9182811"><ele>861.9999999999999</ele><time>2026-05-03T10:02:40.277Z</time></trkpt><trkpt lat="38.1096613" lon="14.9183223"><ele>862.0</ele><time>2026-05-03T10:02:41.277Z</time></trkpt><trkpt lat="38.1095839" lon="14.9184084"><ele>857.4000000000001</ele><time>2026-05-03T10:02:42.277Z</time></trkpt><trkpt lat="38.1095107" lon="14.9185062"><ele>852.8000000000001</ele><time>2026-05-03T10:02:43.277Z</time></trkpt><trkpt lat="38.109445" lon="14.9185914"><ele>848.2</ele><time>2026-05-03T10:02:44.277Z</time></trkpt><trkpt lat="38.1093796" lon="14.918646"><ele>843.6</ele><time>2026-05-03T10:02:45.277Z</time></trkpt><trkpt lat="38.1093156" lon="14.9186683"><ele>839.0</ele><time>2026-05-03T10:02:46.277Z</time></trkpt><trkpt lat="38.1092" lon="14.9186678"><ele>844.4000000000001</ele><time>2026-05-03T10:02:48.277Z</time></trkpt><trkpt lat="38.1090732" lon="14.9186795"><ele>849.8</ele><time>2026-05-03T10:02:50.276Z</time></trkpt><trkpt lat="38.1089994" lon="14.9187066"><ele>855.1999999999999</ele><time>2026-05-03T10:02:51.277Z</time></trkpt><trkpt lat="38.1089205" lon="14.9187361"><ele>860.5999999999999</ele><time>2026-05-03T10:02:52.277Z</time></trkpt><trkpt lat="38.1088376" lon="14.9187578"><ele>866.0</ele><time>2026-05-03T10:02:53.276Z</time></trkpt><trkpt lat="38.1087528" lon="14.9187729"><ele>866.0</ele><time>2026-05-03T10:02:54.277Z</time></trkpt><trkpt lat="38.1086689" lon="14.9187946"><ele>865.9999999999999</ele><time>2026-05-03T10:02:55.277Z</time></trkpt><trkpt lat="38.1086003" lon="14.9188219"><ele>865.9999999999999</ele><time>2026-05-03T10:02:56.277Z</time></trkpt><trkpt lat="38.1085019" lon="14.9188492"><ele>866.0</ele><time>2026-05-03T10:02:58.277Z</time></trkpt><trkpt lat="38.1084405" lon="14.9187803"><ele>866.0</ele><time>2026-05-03T10:03:00.277Z</time></trkpt><trkpt lat="38.1083712" lon="14.9186483"><ele>866.0</ele><time>2026-05-03T10:03:02.277Z</time></trkpt><trkpt lat="38.1082683" lon="14.9185967"><ele>865.9999999999999</ele><time>2026-05-03T10:03:04.277Z</time></trkpt><trkpt lat="38.1081967" lon="14.91863"><ele>865.9999999999999</ele><time>2026-05-03T10:03:05.277Z</time></trkpt><trkpt lat="38.108115" lon="14.918695"><ele>866.0</ele><time>2026-05-03T10:03:06.277Z</time></trkpt><trkpt lat="38.10802" lon="14.9187817"><ele>866.0</ele><time>2026-05-03T10:03:07.277Z</time></trkpt><trkpt lat="38.1079383" lon="14.91884"><ele>869.1666666666667</ele><time>2026-05-03T10:03:08.277Z</time></trkpt><trkpt lat="38.1078617" lon="14.918885"><ele>872.3333333333334</ele><time>2026-05-03T10:03:09.277Z</time></trkpt><trkpt lat="38.107785" lon="14.9189033"><ele>875.5</ele><time>2026-05-03T10:03:10.277Z</time></trkpt><trkpt lat="38.1076983" lon="14.9189017"><ele>878.6666666666667</ele><time>2026-05-03T10:03:11.277Z</time></trkpt><trkpt lat="38.1076133" lon="14.9188883"><ele>881.8333333333334</ele><time>2026-05-03T10:03:12.277Z</time></trkpt><trkpt lat="38.1075267" lon="14.9188833"><ele>885.0</ele><time>2026-05-03T10:03:13.276Z</time></trkpt><trkpt lat="38.1074333" lon="14.918875"><ele>890.8333333333334</ele><time>2026-05-03T10:03:14.276Z</time></trkpt><trkpt lat="38.1073483" lon="14.9188583"><ele>896.6666666666667</ele><time>2026-05-03T10:03:15.277Z</time></trkpt><trkpt lat="38.10726" lon="14.91885"><ele>902.5</ele><time>2026-05-03T10:03:16.277Z</time></trkpt><trkpt lat="38.10718" lon="14.9188633"><ele>908.3333333333334</ele><time>2026-05-03T10:03:17.276Z</time></trkpt><trkpt lat="38.1071" lon="14.9188683"><ele>914.1666666666667</ele><time>2026-05-03T10:03:18.277Z</time></trkpt><trkpt lat="38.1070267" lon="14.9188733"><ele>920.0</ele><time>2026-05-03T10:03:19.277Z</time></trkpt><trkpt lat="38.1069483" lon="14.9188767"><ele>920.0</ele><time>2026-05-03T10:03:20.276Z</time></trkpt><trkpt lat="38.1068783" lon="14.9188717"><ele>920.0</ele><time>2026-05-03T10:03:21.277Z</time></trkpt><trkpt lat="38.1068017" lon="14.9188567"><ele>920.0</ele><time>2026-05-03T10:03:22.277Z</time></trkpt><trkpt lat="38.1067317" lon="14.9188433"><ele>920.0</ele><time>2026-05-03T10:03:23.276Z</time></trkpt><trkpt lat="38.1066167" lon="14.9188767"><ele>920.0</ele><time>2026-05-03T10:03:25.277Z</time></trkpt><trkpt lat="38.1065467" lon="14.91901"><ele>922.8</ele><time>2026-05-03T10:03:27.277Z</time></trkpt><trkpt lat="38.106535" lon="14.919095"><ele>925.6</ele><time>2026-05-03T10:03:28.277Z</time></trkpt><trkpt lat="38.1065633" lon="14.919185"><ele>928.4000000000001</ele><time>2026-05-03T10:03:29.277Z</time></trkpt><trkpt lat="38.1066317" lon="14.9192983"><ele>931.2</ele><time>2026-05-03T10:03:30.277Z</time></trkpt><trkpt lat="38.106725" lon="14.9194167"><ele>934.0</ele><time>2026-05-03T10:03:31.277Z</time></trkpt><trkpt lat="38.106795" lon="14.9195217"><ele>933.9999999999999</ele><time>2026-05-03T10:03:32.277Z</time></trkpt><trkpt lat="38.1068433" lon="14.9196"><ele>934.0</ele><time>2026-05-03T10:03:33.277Z</time></trkpt><trkpt lat="38.10689" lon="14.9196617"><ele>934.0</ele><time>2026-05-03T10:03:34.277Z</time></trkpt><trkpt lat="38.1069233" lon="14.91974"><ele>934.0</ele><time>2026-05-03T10:03:35.277Z</time></trkpt><trkpt lat="38.106965" lon="14.9198267"><ele>933.9999999999999</ele><time>2026-05-03T10:03:36.277Z</time></trkpt><trkpt lat="38.1070083" lon="14.9199333"><ele>934.0</ele><time>2026-05-03T10:03:37.277Z</time></trkpt><trkpt lat="38.10705" lon="14.9200517"><ele>935.6</ele><time>2026-05-03T10:03:38.277Z</time></trkpt><trkpt lat="38.1070817" lon="14.9201833"><ele>937.2</ele><time>2026-05-03T10:03:39.277Z</time></trkpt><trkpt lat="38.10711" lon="14.9203133"><ele>938.8000000000001</ele><time>2026-05-03T10:03:40.277Z</time></trkpt><trkpt lat="38.1071333" lon="14.9204367"><ele>940.4000000000001</ele><time>2026-05-03T10:03:41.277Z</time></trkpt><trkpt lat="38.1071467" lon="14.92055"><ele>942.0</ele><time>2026-05-03T10:03:42.277Z</time></trkpt><trkpt lat="38.1071483" lon="14.9206717"><ele>942.0</ele><time>2026-05-03T10:03:43.277Z</time></trkpt><trkpt lat="38.1071333" lon="14.9207833"><ele>942.0</ele><time>2026-05-03T10:03:44.277Z</time></trkpt><trkpt lat="38.1071083" lon="14.9208983"><ele>942.0</ele><time>2026-05-03T10:03:45.277Z</time></trkpt><trkpt lat="38.1070783" lon="14.9210083"><ele>942.0</ele><time>2026-05-03T10:03:46.277Z</time></trkpt><trkpt lat="38.107065" lon="14.9211133"><ele>942.0</ele><time>2026-05-03T10:03:47.277Z</time></trkpt><trkpt lat="38.1070467" lon="14.9212133"><ele>942.0</ele><time>2026-05-03T10:03:48.276Z</time></trkpt><trkpt lat="38.107025" lon="14.921315"><ele>937.0</ele><time>2026-05-03T10:03:49.277Z</time></trkpt><trkpt lat="38.1069933" lon="14.9214017"><ele>932.0</ele><time>2026-05-03T10:03:50.277Z</time></trkpt><trkpt lat="38.1069483" lon="14.9214883"><ele>927.0</ele><time>2026-05-03T10:03:51.276Z</time></trkpt><trkpt lat="38.1068983" lon="14.92154"><ele>922.0</ele><time>2026-05-03T10:03:52.277Z</time></trkpt><trkpt lat="38.1068517" lon="14.921465"><ele>917.0</ele><time>2026-05-03T10:03:55.277Z</time></trkpt><trkpt lat="38.10687" lon="14.9213767"><ele>912.0</ele><time>2026-05-03T10:03:56.277Z</time></trkpt><trkpt lat="38.1068867" lon="14.921265"><ele>912.0</ele><time>2026-05-03T10:03:57.277Z</time></trkpt><trkpt lat="38.1068883" lon="14.9211667"><ele>912.0</ele><time>2026-05-03T10:03:58.277Z</time></trkpt><trkpt lat="38.1068883" lon="14.92106"><ele>912.0</ele><time>2026-05-03T10:03:59.276Z</time></trkpt><trkpt lat="38.1068717" lon="14.9209467"><ele>912.0</ele><time>2026-05-03T10:04:00.277Z</time></trkpt><trkpt lat="38.1068433" lon="14.920825"><ele>912.0</ele><time>2026-05-03T10:04:01.277Z</time></trkpt><trkpt lat="38.1068217" lon="14.9207117"><ele>912.0</ele><time>2026-05-03T10:04:02.276Z</time></trkpt><trkpt lat="38.1068017" lon="14.9206233"><ele>916.2857142857142</ele><time>2026-05-03T10:04:03.277Z</time></trkpt><trkpt lat="38.1067833" lon="14.9205433"><ele>920.5714285714284</ele><time>2026-05-03T10:04:04.277Z</time></trkpt><trkpt lat="38.106755" lon="14.92047"><ele>924.8571428571429</ele><time>2026-05-03T10:04:05.277Z</time></trkpt><trkpt lat="38.106715" lon="14.9203967"><ele>929.1428571428571</ele><time>2026-05-03T10:04:06.277Z</time></trkpt><trkpt lat="38.1066717" lon="14.9203183"><ele>933.4285714285714</ele><time>2026-05-03T10:04:07.277Z</time></trkpt><trkpt lat="38.1066283" lon="14.92025"><ele>937.7142857142858</ele><time>2026-05-03T10:04:08.277Z</time></trkpt><trkpt lat="38.1065817" lon="14.92018"><ele>942.0000000000001</ele><time>2026-05-03T10:04:09.276Z</time></trkpt><trkpt lat="38.1065283" lon="14.9200967"><ele>947.0</ele><time>2026-05-03T10:04:10.277Z</time></trkpt><trkpt lat="38.106485" lon="14.9200117"><ele>952.0</ele><time>2026-05-03T10:04:11.277Z</time></trkpt><trkpt lat="38.1064433" lon="14.919935"><ele>957.0</ele><time>2026-05-03T10:04:12.277Z</time></trkpt><trkpt lat="38.1063967" lon="14.919845"><ele>962.0</ele><time>2026-05-03T10:04:13.277Z</time></trkpt><trkpt lat="38.10635" lon="14.9197483"><ele>967.0</ele><time>2026-05-03T10:04:14.277Z</time></trkpt><trkpt lat="38.1062967" lon="14.9196667"><ele>972.0</ele><time>2026-05-03T10:04:15.277Z</time></trkpt><trkpt lat="38.1062383" lon="14.9196033"><ele>972.0</ele><time>2026-05-03T10:04:16.277Z</time></trkpt><trkpt lat="38.10618" lon="14.91955"><ele>972.0</ele><time>2026-05-03T10:04:17.277Z</time></trkpt><trkpt lat="38.1061167" lon="14.9195017"><ele>972.0</ele><time>2026-05-03T10:04:18.277Z</time></trkpt><trkpt lat="38.10605" lon="14.9194433"><ele>972.0</ele><time>2026-05-03T10:04:19.277Z</time></trkpt><trkpt lat="38.105975" lon="14.919375"><ele>972.0</ele><time>2026-05-03T10:04:20.277Z</time></trkpt><trkpt lat="38.1059" lon="14.9193083"><ele>972.0</ele><time>2026-05-03T10:04:21.277Z</time></trkpt><trkpt lat="38.1058383" lon="14.919255"><ele>971.6666666666666</ele><time>2026-05-03T10:04:22.276Z</time></trkpt><trkpt lat="38.10579" lon="14.9191933"><ele>971.3333333333333</ele><time>2026-05-03T10:04:23.277Z</time></trkpt><trkpt lat="38.1057367" lon="14.9190467"><ele>971.0</ele><time>2026-05-03T10:04:25.277Z</time></trkpt><trkpt lat="38.10573" lon="14.9189517"><ele>970.6666666666666</ele><time>2026-05-03T10:04:26.277Z</time></trkpt><trkpt lat="38.1057217" lon="14.918855"><ele>970.3333333333333</ele><time>2026-05-03T10:04:27.277Z</time></trkpt><trkpt lat="38.10574" lon="14.918735"><ele>970.0</ele><time>2026-05-03T10:04:28.277Z</time></trkpt><trkpt lat="38.1057733" lon="14.9186117"><ele>970.0</ele><time>2026-05-03T10:04:29.277Z</time></trkpt><trkpt lat="38.1058083" lon="14.9184717"><ele>970.0</ele><time>2026-05-03T10:04:30.277Z</time></trkpt><trkpt lat="38.1058483" lon="14.91834"><ele>970.0</ele><time>2026-05-03T10:04:31.277Z</time></trkpt><trkpt lat="38.105895" lon="14.9182133"><ele>970.0</ele><time>2026-05-03T10:04:32.277Z</time></trkpt><trkpt lat="38.1059317" lon="14.9180967"><ele>970.0</ele><time>2026-05-03T10:04:33.277Z</time></trkpt><trkpt lat="38.1059667" lon="14.9180017"><ele>971.8</ele><time>2026-05-03T10:04:34.277Z</time></trkpt><trkpt lat="38.1060183" lon="14.9178667"><ele>973.6</ele><time>2026-05-03T10:04:36.277Z</time></trkpt><trkpt lat="38.1061033" lon="14.9177783"><ele>975.4000000000001</ele><time>2026-05-03T10:04:38.277Z</time></trkpt><trkpt lat="38.10618" lon="14.91775"><ele>977.2</ele><time>2026-05-03T10:04:39.277Z</time></trkpt><trkpt lat="38.1062567" lon="14.917715"><ele>979.0</ele><time>2026-05-03T10:04:40.277Z</time></trkpt><trkpt lat="38.1063367" lon="14.9176967"><ele>979.0</ele><time>2026-05-03T10:04:41.277Z</time></trkpt><trkpt lat="38.1064233" lon="14.917705"><ele>979.0000000000001</ele><time>2026-05-03T10:04:42.277Z</time></trkpt><trkpt lat="38.1065117" lon="14.9177117"><ele>979.0000000000001</ele><time>2026-05-03T10:04:43.277Z</time></trkpt><trkpt lat="38.106615" lon="14.9177217"><ele>979.0</ele><time>2026-05-03T10:04:44.277Z</time></trkpt><trkpt lat="38.1067217" lon="14.9177217"><ele>979.0</ele><time>2026-05-03T10:04:45.277Z</time></trkpt><trkpt lat="38.106835" lon="14.9177117"><ele>974.3333333333333</ele><time>2026-05-03T10:04:46.277Z</time></trkpt><trkpt lat="38.1069383" lon="14.9177067"><ele>969.6666666666666</ele><time>2026-05-03T10:04:47.277Z</time></trkpt><trkpt lat="38.1070317" lon="14.9177167"><ele>965.0</ele><time>2026-05-03T10:04:48.277Z</time></trkpt><trkpt lat="38.1071183" lon="14.9177217"><ele>960.3333333333333</ele><time>2026-05-03T10:04:49.277Z</time></trkpt><trkpt lat="38.1071983" lon="14.917715"><ele>955.6666666666666</ele><time>2026-05-03T10:04:50.277Z</time></trkpt><trkpt lat="38.10727" lon="14.9176733"><ele>951.0</ele><time>2026-05-03T10:04:51.277Z</time></trkpt><trkpt lat="38.10733" lon="14.917615"><ele>955.0</ele><time>2026-05-03T10:04:52.277Z</time></trkpt><trkpt lat="38.1073783" lon="14.9175433"><ele>958.9999999999999</ele><time>2026-05-03T10:04:53.277Z</time></trkpt><trkpt lat="38.107415" lon="14.9174467"><ele>962.9999999999999</ele><time>2026-05-03T10:04:54.277Z</time></trkpt><trkpt lat="38.1074517" lon="14.9173267"><ele>967.0</ele><time>2026-05-03T10:04:55.277Z</time></trkpt><trkpt lat="38.1075083" lon="14.9171767"><ele>971.0</ele><time>2026-05-03T10:04:56.277Z</time></trkpt><trkpt lat="38.1075583" lon="14.9170233"><ele>971.0000000000001</ele><time>2026-05-03T10:04:57.277Z</time></trkpt><trkpt lat="38.1076133" lon="14.9169067"><ele>971.0</ele><time>2026-05-03T10:04:58.277Z</time></trkpt><trkpt lat="38.1076667" lon="14.9168217"><ele>971.0</ele><time>2026-05-03T10:04:59.277Z</time></trkpt><trkpt lat="38.1077333" lon="14.916775"><ele>971.0</ele><time>2026-05-03T10:05:00.277Z</time></trkpt><trkpt lat="38.1078117" lon="14.9167533"><ele>971.0000000000001</ele><time>2026-05-03T10:05:01.277Z</time></trkpt><trkpt lat="38.107905" lon="14.9167417"><ele>971.0</ele><time>2026-05-03T10:05:02.277Z</time></trkpt><trkpt lat="38.1079983" lon="14.916725"><ele>972.5000000000001</ele><time>2026-05-03T10:05:03.277Z</time></trkpt><trkpt lat="38.10807" lon="14.9166933"><ele>974.0</ele><time>2026-05-03T10:05:04.277Z</time></trkpt><trkpt lat="38.1081167" lon="14.916635"><ele>975.5</ele><time>2026-05-03T10:05:05.277Z</time></trkpt><trkpt lat="38.1081567" lon="14.9165233"><ele>977.0</ele><time>2026-05-03T10:05:07.277Z</time></trkpt><trkpt lat="38.1082117" lon="14.9164683"><ele>978.5000000000001</ele><time>2026-05-03T10:05:08.277Z</time></trkpt><trkpt lat="38.1082883" lon="14.91641"><ele>980.0</ele><time>2026-05-03T10:05:09.277Z</time></trkpt><trkpt lat="38.10839" lon="14.916375"><ele>980.0</ele><time>2026-05-03T10:05:10.277Z</time></trkpt><trkpt lat="38.10851" lon="14.9163617"><ele>980.0</ele><time>2026-05-03T10:05:11.277Z</time></trkpt><trkpt lat="38.1086367" lon="14.9163817"><ele>980.0</ele><time>2026-05-03T10:05:12.277Z</time></trkpt><trkpt lat="38.1087417" lon="14.91644"><ele>980.0</ele><time>2026-05-03T10:05:13.277Z</time></trkpt><trkpt lat="38.1088183" lon="14.916485"><ele>980.0</ele><time>2026-05-03T10:05:14.277Z</time></trkpt><trkpt lat="38.1089283" lon="14.91648"><ele>980.0000000000001</ele><time>2026-05-03T10:05:16.277Z</time></trkpt><trkpt lat="38.1089983" lon="14.9164233"><ele>980.0</ele><time>2026-05-03T10:05:17.277Z</time></trkpt><trkpt lat="38.1090633" lon="14.91637"><ele>980.0</ele><time>2026-05-03T10:05:18.277Z</time></trkpt><trkpt lat="38.10916" lon="14.9162967"><ele>980.0</ele><time>2026-05-03T10:05:20.277Z</time></trkpt><trkpt lat="38.1092183" lon="14.9162433"><ele>980.0000000000001</ele><time>2026-05-03T10:05:29.277Z</time></trkpt><trkpt lat="38.1091383" lon="14.9162267"><ele>980.0</ele><time>2026-05-03T10:05:31.277Z</time></trkpt><trkpt lat="38.10901" lon="14.9162167"><ele>980.0000000000001</ele><time>2026-05-03T10:05:33.277Z</time></trkpt><trkpt lat="38.1089383" lon="14.9162233"><ele>980.0</ele><time>2026-05-03T10:05:34.277Z</time></trkpt><trkpt lat="38.1088667" lon="14.9162217"><ele>980.0</ele><time>2026-05-03T10:05:35.277Z</time></trkpt><trkpt lat="38.1087883" lon="14.9162117"><ele>980.0</ele><time>2026-05-03T10:05:36.277Z</time></trkpt><trkpt lat="38.10871" lon="14.916195"><ele>980.0000000000001</ele><time>2026-05-03T10:05:37.277Z</time></trkpt><trkpt lat="38.10859" lon="14.9161417"><ele>980.0</ele><time>2026-05-03T10:05:39.277Z</time></trkpt><trkpt lat="38.108525" lon="14.916105"><ele>980.0000000000001</ele><time>2026-05-03T10:05:40.277Z</time></trkpt><trkpt lat="38.1084583" lon="14.916075"><ele>980.0</ele><time>2026-05-03T10:05:41.277Z</time></trkpt><trkpt lat="38.1083833" lon="14.9160567"><ele>980.0</ele><time>2026-05-03T10:05:42.277Z</time></trkpt><trkpt lat="38.1082967" lon="14.916055"><ele>980.0</ele><time>2026-05-03T10:05:43.277Z</time></trkpt><trkpt lat="38.108195" lon="14.9160533"><ele>980.0000000000001</ele><time>2026-05-03T10:05:44.277Z</time></trkpt><trkpt lat="38.1081017" lon="14.9160467"><ele>980.0</ele><time>2026-05-03T10:05:45.277Z</time></trkpt><trkpt lat="38.1080217" lon="14.916025"><ele>983.3333333333334</ele><time>2026-05-03T10:05:46.277Z</time></trkpt><trkpt lat="38.1079483" lon="14.916005"><ele>986.6666666666667</ele><time>2026-05-03T10:05:47.277Z</time></trkpt><trkpt lat="38.1078817" lon="14.9159933"><ele>990.0</ele><time>2026-05-03T10:05:48.277Z</time></trkpt><trkpt lat="38.1079133" lon="14.9159067"><ele>993.3333333333333</ele><time>2026-05-03T10:05:52.277Z</time></trkpt><trkpt lat="38.1079833" lon="14.9158817"><ele>996.6666666666666</ele><time>2026-05-03T10:05:53.276Z</time></trkpt><trkpt lat="38.10806" lon="14.9158483"><ele>1000.0</ele><time>2026-05-03T10:05:54.277Z</time></trkpt><trkpt lat="38.1081417" lon="14.9158067"><ele>999.9999999999999</ele><time>2026-05-03T10:05:55.277Z</time></trkpt><trkpt lat="38.10822" lon="14.9157717"><ele>1000.0</ele><time>2026-05-03T10:05:56.277Z</time></trkpt><trkpt lat="38.10829" lon="14.915725"><ele>1000.0</ele><time>2026-05-03T10:05:57.277Z</time></trkpt><trkpt lat="38.1083533" lon="14.9156817"><ele>1000.0</ele><time>2026-05-03T10:05:58.277Z</time></trkpt><trkpt lat="38.1084217" lon="14.9156517"><ele>999.9999999999999</ele><time>2026-05-03T10:05:59.277Z</time></trkpt><trkpt lat="38.1084933" lon="14.9156167"><ele>1000.0</ele><time>2026-05-03T10:06:00.277Z</time></trkpt><trkpt lat="38.108575" lon="14.91558"><ele>1000.0</ele><time>2026-05-03T10:06:01.277Z</time></trkpt><trkpt lat="38.108665" lon="14.915555"><ele>1000.0</ele><time>2026-05-03T10:06:02.276Z</time></trkpt><trkpt lat="38.1087317" lon="14.9155233"><ele>1000.0</ele><time>2026-05-03T10:06:03.277Z</time></trkpt><trkpt lat="38.108815" lon="14.91546"><ele>1000.0</ele><time>2026-05-03T10:06:05.277Z</time></trkpt><trkpt lat="38.1089117" lon="14.91539"><ele>1000.0</ele><time>2026-05-03T10:06:07.277Z</time></trkpt><trkpt lat="38.1089767" lon="14.9153333"><ele>999.9999999999999</ele><time>2026-05-03T10:06:09.277Z</time></trkpt><trkpt lat="38.109025" lon="14.9152517"><ele>1000.0</ele><time>2026-05-03T10:06:11.277Z</time></trkpt><trkpt lat="38.1090467" lon="14.9151517"><ele>1000.0</ele><time>2026-05-03T10:06:13.277Z</time></trkpt><trkpt lat="38.10909" lon="14.9150683"><ele>1000.0</ele><time>2026-05-03T10:06:15.277Z</time></trkpt><trkpt lat="38.10912" lon="14.9149917"><ele>999.9999999999999</ele><time>2026-05-03T10:06:16.277Z</time></trkpt><trkpt lat="38.1091533" lon="14.9149033"><ele>1000.0</ele><time>2026-05-03T10:06:17.277Z</time></trkpt><trkpt lat="38.1091917" lon="14.9148083"><ele>999.9999999999999</ele><time>2026-05-03T10:06:18.277Z</time></trkpt><trkpt lat="38.1092283" lon="14.914735"><ele>1000.0</ele><time>2026-05-03T10:06:19.276Z</time></trkpt><trkpt lat="38.1092583" lon="14.9146633"><ele>1000.0</ele><time>2026-05-03T10:06:20.277Z</time></trkpt><trkpt lat="38.1093183" lon="14.9145583"><ele>1000.0</ele><time>2026-05-03T10:06:22.276Z</time></trkpt><trkpt lat="38.1093633" lon="14.9144517"><ele>999.9999999999999</ele><time>2026-05-03T10:06:24.277Z</time></trkpt><trkpt lat="38.109395" lon="14.9143467"><ele>1000.0</ele><time>2026-05-03T10:06:26.277Z</time></trkpt><trkpt lat="38.109405" lon="14.9142517"><ele>999.4</ele><time>2026-05-03T10:06:28.277Z</time></trkpt><trkpt lat="38.1093967" lon="14.91415"><ele>998.8</ele><time>2026-05-03T10:06:30.277Z</time></trkpt><trkpt lat="38.1093783" lon="14.9140333"><ele>998.2</ele><time>2026-05-03T10:06:32.277Z</time></trkpt><trkpt lat="38.1093517" lon="14.913925"><ele>997.6</ele><time>2026-05-03T10:06:34.277Z</time></trkpt><trkpt lat="38.1093683" lon="14.9138033"><ele>997.0</ele><time>2026-05-03T10:06:36.277Z</time></trkpt><trkpt lat="38.1093983" lon="14.9136933"><ele>996.9999999999999</ele><time>2026-05-03T10:06:38.277Z</time></trkpt><trkpt lat="38.10943" lon="14.9135883"><ele>997.0</ele><time>2026-05-03T10:06:41.277Z</time></trkpt><trkpt lat="38.10945" lon="14.9135017"><ele>997.0</ele><time>2026-05-03T10:06:43.277Z</time></trkpt><trkpt lat="38.1094583" lon="14.9134083"><ele>997.0</ele><time>2026-05-03T10:06:45.277Z</time></trkpt><trkpt lat="38.1094967" lon="14.9133083"><ele>996.9999999999999</ele><time>2026-05-03T10:06:48.277Z</time></trkpt><trkpt lat="38.10951" lon="14.9132167"><ele>997.0</ele><time>2026-05-03T10:06:50.277Z</time></trkpt><trkpt lat="38.1095233" lon="14.9131117"><ele>994.4999999999999</ele><time>2026-05-03T10:06:52.276Z</time></trkpt><trkpt lat="38.1095667" lon="14.9129667"><ele>992.0</ele><time>2026-05-03T10:06:54.277Z</time></trkpt><trkpt lat="38.1095833" lon="14.912885"><ele>989.5</ele><time>2026-05-03T10:06:55.277Z</time></trkpt><trkpt lat="38.109585" lon="14.91278"><ele>987.0</ele><time>2026-05-03T10:06:57.277Z</time></trkpt><trkpt lat="38.1095583" lon="14.912695"><ele>984.4999999999999</ele><time>2026-05-03T10:06:59.277Z</time></trkpt><trkpt lat="38.10949" lon="14.91261"><ele>982.0</ele><time>2026-05-03T10:07:02.277Z</time></trkpt><trkpt lat="38.1095065" lon="14.9125169"><ele>979.6666666666666</ele><time>2026-05-03T10:07:05.276Z</time></trkpt><trkpt lat="38.1095803" lon="14.9124428"><ele>977.3333333333333</ele><time>2026-05-03T10:07:07.277Z</time></trkpt><trkpt lat="38.1096504" lon="14.9123687"><ele>975.0</ele><time>2026-05-03T10:07:09.277Z</time></trkpt><trkpt lat="38.1097149" lon="14.9122933"><ele>972.6666666666667</ele><time>2026-05-03T10:07:11.277Z</time></trkpt><trkpt lat="38.1097646" lon="14.9122255"><ele>970.3333333333334</ele><time>2026-05-03T10:07:13.277Z</time></trkpt><trkpt lat="38.109807" lon="14.9121432"><ele>968.0</ele><time>2026-05-03T10:07:15.277Z</time></trkpt><trkpt lat="38.1098582" lon="14.912062"><ele>968.0000000000001</ele><time>2026-05-03T10:07:17.277Z</time></trkpt><trkpt lat="38.1099013" lon="14.9119853"><ele>968.0</ele><time>2026-05-03T10:07:19.276Z</time></trkpt><trkpt lat="38.1099512" lon="14.9118986"><ele>968.0</ele><time>2026-05-03T10:07:21.277Z</time></trkpt><trkpt lat="38.1099977" lon="14.9118182"><ele>968.0</ele><time>2026-05-03T10:07:23.277Z</time></trkpt><trkpt lat="38.1100411" lon="14.9117334"><ele>968.0000000000001</ele><time>2026-05-03T10:07:25.277Z</time></trkpt><trkpt lat="38.1100799" lon="14.9116507"><ele>968.0</ele><time>2026-05-03T10:07:27.277Z</time></trkpt><trkpt lat="38.1101258" lon="14.911566"><ele>967.0</ele><time>2026-05-03T10:07:29.277Z</time></trkpt><trkpt lat="38.1101783" lon="14.9114751"><ele>965.9999999999999</ele><time>2026-05-03T10:07:31.277Z</time></trkpt><trkpt lat="38.110219" lon="14.9113951"><ele>965.0</ele><time>2026-05-03T10:07:33.277Z</time></trkpt><trkpt lat="38.1102569" lon="14.9113237"><ele>964.0</ele><time>2026-05-03T10:07:35.277Z</time></trkpt><trkpt lat="38.1102898" lon="14.9112525"><ele>962.9999999999999</ele><time>2026-05-03T10:07:37.277Z</time></trkpt><trkpt lat="38.1103238" lon="14.91118"><ele>962.0</ele><time>2026-05-03T10:07:39.277Z</time></trkpt><trkpt lat="38.1103829" lon="14.9110996"><ele>961.0</ele><time>2026-05-03T10:07:41.277Z</time></trkpt><trkpt lat="38.1104589" lon="14.9110383"><ele>961.0</ele><time>2026-05-03T10:07:43.277Z</time></trkpt><trkpt lat="38.1105367" lon="14.9109917"><ele>960.9999999999999</ele><time>2026-05-03T10:07:45.277Z</time></trkpt><trkpt lat="38.1106617" lon="14.9109467"><ele>960.9999999999999</ele><time>2026-05-03T10:07:47.277Z</time></trkpt><trkpt lat="38.1107283" lon="14.9109217"><ele>961.0</ele><time>2026-05-03T10:07:48.277Z</time></trkpt><trkpt lat="38.1107967" lon="14.91084"><ele>961.0</ele><time>2026-05-03T10:07:51.277Z</time></trkpt><trkpt lat="38.1108467" lon="14.9107467"><ele>958.0</ele><time>2026-05-03T10:07:53.277Z</time></trkpt><trkpt lat="38.1108967" lon="14.9106633"><ele>954.9999999999999</ele><time>2026-05-03T10:07:55.277Z</time></trkpt><trkpt lat="38.1109683" lon="14.9105667"><ele>951.9999999999999</ele><time>2026-05-03T10:07:57.277Z</time></trkpt><trkpt lat="38.111025" lon="14.9104783"><ele>949.0</ele><time>2026-05-03T10:07:59.277Z</time></trkpt><trkpt lat="38.111075" lon="14.9103967"><ele>946.0</ele><time>2026-05-03T10:08:01.277Z</time></trkpt><trkpt lat="38.1111483" lon="14.9103"><ele>946.0</ele><time>2026-05-03T10:08:03.277Z</time></trkpt><trkpt lat="38.1112317" lon="14.9101967"><ele>945.9999999999999</ele><time>2026-05-03T10:08:05.277Z</time></trkpt><trkpt lat="38.1112833" lon="14.91013"><ele>945.9999999999999</ele><time>2026-05-03T10:08:06.277Z</time></trkpt><trkpt lat="38.1113617" lon="14.9100317"><ele>946.0</ele><time>2026-05-03T10:08:08.277Z</time></trkpt><trkpt lat="38.1114333" lon="14.9099533"><ele>946.0</ele><time>2026-05-03T10:08:10.277Z</time></trkpt><trkpt lat="38.1115" lon="14.90988"><ele>943.3333333333333</ele><time>2026-05-03T10:08:12.277Z</time></trkpt><trkpt lat="38.11158" lon="14.909795"><ele>940.6666666666666</ele><time>2026-05-03T10:08:14.277Z</time></trkpt><trkpt lat="38.1116567" lon="14.909725"><ele>938.0</ele><time>2026-05-03T10:08:16.277Z</time></trkpt><trkpt lat="38.11172" lon="14.9096567"><ele>935.3333333333333</ele><time>2026-05-03T10:08:18.277Z</time></trkpt><trkpt lat="38.1117667" lon="14.90959"><ele>932.6666666666666</ele><time>2026-05-03T10:08:20.277Z</time></trkpt><trkpt lat="38.1118117" lon="14.9095267"><ele>930.0</ele><time>2026-05-03T10:08:22.277Z</time></trkpt><trkpt lat="38.11186" lon="14.90946"><ele>930.0</ele><time>2026-05-03T10:08:24.276Z</time></trkpt><trkpt lat="38.1119533" lon="14.9094117"><ele>930.0</ele><time>2026-05-03T10:08:26.277Z</time></trkpt><trkpt lat="38.1120667" lon="14.9093633"><ele>930.0</ele><time>2026-05-03T10:08:28.277Z</time></trkpt><trkpt lat="38.11213" lon="14.9093483"><ele>930.0</ele><time>2026-05-03T10:08:29.277Z</time></trkpt><trkpt lat="38.112195" lon="14.9093233"><ele>930.0</ele><time>2026-05-03T10:08:30.277Z</time></trkpt><trkpt lat="38.1122583" lon="14.9093017"><ele>930.0</ele><time>2026-05-03T10:08:31.277Z</time></trkpt><trkpt lat="38.11236" lon="14.9092967"><ele>926.6666666666666</ele><time>2026-05-03T10:08:33.277Z</time></trkpt><trkpt lat="38.1124383" lon="14.9092867"><ele>923.3333333333333</ele><time>2026-05-03T10:08:35.277Z</time></trkpt><trkpt lat="38.1125217" lon="14.9092667"><ele>920.0</ele><time>2026-05-03T10:08:38.277Z</time></trkpt><trkpt lat="38.1126067" lon="14.9092383"><ele>916.6666666666666</ele><time>2026-05-03T10:08:41.277Z</time></trkpt><trkpt lat="38.1126817" lon="14.9092133"><ele>913.3333333333333</ele><time>2026-05-03T10:08:44.277Z</time></trkpt><trkpt lat="38.1127667" lon="14.9092033"><ele>910.0</ele><time>2026-05-03T10:08:46.276Z</time></trkpt><trkpt lat="38.1128333" lon="14.9091867"><ele>909.2</ele><time>2026-05-03T10:08:47.277Z</time></trkpt><trkpt lat="38.1129217" lon="14.9091683"><ele>908.4</ele><time>2026-05-03T10:08:48.276Z</time></trkpt><trkpt lat="38.1130233" lon="14.9091517"><ele>907.5999999999999</ele><time>2026-05-03T10:08:49.277Z</time></trkpt><trkpt lat="38.1131133" lon="14.9091133"><ele>906.8</ele><time>2026-05-03T10:08:50.277Z</time></trkpt><trkpt lat="38.1132" lon="14.909075"><ele>906.0</ele><time>2026-05-03T10:08:51.276Z</time></trkpt><trkpt lat="38.1132983" lon="14.909025"><ele>905.75</ele><time>2026-05-03T10:08:52.277Z</time></trkpt><trkpt lat="38.1134167" lon="14.9089767"><ele>905.5</ele><time>2026-05-03T10:08:53.276Z</time></trkpt><trkpt lat="38.1135467" lon="14.908905"><ele>905.25</ele><time>2026-05-03T10:08:54.277Z</time></trkpt><trkpt lat="38.1136583" lon="14.9088283"><ele>905.0</ele><time>2026-05-03T10:08:55.277Z</time></trkpt><trkpt lat="38.11376" lon="14.9087483"><ele>905.0000000000001</ele><time>2026-05-03T10:08:56.277Z</time></trkpt><trkpt lat="38.1138517" lon="14.908655"><ele>905.0</ele><time>2026-05-03T10:08:57.277Z</time></trkpt><trkpt lat="38.113915" lon="14.9085767"><ele>905.0</ele><time>2026-05-03T10:08:58.277Z</time></trkpt><trkpt lat="38.1139717" lon="14.9085017"><ele>905.0</ele><time>2026-05-03T10:08:59.277Z</time></trkpt><trkpt lat="38.1140317" lon="14.90843"><ele>905.0000000000001</ele><time>2026-05-03T10:09:00.277Z</time></trkpt><trkpt lat="38.1140917" lon="14.908365"><ele>905.0</ele><time>2026-05-03T10:09:01.277Z</time></trkpt><trkpt lat="38.1141633" lon="14.908295"><ele>905.8</ele><time>2026-05-03T10:09:02.276Z</time></trkpt><trkpt lat="38.1142317" lon="14.90822"><ele>906.6</ele><time>2026-05-03T10:09:03.277Z</time></trkpt><trkpt lat="38.1142867" lon="14.90816"><ele>907.4000000000001</ele><time>2026-05-03T10:09:04.277Z</time></trkpt><trkpt lat="38.1143667" lon="14.9080767"><ele>908.2</ele><time>2026-05-03T10:09:06.277Z</time></trkpt><trkpt lat="38.1144483" lon="14.9080433"><ele>909.0</ele><time>2026-05-03T10:09:08.277Z</time></trkpt><trkpt lat="38.114565" lon="14.90802"><ele>909.0</ele><time>2026-05-03T10:09:10.277Z</time></trkpt><trkpt lat="38.1146733" lon="14.908"><ele>909.0000000000001</ele><time>2026-05-03T10:09:12.277Z</time></trkpt><trkpt lat="38.1147767" lon="14.90799"><ele>909.0000000000001</ele><time>2026-05-03T10:09:14.277Z</time></trkpt><trkpt lat="38.1148783" lon="14.90798"><ele>909.0</ele><time>2026-05-03T10:09:16.277Z</time></trkpt><trkpt lat="38.1149867" lon="14.9079733"><ele>909.0</ele><time>2026-05-03T10:09:18.276Z</time></trkpt><trkpt lat="38.1150683" lon="14.90798"><ele>908.0</ele><time>2026-05-03T10:09:19.277Z</time></trkpt><trkpt lat="38.11517" lon="14.907995"><ele>907.0000000000001</ele><time>2026-05-03T10:09:20.277Z</time></trkpt><trkpt lat="38.1152633" lon="14.908005"><ele>906.0000000000001</ele><time>2026-05-03T10:09:21.277Z</time></trkpt><trkpt lat="38.1153617" lon="14.9080067"><ele>905.0</ele><time>2026-05-03T10:09:22.277Z</time></trkpt><trkpt lat="38.1154617" lon="14.9079917"><ele>904.0</ele><time>2026-05-03T10:09:23.277Z</time></trkpt><trkpt lat="38.1155867" lon="14.90793"><ele>904.0</ele><time>2026-05-03T10:09:24.277Z</time></trkpt><trkpt lat="38.1157117" lon="14.9078533"><ele>904.0</ele><time>2026-05-03T10:09:25.277Z</time></trkpt><trkpt lat="38.11581" lon="14.90778"><ele>904.0</ele><time>2026-05-03T10:09:26.277Z</time></trkpt><trkpt lat="38.1159133" lon="14.9077083"><ele>904.0</ele><time>2026-05-03T10:09:27.277Z</time></trkpt><trkpt lat="38.1160267" lon="14.907635"><ele>901.6</ele><time>2026-05-03T10:09:28.277Z</time></trkpt><trkpt lat="38.1161433" lon="14.9075667"><ele>899.2</ele><time>2026-05-03T10:09:29.277Z</time></trkpt><trkpt lat="38.1162367" lon="14.9075017"><ele>896.8000000000001</ele><time>2026-05-03T10:09:30.277Z</time></trkpt><trkpt lat="38.1163183" lon="14.907435"><ele>894.4000000000001</ele><time>2026-05-03T10:09:31.277Z</time></trkpt><trkpt lat="38.1163917" lon="14.907355"><ele>892.0</ele><time>2026-05-03T10:09:32.276Z</time></trkpt><trkpt lat="38.116455" lon="14.907265"><ele>891.9999999999999</ele><time>2026-05-03T10:09:33.277Z</time></trkpt><trkpt lat="38.116505" lon="14.9071867"><ele>892.0</ele><time>2026-05-03T10:09:34.277Z</time></trkpt><trkpt lat="38.1165567" lon="14.9071217"><ele>892.0</ele><time>2026-05-03T10:09:35.277Z</time></trkpt><trkpt lat="38.116615" lon="14.9070717"><ele>892.0</ele><time>2026-05-03T10:09:36.277Z</time></trkpt><trkpt lat="38.1166767" lon="14.9070217"><ele>891.9999999999999</ele><time>2026-05-03T10:09:37.277Z</time></trkpt><trkpt lat="38.1167533" lon="14.906955"><ele>892.0</ele><time>2026-05-03T10:09:38.276Z</time></trkpt><trkpt lat="38.1168367" lon="14.9068883"><ele>892.4999999999999</ele><time>2026-05-03T10:09:39.277Z</time></trkpt><trkpt lat="38.1169217" lon="14.9068367"><ele>893.0</ele><time>2026-05-03T10:09:40.277Z</time></trkpt><trkpt lat="38.11701" lon="14.9067867"><ele>893.5</ele><time>2026-05-03T10:09:41.277Z</time></trkpt><trkpt lat="38.1170783" lon="14.9067583"><ele>894.0</ele><time>2026-05-03T10:09:42.276Z</time></trkpt><trkpt lat="38.1171483" lon="14.9067367"><ele>894.4999999999999</ele><time>2026-05-03T10:09:43.277Z</time></trkpt><trkpt lat="38.1172583" lon="14.906735"><ele>895.0</ele><time>2026-05-03T10:09:45.277Z</time></trkpt><trkpt lat="38.1173383" lon="14.906755"><ele>894.1666666666666</ele><time>2026-05-03T10:09:47.277Z</time></trkpt><trkpt lat="38.117415" lon="14.9067383"><ele>893.3333333333333</ele><time>2026-05-03T10:09:49.277Z</time></trkpt><trkpt lat="38.1175067" lon="14.9067133"><ele>892.5</ele><time>2026-05-03T10:09:52.277Z</time></trkpt><trkpt lat="38.1175833" lon="14.9067383"><ele>891.6666666666667</ele><time>2026-05-03T10:09:54.277Z</time></trkpt><trkpt lat="38.1176967" lon="14.9067317"><ele>890.8333333333334</ele><time>2026-05-03T10:09:56.277Z</time></trkpt><trkpt lat="38.11777" lon="14.9067117"><ele>890.0</ele><time>2026-05-03T10:09:57.277Z</time></trkpt><trkpt lat="38.11785" lon="14.90668"><ele>890.0</ele><time>2026-05-03T10:09:58.277Z</time></trkpt><trkpt lat="38.11794" lon="14.9066283"><ele>890.0</ele><time>2026-05-03T10:09:59.277Z</time></trkpt><trkpt lat="38.11804" lon="14.9065617"><ele>890.0</ele><time>2026-05-03T10:10:00.277Z</time></trkpt><trkpt lat="38.1181467" lon="14.9064717"><ele>890.0</ele><time>2026-05-03T10:10:01.277Z</time></trkpt><trkpt lat="38.118255" lon="14.9063717"><ele>886.6</ele><time>2026-05-03T10:10:02.277Z</time></trkpt><trkpt lat="38.1183383" lon="14.9062733"><ele>883.2</ele><time>2026-05-03T10:10:03.277Z</time></trkpt><trkpt lat="38.1184067" lon="14.9061867"><ele>879.8</ele><time>2026-05-03T10:10:04.277Z</time></trkpt><trkpt lat="38.1184633" lon="14.90614"><ele>876.4</ele><time>2026-05-03T10:10:05.277Z</time></trkpt><trkpt lat="38.1185417" lon="14.90607"><ele>873.0</ele><time>2026-05-03T10:10:07.277Z</time></trkpt><trkpt lat="38.1186033" lon="14.90595"><ele>873.8571428571428</ele><time>2026-05-03T10:10:21.277Z</time></trkpt><trkpt lat="38.1186517" lon="14.9058833"><ele>874.7142857142857</ele><time>2026-05-03T10:10:25.276Z</time></trkpt><trkpt lat="38.1186917" lon="14.9058167"><ele>875.5714285714286</ele><time>2026-05-03T10:10:28.277Z</time></trkpt><trkpt lat="38.1187317" lon="14.9057367"><ele>876.4285714285713</ele><time>2026-05-03T10:10:31.277Z</time></trkpt><trkpt lat="38.118795" lon="14.9056867"><ele>877.2857142857143</ele><time>2026-05-03T10:10:34.277Z</time></trkpt><trkpt lat="38.1188517" lon="14.90565"><ele>878.1428571428571</ele><time>2026-05-03T10:10:37.277Z</time></trkpt><trkpt lat="38.1189017" lon="14.9056"><ele>879.0</ele><time>2026-05-03T10:10:40.277Z</time></trkpt><trkpt lat="38.1189783" lon="14.9055833"><ele>879.0</ele><time>2026-05-03T10:10:44.277Z</time></trkpt><trkpt lat="38.1190267" lon="14.90565"><ele>879.0</ele><time>2026-05-03T10:10:47.277Z</time></trkpt><trkpt lat="38.1190883" lon="14.905695"><ele>879.0</ele><time>2026-05-03T10:10:50.278Z</time></trkpt><trkpt lat="38.1191129" lon="14.905603"><ele>879.0</ele><time>2026-05-03T10:10:53.278Z</time></trkpt><trkpt lat="38.1190732" lon="14.9055315"><ele>879.0</ele><time>2026-05-03T10:10:55.278Z</time></trkpt><trkpt lat="38.1190023" lon="14.9054198"><ele>879.0</ele><time>2026-05-03T10:10:57.278Z</time></trkpt><trkpt lat="38.1189395" lon="14.9053258"><ele>879.0</ele><time>2026-05-03T10:10:58.278Z</time></trkpt><trkpt lat="38.1188622" lon="14.9051993"><ele>879.0</ele><time>2026-05-03T10:10:59.278Z</time></trkpt><trkpt lat="38.11877" lon="14.905062"><ele>879.0</ele><time>2026-05-03T10:11:00.278Z</time></trkpt><trkpt lat="38.1186634" lon="14.9049384"><ele>879.0</ele><time>2026-05-03T10:11:01.278Z</time></trkpt><trkpt lat="38.1185645" lon="14.9048318"><ele>875.5</ele><time>2026-05-03T10:11:02.278Z</time></trkpt><trkpt lat="38.1184817" lon="14.9047712"><ele>872.0</ele><time>2026-05-03T10:11:03.278Z</time></trkpt><trkpt lat="38.118416" lon="14.9047477"><ele>868.5</ele><time>2026-05-03T10:11:04.278Z</time></trkpt><trkpt lat="38.1183379" lon="14.9047219"><ele>865.0</ele><time>2026-05-03T10:11:06.278Z</time></trkpt><trkpt lat="38.1184173" lon="14.9046582"><ele>861.5</ele><time>2026-05-03T10:11:09.278Z</time></trkpt><trkpt lat="38.1185017" lon="14.9046867"><ele>858.0</ele><time>2026-05-03T10:11:10.278Z</time></trkpt><trkpt lat="38.1185883" lon="14.9047233"><ele>858.0</ele><time>2026-05-03T10:11:11.278Z</time></trkpt><trkpt lat="38.1186983" lon="14.9047733"><ele>858.0</ele><time>2026-05-03T10:11:12.278Z</time></trkpt><trkpt lat="38.11881" lon="14.9048317"><ele>858.0</ele><time>2026-05-03T10:11:13.278Z</time></trkpt><trkpt lat="38.1189183" lon="14.9049"><ele>858.0</ele><time>2026-05-03T10:11:14.277Z</time></trkpt><trkpt lat="38.1190083" lon="14.9049633"><ele>856.8333333333334</ele><time>2026-05-03T10:11:15.278Z</time></trkpt><trkpt lat="38.1190833" lon="14.905015"><ele>855.6666666666667</ele><time>2026-05-03T10:11:16.278Z</time></trkpt><trkpt lat="38.11917" lon="14.9050517"><ele>854.5</ele><time>2026-05-03T10:11:17.277Z</time></trkpt><trkpt lat="38.11925" lon="14.905065"><ele>853.3333333333334</ele><time>2026-05-03T10:11:18.278Z</time></trkpt><trkpt lat="38.11932" lon="14.90505"><ele>852.1666666666667</ele><time>2026-05-03T10:11:19.278Z</time></trkpt><trkpt lat="38.11939" lon="14.9050117"><ele>851.0</ele><time>2026-05-03T10:11:20.278Z</time></trkpt><trkpt lat="38.11945" lon="14.9049583"><ele>851.0</ele><time>2026-05-03T10:11:21.278Z</time></trkpt><trkpt lat="38.1195067" lon="14.9049167"><ele>851.0</ele><time>2026-05-03T10:11:22.277Z</time></trkpt><trkpt lat="38.1195717" lon="14.904875"><ele>851.0</ele><time>2026-05-03T10:11:23.278Z</time></trkpt><trkpt lat="38.1196383" lon="14.904835"><ele>851.0</ele><time>2026-05-03T10:11:24.278Z</time></trkpt><trkpt lat="38.119705" lon="14.904795"><ele>851.0</ele><time>2026-05-03T10:11:25.278Z</time></trkpt><trkpt lat="38.11977" lon="14.9047717"><ele>851.0</ele><time>2026-05-03T10:11:26.278Z</time></trkpt><trkpt lat="38.1198333" lon="14.9047467"><ele>851.0</ele><time>2026-05-03T10:11:27.278Z</time></trkpt><trkpt lat="38.1199" lon="14.9047233"><ele>848.8333333333334</ele><time>2026-05-03T10:11:28.278Z</time></trkpt><trkpt lat="38.1199617" lon="14.9046917"><ele>846.6666666666667</ele><time>2026-05-03T10:11:29.278Z</time></trkpt><trkpt lat="38.1200367" lon="14.9046367"><ele>844.5</ele><time>2026-05-03T10:11:30.278Z</time></trkpt><trkpt lat="38.1201133" lon="14.9045633"><ele>842.3333333333333</ele><time>2026-05-03T10:11:31.278Z</time></trkpt><trkpt lat="38.1201867" lon="14.9044917"><ele>840.1666666666666</ele><time>2026-05-03T10:11:32.278Z</time></trkpt><trkpt lat="38.1202567" lon="14.9044183"><ele>838.0</ele><time>2026-05-03T10:11:33.277Z</time></trkpt><trkpt lat="38.120325" lon="14.9043583"><ele>837.9999999999999</ele><time>2026-05-03T10:11:34.278Z</time></trkpt><trkpt lat="38.1203917" lon="14.9043067"><ele>838.0</ele><time>2026-05-03T10:11:35.278Z</time></trkpt><trkpt lat="38.1204617" lon="14.9042533"><ele>838.0</ele><time>2026-05-03T10:11:36.278Z</time></trkpt><trkpt lat="38.1205333" lon="14.9041883"><ele>838.0</ele><time>2026-05-03T10:11:37.278Z</time></trkpt><trkpt lat="38.1206017" lon="14.904105"><ele>837.9999999999999</ele><time>2026-05-03T10:11:38.278Z</time></trkpt><trkpt lat="38.12066" lon="14.9040167"><ele>838.0</ele><time>2026-05-03T10:11:39.277Z</time></trkpt><trkpt lat="38.1207133" lon="14.9039183"><ele>837.6666666666666</ele><time>2026-05-03T10:11:40.278Z</time></trkpt><trkpt lat="38.120775" lon="14.9038167"><ele>837.3333333333333</ele><time>2026-05-03T10:11:41.278Z</time></trkpt><trkpt lat="38.1208217" lon="14.903725"><ele>837.0</ele><time>2026-05-03T10:11:42.278Z</time></trkpt><trkpt lat="38.1208733" lon="14.903645"><ele>836.6666666666667</ele><time>2026-05-03T10:11:43.278Z</time></trkpt><trkpt lat="38.1209317" lon="14.9035633"><ele>836.3333333333334</ele><time>2026-05-03T10:11:44.278Z</time></trkpt><trkpt lat="38.1209917" lon="14.9034867"><ele>836.0</ele><time>2026-05-03T10:11:45.278Z</time></trkpt><trkpt lat="38.1210567" lon="14.90342"><ele>828.75</ele><time>2026-05-03T10:11:46.278Z</time></trkpt><trkpt lat="38.1211267" lon="14.9033417"><ele>821.5</ele><time>2026-05-03T10:11:47.278Z</time></trkpt><trkpt lat="38.1212183" lon="14.90325"><ele>814.25</ele><time>2026-05-03T10:11:48.278Z</time></trkpt><trkpt lat="38.1213217" lon="14.903145"><ele>807.0</ele><time>2026-05-03T10:11:49.278Z</time></trkpt><trkpt lat="38.1214183" lon="14.9030517"><ele>807.0</ele><time>2026-05-03T10:11:50.278Z</time></trkpt><trkpt lat="38.121505" lon="14.9029617"><ele>807.0</ele><time>2026-05-03T10:11:51.278Z</time></trkpt><trkpt lat="38.1215883" lon="14.9028917"><ele>807.0</ele><time>2026-05-03T10:11:52.278Z</time></trkpt><trkpt lat="38.121665" lon="14.9028233"><ele>807.0</ele><time>2026-05-03T10:11:53.278Z</time></trkpt><trkpt lat="38.1217317" lon="14.90276"><ele>807.0</ele><time>2026-05-03T10:11:54.278Z</time></trkpt><trkpt lat="38.121785" lon="14.9027117"><ele>809.4000000000001</ele><time>2026-05-03T10:11:55.277Z</time></trkpt><trkpt lat="38.12191" lon="14.9026767"><ele>811.8000000000001</ele><time>2026-05-03T10:11:57.278Z</time></trkpt><trkpt lat="38.1219883" lon="14.9026833"><ele>814.2</ele><time>2026-05-03T10:11:58.278Z</time></trkpt><trkpt lat="38.12206" lon="14.9026867"><ele>816.6</ele><time>2026-05-03T10:11:59.278Z</time></trkpt><trkpt lat="38.12213" lon="14.9026917"><ele>819.0</ele><time>2026-05-03T10:12:00.277Z</time></trkpt><trkpt lat="38.1222267" lon="14.90261"><ele>813.8000000000001</ele><time>2026-05-03T10:12:02.278Z</time></trkpt><trkpt lat="38.1222867" lon="14.9025383"><ele>808.6</ele><time>2026-05-03T10:12:03.278Z</time></trkpt><trkpt lat="38.1223733" lon="14.90242"><ele>803.4</ele><time>2026-05-03T10:12:04.278Z</time></trkpt><trkpt lat="38.1224583" lon="14.9023083"><ele>798.2</ele><time>2026-05-03T10:12:05.278Z</time></trkpt><trkpt lat="38.1225417" lon="14.9022233"><ele>793.0</ele><time>2026-05-03T10:12:06.278Z</time></trkpt><trkpt lat="38.1226217" lon="14.9021483"><ele>792.4</ele><time>2026-05-03T10:12:07.278Z</time></trkpt><trkpt lat="38.122705" lon="14.9020683"><ele>791.8</ele><time>2026-05-03T10:12:08.278Z</time></trkpt><trkpt lat="38.122775" lon="14.9019883"><ele>791.2</ele><time>2026-05-03T10:12:09.278Z</time></trkpt><trkpt lat="38.1228333" lon="14.9019033"><ele>790.6</ele><time>2026-05-03T10:12:10.278Z</time></trkpt><trkpt lat="38.12289" lon="14.9018"><ele>790.0</ele><time>2026-05-03T10:12:11.278Z</time></trkpt><trkpt lat="38.1229467" lon="14.9016883"><ele>788.6</ele><time>2026-05-03T10:12:12.278Z</time></trkpt><trkpt lat="38.1230083" lon="14.90158"><ele>787.2</ele><time>2026-05-03T10:12:13.278Z</time></trkpt><trkpt lat="38.1230817" lon="14.90147"><ele>785.8</ele><time>2026-05-03T10:12:14.278Z</time></trkpt><trkpt lat="38.12315" lon="14.9013667"><ele>784.4</ele><time>2026-05-03T10:12:15.278Z</time></trkpt><trkpt lat="38.12322" lon="14.9012567"><ele>783.0</ele><time>2026-05-03T10:12:16.278Z</time></trkpt><trkpt lat="38.1232917" lon="14.9011433"><ele>782.2</ele><time>2026-05-03T10:12:17.278Z</time></trkpt><trkpt lat="38.12337" lon="14.9010283"><ele>781.4</ele><time>2026-05-03T10:12:18.278Z</time></trkpt><trkpt lat="38.1234517" lon="14.9009283"><ele>780.6</ele><time>2026-05-03T10:12:19.278Z</time></trkpt><trkpt lat="38.12352" lon="14.9008417"><ele>779.8000000000001</ele><time>2026-05-03T10:12:20.278Z</time></trkpt><trkpt lat="38.12357" lon="14.9007733"><ele>779.0</ele><time>2026-05-03T10:12:21.278Z</time></trkpt><trkpt lat="38.123605" lon="14.9007067"><ele>779.0</ele><time>2026-05-03T10:12:22.278Z</time></trkpt><trkpt lat="38.1236467" lon="14.9006167"><ele>779.0</ele><time>2026-05-03T10:12:24.278Z</time></trkpt><trkpt lat="38.1237083" lon="14.9005267"><ele>779.0</ele><time>2026-05-03T10:12:26.278Z</time></trkpt><trkpt lat="38.1237967" lon="14.9003983"><ele>779.0</ele><time>2026-05-03T10:12:28.278Z</time></trkpt><trkpt lat="38.12384" lon="14.9003333"><ele>779.0</ele><time>2026-05-03T10:12:29.278Z</time></trkpt><trkpt lat="38.123905" lon="14.900225"><ele>779.0</ele><time>2026-05-03T10:12:31.278Z</time></trkpt><trkpt lat="38.1239733" lon="14.9001033"><ele>779.0</ele><time>2026-05-03T10:12:33.278Z</time></trkpt><trkpt lat="38.12404" lon="14.89999"><ele>779.0</ele><time>2026-05-03T10:12:35.277Z</time></trkpt><trkpt lat="38.1240833" lon="14.899845"><ele>779.0</ele><time>2026-05-03T10:12:37.278Z</time></trkpt><trkpt lat="38.1240667" lon="14.8996967"><ele>779.0</ele><time>2026-05-03T10:12:39.278Z</time></trkpt><trkpt lat="38.12404" lon="14.899555"><ele>779.0</ele><time>2026-05-03T10:12:41.278Z</time></trkpt><trkpt lat="38.1240033" lon="14.8994083"><ele>779.0</ele><time>2026-05-03T10:12:43.278Z</time></trkpt><trkpt lat="38.1239867" lon="14.89928"><ele>779.0</ele><time>2026-05-03T10:12:45.278Z</time></trkpt><trkpt lat="38.1239333" lon="14.8992167"><ele>779.0</ele><time>2026-05-03T10:12:47.278Z</time></trkpt><trkpt lat="38.123905" lon="14.8991267"><ele>774.6</ele><time>2026-05-03T10:12:50.278Z</time></trkpt><trkpt lat="38.1239883" lon="14.899085"><ele>770.2</ele><time>2026-05-03T10:12:53.278Z</time></trkpt><trkpt lat="38.1240717" lon="14.8990183"><ele>765.8000000000001</ele><time>2026-05-03T10:12:55.278Z</time></trkpt><trkpt lat="38.12415" lon="14.8989217"><ele>761.4000000000001</ele><time>2026-05-03T10:12:57.278Z</time></trkpt><trkpt lat="38.1242083" lon="14.8988583"><ele>757.0</ele><time>2026-05-03T10:12:59.278Z</time></trkpt><trkpt lat="38.1242883" lon="14.8988467"><ele>756.3333333333334</ele><time>2026-05-03T10:13:03.278Z</time></trkpt><trkpt lat="38.1242967" lon="14.8989333"><ele>755.6666666666667</ele><time>2026-05-03T10:13:10.278Z</time></trkpt><trkpt lat="38.12423" lon="14.8989783"><ele>755.0</ele><time>2026-05-03T10:13:13.278Z</time></trkpt><trkpt lat="38.1241933" lon="14.89906"><ele>754.3333333333334</ele><time>2026-05-03T10:13:15.278Z</time></trkpt><trkpt lat="38.1242017" lon="14.8992033"><ele>753.6666666666666</ele><time>2026-05-03T10:13:17.278Z</time></trkpt><trkpt lat="38.1242167" lon="14.8992983"><ele>753.0</ele><time>2026-05-03T10:13:18.278Z</time></trkpt><trkpt lat="38.1242417" lon="14.8994117"><ele>753.0</ele><time>2026-05-03T10:13:19.278Z</time></trkpt><trkpt lat="38.1242833" lon="14.899525"><ele>753.0</ele><time>2026-05-03T10:13:20.278Z</time></trkpt><trkpt lat="38.124325" lon="14.8996083"><ele>753.0</ele><time>2026-05-03T10:13:21.278Z</time></trkpt><trkpt lat="38.1243433" lon="14.8996983"><ele>753.0</ele><time>2026-05-03T10:13:22.278Z</time></trkpt><trkpt lat="38.1243483" lon="14.8998033"><ele>753.0</ele><time>2026-05-03T10:13:23.277Z</time></trkpt><trkpt lat="38.1243417" lon="14.8999217"><ele>753.0</ele><time>2026-05-03T10:13:24.277Z</time></trkpt><trkpt lat="38.12433" lon="14.9000167"><ele>750.5714285714286</ele><time>2026-05-03T10:13:25.278Z</time></trkpt><trkpt lat="38.1243" lon="14.90009"><ele>748.1428571428571</ele><time>2026-05-03T10:13:26.278Z</time></trkpt><trkpt lat="38.1242467" lon="14.90016"><ele>745.7142857142858</ele><time>2026-05-03T10:13:27.278Z</time></trkpt><trkpt lat="38.1241867" lon="14.9002317"><ele>743.2857142857142</ele><time>2026-05-03T10:13:28.278Z</time></trkpt><trkpt lat="38.1241333" lon="14.9003017"><ele>740.8571428571428</ele><time>2026-05-03T10:13:29.278Z</time></trkpt><trkpt lat="38.1240933" lon="14.9003717"><ele>738.4285714285714</ele><time>2026-05-03T10:13:30.278Z</time></trkpt><trkpt lat="38.1240567" lon="14.900455"><ele>736.0</ele><time>2026-05-03T10:13:31.277Z</time></trkpt><trkpt lat="38.1240117" lon="14.9005567"><ele>741.0</ele><time>2026-05-03T10:13:32.278Z</time></trkpt><trkpt lat="38.1239717" lon="14.9006683"><ele>746.0</ele><time>2026-05-03T10:13:33.278Z</time></trkpt><trkpt lat="38.1239417" lon="14.900775"><ele>751.0</ele><time>2026-05-03T10:13:34.278Z</time></trkpt><trkpt lat="38.1239167" lon="14.900865"><ele>756.0</ele><time>2026-05-03T10:13:35.278Z</time></trkpt><trkpt lat="38.123885" lon="14.900955"><ele>761.0</ele><time>2026-05-03T10:13:36.278Z</time></trkpt><trkpt lat="38.12384" lon="14.9010317"><ele>766.0</ele><time>2026-05-03T10:13:37.278Z</time></trkpt><trkpt lat="38.1237917" lon="14.9011167"><ele>766.0</ele><time>2026-05-03T10:13:38.278Z</time></trkpt><trkpt lat="38.1237483" lon="14.9012033"><ele>766.0</ele><time>2026-05-03T10:13:39.278Z</time></trkpt><trkpt lat="38.123715" lon="14.901275"><ele>766.0</ele><time>2026-05-03T10:13:40.278Z</time></trkpt><trkpt lat="38.123675" lon="14.9013867"><ele>766.0</ele><time>2026-05-03T10:13:42.278Z</time></trkpt><trkpt lat="38.1236583" lon="14.9015083"><ele>766.0</ele><time>2026-05-03T10:13:44.278Z</time></trkpt><trkpt lat="38.12364" lon="14.901585"><ele>766.0</ele><time>2026-05-03T10:13:45.278Z</time></trkpt><trkpt lat="38.123615" lon="14.90169"><ele>762.5</ele><time>2026-05-03T10:13:46.278Z</time></trkpt><trkpt lat="38.1235883" lon="14.9018017"><ele>759.0</ele><time>2026-05-03T10:13:47.278Z</time></trkpt><trkpt lat="38.1235667" lon="14.9018883"><ele>755.5</ele><time>2026-05-03T10:13:48.277Z</time></trkpt><trkpt lat="38.1235633" lon="14.9019767"><ele>752.0</ele><time>2026-05-03T10:13:49.278Z</time></trkpt><trkpt lat="38.1235817" lon="14.902125"><ele>748.5</ele><time>2026-05-03T10:13:51.278Z</time></trkpt><trkpt lat="38.123575" lon="14.9022467"><ele>745.0</ele><time>2026-05-03T10:13:53.278Z</time></trkpt><trkpt lat="38.12355" lon="14.90236"><ele>745.0</ele><time>2026-05-03T10:13:55.278Z</time></trkpt><trkpt lat="38.123515" lon="14.902465"><ele>745.0</ele><time>2026-05-03T10:13:57.278Z</time></trkpt><trkpt lat="38.1234933" lon="14.902575"><ele>745.0</ele><time>2026-05-03T10:13:59.278Z</time></trkpt><trkpt lat="38.1234383" lon="14.902675"><ele>745.0</ele><time>2026-05-03T10:14:01.278Z</time></trkpt><trkpt lat="38.1233933" lon="14.9027617"><ele>745.0</ele><time>2026-05-03T10:14:03.278Z</time></trkpt><trkpt lat="38.1233883" lon="14.9028517"><ele>745.0</ele><time>2026-05-03T10:14:05.278Z</time></trkpt><trkpt lat="38.1234083" lon="14.902965"><ele>743.8</ele><time>2026-05-03T10:14:07.278Z</time></trkpt><trkpt lat="38.123435" lon="14.9030867"><ele>742.6</ele><time>2026-05-03T10:14:09.278Z</time></trkpt><trkpt lat="38.123445" lon="14.9032"><ele>741.4000000000001</ele><time>2026-05-03T10:14:11.278Z</time></trkpt><trkpt lat="38.1234533" lon="14.90334"><ele>740.2</ele><time>2026-05-03T10:14:13.278Z</time></trkpt><trkpt lat="38.1234617" lon="14.9034233"><ele>739.0</ele><time>2026-05-03T10:14:14.278Z</time></trkpt><trkpt lat="38.1234767" lon="14.9035367"><ele>739.0</ele><time>2026-05-03T10:14:15.278Z</time></trkpt><trkpt lat="38.1234867" lon="14.9036617"><ele>739.0</ele><time>2026-05-03T10:14:16.278Z</time></trkpt><trkpt lat="38.1235117" lon="14.9037483"><ele>739.0</ele><time>2026-05-03T10:14:17.278Z</time></trkpt><trkpt lat="38.12355" lon="14.903865"><ele>739.0</ele><time>2026-05-03T10:14:18.278Z</time></trkpt><trkpt lat="38.1235817" lon="14.90397"><ele>739.0</ele><time>2026-05-03T10:14:19.278Z</time></trkpt><trkpt lat="38.123615" lon="14.9040467"><ele>739.0</ele><time>2026-05-03T10:14:20.278Z</time></trkpt><trkpt lat="38.1236517" lon="14.90418"><ele>736.2</ele><time>2026-05-03T10:14:22.278Z</time></trkpt><trkpt lat="38.12368" lon="14.9042533"><ele>733.4000000000001</ele><time>2026-05-03T10:14:23.278Z</time></trkpt><trkpt lat="38.1237183" lon="14.9043983"><ele>730.6</ele><time>2026-05-03T10:14:25.278Z</time></trkpt><trkpt lat="38.123745" lon="14.9045283"><ele>727.8</ele><time>2026-05-03T10:14:27.278Z</time></trkpt><trkpt lat="38.123765" lon="14.90467"><ele>725.0</ele><time>2026-05-03T10:14:29.278Z</time></trkpt><trkpt lat="38.12378" lon="14.9048217"><ele>725.0</ele><time>2026-05-03T10:14:31.278Z</time></trkpt><trkpt lat="38.1237967" lon="14.9049083"><ele>725.0</ele><time>2026-05-03T10:14:32.278Z</time></trkpt><trkpt lat="38.1238083" lon="14.9049983"><ele>725.0</ele><time>2026-05-03T10:14:33.278Z</time></trkpt><trkpt lat="38.1238183" lon="14.90509"><ele>725.0</ele><time>2026-05-03T10:14:34.278Z</time></trkpt><trkpt lat="38.1238233" lon="14.9052267"><ele>725.0</ele><time>2026-05-03T10:14:36.278Z</time></trkpt><trkpt lat="38.12381" lon="14.90532"><ele>725.0</ele><time>2026-05-03T10:14:38.278Z</time></trkpt><trkpt lat="38.12376" lon="14.9053717"><ele>719.6666666666666</ele><time>2026-05-03T10:14:40.278Z</time></trkpt><trkpt lat="38.1237067" lon="14.9054233"><ele>714.3333333333333</ele><time>2026-05-03T10:14:42.278Z</time></trkpt><trkpt lat="38.12365" lon="14.9054817"><ele>709.0</ele><time>2026-05-03T10:14:44.278Z</time></trkpt><trkpt lat="38.1235767" lon="14.905545"><ele>703.6666666666666</ele><time>2026-05-03T10:14:46.278Z</time></trkpt><trkpt lat="38.1234933" lon="14.90558"><ele>698.3333333333334</ele><time>2026-05-03T10:14:48.278Z</time></trkpt><trkpt lat="38.12339" lon="14.905625"><ele>693.0</ele><time>2026-05-03T10:14:50.278Z</time></trkpt><trkpt lat="38.1233183" lon="14.9056567"><ele>693.0</ele><time>2026-05-03T10:14:51.278Z</time></trkpt><trkpt lat="38.1232433" lon="14.9057083"><ele>693.0</ele><time>2026-05-03T10:14:52.277Z</time></trkpt><trkpt lat="38.12317" lon="14.9057733"><ele>693.0</ele><time>2026-05-03T10:14:53.278Z</time></trkpt><trkpt lat="38.1231033" lon="14.9058267"><ele>693.0</ele><time>2026-05-03T10:14:54.278Z</time></trkpt><trkpt lat="38.1230417" lon="14.9058667"><ele>693.0</ele><time>2026-05-03T10:14:55.278Z</time></trkpt><trkpt lat="38.1229317" lon="14.9059217"><ele>693.0</ele><time>2026-05-03T10:14:57.278Z</time></trkpt><trkpt lat="38.122845" lon="14.9059517"><ele>690.5999999999999</ele><time>2026-05-03T10:14:59.278Z</time></trkpt><trkpt lat="38.1227583" lon="14.90606"><ele>688.1999999999999</ele><time>2026-05-03T10:15:01.278Z</time></trkpt><trkpt lat="38.1227117" lon="14.9061517"><ele>685.8</ele><time>2026-05-03T10:15:02.277Z</time></trkpt><trkpt lat="38.122645" lon="14.9062517"><ele>683.4</ele><time>2026-05-03T10:15:03.278Z</time></trkpt><trkpt lat="38.1225667" lon="14.9063483"><ele>681.0</ele><time>2026-05-03T10:15:04.278Z</time></trkpt><trkpt lat="38.122495" lon="14.9064483"><ele>681.0</ele><time>2026-05-03T10:15:05.278Z</time></trkpt><trkpt lat="38.1224183" lon="14.9065517"><ele>681.0</ele><time>2026-05-03T10:15:06.278Z</time></trkpt><trkpt lat="38.122345" lon="14.9066283"><ele>681.0</ele><time>2026-05-03T10:15:07.278Z</time></trkpt><trkpt lat="38.1222767" lon="14.9066967"><ele>681.0</ele><time>2026-05-03T10:15:08.277Z</time></trkpt><trkpt lat="38.1222133" lon="14.9067867"><ele>681.0</ele><time>2026-05-03T10:15:09.278Z</time></trkpt><trkpt lat="38.1221683" lon="14.9068983"><ele>687.25</ele><time>2026-05-03T10:15:10.278Z</time></trkpt><trkpt lat="38.12213" lon="14.9070333"><ele>693.5</ele><time>2026-05-03T10:15:11.278Z</time></trkpt><trkpt lat="38.1221" lon="14.9071967"><ele>699.75</ele><time>2026-05-03T10:15:12.278Z</time></trkpt><trkpt lat="38.122075" lon="14.9073483"><ele>706.0</ele><time>2026-05-03T10:15:13.278Z</time></trkpt><trkpt lat="38.12207" lon="14.90749"><ele>701.3333333333334</ele><time>2026-05-03T10:15:14.278Z</time></trkpt><trkpt lat="38.1220817" lon="14.9076083"><ele>696.6666666666667</ele><time>2026-05-03T10:15:15.278Z</time></trkpt><trkpt lat="38.1221017" lon="14.9077"><ele>692.0</ele><time>2026-05-03T10:15:16.278Z</time></trkpt><trkpt lat="38.1221233" lon="14.9078167"><ele>687.3333333333334</ele><time>2026-05-03T10:15:18.278Z</time></trkpt><trkpt lat="38.122065" lon="14.9078617"><ele>682.6666666666666</ele><time>2026-05-03T10:15:21.278Z</time></trkpt><trkpt lat="38.12202" lon="14.90792"><ele>678.0</ele><time>2026-05-03T10:15:24.278Z</time></trkpt><trkpt lat="38.1219817" lon="14.9079967"><ele>678.0</ele><time>2026-05-03T10:15:26.278Z</time></trkpt><trkpt lat="38.121915" lon="14.9081017"><ele>678.0</ele><time>2026-05-03T10:15:28.278Z</time></trkpt><trkpt lat="38.121835" lon="14.908195"><ele>678.0</ele><time>2026-05-03T10:15:30.278Z</time></trkpt><trkpt lat="38.1217383" lon="14.9082767"><ele>678.0</ele><time>2026-05-03T10:15:32.278Z</time></trkpt><trkpt lat="38.1216283" lon="14.9083333"><ele>676.0</ele><time>2026-05-03T10:15:34.278Z</time></trkpt><trkpt lat="38.1215633" lon="14.9083683"><ele>674.0</ele><time>2026-05-03T10:15:35.278Z</time></trkpt><trkpt lat="38.1215017" lon="14.908405"><ele>672.0</ele><time>2026-05-03T10:15:36.278Z</time></trkpt><trkpt lat="38.121445" lon="14.90845"><ele>670.0</ele><time>2026-05-03T10:15:37.278Z</time></trkpt><trkpt lat="38.12139" lon="14.9085"><ele>668.0</ele><time>2026-05-03T10:15:38.278Z</time></trkpt><trkpt lat="38.1213417" lon="14.9085583"><ele>666.0</ele><time>2026-05-03T10:15:39.278Z</time></trkpt><trkpt lat="38.1212617" lon="14.90868"><ele>666.0</ele><time>2026-05-03T10:15:41.278Z</time></trkpt><trkpt lat="38.1211717" lon="14.9087683"><ele>666.0</ele><time>2026-05-03T10:15:43.278Z</time></trkpt><trkpt lat="38.1210633" lon="14.908815"><ele>666.0</ele><time>2026-05-03T10:15:45.278Z</time></trkpt><trkpt lat="38.12098" lon="14.90885"><ele>666.0</ele><time>2026-05-03T10:15:47.278Z</time></trkpt><trkpt lat="38.120865" lon="14.9089367"><ele>666.0</ele><time>2026-05-03T10:15:49.278Z</time></trkpt><trkpt lat="38.120815" lon="14.9089883"><ele>666.0</ele><time>2026-05-03T10:15:50.278Z</time></trkpt><trkpt lat="38.1207383" lon="14.9090817"><ele>666.0</ele><time>2026-05-03T10:15:52.278Z</time></trkpt><trkpt lat="38.12063" lon="14.9091167"><ele>666.0</ele><time>2026-05-03T10:15:54.278Z</time></trkpt><trkpt lat="38.1205317" lon="14.909185"><ele>666.0</ele><time>2026-05-03T10:15:56.278Z</time></trkpt><trkpt lat="38.1204617" lon="14.9093033"><ele>667.4</ele><time>2026-05-03T10:15:58.278Z</time></trkpt><trkpt lat="38.1203733" lon="14.9093933"><ele>668.8</ele><time>2026-05-03T10:16:00.278Z</time></trkpt><trkpt lat="38.12028" lon="14.9094433"><ele>670.1999999999999</ele><time>2026-05-03T10:16:02.278Z</time></trkpt><trkpt lat="38.120175" lon="14.9094967"><ele>671.5999999999999</ele><time>2026-05-03T10:16:04.278Z</time></trkpt><trkpt lat="38.1200833" lon="14.90957"><ele>673.0</ele><time>2026-05-03T10:16:06.278Z</time></trkpt><trkpt lat="38.1200233" lon="14.9096817"><ele>673.0</ele><time>2026-05-03T10:16:08.278Z</time></trkpt><trkpt lat="38.1200133" lon="14.909765"><ele>673.0</ele><time>2026-05-03T10:16:09.278Z</time></trkpt><trkpt lat="38.12001" lon="14.9098567"><ele>673.0</ele><time>2026-05-03T10:16:10.278Z</time></trkpt><trkpt lat="38.1199933" lon="14.90995"><ele>673.0</ele><time>2026-05-03T10:16:11.278Z</time></trkpt><trkpt lat="38.1199667" lon="14.9100367"><ele>673.0</ele><time>2026-05-03T10:16:12.278Z</time></trkpt><trkpt lat="38.1199417" lon="14.9101233"><ele>673.0</ele><time>2026-05-03T10:16:13.278Z</time></trkpt><trkpt lat="38.1199167" lon="14.9102"><ele>673.0</ele><time>2026-05-03T10:16:14.278Z</time></trkpt><trkpt lat="38.1199017" lon="14.910345"><ele>674.0</ele><time>2026-05-03T10:16:16.278Z</time></trkpt><trkpt lat="38.1198883" lon="14.9104633"><ele>675.0</ele><time>2026-05-03T10:16:18.277Z</time></trkpt><trkpt lat="38.1198017" lon="14.910555"><ele>676.0</ele><time>2026-05-03T10:16:20.278Z</time></trkpt><trkpt lat="38.1197233" lon="14.91058"><ele>677.0</ele><time>2026-05-03T10:16:21.277Z</time></trkpt><trkpt lat="38.1196483" lon="14.910595"><ele>678.0</ele><time>2026-05-03T10:16:22.278Z</time></trkpt><trkpt lat="38.1195817" lon="14.9105867"><ele>679.0</ele><time>2026-05-03T10:16:23.278Z</time></trkpt><trkpt lat="38.1195117" lon="14.910575"><ele>679.0</ele><time>2026-05-03T10:16:24.278Z</time></trkpt><trkpt lat="38.1194233" lon="14.9105633"><ele>679.0</ele><time>2026-05-03T10:16:25.278Z</time></trkpt><trkpt lat="38.11932" lon="14.9105467"><ele>679.0</ele><time>2026-05-03T10:16:26.278Z</time></trkpt><trkpt lat="38.1192267" lon="14.91052"><ele>679.0</ele><time>2026-05-03T10:16:27.278Z</time></trkpt><trkpt lat="38.1191517" lon="14.9105133"><ele>679.0</ele><time>2026-05-03T10:16:28.278Z</time></trkpt><trkpt lat="38.1190883" lon="14.9105283"><ele>679.0</ele><time>2026-05-03T10:16:29.278Z</time></trkpt><trkpt lat="38.118995" lon="14.910595"><ele>679.0</ele><time>2026-05-03T10:16:31.278Z</time></trkpt><trkpt lat="38.118985" lon="14.9106867"><ele>679.0</ele><time>2026-05-03T10:16:33.278Z</time></trkpt><trkpt lat="38.11906" lon="14.9107883"><ele>679.0</ele><time>2026-05-03T10:16:35.278Z</time></trkpt><trkpt lat="38.1191283" lon="14.9108483"><ele>679.0</ele><time>2026-05-03T10:16:36.278Z</time></trkpt><trkpt lat="38.119215" lon="14.910915"><ele>679.0</ele><time>2026-05-03T10:16:37.278Z</time></trkpt><trkpt lat="38.1192783" lon="14.9109683"><ele>679.0</ele><time>2026-05-03T10:16:38.278Z</time></trkpt><trkpt lat="38.1193267" lon="14.91102"><ele>683.6666666666667</ele><time>2026-05-03T10:16:39.278Z</time></trkpt><trkpt lat="38.1193233" lon="14.91111"><ele>688.3333333333334</ele><time>2026-05-03T10:16:41.278Z</time></trkpt><trkpt lat="38.1192417" lon="14.9111117"><ele>693.0</ele><time>2026-05-03T10:16:43.278Z</time></trkpt><trkpt lat="38.1191883" lon="14.911065"><ele>697.6666666666666</ele><time>2026-05-03T10:16:44.278Z</time></trkpt><trkpt lat="38.11913" lon="14.9110083"><ele>702.3333333333333</ele><time>2026-05-03T10:16:45.278Z</time></trkpt><trkpt lat="38.1190533" lon="14.91096"><ele>707.0</ele><time>2026-05-03T10:16:46.278Z</time></trkpt><trkpt lat="38.1189733" lon="14.9109467"><ele>708.4000000000001</ele><time>2026-05-03T10:16:47.278Z</time></trkpt><trkpt lat="38.1188917" lon="14.9109683"><ele>709.8000000000001</ele><time>2026-05-03T10:16:48.278Z</time></trkpt><trkpt lat="38.1188267" lon="14.9110067"><ele>711.2</ele><time>2026-05-03T10:16:49.278Z</time></trkpt><trkpt lat="38.118775" lon="14.911055"><ele>712.6</ele><time>2026-05-03T10:16:50.278Z</time></trkpt><trkpt lat="38.118695" lon="14.91117"><ele>714.0</ele><time>2026-05-03T10:16:52.278Z</time></trkpt><trkpt lat="38.1186467" lon="14.9113083"><ele>714.0</ele><time>2026-05-03T10:16:54.278Z</time></trkpt><trkpt lat="38.1185517" lon="14.9113817"><ele>714.0</ele><time>2026-05-03T10:16:56.278Z</time></trkpt><trkpt lat="38.1184767" lon="14.9113883"><ele>714.0</ele><time>2026-05-03T10:16:57.278Z</time></trkpt><trkpt lat="38.1183917" lon="14.9113883"><ele>714.0</ele><time>2026-05-03T10:16:58.278Z</time></trkpt><trkpt lat="38.1183267" lon="14.9113833"><ele>714.0</ele><time>2026-05-03T10:16:59.278Z</time></trkpt><trkpt lat="38.1182433" lon="14.9113883"><ele>714.0</ele><time>2026-05-03T10:17:01.278Z</time></trkpt><trkpt lat="38.1182917" lon="14.9114567"><ele>714.0</ele><time>2026-05-03T10:17:04.278Z</time></trkpt><trkpt lat="38.1183567" lon="14.911485"><ele>714.0</ele><time>2026-05-03T10:17:05.278Z</time></trkpt><trkpt lat="38.11845" lon="14.911505"><ele>714.0</ele><time>2026-05-03T10:17:06.278Z</time></trkpt><trkpt lat="38.11856" lon="14.9115183"><ele>714.0</ele><time>2026-05-03T10:17:07.278Z</time></trkpt><trkpt lat="38.1186633" lon="14.9115183"><ele>714.0</ele><time>2026-05-03T10:17:08.278Z</time></trkpt><trkpt lat="38.11877" lon="14.911505"><ele>714.0</ele><time>2026-05-03T10:17:09.278Z</time></trkpt><trkpt lat="38.1188567" lon="14.9114883"><ele>714.0</ele><time>2026-05-03T10:17:10.278Z</time></trkpt><trkpt lat="38.1189217" lon="14.9114833"><ele>714.0</ele><time>2026-05-03T10:17:11.278Z</time></trkpt><trkpt lat="38.1190083" lon="14.9115633"><ele>714.0</ele><time>2026-05-03T10:17:13.278Z</time></trkpt><trkpt lat="38.11906" lon="14.9116433"><ele>714.0</ele><time>2026-05-03T10:17:14.278Z</time></trkpt><trkpt lat="38.119125" lon="14.91172"><ele>714.0</ele><time>2026-05-03T10:17:15.278Z</time></trkpt><trkpt lat="38.119195" lon="14.9117833"><ele>719.3333333333334</ele><time>2026-05-03T10:17:16.278Z</time></trkpt><trkpt lat="38.1192567" lon="14.91184"><ele>724.6666666666666</ele><time>2026-05-03T10:17:17.278Z</time></trkpt><trkpt lat="38.1193217" lon="14.911875"><ele>730.0</ele><time>2026-05-03T10:17:18.278Z</time></trkpt><trkpt lat="38.1194167" lon="14.91193"><ele>735.3333333333333</ele><time>2026-05-03T10:17:20.278Z</time></trkpt><trkpt lat="38.119495" lon="14.9119517"><ele>740.6666666666666</ele><time>2026-05-03T10:17:22.278Z</time></trkpt><trkpt lat="38.119555" lon="14.9118983"><ele>746.0</ele><time>2026-05-03T10:17:24.278Z</time></trkpt><trkpt lat="38.119655" lon="14.911805"><ele>746.0</ele><time>2026-05-03T10:17:26.278Z</time></trkpt><trkpt lat="38.1197333" lon="14.9117633"><ele>746.0</ele><time>2026-05-03T10:17:27.278Z</time></trkpt><trkpt lat="38.1198133" lon="14.9117283"><ele>746.0</ele><time>2026-05-03T10:17:28.278Z</time></trkpt><trkpt lat="38.1198867" lon="14.9116867"><ele>746.0</ele><time>2026-05-03T10:17:29.278Z</time></trkpt><trkpt lat="38.119955" lon="14.9116467"><ele>746.0</ele><time>2026-05-03T10:17:30.278Z</time></trkpt><trkpt lat="38.1200217" lon="14.9116033"><ele>746.0</ele><time>2026-05-03T10:17:31.278Z</time></trkpt><trkpt lat="38.120085" lon="14.911565"><ele>739.0</ele><time>2026-05-03T10:17:32.278Z</time></trkpt><trkpt lat="38.120155" lon="14.9115283"><ele>732.0</ele><time>2026-05-03T10:17:33.278Z</time></trkpt><trkpt lat="38.1202183" lon="14.91151"><ele>725.0</ele><time>2026-05-03T10:17:34.278Z</time></trkpt><trkpt lat="38.1202867" lon="14.9114967"><ele>718.0</ele><time>2026-05-03T10:17:35.278Z</time></trkpt><trkpt lat="38.12035" lon="14.911475"><ele>711.0</ele><time>2026-05-03T10:17:36.278Z</time></trkpt><trkpt lat="38.1204683" lon="14.911435"><ele>704.0</ele><time>2026-05-03T10:17:38.278Z</time></trkpt><trkpt lat="38.120585" lon="14.91142"><ele>704.0</ele><time>2026-05-03T10:17:40.278Z</time></trkpt><trkpt lat="38.1207017" lon="14.9113933"><ele>704.0</ele><time>2026-05-03T10:17:42.278Z</time></trkpt><trkpt lat="38.120815" lon="14.9113433"><ele>704.0</ele><time>2026-05-03T10:17:44.278Z</time></trkpt><trkpt lat="38.1209183" lon="14.9113"><ele>704.0</ele><time>2026-05-03T10:17:46.278Z</time></trkpt><trkpt lat="38.121015" lon="14.9112767"><ele>704.0</ele><time>2026-05-03T10:17:48.278Z</time></trkpt><trkpt lat="38.121135" lon="14.9112767"><ele>704.0</ele><time>2026-05-03T10:17:50.278Z</time></trkpt><trkpt lat="38.1212033" lon="14.9112883"><ele>704.0</ele><time>2026-05-03T10:17:51.278Z</time></trkpt><trkpt lat="38.12128" lon="14.91131"><ele>704.0</ele><time>2026-05-03T10:17:52.278Z</time></trkpt><trkpt lat="38.1213533" lon="14.9113333"><ele>704.0</ele><time>2026-05-03T10:17:53.278Z</time></trkpt><trkpt lat="38.1214283" lon="14.9113517"><ele>704.0</ele><time>2026-05-03T10:17:54.278Z</time></trkpt><trkpt lat="38.1215017" lon="14.91136"><ele>704.0</ele><time>2026-05-03T10:17:55.279Z</time></trkpt><trkpt lat="38.12158" lon="14.9113617"><ele>702.5</ele><time>2026-05-03T10:17:56.279Z</time></trkpt><trkpt lat="38.1216517" lon="14.9113567"><ele>701.0</ele><time>2026-05-03T10:17:57.279Z</time></trkpt><trkpt lat="38.12176" lon="14.9113033"><ele>699.5</ele><time>2026-05-03T10:17:59.278Z</time></trkpt><trkpt lat="38.12183" lon="14.9112417"><ele>698.0</ele><time>2026-05-03T10:18:01.279Z</time></trkpt><trkpt lat="38.1218833" lon="14.91119"><ele>696.5</ele><time>2026-05-03T10:18:04.279Z</time></trkpt><trkpt lat="38.1219517" lon="14.911145"><ele>695.0</ele><time>2026-05-03T10:18:06.279Z</time></trkpt><trkpt lat="38.1220717" lon="14.9111"><ele>695.0000000000001</ele><time>2026-05-03T10:18:08.279Z</time></trkpt><trkpt lat="38.1221433" lon="14.9110783"><ele>695.0</ele><time>2026-05-03T10:18:09.279Z</time></trkpt><trkpt lat="38.1222067" lon="14.9110717"><ele>695.0</ele><time>2026-05-03T10:18:10.279Z</time></trkpt><trkpt lat="38.1222767" lon="14.9110967"><ele>695.0</ele><time>2026-05-03T10:18:11.279Z</time></trkpt><trkpt lat="38.1223417" lon="14.9111433"><ele>695.0</ele><time>2026-05-03T10:18:12.279Z</time></trkpt><trkpt lat="38.1223983" lon="14.9112"><ele>695.0000000000001</ele><time>2026-05-03T10:18:13.279Z</time></trkpt><trkpt lat="38.1224567" lon="14.9112733"><ele>695.0</ele><time>2026-05-03T10:18:14.279Z</time></trkpt><trkpt lat="38.1225033" lon="14.9113483"><ele>692.8</ele><time>2026-05-03T10:18:15.279Z</time></trkpt><trkpt lat="38.12258" lon="14.9114617"><ele>690.6</ele><time>2026-05-03T10:18:17.279Z</time></trkpt><trkpt lat="38.1226617" lon="14.911535"><ele>688.4000000000001</ele><time>2026-05-03T10:18:19.279Z</time></trkpt><trkpt lat="38.12276" lon="14.911525"><ele>686.2</ele><time>2026-05-03T10:18:21.279Z</time></trkpt><trkpt lat="38.1228217" lon="14.9114967"><ele>684.0</ele><time>2026-05-03T10:18:22.279Z</time></trkpt><trkpt lat="38.1229083" lon="14.9114633"><ele>684.0</ele><time>2026-05-03T10:18:23.279Z</time></trkpt><trkpt lat="38.1230083" lon="14.9114533"><ele>684.0</ele><time>2026-05-03T10:18:24.279Z</time></trkpt><trkpt lat="38.12311" lon="14.91144"><ele>684.0</ele><time>2026-05-03T10:18:25.279Z</time></trkpt><trkpt lat="38.1232067" lon="14.9114583"><ele>684.0</ele><time>2026-05-03T10:18:26.279Z</time></trkpt><trkpt lat="38.123285" lon="14.911505"><ele>684.0</ele><time>2026-05-03T10:18:27.279Z</time></trkpt><trkpt lat="38.1233417" lon="14.9115617"><ele>681.3333333333334</ele><time>2026-05-03T10:18:28.279Z</time></trkpt><trkpt lat="38.1233867" lon="14.9116233"><ele>678.6666666666666</ele><time>2026-05-03T10:18:29.279Z</time></trkpt><trkpt lat="38.1233817" lon="14.911765"><ele>676.0</ele><time>2026-05-03T10:18:31.279Z</time></trkpt><trkpt lat="38.1233683" lon="14.91185"><ele>673.3333333333333</ele><time>2026-05-03T10:18:32.279Z</time></trkpt><trkpt lat="38.1233483" lon="14.9119517"><ele>670.6666666666666</ele><time>2026-05-03T10:18:33.279Z</time></trkpt><trkpt lat="38.1233283" lon="14.91207"><ele>668.0</ele><time>2026-05-03T10:18:34.279Z</time></trkpt><trkpt lat="38.1233067" lon="14.9121767"><ele>668.0</ele><time>2026-05-03T10:18:35.279Z</time></trkpt><trkpt lat="38.1233033" lon="14.9122717"><ele>668.0</ele><time>2026-05-03T10:18:36.279Z</time></trkpt><trkpt lat="38.1233167" lon="14.9123583"><ele>668.0</ele><time>2026-05-03T10:18:37.279Z</time></trkpt><trkpt lat="38.1233483" lon="14.91244"><ele>668.0</ele><time>2026-05-03T10:18:38.279Z</time></trkpt><trkpt lat="38.12341" lon="14.9125183"><ele>668.0</ele><time>2026-05-03T10:18:39.279Z</time></trkpt><trkpt lat="38.1234933" lon="14.9125933"><ele>668.0</ele><time>2026-05-03T10:18:40.279Z</time></trkpt><trkpt lat="38.1235767" lon="14.91267"><ele>670.5999999999999</ele><time>2026-05-03T10:18:41.279Z</time></trkpt><trkpt lat="38.1236417" lon="14.91276"><ele>673.1999999999999</ele><time>2026-05-03T10:18:42.279Z</time></trkpt><trkpt lat="38.1236767" lon="14.9128717"><ele>675.8</ele><time>2026-05-03T10:18:43.279Z</time></trkpt><trkpt lat="38.123685" lon="14.91301"><ele>678.4</ele><time>2026-05-03T10:18:44.278Z</time></trkpt><trkpt lat="38.1236683" lon="14.9131467"><ele>681.0</ele><time>2026-05-03T10:18:45.279Z</time></trkpt><trkpt lat="38.12364" lon="14.9132683"><ele>681.0</ele><time>2026-05-03T10:18:46.279Z</time></trkpt><trkpt lat="38.1236217" lon="14.9133683"><ele>681.0</ele><time>2026-05-03T10:18:47.279Z</time></trkpt><trkpt lat="38.1236033" lon="14.913445"><ele>681.0</ele><time>2026-05-03T10:18:48.279Z</time></trkpt><trkpt lat="38.1236317" lon="14.9135517"><ele>681.0</ele><time>2026-05-03T10:18:50.279Z</time></trkpt><trkpt lat="38.1237383" lon="14.9135583"><ele>681.0</ele><time>2026-05-03T10:18:52.279Z</time></trkpt><trkpt lat="38.123815" lon="14.9135217"><ele>681.0</ele><time>2026-05-03T10:18:53.278Z</time></trkpt><trkpt lat="38.1239133" lon="14.9134617"><ele>683.1666666666666</ele><time>2026-05-03T10:18:54.279Z</time></trkpt><trkpt lat="38.1240217" lon="14.91342"><ele>685.3333333333334</ele><time>2026-05-03T10:18:55.279Z</time></trkpt><trkpt lat="38.1241133" lon="14.9134"><ele>687.5</ele><time>2026-05-03T10:18:56.279Z</time></trkpt><trkpt lat="38.124185" lon="14.9134133"><ele>689.6666666666667</ele><time>2026-05-03T10:18:57.279Z</time></trkpt><trkpt lat="38.1242483" lon="14.9134083"><ele>691.8333333333334</ele><time>2026-05-03T10:18:58.279Z</time></trkpt><trkpt lat="38.1243117" lon="14.9133817"><ele>694.0</ele><time>2026-05-03T10:18:59.279Z</time></trkpt><trkpt lat="38.12437" lon="14.9133367"><ele>686.4000000000001</ele><time>2026-05-03T10:19:00.279Z</time></trkpt><trkpt lat="38.1244217" lon="14.9132683"><ele>678.8</ele><time>2026-05-03T10:19:01.279Z</time></trkpt><trkpt lat="38.1244867" lon="14.9131717"><ele>671.2</ele><time>2026-05-03T10:19:02.279Z</time></trkpt><trkpt lat="38.1245467" lon="14.9130517"><ele>663.5999999999999</ele><time>2026-05-03T10:19:03.279Z</time></trkpt><trkpt lat="38.1246033" lon="14.9129517"><ele>656.0</ele><time>2026-05-03T10:19:04.279Z</time></trkpt><trkpt lat="38.124665" lon="14.9128733"><ele>656.0</ele><time>2026-05-03T10:19:05.279Z</time></trkpt><trkpt lat="38.124735" lon="14.9128033"><ele>656.0</ele><time>2026-05-03T10:19:06.279Z</time></trkpt><trkpt lat="38.1248217" lon="14.9127467"><ele>656.0</ele><time>2026-05-03T10:19:07.279Z</time></trkpt><trkpt lat="38.1249217" lon="14.91269"><ele>656.0</ele><time>2026-05-03T10:19:08.278Z</time></trkpt><trkpt lat="38.1250067" lon="14.9126233"><ele>656.0</ele><time>2026-05-03T10:19:09.279Z</time></trkpt><trkpt lat="38.1250767" lon="14.9125317"><ele>653.3333333333333</ele><time>2026-05-03T10:19:10.279Z</time></trkpt><trkpt lat="38.12514" lon="14.9124417"><ele>650.6666666666666</ele><time>2026-05-03T10:19:11.279Z</time></trkpt><trkpt lat="38.1252033" lon="14.9123567"><ele>648.0</ele><time>2026-05-03T10:19:12.279Z</time></trkpt><trkpt lat="38.1252467" lon="14.9122933"><ele>645.3333333333334</ele><time>2026-05-03T10:19:13.279Z</time></trkpt><trkpt lat="38.1252883" lon="14.9122233"><ele>642.6666666666667</ele><time>2026-05-03T10:19:14.279Z</time></trkpt><trkpt lat="38.12534" lon="14.9121617"><ele>640.0</ele><time>2026-05-03T10:19:15.279Z</time></trkpt><trkpt lat="38.1254367" lon="14.9120867"><ele>640.0</ele><time>2026-05-03T10:19:17.279Z</time></trkpt><trkpt lat="38.125535" lon="14.9120267"><ele>640.0</ele><time>2026-05-03T10:19:19.279Z</time></trkpt><trkpt lat="38.125635" lon="14.912005"><ele>640.0</ele><time>2026-05-03T10:19:21.279Z</time></trkpt><trkpt lat="38.1257217" lon="14.91195"><ele>640.0</ele><time>2026-05-03T10:19:23.279Z</time></trkpt><trkpt lat="38.125835" lon="14.9118917"><ele>640.0</ele><time>2026-05-03T10:19:25.279Z</time></trkpt><trkpt lat="38.1259483" lon="14.91184"><ele>638.1666666666667</ele><time>2026-05-03T10:19:27.279Z</time></trkpt><trkpt lat="38.12605" lon="14.91176"><ele>636.3333333333334</ele><time>2026-05-03T10:19:29.279Z</time></trkpt><trkpt lat="38.1261017" lon="14.91171"><ele>634.5</ele><time>2026-05-03T10:19:30.279Z</time></trkpt><trkpt lat="38.1261517" lon="14.911655"><ele>632.6666666666666</ele><time>2026-05-03T10:19:31.279Z</time></trkpt><trkpt lat="38.1261983" lon="14.911595"><ele>630.8333333333333</ele><time>2026-05-03T10:19:32.279Z</time></trkpt><trkpt lat="38.1262383" lon="14.9115283"><ele>629.0</ele><time>2026-05-03T10:19:33.278Z</time></trkpt><trkpt lat="38.1262883" lon="14.9114567"><ele>629.0</ele><time>2026-05-03T10:19:34.279Z</time></trkpt><trkpt lat="38.1263417" lon="14.9113967"><ele>629.0</ele><time>2026-05-03T10:19:35.279Z</time></trkpt><trkpt lat="38.1263967" lon="14.911345"><ele>629.0</ele><time>2026-05-03T10:19:36.279Z</time></trkpt><trkpt lat="38.1264567" lon="14.911295"><ele>629.0</ele><time>2026-05-03T10:19:37.279Z</time></trkpt><trkpt lat="38.1265117" lon="14.911255"><ele>629.0</ele><time>2026-05-03T10:19:38.279Z</time></trkpt><trkpt lat="38.1266067" lon="14.9111733"><ele>629.0</ele><time>2026-05-03T10:19:40.279Z</time></trkpt><trkpt lat="38.1267133" lon="14.9110967"><ele>631.1666666666666</ele><time>2026-05-03T10:19:42.279Z</time></trkpt><trkpt lat="38.1268233" lon="14.91104"><ele>633.3333333333333</ele><time>2026-05-03T10:19:44.279Z</time></trkpt><trkpt lat="38.1268867" lon="14.911015"><ele>635.5</ele><time>2026-05-03T10:19:45.279Z</time></trkpt><trkpt lat="38.1269567" lon="14.9109867"><ele>637.6666666666666</ele><time>2026-05-03T10:19:46.279Z</time></trkpt><trkpt lat="38.1270333" lon="14.9109633"><ele>639.8333333333334</ele><time>2026-05-03T10:19:47.279Z</time></trkpt><trkpt lat="38.12711" lon="14.9109383"><ele>642.0</ele><time>2026-05-03T10:19:48.279Z</time></trkpt><trkpt lat="38.1272017" lon="14.91094"><ele>642.0</ele><time>2026-05-03T10:19:49.279Z</time></trkpt><trkpt lat="38.127305" lon="14.9109333"><ele>642.0</ele><time>2026-05-03T10:19:50.279Z</time></trkpt><trkpt lat="38.1274033" lon="14.91092"><ele>642.0</ele><time>2026-05-03T10:19:51.279Z</time></trkpt><trkpt lat="38.127495" lon="14.9109117"><ele>642.0</ele><time>2026-05-03T10:19:52.279Z</time></trkpt><trkpt lat="38.127575" lon="14.9108817"><ele>642.0</ele><time>2026-05-03T10:19:53.279Z</time></trkpt><trkpt lat="38.127635" lon="14.9108283"><ele>642.4000000000001</ele><time>2026-05-03T10:19:54.279Z</time></trkpt><trkpt lat="38.1277083" lon="14.9107433"><ele>642.8000000000001</ele><time>2026-05-03T10:19:56.279Z</time></trkpt><trkpt lat="38.1277491" lon="14.9108505"><ele>643.2</ele><time>2026-05-03T10:20:36.279Z</time></trkpt><trkpt lat="38.1277281" lon="14.9109603"><ele>643.6</ele><time>2026-05-03T10:20:38.279Z</time></trkpt><trkpt lat="38.127708" lon="14.911078"><ele>644.0</ele><time>2026-05-03T10:20:40.279Z</time></trkpt><trkpt lat="38.1276798" lon="14.9111986"><ele>644.0</ele><time>2026-05-03T10:20:42.279Z</time></trkpt><trkpt lat="38.1276433" lon="14.9113238"><ele>644.0</ele><time>2026-05-03T10:20:44.279Z</time></trkpt><trkpt lat="38.1276179" lon="14.9114401"><ele>644.0</ele><time>2026-05-03T10:20:46.279Z</time></trkpt><trkpt lat="38.1276231" lon="14.9115355"><ele>644.0</ele><time>2026-05-03T10:20:49.279Z</time></trkpt><trkpt lat="38.1276444" lon="14.9116426"><ele>644.0</ele><time>2026-05-03T10:21:18.279Z</time></trkpt><trkpt lat="38.1277085" lon="14.9117442"><ele>648.6</ele><time>2026-05-03T10:21:20.279Z</time></trkpt><trkpt lat="38.127786" lon="14.9118395"><ele>653.2</ele><time>2026-05-03T10:21:22.279Z</time></trkpt><trkpt lat="38.1278759" lon="14.9119447"><ele>657.8000000000001</ele><time>2026-05-03T10:21:24.278Z</time></trkpt><trkpt lat="38.1279588" lon="14.9120318"><ele>662.4000000000001</ele><time>2026-05-03T10:21:26.279Z</time></trkpt><trkpt lat="38.128006" lon="14.9121349"><ele>667.0</ele><time>2026-05-03T10:21:28.279Z</time></trkpt><trkpt lat="38.1280311" lon="14.9122693"><ele>667.0000000000001</ele><time>2026-05-03T10:21:30.279Z</time></trkpt><trkpt lat="38.1280326" lon="14.912362"><ele>667.0</ele><time>2026-05-03T10:21:31.279Z</time></trkpt><trkpt lat="38.1280333" lon="14.9124542"><ele>667.0</ele><time>2026-05-03T10:21:32.279Z</time></trkpt><trkpt lat="38.1280292" lon="14.9125462"><ele>667.0</ele><time>2026-05-03T10:21:34.279Z</time></trkpt><trkpt lat="38.1280401" lon="14.9124516"><ele>667.0</ele><time>2026-05-03T10:23:44.279Z</time></trkpt><trkpt lat="38.1280288" lon="14.912372"><ele>667.0000000000001</ele><time>2026-05-03T10:23:46.279Z</time></trkpt><trkpt lat="38.128011" lon="14.9122725"><ele>667.0</ele><time>2026-05-03T10:23:49.279Z</time></trkpt><trkpt lat="38.1279771" lon="14.9121778"><ele>667.0</ele><time>2026-05-03T10:23:52.279Z</time></trkpt><trkpt lat="38.1279452" lon="14.9120803"><ele>667.0</ele><time>2026-05-03T10:23:55.279Z</time></trkpt><trkpt lat="38.1279024" lon="14.9120169"><ele>667.0</ele><time>2026-05-03T10:23:57.279Z</time></trkpt><trkpt lat="38.1278467" lon="14.9119503"><ele>667.0</ele><time>2026-05-03T10:23:59.279Z</time></trkpt><trkpt lat="38.1277917" lon="14.911885"><ele>667.0</ele><time>2026-05-03T10:24:01.279Z</time></trkpt><trkpt lat="38.1277189" lon="14.9118097"><ele>667.0</ele><time>2026-05-03T10:24:04.279Z</time></trkpt><trkpt lat="38.1276832" lon="14.9117339"><ele>663.1666666666667</ele><time>2026-05-03T10:24:07.279Z</time></trkpt><trkpt lat="38.1276735" lon="14.9116304"><ele>659.3333333333334</ele><time>2026-05-03T10:24:10.279Z</time></trkpt><trkpt lat="38.1276647" lon="14.91154"><ele>655.5</ele><time>2026-05-03T10:24:13.279Z</time></trkpt><trkpt lat="38.1276559" lon="14.9114453"><ele>651.6666666666666</ele><time>2026-05-03T10:24:16.279Z</time></trkpt><trkpt lat="38.1276684" lon="14.9113573"><ele>647.8333333333333</ele><time>2026-05-03T10:24:19.279Z</time></trkpt><trkpt lat="38.1276879" lon="14.9112741"><ele>644.0</ele><time>2026-05-03T10:24:23.279Z</time></trkpt><trkpt lat="38.1276907" lon="14.911164"><ele>644.0</ele><time>2026-05-03T10:24:26.278Z</time></trkpt><trkpt lat="38.1277072" lon="14.9110763"><ele>644.0</ele><time>2026-05-03T10:24:28.279Z</time></trkpt><trkpt lat="38.1277263" lon="14.9109927"><ele>644.0</ele><time>2026-05-03T10:24:30.279Z</time></trkpt><trkpt lat="38.1277488" lon="14.9108831"><ele>644.0</ele><time>2026-05-03T10:24:33.279Z</time></trkpt><trkpt lat="38.1277516" lon="14.9108019"><ele>644.0</ele><time>2026-05-03T10:24:35.279Z</time></trkpt><trkpt lat="38.1277539" lon="14.9106962"><ele>644.0</ele><time>2026-05-03T10:24:37.279Z</time></trkpt><trkpt lat="38.1277429" lon="14.910576"><ele>641.1666666666666</ele><time>2026-05-03T10:24:39.279Z</time></trkpt><trkpt lat="38.1277247" lon="14.9104725"><ele>638.3333333333333</ele><time>2026-05-03T10:24:41.279Z</time></trkpt><trkpt lat="38.1277124" lon="14.9103924"><ele>635.5</ele><time>2026-05-03T10:24:43.279Z</time></trkpt><trkpt lat="38.1277198" lon="14.9102969"><ele>632.6666666666666</ele><time>2026-05-03T10:24:45.279Z</time></trkpt><trkpt lat="38.1277045" lon="14.9101883"><ele>629.8333333333334</ele><time>2026-05-03T10:24:47.279Z</time></trkpt><trkpt lat="38.1276961" lon="14.9100594"><ele>627.0</ele><time>2026-05-03T10:24:49.279Z</time></trkpt><trkpt lat="38.1276824" lon="14.909946"><ele>623.5</ele><time>2026-05-03T10:24:51.278Z</time></trkpt><trkpt lat="38.1276723" lon="14.9098387"><ele>620.0</ele><time>2026-05-03T10:24:54.279Z</time></trkpt><trkpt lat="38.1276614" lon="14.9097226"><ele>616.5</ele><time>2026-05-03T10:24:57.28Z</time></trkpt><trkpt lat="38.1276533" lon="14.9096289"><ele>613.0</ele><time>2026-05-03T10:24:59.28Z</time></trkpt><trkpt lat="38.1276551" lon="14.9095448"><ele>609.5</ele><time>2026-05-03T10:25:01.28Z</time></trkpt><trkpt lat="38.1276428" lon="14.9094381"><ele>606.0</ele><time>2026-05-03T10:25:04.28Z</time></trkpt><trkpt lat="38.1276133" lon="14.9093519"><ele>606.0</ele><time>2026-05-03T10:25:06.28Z</time></trkpt><trkpt lat="38.1275918" lon="14.909264"><ele>606.0</ele><time>2026-05-03T10:25:08.28Z</time></trkpt><trkpt lat="38.1275683" lon="14.9091716"><ele>606.0</ele><time>2026-05-03T10:25:10.28Z</time></trkpt><trkpt lat="38.1275512" lon="14.9090924"><ele>606.0</ele><time>2026-05-03T10:25:12.28Z</time></trkpt><trkpt lat="38.1275283" lon="14.9090124"><ele>606.0</ele><time>2026-05-03T10:25:14.28Z</time></trkpt><trkpt lat="38.1275283" lon="14.908905"><ele>606.0</ele><time>2026-05-03T10:25:16.28Z</time></trkpt><trkpt lat="38.1275217" lon="14.9087617"><ele>603.7142857142858</ele><time>2026-05-03T10:25:18.28Z</time></trkpt><trkpt lat="38.1275233" lon="14.908675"><ele>601.4285714285714</ele><time>2026-05-03T10:25:19.28Z</time></trkpt><trkpt lat="38.127525" lon="14.9085867"><ele>599.1428571428571</ele><time>2026-05-03T10:25:20.28Z</time></trkpt><trkpt lat="38.1275383" lon="14.9084917"><ele>596.8571428571429</ele><time>2026-05-03T10:25:21.28Z</time></trkpt><trkpt lat="38.1275633" lon="14.9084117"><ele>594.5714285714286</ele><time>2026-05-03T10:25:22.28Z</time></trkpt><trkpt lat="38.1275933" lon="14.9083183"><ele>592.2857142857143</ele><time>2026-05-03T10:25:23.28Z</time></trkpt><trkpt lat="38.1276067" lon="14.9082233"><ele>590.0</ele><time>2026-05-03T10:25:24.28Z</time></trkpt><trkpt lat="38.12762" lon="14.9081283"><ele>587.4</ele><time>2026-05-03T10:25:25.279Z</time></trkpt><trkpt lat="38.1276317" lon="14.9080417"><ele>584.8</ele><time>2026-05-03T10:25:26.28Z</time></trkpt><trkpt lat="38.1276517" lon="14.9079233"><ele>582.2</ele><time>2026-05-03T10:25:27.28Z</time></trkpt><trkpt lat="38.12769" lon="14.9077883"><ele>579.6</ele><time>2026-05-03T10:25:28.28Z</time></trkpt><trkpt lat="38.1277083" lon="14.9076633"><ele>577.0</ele><time>2026-05-03T10:25:29.28Z</time></trkpt><trkpt lat="38.127715" lon="14.9075367"><ele>573.0</ele><time>2026-05-03T10:25:30.28Z</time></trkpt><trkpt lat="38.127725" lon="14.9074233"><ele>569.0</ele><time>2026-05-03T10:25:31.28Z</time></trkpt><trkpt lat="38.1277483" lon="14.9073167"><ele>565.0</ele><time>2026-05-03T10:25:32.28Z</time></trkpt><trkpt lat="38.1277767" lon="14.907225"><ele>561.0</ele><time>2026-05-03T10:25:33.28Z</time></trkpt><trkpt lat="38.1278117" lon="14.9071483"><ele>557.0</ele><time>2026-05-03T10:25:34.28Z</time></trkpt><trkpt lat="38.1278717" lon="14.9070567"><ele>553.0</ele><time>2026-05-03T10:25:36.28Z</time></trkpt><trkpt lat="38.1279667" lon="14.9070683"><ele>553.0</ele><time>2026-05-03T10:25:38.28Z</time></trkpt><trkpt lat="38.1280117" lon="14.907125"><ele>553.0</ele><time>2026-05-03T10:25:39.28Z</time></trkpt><trkpt lat="38.1280567" lon="14.9072117"><ele>553.0</ele><time>2026-05-03T10:25:40.28Z</time></trkpt><trkpt lat="38.1280983" lon="14.90729"><ele>553.0</ele><time>2026-05-03T10:25:41.28Z</time></trkpt><trkpt lat="38.1281633" lon="14.9073067"><ele>553.0</ele><time>2026-05-03T10:25:43.28Z</time></trkpt><trkpt lat="38.128195" lon="14.9071967"><ele>553.0</ele><time>2026-05-03T10:25:45.28Z</time></trkpt><trkpt lat="38.1282283" lon="14.9070933"><ele>552.6666666666667</ele><time>2026-05-03T10:25:47.28Z</time></trkpt><trkpt lat="38.1282883" lon="14.907165"><ele>552.3333333333334</ele><time>2026-05-03T10:25:50.28Z</time></trkpt><trkpt lat="38.12832" lon="14.9072783"><ele>552.0</ele><time>2026-05-03T10:25:52.28Z</time></trkpt><trkpt lat="38.1283533" lon="14.9073883"><ele>551.6666666666666</ele><time>2026-05-03T10:25:54.28Z</time></trkpt><trkpt lat="38.12839" lon="14.9074883"><ele>551.3333333333333</ele><time>2026-05-03T10:25:56.28Z</time></trkpt><trkpt lat="38.1284167" lon="14.9075917"><ele>551.0</ele><time>2026-05-03T10:25:58.28Z</time></trkpt><trkpt lat="38.1284317" lon="14.907705"><ele>552.2</ele><time>2026-05-03T10:26:00.28Z</time></trkpt><trkpt lat="38.1284333" lon="14.9078267"><ele>553.4000000000001</ele><time>2026-05-03T10:26:02.28Z</time></trkpt><trkpt lat="38.128435" lon="14.90795"><ele>554.6</ele><time>2026-05-03T10:26:04.279Z</time></trkpt><trkpt lat="38.1284383" lon="14.90808"><ele>555.8000000000001</ele><time>2026-05-03T10:26:06.28Z</time></trkpt><trkpt lat="38.1284483" lon="14.9081967"><ele>557.0</ele><time>2026-05-03T10:26:08.28Z</time></trkpt><trkpt lat="38.1284517" lon="14.9083333"><ele>559.6666666666666</ele><time>2026-05-03T10:26:10.28Z</time></trkpt><trkpt lat="38.1284667" lon="14.908445"><ele>562.3333333333333</ele><time>2026-05-03T10:26:12.28Z</time></trkpt><trkpt lat="38.1284867" lon="14.9085633"><ele>565.0</ele><time>2026-05-03T10:26:14.28Z</time></trkpt><trkpt lat="38.12852" lon="14.908655"><ele>567.6666666666666</ele><time>2026-05-03T10:26:16.28Z</time></trkpt><trkpt lat="38.1285517" lon="14.9087417"><ele>570.3333333333334</ele><time>2026-05-03T10:26:18.28Z</time></trkpt><trkpt lat="38.1286117" lon="14.908835"><ele>573.0</ele><time>2026-05-03T10:26:21.28Z</time></trkpt><trkpt lat="38.128675" lon="14.9089183"><ele>573.0</ele><time>2026-05-03T10:26:24.28Z</time></trkpt><trkpt lat="38.1287267" lon="14.9089867"><ele>573.0</ele><time>2026-05-03T10:26:26.28Z</time></trkpt><trkpt lat="38.1287733" lon="14.9090433"><ele>573.0</ele><time>2026-05-03T10:26:28.28Z</time></trkpt><trkpt lat="38.1288333" lon="14.9091117"><ele>573.0</ele><time>2026-05-03T10:26:30.28Z</time></trkpt><trkpt lat="38.1288967" lon="14.90921"><ele>573.0</ele><time>2026-05-03T10:26:32.28Z</time></trkpt><trkpt lat="38.128955" lon="14.9093217"><ele>573.0</ele><time>2026-05-03T10:26:34.28Z</time></trkpt><trkpt lat="38.1289767" lon="14.9094533"><ele>577.0</ele><time>2026-05-03T10:26:36.28Z</time></trkpt><trkpt lat="38.1290033" lon="14.9096033"><ele>581.0</ele><time>2026-05-03T10:26:38.28Z</time></trkpt><trkpt lat="38.1290617" lon="14.9097417"><ele>585.0</ele><time>2026-05-03T10:26:40.28Z</time></trkpt><trkpt lat="38.129105" lon="14.909875"><ele>589.0</ele><time>2026-05-03T10:26:42.28Z</time></trkpt><trkpt lat="38.1291833" lon="14.9099517"><ele>583.5</ele><time>2026-05-03T10:26:44.279Z</time></trkpt><trkpt lat="38.1292933" lon="14.9099467"><ele>578.0</ele><time>2026-05-03T10:26:46.28Z</time></trkpt><trkpt lat="38.1293533" lon="14.9099217"><ele>572.5</ele><time>2026-05-03T10:26:47.28Z</time></trkpt><trkpt lat="38.1294133" lon="14.9098867"><ele>567.0</ele><time>2026-05-03T10:26:48.28Z</time></trkpt><trkpt lat="38.1294783" lon="14.9098383"><ele>561.5</ele><time>2026-05-03T10:26:49.28Z</time></trkpt><trkpt lat="38.1295417" lon="14.9098067"><ele>556.0</ele><time>2026-05-03T10:26:50.28Z</time></trkpt><trkpt lat="38.1296083" lon="14.90978"><ele>556.0</ele><time>2026-05-03T10:26:51.28Z</time></trkpt><trkpt lat="38.1297183" lon="14.90974"><ele>556.0</ele><time>2026-05-03T10:26:53.28Z</time></trkpt><trkpt lat="38.1298383" lon="14.9097167"><ele>556.0</ele><time>2026-05-03T10:26:55.28Z</time></trkpt><trkpt lat="38.1299067" lon="14.9097017"><ele>556.0</ele><time>2026-05-03T10:26:56.28Z</time></trkpt><trkpt lat="38.1299767" lon="14.9096633"><ele>556.0</ele><time>2026-05-03T10:26:57.28Z</time></trkpt><trkpt lat="38.1300433" lon="14.90962"><ele>554.7142857142857</ele><time>2026-05-03T10:26:58.28Z</time></trkpt><trkpt lat="38.1301133" lon="14.9095783"><ele>553.4285714285714</ele><time>2026-05-03T10:26:59.28Z</time></trkpt><trkpt lat="38.1301967" lon="14.9095467"><ele>552.1428571428571</ele><time>2026-05-03T10:27:00.28Z</time></trkpt><trkpt lat="38.1302783" lon="14.9095233"><ele>550.8571428571429</ele><time>2026-05-03T10:27:01.28Z</time></trkpt><trkpt lat="38.1303417" lon="14.9095"><ele>549.5714285714286</ele><time>2026-05-03T10:27:02.28Z</time></trkpt><trkpt lat="38.130405" lon="14.909495"><ele>548.2857142857142</ele><time>2026-05-03T10:27:03.28Z</time></trkpt><trkpt lat="38.1304683" lon="14.9095033"><ele>547.0</ele><time>2026-05-03T10:27:04.28Z</time></trkpt><trkpt lat="38.13059" lon="14.9095183"><ele>547.0</ele><time>2026-05-03T10:27:06.28Z</time></trkpt><trkpt lat="38.13066" lon="14.9095317"><ele>547.0</ele><time>2026-05-03T10:27:07.28Z</time></trkpt><trkpt lat="38.130775" lon="14.90956"><ele>547.0</ele><time>2026-05-03T10:27:09.28Z</time></trkpt><trkpt lat="38.1308733" lon="14.9096233"><ele>547.0</ele><time>2026-05-03T10:27:11.279Z</time></trkpt><trkpt lat="38.1309783" lon="14.9097067"><ele>547.0</ele><time>2026-05-03T10:27:13.28Z</time></trkpt><trkpt lat="38.131105" lon="14.9097"><ele>546.8571428571429</ele><time>2026-05-03T10:27:15.279Z</time></trkpt><trkpt lat="38.131165" lon="14.9096483"><ele>546.7142857142857</ele><time>2026-05-03T10:27:16.28Z</time></trkpt><trkpt lat="38.131225" lon="14.9096"><ele>546.5714285714286</ele><time>2026-05-03T10:27:17.28Z</time></trkpt><trkpt lat="38.131285" lon="14.909565"><ele>546.4285714285714</ele><time>2026-05-03T10:27:18.28Z</time></trkpt><trkpt lat="38.1313533" lon="14.9095317"><ele>546.2857142857142</ele><time>2026-05-03T10:27:19.28Z</time></trkpt><trkpt lat="38.1314183" lon="14.9095233"><ele>546.1428571428571</ele><time>2026-05-03T10:27:20.28Z</time></trkpt><trkpt lat="38.1314917" lon="14.90952"><ele>546.0</ele><time>2026-05-03T10:27:21.28Z</time></trkpt><trkpt lat="38.13157" lon="14.9095117"><ele>546.2857142857143</ele><time>2026-05-03T10:27:22.28Z</time></trkpt><trkpt lat="38.1316483" lon="14.9095017"><ele>546.5714285714286</ele><time>2026-05-03T10:27:23.279Z</time></trkpt><trkpt lat="38.13172" lon="14.909495"><ele>546.8571428571429</ele><time>2026-05-03T10:27:24.28Z</time></trkpt><trkpt lat="38.1317933" lon="14.9094867"><ele>547.1428571428571</ele><time>2026-05-03T10:27:25.28Z</time></trkpt><trkpt lat="38.13187" lon="14.9094883"><ele>547.4285714285714</ele><time>2026-05-03T10:27:26.28Z</time></trkpt><trkpt lat="38.1319367" lon="14.909515"><ele>547.7142857142858</ele><time>2026-05-03T10:27:27.28Z</time></trkpt><trkpt lat="38.1320033" lon="14.9095467"><ele>548.0</ele><time>2026-05-03T10:27:28.28Z</time></trkpt><trkpt lat="38.1320633" lon="14.9095917"><ele>548.0</ele><time>2026-05-03T10:27:29.28Z</time></trkpt><trkpt lat="38.1321533" lon="14.9096333"><ele>548.0</ele><time>2026-05-03T10:27:31.28Z</time></trkpt><trkpt lat="38.1322533" lon="14.9096517"><ele>548.0</ele><time>2026-05-03T10:27:33.28Z</time></trkpt><trkpt lat="38.132355" lon="14.9096867"><ele>548.0</ele><time>2026-05-03T10:27:35.28Z</time></trkpt><trkpt lat="38.1324717" lon="14.909685"><ele>548.0</ele><time>2026-05-03T10:27:37.28Z</time></trkpt><trkpt lat="38.132545" lon="14.90966"><ele>546.1666666666666</ele><time>2026-05-03T10:27:38.28Z</time></trkpt><trkpt lat="38.132605" lon="14.9096233"><ele>544.3333333333333</ele><time>2026-05-03T10:27:39.28Z</time></trkpt><trkpt lat="38.1326833" lon="14.9095867"><ele>542.5</ele><time>2026-05-03T10:27:40.28Z</time></trkpt><trkpt lat="38.1327567" lon="14.90957"><ele>540.6666666666666</ele><time>2026-05-03T10:27:41.28Z</time></trkpt><trkpt lat="38.1328817" lon="14.9096217"><ele>538.8333333333334</ele><time>2026-05-03T10:27:43.28Z</time></trkpt><trkpt lat="38.1329483" lon="14.909675"><ele>537.0</ele><time>2026-05-03T10:27:44.28Z</time></trkpt><trkpt lat="38.133005" lon="14.9097333"><ele>537.0</ele><time>2026-05-03T10:27:45.28Z</time></trkpt><trkpt lat="38.1330567" lon="14.9097817"><ele>537.0</ele><time>2026-05-03T10:27:46.28Z</time></trkpt><trkpt lat="38.13312" lon="14.9098133"><ele>537.0</ele><time>2026-05-03T10:27:48.28Z</time></trkpt><trkpt lat="38.1331117" lon="14.9097117"><ele>537.0</ele><time>2026-05-03T10:27:51.28Z</time></trkpt><trkpt lat="38.1330383" lon="14.9096033"><ele>537.0</ele><time>2026-05-03T10:27:53.28Z</time></trkpt><trkpt lat="38.13296" lon="14.909505"><ele>537.0</ele><time>2026-05-03T10:27:55.28Z</time></trkpt><trkpt lat="38.132875" lon="14.9094117"><ele>537.0</ele><time>2026-05-03T10:27:57.28Z</time></trkpt><trkpt lat="38.1327733" lon="14.9093283"><ele>537.0</ele><time>2026-05-03T10:27:59.28Z</time></trkpt><trkpt lat="38.1327133" lon="14.9092883"><ele>537.0</ele><time>2026-05-03T10:28:00.28Z</time></trkpt><trkpt lat="38.13265" lon="14.9092467"><ele>537.0</ele><time>2026-05-03T10:28:01.28Z</time></trkpt><trkpt lat="38.1325867" lon="14.90918"><ele>537.0</ele><time>2026-05-03T10:28:02.28Z</time></trkpt><trkpt lat="38.1325283" lon="14.9090983"><ele>537.0</ele><time>2026-05-03T10:28:03.28Z</time></trkpt><trkpt lat="38.13247" lon="14.90899"><ele>534.5</ele><time>2026-05-03T10:28:04.28Z</time></trkpt><trkpt lat="38.132395" lon="14.9088383"><ele>532.0</ele><time>2026-05-03T10:28:05.28Z</time></trkpt><trkpt lat="38.1323317" lon="14.908665"><ele>529.5</ele><time>2026-05-03T10:28:06.28Z</time></trkpt><trkpt lat="38.1322867" lon="14.9084983"><ele>527.0</ele><time>2026-05-03T10:28:07.28Z</time></trkpt><trkpt lat="38.1322467" lon="14.908355"><ele>522.8333333333333</ele><time>2026-05-03T10:28:08.28Z</time></trkpt><trkpt lat="38.132215" lon="14.908225"><ele>518.6666666666666</ele><time>2026-05-03T10:28:09.28Z</time></trkpt><trkpt lat="38.13219" lon="14.9081067"><ele>514.5</ele><time>2026-05-03T10:28:10.28Z</time></trkpt><trkpt lat="38.1321667" lon="14.9080067"><ele>510.33333333333337</ele><time>2026-05-03T10:28:11.28Z</time></trkpt><trkpt lat="38.13212" lon="14.9079283"><ele>506.1666666666667</ele><time>2026-05-03T10:28:12.28Z</time></trkpt><trkpt lat="38.1320467" lon="14.9078767"><ele>502.0</ele><time>2026-05-03T10:28:13.28Z</time></trkpt><trkpt lat="38.13195" lon="14.9078483"><ele>502.0</ele><time>2026-05-03T10:28:14.28Z</time></trkpt><trkpt lat="38.13185" lon="14.9078367"><ele>502.00000000000006</ele><time>2026-05-03T10:28:15.28Z</time></trkpt><trkpt lat="38.1317467" lon="14.90784"><ele>502.00000000000006</ele><time>2026-05-03T10:28:16.28Z</time></trkpt><trkpt lat="38.1316467" lon="14.9078483"><ele>502.0</ele><time>2026-05-03T10:28:17.28Z</time></trkpt><trkpt lat="38.1315483" lon="14.9078517"><ele>502.0</ele><time>2026-05-03T10:28:18.28Z</time></trkpt><trkpt lat="38.1314517" lon="14.9078817"><ele>499.5</ele><time>2026-05-03T10:28:19.279Z</time></trkpt><trkpt lat="38.1313483" lon="14.907925"><ele>497.0</ele><time>2026-05-03T10:28:20.28Z</time></trkpt><trkpt lat="38.1312433" lon="14.9079633"><ele>494.5</ele><time>2026-05-03T10:28:21.28Z</time></trkpt><trkpt lat="38.13113" lon="14.907995"><ele>492.0</ele><time>2026-05-03T10:28:22.28Z</time></trkpt><trkpt lat="38.1310117" lon="14.9080217"><ele>492.0</ele><time>2026-05-03T10:28:23.28Z</time></trkpt><trkpt lat="38.1308967" lon="14.908045"><ele>492.00000000000006</ele><time>2026-05-03T10:28:24.28Z</time></trkpt><trkpt lat="38.13079" lon="14.9080583"><ele>492.00000000000006</ele><time>2026-05-03T10:28:25.279Z</time></trkpt><trkpt lat="38.130695" lon="14.9080717"><ele>492.0</ele><time>2026-05-03T10:28:26.28Z</time></trkpt><trkpt lat="38.1306117" lon="14.908095"><ele>492.0</ele><time>2026-05-03T10:28:27.28Z</time></trkpt><trkpt lat="38.1305367" lon="14.9081033"><ele>491.1666666666667</ele><time>2026-05-03T10:28:28.28Z</time></trkpt><trkpt lat="38.130465" lon="14.9081117"><ele>490.33333333333337</ele><time>2026-05-03T10:28:29.28Z</time></trkpt><trkpt lat="38.130395" lon="14.9081317"><ele>489.5</ele><time>2026-05-03T10:28:30.28Z</time></trkpt><trkpt lat="38.130325" lon="14.908155"><ele>488.6666666666667</ele><time>2026-05-03T10:28:31.28Z</time></trkpt><trkpt lat="38.13025" lon="14.908185"><ele>487.83333333333337</ele><time>2026-05-03T10:28:32.28Z</time></trkpt><trkpt lat="38.13017" lon="14.9082283"><ele>487.0</ele><time>2026-05-03T10:28:33.279Z</time></trkpt><trkpt lat="38.1301033" lon="14.9082967"><ele>487.00000000000006</ele><time>2026-05-03T10:28:34.28Z</time></trkpt><trkpt lat="38.130035" lon="14.9083533"><ele>487.0</ele><time>2026-05-03T10:28:35.28Z</time></trkpt><trkpt lat="38.1299783" lon="14.9083933"><ele>487.0</ele><time>2026-05-03T10:28:36.28Z</time></trkpt><trkpt lat="38.12992" lon="14.9084333"><ele>487.0</ele><time>2026-05-03T10:28:37.28Z</time></trkpt><trkpt lat="38.129815" lon="14.9084433"><ele>487.00000000000006</ele><time>2026-05-03T10:28:39.28Z</time></trkpt><trkpt lat="38.1297467" lon="14.908335"><ele>487.0</ele><time>2026-05-03T10:28:41.28Z</time></trkpt><trkpt lat="38.129735" lon="14.90824"><ele>492.0</ele><time>2026-05-03T10:28:42.28Z</time></trkpt><trkpt lat="38.129735" lon="14.9081133"><ele>497.00000000000006</ele><time>2026-05-03T10:28:43.28Z</time></trkpt><trkpt lat="38.12973" lon="14.9079783"><ele>502.00000000000006</ele><time>2026-05-03T10:28:44.28Z</time></trkpt><trkpt lat="38.12973" lon="14.90784"><ele>507.0</ele><time>2026-05-03T10:28:45.28Z</time></trkpt><trkpt lat="38.1297417" lon="14.9077033"><ele>512.0</ele><time>2026-05-03T10:28:46.279Z</time></trkpt><trkpt lat="38.1297633" lon="14.9075683"><ele>512.0</ele><time>2026-05-03T10:28:47.28Z</time></trkpt><trkpt lat="38.1297883" lon="14.907435"><ele>512.0</ele><time>2026-05-03T10:28:48.279Z</time></trkpt><trkpt lat="38.1298183" lon="14.9072967"><ele>512.0</ele><time>2026-05-03T10:28:49.28Z</time></trkpt><trkpt lat="38.1298483" lon="14.907155"><ele>512.0</ele><time>2026-05-03T10:28:50.28Z</time></trkpt><trkpt lat="38.12988" lon="14.9070117"><ele>502.6</ele><time>2026-05-03T10:28:51.28Z</time></trkpt><trkpt lat="38.1298983" lon="14.9068633"><ele>493.20000000000005</ele><time>2026-05-03T10:28:52.28Z</time></trkpt><trkpt lat="38.129925" lon="14.9067333"><ele>483.8</ele><time>2026-05-03T10:28:53.28Z</time></trkpt><trkpt lat="38.1299433" lon="14.906625"><ele>474.4</ele><time>2026-05-03T10:28:54.28Z</time></trkpt><trkpt lat="38.129965" lon="14.906525"><ele>465.0</ele><time>2026-05-03T10:28:55.28Z</time></trkpt><trkpt lat="38.1299833" lon="14.9064317"><ele>463.3333333333333</ele><time>2026-05-03T10:28:56.28Z</time></trkpt><trkpt lat="38.12994" lon="14.9062833"><ele>461.66666666666663</ele><time>2026-05-03T10:28:58.28Z</time></trkpt><trkpt lat="38.12989" lon="14.906225"><ele>460.0</ele><time>2026-05-03T10:28:59.28Z</time></trkpt><trkpt lat="38.12983" lon="14.9061733"><ele>458.3333333333333</ele><time>2026-05-03T10:29:00.28Z</time></trkpt><trkpt lat="38.1297833" lon="14.9060983"><ele>456.66666666666663</ele><time>2026-05-03T10:29:01.28Z</time></trkpt><trkpt lat="38.1297533" lon="14.9060167"><ele>455.0</ele><time>2026-05-03T10:29:02.28Z</time></trkpt><trkpt lat="38.1297583" lon="14.90592"><ele>459.1428571428571</ele><time>2026-05-03T10:29:03.28Z</time></trkpt><trkpt lat="38.1297617" lon="14.9058217"><ele>463.2857142857143</ele><time>2026-05-03T10:29:04.28Z</time></trkpt><trkpt lat="38.1297533" lon="14.9057367"><ele>467.42857142857144</ele><time>2026-05-03T10:29:05.28Z</time></trkpt><trkpt lat="38.1297317" lon="14.905655"><ele>471.57142857142856</ele><time>2026-05-03T10:29:06.28Z</time></trkpt><trkpt lat="38.1296767" lon="14.9055817"><ele>475.71428571428567</ele><time>2026-05-03T10:29:07.28Z</time></trkpt><trkpt lat="38.1296167" lon="14.9055233"><ele>479.85714285714283</ele><time>2026-05-03T10:29:08.28Z</time></trkpt><trkpt lat="38.129555" lon="14.9054667"><ele>484.0</ele><time>2026-05-03T10:29:09.28Z</time></trkpt><trkpt lat="38.1294933" lon="14.9054067"><ele>484.00000000000006</ele><time>2026-05-03T10:29:10.28Z</time></trkpt><trkpt lat="38.12945" lon="14.9053417"><ele>484.0</ele><time>2026-05-03T10:29:11.28Z</time></trkpt><trkpt lat="38.1294383" lon="14.9052117"><ele>484.0</ele><time>2026-05-03T10:29:13.28Z</time></trkpt><trkpt lat="38.1294667" lon="14.9051117"><ele>484.0</ele><time>2026-05-03T10:29:15.28Z</time></trkpt><trkpt lat="38.1294933" lon="14.90503"><ele>484.00000000000006</ele><time>2026-05-03T10:29:17.28Z</time></trkpt><trkpt lat="38.1295633" lon="14.9049767"><ele>484.0</ele><time>2026-05-03T10:29:20.28Z</time></trkpt><trkpt lat="38.1296383" lon="14.905005"><ele>484.0</ele><time>2026-05-03T10:29:22.28Z</time></trkpt><trkpt lat="38.1297317" lon="14.905095"><ele>484.0</ele><time>2026-05-03T10:29:24.28Z</time></trkpt><trkpt lat="38.1298" lon="14.90514"><ele>484.0</ele><time>2026-05-03T10:29:25.28Z</time></trkpt><trkpt lat="38.1298767" lon="14.9051883"><ele>484.0</ele><time>2026-05-03T10:29:26.28Z</time></trkpt><trkpt lat="38.1299567" lon="14.9052367"><ele>484.0</ele><time>2026-05-03T10:29:27.28Z</time></trkpt><trkpt lat="38.1300283" lon="14.9052867"><ele>476.33333333333337</ele><time>2026-05-03T10:29:28.28Z</time></trkpt><trkpt lat="38.1300867" lon="14.9053383"><ele>468.6666666666667</ele><time>2026-05-03T10:29:29.28Z</time></trkpt><trkpt lat="38.13016" lon="14.90541"><ele>461.0</ele><time>2026-05-03T10:29:31.28Z</time></trkpt><trkpt lat="38.13023" lon="14.9054617"><ele>453.33333333333337</ele><time>2026-05-03T10:29:34.279Z</time></trkpt><trkpt lat="38.1302983" lon="14.90543"><ele>445.6666666666667</ele><time>2026-05-03T10:29:36.28Z</time></trkpt><trkpt lat="38.13034" lon="14.90536"><ele>438.0</ele><time>2026-05-03T10:29:37.28Z</time></trkpt><trkpt lat="38.13039" lon="14.9052767"><ele>438.0</ele><time>2026-05-03T10:29:38.28Z</time></trkpt><trkpt lat="38.130455" lon="14.9052133"><ele>437.99999999999994</ele><time>2026-05-03T10:29:39.28Z</time></trkpt><trkpt lat="38.13053" lon="14.9051517"><ele>437.99999999999994</ele><time>2026-05-03T10:29:40.28Z</time></trkpt><trkpt lat="38.1305917" lon="14.9050767"><ele>438.0</ele><time>2026-05-03T10:29:41.28Z</time></trkpt><trkpt lat="38.1306467" lon="14.9049633"><ele>438.0</ele><time>2026-05-03T10:29:42.28Z</time></trkpt><trkpt lat="38.1306967" lon="14.9048067"><ele>438.4</ele><time>2026-05-03T10:29:43.28Z</time></trkpt><trkpt lat="38.13075" lon="14.9046583"><ele>438.79999999999995</ele><time>2026-05-03T10:29:44.279Z</time></trkpt><trkpt lat="38.1308183" lon="14.9045317"><ele>439.2</ele><time>2026-05-03T10:29:45.28Z</time></trkpt><trkpt lat="38.130875" lon="14.9044267"><ele>439.6</ele><time>2026-05-03T10:29:46.28Z</time></trkpt><trkpt lat="38.1309133" lon="14.9043167"><ele>440.0</ele><time>2026-05-03T10:29:47.28Z</time></trkpt><trkpt lat="38.1309283" lon="14.904205"><ele>440.0</ele><time>2026-05-03T10:29:48.28Z</time></trkpt><trkpt lat="38.13093" lon="14.904085"><ele>440.0</ele><time>2026-05-03T10:29:49.28Z</time></trkpt><trkpt lat="38.1309217" lon="14.9039517"><ele>440.0</ele><time>2026-05-03T10:29:50.28Z</time></trkpt><trkpt lat="38.1309033" lon="14.9037917"><ele>440.0</ele><time>2026-05-03T10:29:51.28Z</time></trkpt><trkpt lat="38.1308967" lon="14.90361"><ele>440.0</ele><time>2026-05-03T10:29:52.28Z</time></trkpt><trkpt lat="38.130895" lon="14.9034467"><ele>440.0</ele><time>2026-05-03T10:29:53.28Z</time></trkpt><trkpt lat="38.1309117" lon="14.903295"><ele>440.0</ele><time>2026-05-03T10:29:54.28Z</time></trkpt><trkpt lat="38.130925" lon="14.903165"><ele>440.0</ele><time>2026-05-03T10:29:55.279Z</time></trkpt><trkpt lat="38.1309217" lon="14.9030483"><ele>440.0</ele><time>2026-05-03T10:29:56.28Z</time></trkpt><trkpt lat="38.1309033" lon="14.9029283"><ele>444.0</ele><time>2026-05-03T10:29:57.28Z</time></trkpt><trkpt lat="38.1308733" lon="14.902815"><ele>448.0</ele><time>2026-05-03T10:29:58.28Z</time></trkpt><trkpt lat="38.1308467" lon="14.9027183"><ele>452.0</ele><time>2026-05-03T10:29:59.28Z</time></trkpt><trkpt lat="38.1308483" lon="14.9025817"><ele>456.0</ele><time>2026-05-03T10:30:01.28Z</time></trkpt><trkpt lat="38.1309433" lon="14.9025517"><ele>460.0</ele><time>2026-05-03T10:30:03.28Z</time></trkpt><trkpt lat="38.1310283" lon="14.9025983"><ele>460.0</ele><time>2026-05-03T10:30:04.28Z</time></trkpt><trkpt lat="38.1311517" lon="14.9026683"><ele>460.0</ele><time>2026-05-03T10:30:05.28Z</time></trkpt><trkpt lat="38.13126" lon="14.9027517"><ele>460.0</ele><time>2026-05-03T10:30:06.28Z</time></trkpt><trkpt lat="38.13135" lon="14.9028567"><ele>460.0</ele><time>2026-05-03T10:30:07.28Z</time></trkpt><trkpt lat="38.1314033" lon="14.902955"><ele>460.00000000000006</ele><time>2026-05-03T10:30:08.28Z</time></trkpt><trkpt lat="38.1314617" lon="14.9030367"><ele>460.0</ele><time>2026-05-03T10:30:09.28Z</time></trkpt><trkpt lat="38.1315267" lon="14.9031017"><ele>460.0</ele><time>2026-05-03T10:30:10.28Z</time></trkpt><trkpt lat="38.1315933" lon="14.9031533"><ele>460.0</ele><time>2026-05-03T10:30:11.28Z</time></trkpt><trkpt lat="38.1316583" lon="14.9031933"><ele>460.00000000000006</ele><time>2026-05-03T10:30:12.28Z</time></trkpt><trkpt lat="38.1317767" lon="14.903245"><ele>460.0</ele><time>2026-05-03T10:30:14.28Z</time></trkpt><trkpt lat="38.1318417" lon="14.9032533"><ele>458.33333333333337</ele><time>2026-05-03T10:30:15.279Z</time></trkpt><trkpt lat="38.13192" lon="14.90326"><ele>456.6666666666667</ele><time>2026-05-03T10:30:16.279Z</time></trkpt><trkpt lat="38.1319883" lon="14.903255"><ele>455.0</ele><time>2026-05-03T10:30:17.28Z</time></trkpt><trkpt lat="38.13206" lon="14.903235"><ele>453.33333333333337</ele><time>2026-05-03T10:30:18.279Z</time></trkpt><trkpt lat="38.13215" lon="14.9031983"><ele>451.6666666666667</ele><time>2026-05-03T10:30:19.28Z</time></trkpt><trkpt lat="38.1322483" lon="14.9031633"><ele>450.0</ele><time>2026-05-03T10:30:20.28Z</time></trkpt><trkpt lat="38.13234" lon="14.9031183"><ele>448.3333333333333</ele><time>2026-05-03T10:30:21.28Z</time></trkpt><trkpt lat="38.13242" lon="14.9030567"><ele>446.66666666666663</ele><time>2026-05-03T10:30:22.28Z</time></trkpt><trkpt lat="38.1325083" lon="14.9030117"><ele>445.0</ele><time>2026-05-03T10:30:23.28Z</time></trkpt><trkpt lat="38.132595" lon="14.903"><ele>443.3333333333333</ele><time>2026-05-03T10:30:24.28Z</time></trkpt><trkpt lat="38.1326783" lon="14.90301"><ele>441.66666666666663</ele><time>2026-05-03T10:30:25.28Z</time></trkpt><trkpt lat="38.1327533" lon="14.9030233"><ele>440.0</ele><time>2026-05-03T10:30:26.28Z</time></trkpt><trkpt lat="38.1328283" lon="14.9030217"><ele>439.99999999999994</ele><time>2026-05-03T10:30:27.28Z</time></trkpt><trkpt lat="38.1328967" lon="14.9029883"><ele>440.0</ele><time>2026-05-03T10:30:28.28Z</time></trkpt><trkpt lat="38.132965" lon="14.90294"><ele>440.0</ele><time>2026-05-03T10:30:29.28Z</time></trkpt><trkpt lat="38.1330317" lon="14.9028717"><ele>440.0</ele><time>2026-05-03T10:30:30.28Z</time></trkpt><trkpt lat="38.1331067" lon="14.9027867"><ele>439.99999999999994</ele><time>2026-05-03T10:30:31.279Z</time></trkpt><trkpt lat="38.133185" lon="14.9027133"><ele>440.0</ele><time>2026-05-03T10:30:32.28Z</time></trkpt><trkpt lat="38.1332667" lon="14.9026583"><ele>437.66666666666663</ele><time>2026-05-03T10:30:33.28Z</time></trkpt><trkpt lat="38.133345" lon="14.9026233"><ele>435.3333333333333</ele><time>2026-05-03T10:30:34.28Z</time></trkpt><trkpt lat="38.1334283" lon="14.9026017"><ele>433.0</ele><time>2026-05-03T10:30:35.28Z</time></trkpt><trkpt lat="38.133505" lon="14.9025783"><ele>430.66666666666663</ele><time>2026-05-03T10:30:36.28Z</time></trkpt><trkpt lat="38.133575" lon="14.9025267"><ele>428.3333333333333</ele><time>2026-05-03T10:30:37.28Z</time></trkpt><trkpt lat="38.13363" lon="14.902455"><ele>426.0</ele><time>2026-05-03T10:30:38.28Z</time></trkpt><trkpt lat="38.13367" lon="14.9023683"><ele>433.1666666666667</ele><time>2026-05-03T10:30:39.28Z</time></trkpt><trkpt lat="38.1337183" lon="14.9022733"><ele>440.33333333333337</ele><time>2026-05-03T10:30:40.28Z</time></trkpt><trkpt lat="38.1337583" lon="14.90217"><ele>447.5</ele><time>2026-05-03T10:30:41.28Z</time></trkpt><trkpt lat="38.1337867" lon="14.902075"><ele>454.6666666666667</ele><time>2026-05-03T10:30:42.28Z</time></trkpt><trkpt lat="38.1338417" lon="14.9019783"><ele>461.83333333333337</ele><time>2026-05-03T10:30:43.28Z</time></trkpt><trkpt lat="38.1338817" lon="14.9018867"><ele>469.0</ele><time>2026-05-03T10:30:44.279Z</time></trkpt><trkpt lat="38.1339117" lon="14.9017933"><ele>465.33333333333337</ele><time>2026-05-03T10:30:45.28Z</time></trkpt><trkpt lat="38.1339383" lon="14.9016967"><ele>461.6666666666667</ele><time>2026-05-03T10:30:46.279Z</time></trkpt><trkpt lat="38.133965" lon="14.901605"><ele>458.0</ele><time>2026-05-03T10:30:47.28Z</time></trkpt><trkpt lat="38.1340017" lon="14.901515"><ele>454.33333333333337</ele><time>2026-05-03T10:30:48.28Z</time></trkpt><trkpt lat="38.1340217" lon="14.901425"><ele>450.6666666666667</ele><time>2026-05-03T10:30:49.279Z</time></trkpt><trkpt lat="38.134045" lon="14.9013383"><ele>447.0</ele><time>2026-05-03T10:30:50.28Z</time></trkpt><trkpt lat="38.1340617" lon="14.90124"><ele>456.20000000000005</ele><time>2026-05-03T10:30:51.28Z</time></trkpt><trkpt lat="38.134055" lon="14.9011333"><ele>465.40000000000003</ele><time>2026-05-03T10:30:52.28Z</time></trkpt><trkpt lat="38.1340267" lon="14.901015"><ele>474.59999999999997</ele><time>2026-05-03T10:30:53.28Z</time></trkpt><trkpt lat="38.1339917" lon="14.90089"><ele>483.79999999999995</ele><time>2026-05-03T10:30:54.28Z</time></trkpt><trkpt lat="38.1339583" lon="14.9007667"><ele>493.0</ele><time>2026-05-03T10:30:55.28Z</time></trkpt><trkpt lat="38.1339183" lon="14.9006583"><ele>493.0</ele><time>2026-05-03T10:30:56.28Z</time></trkpt><trkpt lat="38.1338567" lon="14.9005533"><ele>493.0</ele><time>2026-05-03T10:30:57.28Z</time></trkpt><trkpt lat="38.1337633" lon="14.9004517"><ele>493.0</ele><time>2026-05-03T10:30:58.279Z</time></trkpt><trkpt lat="38.133665" lon="14.9003583"><ele>493.0</ele><time>2026-05-03T10:30:59.28Z</time></trkpt><trkpt lat="38.1335783" lon="14.9002783"><ele>493.0</ele><time>2026-05-03T10:31:00.28Z</time></trkpt><trkpt lat="38.1335083" lon="14.9001967"><ele>492.99999999999994</ele><time>2026-05-03T10:31:01.28Z</time></trkpt><trkpt lat="38.1334483" lon="14.900135"><ele>492.99999999999994</ele><time>2026-05-03T10:31:02.28Z</time></trkpt><trkpt lat="38.1333867" lon="14.9000317"><ele>493.0</ele><time>2026-05-03T10:31:04.28Z</time></trkpt><trkpt lat="38.1334033" lon="14.8999067"><ele>493.0</ele><time>2026-05-03T10:31:06.28Z</time></trkpt><trkpt lat="38.1334933" lon="14.8997717"><ele>492.0</ele><time>2026-05-03T10:31:08.28Z</time></trkpt><trkpt lat="38.1335883" lon="14.8996867"><ele>491.0</ele><time>2026-05-03T10:31:09.279Z</time></trkpt><trkpt lat="38.1336967" lon="14.899605"><ele>490.0</ele><time>2026-05-03T10:31:10.28Z</time></trkpt><trkpt lat="38.1338117" lon="14.8995267"><ele>489.0</ele><time>2026-05-03T10:31:11.28Z</time></trkpt><trkpt lat="38.1338917" lon="14.8994483"><ele>489.0</ele><time>2026-05-03T10:31:12.28Z</time></trkpt><trkpt lat="38.1339467" lon="14.8993517"><ele>489.0</ele><time>2026-05-03T10:31:13.28Z</time></trkpt><trkpt lat="38.1339767" lon="14.8992567"><ele>489.0</ele><time>2026-05-03T10:31:14.28Z</time></trkpt><trkpt lat="38.1339867" lon="14.8991567"><ele>489.0</ele><time>2026-05-03T10:31:15.28Z</time></trkpt><trkpt lat="38.13397" lon="14.8990533"><ele>489.0</ele><time>2026-05-03T10:31:16.279Z</time></trkpt><trkpt lat="38.1339333" lon="14.8989533"><ele>489.0</ele><time>2026-05-03T10:31:17.28Z</time></trkpt><trkpt lat="38.1339067" lon="14.8988583"><ele>491.6666666666667</ele><time>2026-05-03T10:31:18.28Z</time></trkpt><trkpt lat="38.1338717" lon="14.898765"><ele>494.33333333333337</ele><time>2026-05-03T10:31:19.279Z</time></trkpt><trkpt lat="38.1338167" lon="14.8986667"><ele>497.0</ele><time>2026-05-03T10:31:20.281Z</time></trkpt><trkpt lat="38.13377" lon="14.8985733"><ele>499.6666666666667</ele><time>2026-05-03T10:31:21.281Z</time></trkpt><trkpt lat="38.1337417" lon="14.8984983"><ele>502.33333333333337</ele><time>2026-05-03T10:31:22.281Z</time></trkpt><trkpt lat="38.1337417" lon="14.8983883"><ele>505.0</ele><time>2026-05-03T10:31:24.281Z</time></trkpt><trkpt lat="38.1338383" lon="14.8983617"><ele>505.8</ele><time>2026-05-03T10:31:26.281Z</time></trkpt><trkpt lat="38.133905" lon="14.8983583"><ele>506.6</ele><time>2026-05-03T10:31:27.281Z</time></trkpt><trkpt lat="38.134015" lon="14.8983367"><ele>507.4</ele><time>2026-05-03T10:31:29.281Z</time></trkpt><trkpt lat="38.1341117" lon="14.8983433"><ele>508.2</ele><time>2026-05-03T10:31:31.28Z</time></trkpt><trkpt lat="38.1341833" lon="14.8984117"><ele>509.0</ele><time>2026-05-03T10:31:33.28Z</time></trkpt><trkpt lat="38.1342483" lon="14.8984867"><ele>499.4</ele><time>2026-05-03T10:31:35.281Z</time></trkpt><trkpt lat="38.1343033" lon="14.8985417"><ele>489.79999999999995</ele><time>2026-05-03T10:31:37.281Z</time></trkpt><trkpt lat="38.1343667" lon="14.8985917"><ele>480.20000000000005</ele><time>2026-05-03T10:31:39.281Z</time></trkpt><trkpt lat="38.13445" lon="14.8986567"><ele>470.6</ele><time>2026-05-03T10:31:41.281Z</time></trkpt><trkpt lat="38.1345517" lon="14.8987217"><ele>461.0</ele><time>2026-05-03T10:31:43.281Z</time></trkpt><trkpt lat="38.1346417" lon="14.8987567"><ele>461.0</ele><time>2026-05-03T10:31:45.281Z</time></trkpt><trkpt lat="38.1347133" lon="14.8988183"><ele>461.0</ele><time>2026-05-03T10:31:47.281Z</time></trkpt><trkpt lat="38.134755" lon="14.8989333"><ele>461.0</ele><time>2026-05-03T10:31:49.281Z</time></trkpt><trkpt lat="38.13478" lon="14.8990083"><ele>461.0</ele><time>2026-05-03T10:31:50.281Z</time></trkpt><trkpt lat="38.1348133" lon="14.89914"><ele>461.0</ele><time>2026-05-03T10:31:52.281Z</time></trkpt><trkpt lat="38.1348483" lon="14.8992517"><ele>457.4</ele><time>2026-05-03T10:31:54.281Z</time></trkpt><trkpt lat="38.13491" lon="14.8993683"><ele>453.8</ele><time>2026-05-03T10:31:56.281Z</time></trkpt><trkpt lat="38.13498" lon="14.8994683"><ele>450.19999999999993</ele><time>2026-05-03T10:31:58.281Z</time></trkpt><trkpt lat="38.1350667" lon="14.899535"><ele>446.59999999999997</ele><time>2026-05-03T10:32:00.281Z</time></trkpt><trkpt lat="38.13518" lon="14.899595"><ele>443.0</ele><time>2026-05-03T10:32:02.28Z</time></trkpt><trkpt lat="38.1353067" lon="14.8996167"><ele>443.0</ele><time>2026-05-03T10:32:04.281Z</time></trkpt><trkpt lat="38.1354233" lon="14.8996217"><ele>442.99999999999994</ele><time>2026-05-03T10:32:06.281Z</time></trkpt><trkpt lat="38.1355317" lon="14.8995783"><ele>442.99999999999994</ele><time>2026-05-03T10:32:08.281Z</time></trkpt><trkpt lat="38.1356183" lon="14.89952"><ele>443.0</ele><time>2026-05-03T10:32:10.281Z</time></trkpt><trkpt lat="38.1356883" lon="14.899465"><ele>443.0</ele><time>2026-05-03T10:32:12.281Z</time></trkpt><trkpt lat="38.1357767" lon="14.8994717"><ele>448.25</ele><time>2026-05-03T10:32:15.281Z</time></trkpt><trkpt lat="38.1358733" lon="14.8995767"><ele>453.5</ele><time>2026-05-03T10:32:17.281Z</time></trkpt><trkpt lat="38.1359333" lon="14.8997"><ele>458.75</ele><time>2026-05-03T10:32:18.281Z</time></trkpt><trkpt lat="38.1360067" lon="14.899825"><ele>464.0</ele><time>2026-05-03T10:32:19.281Z</time></trkpt><trkpt lat="38.136085" lon="14.8999133"><ele>464.0</ele><time>2026-05-03T10:32:20.281Z</time></trkpt><trkpt lat="38.1361733" lon="14.8999667"><ele>464.0</ele><time>2026-05-03T10:32:21.281Z</time></trkpt><trkpt lat="38.136275" lon="14.89997"><ele>464.0</ele><time>2026-05-03T10:32:22.28Z</time></trkpt><trkpt lat="38.136365" lon="14.8999917"><ele>464.0</ele><time>2026-05-03T10:32:23.281Z</time></trkpt><trkpt lat="38.1364467" lon="14.9000083"><ele>464.0</ele><time>2026-05-03T10:32:24.281Z</time></trkpt><trkpt lat="38.1365283" lon="14.900015"><ele>463.66666666666663</ele><time>2026-05-03T10:32:25.281Z</time></trkpt><trkpt lat="38.1366067" lon="14.8999967"><ele>463.3333333333333</ele><time>2026-05-03T10:32:26.281Z</time></trkpt><trkpt lat="38.1366633" lon="14.8999517"><ele>463.0</ele><time>2026-05-03T10:32:27.281Z</time></trkpt><trkpt lat="38.136715" lon="14.899875"><ele>462.66666666666663</ele><time>2026-05-03T10:32:28.281Z</time></trkpt><trkpt lat="38.1367617" lon="14.8997883"><ele>462.3333333333333</ele><time>2026-05-03T10:32:29.281Z</time></trkpt><trkpt lat="38.136795" lon="14.899705"><ele>462.0</ele><time>2026-05-03T10:32:30.281Z</time></trkpt><trkpt lat="38.13682" lon="14.8996217"><ele>462.0</ele><time>2026-05-03T10:32:31.28Z</time></trkpt><trkpt lat="38.1368433" lon="14.8995233"><ele>462.0</ele><time>2026-05-03T10:32:32.281Z</time></trkpt><trkpt lat="38.13687" lon="14.899415"><ele>462.0</ele><time>2026-05-03T10:32:33.281Z</time></trkpt><trkpt lat="38.1369083" lon="14.8993233"><ele>462.0</ele><time>2026-05-03T10:32:34.281Z</time></trkpt><trkpt lat="38.1369467" lon="14.8992517"><ele>462.0</ele><time>2026-05-03T10:32:35.281Z</time></trkpt><trkpt lat="38.1370033" lon="14.8992067"><ele>462.0</ele><time>2026-05-03T10:32:36.281Z</time></trkpt><trkpt lat="38.1370767" lon="14.8991767"><ele>461.8</ele><time>2026-05-03T10:32:37.28Z</time></trkpt><trkpt lat="38.1371583" lon="14.8991717"><ele>461.6</ele><time>2026-05-03T10:32:38.281Z</time></trkpt><trkpt lat="38.1372383" lon="14.8991383"><ele>461.40000000000003</ele><time>2026-05-03T10:32:39.281Z</time></trkpt><trkpt lat="38.13732" lon="14.89908"><ele>461.20000000000005</ele><time>2026-05-03T10:32:40.281Z</time></trkpt><trkpt lat="38.1374117" lon="14.8990233"><ele>461.0</ele><time>2026-05-03T10:32:41.281Z</time></trkpt><trkpt lat="38.1375033" lon="14.8989933"><ele>461.0</ele><time>2026-05-03T10:32:42.281Z</time></trkpt><trkpt lat="38.1376" lon="14.8989533"><ele>461.0</ele><time>2026-05-03T10:32:43.281Z</time></trkpt><trkpt lat="38.1376833" lon="14.8988867"><ele>461.0</ele><time>2026-05-03T10:32:44.281Z</time></trkpt><trkpt lat="38.1377467" lon="14.8988033"><ele>461.0</ele><time>2026-05-03T10:32:45.281Z</time></trkpt><trkpt lat="38.1377983" lon="14.8986933"><ele>461.0</ele><time>2026-05-03T10:32:46.281Z</time></trkpt><trkpt lat="38.1378583" lon="14.89859"><ele>461.0</ele><time>2026-05-03T10:32:47.281Z</time></trkpt><trkpt lat="38.1379283" lon="14.8984933"><ele>461.0</ele><time>2026-05-03T10:32:48.281Z</time></trkpt><trkpt lat="38.1379683" lon="14.8983917"><ele>461.0</ele><time>2026-05-03T10:32:49.281Z</time></trkpt><trkpt lat="38.1379883" lon="14.8982817"><ele>461.0</ele><time>2026-05-03T10:32:50.281Z</time></trkpt><trkpt lat="38.1379867" lon="14.8981717"><ele>461.0</ele><time>2026-05-03T10:32:51.281Z</time></trkpt><trkpt lat="38.1379683" lon="14.8980517"><ele>466.16666666666663</ele><time>2026-05-03T10:32:52.281Z</time></trkpt><trkpt lat="38.137935" lon="14.8979417"><ele>471.3333333333333</ele><time>2026-05-03T10:32:53.281Z</time></trkpt><trkpt lat="38.1379" lon="14.8978517"><ele>476.5</ele><time>2026-05-03T10:32:54.281Z</time></trkpt><trkpt lat="38.137885" lon="14.89777"><ele>481.66666666666663</ele><time>2026-05-03T10:32:55.281Z</time></trkpt><trkpt lat="38.137885" lon="14.8976783"><ele>486.8333333333333</ele><time>2026-05-03T10:32:56.281Z</time></trkpt><trkpt lat="38.1378983" lon="14.8975783"><ele>492.0</ele><time>2026-05-03T10:32:57.281Z</time></trkpt><trkpt lat="38.1379433" lon="14.8974817"><ele>496.5</ele><time>2026-05-03T10:32:58.281Z</time></trkpt><trkpt lat="38.1380233" lon="14.8973767"><ele>501.0</ele><time>2026-05-03T10:32:59.281Z</time></trkpt><trkpt lat="38.1381267" lon="14.897285"><ele>505.5</ele><time>2026-05-03T10:33:00.28Z</time></trkpt><trkpt lat="38.1382183" lon="14.897195"><ele>510.0</ele><time>2026-05-03T10:33:01.281Z</time></trkpt><trkpt lat="38.1382733" lon="14.8970867"><ele>507.0</ele><time>2026-05-03T10:33:02.28Z</time></trkpt><trkpt lat="38.138295" lon="14.8969983"><ele>504.0</ele><time>2026-05-03T10:33:03.281Z</time></trkpt><trkpt lat="38.138285" lon="14.8968467"><ele>501.0</ele><time>2026-05-03T10:33:05.281Z</time></trkpt><trkpt lat="38.13827" lon="14.8967667"><ele>498.0</ele><time>2026-05-03T10:33:06.281Z</time></trkpt><trkpt lat="38.1382533" lon="14.8966883"><ele>495.0</ele><time>2026-05-03T10:33:07.28Z</time></trkpt><trkpt lat="38.13824" lon="14.8966067"><ele>492.0</ele><time>2026-05-03T10:33:08.281Z</time></trkpt><trkpt lat="38.1382333" lon="14.8965217"><ele>492.0</ele><time>2026-05-03T10:33:09.281Z</time></trkpt><trkpt lat="38.1382367" lon="14.8964383"><ele>492.00000000000006</ele><time>2026-05-03T10:33:10.281Z</time></trkpt><trkpt lat="38.1382667" lon="14.8963083"><ele>492.00000000000006</ele><time>2026-05-03T10:33:12.281Z</time></trkpt><trkpt lat="38.1383183" lon="14.896235"><ele>492.0</ele><time>2026-05-03T10:33:14.281Z</time></trkpt><trkpt lat="38.1384317" lon="14.8962033"><ele>492.0</ele><time>2026-05-03T10:33:16.28Z</time></trkpt><trkpt lat="38.1385633" lon="14.89619"><ele>492.0</ele><time>2026-05-03T10:33:18.28Z</time></trkpt><trkpt lat="38.138635" lon="14.8961783"><ele>492.0</ele><time>2026-05-03T10:33:19.28Z</time></trkpt><trkpt lat="38.1387083" lon="14.8961633"><ele>492.0</ele><time>2026-05-03T10:33:20.281Z</time></trkpt><trkpt lat="38.1387717" lon="14.8961467"><ele>492.0</ele><time>2026-05-03T10:33:21.281Z</time></trkpt><trkpt lat="38.1388683" lon="14.89611"><ele>492.0</ele><time>2026-05-03T10:33:23.281Z</time></trkpt><trkpt lat="38.1389467" lon="14.8960733"><ele>492.0</ele><time>2026-05-03T10:33:25.281Z</time></trkpt><trkpt lat="38.1390383" lon="14.8959833"><ele>493.6</ele><time>2026-05-03T10:33:32.28Z</time></trkpt><trkpt lat="38.1390867" lon="14.8959317"><ele>495.20000000000005</ele><time>2026-05-03T10:33:33.281Z</time></trkpt><trkpt lat="38.1391567" lon="14.8958733"><ele>496.8</ele><time>2026-05-03T10:33:34.281Z</time></trkpt><trkpt lat="38.139255" lon="14.8958217"><ele>498.4</ele><time>2026-05-03T10:33:35.281Z</time></trkpt><trkpt lat="38.13935" lon="14.8957767"><ele>500.0</ele><time>2026-05-03T10:33:36.281Z</time></trkpt><trkpt lat="38.13944" lon="14.8957133"><ele>499.99999999999994</ele><time>2026-05-03T10:33:37.281Z</time></trkpt><trkpt lat="38.1395183" lon="14.89563"><ele>500.0</ele><time>2026-05-03T10:33:38.281Z</time></trkpt><trkpt lat="38.139585" lon="14.8955483"><ele>500.0</ele><time>2026-05-03T10:33:39.281Z</time></trkpt><trkpt lat="38.13963" lon="14.8954533"><ele>500.0</ele><time>2026-05-03T10:33:40.281Z</time></trkpt><trkpt lat="38.1396483" lon="14.8953533"><ele>499.99999999999994</ele><time>2026-05-03T10:33:41.281Z</time></trkpt><trkpt lat="38.1396233" lon="14.8952533"><ele>500.0</ele><time>2026-05-03T10:33:42.281Z</time></trkpt><trkpt lat="38.1395883" lon="14.8951467"><ele>504.8333333333333</ele><time>2026-05-03T10:33:43.281Z</time></trkpt><trkpt lat="38.1395633" lon="14.8950433"><ele>509.66666666666663</ele><time>2026-05-03T10:33:44.281Z</time></trkpt><trkpt lat="38.1395633" lon="14.8949317"><ele>514.5</ele><time>2026-05-03T10:33:45.28Z</time></trkpt><trkpt lat="38.1395783" lon="14.8948267"><ele>519.3333333333334</ele><time>2026-05-03T10:33:46.281Z</time></trkpt><trkpt lat="38.1395933" lon="14.894725"><ele>524.1666666666667</ele><time>2026-05-03T10:33:47.281Z</time></trkpt><trkpt lat="38.1395967" lon="14.8946333"><ele>529.0</ele><time>2026-05-03T10:33:48.281Z</time></trkpt><trkpt lat="38.1395817" lon="14.8945417"><ele>529.0</ele><time>2026-05-03T10:33:49.281Z</time></trkpt><trkpt lat="38.1395467" lon="14.89444"><ele>529.0</ele><time>2026-05-03T10:33:50.281Z</time></trkpt><trkpt lat="38.139485" lon="14.8943467"><ele>529.0</ele><time>2026-05-03T10:33:51.281Z</time></trkpt><trkpt lat="38.1394233" lon="14.8942617"><ele>529.0</ele><time>2026-05-03T10:33:52.281Z</time></trkpt><trkpt lat="38.1393633" lon="14.8942017"><ele>529.0</ele><time>2026-05-03T10:33:53.281Z</time></trkpt><trkpt lat="38.139305" lon="14.89414"><ele>529.0</ele><time>2026-05-03T10:33:54.281Z</time></trkpt><trkpt lat="38.1392483" lon="14.894055"><ele>528.8</ele><time>2026-05-03T10:33:55.281Z</time></trkpt><trkpt lat="38.1391933" lon="14.893945"><ele>528.5999999999999</ele><time>2026-05-03T10:33:56.281Z</time></trkpt><trkpt lat="38.1391483" lon="14.8938217"><ele>528.4</ele><time>2026-05-03T10:33:57.281Z</time></trkpt><trkpt lat="38.1391267" lon="14.8937183"><ele>528.1999999999999</ele><time>2026-05-03T10:33:58.281Z</time></trkpt><trkpt lat="38.139115" lon="14.8936067"><ele>528.0</ele><time>2026-05-03T10:33:59.281Z</time></trkpt><trkpt lat="38.1391183" lon="14.893485"><ele>527.6</ele><time>2026-05-03T10:34:00.281Z</time></trkpt><trkpt lat="38.139125" lon="14.89338"><ele>527.1999999999999</ele><time>2026-05-03T10:34:01.281Z</time></trkpt><trkpt lat="38.1391417" lon="14.8932833"><ele>526.8</ele><time>2026-05-03T10:34:02.281Z</time></trkpt><trkpt lat="38.1391767" lon="14.893185"><ele>526.4</ele><time>2026-05-03T10:34:03.281Z</time></trkpt><trkpt lat="38.13923" lon="14.893065"><ele>526.0</ele><time>2026-05-03T10:34:04.281Z</time></trkpt><trkpt lat="38.13927" lon="14.8929283"><ele>526.0</ele><time>2026-05-03T10:34:05.281Z</time></trkpt><trkpt lat="38.1393117" lon="14.89281"><ele>526.0</ele><time>2026-05-03T10:34:06.281Z</time></trkpt><trkpt lat="38.13934" lon="14.8927283"><ele>526.0</ele><time>2026-05-03T10:34:07.28Z</time></trkpt><trkpt lat="38.1393733" lon="14.8926567"><ele>526.0</ele><time>2026-05-03T10:34:08.281Z</time></trkpt><trkpt lat="38.139445" lon="14.892525"><ele>526.0</ele><time>2026-05-03T10:34:10.281Z</time></trkpt><trkpt lat="38.1395" lon="14.8924433"><ele>526.0</ele><time>2026-05-03T10:34:11.281Z</time></trkpt><trkpt lat="38.13958" lon="14.8923667"><ele>529.6</ele><time>2026-05-03T10:34:12.281Z</time></trkpt><trkpt lat="38.13967" lon="14.8922967"><ele>533.2</ele><time>2026-05-03T10:34:13.281Z</time></trkpt><trkpt lat="38.139745" lon="14.89223"><ele>536.8</ele><time>2026-05-03T10:34:14.281Z</time></trkpt><trkpt lat="38.139805" lon="14.8921367"><ele>540.4</ele><time>2026-05-03T10:34:15.281Z</time></trkpt><trkpt lat="38.13987" lon="14.8920167"><ele>544.0</ele><time>2026-05-03T10:34:16.281Z</time></trkpt><trkpt lat="38.139935" lon="14.8919067"><ele>541.1666666666667</ele><time>2026-05-03T10:34:17.281Z</time></trkpt><trkpt lat="38.139995" lon="14.8918167"><ele>538.3333333333334</ele><time>2026-05-03T10:34:18.281Z</time></trkpt><trkpt lat="38.1400283" lon="14.89173"><ele>535.5</ele><time>2026-05-03T10:34:19.281Z</time></trkpt><trkpt lat="38.1400583" lon="14.8916433"><ele>532.6666666666666</ele><time>2026-05-03T10:34:20.281Z</time></trkpt><trkpt lat="38.1400833" lon="14.8915683"><ele>529.8333333333333</ele><time>2026-05-03T10:34:21.281Z</time></trkpt><trkpt lat="38.1401767" lon="14.8914933"><ele>527.0</ele><time>2026-05-03T10:34:23.281Z</time></trkpt><trkpt lat="38.1402367" lon="14.8914667"><ele>527.0</ele><time>2026-05-03T10:34:24.281Z</time></trkpt><trkpt lat="38.1402983" lon="14.891445"><ele>527.0</ele><time>2026-05-03T10:34:25.281Z</time></trkpt><trkpt lat="38.1403967" lon="14.891385"><ele>527.0</ele><time>2026-05-03T10:34:27.281Z</time></trkpt><trkpt lat="38.140475" lon="14.8913417"><ele>527.0</ele><time>2026-05-03T10:34:29.281Z</time></trkpt><trkpt lat="38.1405317" lon="14.8913067"><ele>527.0</ele><time>2026-05-03T10:34:30.281Z</time></trkpt><trkpt lat="38.1406017" lon="14.8912717"><ele>527.0</ele><time>2026-05-03T10:34:31.281Z</time></trkpt><trkpt lat="38.1406867" lon="14.8912467"><ele>520.2</ele><time>2026-05-03T10:34:32.281Z</time></trkpt><trkpt lat="38.1407717" lon="14.891235"><ele>513.4000000000001</ele><time>2026-05-03T10:34:33.281Z</time></trkpt><trkpt lat="38.1408533" lon="14.8912033"><ele>506.59999999999997</ele><time>2026-05-03T10:34:34.281Z</time></trkpt><trkpt lat="38.1409183" lon="14.8911467"><ele>499.79999999999995</ele><time>2026-05-03T10:34:35.281Z</time></trkpt><trkpt lat="38.1409783" lon="14.891055"><ele>493.0</ele><time>2026-05-03T10:34:36.28Z</time></trkpt><trkpt lat="38.1410417" lon="14.8909333"><ele>498.59999999999997</ele><time>2026-05-03T10:34:37.281Z</time></trkpt><trkpt lat="38.1410983" lon="14.8908117"><ele>504.19999999999993</ele><time>2026-05-03T10:34:38.281Z</time></trkpt><trkpt lat="38.141145" lon="14.8906967"><ele>509.8</ele><time>2026-05-03T10:34:39.281Z</time></trkpt><trkpt lat="38.1411717" lon="14.8905883"><ele>515.4</ele><time>2026-05-03T10:34:40.281Z</time></trkpt><trkpt lat="38.14118" lon="14.8904583"><ele>521.0</ele><time>2026-05-03T10:34:41.281Z</time></trkpt><trkpt lat="38.1411867" lon="14.8903167"><ele>521.0</ele><time>2026-05-03T10:34:42.281Z</time></trkpt><trkpt lat="38.1412117" lon="14.8901567"><ele>521.0</ele><time>2026-05-03T10:34:43.281Z</time></trkpt><trkpt lat="38.1412467" lon="14.8899917"><ele>521.0</ele><time>2026-05-03T10:34:44.281Z</time></trkpt><trkpt lat="38.1412717" lon="14.889835"><ele>521.0</ele><time>2026-05-03T10:34:45.281Z</time></trkpt><trkpt lat="38.141295" lon="14.889705"><ele>522.4</ele><time>2026-05-03T10:34:46.281Z</time></trkpt><trkpt lat="38.1413267" lon="14.8895767"><ele>523.8</ele><time>2026-05-03T10:34:47.281Z</time></trkpt><trkpt lat="38.141365" lon="14.88946"><ele>525.1999999999999</ele><time>2026-05-03T10:34:48.281Z</time></trkpt><trkpt lat="38.1413983" lon="14.8893567"><ele>526.6</ele><time>2026-05-03T10:34:49.281Z</time></trkpt><trkpt lat="38.1414283" lon="14.8892417"><ele>528.0</ele><time>2026-05-03T10:34:50.281Z</time></trkpt><trkpt lat="38.1414383" lon="14.889105"><ele>528.0</ele><time>2026-05-03T10:34:51.281Z</time></trkpt><trkpt lat="38.1414583" lon="14.8889533"><ele>528.0</ele><time>2026-05-03T10:34:52.281Z</time></trkpt><trkpt lat="38.1414783" lon="14.8888067"><ele>528.0</ele><time>2026-05-03T10:34:53.281Z</time></trkpt><trkpt lat="38.1414967" lon="14.8886767"><ele>528.0</ele><time>2026-05-03T10:34:54.28Z</time></trkpt><trkpt lat="38.1415217" lon="14.8885567"><ele>528.0</ele><time>2026-05-03T10:34:55.281Z</time></trkpt><trkpt lat="38.141565" lon="14.8884467"><ele>524.1999999999999</ele><time>2026-05-03T10:34:56.281Z</time></trkpt><trkpt lat="38.1416233" lon="14.8883417"><ele>520.4</ele><time>2026-05-03T10:34:57.281Z</time></trkpt><trkpt lat="38.1416691" lon="14.8882383"><ele>516.5999999999999</ele><time>2026-05-03T10:34:58.281Z</time></trkpt><trkpt lat="38.141714" lon="14.8881363"><ele>512.8</ele><time>2026-05-03T10:34:59.281Z</time></trkpt><trkpt lat="38.1417556" lon="14.8880335"><ele>509.0</ele><time>2026-05-03T10:35:00.281Z</time></trkpt><trkpt lat="38.1418049" lon="14.8879366"><ele>508.99999999999994</ele><time>2026-05-03T10:35:01.281Z</time></trkpt><trkpt lat="38.1418572" lon="14.8878433"><ele>509.0</ele><time>2026-05-03T10:35:02.281Z</time></trkpt><trkpt lat="38.1419118" lon="14.887752"><ele>509.0</ele><time>2026-05-03T10:35:03.281Z</time></trkpt><trkpt lat="38.1419675" lon="14.887663"><ele>509.0</ele><time>2026-05-03T10:35:04.281Z</time></trkpt><trkpt lat="38.1420193" lon="14.8875758"><ele>508.99999999999994</ele><time>2026-05-03T10:35:05.281Z</time></trkpt><trkpt lat="38.1420753" lon="14.8874939"><ele>509.0</ele><time>2026-05-03T10:35:06.281Z</time></trkpt><trkpt lat="38.1421211" lon="14.8874206"><ele>507.99999999999994</ele><time>2026-05-03T10:35:07.281Z</time></trkpt><trkpt lat="38.1421686" lon="14.8873259"><ele>507.0</ele><time>2026-05-03T10:35:09.281Z</time></trkpt><trkpt lat="38.1422222" lon="14.88728"><ele>506.0</ele><time>2026-05-03T10:35:11.281Z</time></trkpt><trkpt lat="38.1423398" lon="14.8872631"><ele>505.0</ele><time>2026-05-03T10:35:13.281Z</time></trkpt><trkpt lat="38.1424195" lon="14.8872549"><ele>503.99999999999994</ele><time>2026-05-03T10:35:14.281Z</time></trkpt><trkpt lat="38.142506" lon="14.8872499"><ele>503.0</ele><time>2026-05-03T10:35:15.281Z</time></trkpt><trkpt lat="38.1426047" lon="14.8872469"><ele>501.59999999999997</ele><time>2026-05-03T10:35:16.281Z</time></trkpt><trkpt lat="38.1427081" lon="14.8872381"><ele>500.19999999999993</ele><time>2026-05-03T10:35:17.281Z</time></trkpt><trkpt lat="38.1428142" lon="14.8872219"><ele>498.8</ele><time>2026-05-03T10:35:18.281Z</time></trkpt><trkpt lat="38.1429166" lon="14.8871953"><ele>497.4</ele><time>2026-05-03T10:35:19.281Z</time></trkpt><trkpt lat="38.1430111" lon="14.8871677"><ele>496.0</ele><time>2026-05-03T10:35:20.281Z</time></trkpt><trkpt lat="38.1430995" lon="14.8871225"><ele>496.00000000000006</ele><time>2026-05-03T10:35:21.281Z</time></trkpt><trkpt lat="38.1431798" lon="14.8870654"><ele>496.0</ele><time>2026-05-03T10:35:22.281Z</time></trkpt><trkpt lat="38.1432512" lon="14.8870004"><ele>496.0</ele><time>2026-05-03T10:35:23.281Z</time></trkpt><trkpt lat="38.143318" lon="14.8869298"><ele>496.0</ele><time>2026-05-03T10:35:24.281Z</time></trkpt><trkpt lat="38.1433818" lon="14.8868577"><ele>496.00000000000006</ele><time>2026-05-03T10:35:25.281Z</time></trkpt><trkpt lat="38.1434426" lon="14.8867822"><ele>496.0</ele><time>2026-05-03T10:35:26.281Z</time></trkpt><trkpt lat="38.1434943" lon="14.8867022"><ele>492.83333333333337</ele><time>2026-05-03T10:35:27.281Z</time></trkpt><trkpt lat="38.1435486" lon="14.8866255"><ele>489.6666666666667</ele><time>2026-05-03T10:35:28.281Z</time></trkpt><trkpt lat="38.1436019" lon="14.8865533"><ele>486.5</ele><time>2026-05-03T10:35:29.281Z</time></trkpt><trkpt lat="38.1436563" lon="14.8864796"><ele>483.33333333333337</ele><time>2026-05-03T10:35:30.28Z</time></trkpt><trkpt lat="38.1437092" lon="14.8864009"><ele>480.1666666666667</ele><time>2026-05-03T10:35:31.281Z</time></trkpt><trkpt lat="38.1437587" lon="14.8863212"><ele>477.0</ele><time>2026-05-03T10:35:32.28Z</time></trkpt><trkpt lat="38.1438047" lon="14.8862492"><ele>477.0</ele><time>2026-05-03T10:35:33.281Z</time></trkpt><trkpt lat="38.1438552" lon="14.8861847"><ele>477.0</ele><time>2026-05-03T10:35:34.281Z</time></trkpt><trkpt lat="38.1439195" lon="14.8861377"><ele>477.0</ele><time>2026-05-03T10:35:35.281Z</time></trkpt><trkpt lat="38.1439994" lon="14.8861249"><ele>477.0</ele><time>2026-05-03T10:35:36.281Z</time></trkpt><trkpt lat="38.1440945" lon="14.8861276"><ele>477.0</ele><time>2026-05-03T10:35:37.281Z</time></trkpt><trkpt lat="38.1441929" lon="14.8861287"><ele>477.0</ele><time>2026-05-03T10:35:38.281Z</time></trkpt><trkpt lat="38.1442869" lon="14.8861168"><ele>476.0</ele><time>2026-05-03T10:35:39.281Z</time></trkpt><trkpt lat="38.1443686" lon="14.8860917"><ele>474.99999999999994</ele><time>2026-05-03T10:35:40.281Z</time></trkpt><trkpt lat="38.1444336" lon="14.8860615"><ele>474.0</ele><time>2026-05-03T10:35:41.281Z</time></trkpt><trkpt lat="38.1444948" lon="14.8860193"><ele>473.0</ele><time>2026-05-03T10:35:42.281Z</time></trkpt><trkpt lat="38.1445426" lon="14.8859581"><ele>471.99999999999994</ele><time>2026-05-03T10:35:43.281Z</time></trkpt><trkpt lat="38.1445776" lon="14.885882"><ele>471.0</ele><time>2026-05-03T10:35:44.281Z</time></trkpt><trkpt lat="38.1446104" lon="14.8858037"><ele>470.0</ele><time>2026-05-03T10:35:45.281Z</time></trkpt><trkpt lat="38.1446351" lon="14.8857285"><ele>470.0</ele><time>2026-05-03T10:35:46.281Z</time></trkpt><trkpt lat="38.1446483" lon="14.8856117"><ele>470.0</ele><time>2026-05-03T10:35:48.281Z</time></trkpt><trkpt lat="38.1446483" lon="14.885505"><ele>470.0</ele><time>2026-05-03T10:35:50.281Z</time></trkpt><trkpt lat="38.1446483" lon="14.8853783"><ele>470.0</ele><time>2026-05-03T10:35:52.28Z</time></trkpt><trkpt lat="38.1446383" lon="14.88525"><ele>470.0</ele><time>2026-05-03T10:35:54.281Z</time></trkpt><trkpt lat="38.1446533" lon="14.8851167"><ele>466.8333333333333</ele><time>2026-05-03T10:35:56.28Z</time></trkpt><trkpt lat="38.1446933" lon="14.8849617"><ele>463.66666666666663</ele><time>2026-05-03T10:35:58.281Z</time></trkpt><trkpt lat="38.1447083" lon="14.8848733"><ele>460.5</ele><time>2026-05-03T10:35:59.281Z</time></trkpt><trkpt lat="38.144725" lon="14.8847767"><ele>457.33333333333337</ele><time>2026-05-03T10:36:00.281Z</time></trkpt><trkpt lat="38.1447517" lon="14.88469"><ele>454.1666666666667</ele><time>2026-05-03T10:36:01.28Z</time></trkpt><trkpt lat="38.144785" lon="14.8845917"><ele>451.0</ele><time>2026-05-03T10:36:02.281Z</time></trkpt><trkpt lat="38.1448167" lon="14.8844983"><ele>451.00000000000006</ele><time>2026-05-03T10:36:03.281Z</time></trkpt><trkpt lat="38.14485" lon="14.88441"><ele>451.0</ele><time>2026-05-03T10:36:04.281Z</time></trkpt><trkpt lat="38.1448867" lon="14.8843083"><ele>451.0</ele><time>2026-05-03T10:36:05.281Z</time></trkpt><trkpt lat="38.1449383" lon="14.8842183"><ele>451.0</ele><time>2026-05-03T10:36:06.281Z</time></trkpt><trkpt lat="38.1449867" lon="14.88414"><ele>451.00000000000006</ele><time>2026-05-03T10:36:07.281Z</time></trkpt><trkpt lat="38.1450133" lon="14.884055"><ele>451.0</ele><time>2026-05-03T10:36:08.281Z</time></trkpt><trkpt lat="38.14502" lon="14.88396"><ele>452.00000000000006</ele><time>2026-05-03T10:36:09.281Z</time></trkpt><trkpt lat="38.1449967" lon="14.8838783"><ele>453.0</ele><time>2026-05-03T10:36:10.281Z</time></trkpt><trkpt lat="38.1449417" lon="14.883815"><ele>454.0</ele><time>2026-05-03T10:36:11.281Z</time></trkpt><trkpt lat="38.1448667" lon="14.8837883"><ele>455.0</ele><time>2026-05-03T10:36:12.281Z</time></trkpt><trkpt lat="38.1447883" lon="14.8838017"><ele>456.00000000000006</ele><time>2026-05-03T10:36:13.281Z</time></trkpt><trkpt lat="38.1447067" lon="14.8838583"><ele>457.0</ele><time>2026-05-03T10:36:14.281Z</time></trkpt><trkpt lat="38.14465" lon="14.88394"><ele>455.8</ele><time>2026-05-03T10:36:15.281Z</time></trkpt><trkpt lat="38.1446033" lon="14.8840367"><ele>454.6</ele><time>2026-05-03T10:36:16.28Z</time></trkpt><trkpt lat="38.14456" lon="14.8841433"><ele>453.40000000000003</ele><time>2026-05-03T10:36:17.281Z</time></trkpt><trkpt lat="38.1445267" lon="14.8842533"><ele>452.20000000000005</ele><time>2026-05-03T10:36:18.281Z</time></trkpt><trkpt lat="38.1444817" lon="14.884355"><ele>451.0</ele><time>2026-05-03T10:36:19.281Z</time></trkpt><trkpt lat="38.14443" lon="14.884445"><ele>451.0</ele><time>2026-05-03T10:36:20.281Z</time></trkpt><trkpt lat="38.1443567" lon="14.88453"><ele>451.0</ele><time>2026-05-03T10:36:21.281Z</time></trkpt><trkpt lat="38.1442817" lon="14.88461"><ele>451.0</ele><time>2026-05-03T10:36:22.281Z</time></trkpt><trkpt lat="38.1441983" lon="14.8846783"><ele>451.0</ele><time>2026-05-03T10:36:23.281Z</time></trkpt><trkpt lat="38.1441117" lon="14.8847517"><ele>451.0</ele><time>2026-05-03T10:36:24.281Z</time></trkpt><trkpt lat="38.144015" lon="14.88482"><ele>450.20000000000005</ele><time>2026-05-03T10:36:25.281Z</time></trkpt><trkpt lat="38.1439233" lon="14.8848983"><ele>449.40000000000003</ele><time>2026-05-03T10:36:26.281Z</time></trkpt><trkpt lat="38.1438333" lon="14.8849733"><ele>448.6</ele><time>2026-05-03T10:36:27.281Z</time></trkpt><trkpt lat="38.1437433" lon="14.8850483"><ele>447.8</ele><time>2026-05-03T10:36:28.281Z</time></trkpt><trkpt lat="38.1436583" lon="14.8851133"><ele>447.0</ele><time>2026-05-03T10:36:29.281Z</time></trkpt><trkpt lat="38.1435917" lon="14.8851733"><ele>447.0</ele><time>2026-05-03T10:36:30.281Z</time></trkpt><trkpt lat="38.14353" lon="14.88522"><ele>447.00000000000006</ele><time>2026-05-03T10:36:31.281Z</time></trkpt><trkpt lat="38.1434267" lon="14.8852367"><ele>447.00000000000006</ele><time>2026-05-03T10:36:33.281Z</time></trkpt><trkpt lat="38.1433883" lon="14.8851533"><ele>447.0</ele><time>2026-05-03T10:36:35.281Z</time></trkpt><trkpt lat="38.14345" lon="14.8850283"><ele>447.0</ele><time>2026-05-03T10:36:37.281Z</time></trkpt><trkpt lat="38.143515" lon="14.8849517"><ele>441.8</ele><time>2026-05-03T10:36:38.281Z</time></trkpt><trkpt lat="38.1435917" lon="14.88487"><ele>436.6</ele><time>2026-05-03T10:36:39.281Z</time></trkpt><trkpt lat="38.14367" lon="14.884785"><ele>431.40000000000003</ele><time>2026-05-03T10:36:40.281Z</time></trkpt><trkpt lat="38.1437383" lon="14.8847017"><ele>426.20000000000005</ele><time>2026-05-03T10:36:41.281Z</time></trkpt><trkpt lat="38.1438133" lon="14.884625"><ele>421.0</ele><time>2026-05-03T10:36:42.281Z</time></trkpt><trkpt lat="38.1438717" lon="14.8845267"><ele>421.0</ele><time>2026-05-03T10:36:43.281Z</time></trkpt><trkpt lat="38.143915" lon="14.884415"><ele>421.0</ele><time>2026-05-03T10:36:44.281Z</time></trkpt><trkpt lat="38.1439467" lon="14.8842883"><ele>421.0</ele><time>2026-05-03T10:36:45.28Z</time></trkpt><trkpt lat="38.1439667" lon="14.8841667"><ele>421.0</ele><time>2026-05-03T10:36:46.281Z</time></trkpt><trkpt lat="38.14398" lon="14.8840717"><ele>421.0</ele><time>2026-05-03T10:36:47.28Z</time></trkpt><trkpt lat="38.1439933" lon="14.8839583"><ele>421.00000000000006</ele><time>2026-05-03T10:36:48.281Z</time></trkpt><trkpt lat="38.1440117" lon="14.8838367"><ele>421.0</ele><time>2026-05-03T10:36:49.281Z</time></trkpt><trkpt lat="38.1440267" lon="14.8837083"><ele>421.0</ele><time>2026-05-03T10:36:50.281Z</time></trkpt><trkpt lat="38.144035" lon="14.8835917"><ele>421.0</ele><time>2026-05-03T10:36:51.281Z</time></trkpt><trkpt lat="38.14405" lon="14.8834933"><ele>421.00000000000006</ele><time>2026-05-03T10:36:52.281Z</time></trkpt><trkpt lat="38.14407" lon="14.883405"><ele>421.0</ele><time>2026-05-03T10:36:53.281Z</time></trkpt><trkpt lat="38.144085" lon="14.8833183"><ele>421.00000000000006</ele><time>2026-05-03T10:36:54.281Z</time></trkpt><trkpt lat="38.1440983" lon="14.88323"><ele>421.0</ele><time>2026-05-03T10:36:55.281Z</time></trkpt><trkpt lat="38.1441133" lon="14.8831367"><ele>421.0</ele><time>2026-05-03T10:36:56.281Z</time></trkpt><trkpt lat="38.1441267" lon="14.883045"><ele>421.0</ele><time>2026-05-03T10:36:57.281Z</time></trkpt><trkpt lat="38.144145" lon="14.8829567"><ele>421.0</ele><time>2026-05-03T10:36:58.28Z</time></trkpt><trkpt lat="38.1441667" lon="14.88287"><ele>421.00000000000006</ele><time>2026-05-03T10:36:59.28Z</time></trkpt><trkpt lat="38.144195" lon="14.8827833"><ele>421.0</ele><time>2026-05-03T10:37:00.281Z</time></trkpt><trkpt lat="38.144225" lon="14.882705"><ele>421.00000000000006</ele><time>2026-05-03T10:37:01.281Z</time></trkpt><trkpt lat="38.1442633" lon="14.88263"><ele>421.0</ele><time>2026-05-03T10:37:02.28Z</time></trkpt><trkpt lat="38.1443083" lon="14.88256"><ele>421.0</ele><time>2026-05-03T10:37:03.28Z</time></trkpt><trkpt lat="38.144355" lon="14.8824883"><ele>421.0</ele><time>2026-05-03T10:37:04.281Z</time></trkpt><trkpt lat="38.1444567" lon="14.8823917"><ele>421.00000000000006</ele><time>2026-05-03T10:37:06.281Z</time></trkpt><trkpt lat="38.1445133" lon="14.8823533"><ele>421.0</ele><time>2026-05-03T10:37:07.281Z</time></trkpt><trkpt lat="38.14458" lon="14.88232"><ele>418.50000000000006</ele><time>2026-05-03T10:37:08.281Z</time></trkpt><trkpt lat="38.14465" lon="14.8823017"><ele>416.0</ele><time>2026-05-03T10:37:09.281Z</time></trkpt><trkpt lat="38.14473" lon="14.8822933"><ele>413.5</ele><time>2026-05-03T10:37:10.281Z</time></trkpt><trkpt lat="38.1448133" lon="14.8823133"><ele>411.0</ele><time>2026-05-03T10:37:11.282Z</time></trkpt><trkpt lat="38.14489" lon="14.882365"><ele>408.50000000000006</ele><time>2026-05-03T10:37:12.282Z</time></trkpt><trkpt lat="38.1449683" lon="14.8824483"><ele>406.0</ele><time>2026-05-03T10:37:13.282Z</time></trkpt><trkpt lat="38.1450467" lon="14.882545"><ele>411.00000000000006</ele><time>2026-05-03T10:37:14.282Z</time></trkpt><trkpt lat="38.14512" lon="14.882635"><ele>416.0</ele><time>2026-05-03T10:37:15.282Z</time></trkpt><trkpt lat="38.1451767" lon="14.882715"><ele>421.0</ele><time>2026-05-03T10:37:16.282Z</time></trkpt><trkpt lat="38.145225" lon="14.8827883"><ele>426.0</ele><time>2026-05-03T10:37:17.282Z</time></trkpt><trkpt lat="38.1452767" lon="14.8828417"><ele>431.00000000000006</ele><time>2026-05-03T10:37:18.281Z</time></trkpt><trkpt lat="38.145385" lon="14.8828567"><ele>436.0</ele><time>2026-05-03T10:37:20.282Z</time></trkpt><trkpt lat="38.1454267" lon="14.8827783"><ele>436.00000000000006</ele><time>2026-05-03T10:37:21.282Z</time></trkpt><trkpt lat="38.145415" lon="14.8826583"><ele>436.0</ele><time>2026-05-03T10:37:22.282Z</time></trkpt><trkpt lat="38.1453683" lon="14.8825483"><ele>436.0</ele><time>2026-05-03T10:37:23.282Z</time></trkpt><trkpt lat="38.1453117" lon="14.88246"><ele>436.0</ele><time>2026-05-03T10:37:24.282Z</time></trkpt><trkpt lat="38.145265" lon="14.8823783"><ele>436.00000000000006</ele><time>2026-05-03T10:37:25.282Z</time></trkpt><trkpt lat="38.145215" lon="14.8822933"><ele>436.0</ele><time>2026-05-03T10:37:26.282Z</time></trkpt><trkpt lat="38.145175" lon="14.8821967"><ele>430.0</ele><time>2026-05-03T10:37:27.282Z</time></trkpt><trkpt lat="38.1451333" lon="14.8820883"><ele>424.0</ele><time>2026-05-03T10:37:28.282Z</time></trkpt><trkpt lat="38.1450917" lon="14.881975"><ele>418.0</ele><time>2026-05-03T10:37:29.282Z</time></trkpt><trkpt lat="38.14505" lon="14.8818617"><ele>412.0</ele><time>2026-05-03T10:37:30.282Z</time></trkpt><trkpt lat="38.1449983" lon="14.88175"><ele>406.0</ele><time>2026-05-03T10:37:31.282Z</time></trkpt><trkpt lat="38.1449517" lon="14.8816267"><ele>400.8</ele><time>2026-05-03T10:37:32.282Z</time></trkpt><trkpt lat="38.1449133" lon="14.88151"><ele>395.6</ele><time>2026-05-03T10:37:33.282Z</time></trkpt><trkpt lat="38.144865" lon="14.8813917"><ele>390.4</ele><time>2026-05-03T10:37:34.282Z</time></trkpt><trkpt lat="38.1448017" lon="14.881295"><ele>385.2</ele><time>2026-05-03T10:37:35.281Z</time></trkpt><trkpt lat="38.14472" lon="14.8812333"><ele>380.0</ele><time>2026-05-03T10:37:36.282Z</time></trkpt><trkpt lat="38.1446217" lon="14.8812017"><ele>379.0</ele><time>2026-05-03T10:37:37.282Z</time></trkpt><trkpt lat="38.1445133" lon="14.8811967"><ele>378.0</ele><time>2026-05-03T10:37:38.282Z</time></trkpt><trkpt lat="38.1444067" lon="14.881205"><ele>377.0</ele><time>2026-05-03T10:37:39.282Z</time></trkpt><trkpt lat="38.1443067" lon="14.881215"><ele>376.0</ele><time>2026-05-03T10:37:40.282Z</time></trkpt><trkpt lat="38.1442083" lon="14.8812233"><ele>375.0</ele><time>2026-05-03T10:37:41.282Z</time></trkpt><trkpt lat="38.1441033" lon="14.8812267"><ele>368.2</ele><time>2026-05-03T10:37:42.282Z</time></trkpt><trkpt lat="38.1439983" lon="14.8812167"><ele>361.4</ele><time>2026-05-03T10:37:43.282Z</time></trkpt><trkpt lat="38.1438933" lon="14.881195"><ele>354.6</ele><time>2026-05-03T10:37:44.282Z</time></trkpt><trkpt lat="38.143795" lon="14.8811433"><ele>347.8</ele><time>2026-05-03T10:37:45.281Z</time></trkpt><trkpt lat="38.1437" lon="14.8810717"><ele>341.0</ele><time>2026-05-03T10:37:46.282Z</time></trkpt><trkpt lat="38.1436267" lon="14.881"><ele>342.20000000000005</ele><time>2026-05-03T10:37:47.282Z</time></trkpt><trkpt lat="38.1435483" lon="14.8809267"><ele>343.40000000000003</ele><time>2026-05-03T10:37:48.282Z</time></trkpt><trkpt lat="38.1434717" lon="14.8808583"><ele>344.6</ele><time>2026-05-03T10:37:49.281Z</time></trkpt><trkpt lat="38.1434033" lon="14.8808"><ele>345.8</ele><time>2026-05-03T10:37:50.282Z</time></trkpt><trkpt lat="38.14333" lon="14.8807317"><ele>347.0</ele><time>2026-05-03T10:37:51.282Z</time></trkpt><trkpt lat="38.1432467" lon="14.8806617"><ele>340.20000000000005</ele><time>2026-05-03T10:37:52.282Z</time></trkpt><trkpt lat="38.1431733" lon="14.8805917"><ele>333.40000000000003</ele><time>2026-05-03T10:37:53.282Z</time></trkpt><trkpt lat="38.14309" lon="14.880515"><ele>326.6</ele><time>2026-05-03T10:37:54.282Z</time></trkpt><trkpt lat="38.142995" lon="14.8804383"><ele>319.8</ele><time>2026-05-03T10:37:55.282Z</time></trkpt><trkpt lat="38.1429083" lon="14.8803617"><ele>313.0</ele><time>2026-05-03T10:37:56.282Z</time></trkpt><trkpt lat="38.1428183" lon="14.880275"><ele>313.0</ele><time>2026-05-03T10:37:57.282Z</time></trkpt><trkpt lat="38.14273" lon="14.8801867"><ele>313.0</ele><time>2026-05-03T10:37:58.282Z</time></trkpt><trkpt lat="38.1426433" lon="14.8801083"><ele>313.0</ele><time>2026-05-03T10:37:59.282Z</time></trkpt><trkpt lat="38.1425667" lon="14.8800267"><ele>313.0</ele><time>2026-05-03T10:38:00.282Z</time></trkpt><trkpt lat="38.14251" lon="14.8799383"><ele>313.0</ele><time>2026-05-03T10:38:01.282Z</time></trkpt><trkpt lat="38.1424683" lon="14.8798317"><ele>315.5</ele><time>2026-05-03T10:38:02.282Z</time></trkpt><trkpt lat="38.14244" lon="14.87972"><ele>318.0</ele><time>2026-05-03T10:38:03.282Z</time></trkpt><trkpt lat="38.1424217" lon="14.8796"><ele>320.5</ele><time>2026-05-03T10:38:04.282Z</time></trkpt><trkpt lat="38.1424133" lon="14.879475"><ele>323.0</ele><time>2026-05-03T10:38:05.282Z</time></trkpt><trkpt lat="38.1424083" lon="14.879365"><ele>325.5</ele><time>2026-05-03T10:38:06.282Z</time></trkpt><trkpt lat="38.142405" lon="14.8792733"><ele>328.0</ele><time>2026-05-03T10:38:07.282Z</time></trkpt><trkpt lat="38.1424117" lon="14.8791933"><ele>328.0</ele><time>2026-05-03T10:38:08.282Z</time></trkpt><trkpt lat="38.1424717" lon="14.8790583"><ele>328.0</ele><time>2026-05-03T10:38:10.282Z</time></trkpt><trkpt lat="38.1425683" lon="14.8789983"><ele>328.0</ele><time>2026-05-03T10:38:12.282Z</time></trkpt><trkpt lat="38.1426317" lon="14.8789933"><ele>328.0</ele><time>2026-05-03T10:38:13.282Z</time></trkpt><trkpt lat="38.1426983" lon="14.879015"><ele>328.0</ele><time>2026-05-03T10:38:14.282Z</time></trkpt><trkpt lat="38.1427683" lon="14.8790583"><ele>328.0</ele><time>2026-05-03T10:38:15.282Z</time></trkpt><trkpt lat="38.1428433" lon="14.8791133"><ele>328.0</ele><time>2026-05-03T10:38:16.282Z</time></trkpt><trkpt lat="38.142925" lon="14.8791333"><ele>328.0</ele><time>2026-05-03T10:38:17.282Z</time></trkpt><trkpt lat="38.143005" lon="14.8791283"><ele>328.0</ele><time>2026-05-03T10:38:18.282Z</time></trkpt><trkpt lat="38.14307" lon="14.8790967"><ele>328.0</ele><time>2026-05-03T10:38:19.282Z</time></trkpt><trkpt lat="38.1431267" lon="14.879045"><ele>328.0</ele><time>2026-05-03T10:38:20.282Z</time></trkpt><trkpt lat="38.14314" lon="14.8789333"><ele>328.0</ele><time>2026-05-03T10:38:21.282Z</time></trkpt><trkpt lat="38.1431167" lon="14.8788083"><ele>328.0</ele><time>2026-05-03T10:38:22.282Z</time></trkpt><trkpt lat="38.14302" lon="14.8786917"><ele>328.0</ele><time>2026-05-03T10:38:23.282Z</time></trkpt><trkpt lat="38.1429283" lon="14.8786033"><ele>328.0</ele><time>2026-05-03T10:38:24.282Z</time></trkpt><trkpt lat="38.1428333" lon="14.8785317"><ele>328.0</ele><time>2026-05-03T10:38:25.282Z</time></trkpt><trkpt lat="38.142745" lon="14.8784583"><ele>325.0</ele><time>2026-05-03T10:38:26.282Z</time></trkpt><trkpt lat="38.1426667" lon="14.8783933"><ele>322.0</ele><time>2026-05-03T10:38:27.282Z</time></trkpt><trkpt lat="38.1425917" lon="14.8783283"><ele>319.0</ele><time>2026-05-03T10:38:28.282Z</time></trkpt><trkpt lat="38.1425167" lon="14.8782667"><ele>316.0</ele><time>2026-05-03T10:38:29.282Z</time></trkpt><trkpt lat="38.1424417" lon="14.8782083"><ele>313.0</ele><time>2026-05-03T10:38:30.282Z</time></trkpt><trkpt lat="38.142365" lon="14.87815"><ele>312.1428571428571</ele><time>2026-05-03T10:38:31.282Z</time></trkpt><trkpt lat="38.1422967" lon="14.8780983"><ele>311.2857142857143</ele><time>2026-05-03T10:38:32.282Z</time></trkpt><trkpt lat="38.1422267" lon="14.8780567"><ele>310.42857142857144</ele><time>2026-05-03T10:38:33.282Z</time></trkpt><trkpt lat="38.1421567" lon="14.8780267"><ele>309.57142857142856</ele><time>2026-05-03T10:38:34.282Z</time></trkpt><trkpt lat="38.142095" lon="14.878"><ele>308.7142857142857</ele><time>2026-05-03T10:38:35.282Z</time></trkpt><trkpt lat="38.1420333" lon="14.87798"><ele>307.85714285714283</ele><time>2026-05-03T10:38:36.282Z</time></trkpt><trkpt lat="38.1419667" lon="14.87796"><ele>307.0</ele><time>2026-05-03T10:38:37.282Z</time></trkpt><trkpt lat="38.1419033" lon="14.8779367"><ele>307.0</ele><time>2026-05-03T10:38:38.282Z</time></trkpt><trkpt lat="38.1418383" lon="14.877915"><ele>307.0</ele><time>2026-05-03T10:38:39.282Z</time></trkpt><trkpt lat="38.1417283" lon="14.87788"><ele>307.0</ele><time>2026-05-03T10:38:41.282Z</time></trkpt><trkpt lat="38.1416067" lon="14.8778433"><ele>307.0</ele><time>2026-05-03T10:38:43.282Z</time></trkpt><trkpt lat="38.1414817" lon="14.87781"><ele>307.0</ele><time>2026-05-03T10:38:45.282Z</time></trkpt><trkpt lat="38.14137" lon="14.8777983"><ele>303.66666666666663</ele><time>2026-05-03T10:38:47.282Z</time></trkpt><trkpt lat="38.1412817" lon="14.8778183"><ele>300.3333333333333</ele><time>2026-05-03T10:38:49.282Z</time></trkpt><trkpt lat="38.141205" lon="14.877875"><ele>297.0</ele><time>2026-05-03T10:38:51.282Z</time></trkpt><trkpt lat="38.1411333" lon="14.877935"><ele>293.6666666666667</ele><time>2026-05-03T10:38:53.282Z</time></trkpt><trkpt lat="38.1410583" lon="14.877985"><ele>290.33333333333337</ele><time>2026-05-03T10:38:56.282Z</time></trkpt><trkpt lat="38.1410017" lon="14.87803"><ele>287.0</ele><time>2026-05-03T10:38:58.282Z</time></trkpt><trkpt lat="38.140945" lon="14.878085"><ele>287.0</ele><time>2026-05-03T10:39:00.282Z</time></trkpt><trkpt lat="38.1409433" lon="14.8779817"><ele>287.0</ele><time>2026-05-03T10:39:07.282Z</time></trkpt><trkpt lat="38.140985" lon="14.8779"><ele>287.0</ele><time>2026-05-03T10:39:11.282Z</time></trkpt><trkpt lat="38.1410267" lon="14.8778133"><ele>287.0</ele><time>2026-05-03T10:39:14.282Z</time></trkpt><trkpt lat="38.14106" lon="14.8777383"><ele>287.0</ele><time>2026-05-03T10:39:17.282Z</time></trkpt><trkpt lat="38.1411" lon="14.8776667"><ele>287.0</ele><time>2026-05-03T10:39:21.282Z</time></trkpt><trkpt lat="38.141195" lon="14.8776567"><ele>287.0</ele><time>2026-05-03T10:39:24.282Z</time></trkpt><trkpt lat="38.1412583" lon="14.8776233"><ele>287.0</ele><time>2026-05-03T10:39:36.282Z</time></trkpt><trkpt lat="38.14132" lon="14.8776033"><ele>287.0</ele><time>2026-05-03T10:39:40.282Z</time></trkpt><trkpt lat="38.14137" lon="14.87749"><ele>287.0</ele><time>2026-05-03T10:40:06.282Z</time></trkpt><trkpt lat="38.1414126" lon="14.8774271"><ele>287.0</ele><time>2026-05-03T10:40:12.282Z</time></trkpt><trkpt lat="38.1414673" lon="14.8773668"><ele>287.0</ele><time>2026-05-03T10:40:17.282Z</time></trkpt><trkpt lat="38.1414848" lon="14.8772699"><ele>288.14285714285717</ele><time>2026-05-03T10:40:31.282Z</time></trkpt><trkpt lat="38.1415092" lon="14.8771888"><ele>289.2857142857143</ele><time>2026-05-03T10:40:35.281Z</time></trkpt><trkpt lat="38.1415295" lon="14.8771093"><ele>290.42857142857144</ele><time>2026-05-03T10:40:39.282Z</time></trkpt><trkpt lat="38.1415524" lon="14.877025"><ele>291.57142857142856</ele><time>2026-05-03T10:40:43.282Z</time></trkpt><trkpt lat="38.1415393" lon="14.8769381"><ele>292.7142857142857</ele><time>2026-05-03T10:40:47.282Z</time></trkpt><trkpt lat="38.1415356" lon="14.8768336"><ele>293.8571428571429</ele><time>2026-05-03T10:40:50.282Z</time></trkpt><trkpt lat="38.1415439" lon="14.8767196"><ele>295.0</ele><time>2026-05-03T10:40:53.282Z</time></trkpt><trkpt lat="38.1414651" lon="14.8767127"><ele>289.42857142857144</ele><time>2026-05-03T10:41:05.282Z</time></trkpt><trkpt lat="38.1413757" lon="14.8767206"><ele>283.8571428571429</ele><time>2026-05-03T10:41:12.282Z</time></trkpt><trkpt lat="38.141308" lon="14.8767176"><ele>278.2857142857143</ele><time>2026-05-03T10:41:17.282Z</time></trkpt><trkpt lat="38.1412518" lon="14.8766757"><ele>272.7142857142857</ele><time>2026-05-03T10:41:52.282Z</time></trkpt><trkpt lat="38.1412112" lon="14.8766076"><ele>267.1428571428571</ele><time>2026-05-03T10:42:00.281Z</time></trkpt><trkpt lat="38.1411348" lon="14.8766272"><ele>261.57142857142856</ele><time>2026-05-03T10:42:03.281Z</time></trkpt><trkpt lat="38.1410751" lon="14.8765979"><ele>256.0</ele><time>2026-05-03T10:42:06.282Z</time></trkpt><trkpt lat="38.1410403" lon="14.8765253"><ele>255.99999999999997</ele><time>2026-05-03T10:42:10.282Z</time></trkpt><trkpt lat="38.1411032" lon="14.8764811"><ele>256.0</ele><time>2026-05-03T10:42:17.281Z</time></trkpt><trkpt lat="38.1411665" lon="14.8764726"><ele>256.0</ele><time>2026-05-03T10:42:19.282Z</time></trkpt><trkpt lat="38.1412304" lon="14.8764685"><ele>256.0</ele><time>2026-05-03T10:42:21.282Z</time></trkpt><trkpt lat="38.1412977" lon="14.8764408"><ele>255.99999999999997</ele><time>2026-05-03T10:42:23.282Z</time></trkpt><trkpt lat="38.1413787" lon="14.8764122"><ele>256.0</ele><time>2026-05-03T10:42:25.282Z</time></trkpt><trkpt lat="38.141287" lon="14.8763753"><ele>255.99999999999997</ele><time>2026-05-03T10:42:31.282Z</time></trkpt><trkpt lat="38.1412114" lon="14.8763757"><ele>256.0</ele><time>2026-05-03T10:42:32.282Z</time></trkpt><trkpt lat="38.1411179" lon="14.8763692"><ele>256.0</ele><time>2026-05-03T10:42:33.282Z</time></trkpt><trkpt lat="38.1410349" lon="14.8763624"><ele>256.0</ele><time>2026-05-03T10:42:34.282Z</time></trkpt><trkpt lat="38.1409717" lon="14.8763537"><ele>255.99999999999997</ele><time>2026-05-03T10:42:35.282Z</time></trkpt><trkpt lat="38.1409063" lon="14.8762836"><ele>256.0</ele><time>2026-05-03T10:42:37.282Z</time></trkpt><trkpt lat="38.1409416" lon="14.8761865"><ele>255.99999999999997</ele><time>2026-05-03T10:42:39.282Z</time></trkpt><trkpt lat="38.1410573" lon="14.8761817"><ele>256.0</ele><time>2026-05-03T10:42:41.282Z</time></trkpt><trkpt lat="38.1411345" lon="14.8761941"><ele>256.0</ele><time>2026-05-03T10:42:42.282Z</time></trkpt><trkpt lat="38.1412112" lon="14.8761862"><ele>256.0</ele><time>2026-05-03T10:42:43.282Z</time></trkpt><trkpt lat="38.1412788" lon="14.8761632"><ele>255.99999999999997</ele><time>2026-05-03T10:42:44.282Z</time></trkpt><trkpt lat="38.1413382" lon="14.8761164"><ele>256.0</ele><time>2026-05-03T10:42:45.282Z</time></trkpt><trkpt lat="38.1413861" lon="14.876057"><ele>256.0</ele><time>2026-05-03T10:42:46.281Z</time></trkpt><trkpt lat="38.141498" lon="14.8759636"><ele>256.0</ele><time>2026-05-03T10:42:48.282Z</time></trkpt><trkpt lat="38.1415818" lon="14.8759222"><ele>256.0</ele><time>2026-05-03T10:42:49.282Z</time></trkpt><trkpt lat="38.1416687" lon="14.8758924"><ele>256.0</ele><time>2026-05-03T10:42:50.282Z</time></trkpt><trkpt lat="38.14175" lon="14.8758754"><ele>256.0</ele><time>2026-05-03T10:42:51.282Z</time></trkpt><trkpt lat="38.1418328" lon="14.8758793"><ele>258.66666666666663</ele><time>2026-05-03T10:42:52.282Z</time></trkpt><trkpt lat="38.1419179" lon="14.8758993"><ele>261.3333333333333</ele><time>2026-05-03T10:42:53.282Z</time></trkpt><trkpt lat="38.1420008" lon="14.8759278"><ele>264.0</ele><time>2026-05-03T10:42:54.282Z</time></trkpt><trkpt lat="38.1420788" lon="14.8759471"><ele>266.6666666666667</ele><time>2026-05-03T10:42:55.282Z</time></trkpt><trkpt lat="38.1421517" lon="14.8759486"><ele>269.33333333333337</ele><time>2026-05-03T10:42:56.282Z</time></trkpt><trkpt lat="38.142214" lon="14.8759271"><ele>272.0</ele><time>2026-05-03T10:42:57.282Z</time></trkpt><trkpt lat="38.1422721" lon="14.8758727"><ele>267.6</ele><time>2026-05-03T10:42:58.282Z</time></trkpt><trkpt lat="38.1423291" lon="14.8757865"><ele>263.2</ele><time>2026-05-03T10:42:59.282Z</time></trkpt><trkpt lat="38.1423868" lon="14.8756659"><ele>258.8</ele><time>2026-05-03T10:43:00.282Z</time></trkpt><trkpt lat="38.1424643" lon="14.8755532"><ele>254.4</ele><time>2026-05-03T10:43:01.282Z</time></trkpt><trkpt lat="38.1425659" lon="14.8754612"><ele>250.0</ele><time>2026-05-03T10:43:02.282Z</time></trkpt><trkpt lat="38.1426861" lon="14.8753857"><ele>250.0</ele><time>2026-05-03T10:43:03.282Z</time></trkpt><trkpt lat="38.1428123" lon="14.8753125"><ele>250.0</ele><time>2026-05-03T10:43:04.281Z</time></trkpt><trkpt lat="38.1429323" lon="14.8752443"><ele>250.0</ele><time>2026-05-03T10:43:05.282Z</time></trkpt><trkpt lat="38.1430307" lon="14.8751895"><ele>250.0</ele><time>2026-05-03T10:43:06.282Z</time></trkpt><trkpt lat="38.1431193" lon="14.8751615"><ele>249.99999999999997</ele><time>2026-05-03T10:43:07.282Z</time></trkpt><trkpt lat="38.1432001" lon="14.8751568"><ele>250.0</ele><time>2026-05-03T10:43:08.282Z</time></trkpt><trkpt lat="38.1432755" lon="14.8751662"><ele>250.0</ele><time>2026-05-03T10:43:09.282Z</time></trkpt><trkpt lat="38.1433419" lon="14.8752038"><ele>250.0</ele><time>2026-05-03T10:43:10.282Z</time></trkpt><trkpt lat="38.1434049" lon="14.8752798"><ele>249.99999999999997</ele><time>2026-05-03T10:43:11.282Z</time></trkpt><trkpt lat="38.1434623" lon="14.8753834"><ele>250.0</ele><time>2026-05-03T10:43:12.282Z</time></trkpt><trkpt lat="38.1435121" lon="14.875511"><ele>249.8</ele><time>2026-05-03T10:43:13.282Z</time></trkpt><trkpt lat="38.1435536" lon="14.8756388"><ele>249.6</ele><time>2026-05-03T10:43:14.282Z</time></trkpt><trkpt lat="38.1435876" lon="14.8757585"><ele>249.39999999999998</ele><time>2026-05-03T10:43:15.282Z</time></trkpt><trkpt lat="38.1436264" lon="14.8758712"><ele>249.2</ele><time>2026-05-03T10:43:16.281Z</time></trkpt><trkpt lat="38.143667" lon="14.8759875"><ele>249.0</ele><time>2026-05-03T10:43:17.282Z</time></trkpt><trkpt lat="38.1437084" lon="14.8760941"><ele>252.16666666666666</ele><time>2026-05-03T10:43:18.282Z</time></trkpt><trkpt lat="38.1437483" lon="14.8761958"><ele>255.33333333333331</ele><time>2026-05-03T10:43:19.281Z</time></trkpt><trkpt lat="38.143791" lon="14.876294"><ele>258.5</ele><time>2026-05-03T10:43:20.282Z</time></trkpt><trkpt lat="38.1438407" lon="14.8763803"><ele>261.66666666666663</ele><time>2026-05-03T10:43:21.283Z</time></trkpt><trkpt lat="38.1438921" lon="14.8764584"><ele>264.8333333333333</ele><time>2026-05-03T10:43:22.283Z</time></trkpt><trkpt lat="38.1439355" lon="14.8765461"><ele>268.0</ele><time>2026-05-03T10:43:23.283Z</time></trkpt><trkpt lat="38.143966" lon="14.8766345"><ele>268.0</ele><time>2026-05-03T10:43:24.283Z</time></trkpt><trkpt lat="38.1439838" lon="14.8767239"><ele>268.0</ele><time>2026-05-03T10:43:25.283Z</time></trkpt><trkpt lat="38.1439969" lon="14.8768289"><ele>268.0</ele><time>2026-05-03T10:43:26.283Z</time></trkpt><trkpt lat="38.1440106" lon="14.8769484"><ele>268.0</ele><time>2026-05-03T10:43:27.283Z</time></trkpt><trkpt lat="38.1440252" lon="14.8770782"><ele>268.0</ele><time>2026-05-03T10:43:28.283Z</time></trkpt><trkpt lat="38.144044" lon="14.877206"><ele>266.6</ele><time>2026-05-03T10:43:29.282Z</time></trkpt><trkpt lat="38.1440696" lon="14.8773134"><ele>265.20000000000005</ele><time>2026-05-03T10:43:30.283Z</time></trkpt><trkpt lat="38.1441169" lon="14.8774155"><ele>263.8</ele><time>2026-05-03T10:43:31.283Z</time></trkpt><trkpt lat="38.1441842" lon="14.8775157"><ele>262.40000000000003</ele><time>2026-05-03T10:43:32.283Z</time></trkpt><trkpt lat="38.1442548" lon="14.8776326"><ele>261.0</ele><time>2026-05-03T10:43:33.283Z</time></trkpt><trkpt lat="38.1443159" lon="14.8777617"><ele>261.0</ele><time>2026-05-03T10:43:34.283Z</time></trkpt><trkpt lat="38.1443764" lon="14.8778486"><ele>261.0</ele><time>2026-05-03T10:43:35.283Z</time></trkpt><trkpt lat="38.1444354" lon="14.8779094"><ele>261.0</ele><time>2026-05-03T10:43:36.282Z</time></trkpt><trkpt lat="38.1445001" lon="14.87794"><ele>261.0</ele><time>2026-05-03T10:43:37.283Z</time></trkpt><trkpt lat="38.1445699" lon="14.877946"><ele>261.0</ele><time>2026-05-03T10:43:38.283Z</time></trkpt><trkpt lat="38.1446766" lon="14.8779964"><ele>261.0</ele><time>2026-05-03T10:43:40.283Z</time></trkpt><trkpt lat="38.1447245" lon="14.8780623"><ele>261.0</ele><time>2026-05-03T10:43:41.283Z</time></trkpt><trkpt lat="38.1447774" lon="14.878123"><ele>261.0</ele><time>2026-05-03T10:43:42.283Z</time></trkpt><trkpt lat="38.1448355" lon="14.8781631"><ele>261.0</ele><time>2026-05-03T10:43:43.283Z</time></trkpt><trkpt lat="38.1449514" lon="14.8781811"><ele>261.0</ele><time>2026-05-03T10:43:45.283Z</time></trkpt><trkpt lat="38.1450044" lon="14.8781228"><ele>261.0</ele><time>2026-05-03T10:43:46.283Z</time></trkpt><trkpt lat="38.1450525" lon="14.8780233"><ele>261.0</ele><time>2026-05-03T10:43:47.283Z</time></trkpt><trkpt lat="38.1450832" lon="14.8778767"><ele>260.25</ele><time>2026-05-03T10:43:48.283Z</time></trkpt><trkpt lat="38.1450768" lon="14.8776897"><ele>259.5</ele><time>2026-05-03T10:43:49.282Z</time></trkpt><trkpt lat="38.1450478" lon="14.8774924"><ele>258.75</ele><time>2026-05-03T10:43:50.283Z</time></trkpt><trkpt lat="38.1450251" lon="14.877325"><ele>258.0</ele><time>2026-05-03T10:43:51.283Z</time></trkpt><trkpt lat="38.145016" lon="14.8772035"><ele>255.1428571428571</ele><time>2026-05-03T10:43:52.283Z</time></trkpt><trkpt lat="38.1450209" lon="14.8771113"><ele>252.28571428571428</ele><time>2026-05-03T10:43:53.282Z</time></trkpt><trkpt lat="38.1450298" lon="14.8770275"><ele>249.42857142857142</ele><time>2026-05-03T10:43:54.283Z</time></trkpt><trkpt lat="38.14503" lon="14.8769424"><ele>246.57142857142856</ele><time>2026-05-03T10:43:55.283Z</time></trkpt><trkpt lat="38.1450328" lon="14.8768486"><ele>243.71428571428572</ele><time>2026-05-03T10:43:56.283Z</time></trkpt><trkpt lat="38.145044" lon="14.8767567"><ele>240.85714285714286</ele><time>2026-05-03T10:43:57.282Z</time></trkpt><trkpt lat="38.1450555" lon="14.8766579"><ele>238.0</ele><time>2026-05-03T10:43:58.283Z</time></trkpt><trkpt lat="38.1450628" lon="14.8765522"><ele>236.33333333333331</ele><time>2026-05-03T10:43:59.283Z</time></trkpt><trkpt lat="38.1450669" lon="14.8764485"><ele>234.66666666666666</ele><time>2026-05-03T10:44:00.283Z</time></trkpt><trkpt lat="38.1450654" lon="14.8763306"><ele>233.0</ele><time>2026-05-03T10:44:01.283Z</time></trkpt><trkpt lat="38.1450674" lon="14.876221"><ele>231.33333333333331</ele><time>2026-05-03T10:44:02.283Z</time></trkpt><trkpt lat="38.1450732" lon="14.876118"><ele>229.66666666666666</ele><time>2026-05-03T10:44:03.283Z</time></trkpt><trkpt lat="38.1450948" lon="14.8760115"><ele>228.0</ele><time>2026-05-03T10:44:04.283Z</time></trkpt><trkpt lat="38.1451392" lon="14.8758957"><ele>225.25</ele><time>2026-05-03T10:44:05.283Z</time></trkpt><trkpt lat="38.1451879" lon="14.8757632"><ele>222.5</ele><time>2026-05-03T10:44:06.283Z</time></trkpt><trkpt lat="38.1452319" lon="14.875611"><ele>219.75</ele><time>2026-05-03T10:44:07.283Z</time></trkpt><trkpt lat="38.1452648" lon="14.875459"><ele>217.0</ele><time>2026-05-03T10:44:08.283Z</time></trkpt><trkpt lat="38.1452857" lon="14.8753104"><ele>217.0</ele><time>2026-05-03T10:44:09.283Z</time></trkpt><trkpt lat="38.1453033" lon="14.8751619"><ele>217.0</ele><time>2026-05-03T10:44:10.283Z</time></trkpt><trkpt lat="38.1453132" lon="14.8750206"><ele>217.0</ele><time>2026-05-03T10:44:11.283Z</time></trkpt><trkpt lat="38.1453243" lon="14.8748863"><ele>217.0</ele><time>2026-05-03T10:44:12.283Z</time></trkpt><trkpt lat="38.1453397" lon="14.8747484"><ele>217.0</ele><time>2026-05-03T10:44:13.282Z</time></trkpt><trkpt lat="38.1453604" lon="14.8746251"><ele>214.66666666666666</ele><time>2026-05-03T10:44:14.283Z</time></trkpt><trkpt lat="38.1453754" lon="14.8745071"><ele>212.33333333333331</ele><time>2026-05-03T10:44:15.283Z</time></trkpt><trkpt lat="38.1453904" lon="14.8743999"><ele>210.0</ele><time>2026-05-03T10:44:16.283Z</time></trkpt><trkpt lat="38.1454215" lon="14.8743086"><ele>207.66666666666669</ele><time>2026-05-03T10:44:17.283Z</time></trkpt><trkpt lat="38.1454681" lon="14.8742199"><ele>205.33333333333334</ele><time>2026-05-03T10:44:18.283Z</time></trkpt><trkpt lat="38.1455267" lon="14.8741302"><ele>203.0</ele><time>2026-05-03T10:44:19.283Z</time></trkpt><trkpt lat="38.1455983" lon="14.8740514"><ele>203.66666666666669</ele><time>2026-05-03T10:44:20.283Z</time></trkpt><trkpt lat="38.1456678" lon="14.8739655"><ele>204.33333333333334</ele><time>2026-05-03T10:44:21.283Z</time></trkpt><trkpt lat="38.1457331" lon="14.8738723"><ele>205.0</ele><time>2026-05-03T10:44:22.283Z</time></trkpt><trkpt lat="38.1457921" lon="14.8737918"><ele>205.66666666666669</ele><time>2026-05-03T10:44:23.283Z</time></trkpt><trkpt lat="38.145852" lon="14.8737323"><ele>206.33333333333334</ele><time>2026-05-03T10:44:24.283Z</time></trkpt><trkpt lat="38.1459184" lon="14.8736929"><ele>207.0</ele><time>2026-05-03T10:44:25.283Z</time></trkpt><trkpt lat="38.1460233" lon="14.8736833"><ele>207.0</ele><time>2026-05-03T10:44:27.283Z</time></trkpt><trkpt lat="38.146125" lon="14.8737717"><ele>207.0</ele><time>2026-05-03T10:44:29.283Z</time></trkpt><trkpt lat="38.146265" lon="14.8737517"><ele>207.0</ele><time>2026-05-03T10:44:31.283Z</time></trkpt><trkpt lat="38.1463333" lon="14.8736983"><ele>207.0</ele><time>2026-05-03T10:44:32.283Z</time></trkpt><trkpt lat="38.146405" lon="14.8736067"><ele>207.0</ele><time>2026-05-03T10:44:34.283Z</time></trkpt><trkpt lat="38.1463717" lon="14.8734667"><ele>201.5</ele><time>2026-05-03T10:44:36.283Z</time></trkpt><trkpt lat="38.1463133" lon="14.8733633"><ele>196.0</ele><time>2026-05-03T10:44:37.283Z</time></trkpt><trkpt lat="38.1462383" lon="14.8732417"><ele>190.5</ele><time>2026-05-03T10:44:38.283Z</time></trkpt><trkpt lat="38.1461683" lon="14.873115"><ele>185.0</ele><time>2026-05-03T10:44:39.283Z</time></trkpt><trkpt lat="38.1461067" lon="14.8729933"><ele>185.0</ele><time>2026-05-03T10:44:40.282Z</time></trkpt><trkpt lat="38.14605" lon="14.8728717"><ele>185.0</ele><time>2026-05-03T10:44:41.283Z</time></trkpt><trkpt lat="38.1459867" lon="14.8727583"><ele>185.0</ele><time>2026-05-03T10:44:42.283Z</time></trkpt><trkpt lat="38.1459067" lon="14.8726617"><ele>185.0</ele><time>2026-05-03T10:44:43.283Z</time></trkpt><trkpt lat="38.1457967" lon="14.8725717"><ele>179.25</ele><time>2026-05-03T10:44:44.283Z</time></trkpt><trkpt lat="38.14567" lon="14.8724767"><ele>173.5</ele><time>2026-05-03T10:44:45.283Z</time></trkpt><trkpt lat="38.14554" lon="14.8724033"><ele>167.75</ele><time>2026-05-03T10:44:46.283Z</time></trkpt><trkpt lat="38.145405" lon="14.8723467"><ele>162.0</ele><time>2026-05-03T10:44:47.283Z</time></trkpt><trkpt lat="38.1452667" lon="14.8722983"><ele>162.0</ele><time>2026-05-03T10:44:48.283Z</time></trkpt><trkpt lat="38.1451383" lon="14.8722433"><ele>162.0</ele><time>2026-05-03T10:44:49.283Z</time></trkpt><trkpt lat="38.1450183" lon="14.8721917"><ele>162.0</ele><time>2026-05-03T10:44:50.283Z</time></trkpt><trkpt lat="38.1448983" lon="14.8721517"><ele>162.0</ele><time>2026-05-03T10:44:51.282Z</time></trkpt><trkpt lat="38.1447717" lon="14.8721117"><ele>159.0</ele><time>2026-05-03T10:44:52.283Z</time></trkpt><trkpt lat="38.1446467" lon="14.8720933"><ele>156.0</ele><time>2026-05-03T10:44:53.283Z</time></trkpt><trkpt lat="38.1445267" lon="14.872095"><ele>153.0</ele><time>2026-05-03T10:44:54.283Z</time></trkpt><trkpt lat="38.1444167" lon="14.87209"><ele>150.0</ele><time>2026-05-03T10:44:55.283Z</time></trkpt><trkpt lat="38.1442967" lon="14.87209"><ele>150.0</ele><time>2026-05-03T10:44:56.283Z</time></trkpt><trkpt lat="38.1441883" lon="14.8720967"><ele>150.0</ele><time>2026-05-03T10:44:57.283Z</time></trkpt><trkpt lat="38.1440883" lon="14.8721033"><ele>150.0</ele><time>2026-05-03T10:44:58.283Z</time></trkpt><trkpt lat="38.1439867" lon="14.872095"><ele>150.0</ele><time>2026-05-03T10:44:59.283Z</time></trkpt><trkpt lat="38.14391" lon="14.8720883"><ele>150.0</ele><time>2026-05-03T10:45:00.283Z</time></trkpt><trkpt lat="38.143845" lon="14.872075"><ele>149.6</ele><time>2026-05-03T10:45:01.283Z</time></trkpt><trkpt lat="38.1437383" lon="14.8720333"><ele>149.2</ele><time>2026-05-03T10:45:03.283Z</time></trkpt><trkpt lat="38.14364" lon="14.8719717"><ele>148.8</ele><time>2026-05-03T10:45:05.283Z</time></trkpt><trkpt lat="38.1435567" lon="14.8719283"><ele>148.4</ele><time>2026-05-03T10:45:07.282Z</time></trkpt><trkpt lat="38.1434767" lon="14.8718883"><ele>148.0</ele><time>2026-05-03T10:45:09.282Z</time></trkpt><trkpt lat="38.1434" lon="14.87183"><ele>148.0</ele><time>2026-05-03T10:45:11.283Z</time></trkpt><trkpt lat="38.143325" lon="14.87178"><ele>148.0</ele><time>2026-05-03T10:45:13.283Z</time></trkpt><trkpt lat="38.143235" lon="14.871785"><ele>148.0</ele><time>2026-05-03T10:45:15.283Z</time></trkpt><trkpt lat="38.14316" lon="14.8718017"><ele>148.0</ele><time>2026-05-03T10:45:17.283Z</time></trkpt><trkpt lat="38.1431033" lon="14.8717417"><ele>148.0</ele><time>2026-05-03T10:45:19.283Z</time></trkpt><trkpt lat="38.143055" lon="14.87168"><ele>148.0</ele><time>2026-05-03T10:45:20.283Z</time></trkpt><trkpt lat="38.14299" lon="14.87159"><ele>143.0</ele><time>2026-05-03T10:45:21.283Z</time></trkpt><trkpt lat="38.142915" lon="14.8714633"><ele>138.0</ele><time>2026-05-03T10:45:22.283Z</time></trkpt><trkpt lat="38.1428233" lon="14.8713033"><ele>133.0</ele><time>2026-05-03T10:45:23.283Z</time></trkpt><trkpt lat="38.1427217" lon="14.8711283"><ele>133.0</ele><time>2026-05-03T10:45:24.283Z</time></trkpt><trkpt lat="38.1426083" lon="14.8709417"><ele>133.0</ele><time>2026-05-03T10:45:25.283Z</time></trkpt><trkpt lat="38.1425117" lon="14.8707683"><ele>133.0</ele><time>2026-05-03T10:45:26.282Z</time></trkpt><trkpt lat="38.142425" lon="14.8706117"><ele>129.5</ele><time>2026-05-03T10:45:27.283Z</time></trkpt><trkpt lat="38.1423433" lon="14.8704683"><ele>126.0</ele><time>2026-05-03T10:45:28.283Z</time></trkpt><trkpt lat="38.1422667" lon="14.8703383"><ele>122.5</ele><time>2026-05-03T10:45:29.283Z</time></trkpt><trkpt lat="38.1421817" lon="14.8702133"><ele>119.0</ele><time>2026-05-03T10:45:30.283Z</time></trkpt><trkpt lat="38.1421117" lon="14.8700817"><ele>118.25</ele><time>2026-05-03T10:45:31.283Z</time></trkpt><trkpt lat="38.1420333" lon="14.8699583"><ele>117.5</ele><time>2026-05-03T10:45:32.282Z</time></trkpt><trkpt lat="38.1419383" lon="14.8698167"><ele>116.75</ele><time>2026-05-03T10:45:33.283Z</time></trkpt><trkpt lat="38.1418317" lon="14.86967"><ele>116.0</ele><time>2026-05-03T10:45:34.283Z</time></trkpt><trkpt lat="38.1417333" lon="14.8695433"><ele>116.0</ele><time>2026-05-03T10:45:35.283Z</time></trkpt><trkpt lat="38.1416417" lon="14.8694267"><ele>116.0</ele><time>2026-05-03T10:45:36.283Z</time></trkpt><trkpt lat="38.1415617" lon="14.8693217"><ele>116.0</ele><time>2026-05-03T10:45:37.283Z</time></trkpt><trkpt lat="38.1414917" lon="14.86924"><ele>116.0</ele><time>2026-05-03T10:45:38.283Z</time></trkpt><trkpt lat="38.1414283" lon="14.8691683"><ele>116.0</ele><time>2026-05-03T10:45:39.283Z</time></trkpt><trkpt lat="38.14139" lon="14.8690883"><ele>115.19999999999999</ele><time>2026-05-03T10:45:40.282Z</time></trkpt><trkpt lat="38.1413717" lon="14.8690083"><ele>114.39999999999999</ele><time>2026-05-03T10:45:41.283Z</time></trkpt><trkpt lat="38.141375" lon="14.8689183"><ele>113.6</ele><time>2026-05-03T10:45:42.283Z</time></trkpt><trkpt lat="38.1413867" lon="14.8687933"><ele>112.8</ele><time>2026-05-03T10:45:43.282Z</time></trkpt><trkpt lat="38.1414267" lon="14.8686433"><ele>112.0</ele><time>2026-05-03T10:45:44.283Z</time></trkpt><trkpt lat="38.1414717" lon="14.8685"><ele>111.75</ele><time>2026-05-03T10:45:45.283Z</time></trkpt><trkpt lat="38.141515" lon="14.8683717"><ele>111.5</ele><time>2026-05-03T10:45:46.283Z</time></trkpt><trkpt lat="38.1415867" lon="14.8682283"><ele>111.25</ele><time>2026-05-03T10:45:47.283Z</time></trkpt><trkpt lat="38.1416733" lon="14.86808"><ele>111.0</ele><time>2026-05-03T10:45:48.283Z</time></trkpt><trkpt lat="38.1417617" lon="14.8679117"><ele>110.0</ele><time>2026-05-03T10:45:49.283Z</time></trkpt><trkpt lat="38.1418533" lon="14.8677267"><ele>109.0</ele><time>2026-05-03T10:45:50.283Z</time></trkpt><trkpt lat="38.141945" lon="14.867525"><ele>108.0</ele><time>2026-05-03T10:45:51.283Z</time></trkpt><trkpt lat="38.1420317" lon="14.8673017"><ele>107.0</ele><time>2026-05-03T10:45:52.283Z</time></trkpt><trkpt lat="38.1421267" lon="14.867085"><ele>106.0</ele><time>2026-05-03T10:45:53.283Z</time></trkpt><trkpt lat="38.1422117" lon="14.8668867"><ele>105.0</ele><time>2026-05-03T10:45:54.283Z</time></trkpt><trkpt lat="38.1422967" lon="14.8667117"><ele>105.0</ele><time>2026-05-03T10:45:55.283Z</time></trkpt><trkpt lat="38.142365" lon="14.86655"><ele>105.0</ele><time>2026-05-03T10:45:56.283Z</time></trkpt><trkpt lat="38.14244" lon="14.8664067"><ele>105.0</ele><time>2026-05-03T10:45:57.283Z</time></trkpt><trkpt lat="38.1425167" lon="14.8662483"><ele>105.0</ele><time>2026-05-03T10:45:58.283Z</time></trkpt><trkpt lat="38.142585" lon="14.866085"><ele>104.25</ele><time>2026-05-03T10:45:59.283Z</time></trkpt><trkpt lat="38.1426467" lon="14.8659133"><ele>103.5</ele><time>2026-05-03T10:46:00.283Z</time></trkpt><trkpt lat="38.1427067" lon="14.8657467"><ele>102.75</ele><time>2026-05-03T10:46:01.282Z</time></trkpt><trkpt lat="38.1427633" lon="14.8655667"><ele>102.0</ele><time>2026-05-03T10:46:02.283Z</time></trkpt><trkpt lat="38.14283" lon="14.865415"><ele>102.0</ele><time>2026-05-03T10:46:03.283Z</time></trkpt><trkpt lat="38.1428933" lon="14.8652633"><ele>102.0</ele><time>2026-05-03T10:46:04.283Z</time></trkpt><trkpt lat="38.1429717" lon="14.8651233"><ele>102.0</ele><time>2026-05-03T10:46:05.283Z</time></trkpt><trkpt lat="38.1430583" lon="14.8649867"><ele>102.0</ele><time>2026-05-03T10:46:06.283Z</time></trkpt><trkpt lat="38.143165" lon="14.8648417"><ele>99.33333333333333</ele><time>2026-05-03T10:46:07.283Z</time></trkpt><trkpt lat="38.1432667" lon="14.864695"><ele>96.66666666666666</ele><time>2026-05-03T10:46:08.283Z</time></trkpt><trkpt lat="38.1433717" lon="14.8645467"><ele>94.0</ele><time>2026-05-03T10:46:09.283Z</time></trkpt><trkpt lat="38.1434783" lon="14.864395"><ele>93.5</ele><time>2026-05-03T10:46:10.283Z</time></trkpt><trkpt lat="38.1435783" lon="14.86426"><ele>93.0</ele><time>2026-05-03T10:46:11.283Z</time></trkpt><trkpt lat="38.1436717" lon="14.8641383"><ele>92.5</ele><time>2026-05-03T10:46:12.283Z</time></trkpt><trkpt lat="38.14376" lon="14.8640217"><ele>92.0</ele><time>2026-05-03T10:46:13.283Z</time></trkpt><trkpt lat="38.1438417" lon="14.8639183"><ele>92.0</ele><time>2026-05-03T10:46:14.283Z</time></trkpt><trkpt lat="38.1439117" lon="14.8638267"><ele>92.0</ele><time>2026-05-03T10:46:15.283Z</time></trkpt><trkpt lat="38.1439783" lon="14.8637283"><ele>92.0</ele><time>2026-05-03T10:46:16.282Z</time></trkpt><trkpt lat="38.14408" lon="14.86363"><ele>92.0</ele><time>2026-05-03T10:46:17.283Z</time></trkpt><trkpt lat="38.1442033" lon="14.8635183"><ele>91.0</ele><time>2026-05-03T10:46:18.283Z</time></trkpt><trkpt lat="38.1443267" lon="14.86342"><ele>90.0</ele><time>2026-05-03T10:46:19.283Z</time></trkpt><trkpt lat="38.1444217" lon="14.8633367"><ele>89.0</ele><time>2026-05-03T10:46:20.283Z</time></trkpt><trkpt lat="38.144495" lon="14.8632617"><ele>88.0</ele><time>2026-05-03T10:46:21.283Z</time></trkpt><trkpt lat="38.1445467" lon="14.8632017"><ele>87.0</ele><time>2026-05-03T10:46:22.282Z</time></trkpt><trkpt lat="38.1445917" lon="14.863095"><ele>87.0</ele><time>2026-05-03T10:46:24.283Z</time></trkpt><trkpt lat="38.1446583" lon="14.8630633"><ele>87.0</ele><time>2026-05-03T10:46:36.283Z</time></trkpt><trkpt lat="38.1447417" lon="14.8631833"><ele>87.0</ele><time>2026-05-03T10:46:38.282Z</time></trkpt><trkpt lat="38.1447983" lon="14.86328"><ele>87.0</ele><time>2026-05-03T10:46:39.283Z</time></trkpt><trkpt lat="38.1448583" lon="14.863385"><ele>87.0</ele><time>2026-05-03T10:46:40.283Z</time></trkpt><trkpt lat="38.14492" lon="14.8634833"><ele>88.0</ele><time>2026-05-03T10:46:41.283Z</time></trkpt><trkpt lat="38.14498" lon="14.8635767"><ele>89.0</ele><time>2026-05-03T10:46:42.283Z</time></trkpt><trkpt lat="38.145025" lon="14.863665"><ele>90.0</ele><time>2026-05-03T10:46:43.283Z</time></trkpt><trkpt lat="38.145065" lon="14.86374"><ele>91.0</ele><time>2026-05-03T10:46:44.283Z</time></trkpt><trkpt lat="38.1451367" lon="14.8638483"><ele>92.0</ele><time>2026-05-03T10:46:46.283Z</time></trkpt><trkpt lat="38.1451017" lon="14.86371"><ele>92.0</ele><time>2026-05-03T10:46:51.283Z</time></trkpt><trkpt lat="38.1450333" lon="14.8636067"><ele>92.0</ele><time>2026-05-03T10:46:52.283Z</time></trkpt><trkpt lat="38.1449633" lon="14.8634883"><ele>92.0</ele><time>2026-05-03T10:46:53.282Z</time></trkpt><trkpt lat="38.1449017" lon="14.863385"><ele>92.0</ele><time>2026-05-03T10:46:54.283Z</time></trkpt><trkpt lat="38.1448433" lon="14.8632883"><ele>92.0</ele><time>2026-05-03T10:46:55.283Z</time></trkpt><trkpt lat="38.1447883" lon="14.8631983"><ele>91.0</ele><time>2026-05-03T10:46:56.283Z</time></trkpt><trkpt lat="38.1447283" lon="14.8631133"><ele>90.0</ele><time>2026-05-03T10:46:57.283Z</time></trkpt><trkpt lat="38.1446583" lon="14.8630517"><ele>89.0</ele><time>2026-05-03T10:46:58.283Z</time></trkpt><trkpt lat="38.1445817" lon="14.862955"><ele>88.0</ele><time>2026-05-03T10:47:00.283Z</time></trkpt><trkpt lat="38.1446317" lon="14.86282"><ele>87.0</ele><time>2026-05-03T10:47:02.283Z</time></trkpt><trkpt lat="38.1447083" lon="14.8627617"><ele>87.0</ele><time>2026-05-03T10:47:03.283Z</time></trkpt><trkpt lat="38.1447917" lon="14.8626983"><ele>87.0</ele><time>2026-05-03T10:47:04.283Z</time></trkpt><trkpt lat="38.1448733" lon="14.8626133"><ele>87.0</ele><time>2026-05-03T10:47:05.283Z</time></trkpt><trkpt lat="38.144965" lon="14.862495"><ele>87.0</ele><time>2026-05-03T10:47:06.283Z</time></trkpt><trkpt lat="38.145065" lon="14.8623417"><ele>86.0</ele><time>2026-05-03T10:47:07.283Z</time></trkpt><trkpt lat="38.1451733" lon="14.8621733"><ele>85.0</ele><time>2026-05-03T10:47:08.283Z</time></trkpt><trkpt lat="38.1452683" lon="14.86201"><ele>84.0</ele><time>2026-05-03T10:47:09.283Z</time></trkpt><trkpt lat="38.14535" lon="14.861865"><ele>83.80000000000001</ele><time>2026-05-03T10:47:10.283Z</time></trkpt><trkpt lat="38.1454233" lon="14.861735"><ele>83.60000000000001</ele><time>2026-05-03T10:47:11.283Z</time></trkpt><trkpt lat="38.1454883" lon="14.8616117"><ele>83.4</ele><time>2026-05-03T10:47:12.282Z</time></trkpt><trkpt lat="38.14554" lon="14.861495"><ele>83.2</ele><time>2026-05-03T10:47:13.283Z</time></trkpt><trkpt lat="38.1455967" lon="14.8613917"><ele>83.0</ele><time>2026-05-03T10:47:14.283Z</time></trkpt><trkpt lat="38.145645" lon="14.86128"><ele>83.0</ele><time>2026-05-03T10:47:15.283Z</time></trkpt><trkpt lat="38.14568" lon="14.8611817"><ele>83.0</ele><time>2026-05-03T10:47:16.283Z</time></trkpt><trkpt lat="38.1457" lon="14.8610967"><ele>83.0</ele><time>2026-05-03T10:47:17.283Z</time></trkpt><trkpt lat="38.1457583" lon="14.8610133"><ele>83.0</ele><time>2026-05-03T10:47:19.283Z</time></trkpt><trkpt lat="38.1458183" lon="14.8609833"><ele>83.0</ele><time>2026-05-03T10:47:22.283Z</time></trkpt><trkpt lat="38.145905" lon="14.8610567"><ele>83.0</ele><time>2026-05-03T10:47:25.283Z</time></trkpt><trkpt lat="38.1459933" lon="14.8611133"><ele>82.5</ele><time>2026-05-03T10:47:27.283Z</time></trkpt><trkpt lat="38.1460717" lon="14.8610183"><ele>82.0</ele><time>2026-05-03T10:47:29.283Z</time></trkpt><trkpt lat="38.1461117" lon="14.860895"><ele>81.5</ele><time>2026-05-03T10:47:30.283Z</time></trkpt><trkpt lat="38.1461433" lon="14.8607283"><ele>81.0</ele><time>2026-05-03T10:47:31.283Z</time></trkpt><trkpt lat="38.1461817" lon="14.86053"><ele>80.75</ele><time>2026-05-03T10:47:32.283Z</time></trkpt><trkpt lat="38.1462067" lon="14.8603433"><ele>80.5</ele><time>2026-05-03T10:47:33.283Z</time></trkpt><trkpt lat="38.1462433" lon="14.86018"><ele>80.25</ele><time>2026-05-03T10:47:34.283Z</time></trkpt><trkpt lat="38.1463017" lon="14.8600233"><ele>80.0</ele><time>2026-05-03T10:47:35.283Z</time></trkpt><trkpt lat="38.1463733" lon="14.859845"><ele>80.0</ele><time>2026-05-03T10:47:36.283Z</time></trkpt><trkpt lat="38.1464533" lon="14.8596583"><ele>80.0</ele><time>2026-05-03T10:47:37.283Z</time></trkpt><trkpt lat="38.146525" lon="14.8594417"><ele>80.0</ele><time>2026-05-03T10:47:38.283Z</time></trkpt><trkpt lat="38.1465933" lon="14.859225"><ele>79.0</ele><time>2026-05-03T10:47:39.283Z</time></trkpt><trkpt lat="38.146645" lon="14.8590367"><ele>78.0</ele><time>2026-05-03T10:47:40.283Z</time></trkpt><trkpt lat="38.1466783" lon="14.8588717"><ele>77.0</ele><time>2026-05-03T10:47:41.283Z</time></trkpt><trkpt lat="38.1467133" lon="14.8587283"><ele>76.0</ele><time>2026-05-03T10:47:42.283Z</time></trkpt><trkpt lat="38.1467367" lon="14.8585967"><ele>76.0</ele><time>2026-05-03T10:47:43.283Z</time></trkpt><trkpt lat="38.1467433" lon="14.85849"><ele>76.0</ele><time>2026-05-03T10:47:44.283Z</time></trkpt><trkpt lat="38.1467583" lon="14.8583717"><ele>76.0</ele><time>2026-05-03T10:47:46.283Z</time></trkpt><trkpt lat="38.1468433" lon="14.858375"><ele>76.0</ele><time>2026-05-03T10:47:49.283Z</time></trkpt><trkpt lat="38.146945" lon="14.858425"><ele>76.0</ele><time>2026-05-03T10:47:51.283Z</time></trkpt><trkpt lat="38.1470333" lon="14.8584833"><ele>76.0</ele><time>2026-05-03T10:47:53.283Z</time></trkpt><trkpt lat="38.147115" lon="14.8584933"><ele>76.0</ele><time>2026-05-03T10:47:56.283Z</time></trkpt><trkpt lat="38.1471917" lon="14.8584367"><ele>76.0</ele><time>2026-05-03T10:48:05.283Z</time></trkpt><trkpt lat="38.14722" lon="14.8582633"><ele>76.0</ele><time>2026-05-03T10:48:07.283Z</time></trkpt><trkpt lat="38.14722" lon="14.8580967"><ele>76.0</ele><time>2026-05-03T10:48:08.283Z</time></trkpt><trkpt lat="38.1472083" lon="14.8578733"><ele>75.33333333333333</ele><time>2026-05-03T10:48:09.283Z</time></trkpt><trkpt lat="38.1472033" lon="14.85762"><ele>74.66666666666667</ele><time>2026-05-03T10:48:10.283Z</time></trkpt><trkpt lat="38.1472117" lon="14.8573833"><ele>74.0</ele><time>2026-05-03T10:48:11.283Z</time></trkpt><trkpt lat="38.1472083" lon="14.8571833"><ele>73.75</ele><time>2026-05-03T10:48:12.283Z</time></trkpt><trkpt lat="38.147215" lon="14.8569983"><ele>73.5</ele><time>2026-05-03T10:48:13.283Z</time></trkpt><trkpt lat="38.147215" lon="14.8568283"><ele>73.25</ele><time>2026-05-03T10:48:14.283Z</time></trkpt><trkpt lat="38.1472083" lon="14.8566733"><ele>73.0</ele><time>2026-05-03T10:48:15.283Z</time></trkpt><trkpt lat="38.14722" lon="14.85653"><ele>74.25</ele><time>2026-05-03T10:48:16.283Z</time></trkpt><trkpt lat="38.1472617" lon="14.85641"><ele>75.5</ele><time>2026-05-03T10:48:17.283Z</time></trkpt><trkpt lat="38.1473233" lon="14.85629"><ele>76.75</ele><time>2026-05-03T10:48:18.283Z</time></trkpt><trkpt lat="38.14741" lon="14.8561817"><ele>78.0</ele><time>2026-05-03T10:48:19.283Z</time></trkpt><trkpt lat="38.1474967" lon="14.8560817"><ele>76.75</ele><time>2026-05-03T10:48:20.282Z</time></trkpt><trkpt lat="38.1476117" lon="14.8560017"><ele>75.5</ele><time>2026-05-03T10:48:21.283Z</time></trkpt><trkpt lat="38.1477383" lon="14.8559267"><ele>74.25</ele><time>2026-05-03T10:48:22.282Z</time></trkpt><trkpt lat="38.1478767" lon="14.8558533"><ele>73.0</ele><time>2026-05-03T10:48:23.283Z</time></trkpt><trkpt lat="38.1480217" lon="14.8557683"><ele>73.0</ele><time>2026-05-03T10:48:24.282Z</time></trkpt><trkpt lat="38.14816" lon="14.8556817"><ele>73.0</ele><time>2026-05-03T10:48:25.282Z</time></trkpt><trkpt lat="38.148285" lon="14.8555917"><ele>73.0</ele><time>2026-05-03T10:48:26.283Z</time></trkpt><trkpt lat="38.148395" lon="14.8555"><ele>73.0</ele><time>2026-05-03T10:48:27.283Z</time></trkpt><trkpt lat="38.148485" lon="14.8554167"><ele>71.83333333333333</ele><time>2026-05-03T10:48:28.283Z</time></trkpt><trkpt lat="38.1485633" lon="14.8553333"><ele>70.66666666666666</ele><time>2026-05-03T10:48:29.283Z</time></trkpt><trkpt lat="38.14862" lon="14.8552617"><ele>69.5</ele><time>2026-05-03T10:48:30.283Z</time></trkpt><trkpt lat="38.1486683" lon="14.8552067"><ele>68.33333333333333</ele><time>2026-05-03T10:48:31.283Z</time></trkpt><trkpt lat="38.1487167" lon="14.8551233"><ele>67.16666666666667</ele><time>2026-05-03T10:48:33.283Z</time></trkpt><trkpt lat="38.14866" lon="14.8550333"><ele>66.0</ele><time>2026-05-03T10:48:36.283Z</time></trkpt><trkpt lat="38.1485883" lon="14.8550067"><ele>66.0</ele><time>2026-05-03T10:48:37.283Z</time></trkpt><trkpt lat="38.1485083" lon="14.8549567"><ele>66.0</ele><time>2026-05-03T10:48:38.282Z</time></trkpt><trkpt lat="38.14842" lon="14.8548917"><ele>66.0</ele><time>2026-05-03T10:48:39.283Z</time></trkpt><trkpt lat="38.1483283" lon="14.8548167"><ele>66.0</ele><time>2026-05-03T10:48:40.283Z</time></trkpt><trkpt lat="38.1481883" lon="14.854685"><ele>67.33333333333333</ele><time>2026-05-03T10:48:41.283Z</time></trkpt><trkpt lat="38.1480417" lon="14.854525"><ele>68.66666666666666</ele><time>2026-05-03T10:48:42.283Z</time></trkpt><trkpt lat="38.1478717" lon="14.8543867"><ele>70.0</ele><time>2026-05-03T10:48:43.283Z</time></trkpt><trkpt lat="38.1477" lon="14.85428"><ele>70.0</ele><time>2026-05-03T10:48:44.283Z</time></trkpt><trkpt lat="38.14753" lon="14.854175"><ele>70.0</ele><time>2026-05-03T10:48:45.283Z</time></trkpt><trkpt lat="38.1473533" lon="14.8540683"><ele>70.0</ele><time>2026-05-03T10:48:46.283Z</time></trkpt><trkpt lat="38.1471933" lon="14.8539467"><ele>74.0</ele><time>2026-05-03T10:48:47.282Z</time></trkpt><trkpt lat="38.14705" lon="14.8538267"><ele>78.0</ele><time>2026-05-03T10:48:48.283Z</time></trkpt><trkpt lat="38.146935" lon="14.8537467"><ele>82.0</ele><time>2026-05-03T10:48:49.283Z</time></trkpt><trkpt lat="38.14688" lon="14.8536917"><ele>86.0</ele><time>2026-05-03T10:48:50.282Z</time></trkpt><trkpt lat="38.1469667" lon="14.85362"><ele>86.0</ele><time>2026-05-03T10:48:56.283Z</time></trkpt><trkpt lat="38.1470617" lon="14.85358"><ele>86.0</ele><time>2026-05-03T10:48:58.283Z</time></trkpt><trkpt lat="38.1471233" lon="14.8535483"><ele>86.0</ele><time>2026-05-03T10:49:00.283Z</time></trkpt><trkpt lat="38.1471674" lon="14.8536225"><ele>86.0</ele><time>2026-05-03T10:50:35.284Z</time></trkpt></trkseg></trk></gpx>